<?xml version="1.0" encoding="UTF-8"?>
<gpx version="1.1" creator="https://www.youtrack.es" xsi:schemaLocation="http://www.topografix.com/GPX/1/1 http://www.topografix.com/GPX/1/1/gpx.xsd http://www.garmin.com/xmlschemas/GpxExtensions/v3 http://www.garmin.com/xmlschemas/GpxExtensionsv3.xsd http://www.garmin.com/xmlschemas/TrackPointExtension/v1 http://www.garmin.com/xmlschemas/TrackPointExtensionv1.xsd" xmlns:gpxtpx="http://www.garmin.com/xmlschemas/TrackPointExtension/v1" xmlns:gpxx="http://www.garmin.com/xmlschemas/GpxExtensions/v3" xmlns:xsi="http://www.w3.org/2001/XMLSchema-instance">
  <metadata>
    <author>
      <name>Victor Bouman</name>
      <email id="boumancasasvictor" domain="gmail.com"/>
    </author>
    <link href="https://www.youtrack.es">
      <text>YouTrack.es</text>
    </link>
    <time>2026-05-08T12:30:43Z</time>
  </metadata>
  <trk>
    <src>https://www.youtrack.es</src>
    <link href="https://www.youtrack.es/ruta/15796-b1">
      <text>YouTrack.es</text>
    </link>
    <trkseg>
      <trkpt lat="37.1666070633" lon="-3.5986097809">
        <ele>724.01</ele>
        <time>2020-09-06T06:16:03Z</time>
      </trkpt>
      <trkpt lat="37.1665822528" lon="-3.5986049194">
        <ele>604.81</ele>
        <time>2020-09-06T06:16:04Z</time>
      </trkpt>
      <trkpt lat="37.1665524971" lon="-3.5986045841">
        <ele>604.81</ele>
        <time>2020-09-06T06:16:05Z</time>
      </trkpt>
      <trkpt lat="37.1662664227" lon="-3.5983347706">
        <ele>605.77</ele>
        <time>2020-09-06T06:16:17Z</time>
      </trkpt>
      <trkpt lat="37.1663889661" lon="-3.5980245564">
        <ele>605.77</ele>
        <time>2020-09-06T06:16:25Z</time>
      </trkpt>
      <trkpt lat="37.1664764732" lon="-3.5979853291">
        <ele>605.77</ele>
        <time>2020-09-06T06:16:27Z</time>
      </trkpt>
      <trkpt lat="37.1665545087" lon="-3.5979590099">
        <ele>605.77</ele>
        <time>2020-09-06T06:16:29Z</time>
      </trkpt>
      <trkpt lat="37.1666878648" lon="-3.5978917032">
        <ele>605.77</ele>
        <time>2020-09-06T06:16:32Z</time>
      </trkpt>
      <trkpt lat="37.1667232364" lon="-3.5978512187">
        <ele>605.77</ele>
        <time>2020-09-06T06:16:33Z</time>
      </trkpt>
      <trkpt lat="37.1667487174" lon="-3.5978116561">
        <ele>606.25</ele>
        <time>2020-09-06T06:16:34Z</time>
      </trkpt>
      <trkpt lat="37.1667757910" lon="-3.5977605265">
        <ele>606.25</ele>
        <time>2020-09-06T06:16:35Z</time>
      </trkpt>
      <trkpt lat="37.1667963266" lon="-3.5977177788">
        <ele>606.25</ele>
        <time>2020-09-06T06:16:36Z</time>
      </trkpt>
      <trkpt lat="37.1671221312" lon="-3.5969681852">
        <ele>606.73</ele>
        <time>2020-09-06T06:16:53Z</time>
      </trkpt>
      <trkpt lat="37.1674315073" lon="-3.5964230262">
        <ele>608.17</ele>
        <time>2020-09-06T06:17:06Z</time>
      </trkpt>
      <trkpt lat="37.1674657892" lon="-3.5963921808">
        <ele>608.65</ele>
        <time>2020-09-06T06:17:07Z</time>
      </trkpt>
      <trkpt lat="37.1677186713" lon="-3.5961943679">
        <ele>609.13</ele>
        <time>2020-09-06T06:17:14Z</time>
      </trkpt>
      <trkpt lat="37.1677532885" lon="-3.5961592477">
        <ele>609.13</ele>
        <time>2020-09-06T06:17:15Z</time>
      </trkpt>
      <trkpt lat="37.1682075877" lon="-3.5955854226">
        <ele>610.09</ele>
        <time>2020-09-06T06:17:30Z</time>
      </trkpt>
      <trkpt lat="37.1685786545" lon="-3.5948216636">
        <ele>611.06</ele>
        <time>2020-09-06T06:17:45Z</time>
      </trkpt>
      <trkpt lat="37.1688177064" lon="-3.5942751635">
        <ele>611.54</ele>
        <time>2020-09-06T06:17:55Z</time>
      </trkpt>
      <trkpt lat="37.1689586900" lon="-3.5935319401">
        <ele>612.02</ele>
        <time>2020-09-06T06:18:08Z</time>
      </trkpt>
      <trkpt lat="37.1689554211" lon="-3.5932384059">
        <ele>612.50</ele>
        <time>2020-09-06T06:18:13Z</time>
      </trkpt>
      <trkpt lat="37.1689483803" lon="-3.5931759607">
        <ele>612.50</ele>
        <time>2020-09-06T06:18:14Z</time>
      </trkpt>
      <trkpt lat="37.1687456220" lon="-3.5922728945">
        <ele>613.94</ele>
        <time>2020-09-06T06:18:30Z</time>
      </trkpt>
      <trkpt lat="37.1684452146" lon="-3.5915775318">
        <ele>615.86</ele>
        <time>2020-09-06T06:18:44Z</time>
      </trkpt>
      <trkpt lat="37.1684184764" lon="-3.5915333591">
        <ele>615.86</ele>
        <time>2020-09-06T06:18:45Z</time>
      </trkpt>
      <trkpt lat="37.1683859546" lon="-3.5914891865">
        <ele>615.86</ele>
        <time>2020-09-06T06:18:46Z</time>
      </trkpt>
      <trkpt lat="37.1683504991" lon="-3.5914432537">
        <ele>615.86</ele>
        <time>2020-09-06T06:18:47Z</time>
      </trkpt>
      <trkpt lat="37.1679358464" lon="-3.5908217356">
        <ele>617.30</ele>
        <time>2020-09-06T06:19:01Z</time>
      </trkpt>
      <trkpt lat="37.1675820462" lon="-3.5902707931">
        <ele>618.75</ele>
        <time>2020-09-06T06:19:13Z</time>
      </trkpt>
      <trkpt lat="37.1674301662" lon="-3.5900276341">
        <ele>619.71</ele>
        <time>2020-09-06T06:19:19Z</time>
      </trkpt>
      <trkpt lat="37.1674009971" lon="-3.5899807792">
        <ele>620.19</ele>
        <time>2020-09-06T06:19:20Z</time>
      </trkpt>
      <trkpt lat="37.1673633624" lon="-3.5899277218">
        <ele>620.19</ele>
        <time>2020-09-06T06:19:21Z</time>
      </trkpt>
      <trkpt lat="37.1672056150" lon="-3.5896995664">
        <ele>620.67</ele>
        <time>2020-09-06T06:19:25Z</time>
      </trkpt>
      <trkpt lat="37.1671812236" lon="-3.5896429047">
        <ele>620.67</ele>
        <time>2020-09-06T06:19:26Z</time>
      </trkpt>
      <trkpt lat="37.1671684831" lon="-3.5895766877">
        <ele>621.15</ele>
        <time>2020-09-06T06:19:27Z</time>
      </trkpt>
      <trkpt lat="37.1671823971" lon="-3.5895100515">
        <ele>621.15</ele>
        <time>2020-09-06T06:19:28Z</time>
      </trkpt>
      <trkpt lat="37.1672163438" lon="-3.5894503724">
        <ele>621.63</ele>
        <time>2020-09-06T06:19:29Z</time>
      </trkpt>
      <trkpt lat="37.1672466863" lon="-3.5894169286">
        <ele>621.15</ele>
        <time>2020-09-06T06:19:30Z</time>
      </trkpt>
      <trkpt lat="37.1672905236" lon="-3.5893715825">
        <ele>621.63</ele>
        <time>2020-09-06T06:19:31Z</time>
      </trkpt>
      <trkpt lat="37.1674449183" lon="-3.5891994182">
        <ele>621.63</ele>
        <time>2020-09-06T06:19:35Z</time>
      </trkpt>
      <trkpt lat="37.1675236244" lon="-3.5890975781">
        <ele>621.63</ele>
        <time>2020-09-06T06:19:37Z</time>
      </trkpt>
      <trkpt lat="37.1678327490" lon="-3.5887900461">
        <ele>620.67</ele>
        <time>2020-09-06T06:19:44Z</time>
      </trkpt>
      <trkpt lat="37.1678793523" lon="-3.5887773894">
        <ele>620.67</ele>
        <time>2020-09-06T06:19:45Z</time>
      </trkpt>
      <trkpt lat="37.1679320745" lon="-3.5887820832">
        <ele>620.67</ele>
        <time>2020-09-06T06:19:46Z</time>
      </trkpt>
      <trkpt lat="37.1679821145" lon="-3.5888113361">
        <ele>620.67</ele>
        <time>2020-09-06T06:19:47Z</time>
      </trkpt>
      <trkpt lat="37.1680391114" lon="-3.5888759606">
        <ele>620.67</ele>
        <time>2020-09-06T06:19:48Z</time>
      </trkpt>
      <trkpt lat="37.1680707950" lon="-3.5889368970">
        <ele>620.67</ele>
        <time>2020-09-06T06:19:49Z</time>
      </trkpt>
      <trkpt lat="37.1680914983" lon="-3.5889840033">
        <ele>620.67</ele>
        <time>2020-09-06T06:19:50Z</time>
      </trkpt>
      <trkpt lat="37.1681234334" lon="-3.5890500527">
        <ele>620.67</ele>
        <time>2020-09-06T06:19:51Z</time>
      </trkpt>
      <trkpt lat="37.1681543626" lon="-3.5891168565">
        <ele>620.67</ele>
        <time>2020-09-06T06:19:52Z</time>
      </trkpt>
      <trkpt lat="37.1685851086" lon="-3.5900862236">
        <ele>619.71</ele>
        <time>2020-09-06T06:20:05Z</time>
      </trkpt>
      <trkpt lat="37.1690491308" lon="-3.5910804849">
        <ele>618.75</ele>
        <time>2020-09-06T06:20:19Z</time>
      </trkpt>
      <trkpt lat="37.1690885257" lon="-3.5911330394">
        <ele>618.75</ele>
        <time>2020-09-06T06:20:20Z</time>
      </trkpt>
      <trkpt lat="37.1691347938" lon="-3.5911544133">
        <ele>618.75</ele>
        <time>2020-09-06T06:20:21Z</time>
      </trkpt>
      <trkpt lat="37.1691874322" lon="-3.5911443550">
        <ele>618.75</ele>
        <time>2020-09-06T06:20:22Z</time>
      </trkpt>
      <trkpt lat="37.1692311857" lon="-3.5911206342">
        <ele>618.75</ele>
        <time>2020-09-06T06:20:23Z</time>
      </trkpt>
      <trkpt lat="37.1692680661" lon="-3.5910928901">
        <ele>618.75</ele>
        <time>2020-09-06T06:20:24Z</time>
      </trkpt>
      <trkpt lat="37.1693045273" lon="-3.5910627153">
        <ele>618.75</ele>
        <time>2020-09-06T06:20:25Z</time>
      </trkpt>
      <trkpt lat="37.1693373006" lon="-3.5910254996">
        <ele>618.75</ele>
        <time>2020-09-06T06:20:26Z</time>
      </trkpt>
      <trkpt lat="37.1693585068" lon="-3.5909806564">
        <ele>619.23</ele>
        <time>2020-09-06T06:20:27Z</time>
      </trkpt>
      <trkpt lat="37.1693671402" lon="-3.5909274314">
        <ele>620.67</ele>
        <time>2020-09-06T06:20:28Z</time>
      </trkpt>
      <trkpt lat="37.1693672240" lon="-3.5908746254">
        <ele>620.67</ele>
        <time>2020-09-06T06:20:29Z</time>
      </trkpt>
      <trkpt lat="37.1693635359" lon="-3.5908203106">
        <ele>620.67</ele>
        <time>2020-09-06T06:20:30Z</time>
      </trkpt>
      <trkpt lat="37.1692508832" lon="-3.5901653487">
        <ele>623.55</ele>
        <time>2020-09-06T06:20:42Z</time>
      </trkpt>
      <trkpt lat="37.1691763680" lon="-3.5897425655">
        <ele>626.44</ele>
        <time>2020-09-06T06:20:50Z</time>
      </trkpt>
      <trkpt lat="37.1690268349" lon="-3.5890158545">
        <ele>629.32</ele>
        <time>2020-09-06T06:21:06Z</time>
      </trkpt>
      <trkpt lat="37.1689305268" lon="-3.5885252617">
        <ele>632.68</ele>
        <time>2020-09-06T06:21:18Z</time>
      </trkpt>
      <trkpt lat="37.1688366495" lon="-3.5880299751">
        <ele>635.57</ele>
        <time>2020-09-06T06:21:31Z</time>
      </trkpt>
      <trkpt lat="37.1688101627" lon="-3.5875745025">
        <ele>638.93</ele>
        <time>2020-09-06T06:21:44Z</time>
      </trkpt>
      <trkpt lat="37.1688895393" lon="-3.5875190143">
        <ele>639.89</ele>
        <time>2020-09-06T06:21:47Z</time>
      </trkpt>
      <trkpt lat="37.1689218096" lon="-3.5875256360">
        <ele>639.89</ele>
        <time>2020-09-06T06:21:48Z</time>
      </trkpt>
      <trkpt lat="37.1689477097" lon="-3.5875448305">
        <ele>640.38</ele>
        <time>2020-09-06T06:21:49Z</time>
      </trkpt>
      <trkpt lat="37.1689681616" lon="-3.5875688866">
        <ele>640.38</ele>
        <time>2020-09-06T06:21:50Z</time>
      </trkpt>
      <trkpt lat="37.1689868532" lon="-3.5875998158">
        <ele>640.86</ele>
        <time>2020-09-06T06:21:51Z</time>
      </trkpt>
      <trkpt lat="37.1690042876" lon="-3.5876340978">
        <ele>640.86</ele>
        <time>2020-09-06T06:21:52Z</time>
      </trkpt>
      <trkpt lat="37.1690183692" lon="-3.5876630992">
        <ele>640.86</ele>
        <time>2020-09-06T06:21:53Z</time>
      </trkpt>
      <trkpt lat="37.1690327022" lon="-3.5876960400">
        <ele>640.86</ele>
        <time>2020-09-06T06:21:54Z</time>
      </trkpt>
      <trkpt lat="37.1690455265" lon="-3.5877298191">
        <ele>640.86</ele>
        <time>2020-09-06T06:21:55Z</time>
      </trkpt>
      <trkpt lat="37.1690586023" lon="-3.5877594911">
        <ele>641.34</ele>
        <time>2020-09-06T06:21:56Z</time>
      </trkpt>
      <trkpt lat="37.1692492068" lon="-3.5881704558">
        <ele>644.22</ele>
        <time>2020-09-06T06:22:10Z</time>
      </trkpt>
      <trkpt lat="37.1693923697" lon="-3.5884073284">
        <ele>647.59</ele>
        <time>2020-09-06T06:22:19Z</time>
      </trkpt>
      <trkpt lat="37.1695819683" lon="-3.5887360666">
        <ele>650.47</ele>
        <time>2020-09-06T06:22:31Z</time>
      </trkpt>
      <trkpt lat="37.1697170846" lon="-3.5890633799">
        <ele>653.83</ele>
        <time>2020-09-06T06:22:42Z</time>
      </trkpt>
      <trkpt lat="37.1697900072" lon="-3.5891934671">
        <ele>654.80</ele>
        <time>2020-09-06T06:22:47Z</time>
      </trkpt>
      <trkpt lat="37.1698222775" lon="-3.5891837440">
        <ele>655.28</ele>
        <time>2020-09-06T06:22:49Z</time>
      </trkpt>
      <trkpt lat="37.1701628342" lon="-3.5887737013">
        <ele>658.64</ele>
        <time>2020-09-06T06:23:05Z</time>
      </trkpt>
      <trkpt lat="37.1704967692" lon="-3.5886504035">
        <ele>660.56</ele>
        <time>2020-09-06T06:23:17Z</time>
      </trkpt>
      <trkpt lat="37.1709001064" lon="-3.5886253417">
        <ele>663.45</ele>
        <time>2020-09-06T06:23:32Z</time>
      </trkpt>
      <trkpt lat="37.1712054592" lon="-3.5886007827">
        <ele>666.81</ele>
        <time>2020-09-06T06:23:44Z</time>
      </trkpt>
      <trkpt lat="37.1714715846" lon="-3.5885714460">
        <ele>669.70</ele>
        <time>2020-09-06T06:23:54Z</time>
      </trkpt>
      <trkpt lat="37.1716937888" lon="-3.5885613039">
        <ele>673.06</ele>
        <time>2020-09-06T06:24:04Z</time>
      </trkpt>
      <trkpt lat="37.1719344333" lon="-3.5886294488">
        <ele>676.42</ele>
        <time>2020-09-06T06:24:15Z</time>
      </trkpt>
      <trkpt lat="37.1721295640" lon="-3.5886771418">
        <ele>679.31</ele>
        <time>2020-09-06T06:24:25Z</time>
      </trkpt>
      <trkpt lat="37.1723407041" lon="-3.5887229908">
        <ele>682.67</ele>
        <time>2020-09-06T06:24:36Z</time>
      </trkpt>
      <trkpt lat="37.1725637466" lon="-3.5887862742">
        <ele>686.04</ele>
        <time>2020-09-06T06:24:48Z</time>
      </trkpt>
      <trkpt lat="37.1726124454" lon="-3.5887954105">
        <ele>686.52</ele>
        <time>2020-09-06T06:24:51Z</time>
      </trkpt>
      <trkpt lat="37.1726225875" lon="-3.5887811612">
        <ele>687.00</ele>
        <time>2020-09-06T06:24:52Z</time>
      </trkpt>
      <trkpt lat="37.1726200730" lon="-3.5887595359">
        <ele>687.00</ele>
        <time>2020-09-06T06:24:53Z</time>
      </trkpt>
      <trkpt lat="37.1726002917" lon="-3.5887387488">
        <ele>687.00</ele>
        <time>2020-09-06T06:24:54Z</time>
      </trkpt>
      <trkpt lat="37.1725810133" lon="-3.5887233261">
        <ele>687.00</ele>
        <time>2020-09-06T06:24:55Z</time>
      </trkpt>
      <trkpt lat="37.1722676978" lon="-3.5884675104">
        <ele>690.36</ele>
        <time>2020-09-06T06:25:08Z</time>
      </trkpt>
      <trkpt lat="37.1717782784" lon="-3.5880755726">
        <ele>692.77</ele>
        <time>2020-09-06T06:25:25Z</time>
      </trkpt>
      <trkpt lat="37.1714905277" lon="-3.5876922682">
        <ele>696.13</ele>
        <time>2020-09-06T06:25:39Z</time>
      </trkpt>
      <trkpt lat="37.1712902002" lon="-3.5872965585">
        <ele>699.50</ele>
        <time>2020-09-06T06:25:53Z</time>
      </trkpt>
      <trkpt lat="37.1710726060" lon="-3.5869261622">
        <ele>702.86</ele>
        <time>2020-09-06T06:26:06Z</time>
      </trkpt>
      <trkpt lat="37.1710055508" lon="-3.5865493957">
        <ele>706.23</ele>
        <time>2020-09-06T06:26:18Z</time>
      </trkpt>
      <trkpt lat="37.1710626315" lon="-3.5859731399">
        <ele>707.67</ele>
        <time>2020-09-06T06:26:31Z</time>
      </trkpt>
      <trkpt lat="37.1710583568" lon="-3.5858584754">
        <ele>708.15</ele>
        <time>2020-09-06T06:26:33Z</time>
      </trkpt>
      <trkpt lat="37.1710441075" lon="-3.5857996345">
        <ele>708.15</ele>
        <time>2020-09-06T06:26:34Z</time>
      </trkpt>
      <trkpt lat="37.1710147709" lon="-3.5857502650">
        <ele>708.15</ele>
        <time>2020-09-06T06:26:35Z</time>
      </trkpt>
      <trkpt lat="37.1709708497" lon="-3.5857176594">
        <ele>708.15</ele>
        <time>2020-09-06T06:26:36Z</time>
      </trkpt>
      <trkpt lat="37.1709121764" lon="-3.5857087746">
        <ele>708.15</ele>
        <time>2020-09-06T06:26:37Z</time>
      </trkpt>
      <trkpt lat="37.1708631422" lon="-3.5857241973">
        <ele>708.15</ele>
        <time>2020-09-06T06:26:38Z</time>
      </trkpt>
      <trkpt lat="37.1708233282" lon="-3.5857547913">
        <ele>708.15</ele>
        <time>2020-09-06T06:26:39Z</time>
      </trkpt>
      <trkpt lat="37.1707926504" lon="-3.5857886542">
        <ele>708.15</ele>
        <time>2020-09-06T06:26:40Z</time>
      </trkpt>
      <trkpt lat="37.1707658283" lon="-3.5858176555">
        <ele>708.15</ele>
        <time>2020-09-06T06:26:41Z</time>
      </trkpt>
      <trkpt lat="37.1703470685" lon="-3.5861516744">
        <ele>711.99</ele>
        <time>2020-09-06T06:26:55Z</time>
      </trkpt>
      <trkpt lat="37.1699737385" lon="-3.5860779136">
        <ele>715.36</ele>
        <time>2020-09-06T06:27:08Z</time>
      </trkpt>
      <trkpt lat="37.1696854010" lon="-3.5857680347">
        <ele>718.24</ele>
        <time>2020-09-06T06:27:21Z</time>
      </trkpt>
      <trkpt lat="37.1694494504" lon="-3.5853991471">
        <ele>722.09</ele>
        <time>2020-09-06T06:27:35Z</time>
      </trkpt>
      <trkpt lat="37.1692109853" lon="-3.5850462690">
        <ele>724.49</ele>
        <time>2020-09-06T06:27:47Z</time>
      </trkpt>
      <trkpt lat="37.1689365618" lon="-3.5847642180">
        <ele>727.86</ele>
        <time>2020-09-06T06:27:59Z</time>
      </trkpt>
      <trkpt lat="37.1686524991" lon="-3.5843215697">
        <ele>730.74</ele>
        <time>2020-09-06T06:28:14Z</time>
      </trkpt>
      <trkpt lat="37.1685577836" lon="-3.5838018917">
        <ele>734.10</ele>
        <time>2020-09-06T06:28:28Z</time>
      </trkpt>
      <trkpt lat="37.1686260961" lon="-3.5833387915">
        <ele>737.47</ele>
        <time>2020-09-06T06:28:41Z</time>
      </trkpt>
      <trkpt lat="37.1687535848" lon="-3.5830327682">
        <ele>739.39</ele>
        <time>2020-09-06T06:28:49Z</time>
      </trkpt>
      <trkpt lat="37.1687597036" lon="-3.5829844046">
        <ele>739.87</ele>
        <time>2020-09-06T06:28:50Z</time>
      </trkpt>
      <trkpt lat="37.1687577758" lon="-3.5829388071">
        <ele>739.87</ele>
        <time>2020-09-06T06:28:51Z</time>
      </trkpt>
      <trkpt lat="37.1687526628" lon="-3.5828948021">
        <ele>739.87</ele>
        <time>2020-09-06T06:28:52Z</time>
      </trkpt>
      <trkpt lat="37.1687448677" lon="-3.5828533117">
        <ele>740.35</ele>
        <time>2020-09-06T06:28:53Z</time>
      </trkpt>
      <trkpt lat="37.1687286906" lon="-3.5828096420">
        <ele>740.35</ele>
        <time>2020-09-06T06:28:54Z</time>
      </trkpt>
      <trkpt lat="37.1686870325" lon="-3.5826970730">
        <ele>741.31</ele>
        <time>2020-09-06T06:28:57Z</time>
      </trkpt>
      <trkpt lat="37.1684939135" lon="-3.5823288560">
        <ele>745.16</ele>
        <time>2020-09-06T06:29:09Z</time>
      </trkpt>
      <trkpt lat="37.1683163848" lon="-3.5819721222">
        <ele>748.04</ele>
        <time>2020-09-06T06:29:21Z</time>
      </trkpt>
      <trkpt lat="37.1682886407" lon="-3.5818054900">
        <ele>749.49</ele>
        <time>2020-09-06T06:29:27Z</time>
      </trkpt>
      <trkpt lat="37.1683167201" lon="-3.5817670170">
        <ele>750.45</ele>
        <time>2020-09-06T06:29:29Z</time>
      </trkpt>
      <trkpt lat="37.1683377586" lon="-3.5817604791">
        <ele>750.93</ele>
        <time>2020-09-06T06:29:30Z</time>
      </trkpt>
      <trkpt lat="37.1683606412" lon="-3.5817613173">
        <ele>750.93</ele>
        <time>2020-09-06T06:29:31Z</time>
      </trkpt>
      <trkpt lat="37.1683849487" lon="-3.5817665979">
        <ele>751.41</ele>
        <time>2020-09-06T06:29:32Z</time>
      </trkpt>
      <trkpt lat="37.1684074122" lon="-3.5817821044">
        <ele>751.41</ele>
        <time>2020-09-06T06:29:33Z</time>
      </trkpt>
      <trkpt lat="37.1684268583" lon="-3.5818023048">
        <ele>751.41</ele>
        <time>2020-09-06T06:29:34Z</time>
      </trkpt>
      <trkpt lat="37.1686395910" lon="-3.5821664147">
        <ele>754.77</ele>
        <time>2020-09-06T06:29:47Z</time>
      </trkpt>
      <trkpt lat="37.1689296048" lon="-3.5825478751">
        <ele>758.14</ele>
        <time>2020-09-06T06:30:02Z</time>
      </trkpt>
      <trkpt lat="37.1690887772" lon="-3.5830012523">
        <ele>761.02</ele>
        <time>2020-09-06T06:30:17Z</time>
      </trkpt>
      <trkpt lat="37.1691883542" lon="-3.5833349358">
        <ele>763.90</ele>
        <time>2020-09-06T06:30:29Z</time>
      </trkpt>
      <trkpt lat="37.1693306789" lon="-3.5834923480">
        <ele>765.83</ele>
        <time>2020-09-06T06:30:38Z</time>
      </trkpt>
      <trkpt lat="37.1693556570" lon="-3.5834726505">
        <ele>766.31</ele>
        <time>2020-09-06T06:30:39Z</time>
      </trkpt>
      <trkpt lat="37.1693774499" lon="-3.5834452417">
        <ele>766.79</ele>
        <time>2020-09-06T06:30:40Z</time>
      </trkpt>
      <trkpt lat="37.1693921182" lon="-3.5834200960">
        <ele>766.79</ele>
        <time>2020-09-06T06:30:41Z</time>
      </trkpt>
      <trkpt lat="37.1694041882" lon="-3.5833910108">
        <ele>766.79</ele>
        <time>2020-09-06T06:30:42Z</time>
      </trkpt>
      <trkpt lat="37.1694194432" lon="-3.5833519511">
        <ele>767.27</ele>
        <time>2020-09-06T06:30:43Z</time>
      </trkpt>
      <trkpt lat="37.1694191918" lon="-3.5828214604">
        <ele>770.15</ele>
        <time>2020-09-06T06:30:58Z</time>
      </trkpt>
      <trkpt lat="37.1694035176" lon="-3.5823681671">
        <ele>773.04</ele>
        <time>2020-09-06T06:31:12Z</time>
      </trkpt>
      <trkpt lat="37.1695698984" lon="-3.5819903947">
        <ele>775.92</ele>
        <time>2020-09-06T06:31:26Z</time>
      </trkpt>
      <trkpt lat="37.1699228603" lon="-3.5817742255">
        <ele>778.81</ele>
        <time>2020-09-06T06:31:41Z</time>
      </trkpt>
      <trkpt lat="37.1703291312" lon="-3.5816617403">
        <ele>781.21</ele>
        <time>2020-09-06T06:31:56Z</time>
      </trkpt>
      <trkpt lat="37.1707162913" lon="-3.5813327506">
        <ele>782.65</ele>
        <time>2020-09-06T06:32:10Z</time>
      </trkpt>
      <trkpt lat="37.1711695008" lon="-3.5807506274">
        <ele>781.69</ele>
        <time>2020-09-06T06:32:24Z</time>
      </trkpt>
      <trkpt lat="37.1712088957" lon="-3.5806919541">
        <ele>781.21</ele>
        <time>2020-09-06T06:32:25Z</time>
      </trkpt>
      <trkpt lat="37.1712399926" lon="-3.5806306824">
        <ele>780.73</ele>
        <time>2020-09-06T06:32:26Z</time>
      </trkpt>
      <trkpt lat="37.1712618694" lon="-3.5805524793">
        <ele>780.73</ele>
        <time>2020-09-06T06:32:27Z</time>
      </trkpt>
      <trkpt lat="37.1712891106" lon="-3.5804000124">
        <ele>780.73</ele>
        <time>2020-09-06T06:32:29Z</time>
      </trkpt>
      <trkpt lat="37.1713147592" lon="-3.5803339630">
        <ele>780.73</ele>
        <time>2020-09-06T06:32:30Z</time>
      </trkpt>
      <trkpt lat="37.1713553276" lon="-3.5802901257">
        <ele>780.73</ele>
        <time>2020-09-06T06:32:31Z</time>
      </trkpt>
      <trkpt lat="37.1714219637" lon="-3.5802617949">
        <ele>780.73</ele>
        <time>2020-09-06T06:32:32Z</time>
      </trkpt>
      <trkpt lat="37.1714924555" lon="-3.5802367330">
        <ele>780.73</ele>
        <time>2020-09-06T06:32:33Z</time>
      </trkpt>
      <trkpt lat="37.1715391427" lon="-3.5802053008">
        <ele>780.73</ele>
        <time>2020-09-06T06:32:34Z</time>
      </trkpt>
      <trkpt lat="37.1715852432" lon="-3.5801603738">
        <ele>780.73</ele>
        <time>2020-09-06T06:32:35Z</time>
      </trkpt>
      <trkpt lat="37.1716331877" lon="-3.5800966714">
        <ele>780.73</ele>
        <time>2020-09-06T06:32:36Z</time>
      </trkpt>
      <trkpt lat="37.1720797755" lon="-3.5795096029">
        <ele>782.17</ele>
        <time>2020-09-06T06:32:47Z</time>
      </trkpt>
      <trkpt lat="37.1722682007" lon="-3.5792487580">
        <ele>783.61</ele>
        <time>2020-09-06T06:32:53Z</time>
      </trkpt>
      <trkpt lat="37.1722894069" lon="-3.5791932698">
        <ele>783.61</ele>
        <time>2020-09-06T06:32:54Z</time>
      </trkpt>
      <trkpt lat="37.1722998843" lon="-3.5791363567">
        <ele>783.61</ele>
        <time>2020-09-06T06:32:55Z</time>
      </trkpt>
      <trkpt lat="37.1723165642" lon="-3.5789651982">
        <ele>784.57</ele>
        <time>2020-09-06T06:32:58Z</time>
      </trkpt>
      <trkpt lat="37.1723125409" lon="-3.5789164156">
        <ele>785.05</ele>
        <time>2020-09-06T06:32:59Z</time>
      </trkpt>
      <trkpt lat="37.1722988784" lon="-3.5788787808">
        <ele>785.05</ele>
        <time>2020-09-06T06:33:00Z</time>
      </trkpt>
      <trkpt lat="37.1722723916" lon="-3.5788386315">
        <ele>786.02</ele>
        <time>2020-09-06T06:33:01Z</time>
      </trkpt>
      <trkpt lat="37.1722477488" lon="-3.5788120609">
        <ele>786.02</ele>
        <time>2020-09-06T06:33:02Z</time>
      </trkpt>
      <trkpt lat="37.1722145565" lon="-3.5787875857">
        <ele>786.50</ele>
        <time>2020-09-06T06:33:03Z</time>
      </trkpt>
      <trkpt lat="37.1721858066" lon="-3.5787688941">
        <ele>786.50</ele>
        <time>2020-09-06T06:33:04Z</time>
      </trkpt>
      <trkpt lat="37.1718862373" lon="-3.5785077978">
        <ele>789.38</ele>
        <time>2020-09-06T06:33:14Z</time>
      </trkpt>
      <trkpt lat="37.1715802141" lon="-3.5781496391">
        <ele>792.74</ele>
        <time>2020-09-06T06:33:26Z</time>
      </trkpt>
      <trkpt lat="37.1713388152" lon="-3.5777671728">
        <ele>796.59</ele>
        <time>2020-09-06T06:33:38Z</time>
      </trkpt>
      <trkpt lat="37.1710700914" lon="-3.5773700383">
        <ele>799.47</ele>
        <time>2020-09-06T06:33:50Z</time>
      </trkpt>
      <trkpt lat="37.1707607992" lon="-3.5769262165">
        <ele>802.84</ele>
        <time>2020-09-06T06:34:04Z</time>
      </trkpt>
      <trkpt lat="37.1704463102" lon="-3.5764539801">
        <ele>806.20</ele>
        <time>2020-09-06T06:34:19Z</time>
      </trkpt>
      <trkpt lat="37.1701921709" lon="-3.5761222243">
        <ele>810.05</ele>
        <time>2020-09-06T06:34:31Z</time>
      </trkpt>
      <trkpt lat="37.1699394565" lon="-3.5758437775">
        <ele>813.41</ele>
        <time>2020-09-06T06:34:43Z</time>
      </trkpt>
      <trkpt lat="37.1697071940" lon="-3.5755346529">
        <ele>816.78</ele>
        <time>2020-09-06T06:34:56Z</time>
      </trkpt>
      <trkpt lat="37.1695876680" lon="-3.5751440562">
        <ele>820.62</ele>
        <time>2020-09-06T06:35:10Z</time>
      </trkpt>
      <trkpt lat="37.1696104668" lon="-3.5750901606">
        <ele>820.62</ele>
        <time>2020-09-06T06:35:12Z</time>
      </trkpt>
      <trkpt lat="37.1696312539" lon="-3.5750676971">
        <ele>820.62</ele>
        <time>2020-09-06T06:35:13Z</time>
      </trkpt>
      <trkpt lat="37.1696530469" lon="-3.5750533640">
        <ele>821.10</ele>
        <time>2020-09-06T06:35:14Z</time>
      </trkpt>
      <trkpt lat="37.1696784440" lon="-3.5750460718">
        <ele>821.58</ele>
        <time>2020-09-06T06:35:15Z</time>
      </trkpt>
      <trkpt lat="37.1697018296" lon="-3.5750505142">
        <ele>822.06</ele>
        <time>2020-09-06T06:35:16Z</time>
      </trkpt>
      <trkpt lat="37.1697248798" lon="-3.5750578903">
        <ele>822.06</ele>
        <time>2020-09-06T06:35:17Z</time>
      </trkpt>
      <trkpt lat="37.1701712161" lon="-3.5750875622">
        <ele>823.51</ele>
        <time>2020-09-06T06:35:31Z</time>
      </trkpt>
      <trkpt lat="37.1702116169" lon="-3.5750017315">
        <ele>823.99</ele>
        <time>2020-09-06T06:35:33Z</time>
      </trkpt>
      <trkpt lat="37.1701004729" lon="-3.5743925348">
        <ele>824.95</ele>
        <time>2020-09-06T06:35:45Z</time>
      </trkpt>
      <trkpt lat="37.1700506005" lon="-3.5742395651">
        <ele>825.43</ele>
        <time>2020-09-06T06:35:48Z</time>
      </trkpt>
      <trkpt lat="37.1699347626" lon="-3.5738241579">
        <ele>825.43</ele>
        <time>2020-09-06T06:35:55Z</time>
      </trkpt>
      <trkpt lat="37.1695243847" lon="-3.5725126415">
        <ele>826.39</ele>
        <time>2020-09-06T06:36:15Z</time>
      </trkpt>
      <trkpt lat="37.1694076248" lon="-3.5721181054">
        <ele>828.79</ele>
        <time>2020-09-06T06:36:22Z</time>
      </trkpt>
      <trkpt lat="37.1692668088" lon="-3.5714178812">
        <ele>832.16</ele>
        <time>2020-09-06T06:36:36Z</time>
      </trkpt>
      <trkpt lat="37.1692954749" lon="-3.5710417014">
        <ele>834.56</ele>
        <time>2020-09-06T06:36:44Z</time>
      </trkpt>
      <trkpt lat="37.1693189442" lon="-3.5709995404">
        <ele>834.56</ele>
        <time>2020-09-06T06:36:45Z</time>
      </trkpt>
      <trkpt lat="37.1693494543" lon="-3.5709645879">
        <ele>834.56</ele>
        <time>2020-09-06T06:36:46Z</time>
      </trkpt>
      <trkpt lat="37.1693879273" lon="-3.5709369276">
        <ele>834.56</ele>
        <time>2020-09-06T06:36:47Z</time>
      </trkpt>
      <trkpt lat="37.1694282442" lon="-3.5709213372">
        <ele>834.56</ele>
        <time>2020-09-06T06:36:48Z</time>
      </trkpt>
      <trkpt lat="37.1694699861" lon="-3.5709194094">
        <ele>834.56</ele>
        <time>2020-09-06T06:36:49Z</time>
      </trkpt>
      <trkpt lat="37.1695108898" lon="-3.5709275398">
        <ele>834.56</ele>
        <time>2020-09-06T06:36:50Z</time>
      </trkpt>
      <trkpt lat="37.1695520449" lon="-3.5709434655">
        <ele>835.04</ele>
        <time>2020-09-06T06:36:51Z</time>
      </trkpt>
      <trkpt lat="37.1695946250" lon="-3.5709603969">
        <ele>835.04</ele>
        <time>2020-09-06T06:36:52Z</time>
      </trkpt>
      <trkpt lat="37.1696386300" lon="-3.5709812678">
        <ele>835.04</ele>
        <time>2020-09-06T06:36:53Z</time>
      </trkpt>
      <trkpt lat="37.1696854010" lon="-3.5710127000">
        <ele>835.04</ele>
        <time>2020-09-06T06:36:54Z</time>
      </trkpt>
      <trkpt lat="37.1697316691" lon="-3.5710458085">
        <ele>835.04</ele>
        <time>2020-09-06T06:36:55Z</time>
      </trkpt>
      <trkpt lat="37.1701052506" lon="-3.5712992772">
        <ele>833.60</ele>
        <time>2020-09-06T06:37:02Z</time>
      </trkpt>
      <trkpt lat="37.1702083480" lon="-3.5713768937">
        <ele>833.60</ele>
        <time>2020-09-06T06:37:04Z</time>
      </trkpt>
      <trkpt lat="37.1707307920" lon="-3.5719701648">
        <ele>835.04</ele>
        <time>2020-09-06T06:37:16Z</time>
      </trkpt>
      <trkpt lat="37.1710446943" lon="-3.5723636951">
        <ele>836.48</ele>
        <time>2020-09-06T06:37:24Z</time>
      </trkpt>
      <trkpt lat="37.1713155136" lon="-3.5729254503">
        <ele>838.41</ele>
        <time>2020-09-06T06:37:34Z</time>
      </trkpt>
      <trkpt lat="37.1715330239" lon="-3.5731477384">
        <ele>839.37</ele>
        <time>2020-09-06T06:37:39Z</time>
      </trkpt>
      <trkpt lat="37.1716390550" lon="-3.5731960181">
        <ele>839.37</ele>
        <time>2020-09-06T06:37:41Z</time>
      </trkpt>
      <trkpt lat="37.1716955490" lon="-3.5732122790">
        <ele>839.37</ele>
        <time>2020-09-06T06:37:42Z</time>
      </trkpt>
      <trkpt lat="37.1717523783" lon="-3.5732219182">
        <ele>839.85</ele>
        <time>2020-09-06T06:37:43Z</time>
      </trkpt>
      <trkpt lat="37.1718104649" lon="-3.5732252710">
        <ele>839.85</ele>
        <time>2020-09-06T06:37:44Z</time>
      </trkpt>
      <trkpt lat="37.1718691383" lon="-3.5732229240">
        <ele>839.85</ele>
        <time>2020-09-06T06:37:45Z</time>
      </trkpt>
      <trkpt lat="37.1726997849" lon="-3.5730588064">
        <ele>840.81</ele>
        <time>2020-09-06T06:38:00Z</time>
      </trkpt>
      <trkpt lat="37.1734241489" lon="-3.5728271306">
        <ele>843.21</ele>
        <time>2020-09-06T06:38:15Z</time>
      </trkpt>
      <trkpt lat="37.1736748517" lon="-3.5726215225">
        <ele>846.58</ele>
        <time>2020-09-06T06:38:24Z</time>
      </trkpt>
      <trkpt lat="37.1739455033" lon="-3.5723970551">
        <ele>849.46</ele>
        <time>2020-09-06T06:38:36Z</time>
      </trkpt>
      <trkpt lat="37.1743178274" lon="-3.5723433271">
        <ele>853.31</ele>
        <time>2020-09-06T06:38:50Z</time>
      </trkpt>
      <trkpt lat="37.1745738108" lon="-3.5727462452">
        <ele>855.71</ele>
        <time>2020-09-06T06:39:04Z</time>
      </trkpt>
      <trkpt lat="37.1748408582" lon="-3.5731301364">
        <ele>858.59</ele>
        <time>2020-09-06T06:39:17Z</time>
      </trkpt>
      <trkpt lat="37.1749036387" lon="-3.5734465532">
        <ele>859.08</ele>
        <time>2020-09-06T06:39:24Z</time>
      </trkpt>
      <trkpt lat="37.1748886351" lon="-3.5734949168">
        <ele>859.08</ele>
        <time>2020-09-06T06:39:25Z</time>
      </trkpt>
      <trkpt lat="37.1748623159" lon="-3.5735375807">
        <ele>859.08</ele>
        <time>2020-09-06T06:39:26Z</time>
      </trkpt>
      <trkpt lat="37.1748267766" lon="-3.5735752154">
        <ele>859.08</ele>
        <time>2020-09-06T06:39:27Z</time>
      </trkpt>
      <trkpt lat="37.1747891419" lon="-3.5736075696">
        <ele>859.08</ele>
        <time>2020-09-06T06:39:28Z</time>
      </trkpt>
      <trkpt lat="37.1747530159" lon="-3.5736378282">
        <ele>859.08</ele>
        <time>2020-09-06T06:39:29Z</time>
      </trkpt>
      <trkpt lat="37.1747194044" lon="-3.5736720264">
        <ele>859.08</ele>
        <time>2020-09-06T06:39:30Z</time>
      </trkpt>
      <trkpt lat="37.1746897325" lon="-3.5737143550">
        <ele>859.08</ele>
        <time>2020-09-06T06:39:31Z</time>
      </trkpt>
      <trkpt lat="37.1746659279" lon="-3.5737628024">
        <ele>859.08</ele>
        <time>2020-09-06T06:39:32Z</time>
      </trkpt>
      <trkpt lat="37.1746473201" lon="-3.5738151055">
        <ele>859.08</ele>
        <time>2020-09-06T06:39:33Z</time>
      </trkpt>
      <trkpt lat="37.1746372618" lon="-3.5738708451">
        <ele>859.08</ele>
        <time>2020-09-06T06:39:34Z</time>
      </trkpt>
      <trkpt lat="37.1746348310" lon="-3.5739272553">
        <ele>859.08</ele>
        <time>2020-09-06T06:39:35Z</time>
      </trkpt>
      <trkpt lat="37.1746361721" lon="-3.5739837494">
        <ele>859.56</ele>
        <time>2020-09-06T06:39:36Z</time>
      </trkpt>
      <trkpt lat="37.1746412851" lon="-3.5740411654">
        <ele>859.56</ele>
        <time>2020-09-06T06:39:37Z</time>
      </trkpt>
      <trkpt lat="37.1746479068" lon="-3.5740978271">
        <ele>859.56</ele>
        <time>2020-09-06T06:39:38Z</time>
      </trkpt>
      <trkpt lat="37.1746593062" lon="-3.5741558298">
        <ele>859.56</ele>
        <time>2020-09-06T06:39:39Z</time>
      </trkpt>
      <trkpt lat="37.1746909898" lon="-3.5742671415">
        <ele>859.56</ele>
        <time>2020-09-06T06:39:41Z</time>
      </trkpt>
      <trkpt lat="37.1747113578" lon="-3.5743195284">
        <ele>859.56</ele>
        <time>2020-09-06T06:39:42Z</time>
      </trkpt>
      <trkpt lat="37.1747626550" lon="-3.5744202789">
        <ele>859.56</ele>
        <time>2020-09-06T06:39:44Z</time>
      </trkpt>
      <trkpt lat="37.1749613900" lon="-3.5747165792">
        <ele>860.04</ele>
        <time>2020-09-06T06:39:51Z</time>
      </trkpt>
      <trkpt lat="37.1749917325" lon="-3.5747534595">
        <ele>860.04</ele>
        <time>2020-09-06T06:39:52Z</time>
      </trkpt>
      <trkpt lat="37.1750270203" lon="-3.5747885797">
        <ele>860.52</ele>
        <time>2020-09-06T06:39:53Z</time>
      </trkpt>
      <trkpt lat="37.1750665829" lon="-3.5748143122">
        <ele>860.52</ele>
        <time>2020-09-06T06:39:54Z</time>
      </trkpt>
      <trkpt lat="37.1751122642" lon="-3.5748306569">
        <ele>860.52</ele>
        <time>2020-09-06T06:39:55Z</time>
      </trkpt>
      <trkpt lat="37.1751599573" lon="-3.5748353507">
        <ele>860.52</ele>
        <time>2020-09-06T06:39:56Z</time>
      </trkpt>
      <trkpt lat="37.1752121765" lon="-3.5748319980">
        <ele>860.52</ele>
        <time>2020-09-06T06:39:57Z</time>
      </trkpt>
      <trkpt lat="37.1752585284" lon="-3.5748242866">
        <ele>860.52</ele>
        <time>2020-09-06T06:39:58Z</time>
      </trkpt>
      <trkpt lat="37.1753059700" lon="-3.5748152342">
        <ele>860.52</ele>
        <time>2020-09-06T06:39:59Z</time>
      </trkpt>
      <trkpt lat="37.1753967460" lon="-3.5748060979">
        <ele>860.52</ele>
        <time>2020-09-06T06:40:01Z</time>
      </trkpt>
      <trkpt lat="37.1754399966" lon="-3.5748140607">
        <ele>861.00</ele>
        <time>2020-09-06T06:40:02Z</time>
      </trkpt>
      <trkpt lat="37.1754801460" lon="-3.5748313274">
        <ele>861.00</ele>
        <time>2020-09-06T06:40:03Z</time>
      </trkpt>
      <trkpt lat="37.1755173616" lon="-3.5748564731">
        <ele>861.00</ele>
        <time>2020-09-06T06:40:04Z</time>
      </trkpt>
      <trkpt lat="37.1755535714" lon="-3.5748851392">
        <ele>861.48</ele>
        <time>2020-09-06T06:40:05Z</time>
      </trkpt>
      <trkpt lat="37.1755878534" lon="-3.5749203432">
        <ele>861.48</ele>
        <time>2020-09-06T06:40:06Z</time>
      </trkpt>
      <trkpt lat="37.1756192856" lon="-3.5749629233">
        <ele>861.48</ele>
        <time>2020-09-06T06:40:07Z</time>
      </trkpt>
      <trkpt lat="37.1756468620" lon="-3.5750069283">
        <ele>861.48</ele>
        <time>2020-09-06T06:40:08Z</time>
      </trkpt>
      <trkpt lat="37.1756691579" lon="-3.5750550404">
        <ele>861.96</ele>
        <time>2020-09-06T06:40:09Z</time>
      </trkpt>
      <trkpt lat="37.1756858379" lon="-3.5751050804">
        <ele>861.96</ele>
        <time>2020-09-06T06:40:10Z</time>
      </trkpt>
      <trkpt lat="37.1756954771" lon="-3.5751583055">
        <ele>861.96</ele>
        <time>2020-09-06T06:40:11Z</time>
      </trkpt>
      <trkpt lat="37.1756974049" lon="-3.5752114467">
        <ele>861.96</ele>
        <time>2020-09-06T06:40:12Z</time>
      </trkpt>
      <trkpt lat="37.1756950580" lon="-3.5752654262">
        <ele>862.44</ele>
        <time>2020-09-06T06:40:13Z</time>
      </trkpt>
      <trkpt lat="37.1756894421" lon="-3.5753200762">
        <ele>862.44</ele>
        <time>2020-09-06T06:40:14Z</time>
      </trkpt>
      <trkpt lat="37.1756786294" lon="-3.5753691103">
        <ele>862.44</ele>
        <time>2020-09-06T06:40:15Z</time>
      </trkpt>
      <trkpt lat="37.1756647993" lon="-3.5754176416">
        <ele>862.44</ele>
        <time>2020-09-06T06:40:16Z</time>
      </trkpt>
      <trkpt lat="37.1756501310" lon="-3.5754659213">
        <ele>863.40</ele>
        <time>2020-09-06T06:40:17Z</time>
      </trkpt>
      <trkpt lat="37.1756374743" lon="-3.5755159613">
        <ele>863.40</ele>
        <time>2020-09-06T06:40:18Z</time>
      </trkpt>
      <trkpt lat="37.1756278351" lon="-3.5755670909">
        <ele>863.40</ele>
        <time>2020-09-06T06:40:19Z</time>
      </trkpt>
      <trkpt lat="37.1756247338" lon="-3.5756190587">
        <ele>863.40</ele>
        <time>2020-09-06T06:40:20Z</time>
      </trkpt>
      <trkpt lat="37.1756295953" lon="-3.5756717809">
        <ele>863.88</ele>
        <time>2020-09-06T06:40:21Z</time>
      </trkpt>
      <trkpt lat="37.1756425872" lon="-3.5757219885">
        <ele>863.88</ele>
        <time>2020-09-06T06:40:22Z</time>
      </trkpt>
      <trkpt lat="37.1756614465" lon="-3.5757706035">
        <ele>863.88</ele>
        <time>2020-09-06T06:40:23Z</time>
      </trkpt>
      <trkpt lat="37.1756865922" lon="-3.5758150276">
        <ele>863.88</ele>
        <time>2020-09-06T06:40:24Z</time>
      </trkpt>
      <trkpt lat="37.1757165156" lon="-3.5758577753">
        <ele>863.88</ele>
        <time>2020-09-06T06:40:25Z</time>
      </trkpt>
      <trkpt lat="37.1757513005" lon="-3.5758978408">
        <ele>863.88</ele>
        <time>2020-09-06T06:40:26Z</time>
      </trkpt>
      <trkpt lat="37.1757922042" lon="-3.5759339668">
        <ele>863.88</ele>
        <time>2020-09-06T06:40:27Z</time>
      </trkpt>
      <trkpt lat="37.1758372150" lon="-3.5759651475">
        <ele>863.88</ele>
        <time>2020-09-06T06:40:28Z</time>
      </trkpt>
      <trkpt lat="37.1758805495" lon="-3.5759902094">
        <ele>864.36</ele>
        <time>2020-09-06T06:40:29Z</time>
      </trkpt>
      <trkpt lat="37.1759179328" lon="-3.5760057997">
        <ele>864.36</ele>
        <time>2020-09-06T06:40:30Z</time>
      </trkpt>
      <trkpt lat="37.1759532206" lon="-3.5760217253">
        <ele>864.84</ele>
        <time>2020-09-06T06:40:31Z</time>
      </trkpt>
      <trkpt lat="37.1759904362" lon="-3.5760457814">
        <ele>864.84</ele>
        <time>2020-09-06T06:40:32Z</time>
      </trkpt>
      <trkpt lat="37.1760284062" lon="-3.5760696698">
        <ele>864.84</ele>
        <time>2020-09-06T06:40:33Z</time>
      </trkpt>
      <trkpt lat="37.1760670468" lon="-3.5760897025">
        <ele>864.84</ele>
        <time>2020-09-06T06:40:34Z</time>
      </trkpt>
      <trkpt lat="37.1762454975" lon="-3.5760574322">
        <ele>866.29</ele>
        <time>2020-09-06T06:40:39Z</time>
      </trkpt>
      <trkpt lat="37.1762611717" lon="-3.5760244913">
        <ele>866.77</ele>
        <time>2020-09-06T06:40:40Z</time>
      </trkpt>
      <trkpt lat="37.1762763429" lon="-3.5759839229">
        <ele>866.77</ele>
        <time>2020-09-06T06:40:41Z</time>
      </trkpt>
      <trkpt lat="37.1762857307" lon="-3.5759400018">
        <ele>867.73</ele>
        <time>2020-09-06T06:40:42Z</time>
      </trkpt>
      <trkpt lat="37.1762905922" lon="-3.5758963320">
        <ele>867.73</ele>
        <time>2020-09-06T06:40:43Z</time>
      </trkpt>
      <trkpt lat="37.1762967110" lon="-3.5758509859">
        <ele>868.21</ele>
        <time>2020-09-06T06:40:44Z</time>
      </trkpt>
      <trkpt lat="37.1763034165" lon="-3.5758105852">
        <ele>868.21</ele>
        <time>2020-09-06T06:40:45Z</time>
      </trkpt>
      <trkpt lat="37.1763272211" lon="-3.5753881373">
        <ele>871.09</ele>
        <time>2020-09-06T06:40:55Z</time>
      </trkpt>
      <trkpt lat="37.1763041709" lon="-3.5749857221">
        <ele>874.46</ele>
        <time>2020-09-06T06:41:05Z</time>
      </trkpt>
      <trkpt lat="37.1762285661" lon="-3.5744906031">
        <ele>877.34</ele>
        <time>2020-09-06T06:41:18Z</time>
      </trkpt>
      <trkpt lat="37.1761295758" lon="-3.5739337932">
        <ele>880.22</ele>
        <time>2020-09-06T06:41:32Z</time>
      </trkpt>
      <trkpt lat="37.1760473493" lon="-3.5734390095">
        <ele>883.59</ele>
        <time>2020-09-06T06:41:44Z</time>
      </trkpt>
      <trkpt lat="37.1759958006" lon="-3.5728537012">
        <ele>886.95</ele>
        <time>2020-09-06T06:41:58Z</time>
      </trkpt>
      <trkpt lat="37.1759975608" lon="-3.5720320232">
        <ele>890.32</ele>
        <time>2020-09-06T06:42:16Z</time>
      </trkpt>
      <trkpt lat="37.1759782825" lon="-3.5714082420">
        <ele>893.68</ele>
        <time>2020-09-06T06:42:30Z</time>
      </trkpt>
      <trkpt lat="37.1759385522" lon="-3.5709078424">
        <ele>896.57</ele>
        <time>2020-09-06T06:42:42Z</time>
      </trkpt>
      <trkpt lat="37.1762164962" lon="-3.5705165751">
        <ele>899.45</ele>
        <time>2020-09-06T06:42:55Z</time>
      </trkpt>
      <trkpt lat="37.1766720526" lon="-3.5702272318">
        <ele>900.89</ele>
        <time>2020-09-06T06:43:09Z</time>
      </trkpt>
      <trkpt lat="37.1770620625" lon="-3.5704315826">
        <ele>902.33</ele>
        <time>2020-09-06T06:43:20Z</time>
      </trkpt>
      <trkpt lat="37.1774307825" lon="-3.5707012285">
        <ele>905.22</ele>
        <time>2020-09-06T06:43:32Z</time>
      </trkpt>
      <trkpt lat="37.1778637078" lon="-3.5709445551">
        <ele>909.06</ele>
        <time>2020-09-06T06:43:46Z</time>
      </trkpt>
      <trkpt lat="37.1781097166" lon="-3.5707502626">
        <ele>912.43</ele>
        <time>2020-09-06T06:43:57Z</time>
      </trkpt>
      <trkpt lat="37.1780095529" lon="-3.5703701433">
        <ele>914.83</ele>
        <time>2020-09-06T06:44:09Z</time>
      </trkpt>
      <trkpt lat="37.1778208762" lon="-3.5698484536">
        <ele>918.20</ele>
        <time>2020-09-06T06:44:25Z</time>
      </trkpt>
      <trkpt lat="37.1776680741" lon="-3.5692678392">
        <ele>921.08</ele>
        <time>2020-09-06T06:44:40Z</time>
      </trkpt>
      <trkpt lat="37.1774977539" lon="-3.5686710477">
        <ele>923.96</ele>
        <time>2020-09-06T06:44:55Z</time>
      </trkpt>
      <trkpt lat="37.1774994303" lon="-3.5680533014">
        <ele>926.37</ele>
        <time>2020-09-06T06:45:09Z</time>
      </trkpt>
      <trkpt lat="37.1775798127" lon="-3.5675357189">
        <ele>929.73</ele>
        <time>2020-09-06T06:45:21Z</time>
      </trkpt>
      <trkpt lat="37.1775493026" lon="-3.5670935735">
        <ele>931.65</ele>
        <time>2020-09-06T06:45:32Z</time>
      </trkpt>
      <trkpt lat="37.1773374919" lon="-3.5666768253">
        <ele>935.02</ele>
        <time>2020-09-06T06:45:44Z</time>
      </trkpt>
      <trkpt lat="37.1770340670" lon="-3.5662066843">
        <ele>938.86</ele>
        <time>2020-09-06T06:46:00Z</time>
      </trkpt>
      <trkpt lat="37.1768914070" lon="-3.5657189414">
        <ele>941.75</ele>
        <time>2020-09-06T06:46:13Z</time>
      </trkpt>
      <trkpt lat="37.1768592205" lon="-3.5651711840">
        <ele>944.15</ele>
        <time>2020-09-06T06:46:27Z</time>
      </trkpt>
      <trkpt lat="37.1768591367" lon="-3.5646463931">
        <ele>948.00</ele>
        <time>2020-09-06T06:46:41Z</time>
      </trkpt>
      <trkpt lat="37.1767113637" lon="-3.5641357675">
        <ele>950.88</ele>
        <time>2020-09-06T06:46:55Z</time>
      </trkpt>
      <trkpt lat="37.1764923446" lon="-3.5635805503">
        <ele>954.25</ele>
        <time>2020-09-06T06:47:10Z</time>
      </trkpt>
      <trkpt lat="37.1762454137" lon="-3.5629774723">
        <ele>957.61</ele>
        <time>2020-09-06T06:47:27Z</time>
      </trkpt>
      <trkpt lat="37.1760604251" lon="-3.5625722073">
        <ele>960.98</ele>
        <time>2020-09-06T06:47:40Z</time>
      </trkpt>
      <trkpt lat="37.1759015042" lon="-3.5622149706">
        <ele>964.34</ele>
        <time>2020-09-06T06:47:51Z</time>
      </trkpt>
      <trkpt lat="37.1756811440" lon="-3.5616843961">
        <ele>967.22</ele>
        <time>2020-09-06T06:48:07Z</time>
      </trkpt>
      <trkpt lat="37.1755163558" lon="-3.5613040254">
        <ele>970.11</ele>
        <time>2020-09-06T06:48:19Z</time>
      </trkpt>
      <trkpt lat="37.1753372345" lon="-3.5608590301">
        <ele>972.51</ele>
        <time>2020-09-06T06:48:32Z</time>
      </trkpt>
      <trkpt lat="37.1751775593" lon="-3.5603868775">
        <ele>975.39</ele>
        <time>2020-09-06T06:48:45Z</time>
      </trkpt>
      <trkpt lat="37.1749355737" lon="-3.5597296525">
        <ele>977.80</ele>
        <time>2020-09-06T06:49:01Z</time>
      </trkpt>
      <trkpt lat="37.1747417003" lon="-3.5592552368">
        <ele>980.20</ele>
        <time>2020-09-06T06:49:13Z</time>
      </trkpt>
      <trkpt lat="37.1745273750" lon="-3.5586810764">
        <ele>983.09</ele>
        <time>2020-09-06T06:49:27Z</time>
      </trkpt>
      <trkpt lat="37.1745118685" lon="-3.5581225902">
        <ele>985.49</ele>
        <time>2020-09-06T06:49:41Z</time>
      </trkpt>
      <trkpt lat="37.1747994516" lon="-3.5578052513">
        <ele>987.89</ele>
        <time>2020-09-06T06:49:53Z</time>
      </trkpt>
      <trkpt lat="37.1750220750" lon="-3.5575206857">
        <ele>989.81</ele>
        <time>2020-09-06T06:50:02Z</time>
      </trkpt>
      <trkpt lat="37.1750172134" lon="-3.5574642755">
        <ele>989.81</ele>
        <time>2020-09-06T06:50:03Z</time>
      </trkpt>
      <trkpt lat="37.1750095859" lon="-3.5574102122">
        <ele>989.81</ele>
        <time>2020-09-06T06:50:04Z</time>
      </trkpt>
      <trkpt lat="37.1747855376" lon="-3.5566361435">
        <ele>990.30</ele>
        <time>2020-09-06T06:50:17Z</time>
      </trkpt>
      <trkpt lat="37.1747778263" lon="-3.5565683339">
        <ele>990.30</ele>
        <time>2020-09-06T06:50:18Z</time>
      </trkpt>
      <trkpt lat="37.1747834422" lon="-3.5565007757">
        <ele>990.30</ele>
        <time>2020-09-06T06:50:19Z</time>
      </trkpt>
      <trkpt lat="37.1747954283" lon="-3.5564376600">
        <ele>990.30</ele>
        <time>2020-09-06T06:50:20Z</time>
      </trkpt>
      <trkpt lat="37.1748111863" lon="-3.5563745443">
        <ele>990.30</ele>
        <time>2020-09-06T06:50:21Z</time>
      </trkpt>
      <trkpt lat="37.1748592146" lon="-3.5560448840">
        <ele>988.85</ele>
        <time>2020-09-06T06:50:26Z</time>
      </trkpt>
      <trkpt lat="37.1748520061" lon="-3.5559757333">
        <ele>988.37</ele>
        <time>2020-09-06T06:50:27Z</time>
      </trkpt>
      <trkpt lat="37.1748366673" lon="-3.5558997933">
        <ele>988.37</ele>
        <time>2020-09-06T06:50:28Z</time>
      </trkpt>
      <trkpt lat="37.1748166345" lon="-3.5558370128">
        <ele>988.37</ele>
        <time>2020-09-06T06:50:29Z</time>
      </trkpt>
      <trkpt lat="37.1747863758" lon="-3.5557668563">
        <ele>988.37</ele>
        <time>2020-09-06T06:50:30Z</time>
      </trkpt>
      <trkpt lat="37.1747480705" lon="-3.5556993820">
        <ele>988.37</ele>
        <time>2020-09-06T06:50:31Z</time>
      </trkpt>
      <trkpt lat="37.1747099329" lon="-3.5556335002">
        <ele>988.37</ele>
        <time>2020-09-06T06:50:32Z</time>
      </trkpt>
      <trkpt lat="37.1746779140" lon="-3.5555677023">
        <ele>988.37</ele>
        <time>2020-09-06T06:50:33Z</time>
      </trkpt>
      <trkpt lat="37.1746467333" lon="-3.5555045865">
        <ele>988.37</ele>
        <time>2020-09-06T06:50:34Z</time>
      </trkpt>
      <trkpt lat="37.1746158879" lon="-3.5554357711">
        <ele>988.37</ele>
        <time>2020-09-06T06:50:35Z</time>
      </trkpt>
      <trkpt lat="37.1745894849" lon="-3.5553632677">
        <ele>987.89</ele>
        <time>2020-09-06T06:50:36Z</time>
      </trkpt>
      <trkpt lat="37.1745288838" lon="-3.5552212782">
        <ele>987.89</ele>
        <time>2020-09-06T06:50:38Z</time>
      </trkpt>
      <trkpt lat="37.1744619124" lon="-3.5550859943">
        <ele>987.89</ele>
        <time>2020-09-06T06:50:40Z</time>
      </trkpt>
      <trkpt lat="37.1744339168" lon="-3.5550145805">
        <ele>987.89</ele>
        <time>2020-09-06T06:50:41Z</time>
      </trkpt>
      <trkpt lat="37.1744012274" lon="-3.5549476091">
        <ele>987.89</ele>
        <time>2020-09-06T06:50:42Z</time>
      </trkpt>
      <trkpt lat="37.1743688732" lon="-3.5548796318">
        <ele>987.89</ele>
        <time>2020-09-06T06:50:43Z</time>
      </trkpt>
      <trkpt lat="37.1743375249" lon="-3.5548110679">
        <ele>987.89</ele>
        <time>2020-09-06T06:50:44Z</time>
      </trkpt>
      <trkpt lat="37.1743039973" lon="-3.5547404084">
        <ele>987.89</ele>
        <time>2020-09-06T06:50:45Z</time>
      </trkpt>
      <trkpt lat="37.1742730681" lon="-3.5546664800">
        <ele>987.89</ele>
        <time>2020-09-06T06:50:46Z</time>
      </trkpt>
      <trkpt lat="37.1742171608" lon="-3.5545210540">
        <ele>987.89</ele>
        <time>2020-09-06T06:50:48Z</time>
      </trkpt>
      <trkpt lat="37.1741802804" lon="-3.5544561781">
        <ele>987.89</ele>
        <time>2020-09-06T06:50:49Z</time>
      </trkpt>
      <trkpt lat="37.1741335094" lon="-3.5543980915">
        <ele>987.89</ele>
        <time>2020-09-06T06:50:50Z</time>
      </trkpt>
      <trkpt lat="37.1740807872" lon="-3.5543500632">
        <ele>987.89</ele>
        <time>2020-09-06T06:50:51Z</time>
      </trkpt>
      <trkpt lat="37.1740224492" lon="-3.5543171223">
        <ele>987.89</ele>
        <time>2020-09-06T06:50:52Z</time>
      </trkpt>
      <trkpt lat="37.1739644464" lon="-3.5542961676">
        <ele>987.89</ele>
        <time>2020-09-06T06:50:53Z</time>
      </trkpt>
      <trkpt lat="37.1739087068" lon="-3.5542729497">
        <ele>987.89</ele>
        <time>2020-09-06T06:50:54Z</time>
      </trkpt>
      <trkpt lat="37.1738635283" lon="-3.5542385001">
        <ele>987.89</ele>
        <time>2020-09-06T06:50:55Z</time>
      </trkpt>
      <trkpt lat="37.1738239657" lon="-3.5541832633">
        <ele>987.89</ele>
        <time>2020-09-06T06:50:56Z</time>
      </trkpt>
      <trkpt lat="37.1737921145" lon="-3.5541331396">
        <ele>987.89</ele>
        <time>2020-09-06T06:50:57Z</time>
      </trkpt>
      <trkpt lat="37.1737471875" lon="-3.5540794116">
        <ele>987.89</ele>
        <time>2020-09-06T06:50:58Z</time>
      </trkpt>
      <trkpt lat="37.1736944653" lon="-3.5540224146">
        <ele>987.89</ele>
        <time>2020-09-06T06:50:59Z</time>
      </trkpt>
      <trkpt lat="37.1736438386" lon="-3.5539629031">
        <ele>987.89</ele>
        <time>2020-09-06T06:51:00Z</time>
      </trkpt>
      <trkpt lat="37.1733561717" lon="-3.5536050797">
        <ele>987.41</ele>
        <time>2020-09-06T06:51:06Z</time>
      </trkpt>
      <trkpt lat="37.1733261645" lon="-3.5535314027">
        <ele>987.41</ele>
        <time>2020-09-06T06:51:07Z</time>
      </trkpt>
      <trkpt lat="37.1733056288" lon="-3.5534595698">
        <ele>987.41</ele>
        <time>2020-09-06T06:51:08Z</time>
      </trkpt>
      <trkpt lat="37.1731100790" lon="-3.5526303481">
        <ele>985.49</ele>
        <time>2020-09-06T06:51:19Z</time>
      </trkpt>
      <trkpt lat="37.1730970871" lon="-3.5525431763">
        <ele>985.01</ele>
        <time>2020-09-06T06:51:20Z</time>
      </trkpt>
      <trkpt lat="37.1729659103" lon="-3.5517178103">
        <ele>981.64</ele>
        <time>2020-09-06T06:51:29Z</time>
      </trkpt>
      <trkpt lat="37.1729572769" lon="-3.5516199097">
        <ele>981.64</ele>
        <time>2020-09-06T06:51:30Z</time>
      </trkpt>
      <trkpt lat="37.1729169600" lon="-3.5511097033">
        <ele>977.80</ele>
        <time>2020-09-06T06:51:35Z</time>
      </trkpt>
      <trkpt lat="37.1729044709" lon="-3.5510058515">
        <ele>977.80</ele>
        <time>2020-09-06T06:51:36Z</time>
      </trkpt>
      <trkpt lat="37.1728411037" lon="-3.5501259193">
        <ele>974.43</ele>
        <time>2020-09-06T06:51:44Z</time>
      </trkpt>
      <trkpt lat="37.1728153713" lon="-3.5499201436">
        <ele>974.43</ele>
        <time>2020-09-06T06:51:46Z</time>
      </trkpt>
      <trkpt lat="37.1727926563" lon="-3.5494901519">
        <ele>973.47</ele>
        <time>2020-09-06T06:51:50Z</time>
      </trkpt>
      <trkpt lat="37.1728046425" lon="-3.5493883118">
        <ele>973.47</ele>
        <time>2020-09-06T06:51:51Z</time>
      </trkpt>
      <trkpt lat="37.1728232503" lon="-3.5492916685">
        <ele>972.99</ele>
        <time>2020-09-06T06:51:52Z</time>
      </trkpt>
      <trkpt lat="37.1728863660" lon="-3.5490093660">
        <ele>972.99</ele>
        <time>2020-09-06T06:51:55Z</time>
      </trkpt>
      <trkpt lat="37.1728924848" lon="-3.5489185061">
        <ele>972.99</ele>
        <time>2020-09-06T06:51:56Z</time>
      </trkpt>
      <trkpt lat="37.1728908923" lon="-3.5488240421">
        <ele>972.99</ele>
        <time>2020-09-06T06:51:57Z</time>
      </trkpt>
      <trkpt lat="37.1728659142" lon="-3.5485408176">
        <ele>972.99</ele>
        <time>2020-09-06T06:52:00Z</time>
      </trkpt>
      <trkpt lat="37.1728663333" lon="-3.5484501254">
        <ele>972.99</ele>
        <time>2020-09-06T06:52:01Z</time>
      </trkpt>
      <trkpt lat="37.1728744637" lon="-3.5483646300">
        <ele>972.99</ele>
        <time>2020-09-06T06:52:02Z</time>
      </trkpt>
      <trkpt lat="37.1729043033" lon="-3.5481261648">
        <ele>974.43</ele>
        <time>2020-09-06T06:52:05Z</time>
      </trkpt>
      <trkpt lat="37.1728794090" lon="-3.5473085940">
        <ele>976.36</ele>
        <time>2020-09-06T06:52:17Z</time>
      </trkpt>
      <trkpt lat="37.1728516649" lon="-3.5471465718">
        <ele>976.36</ele>
        <time>2020-09-06T06:52:19Z</time>
      </trkpt>
      <trkpt lat="37.1728474740" lon="-3.5470631719">
        <ele>976.36</ele>
        <time>2020-09-06T06:52:20Z</time>
      </trkpt>
      <trkpt lat="37.1728515811" lon="-3.5469796043">
        <ele>976.36</ele>
        <time>2020-09-06T06:52:21Z</time>
      </trkpt>
      <trkpt lat="37.1728614718" lon="-3.5468949471">
        <ele>976.36</ele>
        <time>2020-09-06T06:52:22Z</time>
      </trkpt>
      <trkpt lat="37.1728748828" lon="-3.5468122177">
        <ele>976.36</ele>
        <time>2020-09-06T06:52:23Z</time>
      </trkpt>
      <trkpt lat="37.1728934068" lon="-3.5467330925">
        <ele>976.36</ele>
        <time>2020-09-06T06:52:24Z</time>
      </trkpt>
      <trkpt lat="37.1729216538" lon="-3.5466619302">
        <ele>976.36</ele>
        <time>2020-09-06T06:52:25Z</time>
      </trkpt>
      <trkpt lat="37.1729579475" lon="-3.5465956293">
        <ele>976.36</ele>
        <time>2020-09-06T06:52:26Z</time>
      </trkpt>
      <trkpt lat="37.1729973424" lon="-3.5465382971">
        <ele>976.36</ele>
        <time>2020-09-06T06:52:27Z</time>
      </trkpt>
      <trkpt lat="37.1730374079" lon="-3.5464863293">
        <ele>976.36</ele>
        <time>2020-09-06T06:52:28Z</time>
      </trkpt>
      <trkpt lat="37.1731131803" lon="-3.5463843215">
        <ele>976.36</ele>
        <time>2020-09-06T06:52:30Z</time>
      </trkpt>
      <trkpt lat="37.1731559280" lon="-3.5463421606">
        <ele>976.36</ele>
        <time>2020-09-06T06:52:31Z</time>
      </trkpt>
      <trkpt lat="37.1732035372" lon="-3.5462964792">
        <ele>975.39</ele>
        <time>2020-09-06T06:52:32Z</time>
      </trkpt>
      <trkpt lat="37.1732548345" lon="-3.5462404881">
        <ele>975.39</ele>
        <time>2020-09-06T06:52:33Z</time>
      </trkpt>
      <trkpt lat="37.1733033657" lon="-3.5461894423">
        <ele>973.95</ele>
        <time>2020-09-06T06:52:34Z</time>
      </trkpt>
      <trkpt lat="37.1733463649" lon="-3.5461423360">
        <ele>973.47</ele>
        <time>2020-09-06T06:52:35Z</time>
      </trkpt>
      <trkpt lat="37.1733776294" lon="-3.5460900329">
        <ele>972.99</ele>
        <time>2020-09-06T06:52:36Z</time>
      </trkpt>
      <trkpt lat="37.1733870171" lon="-3.5460316949">
        <ele>972.03</ele>
        <time>2020-09-06T06:52:37Z</time>
      </trkpt>
      <trkpt lat="37.1733707562" lon="-3.5459700041">
        <ele>972.03</ele>
        <time>2020-09-06T06:52:38Z</time>
      </trkpt>
      <trkpt lat="37.1733435988" lon="-3.5459291004">
        <ele>971.55</ele>
        <time>2020-09-06T06:52:39Z</time>
      </trkpt>
      <trkpt lat="37.1733053774" lon="-3.5458893701">
        <ele>971.07</ele>
        <time>2020-09-06T06:52:40Z</time>
      </trkpt>
      <trkpt lat="37.1732704248" lon="-3.5458553396">
        <ele>971.07</ele>
        <time>2020-09-06T06:52:41Z</time>
      </trkpt>
      <trkpt lat="37.1732431836" lon="-3.5458187945">
        <ele>970.11</ele>
        <time>2020-09-06T06:52:42Z</time>
      </trkpt>
      <trkpt lat="37.1730835084" lon="-3.5456167068">
        <ele>967.22</ele>
        <time>2020-09-06T06:52:48Z</time>
      </trkpt>
      <trkpt lat="37.1729747951" lon="-3.5454146191">
        <ele>965.30</ele>
        <time>2020-09-06T06:52:52Z</time>
      </trkpt>
      <trkpt lat="37.1728939097" lon="-3.5452270322">
        <ele>963.38</ele>
        <time>2020-09-06T06:52:55Z</time>
      </trkpt>
      <trkpt lat="37.1726712864" lon="-3.5448270477">
        <ele>961.46</ele>
        <time>2020-09-06T06:53:01Z</time>
      </trkpt>
      <trkpt lat="37.1726421174" lon="-3.5447544605">
        <ele>960.98</ele>
        <time>2020-09-06T06:53:02Z</time>
      </trkpt>
      <trkpt lat="37.1725480724" lon="-3.5444517899">
        <ele>960.98</ele>
        <time>2020-09-06T06:53:06Z</time>
      </trkpt>
      <trkpt lat="37.1724899858" lon="-3.5440539010">
        <ele>957.13</ele>
        <time>2020-09-06T06:53:13Z</time>
      </trkpt>
      <trkpt lat="37.1724846214" lon="-3.5440042801">
        <ele>956.17</ele>
        <time>2020-09-06T06:53:14Z</time>
      </trkpt>
      <trkpt lat="37.1724740602" lon="-3.5439526476">
        <ele>955.69</ele>
        <time>2020-09-06T06:53:15Z</time>
      </trkpt>
      <trkpt lat="37.1723961923" lon="-3.5436902102">
        <ele>952.32</ele>
        <time>2020-09-06T06:53:20Z</time>
      </trkpt>
      <trkpt lat="37.1723871399" lon="-3.5436342191">
        <ele>952.32</ele>
        <time>2020-09-06T06:53:21Z</time>
      </trkpt>
      <trkpt lat="37.1723806858" lon="-3.5435767192">
        <ele>950.88</ele>
        <time>2020-09-06T06:53:22Z</time>
      </trkpt>
      <trkpt lat="37.1723693702" lon="-3.5435164534">
        <ele>950.88</ele>
        <time>2020-09-06T06:53:23Z</time>
      </trkpt>
      <trkpt lat="37.1723189950" lon="-3.5433148686">
        <ele>949.92</ele>
        <time>2020-09-06T06:53:26Z</time>
      </trkpt>
      <trkpt lat="37.1722739004" lon="-3.5431599710">
        <ele>949.44</ele>
        <time>2020-09-06T06:53:28Z</time>
      </trkpt>
      <trkpt lat="37.1721907519" lon="-3.5426780116">
        <ele>948.00</ele>
        <time>2020-09-06T06:53:34Z</time>
      </trkpt>
      <trkpt lat="37.1721915063" lon="-3.5425972100">
        <ele>948.00</ele>
        <time>2020-09-06T06:53:35Z</time>
      </trkpt>
      <trkpt lat="37.1721937694" lon="-3.5425154865">
        <ele>948.00</ele>
        <time>2020-09-06T06:53:36Z</time>
      </trkpt>
      <trkpt lat="37.1721905842" lon="-3.5424353555">
        <ele>948.00</ele>
        <time>2020-09-06T06:53:37Z</time>
      </trkpt>
      <trkpt lat="37.1721902490" lon="-3.5423587449">
        <ele>948.48</ele>
        <time>2020-09-06T06:53:38Z</time>
      </trkpt>
      <trkpt lat="37.1722003911" lon="-3.5422811285">
        <ele>948.48</ele>
        <time>2020-09-06T06:53:39Z</time>
      </trkpt>
      <trkpt lat="37.1722148079" lon="-3.5422003269">
        <ele>948.48</ele>
        <time>2020-09-06T06:53:40Z</time>
      </trkpt>
      <trkpt lat="37.1722331643" lon="-3.5421167593">
        <ele>948.48</ele>
        <time>2020-09-06T06:53:41Z</time>
      </trkpt>
      <trkpt lat="37.1722547896" lon="-3.5420323536">
        <ele>948.00</ele>
        <time>2020-09-06T06:53:42Z</time>
      </trkpt>
      <trkpt lat="37.1722700447" lon="-3.5419423319">
        <ele>948.00</ele>
        <time>2020-09-06T06:53:43Z</time>
      </trkpt>
      <trkpt lat="37.1722808573" lon="-3.5418495443">
        <ele>947.04</ele>
        <time>2020-09-06T06:53:44Z</time>
      </trkpt>
      <trkpt lat="37.1722873952" lon="-3.5417562537">
        <ele>947.04</ele>
        <time>2020-09-06T06:53:45Z</time>
      </trkpt>
      <trkpt lat="37.1722835395" lon="-3.5415746178">
        <ele>947.04</ele>
        <time>2020-09-06T06:53:47Z</time>
      </trkpt>
      <trkpt lat="37.1722453181" lon="-3.5411533434">
        <ele>947.52</ele>
        <time>2020-09-06T06:53:52Z</time>
      </trkpt>
      <trkpt lat="37.1722299792" lon="-3.5410705302">
        <ele>947.52</ele>
        <time>2020-09-06T06:53:53Z</time>
      </trkpt>
      <trkpt lat="37.1721494291" lon="-3.5403549671">
        <ele>946.56</ele>
        <time>2020-09-06T06:54:02Z</time>
      </trkpt>
      <trkpt lat="37.1721280552" lon="-3.5402824637">
        <ele>946.07</ele>
        <time>2020-09-06T06:54:03Z</time>
      </trkpt>
      <trkpt lat="37.1721014846" lon="-3.5402123909">
        <ele>946.07</ele>
        <time>2020-09-06T06:54:04Z</time>
      </trkpt>
      <trkpt lat="37.1720799431" lon="-3.5401537176">
        <ele>945.59</ele>
        <time>2020-09-06T06:54:05Z</time>
      </trkpt>
      <trkpt lat="37.1720669512" lon="-3.5400984809">
        <ele>945.59</ele>
        <time>2020-09-06T06:54:06Z</time>
      </trkpt>
      <trkpt lat="37.1720596589" lon="-3.5400486924">
        <ele>945.11</ele>
        <time>2020-09-06T06:54:07Z</time>
      </trkpt>
      <trkpt lat="37.1720530372" lon="-3.5400046036">
        <ele>944.63</ele>
        <time>2020-09-06T06:54:08Z</time>
      </trkpt>
      <trkpt lat="37.1720461641" lon="-3.5399642028">
        <ele>944.15</ele>
        <time>2020-09-06T06:54:09Z</time>
      </trkpt>
      <trkpt lat="37.1720389556" lon="-3.5399253108">
        <ele>944.15</ele>
        <time>2020-09-06T06:54:10Z</time>
      </trkpt>
      <trkpt lat="37.1720337588" lon="-3.5398828983">
        <ele>943.19</ele>
        <time>2020-09-06T06:54:11Z</time>
      </trkpt>
      <trkpt lat="37.1720236167" lon="-3.5398377199">
        <ele>942.71</ele>
        <time>2020-09-06T06:54:12Z</time>
      </trkpt>
      <trkpt lat="37.1720128879" lon="-3.5397940502">
        <ele>942.71</ele>
        <time>2020-09-06T06:54:13Z</time>
      </trkpt>
      <trkpt lat="37.1720029134" lon="-3.5397483688">
        <ele>941.75</ele>
        <time>2020-09-06T06:54:14Z</time>
      </trkpt>
      <trkpt lat="37.1719886642" lon="-3.5396989156">
        <ele>941.75</ele>
        <time>2020-09-06T06:54:15Z</time>
      </trkpt>
      <trkpt lat="37.1719619259" lon="-3.5396492947">
        <ele>940.79</ele>
        <time>2020-09-06T06:54:16Z</time>
      </trkpt>
      <trkpt lat="37.1719230339" lon="-3.5395985004">
        <ele>939.83</ele>
        <time>2020-09-06T06:54:17Z</time>
      </trkpt>
      <trkpt lat="37.1718791965" lon="-3.5395549145">
        <ele>939.35</ele>
        <time>2020-09-06T06:54:18Z</time>
      </trkpt>
      <trkpt lat="37.1718321741" lon="-3.5395162739">
        <ele>937.90</ele>
        <time>2020-09-06T06:54:19Z</time>
      </trkpt>
      <trkpt lat="37.1716636140" lon="-3.5393760446">
        <ele>935.02</ele>
        <time>2020-09-06T06:54:23Z</time>
      </trkpt>
      <trkpt lat="37.1716059465" lon="-3.5392898787">
        <ele>934.06</ele>
        <time>2020-09-06T06:54:25Z</time>
      </trkpt>
      <trkpt lat="37.1715956368" lon="-3.5392351449">
        <ele>933.10</ele>
        <time>2020-09-06T06:54:26Z</time>
      </trkpt>
      <trkpt lat="37.1715964749" lon="-3.5391842667">
        <ele>931.65</ele>
        <time>2020-09-06T06:54:27Z</time>
      </trkpt>
      <trkpt lat="37.1716139093" lon="-3.5391416866">
        <ele>931.17</ele>
        <time>2020-09-06T06:54:28Z</time>
      </trkpt>
      <trkpt lat="37.1716440003" lon="-3.5391099192">
        <ele>930.21</ele>
        <time>2020-09-06T06:54:29Z</time>
      </trkpt>
      <trkpt lat="37.1716814674" lon="-3.5390867852">
        <ele>929.73</ele>
        <time>2020-09-06T06:54:30Z</time>
      </trkpt>
      <trkpt lat="37.1717154980" lon="-3.5390564427">
        <ele>928.29</ele>
        <time>2020-09-06T06:54:31Z</time>
      </trkpt>
      <trkpt lat="37.1717335191" lon="-3.5390090011">
        <ele>927.33</ele>
        <time>2020-09-06T06:54:32Z</time>
      </trkpt>
      <trkpt lat="37.1717380453" lon="-3.5389449634">
        <ele>926.37</ele>
        <time>2020-09-06T06:54:33Z</time>
      </trkpt>
      <trkpt lat="37.1717391349" lon="-3.5388628207">
        <ele>926.85</ele>
        <time>2020-09-06T06:54:34Z</time>
      </trkpt>
      <trkpt lat="37.1717501990" lon="-3.5386536922">
        <ele>923.48</ele>
        <time>2020-09-06T06:54:36Z</time>
      </trkpt>
      <trkpt lat="37.1717584133" lon="-3.5384030733">
        <ele>920.12</ele>
        <time>2020-09-06T06:54:38Z</time>
      </trkpt>
      <trkpt lat="37.1717633586" lon="-3.5381443240">
        <ele>916.75</ele>
        <time>2020-09-06T06:54:40Z</time>
      </trkpt>
      <trkpt lat="37.1717802063" lon="-3.5379052721">
        <ele>913.39</ele>
        <time>2020-09-06T06:54:42Z</time>
      </trkpt>
      <trkpt lat="37.1718100458" lon="-3.5377995763">
        <ele>912.43</ele>
        <time>2020-09-06T06:54:43Z</time>
      </trkpt>
      <trkpt lat="37.1718563978" lon="-3.5377062019">
        <ele>911.47</ele>
        <time>2020-09-06T06:54:44Z</time>
      </trkpt>
      <trkpt lat="37.1719186753" lon="-3.5376217123">
        <ele>911.47</ele>
        <time>2020-09-06T06:54:45Z</time>
      </trkpt>
      <trkpt lat="37.1719836351" lon="-3.5375445150">
        <ele>911.47</ele>
        <time>2020-09-06T06:54:46Z</time>
      </trkpt>
      <trkpt lat="37.1721675340" lon="-3.5373005178">
        <ele>910.51</ele>
        <time>2020-09-06T06:54:49Z</time>
      </trkpt>
      <trkpt lat="37.1721976250" lon="-3.5372196324">
        <ele>910.03</ele>
        <time>2020-09-06T06:54:50Z</time>
      </trkpt>
      <trkpt lat="37.1722196694" lon="-3.5371099133">
        <ele>910.03</ele>
        <time>2020-09-06T06:54:51Z</time>
      </trkpt>
      <trkpt lat="37.1722585615" lon="-3.5368903074">
        <ele>906.66</ele>
        <time>2020-09-06T06:54:53Z</time>
      </trkpt>
      <trkpt lat="37.1722786780" lon="-3.5367805045">
        <ele>906.66</ele>
        <time>2020-09-06T06:54:54Z</time>
      </trkpt>
      <trkpt lat="37.1723312326" lon="-3.5364487488">
        <ele>902.82</ele>
        <time>2020-09-06T06:54:57Z</time>
      </trkpt>
      <trkpt lat="37.1723748185" lon="-3.5360713117">
        <ele>899.45</ele>
        <time>2020-09-06T06:55:01Z</time>
      </trkpt>
      <trkpt lat="37.1723855473" lon="-3.5359134804">
        <ele>897.53</ele>
        <time>2020-09-06T06:55:03Z</time>
      </trkpt>
      <trkpt lat="37.1723831166" lon="-3.5358477663">
        <ele>897.05</ele>
        <time>2020-09-06T06:55:04Z</time>
      </trkpt>
      <trkpt lat="37.1723659337" lon="-3.5357011668">
        <ele>895.61</ele>
        <time>2020-09-06T06:55:06Z</time>
      </trkpt>
      <trkpt lat="37.1723443922" lon="-3.5356215388">
        <ele>894.64</ele>
        <time>2020-09-06T06:55:07Z</time>
      </trkpt>
      <trkpt lat="37.1723104455" lon="-3.5355471913">
        <ele>893.68</ele>
        <time>2020-09-06T06:55:08Z</time>
      </trkpt>
      <trkpt lat="37.1722605731" lon="-3.5354815610">
        <ele>893.68</ele>
        <time>2020-09-06T06:55:09Z</time>
      </trkpt>
      <trkpt lat="37.1721786819" lon="-3.5354121588">
        <ele>893.68</ele>
        <time>2020-09-06T06:55:11Z</time>
      </trkpt>
      <trkpt lat="37.1721638460" lon="-3.5353636276">
        <ele>893.20</ele>
        <time>2020-09-06T06:55:12Z</time>
      </trkpt>
      <trkpt lat="37.1721692942" lon="-3.5353010986">
        <ele>892.72</ele>
        <time>2020-09-06T06:55:13Z</time>
      </trkpt>
      <trkpt lat="37.1721847169" lon="-3.5352282599">
        <ele>892.72</ele>
        <time>2020-09-06T06:55:14Z</time>
      </trkpt>
      <trkpt lat="37.1722612437" lon="-3.5348606296">
        <ele>890.80</ele>
        <time>2020-09-06T06:55:18Z</time>
      </trkpt>
      <trkpt lat="37.1722679492" lon="-3.5347611364">
        <ele>890.32</ele>
        <time>2020-09-06T06:55:19Z</time>
      </trkpt>
      <trkpt lat="37.1723577194" lon="-3.5340400413">
        <ele>889.36</ele>
        <time>2020-09-06T06:55:26Z</time>
      </trkpt>
      <trkpt lat="37.1723583061" lon="-3.5339307413">
        <ele>889.84</ele>
        <time>2020-09-06T06:55:27Z</time>
      </trkpt>
      <trkpt lat="37.1723649278" lon="-3.5337584093">
        <ele>889.84</ele>
        <time>2020-09-06T06:55:29Z</time>
      </trkpt>
      <trkpt lat="37.1723802667" lon="-3.5336739197">
        <ele>889.84</ele>
        <time>2020-09-06T06:55:30Z</time>
      </trkpt>
      <trkpt lat="37.1724022273" lon="-3.5335951298">
        <ele>891.28</ele>
        <time>2020-09-06T06:55:31Z</time>
      </trkpt>
      <trkpt lat="37.1724277083" lon="-3.5335118137">
        <ele>891.28</ele>
        <time>2020-09-06T06:55:32Z</time>
      </trkpt>
      <trkpt lat="37.1725025587" lon="-3.5332877655">
        <ele>891.28</ele>
        <time>2020-09-06T06:55:35Z</time>
      </trkpt>
      <trkpt lat="37.1725218371" lon="-3.5332099814">
        <ele>891.28</ele>
        <time>2020-09-06T06:55:36Z</time>
      </trkpt>
      <trkpt lat="37.1725346614" lon="-3.5331343766">
        <ele>891.76</ele>
        <time>2020-09-06T06:55:37Z</time>
      </trkpt>
      <trkpt lat="37.1725430433" lon="-3.5330606997">
        <ele>891.76</ele>
        <time>2020-09-06T06:55:38Z</time>
      </trkpt>
      <trkpt lat="37.1725474857" lon="-3.5329875257">
        <ele>892.24</ele>
        <time>2020-09-06T06:55:39Z</time>
      </trkpt>
      <trkpt lat="37.1725463122" lon="-3.5329177883">
        <ele>892.72</ele>
        <time>2020-09-06T06:55:40Z</time>
      </trkpt>
      <trkpt lat="37.1725383494" lon="-3.5328457877">
        <ele>893.20</ele>
        <time>2020-09-06T06:55:41Z</time>
      </trkpt>
      <trkpt lat="37.1725283749" lon="-3.5327800736">
        <ele>893.20</ele>
        <time>2020-09-06T06:55:42Z</time>
      </trkpt>
      <trkpt lat="37.1725132037" lon="-3.5327079054">
        <ele>893.20</ele>
        <time>2020-09-06T06:55:43Z</time>
      </trkpt>
      <trkpt lat="37.1724949311" lon="-3.5326390900">
        <ele>893.20</ele>
        <time>2020-09-06T06:55:44Z</time>
      </trkpt>
      <trkpt lat="37.1722801030" lon="-3.5319805238">
        <ele>893.68</ele>
        <time>2020-09-06T06:55:53Z</time>
      </trkpt>
      <trkpt lat="37.1722759958" lon="-3.5318992194">
        <ele>893.68</ele>
        <time>2020-09-06T06:55:54Z</time>
      </trkpt>
      <trkpt lat="37.1722832881" lon="-3.5318187531">
        <ele>894.16</ele>
        <time>2020-09-06T06:55:55Z</time>
      </trkpt>
      <trkpt lat="37.1723044105" lon="-3.5317441542">
        <ele>894.16</ele>
        <time>2020-09-06T06:55:56Z</time>
      </trkpt>
      <trkpt lat="37.1723386087" lon="-3.5316751711">
        <ele>894.16</ele>
        <time>2020-09-06T06:55:57Z</time>
      </trkpt>
      <trkpt lat="37.1723824460" lon="-3.5316139832">
        <ele>894.16</ele>
        <time>2020-09-06T06:55:58Z</time>
      </trkpt>
      <trkpt lat="37.1724258643" lon="-3.5315637756">
        <ele>894.16</ele>
        <time>2020-09-06T06:55:59Z</time>
      </trkpt>
      <trkpt lat="37.1724739764" lon="-3.5315129813">
        <ele>894.16</ele>
        <time>2020-09-06T06:56:00Z</time>
      </trkpt>
      <trkpt lat="37.1725222562" lon="-3.5314653721">
        <ele>894.16</ele>
        <time>2020-09-06T06:56:01Z</time>
      </trkpt>
      <trkpt lat="37.1726133674" lon="-3.5313653760">
        <ele>894.16</ele>
        <time>2020-09-06T06:56:03Z</time>
      </trkpt>
      <trkpt lat="37.1726515051" lon="-3.5313020926">
        <ele>894.16</ele>
        <time>2020-09-06T06:56:04Z</time>
      </trkpt>
      <trkpt lat="37.1727685165" lon="-3.5310495459">
        <ele>894.64</ele>
        <time>2020-09-06T06:56:08Z</time>
      </trkpt>
      <trkpt lat="37.1728024632" lon="-3.5309926327">
        <ele>894.64</ele>
        <time>2020-09-06T06:56:09Z</time>
      </trkpt>
      <trkpt lat="37.1728406847" lon="-3.5309415031">
        <ele>894.64</ele>
        <time>2020-09-06T06:56:10Z</time>
      </trkpt>
      <trkpt lat="37.1728847735" lon="-3.5308980849">
        <ele>895.12</ele>
        <time>2020-09-06T06:56:11Z</time>
      </trkpt>
      <trkpt lat="37.1729312092" lon="-3.5308626294">
        <ele>895.12</ele>
        <time>2020-09-06T06:56:12Z</time>
      </trkpt>
      <trkpt lat="37.1729775611" lon="-3.5308341309">
        <ele>895.12</ele>
        <time>2020-09-06T06:56:13Z</time>
      </trkpt>
      <trkpt lat="37.1730193868" lon="-3.5308131762">
        <ele>896.09</ele>
        <time>2020-09-06T06:56:14Z</time>
      </trkpt>
      <trkpt lat="37.1730551776" lon="-3.5307990108">
        <ele>896.09</ele>
        <time>2020-09-06T06:56:15Z</time>
      </trkpt>
      <trkpt lat="37.1732567623" lon="-3.5307417624">
        <ele>899.45</ele>
        <time>2020-09-06T06:56:21Z</time>
      </trkpt>
      <trkpt lat="37.1734224726" lon="-3.5306824185">
        <ele>902.33</ele>
        <time>2020-09-06T06:56:27Z</time>
      </trkpt>
      <trkpt lat="37.1738765202" lon="-3.5305663291">
        <ele>904.26</ele>
        <time>2020-09-06T06:56:38Z</time>
      </trkpt>
      <trkpt lat="37.1740081161" lon="-3.5305307060">
        <ele>904.26</ele>
        <time>2020-09-06T06:56:40Z</time>
      </trkpt>
      <trkpt lat="37.1742459107" lon="-3.5305110924">
        <ele>902.82</ele>
        <time>2020-09-06T06:56:44Z</time>
      </trkpt>
      <trkpt lat="37.1743145585" lon="-3.5305162892">
        <ele>902.82</ele>
        <time>2020-09-06T06:56:45Z</time>
      </trkpt>
      <trkpt lat="37.1743815299" lon="-3.5305288620">
        <ele>902.82</ele>
        <time>2020-09-06T06:56:46Z</time>
      </trkpt>
      <trkpt lat="37.1744429693" lon="-3.5305488110">
        <ele>902.82</ele>
        <time>2020-09-06T06:56:47Z</time>
      </trkpt>
      <trkpt lat="37.1744951047" lon="-3.5305770580">
        <ele>902.82</ele>
        <time>2020-09-06T06:56:48Z</time>
      </trkpt>
      <trkpt lat="37.1745386068" lon="-3.5306091607">
        <ele>902.82</ele>
        <time>2020-09-06T06:56:49Z</time>
      </trkpt>
      <trkpt lat="37.1747377608" lon="-3.5307639744">
        <ele>906.18</ele>
        <time>2020-09-06T06:56:55Z</time>
      </trkpt>
      <trkpt lat="37.1748691052" lon="-3.5307296924">
        <ele>907.62</ele>
        <time>2020-09-06T06:56:59Z</time>
      </trkpt>
      <trkpt lat="37.1749012079" lon="-3.5306958295">
        <ele>907.62</ele>
        <time>2020-09-06T06:57:00Z</time>
      </trkpt>
      <trkpt lat="37.1750315465" lon="-3.5305404291">
        <ele>908.10</ele>
        <time>2020-09-06T06:57:04Z</time>
      </trkpt>
      <trkpt lat="37.1750790719" lon="-3.5305083264">
        <ele>908.10</ele>
        <time>2020-09-06T06:57:05Z</time>
      </trkpt>
      <trkpt lat="37.1751309559" lon="-3.5304893833">
        <ele>908.10</ele>
        <time>2020-09-06T06:57:06Z</time>
      </trkpt>
      <trkpt lat="37.1751819178" lon="-3.5304791573">
        <ele>908.10</ele>
        <time>2020-09-06T06:57:07Z</time>
      </trkpt>
      <trkpt lat="37.1752330475" lon="-3.5304728709">
        <ele>908.10</ele>
        <time>2020-09-06T06:57:08Z</time>
      </trkpt>
      <trkpt lat="37.1752856020" lon="-3.5304743797">
        <ele>906.18</ele>
        <time>2020-09-06T06:57:09Z</time>
      </trkpt>
      <trkpt lat="37.1753436048" lon="-3.5304802470">
        <ele>905.70</ele>
        <time>2020-09-06T06:57:10Z</time>
      </trkpt>
      <trkpt lat="37.1754068881" lon="-3.5304849409">
        <ele>905.22</ele>
        <time>2020-09-06T06:57:11Z</time>
      </trkpt>
      <trkpt lat="37.1754705068" lon="-3.5304958373">
        <ele>903.78</ele>
        <time>2020-09-06T06:57:12Z</time>
      </trkpt>
      <trkpt lat="37.1755327843" lon="-3.5305049736">
        <ele>903.30</ele>
        <time>2020-09-06T06:57:13Z</time>
      </trkpt>
      <trkpt lat="37.1755882725" lon="-3.5304953344">
        <ele>902.82</ele>
        <time>2020-09-06T06:57:14Z</time>
      </trkpt>
      <trkpt lat="37.1756394859" lon="-3.5304520000">
        <ele>901.37</ele>
        <time>2020-09-06T06:57:15Z</time>
      </trkpt>
      <trkpt lat="37.1756657213" lon="-3.5303915665">
        <ele>900.89</ele>
        <time>2020-09-06T06:57:16Z</time>
      </trkpt>
      <trkpt lat="37.1756810602" lon="-3.5303069092">
        <ele>899.93</ele>
        <time>2020-09-06T06:57:17Z</time>
      </trkpt>
      <trkpt lat="37.1756907832" lon="-3.5302094277">
        <ele>898.97</ele>
        <time>2020-09-06T06:57:18Z</time>
      </trkpt>
      <trkpt lat="37.1756974049" lon="-3.5301026423">
        <ele>897.53</ele>
        <time>2020-09-06T06:57:19Z</time>
      </trkpt>
      <trkpt lat="37.1757114865" lon="-3.5298864730">
        <ele>896.57</ele>
        <time>2020-09-06T06:57:21Z</time>
      </trkpt>
      <trkpt lat="37.1757346205" lon="-3.5298008937">
        <ele>895.61</ele>
        <time>2020-09-06T06:57:22Z</time>
      </trkpt>
      <trkpt lat="37.1757746022" lon="-3.5297352634">
        <ele>895.61</ele>
        <time>2020-09-06T06:57:23Z</time>
      </trkpt>
      <trkpt lat="37.1758295037" lon="-3.5296868999">
        <ele>895.61</ele>
        <time>2020-09-06T06:57:24Z</time>
      </trkpt>
      <trkpt lat="37.1758936252" lon="-3.5296572279">
        <ele>895.61</ele>
        <time>2020-09-06T06:57:25Z</time>
      </trkpt>
      <trkpt lat="37.1759609319" lon="-3.5296404641">
        <ele>895.61</ele>
        <time>2020-09-06T06:57:26Z</time>
      </trkpt>
      <trkpt lat="37.1760305855" lon="-3.5296242032">
        <ele>895.12</ele>
        <time>2020-09-06T06:57:27Z</time>
      </trkpt>
      <trkpt lat="37.1760937851" lon="-3.5296026617">
        <ele>895.61</ele>
        <time>2020-09-06T06:57:28Z</time>
      </trkpt>
      <trkpt lat="37.1761540510" lon="-3.5295707267">
        <ele>895.61</ele>
        <time>2020-09-06T06:57:29Z</time>
      </trkpt>
      <trkpt lat="37.1763672866" lon="-3.5294000711">
        <ele>895.61</ele>
        <time>2020-09-06T06:57:33Z</time>
      </trkpt>
      <trkpt lat="37.1764014848" lon="-3.5293409787">
        <ele>895.61</ele>
        <time>2020-09-06T06:57:34Z</time>
      </trkpt>
      <trkpt lat="37.1764295641" lon="-3.5292731691">
        <ele>895.61</ele>
        <time>2020-09-06T06:57:35Z</time>
      </trkpt>
      <trkpt lat="37.1764666121" lon="-3.5291337781">
        <ele>895.61</ele>
        <time>2020-09-06T06:57:37Z</time>
      </trkpt>
      <trkpt lat="37.1764928475" lon="-3.5289201234">
        <ele>896.09</ele>
        <time>2020-09-06T06:57:40Z</time>
      </trkpt>
      <trkpt lat="37.1765324939" lon="-3.5288653895">
        <ele>896.09</ele>
        <time>2020-09-06T06:57:41Z</time>
      </trkpt>
      <trkpt lat="37.1765835397" lon="-3.5288390703">
        <ele>896.09</ele>
        <time>2020-09-06T06:57:42Z</time>
      </trkpt>
      <trkpt lat="37.1766390279" lon="-3.5288307723">
        <ele>896.09</ele>
        <time>2020-09-06T06:57:43Z</time>
      </trkpt>
      <trkpt lat="37.1766964439" lon="-3.5288285930">
        <ele>896.09</ele>
        <time>2020-09-06T06:57:44Z</time>
      </trkpt>
      <trkpt lat="37.1767541952" lon="-3.5288187023">
        <ele>896.09</ele>
        <time>2020-09-06T06:57:45Z</time>
      </trkpt>
      <trkpt lat="37.1768080071" lon="-3.5287947301">
        <ele>896.09</ele>
        <time>2020-09-06T06:57:46Z</time>
      </trkpt>
      <trkpt lat="37.1768574603" lon="-3.5287585203">
        <ele>896.09</ele>
        <time>2020-09-06T06:57:47Z</time>
      </trkpt>
      <trkpt lat="37.1769006271" lon="-3.5287119169">
        <ele>896.09</ele>
        <time>2020-09-06T06:57:48Z</time>
      </trkpt>
      <trkpt lat="37.1769391000" lon="-3.5286531597">
        <ele>896.09</ele>
        <time>2020-09-06T06:57:49Z</time>
      </trkpt>
      <trkpt lat="37.1769631561" lon="-3.5285913851">
        <ele>896.09</ele>
        <time>2020-09-06T06:57:50Z</time>
      </trkpt>
      <trkpt lat="37.1769722924" lon="-3.5285167024">
        <ele>896.09</ele>
        <time>2020-09-06T06:57:51Z</time>
      </trkpt>
      <trkpt lat="37.1769691911" lon="-3.5284433607">
        <ele>896.09</ele>
        <time>2020-09-06T06:57:52Z</time>
      </trkpt>
      <trkpt lat="37.1769650839" lon="-3.5283698514">
        <ele>896.09</ele>
        <time>2020-09-06T06:57:53Z</time>
      </trkpt>
      <trkpt lat="37.1769712865" lon="-3.5282960907">
        <ele>896.09</ele>
        <time>2020-09-06T06:57:54Z</time>
      </trkpt>
      <trkpt lat="37.1769898944" lon="-3.5282272752">
        <ele>896.09</ele>
        <time>2020-09-06T06:57:55Z</time>
      </trkpt>
      <trkpt lat="37.1770224161" lon="-3.5281651653">
        <ele>896.09</ele>
        <time>2020-09-06T06:57:56Z</time>
      </trkpt>
      <trkpt lat="37.1770615596" lon="-3.5281080008">
        <ele>896.09</ele>
        <time>2020-09-06T06:57:57Z</time>
      </trkpt>
      <trkpt lat="37.1771005355" lon="-3.5280462261">
        <ele>896.09</ele>
        <time>2020-09-06T06:57:58Z</time>
      </trkpt>
      <trkpt lat="37.1771321353" lon="-3.5279819369">
        <ele>896.09</ele>
        <time>2020-09-06T06:57:59Z</time>
      </trkpt>
      <trkpt lat="37.1771569457" lon="-3.5279125348">
        <ele>896.09</ele>
        <time>2020-09-06T06:58:00Z</time>
      </trkpt>
      <trkpt lat="37.1771675069" lon="-3.5278371815">
        <ele>896.09</ele>
        <time>2020-09-06T06:58:01Z</time>
      </trkpt>
      <trkpt lat="37.1771657467" lon="-3.5277631693">
        <ele>896.09</ele>
        <time>2020-09-06T06:58:02Z</time>
      </trkpt>
      <trkpt lat="37.1771678422" lon="-3.5276893247">
        <ele>896.09</ele>
        <time>2020-09-06T06:58:03Z</time>
      </trkpt>
      <trkpt lat="37.1771848574" lon="-3.5276186652">
        <ele>896.09</ele>
        <time>2020-09-06T06:58:04Z</time>
      </trkpt>
      <trkpt lat="37.1772127692" lon="-3.5275545437">
        <ele>896.09</ele>
        <time>2020-09-06T06:58:05Z</time>
      </trkpt>
      <trkpt lat="37.1772450395" lon="-3.5274920985">
        <ele>896.09</ele>
        <time>2020-09-06T06:58:06Z</time>
      </trkpt>
      <trkpt lat="37.1772682574" lon="-3.5274335090">
        <ele>896.09</ele>
        <time>2020-09-06T06:58:07Z</time>
      </trkpt>
      <trkpt lat="37.1772761364" lon="-3.5273688845">
        <ele>897.53</ele>
        <time>2020-09-06T06:58:08Z</time>
      </trkpt>
      <trkpt lat="37.1772701852" lon="-3.5272967163">
        <ele>897.53</ele>
        <time>2020-09-06T06:58:09Z</time>
      </trkpt>
      <trkpt lat="37.1772157867" lon="-3.5269954707">
        <ele>897.53</ele>
        <time>2020-09-06T06:58:13Z</time>
      </trkpt>
      <trkpt lat="37.1772142779" lon="-3.5269216262">
        <ele>897.53</ele>
        <time>2020-09-06T06:58:14Z</time>
      </trkpt>
      <trkpt lat="37.1772188880" lon="-3.5268471949">
        <ele>897.53</ele>
        <time>2020-09-06T06:58:15Z</time>
      </trkpt>
      <trkpt lat="37.1772389207" lon="-3.5267795529">
        <ele>897.53</ele>
        <time>2020-09-06T06:58:16Z</time>
      </trkpt>
      <trkpt lat="37.1772809140" lon="-3.5267289262">
        <ele>897.53</ele>
        <time>2020-09-06T06:58:17Z</time>
      </trkpt>
      <trkpt lat="37.1773369890" lon="-3.5267085582">
        <ele>897.53</ele>
        <time>2020-09-06T06:58:18Z</time>
      </trkpt>
      <trkpt lat="37.1773974225" lon="-3.5267201252">
        <ele>897.53</ele>
        <time>2020-09-06T06:58:19Z</time>
      </trkpt>
      <trkpt lat="37.1774596162" lon="-3.5267513897">
        <ele>897.53</ele>
        <time>2020-09-06T06:58:20Z</time>
      </trkpt>
      <trkpt lat="37.1775238216" lon="-3.5267754458">
        <ele>897.53</ele>
        <time>2020-09-06T06:58:21Z</time>
      </trkpt>
      <trkpt lat="37.1775907930" lon="-3.5267746914">
        <ele>897.53</ele>
        <time>2020-09-06T06:58:22Z</time>
      </trkpt>
      <trkpt lat="37.1776554175" lon="-3.5267578438">
        <ele>897.53</ele>
        <time>2020-09-06T06:58:23Z</time>
      </trkpt>
      <trkpt lat="37.1777204610" lon="-3.5267320275">
        <ele>897.53</ele>
        <time>2020-09-06T06:58:24Z</time>
      </trkpt>
      <trkpt lat="37.1778507996" lon="-3.5266702529">
        <ele>897.53</ele>
        <time>2020-09-06T06:58:26Z</time>
      </trkpt>
      <trkpt lat="37.1780787874" lon="-3.5264901258">
        <ele>898.01</ele>
        <time>2020-09-06T06:58:30Z</time>
      </trkpt>
      <trkpt lat="37.1781433281" lon="-3.5264606215">
        <ele>898.01</ele>
        <time>2020-09-06T06:58:31Z</time>
      </trkpt>
      <trkpt lat="37.1782046836" lon="-3.5264266748">
        <ele>898.01</ele>
        <time>2020-09-06T06:58:32Z</time>
      </trkpt>
      <trkpt lat="37.1782498620" lon="-3.5263684206">
        <ele>898.01</ele>
        <time>2020-09-06T06:58:33Z</time>
      </trkpt>
      <trkpt lat="37.1782805398" lon="-3.5262966715">
        <ele>898.01</ele>
        <time>2020-09-06T06:58:34Z</time>
      </trkpt>
      <trkpt lat="37.1783048473" lon="-3.5262149479">
        <ele>898.01</ele>
        <time>2020-09-06T06:58:35Z</time>
      </trkpt>
      <trkpt lat="37.1783688851" lon="-3.5259805899">
        <ele>898.01</ele>
        <time>2020-09-06T06:58:38Z</time>
      </trkpt>
      <trkpt lat="37.1783691365" lon="-3.5259003751">
        <ele>898.01</ele>
        <time>2020-09-06T06:58:39Z</time>
      </trkpt>
      <trkpt lat="37.1783524565" lon="-3.5258228425">
        <ele>898.01</ele>
        <time>2020-09-06T06:58:40Z</time>
      </trkpt>
      <trkpt lat="37.1783232037" lon="-3.5257522669">
        <ele>898.01</ele>
        <time>2020-09-06T06:58:41Z</time>
      </trkpt>
      <trkpt lat="37.1782854013" lon="-3.5256833676">
        <ele>898.01</ele>
        <time>2020-09-06T06:58:42Z</time>
      </trkpt>
      <trkpt lat="37.1782544721" lon="-3.5256163962">
        <ele>898.01</ele>
        <time>2020-09-06T06:58:43Z</time>
      </trkpt>
      <trkpt lat="37.1782272309" lon="-3.5255435575">
        <ele>898.01</ele>
        <time>2020-09-06T06:58:44Z</time>
      </trkpt>
      <trkpt lat="37.1781722456" lon="-3.5253969580">
        <ele>898.01</ele>
        <time>2020-09-06T06:58:46Z</time>
      </trkpt>
      <trkpt lat="37.1781333536" lon="-3.5253314115">
        <ele>898.01</ele>
        <time>2020-09-06T06:58:47Z</time>
      </trkpt>
      <trkpt lat="37.1780513786" lon="-3.5252112150">
        <ele>898.01</ele>
        <time>2020-09-06T06:58:49Z</time>
      </trkpt>
      <trkpt lat="37.1779724211" lon="-3.5250951257">
        <ele>898.01</ele>
        <time>2020-09-06T06:58:51Z</time>
      </trkpt>
      <trkpt lat="37.1779586747" lon="-3.5250226222">
        <ele>898.49</ele>
        <time>2020-09-06T06:58:52Z</time>
      </trkpt>
      <trkpt lat="37.1779385582" lon="-3.5248699039">
        <ele>898.49</ele>
        <time>2020-09-06T06:58:54Z</time>
      </trkpt>
      <trkpt lat="37.1779185254" lon="-3.5248023458">
        <ele>898.49</ele>
        <time>2020-09-06T06:58:55Z</time>
      </trkpt>
      <trkpt lat="37.1779006720" lon="-3.5247388948">
        <ele>898.49</ele>
        <time>2020-09-06T06:58:56Z</time>
      </trkpt>
      <trkpt lat="37.1778912842" lon="-3.5246870108">
        <ele>898.49</ele>
        <time>2020-09-06T06:58:57Z</time>
      </trkpt>
      <trkpt lat="37.1778941341" lon="-3.5246404074">
        <ele>898.49</ele>
        <time>2020-09-06T06:58:58Z</time>
      </trkpt>
      <trkpt lat="37.1779139154" lon="-3.5246058740">
        <ele>898.49</ele>
        <time>2020-09-06T06:58:59Z</time>
      </trkpt>
      <trkpt lat="37.1779450960" lon="-3.5245929658">
        <ele>898.49</ele>
        <time>2020-09-06T06:59:00Z</time>
      </trkpt>
      <trkpt lat="37.1779805515" lon="-3.5246047005">
        <ele>898.49</ele>
        <time>2020-09-06T06:59:01Z</time>
      </trkpt>
      <trkpt lat="37.1780168451" lon="-3.5246383119">
        <ele>898.49</ele>
        <time>2020-09-06T06:59:02Z</time>
      </trkpt>
      <trkpt lat="37.1780577488" lon="-3.5246796347">
        <ele>898.49</ele>
        <time>2020-09-06T06:59:03Z</time>
      </trkpt>
      <trkpt lat="37.1781053580" lon="-3.5247207060">
        <ele>898.49</ele>
        <time>2020-09-06T06:59:04Z</time>
      </trkpt>
      <trkpt lat="37.1781528834" lon="-3.5247568320">
        <ele>898.49</ele>
        <time>2020-09-06T06:59:05Z</time>
      </trkpt>
      <trkpt lat="37.1782004926" lon="-3.5247884318">
        <ele>898.49</ele>
        <time>2020-09-06T06:59:06Z</time>
      </trkpt>
      <trkpt lat="37.1787268762" lon="-3.5250278190">
        <ele>898.49</ele>
        <time>2020-09-06T06:59:15Z</time>
      </trkpt>
      <trkpt lat="37.1787899919" lon="-3.5250349436">
        <ele>898.49</ele>
        <time>2020-09-06T06:59:16Z</time>
      </trkpt>
      <trkpt lat="37.1788509283" lon="-3.5250256397">
        <ele>898.49</ele>
        <time>2020-09-06T06:59:17Z</time>
      </trkpt>
      <trkpt lat="37.1789085120" lon="-3.5249983985">
        <ele>898.49</ele>
        <time>2020-09-06T06:59:18Z</time>
      </trkpt>
      <trkpt lat="37.1789593901" lon="-3.5249539744">
        <ele>898.49</ele>
        <time>2020-09-06T06:59:19Z</time>
      </trkpt>
      <trkpt lat="37.1789982822" lon="-3.5248956364">
        <ele>898.49</ele>
        <time>2020-09-06T06:59:20Z</time>
      </trkpt>
      <trkpt lat="37.1790308040" lon="-3.5248290841">
        <ele>898.49</ele>
        <time>2020-09-06T06:59:21Z</time>
      </trkpt>
      <trkpt lat="37.1790614817" lon="-3.5247584246">
        <ele>898.49</ele>
        <time>2020-09-06T06:59:22Z</time>
      </trkpt>
      <trkpt lat="37.1791292913" lon="-3.5246248171">
        <ele>898.49</ele>
        <time>2020-09-06T06:59:24Z</time>
      </trkpt>
      <trkpt lat="37.1791991964" lon="-3.5245036148">
        <ele>899.45</ele>
        <time>2020-09-06T06:59:26Z</time>
      </trkpt>
      <trkpt lat="37.1792105120" lon="-3.5244384874">
        <ele>899.45</ele>
        <time>2020-09-06T06:59:27Z</time>
      </trkpt>
      <trkpt lat="37.1792045608" lon="-3.5243691690">
        <ele>899.45</ele>
        <time>2020-09-06T06:59:28Z</time>
      </trkpt>
      <trkpt lat="37.1791639924" lon="-3.5241577774">
        <ele>899.45</ele>
        <time>2020-09-06T06:59:31Z</time>
      </trkpt>
      <trkpt lat="37.1791670099" lon="-3.5240881238">
        <ele>899.45</ele>
        <time>2020-09-06T06:59:32Z</time>
      </trkpt>
      <trkpt lat="37.1791912336" lon="-3.5240301210">
        <ele>899.45</ele>
        <time>2020-09-06T06:59:33Z</time>
      </trkpt>
      <trkpt lat="37.1792338137" lon="-3.5239952523">
        <ele>899.45</ele>
        <time>2020-09-06T06:59:34Z</time>
      </trkpt>
      <trkpt lat="37.1792860329" lon="-3.5239858646">
        <ele>899.45</ele>
        <time>2020-09-06T06:59:35Z</time>
      </trkpt>
      <trkpt lat="37.1793416049" lon="-3.5239855293">
        <ele>899.45</ele>
        <time>2020-09-06T06:59:36Z</time>
      </trkpt>
      <trkpt lat="37.1794359013" lon="-3.5239609703">
        <ele>899.45</ele>
        <time>2020-09-06T06:59:38Z</time>
      </trkpt>
      <trkpt lat="37.1794621367" lon="-3.5239188932">
        <ele>899.45</ele>
        <time>2020-09-06T06:59:39Z</time>
      </trkpt>
      <trkpt lat="37.1794674173" lon="-3.5238625668">
        <ele>899.45</ele>
        <time>2020-09-06T06:59:40Z</time>
      </trkpt>
      <trkpt lat="37.1794547606" lon="-3.5238035582">
        <ele>899.45</ele>
        <time>2020-09-06T06:59:41Z</time>
      </trkpt>
      <trkpt lat="37.1794328839" lon="-3.5237459745">
        <ele>899.45</ele>
        <time>2020-09-06T06:59:42Z</time>
      </trkpt>
      <trkpt lat="37.1793700196" lon="-3.5235629138">
        <ele>899.45</ele>
        <time>2020-09-06T06:59:45Z</time>
      </trkpt>
      <trkpt lat="37.1793603804" lon="-3.5234931763">
        <ele>899.45</ele>
        <time>2020-09-06T06:59:46Z</time>
      </trkpt>
      <trkpt lat="37.1793692652" lon="-3.5234265402">
        <ele>899.45</ele>
        <time>2020-09-06T06:59:47Z</time>
      </trkpt>
      <trkpt lat="37.1794032957" lon="-3.5233754106">
        <ele>899.45</ele>
        <time>2020-09-06T06:59:48Z</time>
      </trkpt>
      <trkpt lat="37.1794546768" lon="-3.5233551264">
        <ele>899.45</ele>
        <time>2020-09-06T06:59:49Z</time>
      </trkpt>
      <trkpt lat="37.1795080695" lon="-3.5233632568">
        <ele>899.93</ele>
        <time>2020-09-06T06:59:50Z</time>
      </trkpt>
      <trkpt lat="37.1795602888" lon="-3.5233813617">
        <ele>899.93</ele>
        <time>2020-09-06T06:59:51Z</time>
      </trkpt>
      <trkpt lat="37.1796169505" lon="-3.5233917553">
        <ele>899.93</ele>
        <time>2020-09-06T06:59:52Z</time>
      </trkpt>
      <trkpt lat="37.1796741989" lon="-3.5234000534">
        <ele>899.93</ele>
        <time>2020-09-06T06:59:53Z</time>
      </trkpt>
      <trkpt lat="37.1800303459" lon="-3.5234767478">
        <ele>899.93</ele>
        <time>2020-09-06T06:59:59Z</time>
      </trkpt>
      <trkpt lat="37.1800779551" lon="-3.5234585591">
        <ele>899.93</ele>
        <time>2020-09-06T07:00:00Z</time>
      </trkpt>
      <trkpt lat="37.1801031847" lon="-3.5234166496">
        <ele>899.93</ele>
        <time>2020-09-06T07:00:01Z</time>
      </trkpt>
      <trkpt lat="37.1801031008" lon="-3.5233640112">
        <ele>899.93</ele>
        <time>2020-09-06T07:00:02Z</time>
      </trkpt>
      <trkpt lat="37.1800839063" lon="-3.5233125463">
        <ele>899.93</ele>
        <time>2020-09-06T07:00:03Z</time>
      </trkpt>
      <trkpt lat="37.1800558269" lon="-3.5232625064">
        <ele>899.93</ele>
        <time>2020-09-06T07:00:04Z</time>
      </trkpt>
      <trkpt lat="37.1800256521" lon="-3.5232082754">
        <ele>899.93</ele>
        <time>2020-09-06T07:00:05Z</time>
      </trkpt>
      <trkpt lat="37.1800016798" lon="-3.5231475905">
        <ele>899.93</ele>
        <time>2020-09-06T07:00:06Z</time>
      </trkpt>
      <trkpt lat="37.1799445990" lon="-3.5229426529">
        <ele>899.93</ele>
        <time>2020-09-06T07:00:09Z</time>
      </trkpt>
      <trkpt lat="37.1799185313" lon="-3.5228795372">
        <ele>899.93</ele>
        <time>2020-09-06T07:00:10Z</time>
      </trkpt>
      <trkpt lat="37.1798979957" lon="-3.5228195228">
        <ele>899.93</ele>
        <time>2020-09-06T07:00:11Z</time>
      </trkpt>
      <trkpt lat="37.1799027734" lon="-3.5227615200">
        <ele>899.93</ele>
        <time>2020-09-06T07:00:12Z</time>
      </trkpt>
      <trkpt lat="37.1799329482" lon="-3.5227276571">
        <ele>899.93</ele>
        <time>2020-09-06T07:00:13Z</time>
      </trkpt>
      <trkpt lat="37.1799702477" lon="-3.5227258969">
        <ele>900.89</ele>
        <time>2020-09-06T07:00:14Z</time>
      </trkpt>
      <trkpt lat="37.1800067089" lon="-3.5227476060">
        <ele>900.89</ele>
        <time>2020-09-06T07:00:15Z</time>
      </trkpt>
      <trkpt lat="37.1800454333" lon="-3.5227766074">
        <ele>900.89</ele>
        <time>2020-09-06T07:00:16Z</time>
      </trkpt>
      <trkpt lat="37.1800873429" lon="-3.5228064470">
        <ele>900.89</ele>
        <time>2020-09-06T07:00:17Z</time>
      </trkpt>
      <trkpt lat="37.1801346168" lon="-3.5228274018">
        <ele>900.89</ele>
        <time>2020-09-06T07:00:18Z</time>
      </trkpt>
      <trkpt lat="37.1801828966" lon="-3.5228234623">
        <ele>900.89</ele>
        <time>2020-09-06T07:00:19Z</time>
      </trkpt>
      <trkpt lat="37.1802248899" lon="-3.5227913596">
        <ele>900.89</ele>
        <time>2020-09-06T07:00:20Z</time>
      </trkpt>
      <trkpt lat="37.1802618541" lon="-3.5227424931">
        <ele>900.89</ele>
        <time>2020-09-06T07:00:21Z</time>
      </trkpt>
      <trkpt lat="37.1802967228" lon="-3.5226861667">
        <ele>900.89</ele>
        <time>2020-09-06T07:00:22Z</time>
      </trkpt>
      <trkpt lat="37.1803748421" lon="-3.5225864220">
        <ele>900.89</ele>
        <time>2020-09-06T07:00:24Z</time>
      </trkpt>
      <trkpt lat="37.1804251336" lon="-3.5225540679">
        <ele>900.89</ele>
        <time>2020-09-06T07:00:25Z</time>
      </trkpt>
      <trkpt lat="37.1804843098" lon="-3.5225318559">
        <ele>900.89</ele>
        <time>2020-09-06T07:00:26Z</time>
      </trkpt>
      <trkpt lat="37.1808519401" lon="-3.5223978292">
        <ele>900.89</ele>
        <time>2020-09-06T07:00:32Z</time>
      </trkpt>
      <trkpt lat="37.1809021477" lon="-3.5223584343">
        <ele>900.89</ele>
        <time>2020-09-06T07:00:33Z</time>
      </trkpt>
      <trkpt lat="37.1809383575" lon="-3.5223030299">
        <ele>900.89</ele>
        <time>2020-09-06T07:00:34Z</time>
      </trkpt>
      <trkpt lat="37.1809526067" lon="-3.5222414229">
        <ele>900.89</ele>
        <time>2020-09-06T07:00:35Z</time>
      </trkpt>
      <trkpt lat="37.1809487510" lon="-3.5221773852">
        <ele>901.37</ele>
        <time>2020-09-06T07:00:36Z</time>
      </trkpt>
      <trkpt lat="37.1809305623" lon="-3.5221156105">
        <ele>901.37</ele>
        <time>2020-09-06T07:00:37Z</time>
      </trkpt>
      <trkpt lat="37.1809021477" lon="-3.5220562667">
        <ele>901.37</ele>
        <time>2020-09-06T07:00:38Z</time>
      </trkpt>
      <trkpt lat="37.1808707155" lon="-3.5220003594">
        <ele>901.37</ele>
        <time>2020-09-06T07:00:39Z</time>
      </trkpt>
      <trkpt lat="37.1808399539" lon="-3.5219485592">
        <ele>901.37</ele>
        <time>2020-09-06T07:00:40Z</time>
      </trkpt>
      <trkpt lat="37.1807302348" lon="-3.5217247624">
        <ele>903.78</ele>
        <time>2020-09-06T07:00:45Z</time>
      </trkpt>
      <trkpt lat="37.1807216015" lon="-3.5215795878">
        <ele>904.26</ele>
        <time>2020-09-06T07:00:48Z</time>
      </trkpt>
      <trkpt lat="37.1807381976" lon="-3.5215264466">
        <ele>904.26</ele>
        <time>2020-09-06T07:00:49Z</time>
      </trkpt>
      <trkpt lat="37.1807573922" lon="-3.5214693658">
        <ele>904.26</ele>
        <time>2020-09-06T07:00:50Z</time>
      </trkpt>
      <trkpt lat="37.1807680372" lon="-3.5214082617">
        <ele>904.26</ele>
        <time>2020-09-06T07:00:51Z</time>
      </trkpt>
      <trkpt lat="37.1807732340" lon="-3.5213427991">
        <ele>903.30</ele>
        <time>2020-09-06T07:00:52Z</time>
      </trkpt>
      <trkpt lat="37.1807707194" lon="-3.5212728940">
        <ele>902.82</ele>
        <time>2020-09-06T07:00:53Z</time>
      </trkpt>
      <trkpt lat="37.1807706356" lon="-3.5211992171">
        <ele>902.33</ele>
        <time>2020-09-06T07:00:54Z</time>
      </trkpt>
      <trkpt lat="37.1807922609" lon="-3.5211398732">
        <ele>901.85</ele>
        <time>2020-09-06T07:00:55Z</time>
      </trkpt>
      <trkpt lat="37.1808242798" lon="-3.5211166553">
        <ele>901.85</ele>
        <time>2020-09-06T07:00:56Z</time>
      </trkpt>
      <trkpt lat="37.1808550414" lon="-3.5211222712">
        <ele>901.85</ele>
        <time>2020-09-06T07:00:57Z</time>
      </trkpt>
      <trkpt lat="37.1808855515" lon="-3.5211427230">
        <ele>901.85</ele>
        <time>2020-09-06T07:00:58Z</time>
      </trkpt>
      <trkpt lat="37.1809148043" lon="-3.5211756639">
        <ele>901.85</ele>
        <time>2020-09-06T07:00:59Z</time>
      </trkpt>
      <trkpt lat="37.1809433028" lon="-3.5212102812">
        <ele>901.85</ele>
        <time>2020-09-06T07:01:00Z</time>
      </trkpt>
      <trkpt lat="37.1809763275" lon="-3.5212497599">
        <ele>901.85</ele>
        <time>2020-09-06T07:01:01Z</time>
      </trkpt>
      <trkpt lat="37.1810075920" lon="-3.5212995484">
        <ele>901.85</ele>
        <time>2020-09-06T07:01:02Z</time>
      </trkpt>
      <trkpt lat="37.1810350008" lon="-3.5213563778">
        <ele>902.82</ele>
        <time>2020-09-06T07:01:03Z</time>
      </trkpt>
      <trkpt lat="37.1810664330" lon="-3.5214122012">
        <ele>902.82</ele>
        <time>2020-09-06T07:01:04Z</time>
      </trkpt>
      <trkpt lat="37.1811080910" lon="-3.5214634985">
        <ele>902.82</ele>
        <time>2020-09-06T07:01:05Z</time>
      </trkpt>
      <trkpt lat="37.1811603941" lon="-3.5215038992">
        <ele>902.82</ele>
        <time>2020-09-06T07:01:06Z</time>
      </trkpt>
      <trkpt lat="37.1812256891" lon="-3.5215358343">
        <ele>902.82</ele>
        <time>2020-09-06T07:01:07Z</time>
      </trkpt>
      <trkpt lat="37.1812866256" lon="-3.5215589684">
        <ele>901.85</ele>
        <time>2020-09-06T07:01:08Z</time>
      </trkpt>
      <trkpt lat="37.1813535970" lon="-3.5215782467">
        <ele>901.85</ele>
        <time>2020-09-06T07:01:09Z</time>
      </trkpt>
      <trkpt lat="37.1814830136" lon="-3.5215997882">
        <ele>901.85</ele>
        <time>2020-09-06T07:01:11Z</time>
      </trkpt>
      <trkpt lat="37.1815444529" lon="-3.5215922445">
        <ele>901.85</ele>
        <time>2020-09-06T07:01:12Z</time>
      </trkpt>
      <trkpt lat="37.1816016175" lon="-3.5215666797">
        <ele>901.85</ele>
        <time>2020-09-06T07:01:13Z</time>
      </trkpt>
      <trkpt lat="37.1816566028" lon="-3.5215226747">
        <ele>901.85</ele>
        <time>2020-09-06T07:01:14Z</time>
      </trkpt>
      <trkpt lat="37.1817009430" lon="-3.5214739759">
        <ele>901.85</ele>
        <time>2020-09-06T07:01:15Z</time>
      </trkpt>
      <trkpt lat="37.1817477979" lon="-3.5214209184">
        <ele>901.85</ele>
        <time>2020-09-06T07:01:16Z</time>
      </trkpt>
      <trkpt lat="37.1818456147" lon="-3.5213248618">
        <ele>901.85</ele>
        <time>2020-09-06T07:01:18Z</time>
      </trkpt>
      <trkpt lat="37.1819476224" lon="-3.5212362651">
        <ele>901.85</ele>
        <time>2020-09-06T07:01:20Z</time>
      </trkpt>
      <trkpt lat="37.1819973271" lon="-3.5211809445">
        <ele>901.85</ele>
        <time>2020-09-06T07:01:21Z</time>
      </trkpt>
      <trkpt lat="37.1821004245" lon="-3.5210679565">
        <ele>901.85</ele>
        <time>2020-09-06T07:01:23Z</time>
      </trkpt>
      <trkpt lat="37.1821596846" lon="-3.5210169107">
        <ele>901.85</ele>
        <time>2020-09-06T07:01:24Z</time>
      </trkpt>
      <trkpt lat="37.1823345311" lon="-3.5208805371">
        <ele>901.85</ele>
        <time>2020-09-06T07:01:27Z</time>
      </trkpt>
      <trkpt lat="37.1823815536" lon="-3.5208317544">
        <ele>901.85</ele>
        <time>2020-09-06T07:01:28Z</time>
      </trkpt>
      <trkpt lat="37.1824224573" lon="-3.5207773559">
        <ele>901.85</ele>
        <time>2020-09-06T07:01:29Z</time>
      </trkpt>
      <trkpt lat="37.1824510396" lon="-3.5207149945">
        <ele>901.85</ele>
        <time>2020-09-06T07:01:30Z</time>
      </trkpt>
      <trkpt lat="37.1824597567" lon="-3.5206492804">
        <ele>901.85</ele>
        <time>2020-09-06T07:01:31Z</time>
      </trkpt>
      <trkpt lat="37.1824540570" lon="-3.5205790401">
        <ele>901.85</ele>
        <time>2020-09-06T07:01:32Z</time>
      </trkpt>
      <trkpt lat="37.1824398078" lon="-3.5205139965">
        <ele>901.85</ele>
        <time>2020-09-06T07:01:33Z</time>
      </trkpt>
      <trkpt lat="37.1824227087" lon="-3.5204492044">
        <ele>901.85</ele>
        <time>2020-09-06T07:01:34Z</time>
      </trkpt>
      <trkpt lat="37.1824155003" lon="-3.5203851666">
        <ele>901.85</ele>
        <time>2020-09-06T07:01:35Z</time>
      </trkpt>
      <trkpt lat="37.1824304201" lon="-3.5203271639">
        <ele>901.85</ele>
        <time>2020-09-06T07:01:36Z</time>
      </trkpt>
      <trkpt lat="37.1824647021" lon="-3.5202933010">
        <ele>901.85</ele>
        <time>2020-09-06T07:01:37Z</time>
      </trkpt>
      <trkpt lat="37.1825026721" lon="-3.5202807281">
        <ele>901.85</ele>
        <time>2020-09-06T07:01:38Z</time>
      </trkpt>
      <trkpt lat="37.1825358644" lon="-3.5202715918">
        <ele>901.85</ele>
        <time>2020-09-06T07:01:39Z</time>
      </trkpt>
      <trkpt lat="37.1826161630" lon="-3.5202254914">
        <ele>901.85</ele>
        <time>2020-09-06T07:01:42Z</time>
      </trkpt>
      <trkpt lat="37.1826570667" lon="-3.5201288480">
        <ele>901.85</ele>
        <time>2020-09-06T07:01:44Z</time>
      </trkpt>
      <trkpt lat="37.1826893371" lon="-3.5200696718">
        <ele>901.85</ele>
        <time>2020-09-06T07:01:45Z</time>
      </trkpt>
      <trkpt lat="37.1827309113" lon="-3.5200099088">
        <ele>901.37</ele>
        <time>2020-09-06T07:01:46Z</time>
      </trkpt>
      <trkpt lat="37.1827726532" lon="-3.5199640598">
        <ele>900.41</ele>
        <time>2020-09-06T07:01:47Z</time>
      </trkpt>
      <trkpt lat="37.1828184184" lon="-3.5199300293">
        <ele>899.45</ele>
        <time>2020-09-06T07:01:48Z</time>
      </trkpt>
      <trkpt lat="37.1828677878" lon="-3.5199227370">
        <ele>899.45</ele>
        <time>2020-09-06T07:01:49Z</time>
      </trkpt>
      <trkpt lat="37.1829167381" lon="-3.5199467093">
        <ele>898.97</ele>
        <time>2020-09-06T07:01:50Z</time>
      </trkpt>
      <trkpt lat="37.1829626709" lon="-3.5199889541">
        <ele>898.01</ele>
        <time>2020-09-06T07:01:51Z</time>
      </trkpt>
      <trkpt lat="37.1830069274" lon="-3.5200278461">
        <ele>896.57</ele>
        <time>2020-09-06T07:01:52Z</time>
      </trkpt>
      <trkpt lat="37.1830624994" lon="-3.5200555064">
        <ele>896.09</ele>
        <time>2020-09-06T07:01:53Z</time>
      </trkpt>
      <trkpt lat="37.1831127908" lon="-3.5200602841">
        <ele>896.09</ele>
        <time>2020-09-06T07:01:54Z</time>
      </trkpt>
      <trkpt lat="37.1831610706" lon="-3.5200523213">
        <ele>896.09</ele>
        <time>2020-09-06T07:01:55Z</time>
      </trkpt>
      <trkpt lat="37.1832031477" lon="-3.5200431012">
        <ele>896.09</ele>
        <time>2020-09-06T07:01:56Z</time>
      </trkpt>
      <trkpt lat="37.1832414530" lon="-3.5200449452">
        <ele>896.09</ele>
        <time>2020-09-06T07:01:57Z</time>
      </trkpt>
      <trkpt lat="37.1832746454" lon="-3.5200585239">
        <ele>897.53</ele>
        <time>2020-09-06T07:01:58Z</time>
      </trkpt>
      <trkpt lat="37.1832994558" lon="-3.5200788081">
        <ele>898.49</ele>
        <time>2020-09-06T07:01:59Z</time>
      </trkpt>
      <trkpt lat="37.1833178122" lon="-3.5201058816">
        <ele>898.97</ele>
        <time>2020-09-06T07:02:00Z</time>
      </trkpt>
      <trkpt lat="37.1833344083" lon="-3.5201327037">
        <ele>899.45</ele>
        <time>2020-09-06T07:02:01Z</time>
      </trkpt>
      <trkpt lat="37.1833884716" lon="-3.5201969929">
        <ele>900.89</ele>
        <time>2020-09-06T07:02:04Z</time>
      </trkpt>
      <trkpt lat="37.1834939998" lon="-3.5202428419">
        <ele>902.82</ele>
        <time>2020-09-06T07:02:08Z</time>
      </trkpt>
      <trkpt lat="37.1835679282" lon="-3.5202629585">
        <ele>903.78</ele>
        <time>2020-09-06T07:02:11Z</time>
      </trkpt>
      <trkpt lat="37.1837394219" lon="-3.5203217994">
        <ele>907.62</ele>
        <time>2020-09-06T07:02:19Z</time>
      </trkpt>
      <trkpt lat="37.1839738637" lon="-3.5204176884">
        <ele>910.51</ele>
        <time>2020-09-06T07:02:29Z</time>
      </trkpt>
      <trkpt lat="37.1840238199" lon="-3.5204083007">
        <ele>911.47</ele>
        <time>2020-09-06T07:02:31Z</time>
      </trkpt>
      <trkpt lat="37.1840384882" lon="-3.5203899443">
        <ele>911.95</ele>
        <time>2020-09-06T07:02:32Z</time>
      </trkpt>
      <trkpt lat="37.1840467025" lon="-3.5203638766">
        <ele>911.95</ele>
        <time>2020-09-06T07:02:33Z</time>
      </trkpt>
      <trkpt lat="37.1840503067" lon="-3.5203358810">
        <ele>912.43</ele>
        <time>2020-09-06T07:02:34Z</time>
      </trkpt>
      <trkpt lat="37.1840497199" lon="-3.5203123279">
        <ele>912.43</ele>
        <time>2020-09-06T07:02:35Z</time>
      </trkpt>
      <trkpt lat="37.1840479597" lon="-3.5202918760">
        <ele>913.39</ele>
        <time>2020-09-06T07:02:36Z</time>
      </trkpt>
      <trkpt lat="37.1840451937" lon="-3.5202716757">
        <ele>913.87</ele>
        <time>2020-09-06T07:02:37Z</time>
      </trkpt>
      <trkpt lat="37.1840433497" lon="-3.5202498827">
        <ele>914.35</ele>
        <time>2020-09-06T07:02:38Z</time>
      </trkpt>
      <trkpt lat="37.1840429306" lon="-3.5202290956">
        <ele>914.83</ele>
        <time>2020-09-06T07:02:39Z</time>
      </trkpt>
      <trkpt lat="37.1840433497" lon="-3.5202077217">
        <ele>914.83</ele>
        <time>2020-09-06T07:02:40Z</time>
      </trkpt>
      <trkpt lat="37.1840440203" lon="-3.5201845877">
        <ele>915.31</ele>
        <time>2020-09-06T07:02:41Z</time>
      </trkpt>
      <trkpt lat="37.1840439364" lon="-3.5201603640">
        <ele>915.79</ele>
        <time>2020-09-06T07:02:42Z</time>
      </trkpt>
      <trkpt lat="37.1840470377" lon="-3.5201361403">
        <ele>915.79</ele>
        <time>2020-09-06T07:02:43Z</time>
      </trkpt>
      <trkpt lat="37.1840496361" lon="-3.5201124195">
        <ele>916.27</ele>
        <time>2020-09-06T07:02:44Z</time>
      </trkpt>
      <trkpt lat="37.1840501390" lon="-3.5200892016">
        <ele>916.75</ele>
        <time>2020-09-06T07:02:45Z</time>
      </trkpt>
      <trkpt lat="37.1840513125" lon="-3.5200666543">
        <ele>917.24</ele>
        <time>2020-09-06T07:02:46Z</time>
      </trkpt>
      <trkpt lat="37.1840548329" lon="-3.5200467054">
        <ele>917.72</ele>
        <time>2020-09-06T07:02:47Z</time>
      </trkpt>
      <trkpt lat="37.1840611193" lon="-3.5200233199">
        <ele>917.72</ele>
        <time>2020-09-06T07:02:48Z</time>
      </trkpt>
      <trkpt lat="37.1840684954" lon="-3.5199985933">
        <ele>918.20</ele>
        <time>2020-09-06T07:02:49Z</time>
      </trkpt>
      <trkpt lat="37.1840793081" lon="-3.5199759621">
        <ele>918.20</ele>
        <time>2020-09-06T07:02:50Z</time>
      </trkpt>
      <trkpt lat="37.1840948146" lon="-3.5199576896">
        <ele>919.16</ele>
        <time>2020-09-06T07:02:51Z</time>
      </trkpt>
      <trkpt lat="37.1841101535" lon="-3.5199424345">
        <ele>919.16</ele>
        <time>2020-09-06T07:02:52Z</time>
      </trkpt>
      <trkpt lat="37.1841230616" lon="-3.5199259222">
        <ele>919.16</ele>
        <time>2020-09-06T07:02:53Z</time>
      </trkpt>
      <trkpt lat="37.1841309406" lon="-3.5199060570">
        <ele>919.64</ele>
        <time>2020-09-06T07:02:54Z</time>
      </trkpt>
      <trkpt lat="37.1841337066" lon="-3.5198798217">
        <ele>920.12</ele>
        <time>2020-09-06T07:02:55Z</time>
      </trkpt>
      <trkpt lat="37.1841402445" lon="-3.5198493116">
        <ele>920.12</ele>
        <time>2020-09-06T07:02:56Z</time>
      </trkpt>
      <trkpt lat="37.1841425914" lon="-3.5198165383">
        <ele>920.60</ele>
        <time>2020-09-06T07:02:57Z</time>
      </trkpt>
      <trkpt lat="37.1841409151" lon="-3.5197792388">
        <ele>920.12</ele>
        <time>2020-09-06T07:02:58Z</time>
      </trkpt>
      <trkpt lat="37.1841362212" lon="-3.5197373293">
        <ele>920.12</ele>
        <time>2020-09-06T07:02:59Z</time>
      </trkpt>
      <trkpt lat="37.1841108240" lon="-3.5189519450">
        <ele>919.16</ele>
        <time>2020-09-06T07:03:12Z</time>
      </trkpt>
      <trkpt lat="37.1841229778" lon="-3.5188826267">
        <ele>919.16</ele>
        <time>2020-09-06T07:03:13Z</time>
      </trkpt>
      <trkpt lat="37.1841444355" lon="-3.5188159067">
        <ele>919.16</ele>
        <time>2020-09-06T07:03:14Z</time>
      </trkpt>
      <trkpt lat="37.1844310127" lon="-3.5180898663">
        <ele>918.68</ele>
        <time>2020-09-06T07:03:25Z</time>
      </trkpt>
      <trkpt lat="37.1845146641" lon="-3.5179541633">
        <ele>917.72</ele>
        <time>2020-09-06T07:03:27Z</time>
      </trkpt>
      <trkpt lat="37.1845940407" lon="-3.5178306978">
        <ele>916.75</ele>
        <time>2020-09-06T07:03:29Z</time>
      </trkpt>
      <trkpt lat="37.1846015844" lon="-3.5177679174">
        <ele>915.79</ele>
        <time>2020-09-06T07:03:30Z</time>
      </trkpt>
      <trkpt lat="37.1845947951" lon="-3.5177115072">
        <ele>915.79</ele>
        <time>2020-09-06T07:03:31Z</time>
      </trkpt>
      <trkpt lat="37.1845880058" lon="-3.5176581144">
        <ele>915.79</ele>
        <time>2020-09-06T07:03:32Z</time>
      </trkpt>
      <trkpt lat="37.1845921129" lon="-3.5176085774">
        <ele>915.79</ele>
        <time>2020-09-06T07:03:33Z</time>
      </trkpt>
      <trkpt lat="37.1846064460" lon="-3.5175601300">
        <ele>917.24</ele>
        <time>2020-09-06T07:03:34Z</time>
      </trkpt>
      <trkpt lat="37.1846212819" lon="-3.5175112635">
        <ele>917.72</ele>
        <time>2020-09-06T07:03:35Z</time>
      </trkpt>
      <trkpt lat="37.1846352797" lon="-3.5174663365">
        <ele>917.72</ele>
        <time>2020-09-06T07:03:36Z</time>
      </trkpt>
      <trkpt lat="37.1846426558" lon="-3.5174220800">
        <ele>918.68</ele>
        <time>2020-09-06T07:03:37Z</time>
      </trkpt>
      <trkpt lat="37.1846462600" lon="-3.5173800867">
        <ele>918.68</ele>
        <time>2020-09-06T07:03:38Z</time>
      </trkpt>
      <trkpt lat="37.1846529655" lon="-3.5173404403">
        <ele>919.16</ele>
        <time>2020-09-06T07:03:39Z</time>
      </trkpt>
      <trkpt lat="37.1846639458" lon="-3.5172987822">
        <ele>919.64</ele>
        <time>2020-09-06T07:03:40Z</time>
      </trkpt>
      <trkpt lat="37.1846781950" lon="-3.5172616504">
        <ele>920.12</ele>
        <time>2020-09-06T07:03:41Z</time>
      </trkpt>
      <trkpt lat="37.1846975572" lon="-3.5172245186">
        <ele>919.64</ele>
        <time>2020-09-06T07:03:42Z</time>
      </trkpt>
      <trkpt lat="37.1847160812" lon="-3.5171924159">
        <ele>920.60</ele>
        <time>2020-09-06T07:03:43Z</time>
      </trkpt>
      <trkpt lat="37.1847351082" lon="-3.5171624087">
        <ele>921.08</ele>
        <time>2020-09-06T07:03:44Z</time>
      </trkpt>
      <trkpt lat="37.1848744992" lon="-3.5166958719">
        <ele>923.00</ele>
        <time>2020-09-06T07:03:56Z</time>
      </trkpt>
      <trkpt lat="37.1848975495" lon="-3.5166368634">
        <ele>923.96</ele>
        <time>2020-09-06T07:03:58Z</time>
      </trkpt>
      <trkpt lat="37.1850029100" lon="-3.5164767690">
        <ele>926.85</ele>
        <time>2020-09-06T07:04:05Z</time>
      </trkpt>
      <trkpt lat="37.1852097753" lon="-3.5161863361">
        <ele>930.21</ele>
        <time>2020-09-06T07:04:17Z</time>
      </trkpt>
      <trkpt lat="37.1854514256" lon="-3.5156761296">
        <ele>932.14</ele>
        <time>2020-09-06T07:04:32Z</time>
      </trkpt>
      <trkpt lat="37.1854946762" lon="-3.5155831743">
        <ele>932.14</ele>
        <time>2020-09-06T07:04:34Z</time>
      </trkpt>
      <trkpt lat="37.1855241805" lon="-3.5155374929">
        <ele>932.14</ele>
        <time>2020-09-06T07:04:35Z</time>
      </trkpt>
      <trkpt lat="37.1855551936" lon="-3.5155011993">
        <ele>932.14</ele>
        <time>2020-09-06T07:04:36Z</time>
      </trkpt>
      <trkpt lat="37.1855930798" lon="-3.5154668335">
        <ele>932.14</ele>
        <time>2020-09-06T07:04:37Z</time>
      </trkpt>
      <trkpt lat="37.1856310498" lon="-3.5154375806">
        <ele>932.14</ele>
        <time>2020-09-06T07:04:38Z</time>
      </trkpt>
      <trkpt lat="37.1856714506" lon="-3.5154124349">
        <ele>933.10</ele>
        <time>2020-09-06T07:04:39Z</time>
      </trkpt>
      <trkpt lat="37.1858414356" lon="-3.5153119359">
        <ele>933.10</ele>
        <time>2020-09-06T07:04:43Z</time>
      </trkpt>
      <trkpt lat="37.1858703531" lon="-3.5152569506">
        <ele>933.10</ele>
        <time>2020-09-06T07:04:44Z</time>
      </trkpt>
      <trkpt lat="37.1858869493" lon="-3.5152027197">
        <ele>933.10</ele>
        <time>2020-09-06T07:04:45Z</time>
      </trkpt>
      <trkpt lat="37.1859007794" lon="-3.5151533503">
        <ele>933.10</ele>
        <time>2020-09-06T07:04:46Z</time>
      </trkpt>
      <trkpt lat="37.1859084908" lon="-3.5151124466">
        <ele>933.58</ele>
        <time>2020-09-06T07:04:47Z</time>
      </trkpt>
      <trkpt lat="37.1859163698" lon="-3.5150779970">
        <ele>933.58</ele>
        <time>2020-09-06T07:04:48Z</time>
      </trkpt>
      <trkpt lat="37.1859283559" lon="-3.5150481574">
        <ele>934.54</ele>
        <time>2020-09-06T07:04:49Z</time>
      </trkpt>
      <trkpt lat="37.1859411802" lon="-3.5150188208">
        <ele>935.50</ele>
        <time>2020-09-06T07:04:50Z</time>
      </trkpt>
      <trkpt lat="37.1859494783" lon="-3.5149909928">
        <ele>935.50</ele>
        <time>2020-09-06T07:04:51Z</time>
      </trkpt>
      <trkpt lat="37.1859570220" lon="-3.5149617400">
        <ele>935.98</ele>
        <time>2020-09-06T07:04:52Z</time>
      </trkpt>
      <trkpt lat="37.1861066390" lon="-3.5144395474">
        <ele>938.86</ele>
        <time>2020-09-06T07:05:05Z</time>
      </trkpt>
      <trkpt lat="37.1863605268" lon="-3.5138042830">
        <ele>942.23</ele>
        <time>2020-09-06T07:05:19Z</time>
      </trkpt>
      <trkpt lat="37.1864611097" lon="-3.5136425961">
        <ele>943.19</ele>
        <time>2020-09-06T07:05:24Z</time>
      </trkpt>
      <trkpt lat="37.1866222937" lon="-3.5133006144">
        <ele>944.15</ele>
        <time>2020-09-06T07:05:32Z</time>
      </trkpt>
      <trkpt lat="37.1866605151" lon="-3.5132461321">
        <ele>944.15</ele>
        <time>2020-09-06T07:05:33Z</time>
      </trkpt>
      <trkpt lat="37.1867077891" lon="-3.5131963436">
        <ele>942.71</ele>
        <time>2020-09-06T07:05:34Z</time>
      </trkpt>
      <trkpt lat="37.1867651213" lon="-3.5131556075">
        <ele>942.71</ele>
        <time>2020-09-06T07:05:35Z</time>
      </trkpt>
      <trkpt lat="37.1868254710" lon="-3.5131162126">
        <ele>941.75</ele>
        <time>2020-09-06T07:05:36Z</time>
      </trkpt>
      <trkpt lat="37.1868869103" lon="-3.5130655859">
        <ele>940.79</ele>
        <time>2020-09-06T07:05:37Z</time>
      </trkpt>
      <trkpt lat="37.1869392972" lon="-3.5129963513">
        <ele>940.31</ele>
        <time>2020-09-06T07:05:38Z</time>
      </trkpt>
      <trkpt lat="37.1869653650" lon="-3.5129176453">
        <ele>939.83</ele>
        <time>2020-09-06T07:05:39Z</time>
      </trkpt>
      <trkpt lat="37.1869817097" lon="-3.5128476564">
        <ele>939.83</ele>
        <time>2020-09-06T07:05:40Z</time>
      </trkpt>
      <trkpt lat="37.1869973838" lon="-3.5127941798">
        <ele>939.83</ele>
        <time>2020-09-06T07:05:41Z</time>
      </trkpt>
      <trkpt lat="37.1870175842" lon="-3.5127425473">
        <ele>941.27</ele>
        <time>2020-09-06T07:05:42Z</time>
      </trkpt>
      <trkpt lat="37.1870394610" lon="-3.5126950219">
        <ele>941.75</ele>
        <time>2020-09-06T07:05:43Z</time>
      </trkpt>
      <trkpt lat="37.1871458273" lon="-3.5124926828">
        <ele>943.67</ele>
        <time>2020-09-06T07:05:48Z</time>
      </trkpt>
      <trkpt lat="37.1873674449" lon="-3.5119518824">
        <ele>947.04</ele>
        <time>2020-09-06T07:06:01Z</time>
      </trkpt>
      <trkpt lat="37.1874259505" lon="-3.5117435921">
        <ele>947.04</ele>
        <time>2020-09-06T07:06:05Z</time>
      </trkpt>
      <trkpt lat="37.1874370147" lon="-3.5116907023">
        <ele>947.52</ele>
        <time>2020-09-06T07:06:06Z</time>
      </trkpt>
      <trkpt lat="37.1874507610" lon="-3.5116388183">
        <ele>947.52</ele>
        <time>2020-09-06T07:06:07Z</time>
      </trkpt>
      <trkpt lat="37.1874681953" lon="-3.5115897842">
        <ele>947.52</ele>
        <time>2020-09-06T07:06:08Z</time>
      </trkpt>
      <trkpt lat="37.1874882281" lon="-3.5115423426">
        <ele>948.00</ele>
        <time>2020-09-06T07:06:09Z</time>
      </trkpt>
      <trkpt lat="37.1875995398" lon="-3.5111619718">
        <ele>948.48</ele>
        <time>2020-09-06T07:06:16Z</time>
      </trkpt>
      <trkpt lat="37.1876242664" lon="-3.5111145303">
        <ele>948.48</ele>
        <time>2020-09-06T07:06:17Z</time>
      </trkpt>
      <trkpt lat="37.1876565367" lon="-3.5110750515">
        <ele>948.48</ele>
        <time>2020-09-06T07:06:18Z</time>
      </trkpt>
      <trkpt lat="37.1876955964" lon="-3.5110430326">
        <ele>948.48</ele>
        <time>2020-09-06T07:06:19Z</time>
      </trkpt>
      <trkpt lat="37.1877323091" lon="-3.5110041406">
        <ele>948.48</ele>
        <time>2020-09-06T07:06:20Z</time>
      </trkpt>
      <trkpt lat="37.1877579577" lon="-3.5109492391">
        <ele>948.48</ele>
        <time>2020-09-06T07:06:21Z</time>
      </trkpt>
      <trkpt lat="37.1877691895" lon="-3.5108875483">
        <ele>948.48</ele>
        <time>2020-09-06T07:06:22Z</time>
      </trkpt>
      <trkpt lat="37.1877669264" lon="-3.5108266119">
        <ele>948.48</ele>
        <time>2020-09-06T07:06:23Z</time>
      </trkpt>
      <trkpt lat="37.1877549402" lon="-3.5107704531">
        <ele>948.96</ele>
        <time>2020-09-06T07:06:24Z</time>
      </trkpt>
      <trkpt lat="37.1877485700" lon="-3.5107151326">
        <ele>948.48</ele>
        <time>2020-09-06T07:06:25Z</time>
      </trkpt>
      <trkpt lat="37.1877546050" lon="-3.5106636677">
        <ele>948.96</ele>
        <time>2020-09-06T07:06:26Z</time>
      </trkpt>
      <trkpt lat="37.1877612267" lon="-3.5106140468">
        <ele>948.96</ele>
        <time>2020-09-06T07:06:27Z</time>
      </trkpt>
      <trkpt lat="37.1877672616" lon="-3.5105666891">
        <ele>949.44</ele>
        <time>2020-09-06T07:06:28Z</time>
      </trkpt>
      <trkpt lat="37.1879064851" lon="-3.5102424771">
        <ele>953.77</ele>
        <time>2020-09-06T07:06:37Z</time>
      </trkpt>
      <trkpt lat="37.1880799066" lon="-3.5099630244">
        <ele>957.13</ele>
        <time>2020-09-06T07:06:47Z</time>
      </trkpt>
      <trkpt lat="37.1882914659" lon="-3.5096525587">
        <ele>960.49</ele>
        <time>2020-09-06T07:06:59Z</time>
      </trkpt>
      <trkpt lat="37.1884332877" lon="-3.5093855951">
        <ele>963.86</ele>
        <time>2020-09-06T07:07:09Z</time>
      </trkpt>
      <trkpt lat="37.1885676496" lon="-3.5089278594">
        <ele>965.30</ele>
        <time>2020-09-06T07:07:21Z</time>
      </trkpt>
      <trkpt lat="37.1885494608" lon="-3.5087686870">
        <ele>965.30</ele>
        <time>2020-09-06T07:07:24Z</time>
      </trkpt>
      <trkpt lat="37.1885544900" lon="-3.5086498316">
        <ele>964.34</ele>
        <time>2020-09-06T07:07:26Z</time>
      </trkpt>
      <trkpt lat="37.1885656379" lon="-3.5085872188">
        <ele>963.86</ele>
        <time>2020-09-06T07:07:27Z</time>
      </trkpt>
      <trkpt lat="37.1885816474" lon="-3.5085215885">
        <ele>963.38</ele>
        <time>2020-09-06T07:07:28Z</time>
      </trkpt>
      <trkpt lat="37.1886177734" lon="-3.5083925910">
        <ele>962.90</ele>
        <time>2020-09-06T07:07:30Z</time>
      </trkpt>
      <trkpt lat="37.1886294242" lon="-3.5083210096">
        <ele>962.90</ele>
        <time>2020-09-06T07:07:31Z</time>
      </trkpt>
      <trkpt lat="37.1886854991" lon="-3.5080242902">
        <ele>962.42</ele>
        <time>2020-09-06T07:07:35Z</time>
      </trkpt>
      <trkpt lat="37.1887252294" lon="-3.5079537146">
        <ele>961.46</ele>
        <time>2020-09-06T07:07:36Z</time>
      </trkpt>
      <trkpt lat="37.1887716651" lon="-3.5078996513">
        <ele>961.46</ele>
        <time>2020-09-06T07:07:37Z</time>
      </trkpt>
      <trkpt lat="37.1889185999" lon="-3.5077804606">
        <ele>961.46</ele>
        <time>2020-09-06T07:07:40Z</time>
      </trkpt>
      <trkpt lat="37.1889661252" lon="-3.5077513754">
        <ele>961.46</ele>
        <time>2020-09-06T07:07:41Z</time>
      </trkpt>
      <trkpt lat="37.1890506148" lon="-3.5076876730">
        <ele>961.46</ele>
        <time>2020-09-06T07:07:43Z</time>
      </trkpt>
      <trkpt lat="37.1891677100" lon="-3.5076165106">
        <ele>962.90</ele>
        <time>2020-09-06T07:07:46Z</time>
      </trkpt>
      <trkpt lat="37.1892055124" lon="-3.5075909458">
        <ele>963.38</ele>
        <time>2020-09-06T07:07:47Z</time>
      </trkpt>
      <trkpt lat="37.1892459132" lon="-3.5075735115">
        <ele>963.86</ele>
        <time>2020-09-06T07:07:48Z</time>
      </trkpt>
      <trkpt lat="37.1895056684" lon="-3.5074334498">
        <ele>964.82</ele>
        <time>2020-09-06T07:07:55Z</time>
      </trkpt>
      <trkpt lat="37.1895337477" lon="-3.5073791351">
        <ele>964.82</ele>
        <time>2020-09-06T07:07:56Z</time>
      </trkpt>
      <trkpt lat="37.1895461529" lon="-3.5073236469">
        <ele>964.82</ele>
        <time>2020-09-06T07:07:57Z</time>
      </trkpt>
      <trkpt lat="37.1895421296" lon="-3.5072715115">
        <ele>964.82</ele>
        <time>2020-09-06T07:07:58Z</time>
      </trkpt>
      <trkpt lat="37.1895238571" lon="-3.5072321165">
        <ele>964.82</ele>
        <time>2020-09-06T07:07:59Z</time>
      </trkpt>
      <trkpt lat="37.1894987114" lon="-3.5072051268">
        <ele>964.82</ele>
        <time>2020-09-06T07:08:00Z</time>
      </trkpt>
      <trkpt lat="37.1894774213" lon="-3.5071772151">
        <ele>964.82</ele>
        <time>2020-09-06T07:08:01Z</time>
      </trkpt>
      <trkpt lat="37.1894645970" lon="-3.5071388260">
        <ele>964.82</ele>
        <time>2020-09-06T07:08:02Z</time>
      </trkpt>
      <trkpt lat="37.1894565504" lon="-3.5071004368">
        <ele>965.78</ele>
        <time>2020-09-06T07:08:03Z</time>
      </trkpt>
      <trkpt lat="37.1894522756" lon="-3.5070639756">
        <ele>966.26</ele>
        <time>2020-09-06T07:08:04Z</time>
      </trkpt>
      <trkpt lat="37.1894469112" lon="-3.5070229881">
        <ele>966.74</ele>
        <time>2020-09-06T07:08:05Z</time>
      </trkpt>
      <trkpt lat="37.1894412115" lon="-3.5069783125">
        <ele>966.74</ele>
        <time>2020-09-06T07:08:06Z</time>
      </trkpt>
      <trkpt lat="37.1894027386" lon="-3.5064026434">
        <ele>969.15</ele>
        <time>2020-09-06T07:08:17Z</time>
      </trkpt>
      <trkpt lat="37.1894115396" lon="-3.5063473228">
        <ele>970.11</ele>
        <time>2020-09-06T07:08:18Z</time>
      </trkpt>
      <trkpt lat="37.1894239448" lon="-3.5062993784">
        <ele>970.11</ele>
        <time>2020-09-06T07:08:19Z</time>
      </trkpt>
      <trkpt lat="37.1894399542" lon="-3.5062485840">
        <ele>970.11</ele>
        <time>2020-09-06T07:08:20Z</time>
      </trkpt>
      <trkpt lat="37.1894583106" lon="-3.5061972030">
        <ele>970.11</ele>
        <time>2020-09-06T07:08:21Z</time>
      </trkpt>
      <trkpt lat="37.1896088496" lon="-3.5057367012">
        <ele>972.99</ele>
        <time>2020-09-06T07:08:32Z</time>
      </trkpt>
      <trkpt lat="37.1897261124" lon="-3.5053363815">
        <ele>976.36</ele>
        <time>2020-09-06T07:08:43Z</time>
      </trkpt>
      <trkpt lat="37.1898132004" lon="-3.5049135983">
        <ele>979.72</ele>
        <time>2020-09-06T07:08:55Z</time>
      </trkpt>
      <trkpt lat="37.1898902301" lon="-3.5044929944">
        <ele>982.12</ele>
        <time>2020-09-06T07:09:06Z</time>
      </trkpt>
      <trkpt lat="37.1900056489" lon="-3.5040643439">
        <ele>985.01</ele>
        <time>2020-09-06T07:09:18Z</time>
      </trkpt>
      <trkpt lat="37.1901608817" lon="-3.5036137328">
        <ele>987.41</ele>
        <time>2020-09-06T07:09:30Z</time>
      </trkpt>
      <trkpt lat="37.1901530027" lon="-3.5035652854">
        <ele>987.41</ele>
        <time>2020-09-06T07:09:31Z</time>
      </trkpt>
      <trkpt lat="37.1901303716" lon="-3.5035307519">
        <ele>987.41</ele>
        <time>2020-09-06T07:09:32Z</time>
      </trkpt>
      <trkpt lat="37.1900985204" lon="-3.5035093781">
        <ele>987.89</ele>
        <time>2020-09-06T07:09:33Z</time>
      </trkpt>
      <trkpt lat="37.1900587063" lon="-3.5034978110">
        <ele>988.37</ele>
        <time>2020-09-06T07:09:34Z</time>
      </trkpt>
      <trkpt lat="37.1900131926" lon="-3.5034910217">
        <ele>988.37</ele>
        <time>2020-09-06T07:09:35Z</time>
      </trkpt>
      <trkpt lat="37.1899439581" lon="-3.5034758504">
        <ele>987.41</ele>
        <time>2020-09-06T07:09:42Z</time>
      </trkpt>
      <trkpt lat="37.1899589617" lon="-3.5034759343">
        <ele>987.41</ele>
        <time>2020-09-06T07:09:45Z</time>
      </trkpt>
      <trkpt lat="37.1899727918" lon="-3.5034742579">
        <ele>987.41</ele>
        <time>2020-09-06T07:09:46Z</time>
      </trkpt>
      <trkpt lat="37.1901526675" lon="-3.5035372060">
        <ele>987.89</ele>
        <time>2020-09-06T07:09:55Z</time>
      </trkpt>
      <trkpt lat="37.1901723649" lon="-3.5035792831">
        <ele>987.89</ele>
        <time>2020-09-06T07:09:56Z</time>
      </trkpt>
      <trkpt lat="37.1901778970" lon="-3.5036324244">
        <ele>987.89</ele>
        <time>2020-09-06T07:09:57Z</time>
      </trkpt>
      <trkpt lat="37.1901699342" lon="-3.5036822129">
        <ele>987.89</ele>
        <time>2020-09-06T07:09:58Z</time>
      </trkpt>
      <trkpt lat="37.1901576966" lon="-3.5037260503">
        <ele>987.89</ele>
        <time>2020-09-06T07:09:59Z</time>
      </trkpt>
      <trkpt lat="37.1899629850" lon="-3.5042427108">
        <ele>985.01</ele>
        <time>2020-09-06T07:10:09Z</time>
      </trkpt>
      <trkpt lat="37.1899522562" lon="-3.5042948462">
        <ele>985.01</ele>
        <time>2020-09-06T07:10:10Z</time>
      </trkpt>
      <trkpt lat="37.1899170522" lon="-3.5044709500">
        <ele>984.53</ele>
        <time>2020-09-06T07:10:13Z</time>
      </trkpt>
      <trkpt lat="37.1898583788" lon="-3.5046737920">
        <ele>983.09</ele>
        <time>2020-09-06T07:10:16Z</time>
      </trkpt>
      <trkpt lat="37.1898509189" lon="-3.5047433618">
        <ele>981.64</ele>
        <time>2020-09-06T07:10:17Z</time>
      </trkpt>
      <trkpt lat="37.1898480691" lon="-3.5048096627">
        <ele>981.16</ele>
        <time>2020-09-06T07:10:18Z</time>
      </trkpt>
      <trkpt lat="37.1898414474" lon="-3.5048695933">
        <ele>981.16</ele>
        <time>2020-09-06T07:10:19Z</time>
      </trkpt>
      <trkpt lat="37.1898326464" lon="-3.5049229860">
        <ele>980.68</ele>
        <time>2020-09-06T07:10:20Z</time>
      </trkpt>
      <trkpt lat="37.1898234263" lon="-3.5049720202">
        <ele>980.20</ele>
        <time>2020-09-06T07:10:21Z</time>
      </trkpt>
      <trkpt lat="37.1898290422" lon="-3.5050789732">
        <ele>979.72</ele>
        <time>2020-09-06T07:10:24Z</time>
      </trkpt>
      <trkpt lat="37.1898403578" lon="-3.5051013529">
        <ele>979.72</ele>
        <time>2020-09-06T07:10:25Z</time>
      </trkpt>
      <trkpt lat="37.1898709517" lon="-3.5051409993">
        <ele>979.24</ele>
        <time>2020-09-06T07:10:27Z</time>
      </trkpt>
      <trkpt lat="37.1898970194" lon="-3.5051513929">
        <ele>978.28</ele>
        <time>2020-09-06T07:10:28Z</time>
      </trkpt>
      <trkpt lat="37.1899152920" lon="-3.5051570088">
        <ele>978.76</ele>
        <time>2020-09-06T07:10:29Z</time>
      </trkpt>
      <trkpt lat="37.1899246797" lon="-3.5051665641">
        <ele>978.28</ele>
        <time>2020-09-06T07:10:30Z</time>
      </trkpt>
      <trkpt lat="37.1899356600" lon="-3.5051772092">
        <ele>978.28</ele>
        <time>2020-09-06T07:10:31Z</time>
      </trkpt>
      <trkpt lat="37.1899540164" lon="-3.5051849205">
        <ele>979.72</ele>
        <time>2020-09-06T07:10:32Z</time>
      </trkpt>
      <trkpt lat="37.1899776533" lon="-3.5051792208">
        <ele>979.72</ele>
        <time>2020-09-06T07:10:33Z</time>
      </trkpt>
      <trkpt lat="37.1900011227" lon="-3.5051642172">
        <ele>980.20</ele>
        <time>2020-09-06T07:10:34Z</time>
      </trkpt>
      <trkpt lat="37.1901087463" lon="-3.5051270854">
        <ele>981.64</ele>
        <time>2020-09-06T07:10:39Z</time>
      </trkpt>
      <trkpt lat="37.1901280247" lon="-3.5051434301">
        <ele>981.64</ele>
        <time>2020-09-06T07:10:40Z</time>
      </trkpt>
      <trkpt lat="37.1901481412" lon="-3.5051593557">
        <ele>981.64</ele>
        <time>2020-09-06T07:10:41Z</time>
      </trkpt>
      <trkpt lat="37.1901685931" lon="-3.5051767901">
        <ele>981.64</ele>
        <time>2020-09-06T07:10:42Z</time>
      </trkpt>
      <trkpt lat="37.1901880391" lon="-3.5051971581">
        <ele>982.12</ele>
        <time>2020-09-06T07:10:43Z</time>
      </trkpt>
      <trkpt lat="37.1902597044" lon="-3.5052452702">
        <ele>984.53</ele>
        <time>2020-09-06T07:10:47Z</time>
      </trkpt>
      <trkpt lat="37.1903840918" lon="-3.5052965675">
        <ele>987.89</ele>
        <time>2020-09-06T07:10:53Z</time>
      </trkpt>
      <trkpt lat="37.1905552503" lon="-3.5053060390">
        <ele>990.78</ele>
        <time>2020-09-06T07:11:01Z</time>
      </trkpt>
      <trkpt lat="37.1907163505" lon="-3.5052931309">
        <ele>993.66</ele>
        <time>2020-09-06T07:11:09Z</time>
      </trkpt>
      <trkpt lat="37.1909621079" lon="-3.5052737687">
        <ele>997.02</ele>
        <time>2020-09-06T07:11:21Z</time>
      </trkpt>
      <trkpt lat="37.1911445819" lon="-3.5052748583">
        <ele>1000.39</ele>
        <time>2020-09-06T07:11:31Z</time>
      </trkpt>
      <trkpt lat="37.1912813745" lon="-3.5052746069">
        <ele>1003.27</ele>
        <time>2020-09-06T07:11:41Z</time>
      </trkpt>
      <trkpt lat="37.1914376970" lon="-3.5052886885">
        <ele>1006.16</ele>
        <time>2020-09-06T07:11:50Z</time>
      </trkpt>
      <trkpt lat="37.1914517786" lon="-3.5052906163">
        <ele>1006.64</ele>
        <time>2020-09-06T07:11:51Z</time>
      </trkpt>
      <trkpt lat="37.1915941872" lon="-3.5052913707">
        <ele>1009.52</ele>
        <time>2020-09-06T07:12:01Z</time>
      </trkpt>
      <trkpt lat="37.1916070115" lon="-3.5052871797">
        <ele>1009.52</ele>
        <time>2020-09-06T07:12:02Z</time>
      </trkpt>
      <trkpt lat="37.1916204225" lon="-3.5052847490">
        <ele>1010.00</ele>
        <time>2020-09-06T07:12:03Z</time>
      </trkpt>
      <trkpt lat="37.1916337498" lon="-3.5052834917">
        <ele>1010.00</ele>
        <time>2020-09-06T07:12:04Z</time>
      </trkpt>
      <trkpt lat="37.1916479152" lon="-3.5052798036">
        <ele>1010.00</ele>
        <time>2020-09-06T07:12:05Z</time>
      </trkpt>
      <trkpt lat="37.1916624159" lon="-3.5052741878">
        <ele>1010.48</ele>
        <time>2020-09-06T07:12:06Z</time>
      </trkpt>
      <trkpt lat="37.1918738913" lon="-3.5052470304">
        <ele>1013.37</ele>
        <time>2020-09-06T07:12:17Z</time>
      </trkpt>
      <trkpt lat="37.1919324808" lon="-3.5052624531">
        <ele>1014.81</ele>
        <time>2020-09-06T07:12:20Z</time>
      </trkpt>
      <trkpt lat="37.1919488255" lon="-3.5052740201">
        <ele>1014.33</ele>
        <time>2020-09-06T07:12:21Z</time>
      </trkpt>
      <trkpt lat="37.1919664275" lon="-3.5052808095">
        <ele>1015.29</ele>
        <time>2020-09-06T07:12:22Z</time>
      </trkpt>
      <trkpt lat="37.1919859573" lon="-3.5052835755">
        <ele>1015.29</ele>
        <time>2020-09-06T07:12:23Z</time>
      </trkpt>
      <trkpt lat="37.1920042299" lon="-3.5052828211">
        <ele>1016.25</ele>
        <time>2020-09-06T07:12:24Z</time>
      </trkpt>
      <trkpt lat="37.1920228377" lon="-3.5052814800">
        <ele>1016.25</ele>
        <time>2020-09-06T07:12:25Z</time>
      </trkpt>
      <trkpt lat="37.1921431180" lon="-3.5051204637">
        <ele>1019.62</ele>
        <time>2020-09-06T07:12:35Z</time>
      </trkpt>
      <trkpt lat="37.1921384241" lon="-3.5050959047">
        <ele>1020.10</ele>
        <time>2020-09-06T07:12:36Z</time>
      </trkpt>
      <trkpt lat="37.1921288688" lon="-3.5050737765">
        <ele>1020.10</ele>
        <time>2020-09-06T07:12:37Z</time>
      </trkpt>
      <trkpt lat="37.1921187267" lon="-3.5050500557">
        <ele>1020.10</ele>
        <time>2020-09-06T07:12:38Z</time>
      </trkpt>
      <trkpt lat="37.1921095066" lon="-3.5050259158">
        <ele>1020.58</ele>
        <time>2020-09-06T07:12:39Z</time>
      </trkpt>
      <trkpt lat="37.1921027172" lon="-3.5050023627">
        <ele>1020.58</ele>
        <time>2020-09-06T07:12:40Z</time>
      </trkpt>
      <trkpt lat="37.1921000350" lon="-3.5049759597">
        <ele>1021.54</ele>
        <time>2020-09-06T07:12:41Z</time>
      </trkpt>
      <trkpt lat="37.1920980234" lon="-3.5049482156">
        <ele>1022.02</ele>
        <time>2020-09-06T07:12:42Z</time>
      </trkpt>
      <trkpt lat="37.1920996998" lon="-3.5049217287">
        <ele>1022.02</ele>
        <time>2020-09-06T07:12:43Z</time>
      </trkpt>
      <trkpt lat="37.1921033040" lon="-3.5048967507">
        <ele>1022.50</ele>
        <time>2020-09-06T07:12:44Z</time>
      </trkpt>
      <trkpt lat="37.1921043936" lon="-3.5048726108">
        <ele>1022.50</ele>
        <time>2020-09-06T07:12:45Z</time>
      </trkpt>
      <trkpt lat="37.1921039745" lon="-3.5048478004">
        <ele>1022.98</ele>
        <time>2020-09-06T07:12:46Z</time>
      </trkpt>
      <trkpt lat="37.1921048965" lon="-3.5048208944">
        <ele>1022.98</ele>
        <time>2020-09-06T07:12:47Z</time>
      </trkpt>
      <trkpt lat="37.1921106800" lon="-3.5047946591">
        <ele>1022.98</ele>
        <time>2020-09-06T07:12:48Z</time>
      </trkpt>
      <trkpt lat="37.1921173856" lon="-3.5047664121">
        <ele>1022.98</ele>
        <time>2020-09-06T07:12:49Z</time>
      </trkpt>
      <trkpt lat="37.1921245940" lon="-3.5047335550">
        <ele>1023.46</ele>
        <time>2020-09-06T07:12:50Z</time>
      </trkpt>
      <trkpt lat="37.1921011247" lon="-3.5043178964">
        <ele>1025.38</ele>
        <time>2020-09-06T07:13:03Z</time>
      </trkpt>
      <trkpt lat="37.1921083331" lon="-3.5041365959">
        <ele>1028.75</ele>
        <time>2020-09-06T07:13:10Z</time>
      </trkpt>
      <trkpt lat="37.1921375860" lon="-3.5039936844">
        <ele>1032.59</ele>
        <time>2020-09-06T07:13:16Z</time>
      </trkpt>
      <trkpt lat="37.1922804136" lon="-3.5038668662">
        <ele>1034.52</ele>
        <time>2020-09-06T07:13:26Z</time>
      </trkpt>
      <trkpt lat="37.1925280988" lon="-3.5038387869">
        <ele>1037.88</ele>
        <time>2020-09-06T07:13:39Z</time>
      </trkpt>
      <trkpt lat="37.1928435098" lon="-3.5038545448">
        <ele>1040.28</ele>
        <time>2020-09-06T07:13:54Z</time>
      </trkpt>
      <trkpt lat="37.1930306777" lon="-3.5038706381">
        <ele>1043.65</ele>
        <time>2020-09-06T07:14:04Z</time>
      </trkpt>
      <trkpt lat="37.1932713222" lon="-3.5038387869">
        <ele>1047.01</ele>
        <time>2020-09-06T07:14:16Z</time>
      </trkpt>
      <trkpt lat="37.1936543752" lon="-3.5037511121">
        <ele>1049.90</ele>
        <time>2020-09-06T07:14:32Z</time>
      </trkpt>
      <trkpt lat="37.1940492466" lon="-3.5037237871">
        <ele>1051.82</ele>
        <time>2020-09-06T07:14:46Z</time>
      </trkpt>
      <trkpt lat="37.1944126859" lon="-3.5037012398">
        <ele>1055.18</ele>
        <time>2020-09-06T07:14:59Z</time>
      </trkpt>
      <trkpt lat="37.1947617084" lon="-3.5036929417">
        <ele>1058.07</ele>
        <time>2020-09-06T07:15:12Z</time>
      </trkpt>
      <trkpt lat="37.1951057855" lon="-3.5036636051">
        <ele>1061.43</ele>
        <time>2020-09-06T07:15:26Z</time>
      </trkpt>
      <trkpt lat="37.1953939553" lon="-3.5036332626">
        <ele>1064.32</ele>
        <time>2020-09-06T07:15:38Z</time>
      </trkpt>
      <trkpt lat="37.1956036706" lon="-3.5034688096">
        <ele>1067.20</ele>
        <time>2020-09-06T07:15:50Z</time>
      </trkpt>
      <trkpt lat="37.1958065126" lon="-3.5033210367">
        <ele>1071.05</ele>
        <time>2020-09-06T07:16:02Z</time>
      </trkpt>
      <trkpt lat="37.1960192453" lon="-3.5032201186">
        <ele>1074.41</ele>
        <time>2020-09-06T07:16:13Z</time>
      </trkpt>
      <trkpt lat="37.1960515995" lon="-3.5031958949">
        <ele>1075.37</ele>
        <time>2020-09-06T07:16:15Z</time>
      </trkpt>
      <trkpt lat="37.1961523499" lon="-3.5031811427">
        <ele>1076.33</ele>
        <time>2020-09-06T07:16:21Z</time>
      </trkpt>
      <trkpt lat="37.1961678565" lon="-3.5031917877">
        <ele>1076.81</ele>
        <time>2020-09-06T07:16:22Z</time>
      </trkpt>
      <trkpt lat="37.1961854585" lon="-3.5032008402">
        <ele>1076.81</ele>
        <time>2020-09-06T07:16:23Z</time>
      </trkpt>
      <trkpt lat="37.1962038986" lon="-3.5032057017">
        <ele>1077.29</ele>
        <time>2020-09-06T07:16:24Z</time>
      </trkpt>
      <trkpt lat="37.1962211654" lon="-3.5032122396">
        <ele>1077.78</ele>
        <time>2020-09-06T07:16:25Z</time>
      </trkpt>
      <trkpt lat="37.1962382644" lon="-3.5032181069">
        <ele>1077.78</ele>
        <time>2020-09-06T07:16:26Z</time>
      </trkpt>
      <trkpt lat="37.1962553635" lon="-3.5032217111">
        <ele>1078.26</ele>
        <time>2020-09-06T07:16:27Z</time>
      </trkpt>
      <trkpt lat="37.1962740552" lon="-3.5032223817">
        <ele>1078.74</ele>
        <time>2020-09-06T07:16:28Z</time>
      </trkpt>
      <trkpt lat="37.1962919086" lon="-3.5032217111">
        <ele>1078.74</ele>
        <time>2020-09-06T07:16:29Z</time>
      </trkpt>
      <trkpt lat="37.1964849439" lon="-3.5032583401">
        <ele>1082.10</ele>
        <time>2020-09-06T07:16:40Z</time>
      </trkpt>
      <trkpt lat="37.1965552680" lon="-3.5034490284">
        <ele>1084.02</ele>
        <time>2020-09-06T07:16:49Z</time>
      </trkpt>
      <trkpt lat="37.1965648234" lon="-3.5035366192">
        <ele>1085.95</ele>
        <time>2020-09-06T07:16:53Z</time>
      </trkpt>
      <trkpt lat="37.1966074873" lon="-3.5037133936">
        <ele>1089.31</ele>
        <time>2020-09-06T07:17:02Z</time>
      </trkpt>
      <trkpt lat="37.1966122650" lon="-3.5038538743">
        <ele>1091.71</ele>
        <time>2020-09-06T07:17:09Z</time>
      </trkpt>
      <trkpt lat="37.1966160368" lon="-3.5038748290">
        <ele>1091.71</ele>
        <time>2020-09-06T07:17:10Z</time>
      </trkpt>
      <trkpt lat="37.1966192219" lon="-3.5038989689">
        <ele>1092.20</ele>
        <time>2020-09-06T07:17:11Z</time>
      </trkpt>
      <trkpt lat="37.1967022866" lon="-3.5041306447">
        <ele>1096.04</ele>
        <time>2020-09-06T07:17:20Z</time>
      </trkpt>
      <trkpt lat="37.1967079025" lon="-3.5041611549">
        <ele>1096.04</ele>
        <time>2020-09-06T07:17:21Z</time>
      </trkpt>
      <trkpt lat="37.1967341378" lon="-3.5042149667">
        <ele>1094.60</ele>
        <time>2020-09-06T07:17:23Z</time>
      </trkpt>
      <trkpt lat="37.1970814001" lon="-3.5044104327">
        <ele>1091.71</ele>
        <time>2020-09-06T07:17:33Z</time>
      </trkpt>
      <trkpt lat="37.1971208788" lon="-3.5044271965">
        <ele>1090.75</ele>
        <time>2020-09-06T07:17:34Z</time>
      </trkpt>
      <trkpt lat="37.1971682366" lon="-3.5044385958">
        <ele>1090.75</ele>
        <time>2020-09-06T07:17:35Z</time>
      </trkpt>
      <trkpt lat="37.1973098908" lon="-3.5044924915">
        <ele>1088.35</ele>
        <time>2020-09-06T07:17:38Z</time>
      </trkpt>
      <trkpt lat="37.1973471902" lon="-3.5045266896">
        <ele>1088.35</ele>
        <time>2020-09-06T07:17:39Z</time>
      </trkpt>
      <trkpt lat="37.1974102221" lon="-3.5046009533">
        <ele>1087.87</ele>
        <time>2020-09-06T07:17:41Z</time>
      </trkpt>
      <trkpt lat="37.1974388883" lon="-3.5046359058">
        <ele>1087.87</ele>
        <time>2020-09-06T07:17:42Z</time>
      </trkpt>
      <trkpt lat="37.1974745113" lon="-3.5046718642">
        <ele>1087.87</ele>
        <time>2020-09-06T07:17:43Z</time>
      </trkpt>
      <trkpt lat="37.1975424048" lon="-3.5047337227">
        <ele>1088.35</ele>
        <time>2020-09-06T07:17:45Z</time>
      </trkpt>
      <trkpt lat="37.1975781955" lon="-3.5047583655">
        <ele>1088.35</ele>
        <time>2020-09-06T07:17:46Z</time>
      </trkpt>
      <trkpt lat="37.1977428161" lon="-3.5048527457">
        <ele>1088.35</ele>
        <time>2020-09-06T07:17:50Z</time>
      </trkpt>
      <trkpt lat="37.1979793534" lon="-3.5049327929">
        <ele>1086.43</ele>
        <time>2020-09-06T07:17:55Z</time>
      </trkpt>
      <trkpt lat="37.1980304830" lon="-3.5049338825">
        <ele>1086.43</ele>
        <time>2020-09-06T07:17:56Z</time>
      </trkpt>
      <trkpt lat="37.1980807744" lon="-3.5049384926">
        <ele>1085.95</ele>
        <time>2020-09-06T07:17:57Z</time>
      </trkpt>
      <trkpt lat="37.1981315687" lon="-3.5049359780">
        <ele>1084.99</ele>
        <time>2020-09-06T07:17:58Z</time>
      </trkpt>
      <trkpt lat="37.1981856320" lon="-3.5049256682">
        <ele>1084.50</ele>
        <time>2020-09-06T07:17:59Z</time>
      </trkpt>
      <trkpt lat="37.1983468160" lon="-3.5048905481">
        <ele>1082.10</ele>
        <time>2020-09-06T07:18:02Z</time>
      </trkpt>
      <trkpt lat="37.1983857080" lon="-3.5049062222">
        <ele>1082.10</ele>
        <time>2020-09-06T07:18:03Z</time>
      </trkpt>
      <trkpt lat="37.1984078363" lon="-3.5049367324">
        <ele>1082.10</ele>
        <time>2020-09-06T07:18:04Z</time>
      </trkpt>
      <trkpt lat="37.1984186489" lon="-3.5049736965">
        <ele>1082.10</ele>
        <time>2020-09-06T07:18:05Z</time>
      </trkpt>
      <trkpt lat="37.1984259412" lon="-3.5050059669">
        <ele>1083.06</ele>
        <time>2020-09-06T07:18:06Z</time>
      </trkpt>
      <trkpt lat="37.1984328143" lon="-3.5050360579">
        <ele>1083.54</ele>
        <time>2020-09-06T07:18:07Z</time>
      </trkpt>
      <trkpt lat="37.1984394360" lon="-3.5050675739">
        <ele>1084.50</ele>
        <time>2020-09-06T07:18:08Z</time>
      </trkpt>
      <trkpt lat="37.1984471474" lon="-3.5050988384">
        <ele>1084.99</ele>
        <time>2020-09-06T07:18:09Z</time>
      </trkpt>
      <trkpt lat="37.1984885540" lon="-3.5052199569">
        <ele>1086.43</ele>
        <time>2020-09-06T07:18:13Z</time>
      </trkpt>
      <trkpt lat="37.1986045595" lon="-3.5056211147">
        <ele>1089.31</ele>
        <time>2020-09-06T07:18:26Z</time>
      </trkpt>
      <trkpt lat="37.1986739617" lon="-3.5060137231">
        <ele>1091.23</ele>
        <time>2020-09-06T07:18:37Z</time>
      </trkpt>
      <trkpt lat="37.1986845229" lon="-3.5060652718">
        <ele>1091.71</ele>
        <time>2020-09-06T07:18:38Z</time>
      </trkpt>
      <trkpt lat="37.1986945812" lon="-3.5061184131">
        <ele>1091.23</ele>
        <time>2020-09-06T07:18:39Z</time>
      </trkpt>
      <trkpt lat="37.1987170447" lon="-3.5062311497">
        <ele>1091.71</ele>
        <time>2020-09-06T07:18:41Z</time>
      </trkpt>
      <trkpt lat="37.1987336408" lon="-3.5062821954">
        <ele>1091.71</ele>
        <time>2020-09-06T07:18:42Z</time>
      </trkpt>
      <trkpt lat="37.1987591218" lon="-3.5063329898">
        <ele>1091.71</ele>
        <time>2020-09-06T07:18:43Z</time>
      </trkpt>
      <trkpt lat="37.1988661587" lon="-3.5064900666">
        <ele>1088.83</ele>
        <time>2020-09-06T07:18:46Z</time>
      </trkpt>
      <trkpt lat="37.1989163663" lon="-3.5065350775">
        <ele>1088.83</ele>
        <time>2020-09-06T07:18:47Z</time>
      </trkpt>
      <trkpt lat="37.1989702620" lon="-3.5065644141">
        <ele>1087.87</ele>
        <time>2020-09-06T07:18:48Z</time>
      </trkpt>
      <trkpt lat="37.1991933044" lon="-3.5066564474">
        <ele>1086.91</ele>
        <time>2020-09-06T07:18:52Z</time>
      </trkpt>
      <trkpt lat="37.1992910374" lon="-3.5067204852">
        <ele>1085.95</ele>
        <time>2020-09-06T07:18:54Z</time>
      </trkpt>
      <trkpt lat="37.1993317734" lon="-3.5067587905">
        <ele>1084.99</ele>
        <time>2020-09-06T07:18:55Z</time>
      </trkpt>
      <trkpt lat="37.1993728448" lon="-3.5067993589">
        <ele>1084.02</ele>
        <time>2020-09-06T07:18:56Z</time>
      </trkpt>
      <trkpt lat="37.1994130779" lon="-3.5068392567">
        <ele>1084.02</ele>
        <time>2020-09-06T07:18:57Z</time>
      </trkpt>
      <trkpt lat="37.1994464379" lon="-3.5068878718">
        <ele>1083.06</ele>
        <time>2020-09-06T07:18:58Z</time>
      </trkpt>
      <trkpt lat="37.1994790435" lon="-3.5069267638">
        <ele>1082.58</ele>
        <time>2020-09-06T07:18:59Z</time>
      </trkpt>
      <trkpt lat="37.1995183546" lon="-3.5069561005">
        <ele>1082.10</ele>
        <time>2020-09-06T07:19:00Z</time>
      </trkpt>
      <trkpt lat="37.1996027604" lon="-3.5070306994">
        <ele>1080.66</ele>
        <time>2020-09-06T07:19:02Z</time>
      </trkpt>
      <trkpt lat="37.1996403113" lon="-3.5070737824">
        <ele>1080.18</ele>
        <time>2020-09-06T07:19:03Z</time>
      </trkpt>
      <trkpt lat="37.1996816341" lon="-3.5071020294">
        <ele>1079.70</ele>
        <time>2020-09-06T07:19:04Z</time>
      </trkpt>
      <trkpt lat="37.1997301653" lon="-3.5071140155">
        <ele>1079.70</ele>
        <time>2020-09-06T07:19:05Z</time>
      </trkpt>
      <trkpt lat="37.1997817978" lon="-3.5071102437">
        <ele>1079.22</ele>
        <time>2020-09-06T07:19:06Z</time>
      </trkpt>
      <trkpt lat="37.1998288203" lon="-3.5071021970">
        <ele>1079.22</ele>
        <time>2020-09-06T07:19:07Z</time>
      </trkpt>
      <trkpt lat="37.1998728253" lon="-3.5070860200">
        <ele>1079.22</ele>
        <time>2020-09-06T07:19:08Z</time>
      </trkpt>
      <trkpt lat="37.1999173332" lon="-3.5070638917">
        <ele>1079.22</ele>
        <time>2020-09-06T07:19:09Z</time>
      </trkpt>
      <trkpt lat="37.2001019865" lon="-3.5069791507">
        <ele>1081.62</ele>
        <time>2020-09-06T07:19:14Z</time>
      </trkpt>
      <trkpt lat="37.2003560420" lon="-3.5067846067">
        <ele>1084.99</ele>
        <time>2020-09-06T07:19:23Z</time>
      </trkpt>
      <trkpt lat="37.2005787492" lon="-3.5065734666">
        <ele>1087.39</ele>
        <time>2020-09-06T07:19:33Z</time>
      </trkpt>
      <trkpt lat="37.2006054036" lon="-3.5065577086">
        <ele>1087.87</ele>
        <time>2020-09-06T07:19:34Z</time>
      </trkpt>
      <trkpt lat="37.2009255085" lon="-3.5063090175">
        <ele>1090.75</ele>
        <time>2020-09-06T07:19:48Z</time>
      </trkpt>
      <trkpt lat="37.2011213098" lon="-3.5061728116">
        <ele>1094.60</ele>
        <time>2020-09-06T07:19:59Z</time>
      </trkpt>
      <trkpt lat="37.2011370678" lon="-3.5061609093">
        <ele>1094.60</ele>
        <time>2020-09-06T07:20:00Z</time>
      </trkpt>
      <trkpt lat="37.2014240641" lon="-3.5059844702">
        <ele>1096.52</ele>
        <time>2020-09-06T07:20:12Z</time>
      </trkpt>
      <trkpt lat="37.2016606852" lon="-3.5058040079">
        <ele>1097.96</ele>
        <time>2020-09-06T07:20:22Z</time>
      </trkpt>
      <trkpt lat="37.2017991543" lon="-3.5056614317">
        <ele>1099.40</ele>
        <time>2020-09-06T07:20:28Z</time>
      </trkpt>
      <trkpt lat="37.2018901818" lon="-3.5054226313">
        <ele>1102.77</ele>
        <time>2020-09-06T07:20:37Z</time>
      </trkpt>
      <trkpt lat="37.2019549739" lon="-3.5052517243">
        <ele>1104.69</ele>
        <time>2020-09-06T07:20:44Z</time>
      </trkpt>
      <trkpt lat="37.2020934429" lon="-3.5048687551">
        <ele>1106.61</ele>
        <time>2020-09-06T07:20:57Z</time>
      </trkpt>
      <trkpt lat="37.2020994779" lon="-3.5045675095">
        <ele>1109.98</ele>
        <time>2020-09-06T07:21:09Z</time>
      </trkpt>
      <trkpt lat="37.2021252103" lon="-3.5043620691">
        <ele>1111.90</ele>
        <time>2020-09-06T07:21:17Z</time>
      </trkpt>
      <trkpt lat="37.2022496816" lon="-3.5039704666">
        <ele>1114.79</ele>
        <time>2020-09-06T07:21:31Z</time>
      </trkpt>
      <trkpt lat="37.2022761684" lon="-3.5039666947">
        <ele>1114.79</ele>
        <time>2020-09-06T07:21:32Z</time>
      </trkpt>
      <trkpt lat="37.2023823671" lon="-3.5039514396">
        <ele>1114.79</ele>
        <time>2020-09-06T07:21:36Z</time>
      </trkpt>
      <trkpt lat="37.2024069261" lon="-3.5039349273">
        <ele>1115.27</ele>
        <time>2020-09-06T07:21:37Z</time>
      </trkpt>
      <trkpt lat="37.2024262045" lon="-3.5039150622">
        <ele>1115.27</ele>
        <time>2020-09-06T07:21:38Z</time>
      </trkpt>
      <trkpt lat="37.2024417948" lon="-3.5038916767">
        <ele>1115.27</ele>
        <time>2020-09-06T07:21:39Z</time>
      </trkpt>
      <trkpt lat="37.2024550382" lon="-3.5038670339">
        <ele>1116.23</ele>
        <time>2020-09-06T07:21:40Z</time>
      </trkpt>
      <trkpt lat="37.2024677787" lon="-3.5038426425">
        <ele>1116.23</ele>
        <time>2020-09-06T07:21:41Z</time>
      </trkpt>
      <trkpt lat="37.2026221734" lon="-3.5035670456">
        <ele>1119.11</ele>
        <time>2020-09-06T07:21:53Z</time>
      </trkpt>
      <trkpt lat="37.2028028872" lon="-3.5032704938">
        <ele>1122.48</ele>
        <time>2020-09-06T07:22:07Z</time>
      </trkpt>
      <trkpt lat="37.2028718702" lon="-3.5031224694">
        <ele>1123.92</ele>
        <time>2020-09-06T07:22:14Z</time>
      </trkpt>
      <trkpt lat="37.2028793301" lon="-3.5031005926">
        <ele>1124.40</ele>
        <time>2020-09-06T07:22:15Z</time>
      </trkpt>
      <trkpt lat="37.2028903104" lon="-3.5030801408">
        <ele>1124.40</ele>
        <time>2020-09-06T07:22:16Z</time>
      </trkpt>
      <trkpt lat="37.2030424420" lon="-3.5027374048">
        <ele>1127.76</ele>
        <time>2020-09-06T07:22:32Z</time>
      </trkpt>
      <trkpt lat="37.2031106707" lon="-3.5026885383">
        <ele>1129.21</ele>
        <time>2020-09-06T07:22:36Z</time>
      </trkpt>
      <trkpt lat="37.2031216510" lon="-3.5026676673">
        <ele>1129.21</ele>
        <time>2020-09-06T07:22:37Z</time>
      </trkpt>
      <trkpt lat="37.2031312063" lon="-3.5026458744">
        <ele>1129.69</ele>
        <time>2020-09-06T07:22:38Z</time>
      </trkpt>
      <trkpt lat="37.2031361517" lon="-3.5026201420">
        <ele>1129.69</ele>
        <time>2020-09-06T07:22:39Z</time>
      </trkpt>
      <trkpt lat="37.2031379119" lon="-3.5025921464">
        <ele>1129.69</ele>
        <time>2020-09-06T07:22:40Z</time>
      </trkpt>
      <trkpt lat="37.2031375766" lon="-3.5025648214">
        <ele>1130.65</ele>
        <time>2020-09-06T07:22:41Z</time>
      </trkpt>
      <trkpt lat="37.2032592818" lon="-3.5023045633">
        <ele>1133.53</ele>
        <time>2020-09-06T07:22:53Z</time>
      </trkpt>
      <trkpt lat="37.2034417558" lon="-3.5021711234">
        <ele>1136.90</ele>
        <time>2020-09-06T07:23:03Z</time>
      </trkpt>
      <trkpt lat="37.2036036104" lon="-3.5021007992">
        <ele>1139.78</ele>
        <time>2020-09-06T07:23:13Z</time>
      </trkpt>
      <trkpt lat="37.2036805563" lon="-3.5020884778">
        <ele>1141.22</ele>
        <time>2020-09-06T07:23:17Z</time>
      </trkpt>
      <trkpt lat="37.2036963981" lon="-3.5020790063">
        <ele>1141.70</ele>
        <time>2020-09-06T07:23:18Z</time>
      </trkpt>
      <trkpt lat="37.2037114017" lon="-3.5020707920">
        <ele>1142.18</ele>
        <time>2020-09-06T07:23:19Z</time>
      </trkpt>
      <trkpt lat="37.2037947178" lon="-3.5020130407">
        <ele>1143.63</ele>
        <time>2020-09-06T07:23:24Z</time>
      </trkpt>
      <trkpt lat="37.2038670536" lon="-3.5018942691">
        <ele>1145.07</ele>
        <time>2020-09-06T07:23:30Z</time>
      </trkpt>
      <trkpt lat="37.2038707417" lon="-3.5018697102">
        <ele>1145.07</ele>
        <time>2020-09-06T07:23:31Z</time>
      </trkpt>
      <trkpt lat="37.2038796265" lon="-3.5018438101">
        <ele>1145.07</ele>
        <time>2020-09-06T07:23:32Z</time>
      </trkpt>
      <trkpt lat="37.2038921993" lon="-3.5018210113">
        <ele>1145.55</ele>
        <time>2020-09-06T07:23:33Z</time>
      </trkpt>
      <trkpt lat="37.2039081249" lon="-3.5017993860">
        <ele>1145.55</ele>
        <time>2020-09-06T07:23:34Z</time>
      </trkpt>
      <trkpt lat="37.2039267328" lon="-3.5017752461">
        <ele>1146.03</ele>
        <time>2020-09-06T07:23:35Z</time>
      </trkpt>
      <trkpt lat="37.2040574066" lon="-3.5016814526">
        <ele>1147.47</ele>
        <time>2020-09-06T07:23:42Z</time>
      </trkpt>
      <trkpt lat="37.2041514516" lon="-3.5015880782">
        <ele>1145.55</ele>
        <time>2020-09-06T07:23:45Z</time>
      </trkpt>
      <trkpt lat="37.2041842248" lon="-3.5015367810">
        <ele>1145.07</ele>
        <time>2020-09-06T07:23:46Z</time>
      </trkpt>
      <trkpt lat="37.2042155731" lon="-3.5014758445">
        <ele>1144.11</ele>
        <time>2020-09-06T07:23:47Z</time>
      </trkpt>
      <trkpt lat="37.2042526212" lon="-3.5014166683">
        <ele>1144.11</ele>
        <time>2020-09-06T07:23:48Z</time>
      </trkpt>
      <trkpt lat="37.2043026611" lon="-3.5013619345">
        <ele>1143.14</ele>
        <time>2020-09-06T07:23:49Z</time>
      </trkpt>
      <trkpt lat="37.2043517791" lon="-3.5013183486">
        <ele>1143.14</ele>
        <time>2020-09-06T07:23:50Z</time>
      </trkpt>
      <trkpt lat="37.2043960355" lon="-3.5012805462">
        <ele>1143.14</ele>
        <time>2020-09-06T07:23:51Z</time>
      </trkpt>
      <trkpt lat="37.2044424713" lon="-3.5012342781">
        <ele>1142.66</ele>
        <time>2020-09-06T07:23:52Z</time>
      </trkpt>
      <trkpt lat="37.2044776753" lon="-3.5011882614">
        <ele>1142.66</ele>
        <time>2020-09-06T07:23:53Z</time>
      </trkpt>
      <trkpt lat="37.2045034915" lon="-3.5011398140">
        <ele>1142.18</ele>
        <time>2020-09-06T07:23:54Z</time>
      </trkpt>
      <trkpt lat="37.2045175731" lon="-3.5010816436">
        <ele>1142.18</ele>
        <time>2020-09-06T07:23:55Z</time>
      </trkpt>
      <trkpt lat="37.2045202553" lon="-3.5010177735">
        <ele>1141.70</ele>
        <time>2020-09-06T07:23:56Z</time>
      </trkpt>
      <trkpt lat="37.2045151424" lon="-3.5009629559">
        <ele>1140.74</ele>
        <time>2020-09-06T07:23:57Z</time>
      </trkpt>
      <trkpt lat="37.2045025695" lon="-3.5008895304">
        <ele>1140.26</ele>
        <time>2020-09-06T07:23:58Z</time>
      </trkpt>
      <trkpt lat="37.2044922598" lon="-3.5008280911">
        <ele>1139.30</ele>
        <time>2020-09-06T07:23:59Z</time>
      </trkpt>
      <trkpt lat="37.2044936847" lon="-3.5007644724">
        <ele>1139.30</ele>
        <time>2020-09-06T07:24:00Z</time>
      </trkpt>
      <trkpt lat="37.2045112029" lon="-3.5007186234">
        <ele>1139.30</ele>
        <time>2020-09-06T07:24:01Z</time>
      </trkpt>
      <trkpt lat="37.2045418806" lon="-3.5006733611">
        <ele>1138.82</ele>
        <time>2020-09-06T07:24:02Z</time>
      </trkpt>
      <trkpt lat="37.2045813594" lon="-3.5006253328">
        <ele>1138.34</ele>
        <time>2020-09-06T07:24:03Z</time>
      </trkpt>
      <trkpt lat="37.2046132945" lon="-3.5005742032">
        <ele>1137.86</ele>
        <time>2020-09-06T07:24:04Z</time>
      </trkpt>
      <trkpt lat="37.2046360932" lon="-3.5005262587">
        <ele>1137.86</ele>
        <time>2020-09-06T07:24:05Z</time>
      </trkpt>
      <trkpt lat="37.2046530247" lon="-3.5004731175">
        <ele>1137.38</ele>
        <time>2020-09-06T07:24:06Z</time>
      </trkpt>
      <trkpt lat="37.2046574671" lon="-3.5004302859">
        <ele>1137.38</ele>
        <time>2020-09-06T07:24:07Z</time>
      </trkpt>
      <trkpt lat="37.2046531923" lon="-3.5003773961">
        <ele>1137.38</ele>
        <time>2020-09-06T07:24:08Z</time>
      </trkpt>
      <trkpt lat="37.2046377696" lon="-3.5003126040">
        <ele>1137.38</ele>
        <time>2020-09-06T07:24:09Z</time>
      </trkpt>
      <trkpt lat="37.2046063375" lon="-3.5002422798">
        <ele>1136.42</ele>
        <time>2020-09-06T07:24:10Z</time>
      </trkpt>
      <trkpt lat="37.2045804374" lon="-3.5001861211">
        <ele>1135.94</ele>
        <time>2020-09-06T07:24:11Z</time>
      </trkpt>
      <trkpt lat="37.2045585606" lon="-3.5001150426">
        <ele>1134.49</ele>
        <time>2020-09-06T07:24:12Z</time>
      </trkpt>
      <trkpt lat="37.2045499273" lon="-3.5000543576">
        <ele>1134.49</ele>
        <time>2020-09-06T07:24:13Z</time>
      </trkpt>
      <trkpt lat="37.2045462392" lon="-3.4999793395">
        <ele>1134.49</ele>
        <time>2020-09-06T07:24:14Z</time>
      </trkpt>
      <trkpt lat="37.2045472451" lon="-3.4999185707">
        <ele>1134.97</ele>
        <time>2020-09-06T07:24:15Z</time>
      </trkpt>
      <trkpt lat="37.2045515198" lon="-3.4998525213">
        <ele>1134.97</ele>
        <time>2020-09-06T07:24:16Z</time>
      </trkpt>
      <trkpt lat="37.2045589797" lon="-3.4997934289">
        <ele>1134.97</ele>
        <time>2020-09-06T07:24:17Z</time>
      </trkpt>
      <trkpt lat="37.2045738995" lon="-3.4997355100">
        <ele>1134.97</ele>
        <time>2020-09-06T07:24:18Z</time>
      </trkpt>
      <trkpt lat="37.2045903280" lon="-3.4996868949">
        <ele>1134.97</ele>
        <time>2020-09-06T07:24:19Z</time>
      </trkpt>
      <trkpt lat="37.2046040744" lon="-3.4996443149">
        <ele>1134.97</ele>
        <time>2020-09-06T07:24:20Z</time>
      </trkpt>
      <trkpt lat="37.2046200000" lon="-3.4995908383">
        <ele>1134.97</ele>
        <time>2020-09-06T07:24:21Z</time>
      </trkpt>
      <trkpt lat="37.2046335787" lon="-3.4995417204">
        <ele>1134.97</ele>
        <time>2020-09-06T07:24:22Z</time>
      </trkpt>
      <trkpt lat="37.2046454810" lon="-3.4994958714">
        <ele>1136.42</ele>
        <time>2020-09-06T07:24:23Z</time>
      </trkpt>
      <trkpt lat="37.2047935892" lon="-3.4991793707">
        <ele>1139.78</ele>
        <time>2020-09-06T07:24:32Z</time>
      </trkpt>
      <trkpt lat="37.2048296314" lon="-3.4991604276">
        <ele>1139.78</ele>
        <time>2020-09-06T07:24:33Z</time>
      </trkpt>
      <trkpt lat="37.2049618140" lon="-3.4989524726">
        <ele>1143.14</ele>
        <time>2020-09-06T07:24:41Z</time>
      </trkpt>
      <trkpt lat="37.2051888797" lon="-3.4987235628">
        <ele>1146.03</ele>
        <time>2020-09-06T07:24:53Z</time>
      </trkpt>
      <trkpt lat="37.2052436974" lon="-3.4986435995">
        <ele>1147.95</ele>
        <time>2020-09-06T07:24:58Z</time>
      </trkpt>
      <trkpt lat="37.2052472178" lon="-3.4986158554">
        <ele>1148.43</ele>
        <time>2020-09-06T07:24:59Z</time>
      </trkpt>
      <trkpt lat="37.2052462958" lon="-3.4985807352">
        <ele>1148.43</ele>
        <time>2020-09-06T07:25:00Z</time>
      </trkpt>
      <trkpt lat="37.2053664085" lon="-3.4981189761">
        <ele>1148.91</ele>
        <time>2020-09-06T07:25:12Z</time>
      </trkpt>
      <trkpt lat="37.2055438533" lon="-3.4978935868">
        <ele>1151.32</ele>
        <time>2020-09-06T07:25:21Z</time>
      </trkpt>
      <trkpt lat="37.2057568375" lon="-3.4976082668">
        <ele>1154.20</ele>
        <time>2020-09-06T07:25:33Z</time>
      </trkpt>
      <trkpt lat="37.2059795447" lon="-3.4975770861">
        <ele>1157.56</ele>
        <time>2020-09-06T07:25:43Z</time>
      </trkpt>
      <trkpt lat="37.2061408125" lon="-3.4975493420">
        <ele>1161.41</ele>
        <time>2020-09-06T07:25:52Z</time>
      </trkpt>
      <trkpt lat="37.2062611766" lon="-3.4972960409">
        <ele>1161.89</ele>
        <time>2020-09-06T07:26:04Z</time>
      </trkpt>
      <trkpt lat="37.2062539682" lon="-3.4971475974">
        <ele>1159.01</ele>
        <time>2020-09-06T07:26:07Z</time>
      </trkpt>
      <trkpt lat="37.2062662896" lon="-3.4971047658">
        <ele>1157.56</ele>
        <time>2020-09-06T07:26:08Z</time>
      </trkpt>
      <trkpt lat="37.2063273937" lon="-3.4969597589">
        <ele>1154.68</ele>
        <time>2020-09-06T07:26:11Z</time>
      </trkpt>
      <trkpt lat="37.2063526232" lon="-3.4969184361">
        <ele>1154.20</ele>
        <time>2020-09-06T07:26:12Z</time>
      </trkpt>
      <trkpt lat="37.2064143978" lon="-3.4968231339">
        <ele>1152.76</ele>
        <time>2020-09-06T07:26:14Z</time>
      </trkpt>
      <trkpt lat="37.2064920142" lon="-3.4967308491">
        <ele>1150.84</ele>
        <time>2020-09-06T07:26:16Z</time>
      </trkpt>
      <trkpt lat="37.2066860553" lon="-3.4965253249">
        <ele>1148.91</ele>
        <time>2020-09-06T07:26:20Z</time>
      </trkpt>
      <trkpt lat="37.2067676112" lon="-3.4964331239">
        <ele>1147.95</ele>
        <time>2020-09-06T07:26:22Z</time>
      </trkpt>
      <trkpt lat="37.2067961097" lon="-3.4963637218">
        <ele>1147.47</ele>
        <time>2020-09-06T07:26:23Z</time>
      </trkpt>
      <trkpt lat="37.2068153881" lon="-3.4962885361">
        <ele>1146.51</ele>
        <time>2020-09-06T07:26:24Z</time>
      </trkpt>
      <trkpt lat="37.2068230156" lon="-3.4962274320">
        <ele>1146.03</ele>
        <time>2020-09-06T07:26:25Z</time>
      </trkpt>
      <trkpt lat="37.2068379354" lon="-3.4961644839">
        <ele>1145.55</ele>
        <time>2020-09-06T07:26:26Z</time>
      </trkpt>
      <trkpt lat="37.2068634164" lon="-3.4960985184">
        <ele>1144.59</ele>
        <time>2020-09-06T07:26:27Z</time>
      </trkpt>
      <trkpt lat="37.2068940941" lon="-3.4960385878">
        <ele>1144.11</ele>
        <time>2020-09-06T07:26:28Z</time>
      </trkpt>
      <trkpt lat="37.2069322318" lon="-3.4959667549">
        <ele>1143.14</ele>
        <time>2020-09-06T07:26:29Z</time>
      </trkpt>
      <trkpt lat="37.2070012148" lon="-3.4958405234">
        <ele>1142.66</ele>
        <time>2020-09-06T07:26:31Z</time>
      </trkpt>
      <trkpt lat="37.2070527636" lon="-3.4957928304">
        <ele>1141.70</ele>
        <time>2020-09-06T07:26:32Z</time>
      </trkpt>
      <trkpt lat="37.2071184777" lon="-3.4957749769">
        <ele>1141.70</ele>
        <time>2020-09-06T07:26:33Z</time>
      </trkpt>
      <trkpt lat="37.2071883827" lon="-3.4957818501">
        <ele>1140.74</ele>
        <time>2020-09-06T07:26:34Z</time>
      </trkpt>
      <trkpt lat="37.2072715312" lon="-3.4957924951">
        <ele>1140.26</ele>
        <time>2020-09-06T07:26:35Z</time>
      </trkpt>
      <trkpt lat="37.2073415201" lon="-3.4957977757">
        <ele>1139.30</ele>
        <time>2020-09-06T07:26:36Z</time>
      </trkpt>
      <trkpt lat="37.2074856889" lon="-3.4957985301">
        <ele>1138.34</ele>
        <time>2020-09-06T07:26:38Z</time>
      </trkpt>
      <trkpt lat="37.2075410932" lon="-3.4957740549">
        <ele>1138.34</ele>
        <time>2020-09-06T07:26:39Z</time>
      </trkpt>
      <trkpt lat="37.2075783927" lon="-3.4957195725">
        <ele>1138.34</ele>
        <time>2020-09-06T07:26:40Z</time>
      </trkpt>
      <trkpt lat="37.2075989284" lon="-3.4956513438">
        <ele>1137.86</ele>
        <time>2020-09-06T07:26:41Z</time>
      </trkpt>
      <trkpt lat="37.2076135129" lon="-3.4955895692">
        <ele>1136.90</ele>
        <time>2020-09-06T07:26:42Z</time>
      </trkpt>
      <trkpt lat="37.2076250799" lon="-3.4955289681">
        <ele>1135.94</ele>
        <time>2020-09-06T07:26:43Z</time>
      </trkpt>
      <trkpt lat="37.2076414246" lon="-3.4954588953">
        <ele>1135.45</ele>
        <time>2020-09-06T07:26:44Z</time>
      </trkpt>
      <trkpt lat="37.2076627985" lon="-3.4953988809">
        <ele>1135.45</ele>
        <time>2020-09-06T07:26:45Z</time>
      </trkpt>
      <trkpt lat="37.2076915484" lon="-3.4953254554">
        <ele>1134.01</ele>
        <time>2020-09-06T07:26:46Z</time>
      </trkpt>
      <trkpt lat="37.2077072226" lon="-3.4952547960">
        <ele>1133.53</ele>
        <time>2020-09-06T07:26:47Z</time>
      </trkpt>
      <trkpt lat="37.2077172808" lon="-3.4951720666">
        <ele>1133.05</ele>
        <time>2020-09-06T07:26:48Z</time>
      </trkpt>
      <trkpt lat="37.2077338770" lon="-3.4951014910">
        <ele>1133.05</ele>
        <time>2020-09-06T07:26:49Z</time>
      </trkpt>
      <trkpt lat="37.2077697515" lon="-3.4950200189">
        <ele>1132.09</ele>
        <time>2020-09-06T07:26:50Z</time>
      </trkpt>
      <trkpt lat="37.2078131698" lon="-3.4949549753">
        <ele>1130.65</ele>
        <time>2020-09-06T07:26:51Z</time>
      </trkpt>
      <trkpt lat="37.2078697477" lon="-3.4948872495">
        <ele>1129.69</ele>
        <time>2020-09-06T07:26:52Z</time>
      </trkpt>
      <trkpt lat="37.2079064604" lon="-3.4948262293">
        <ele>1129.21</ele>
        <time>2020-09-06T07:26:53Z</time>
      </trkpt>
      <trkpt lat="37.2079261579" lon="-3.4947486129">
        <ele>1128.73</ele>
        <time>2020-09-06T07:26:54Z</time>
      </trkpt>
      <trkpt lat="37.2079515550" lon="-3.4945797175">
        <ele>1128.73</ele>
        <time>2020-09-06T07:26:56Z</time>
      </trkpt>
      <trkpt lat="37.2079712525" lon="-3.4945146739">
        <ele>1127.28</ele>
        <time>2020-09-06T07:26:57Z</time>
      </trkpt>
      <trkpt lat="37.2079929616" lon="-3.4944465291">
        <ele>1127.28</ele>
        <time>2020-09-06T07:26:58Z</time>
      </trkpt>
      <trkpt lat="37.2079989128" lon="-3.4943851735">
        <ele>1126.80</ele>
        <time>2020-09-06T07:26:59Z</time>
      </trkpt>
      <trkpt lat="37.2079999186" lon="-3.4943108261">
        <ele>1125.36</ele>
        <time>2020-09-06T07:27:00Z</time>
      </trkpt>
      <trkpt lat="37.2080128267" lon="-3.4942492191">
        <ele>1125.36</ele>
        <time>2020-09-06T07:27:01Z</time>
      </trkpt>
      <trkpt lat="37.2080445942" lon="-3.4941901267">
        <ele>1124.40</ele>
        <time>2020-09-06T07:27:02Z</time>
      </trkpt>
      <trkpt lat="37.2080873419" lon="-3.4941264242">
        <ele>1122.96</ele>
        <time>2020-09-06T07:27:03Z</time>
      </trkpt>
      <trkpt lat="37.2081365436" lon="-3.4940628055">
        <ele>1122.00</ele>
        <time>2020-09-06T07:27:04Z</time>
      </trkpt>
      <trkpt lat="37.2081861645" lon="-3.4940197226">
        <ele>1121.03</ele>
        <time>2020-09-06T07:27:05Z</time>
      </trkpt>
      <trkpt lat="37.2082321811" lon="-3.4939797409">
        <ele>1120.07</ele>
        <time>2020-09-06T07:27:06Z</time>
      </trkpt>
      <trkpt lat="37.2082613502" lon="-3.4939278569">
        <ele>1119.11</ele>
        <time>2020-09-06T07:27:07Z</time>
      </trkpt>
      <trkpt lat="37.2082749289" lon="-3.4938599635">
        <ele>1118.63</ele>
        <time>2020-09-06T07:27:08Z</time>
      </trkpt>
      <trkpt lat="37.2082882561" lon="-3.4937841911">
        <ele>1117.19</ele>
        <time>2020-09-06T07:27:09Z</time>
      </trkpt>
      <trkpt lat="37.2083187662" lon="-3.4937106818">
        <ele>1116.23</ele>
        <time>2020-09-06T07:27:10Z</time>
      </trkpt>
      <trkpt lat="37.2083516233" lon="-3.4936325625">
        <ele>1115.27</ele>
        <time>2020-09-06T07:27:11Z</time>
      </trkpt>
      <trkpt lat="37.2083766852" lon="-3.4935344104">
        <ele>1114.31</ele>
        <time>2020-09-06T07:27:12Z</time>
      </trkpt>
      <trkpt lat="37.2083978076" lon="-3.4934405331">
        <ele>1112.86</ele>
        <time>2020-09-06T07:27:13Z</time>
      </trkpt>
      <trkpt lat="37.2084216960" lon="-3.4932554606">
        <ele>1110.46</ele>
        <time>2020-09-06T07:27:15Z</time>
      </trkpt>
      <trkpt lat="37.2084211092" lon="-3.4931666963">
        <ele>1109.02</ele>
        <time>2020-09-06T07:27:16Z</time>
      </trkpt>
      <trkpt lat="37.2084110510" lon="-3.4930654429">
        <ele>1108.06</ele>
        <time>2020-09-06T07:27:17Z</time>
      </trkpt>
      <trkpt lat="37.2083911858" lon="-3.4929842222">
        <ele>1106.61</ele>
        <time>2020-09-06T07:27:18Z</time>
      </trkpt>
      <trkpt lat="37.2083618492" lon="-3.4928954579">
        <ele>1104.69</ele>
        <time>2020-09-06T07:27:19Z</time>
      </trkpt>
      <trkpt lat="37.2083503660" lon="-3.4928225353">
        <ele>1103.73</ele>
        <time>2020-09-06T07:27:20Z</time>
      </trkpt>
      <trkpt lat="37.2083605919" lon="-3.4927450866">
        <ele>1102.29</ele>
        <time>2020-09-06T07:27:21Z</time>
      </trkpt>
      <trkpt lat="37.2083913535" lon="-3.4926806297">
        <ele>1101.33</ele>
        <time>2020-09-06T07:27:22Z</time>
      </trkpt>
      <trkpt lat="37.2084337659" lon="-3.4926353674">
        <ele>1100.85</ele>
        <time>2020-09-06T07:27:23Z</time>
      </trkpt>
      <trkpt lat="37.2084741667" lon="-3.4925999120">
        <ele>1098.92</ele>
        <time>2020-09-06T07:27:24Z</time>
      </trkpt>
      <trkpt lat="37.2084999830" lon="-3.4925482795">
        <ele>1098.44</ele>
        <time>2020-09-06T07:27:25Z</time>
      </trkpt>
      <trkpt lat="37.2085096221" lon="-3.4924787935">
        <ele>1097.00</ele>
        <time>2020-09-06T07:27:26Z</time>
      </trkpt>
      <trkpt lat="37.2085164953" lon="-3.4923891909">
        <ele>1095.56</ele>
        <time>2020-09-06T07:27:27Z</time>
      </trkpt>
      <trkpt lat="37.2085281461" lon="-3.4923034441">
        <ele>1095.08</ele>
        <time>2020-09-06T07:27:28Z</time>
      </trkpt>
      <trkpt lat="37.2085480113" lon="-3.4922294319">
        <ele>1094.12</ele>
        <time>2020-09-06T07:27:29Z</time>
      </trkpt>
      <trkpt lat="37.2085875738" lon="-3.4921608679">
        <ele>1094.12</ele>
        <time>2020-09-06T07:27:30Z</time>
      </trkpt>
      <trkpt lat="37.2086449899" lon="-3.4920958243">
        <ele>1093.16</ele>
        <time>2020-09-06T07:27:31Z</time>
      </trkpt>
      <trkpt lat="37.2086972930" lon="-3.4920362290">
        <ele>1092.20</ele>
        <time>2020-09-06T07:27:32Z</time>
      </trkpt>
      <trkpt lat="37.2087499313" lon="-3.4919688385">
        <ele>1091.71</ele>
        <time>2020-09-06T07:27:33Z</time>
      </trkpt>
      <trkpt lat="37.2087982111" lon="-3.4918928146">
        <ele>1091.71</ele>
        <time>2020-09-06T07:27:34Z</time>
      </trkpt>
      <trkpt lat="37.2088360135" lon="-3.4918238316">
        <ele>1091.71</ele>
        <time>2020-09-06T07:27:35Z</time>
      </trkpt>
      <trkpt lat="37.2088755760" lon="-3.4917718638">
        <ele>1091.71</ele>
        <time>2020-09-06T07:27:36Z</time>
      </trkpt>
      <trkpt lat="37.2089220118" lon="-3.4917325526">
        <ele>1091.71</ele>
        <time>2020-09-06T07:27:37Z</time>
      </trkpt>
      <trkpt lat="37.2089658491" lon="-3.4917099215">
        <ele>1091.71</ele>
        <time>2020-09-06T07:27:38Z</time>
      </trkpt>
      <trkpt lat="37.2090125363" lon="-3.4917034674">
        <ele>1091.71</ele>
        <time>2020-09-06T07:27:39Z</time>
      </trkpt>
      <trkpt lat="37.2090580501" lon="-3.4917087480">
        <ele>1091.71</ele>
        <time>2020-09-06T07:27:40Z</time>
      </trkpt>
      <trkpt lat="37.2091540229" lon="-3.4917082451">
        <ele>1090.75</ele>
        <time>2020-09-06T07:27:42Z</time>
      </trkpt>
      <trkpt lat="37.2092028055" lon="-3.4916865360">
        <ele>1090.75</ele>
        <time>2020-09-06T07:27:43Z</time>
      </trkpt>
      <trkpt lat="37.2092521749" lon="-3.4916470572">
        <ele>1090.27</ele>
        <time>2020-09-06T07:27:44Z</time>
      </trkpt>
      <trkpt lat="37.2092903126" lon="-3.4916059859">
        <ele>1089.31</ele>
        <time>2020-09-06T07:27:45Z</time>
      </trkpt>
      <trkpt lat="37.2093288694" lon="-3.4915564489">
        <ele>1088.83</ele>
        <time>2020-09-06T07:27:46Z</time>
      </trkpt>
      <trkpt lat="37.2093689349" lon="-3.4915017150">
        <ele>1087.39</ele>
        <time>2020-09-06T07:27:47Z</time>
      </trkpt>
      <trkpt lat="37.2094121017" lon="-3.4914584644">
        <ele>1086.43</ele>
        <time>2020-09-06T07:27:48Z</time>
      </trkpt>
      <trkpt lat="37.2094690986" lon="-3.4914153814">
        <ele>1084.99</ele>
        <time>2020-09-06T07:27:49Z</time>
      </trkpt>
      <trkpt lat="37.2095276043" lon="-3.4913868830">
        <ele>1084.02</ele>
        <time>2020-09-06T07:27:50Z</time>
      </trkpt>
      <trkpt lat="37.2095901333" lon="-3.4913619049">
        <ele>1082.58</ele>
        <time>2020-09-06T07:27:51Z</time>
      </trkpt>
      <trkpt lat="37.2097007744" lon="-3.4913109429">
        <ele>1081.14</ele>
        <time>2020-09-06T07:27:53Z</time>
      </trkpt>
      <trkpt lat="37.2097646445" lon="-3.4912663512">
        <ele>1080.18</ele>
        <time>2020-09-06T07:27:54Z</time>
      </trkpt>
      <trkpt lat="37.2098294366" lon="-3.4912272077">
        <ele>1079.22</ele>
        <time>2020-09-06T07:27:55Z</time>
      </trkpt>
      <trkpt lat="37.2098969109" lon="-3.4911999665">
        <ele>1078.74</ele>
        <time>2020-09-06T07:27:56Z</time>
      </trkpt>
      <trkpt lat="37.2099637985" lon="-3.4911879804">
        <ele>1077.29</ele>
        <time>2020-09-06T07:27:57Z</time>
      </trkpt>
      <trkpt lat="37.2100292612" lon="-3.4911764134">
        <ele>1076.81</ele>
        <time>2020-09-06T07:27:58Z</time>
      </trkpt>
      <trkpt lat="37.2100748587" lon="-3.4911534470">
        <ele>1076.81</ele>
        <time>2020-09-06T07:27:59Z</time>
      </trkpt>
      <trkpt lat="37.2101127449" lon="-3.4911113698">
        <ele>1075.37</ele>
        <time>2020-09-06T07:28:00Z</time>
      </trkpt>
      <trkpt lat="37.2101279162" lon="-3.4910579771">
        <ele>1074.89</ele>
        <time>2020-09-06T07:28:01Z</time>
      </trkpt>
      <trkpt lat="37.2101140022" lon="-3.4909989685">
        <ele>1074.41</ele>
        <time>2020-09-06T07:28:02Z</time>
      </trkpt>
      <trkpt lat="37.2100786306" lon="-3.4909433965">
        <ele>1073.93</ele>
        <time>2020-09-06T07:28:03Z</time>
      </trkpt>
      <trkpt lat="37.2100259084" lon="-3.4908840526">
        <ele>1072.97</ele>
        <time>2020-09-06T07:28:04Z</time>
      </trkpt>
      <trkpt lat="37.2099689115" lon="-3.4908284806">
        <ele>1072.01</ele>
        <time>2020-09-06T07:28:05Z</time>
      </trkpt>
      <trkpt lat="37.2099146806" lon="-3.4907802846">
        <ele>1071.05</ele>
        <time>2020-09-06T07:28:06Z</time>
      </trkpt>
      <trkpt lat="37.2098485474" lon="-3.4907460865">
        <ele>1070.57</ele>
        <time>2020-09-06T07:28:07Z</time>
      </trkpt>
      <trkpt lat="37.2097836714" lon="-3.4907301608">
        <ele>1069.60</ele>
        <time>2020-09-06T07:28:08Z</time>
      </trkpt>
      <trkpt lat="37.2097252496" lon="-3.4907315858">
        <ele>1068.64</ele>
        <time>2020-09-06T07:28:09Z</time>
      </trkpt>
      <trkpt lat="37.2096578591" lon="-3.4907505289">
        <ele>1067.68</ele>
        <time>2020-09-06T07:28:10Z</time>
      </trkpt>
      <trkpt lat="37.2095925640" lon="-3.4907693043">
        <ele>1067.20</ele>
        <time>2020-09-06T07:28:11Z</time>
      </trkpt>
      <trkpt lat="37.2095285263" lon="-3.4907775186">
        <ele>1065.28</ele>
        <time>2020-09-06T07:28:12Z</time>
      </trkpt>
      <trkpt lat="37.2094530892" lon="-3.4907678794">
        <ele>1063.84</ele>
        <time>2020-09-06T07:28:13Z</time>
      </trkpt>
      <trkpt lat="37.2093717009" lon="-3.4907408897">
        <ele>1063.36</ele>
        <time>2020-09-06T07:28:14Z</time>
      </trkpt>
      <trkpt lat="37.2092965990" lon="-3.4907027520">
        <ele>1062.39</ele>
        <time>2020-09-06T07:28:15Z</time>
      </trkpt>
      <trkpt lat="37.2092261910" lon="-3.4906591661">
        <ele>1061.43</ele>
        <time>2020-09-06T07:28:16Z</time>
      </trkpt>
      <trkpt lat="37.2091517597" lon="-3.4906130657">
        <ele>1061.43</ele>
        <time>2020-09-06T07:28:17Z</time>
      </trkpt>
      <trkpt lat="37.2090270370" lon="-3.4905538056">
        <ele>1061.91</ele>
        <time>2020-09-06T07:28:19Z</time>
      </trkpt>
      <trkpt lat="37.2089616582" lon="-3.4905387182">
        <ele>1061.43</ele>
        <time>2020-09-06T07:28:20Z</time>
      </trkpt>
      <trkpt lat="37.2088995483" lon="-3.4905210324">
        <ele>1060.95</ele>
        <time>2020-09-06T07:28:21Z</time>
      </trkpt>
      <trkpt lat="37.2088532802" lon="-3.4904823918">
        <ele>1060.95</ele>
        <time>2020-09-06T07:28:22Z</time>
      </trkpt>
      <trkpt lat="37.2088309005" lon="-3.4904240537">
        <ele>1060.95</ele>
        <time>2020-09-06T07:28:23Z</time>
      </trkpt>
      <trkpt lat="37.2088288050" lon="-3.4903597645">
        <ele>1060.95</ele>
        <time>2020-09-06T07:28:24Z</time>
      </trkpt>
      <trkpt lat="37.2088394500" lon="-3.4903018456">
        <ele>1060.95</ele>
        <time>2020-09-06T07:28:25Z</time>
      </trkpt>
      <trkpt lat="37.2088579740" lon="-3.4902457707">
        <ele>1060.95</ele>
        <time>2020-09-06T07:28:26Z</time>
      </trkpt>
      <trkpt lat="37.2088805214" lon="-3.4901887737">
        <ele>1060.95</ele>
        <time>2020-09-06T07:28:27Z</time>
      </trkpt>
      <trkpt lat="37.2088997997" lon="-3.4901197907">
        <ele>1060.47</ele>
        <time>2020-09-06T07:28:28Z</time>
      </trkpt>
      <trkpt lat="37.2089123726" lon="-3.4900461975">
        <ele>1059.99</ele>
        <time>2020-09-06T07:28:29Z</time>
      </trkpt>
      <trkpt lat="37.2089196648" lon="-3.4899644740">
        <ele>1059.51</ele>
        <time>2020-09-06T07:28:30Z</time>
      </trkpt>
      <trkpt lat="37.2089339141" lon="-3.4897737019">
        <ele>1057.11</ele>
        <time>2020-09-06T07:28:32Z</time>
      </trkpt>
      <trkpt lat="37.2089462355" lon="-3.4896915592">
        <ele>1057.11</ele>
        <time>2020-09-06T07:28:33Z</time>
      </trkpt>
      <trkpt lat="37.2089640889" lon="-3.4896051418">
        <ele>1055.67</ele>
        <time>2020-09-06T07:28:34Z</time>
      </trkpt>
      <trkpt lat="37.2089914978" lon="-3.4895325545">
        <ele>1055.67</ele>
        <time>2020-09-06T07:28:35Z</time>
      </trkpt>
      <trkpt lat="37.2090254445" lon="-3.4894791618">
        <ele>1055.67</ele>
        <time>2020-09-06T07:28:36Z</time>
      </trkpt>
      <trkpt lat="37.2091358341" lon="-3.4893752262">
        <ele>1059.03</ele>
        <time>2020-09-06T07:28:40Z</time>
      </trkpt>
      <trkpt lat="37.2092458047" lon="-3.4892762359">
        <ele>1061.91</ele>
        <time>2020-09-06T07:28:46Z</time>
      </trkpt>
      <trkpt lat="37.2092848644" lon="-3.4892178141">
        <ele>1063.36</ele>
        <time>2020-09-06T07:28:49Z</time>
      </trkpt>
      <trkpt lat="37.2092932463" lon="-3.4891963564">
        <ele>1063.84</ele>
        <time>2020-09-06T07:28:50Z</time>
      </trkpt>
      <trkpt lat="37.2092988621" lon="-3.4891717136">
        <ele>1063.84</ele>
        <time>2020-09-06T07:28:51Z</time>
      </trkpt>
      <trkpt lat="37.2094343137" lon="-3.4887693822">
        <ele>1067.20</ele>
        <time>2020-09-06T07:29:06Z</time>
      </trkpt>
      <trkpt lat="37.2096493933" lon="-3.4887570608">
        <ele>1069.60</ele>
        <time>2020-09-06T07:29:15Z</time>
      </trkpt>
      <trkpt lat="37.2098743636" lon="-3.4883994889">
        <ele>1071.05</ele>
        <time>2020-09-06T07:29:29Z</time>
      </trkpt>
      <trkpt lat="37.2100764513" lon="-3.4880894423">
        <ele>1073.93</ele>
        <time>2020-09-06T07:29:42Z</time>
      </trkpt>
      <trkpt lat="37.2102076281" lon="-3.4878664836">
        <ele>1077.29</ele>
        <time>2020-09-06T07:29:53Z</time>
      </trkpt>
      <trkpt lat="37.2102161776" lon="-3.4878455289">
        <ele>1077.29</ele>
        <time>2020-09-06T07:29:54Z</time>
      </trkpt>
      <trkpt lat="37.2102237213" lon="-3.4878248256">
        <ele>1077.78</ele>
        <time>2020-09-06T07:29:55Z</time>
      </trkpt>
      <trkpt lat="37.2102335282" lon="-3.4878035355">
        <ele>1077.78</ele>
        <time>2020-09-06T07:29:56Z</time>
      </trkpt>
      <trkpt lat="37.2103840671" lon="-3.4874882922">
        <ele>1080.66</ele>
        <time>2020-09-06T07:30:09Z</time>
      </trkpt>
      <trkpt lat="37.2104446683" lon="-3.4869802650">
        <ele>1081.14</ele>
        <time>2020-09-06T07:30:22Z</time>
      </trkpt>
      <trkpt lat="37.2104443330" lon="-3.4869133774">
        <ele>1081.14</ele>
        <time>2020-09-06T07:30:23Z</time>
      </trkpt>
      <trkpt lat="37.2104573250" lon="-3.4867125470">
        <ele>1080.18</ele>
        <time>2020-09-06T07:30:26Z</time>
      </trkpt>
      <trkpt lat="37.2104711551" lon="-3.4866478387">
        <ele>1080.18</ele>
        <time>2020-09-06T07:30:27Z</time>
      </trkpt>
      <trkpt lat="37.2104900144" lon="-3.4865852259">
        <ele>1080.18</ele>
        <time>2020-09-06T07:30:28Z</time>
      </trkpt>
      <trkpt lat="37.2105128970" lon="-3.4865264688">
        <ele>1080.18</ele>
        <time>2020-09-06T07:30:29Z</time>
      </trkpt>
      <trkpt lat="37.2105382103" lon="-3.4864709806">
        <ele>1080.18</ele>
        <time>2020-09-06T07:30:30Z</time>
      </trkpt>
      <trkpt lat="37.2105689719" lon="-3.4864202701">
        <ele>1080.18</ele>
        <time>2020-09-06T07:30:31Z</time>
      </trkpt>
      <trkpt lat="37.2106057685" lon="-3.4863732476">
        <ele>1080.18</ele>
        <time>2020-09-06T07:30:32Z</time>
      </trkpt>
      <trkpt lat="37.2106482647" lon="-3.4863342717">
        <ele>1080.18</ele>
        <time>2020-09-06T07:30:33Z</time>
      </trkpt>
      <trkpt lat="37.2106949519" lon="-3.4863006603">
        <ele>1080.18</ele>
        <time>2020-09-06T07:30:34Z</time>
      </trkpt>
      <trkpt lat="37.2107418068" lon="-3.4862681385">
        <ele>1080.18</ele>
        <time>2020-09-06T07:30:35Z</time>
      </trkpt>
      <trkpt lat="37.2109697107" lon="-3.4859854169">
        <ele>1081.62</ele>
        <time>2020-09-06T07:30:43Z</time>
      </trkpt>
      <trkpt lat="37.2110547032" lon="-3.4856791422">
        <ele>1085.95</ele>
        <time>2020-09-06T07:30:52Z</time>
      </trkpt>
      <trkpt lat="37.2110625822" lon="-3.4856451955">
        <ele>1085.95</ele>
        <time>2020-09-06T07:30:53Z</time>
      </trkpt>
      <trkpt lat="37.2111209203" lon="-3.4855344705">
        <ele>1085.95</ele>
        <time>2020-09-06T07:30:57Z</time>
      </trkpt>
      <trkpt lat="37.2111285478" lon="-3.4855053853">
        <ele>1085.95</ele>
        <time>2020-09-06T07:30:58Z</time>
      </trkpt>
      <trkpt lat="37.2111331578" lon="-3.4854759648">
        <ele>1086.43</ele>
        <time>2020-09-06T07:30:59Z</time>
      </trkpt>
      <trkpt lat="37.2111377679" lon="-3.4854463767">
        <ele>1086.91</ele>
        <time>2020-09-06T07:31:00Z</time>
      </trkpt>
      <trkpt lat="37.2111383546" lon="-3.4854145255">
        <ele>1086.91</ele>
        <time>2020-09-06T07:31:01Z</time>
      </trkpt>
      <trkpt lat="37.2111368459" lon="-3.4853814170">
        <ele>1086.91</ele>
        <time>2020-09-06T07:31:02Z</time>
      </trkpt>
      <trkpt lat="37.2111615725" lon="-3.4849550296">
        <ele>1088.83</ele>
        <time>2020-09-06T07:31:14Z</time>
      </trkpt>
      <trkpt lat="37.2111894842" lon="-3.4846427198">
        <ele>1092.68</ele>
        <time>2020-09-06T07:31:25Z</time>
      </trkpt>
      <trkpt lat="37.2111962736" lon="-3.4846214298">
        <ele>1092.68</ele>
        <time>2020-09-06T07:31:26Z</time>
      </trkpt>
      <trkpt lat="37.2112686932" lon="-3.4844333399">
        <ele>1096.04</ele>
        <time>2020-09-06T07:31:35Z</time>
      </trkpt>
      <trkpt lat="37.2112999577" lon="-3.4843832999">
        <ele>1097.00</ele>
        <time>2020-09-06T07:31:38Z</time>
      </trkpt>
      <trkpt lat="37.2114023007" lon="-3.4842413943">
        <ele>1100.37</ele>
        <time>2020-09-06T07:31:47Z</time>
      </trkpt>
      <trkpt lat="37.2115879599" lon="-3.4839947987">
        <ele>1103.73</ele>
        <time>2020-09-06T07:32:01Z</time>
      </trkpt>
      <trkpt lat="37.2117791511" lon="-3.4838015120">
        <ele>1107.10</ele>
        <time>2020-09-06T07:32:14Z</time>
      </trkpt>
      <trkpt lat="37.2119083162" lon="-3.4834363963">
        <ele>1110.46</ele>
        <time>2020-09-06T07:32:29Z</time>
      </trkpt>
      <trkpt lat="37.2121156007" lon="-3.4830084164">
        <ele>1112.86</ele>
        <time>2020-09-06T07:32:44Z</time>
      </trkpt>
      <trkpt lat="37.2122709174" lon="-3.4823839646">
        <ele>1115.75</ele>
        <time>2020-09-06T07:33:01Z</time>
      </trkpt>
      <trkpt lat="37.2122657206" lon="-3.4822970442">
        <ele>1115.75</ele>
        <time>2020-09-06T07:33:10Z</time>
      </trkpt>
      <trkpt lat="37.2122672293" lon="-3.4822677076">
        <ele>1115.75</ele>
        <time>2020-09-06T07:33:16Z</time>
      </trkpt>
      <trkpt lat="37.2122693248" lon="-3.4822489321">
        <ele>1115.75</ele>
        <time>2020-09-06T07:33:17Z</time>
      </trkpt>
      <trkpt lat="37.2122698277" lon="-3.4822221939">
        <ele>1115.75</ele>
        <time>2020-09-06T07:33:18Z</time>
      </trkpt>
      <trkpt lat="37.2122678161" lon="-3.4821896721">
        <ele>1115.75</ele>
        <time>2020-09-06T07:33:19Z</time>
      </trkpt>
      <trkpt lat="37.2122648824" lon="-3.4821508639">
        <ele>1115.75</ele>
        <time>2020-09-06T07:33:20Z</time>
      </trkpt>
      <trkpt lat="37.2122648824" lon="-3.4821020812">
        <ele>1115.75</ele>
        <time>2020-09-06T07:33:21Z</time>
      </trkpt>
      <trkpt lat="37.2122706659" lon="-3.4820446651">
        <ele>1114.31</ele>
        <time>2020-09-06T07:33:22Z</time>
      </trkpt>
      <trkpt lat="37.2122865077" lon="-3.4819771070">
        <ele>1113.82</ele>
        <time>2020-09-06T07:33:23Z</time>
      </trkpt>
      <trkpt lat="37.2123103123" lon="-3.4819129016">
        <ele>1113.34</ele>
        <time>2020-09-06T07:33:24Z</time>
      </trkpt>
      <trkpt lat="37.2123405710" lon="-3.4818523005">
        <ele>1113.34</ele>
        <time>2020-09-06T07:33:25Z</time>
      </trkpt>
      <trkpt lat="37.2123760264" lon="-3.4818015900">
        <ele>1113.34</ele>
        <time>2020-09-06T07:33:26Z</time>
      </trkpt>
      <trkpt lat="37.2124131583" lon="-3.4817536455">
        <ele>1113.34</ele>
        <time>2020-09-06T07:33:27Z</time>
      </trkpt>
      <trkpt lat="37.2124459315" lon="-3.4816979058">
        <ele>1112.38</ele>
        <time>2020-09-06T07:33:28Z</time>
      </trkpt>
      <trkpt lat="37.2124751844" lon="-3.4816302639">
        <ele>1112.38</ele>
        <time>2020-09-06T07:33:29Z</time>
      </trkpt>
      <trkpt lat="37.2124997433" lon="-3.4815514740">
        <ele>1111.90</ele>
        <time>2020-09-06T07:33:30Z</time>
      </trkpt>
      <trkpt lat="37.2125193570" lon="-3.4814632963">
        <ele>1110.46</ele>
        <time>2020-09-06T07:33:31Z</time>
      </trkpt>
      <trkpt lat="37.2125417367" lon="-3.4813757055">
        <ele>1109.98</ele>
        <time>2020-09-06T07:33:32Z</time>
      </trkpt>
      <trkpt lat="37.2125730850" lon="-3.4812978376">
        <ele>1109.98</ele>
        <time>2020-09-06T07:33:33Z</time>
      </trkpt>
      <trkpt lat="37.2126036789" lon="-3.4812307823">
        <ele>1109.98</ele>
        <time>2020-09-06T07:33:34Z</time>
      </trkpt>
      <trkpt lat="37.2126293276" lon="-3.4811685048">
        <ele>1109.98</ele>
        <time>2020-09-06T07:33:35Z</time>
      </trkpt>
      <trkpt lat="37.2126673814" lon="-3.4810424410">
        <ele>1109.98</ele>
        <time>2020-09-06T07:33:37Z</time>
      </trkpt>
      <trkpt lat="37.2126733325" lon="-3.4809739608">
        <ele>1109.98</ele>
        <time>2020-09-06T07:33:38Z</time>
      </trkpt>
      <trkpt lat="37.2126648668" lon="-3.4809065703">
        <ele>1109.98</ele>
        <time>2020-09-06T07:33:39Z</time>
      </trkpt>
      <trkpt lat="37.2125955485" lon="-3.4806127846">
        <ele>1109.50</ele>
        <time>2020-09-06T07:33:43Z</time>
      </trkpt>
      <trkpt lat="37.2126005776" lon="-3.4805375990">
        <ele>1109.50</ele>
        <time>2020-09-06T07:33:44Z</time>
      </trkpt>
      <trkpt lat="37.2126246337" lon="-3.4804683644">
        <ele>1109.02</ele>
        <time>2020-09-06T07:33:45Z</time>
      </trkpt>
      <trkpt lat="37.2126606759" lon="-3.4804085176">
        <ele>1109.02</ele>
        <time>2020-09-06T07:33:46Z</time>
      </trkpt>
      <trkpt lat="37.2127079498" lon="-3.4803589806">
        <ele>1109.02</ele>
        <time>2020-09-06T07:33:47Z</time>
      </trkpt>
      <trkpt lat="37.2127616778" lon="-3.4803128801">
        <ele>1108.06</ele>
        <time>2020-09-06T07:33:48Z</time>
      </trkpt>
      <trkpt lat="37.2131309845" lon="-3.4800427314">
        <ele>1105.17</ele>
        <time>2020-09-06T07:33:54Z</time>
      </trkpt>
      <trkpt lat="37.2131946031" lon="-3.4800041746">
        <ele>1104.69</ele>
        <time>2020-09-06T07:33:55Z</time>
      </trkpt>
      <trkpt lat="37.2135121934" lon="-3.4797594231">
        <ele>1101.81</ele>
        <time>2020-09-06T07:34:00Z</time>
      </trkpt>
      <trkpt lat="37.2135758959" lon="-3.4796947986">
        <ele>1101.33</ele>
        <time>2020-09-06T07:34:01Z</time>
      </trkpt>
      <trkpt lat="37.2136333957" lon="-3.4796240553">
        <ele>1100.37</ele>
        <time>2020-09-06T07:34:02Z</time>
      </trkpt>
      <trkpt lat="37.2136817593" lon="-3.4795581736">
        <ele>1100.37</ele>
        <time>2020-09-06T07:34:03Z</time>
      </trkpt>
      <trkpt lat="37.2137788218" lon="-3.4794202913">
        <ele>1099.40</ele>
        <time>2020-09-06T07:34:06Z</time>
      </trkpt>
      <trkpt lat="37.2137955856" lon="-3.4793718439">
        <ele>1099.40</ele>
        <time>2020-09-06T07:34:07Z</time>
      </trkpt>
      <trkpt lat="37.2137974296" lon="-3.4793294314">
        <ele>1099.40</ele>
        <time>2020-09-06T07:34:08Z</time>
      </trkpt>
      <trkpt lat="37.2137975134" lon="-3.4791840892">
        <ele>1102.29</ele>
        <time>2020-09-06T07:34:13Z</time>
      </trkpt>
      <trkpt lat="37.2138374951" lon="-3.4790414292">
        <ele>1103.25</ele>
        <time>2020-09-06T07:34:19Z</time>
      </trkpt>
      <trkpt lat="37.2138467990" lon="-3.4790232405">
        <ele>1103.73</ele>
        <time>2020-09-06T07:34:20Z</time>
      </trkpt>
      <trkpt lat="37.2138547618" lon="-3.4790053871">
        <ele>1103.73</ele>
        <time>2020-09-06T07:34:21Z</time>
      </trkpt>
      <trkpt lat="37.2138605453" lon="-3.4789842647">
        <ele>1104.21</ele>
        <time>2020-09-06T07:34:22Z</time>
      </trkpt>
      <trkpt lat="37.2138619702" lon="-3.4789625555">
        <ele>1105.17</ele>
        <time>2020-09-06T07:34:23Z</time>
      </trkpt>
      <trkpt lat="37.2138207313" lon="-3.4788573626">
        <ele>1107.10</ele>
        <time>2020-09-06T07:34:29Z</time>
      </trkpt>
      <trkpt lat="37.2136345692" lon="-3.4787641559">
        <ele>1110.46</ele>
        <time>2020-09-06T07:34:41Z</time>
      </trkpt>
      <trkpt lat="37.2134215850" lon="-3.4786680155">
        <ele>1114.31</ele>
        <time>2020-09-06T07:34:54Z</time>
      </trkpt>
      <trkpt lat="37.2131831199" lon="-3.4786324762">
        <ele>1117.67</ele>
        <time>2020-09-06T07:35:08Z</time>
      </trkpt>
      <trkpt lat="37.2129089478" lon="-3.4788341448">
        <ele>1121.03</ele>
        <time>2020-09-06T07:35:23Z</time>
      </trkpt>
      <trkpt lat="37.2127227020" lon="-3.4789964184">
        <ele>1123.92</ele>
        <time>2020-09-06T07:35:34Z</time>
      </trkpt>
      <trkpt lat="37.2125489451" lon="-3.4789214004">
        <ele>1124.88</ele>
        <time>2020-09-06T07:35:42Z</time>
      </trkpt>
      <trkpt lat="37.2125214525" lon="-3.4788730368">
        <ele>1123.44</ele>
        <time>2020-09-06T07:35:43Z</time>
      </trkpt>
      <trkpt lat="37.2124995757" lon="-3.4788077418">
        <ele>1122.96</ele>
        <time>2020-09-06T07:35:44Z</time>
      </trkpt>
      <trkpt lat="37.2124854941" lon="-3.4787408542">
        <ele>1122.00</ele>
        <time>2020-09-06T07:35:45Z</time>
      </trkpt>
      <trkpt lat="37.2124626115" lon="-3.4786727093">
        <ele>1122.00</ele>
        <time>2020-09-06T07:35:46Z</time>
      </trkpt>
      <trkpt lat="37.2124220431" lon="-3.4786134493">
        <ele>1121.03</ele>
        <time>2020-09-06T07:35:47Z</time>
      </trkpt>
      <trkpt lat="37.2123708297" lon="-3.4785634093">
        <ele>1120.55</ele>
        <time>2020-09-06T07:35:48Z</time>
      </trkpt>
      <trkpt lat="37.2123153415" lon="-3.4785149619">
        <ele>1120.07</ele>
        <time>2020-09-06T07:35:49Z</time>
      </trkpt>
      <trkpt lat="37.2122566681" lon="-3.4784691967">
        <ele>1120.07</ele>
        <time>2020-09-06T07:35:50Z</time>
      </trkpt>
      <trkpt lat="37.2121917084" lon="-3.4784333222">
        <ele>1120.07</ele>
        <time>2020-09-06T07:35:51Z</time>
      </trkpt>
      <trkpt lat="37.2120705061" lon="-3.4783663508">
        <ele>1119.11</ele>
        <time>2020-09-06T07:35:53Z</time>
      </trkpt>
      <trkpt lat="37.2120359726" lon="-3.4783105273">
        <ele>1118.15</ele>
        <time>2020-09-06T07:35:54Z</time>
      </trkpt>
      <trkpt lat="37.2120243218" lon="-3.4782448970">
        <ele>1118.15</ele>
        <time>2020-09-06T07:35:55Z</time>
      </trkpt>
      <trkpt lat="37.2120253276" lon="-3.4781784285">
        <ele>1117.19</ele>
        <time>2020-09-06T07:35:56Z</time>
      </trkpt>
      <trkpt lat="37.2120199632" lon="-3.4781081881">
        <ele>1116.23</ele>
        <time>2020-09-06T07:35:57Z</time>
      </trkpt>
      <trkpt lat="37.2119934764" lon="-3.4780366067">
        <ele>1114.79</ele>
        <time>2020-09-06T07:35:58Z</time>
      </trkpt>
      <trkpt lat="37.2119493876" lon="-3.4779602475">
        <ele>1113.34</ele>
        <time>2020-09-06T07:35:59Z</time>
      </trkpt>
      <trkpt lat="37.2118975874" lon="-3.4778790269">
        <ele>1111.90</ele>
        <time>2020-09-06T07:36:00Z</time>
      </trkpt>
      <trkpt lat="37.2118359804" lon="-3.4778114688">
        <ele>1110.46</ele>
        <time>2020-09-06T07:36:01Z</time>
      </trkpt>
      <trkpt lat="37.2117646504" lon="-3.4777670447">
        <ele>1109.50</ele>
        <time>2020-09-06T07:36:02Z</time>
      </trkpt>
      <trkpt lat="37.2116809990" lon="-3.4777516220">
        <ele>1109.02</ele>
        <time>2020-09-06T07:36:03Z</time>
      </trkpt>
      <trkpt lat="37.2116058972" lon="-3.4777672961">
        <ele>1108.54</ele>
        <time>2020-09-06T07:36:04Z</time>
      </trkpt>
      <trkpt lat="37.2115287837" lon="-3.4777994826">
        <ele>1107.58</ele>
        <time>2020-09-06T07:36:05Z</time>
      </trkpt>
      <trkpt lat="37.2113734670" lon="-3.4778750874">
        <ele>1106.13</ele>
        <time>2020-09-06T07:36:07Z</time>
      </trkpt>
      <trkpt lat="37.2112070862" lon="-3.4779349342">
        <ele>1103.73</ele>
        <time>2020-09-06T07:36:09Z</time>
      </trkpt>
      <trkpt lat="37.2111264523" lon="-3.4779563081">
        <ele>1103.73</ele>
        <time>2020-09-06T07:36:10Z</time>
      </trkpt>
      <trkpt lat="37.2110487521" lon="-3.4779698867">
        <ele>1101.81</ele>
        <time>2020-09-06T07:36:11Z</time>
      </trkpt>
      <trkpt lat="37.2108805273" lon="-3.4779775143">
        <ele>1099.89</ele>
        <time>2020-09-06T07:36:13Z</time>
      </trkpt>
      <trkpt lat="37.2107970435" lon="-3.4779647738">
        <ele>1098.44</ele>
        <time>2020-09-06T07:36:14Z</time>
      </trkpt>
      <trkpt lat="37.2105543036" lon="-3.4779167455">
        <ele>1095.08</ele>
        <time>2020-09-06T07:36:17Z</time>
      </trkpt>
      <trkpt lat="37.2103790380" lon="-3.4779043403">
        <ele>1091.71</ele>
        <time>2020-09-06T07:36:19Z</time>
      </trkpt>
      <trkpt lat="37.2102263197" lon="-3.4778920189">
        <ele>1088.83</ele>
        <time>2020-09-06T07:36:21Z</time>
      </trkpt>
      <trkpt lat="37.2101643775" lon="-3.4778703097">
        <ele>1087.87</ele>
        <time>2020-09-06T07:36:22Z</time>
      </trkpt>
      <trkpt lat="37.2101197019" lon="-3.4778288193">
        <ele>1086.91</ele>
        <time>2020-09-06T07:36:23Z</time>
      </trkpt>
      <trkpt lat="37.2101030219" lon="-3.4777753428">
        <ele>1085.95</ele>
        <time>2020-09-06T07:36:24Z</time>
      </trkpt>
      <trkpt lat="37.2101218812" lon="-3.4777279850">
        <ele>1085.47</ele>
        <time>2020-09-06T07:36:25Z</time>
      </trkpt>
      <trkpt lat="37.2101693228" lon="-3.4777009953">
        <ele>1084.50</ele>
        <time>2020-09-06T07:36:26Z</time>
      </trkpt>
      <trkpt lat="37.2102258168" lon="-3.4776951279">
        <ele>1083.54</ele>
        <time>2020-09-06T07:36:27Z</time>
      </trkpt>
      <trkpt lat="37.2102792934" lon="-3.4776839800">
        <ele>1081.62</ele>
        <time>2020-09-06T07:36:28Z</time>
      </trkpt>
      <trkpt lat="37.2103238851" lon="-3.4776475187">
        <ele>1080.66</ele>
        <time>2020-09-06T07:36:29Z</time>
      </trkpt>
      <trkpt lat="37.2103504557" lon="-3.4775982331">
        <ele>1080.18</ele>
        <time>2020-09-06T07:36:30Z</time>
      </trkpt>
      <trkpt lat="37.2103527188" lon="-3.4775423259">
        <ele>1079.70</ele>
        <time>2020-09-06T07:36:31Z</time>
      </trkpt>
      <trkpt lat="37.2103331890" lon="-3.4774827305">
        <ele>1079.70</ele>
        <time>2020-09-06T07:36:32Z</time>
      </trkpt>
      <trkpt lat="37.2103028465" lon="-3.4774223808">
        <ele>1078.26</ele>
        <time>2020-09-06T07:36:33Z</time>
      </trkpt>
      <trkpt lat="37.2102770302" lon="-3.4773559961">
        <ele>1078.26</ele>
        <time>2020-09-06T07:36:34Z</time>
      </trkpt>
      <trkpt lat="37.2102649603" lon="-3.4772936348">
        <ele>1077.78</ele>
        <time>2020-09-06T07:36:35Z</time>
      </trkpt>
      <trkpt lat="37.2102630325" lon="-3.4772529826">
        <ele>1077.78</ele>
        <time>2020-09-06T07:36:36Z</time>
      </trkpt>
      <trkpt lat="37.2102647927" lon="-3.4772107378">
        <ele>1077.78</ele>
        <time>2020-09-06T07:36:40Z</time>
      </trkpt>
      <trkpt lat="37.2102678102" lon="-3.4771784674">
        <ele>1077.78</ele>
        <time>2020-09-06T07:36:41Z</time>
      </trkpt>
      <trkpt lat="37.2102656309" lon="-3.4771348815">
        <ele>1075.85</ele>
        <time>2020-09-06T07:36:42Z</time>
      </trkpt>
      <trkpt lat="37.2102492861" lon="-3.4770876914">
        <ele>1075.85</ele>
        <time>2020-09-06T07:36:43Z</time>
      </trkpt>
      <trkpt lat="37.2102108132" lon="-3.4770464525">
        <ele>1074.41</ele>
        <time>2020-09-06T07:36:44Z</time>
      </trkpt>
      <trkpt lat="37.2101547383" lon="-3.4770220611">
        <ele>1073.93</ele>
        <time>2020-09-06T07:36:45Z</time>
      </trkpt>
      <trkpt lat="37.2100938018" lon="-3.4770155232">
        <ele>1072.49</ele>
        <time>2020-09-06T07:36:46Z</time>
      </trkpt>
      <trkpt lat="37.2100308537" lon="-3.4770121705">
        <ele>1071.53</ele>
        <time>2020-09-06T07:36:47Z</time>
      </trkpt>
      <trkpt lat="37.2099693306" lon="-3.4770031180">
        <ele>1071.05</ele>
        <time>2020-09-06T07:36:48Z</time>
      </trkpt>
      <trkpt lat="37.2097807378" lon="-3.4769418463">
        <ele>1067.68</ele>
        <time>2020-09-06T07:36:51Z</time>
      </trkpt>
      <trkpt lat="37.2097249143" lon="-3.4768989310">
        <ele>1066.72</ele>
        <time>2020-09-06T07:36:52Z</time>
      </trkpt>
      <trkpt lat="37.2096803226" lon="-3.4768421855">
        <ele>1065.76</ele>
        <time>2020-09-06T07:36:53Z</time>
      </trkpt>
      <trkpt lat="37.2096483037" lon="-3.4767762199">
        <ele>1064.32</ele>
        <time>2020-09-06T07:36:54Z</time>
      </trkpt>
      <trkpt lat="37.2096289415" lon="-3.4767030459">
        <ele>1063.36</ele>
        <time>2020-09-06T07:36:55Z</time>
      </trkpt>
      <trkpt lat="37.2096079029" lon="-3.4766352363">
        <ele>1061.91</ele>
        <time>2020-09-06T07:36:56Z</time>
      </trkpt>
      <trkpt lat="37.2095758002" lon="-3.4765849449">
        <ele>1060.95</ele>
        <time>2020-09-06T07:36:57Z</time>
      </trkpt>
      <trkpt lat="37.2095412668" lon="-3.4765499923">
        <ele>1060.47</ele>
        <time>2020-09-06T07:36:58Z</time>
      </trkpt>
      <trkpt lat="37.2095093317" lon="-3.4765231702">
        <ele>1059.51</ele>
        <time>2020-09-06T07:36:59Z</time>
      </trkpt>
      <trkpt lat="37.2094821744" lon="-3.4764989465">
        <ele>1059.03</ele>
        <time>2020-09-06T07:37:00Z</time>
      </trkpt>
      <trkpt lat="37.2094568610" lon="-3.4764718730">
        <ele>1058.55</ele>
        <time>2020-09-06T07:37:01Z</time>
      </trkpt>
      <trkpt lat="37.2094306257" lon="-3.4764405247">
        <ele>1058.07</ele>
        <time>2020-09-06T07:37:02Z</time>
      </trkpt>
      <trkpt lat="37.2093853634" lon="-3.4763652552">
        <ele>1057.11</ele>
        <time>2020-09-06T07:37:04Z</time>
      </trkpt>
      <trkpt lat="37.2093743831" lon="-3.4763138741">
        <ele>1057.59</ele>
        <time>2020-09-06T07:37:05Z</time>
      </trkpt>
      <trkpt lat="37.2093750536" lon="-3.4762551170">
        <ele>1057.59</ele>
        <time>2020-09-06T07:37:06Z</time>
      </trkpt>
      <trkpt lat="37.2093945835" lon="-3.4761948511">
        <ele>1056.63</ele>
        <time>2020-09-06T07:37:07Z</time>
      </trkpt>
      <trkpt lat="37.2094329726" lon="-3.4761448111">
        <ele>1056.15</ele>
        <time>2020-09-06T07:37:08Z</time>
      </trkpt>
      <trkpt lat="37.2094819229" lon="-3.4761029016">
        <ele>1056.15</ele>
        <time>2020-09-06T07:37:09Z</time>
      </trkpt>
      <trkpt lat="37.2095296159" lon="-3.4760714695">
        <ele>1055.18</ele>
        <time>2020-09-06T07:37:10Z</time>
      </trkpt>
      <trkpt lat="37.2095685080" lon="-3.4760460723">
        <ele>1054.70</ele>
        <time>2020-09-06T07:37:11Z</time>
      </trkpt>
      <trkpt lat="37.2095970903" lon="-3.4760144725">
        <ele>1053.26</ele>
        <time>2020-09-06T07:37:12Z</time>
      </trkpt>
      <trkpt lat="37.2096051369" lon="-3.4759701323">
        <ele>1052.30</ele>
        <time>2020-09-06T07:37:13Z</time>
      </trkpt>
      <trkpt lat="37.2095888760" lon="-3.4759324137">
        <ele>1051.82</ele>
        <time>2020-09-06T07:37:14Z</time>
      </trkpt>
      <trkpt lat="37.2095546778" lon="-3.4759138897">
        <ele>1050.86</ele>
        <time>2020-09-06T07:37:15Z</time>
      </trkpt>
      <trkpt lat="37.2095143609" lon="-3.4759089444">
        <ele>1050.86</ele>
        <time>2020-09-06T07:37:16Z</time>
      </trkpt>
      <trkpt lat="37.2094706073" lon="-3.4758981317">
        <ele>1049.42</ele>
        <time>2020-09-06T07:37:17Z</time>
      </trkpt>
      <trkpt lat="37.2094222438" lon="-3.4758763388">
        <ele>1048.45</ele>
        <time>2020-09-06T07:37:18Z</time>
      </trkpt>
      <trkpt lat="37.2093190625" lon="-3.4757983033">
        <ele>1045.57</ele>
        <time>2020-09-06T07:37:20Z</time>
      </trkpt>
      <trkpt lat="37.2092750575" lon="-3.4757329244">
        <ele>1044.13</ele>
        <time>2020-09-06T07:37:21Z</time>
      </trkpt>
      <trkpt lat="37.2092361655" lon="-3.4756505303">
        <ele>1042.69</ele>
        <time>2020-09-06T07:37:22Z</time>
      </trkpt>
      <trkpt lat="37.2092034761" lon="-3.4755581617">
        <ele>1041.25</ele>
        <time>2020-09-06T07:37:23Z</time>
      </trkpt>
      <trkpt lat="37.2091732174" lon="-3.4754597582">
        <ele>1039.80</ele>
        <time>2020-09-06T07:37:24Z</time>
      </trkpt>
      <trkpt lat="37.2091395222" lon="-3.4753616899">
        <ele>1038.36</ele>
        <time>2020-09-06T07:37:25Z</time>
      </trkpt>
      <trkpt lat="37.2090958524" lon="-3.4752782062">
        <ele>1038.36</ele>
        <time>2020-09-06T07:37:26Z</time>
      </trkpt>
      <trkpt lat="37.2090412863" lon="-3.4752176888">
        <ele>1037.40</ele>
        <time>2020-09-06T07:37:27Z</time>
      </trkpt>
      <trkpt lat="37.2089823615" lon="-3.4751906153">
        <ele>1037.40</ele>
        <time>2020-09-06T07:37:28Z</time>
      </trkpt>
      <trkpt lat="37.2089222632" lon="-3.4751912020">
        <ele>1036.92</ele>
        <time>2020-09-06T07:37:29Z</time>
      </trkpt>
      <trkpt lat="37.2088660207" lon="-3.4752153419">
        <ele>1036.92</ele>
        <time>2020-09-06T07:37:30Z</time>
      </trkpt>
      <trkpt lat="37.2088143881" lon="-3.4752461873">
        <ele>1036.92</ele>
        <time>2020-09-06T07:37:31Z</time>
      </trkpt>
      <trkpt lat="37.2087599058" lon="-3.4752701595">
        <ele>1036.92</ele>
        <time>2020-09-06T07:37:32Z</time>
      </trkpt>
      <trkpt lat="37.2087105364" lon="-3.4752921201">
        <ele>1036.92</ele>
        <time>2020-09-06T07:37:33Z</time>
      </trkpt>
      <trkpt lat="37.2086590715" lon="-3.4753174335">
        <ele>1036.44</ele>
        <time>2020-09-06T07:37:34Z</time>
      </trkpt>
      <trkpt lat="37.2086047567" lon="-3.4753363766">
        <ele>1036.44</ele>
        <time>2020-09-06T07:37:35Z</time>
      </trkpt>
      <trkpt lat="37.2085537110" lon="-3.4753523860">
        <ele>1036.44</ele>
        <time>2020-09-06T07:37:36Z</time>
      </trkpt>
      <trkpt lat="37.2085030843" lon="-3.4753636178">
        <ele>1036.44</ele>
        <time>2020-09-06T07:37:37Z</time>
      </trkpt>
      <trkpt lat="37.2079953086" lon="-3.4754233807">
        <ele>1036.44</ele>
        <time>2020-09-06T07:37:47Z</time>
      </trkpt>
      <trkpt lat="37.2078929655" lon="-3.4754649550">
        <ele>1035.48</ele>
        <time>2020-09-06T07:37:49Z</time>
      </trkpt>
      <trkpt lat="37.2078418359" lon="-3.4754906036">
        <ele>1035.00</ele>
        <time>2020-09-06T07:37:50Z</time>
      </trkpt>
      <trkpt lat="37.2077282611" lon="-3.4755403083">
        <ele>1034.04</ele>
        <time>2020-09-06T07:37:52Z</time>
      </trkpt>
      <trkpt lat="37.2076726891" lon="-3.4755512048">
        <ele>1033.07</ele>
        <time>2020-09-06T07:37:53Z</time>
      </trkpt>
      <trkpt lat="37.2076164465" lon="-3.4755590837">
        <ele>1032.59</ele>
        <time>2020-09-06T07:37:54Z</time>
      </trkpt>
      <trkpt lat="37.2075628024" lon="-3.4755848162">
        <ele>1031.63</ele>
        <time>2020-09-06T07:37:55Z</time>
      </trkpt>
      <trkpt lat="37.2075125109" lon="-3.4756310005">
        <ele>1030.67</ele>
        <time>2020-09-06T07:37:56Z</time>
      </trkpt>
      <trkpt lat="37.2074773069" lon="-3.4756948706">
        <ele>1029.23</ele>
        <time>2020-09-06T07:37:57Z</time>
      </trkpt>
      <trkpt lat="37.2074554302" lon="-3.4757717326">
        <ele>1027.79</ele>
        <time>2020-09-06T07:37:58Z</time>
      </trkpt>
      <trkpt lat="37.2074455395" lon="-3.4758516960">
        <ele>1027.31</ele>
        <time>2020-09-06T07:37:59Z</time>
      </trkpt>
      <trkpt lat="37.2074405104" lon="-3.4759251215">
        <ele>1026.34</ele>
        <time>2020-09-06T07:38:00Z</time>
      </trkpt>
      <trkpt lat="37.2074258421" lon="-3.4759958647">
        <ele>1025.86</ele>
        <time>2020-09-06T07:38:01Z</time>
      </trkpt>
      <trkpt lat="37.2073933203" lon="-3.4760626685">
        <ele>1024.90</ele>
        <time>2020-09-06T07:38:02Z</time>
      </trkpt>
      <trkpt lat="37.2073483933" lon="-3.4761170670">
        <ele>1023.94</ele>
        <time>2020-09-06T07:38:03Z</time>
      </trkpt>
      <trkpt lat="37.2072959226" lon="-3.4761531092">
        <ele>1022.50</ele>
        <time>2020-09-06T07:38:04Z</time>
      </trkpt>
      <trkpt lat="37.2072421946" lon="-3.4761623293">
        <ele>1022.50</ele>
        <time>2020-09-06T07:38:05Z</time>
      </trkpt>
      <trkpt lat="37.2071854491" lon="-3.4761411231">
        <ele>1021.54</ele>
        <time>2020-09-06T07:38:06Z</time>
      </trkpt>
      <trkpt lat="37.2071313020" lon="-3.4760979563">
        <ele>1021.06</ele>
        <time>2020-09-06T07:38:07Z</time>
      </trkpt>
      <trkpt lat="37.2070804238" lon="-3.4760429710">
        <ele>1020.10</ele>
        <time>2020-09-06T07:38:08Z</time>
      </trkpt>
      <trkpt lat="37.2070311382" lon="-3.4759817831">
        <ele>1019.62</ele>
        <time>2020-09-06T07:38:09Z</time>
      </trkpt>
      <trkpt lat="37.2069829423" lon="-3.4759112913">
        <ele>1018.65</ele>
        <time>2020-09-06T07:38:10Z</time>
      </trkpt>
      <trkpt lat="37.2069379315" lon="-3.4758278076">
        <ele>1018.17</ele>
        <time>2020-09-06T07:38:11Z</time>
      </trkpt>
      <trkpt lat="37.2068898194" lon="-3.4757494368">
        <ele>1017.21</ele>
        <time>2020-09-06T07:38:12Z</time>
      </trkpt>
      <trkpt lat="37.2068316489" lon="-3.4756799508">
        <ele>1016.25</ele>
        <time>2020-09-06T07:38:13Z</time>
      </trkpt>
      <trkpt lat="37.2067818604" lon="-3.4756063577">
        <ele>1016.25</ele>
        <time>2020-09-06T07:38:14Z</time>
      </trkpt>
      <trkpt lat="37.2067421302" lon="-3.4755218681">
        <ele>1015.29</ele>
        <time>2020-09-06T07:38:15Z</time>
      </trkpt>
      <trkpt lat="37.2067102790" lon="-3.4754281584">
        <ele>1014.33</ele>
        <time>2020-09-06T07:38:16Z</time>
      </trkpt>
      <trkpt lat="37.2066786792" lon="-3.4753376339">
        <ele>1014.33</ele>
        <time>2020-09-06T07:38:17Z</time>
      </trkpt>
      <trkpt lat="37.2066403739" lon="-3.4752559103">
        <ele>1012.89</ele>
        <time>2020-09-06T07:38:18Z</time>
      </trkpt>
      <trkpt lat="37.2066004761" lon="-3.4751889389">
        <ele>1012.41</ele>
        <time>2020-09-06T07:38:19Z</time>
      </trkpt>
      <trkpt lat="37.2065697145" lon="-3.4751227219">
        <ele>1010.96</ele>
        <time>2020-09-06T07:38:20Z</time>
      </trkpt>
      <trkpt lat="37.2065564711" lon="-3.4750475362">
        <ele>1010.48</ele>
        <time>2020-09-06T07:38:21Z</time>
      </trkpt>
      <trkpt lat="37.2065627575" lon="-3.4749771282">
        <ele>1009.52</ele>
        <time>2020-09-06T07:38:22Z</time>
      </trkpt>
      <trkpt lat="37.2065844666" lon="-3.4749083128">
        <ele>1008.56</ele>
        <time>2020-09-06T07:38:23Z</time>
      </trkpt>
      <trkpt lat="37.2066080198" lon="-3.4748359770">
        <ele>1007.60</ele>
        <time>2020-09-06T07:38:24Z</time>
      </trkpt>
      <trkpt lat="37.2066201735" lon="-3.4747564327">
        <ele>1006.64</ele>
        <time>2020-09-06T07:38:25Z</time>
      </trkpt>
      <trkpt lat="37.2066119593" lon="-3.4746784810">
        <ele>1005.68</ele>
        <time>2020-09-06T07:38:26Z</time>
      </trkpt>
      <trkpt lat="37.2065847181" lon="-3.4746071510">
        <ele>1003.75</ele>
        <time>2020-09-06T07:38:27Z</time>
      </trkpt>
      <trkpt lat="37.2065415513" lon="-3.4745426942">
        <ele>1006.16</ele>
        <time>2020-09-06T07:38:28Z</time>
      </trkpt>
      <trkpt lat="37.2064868174" lon="-3.4744862840">
        <ele>1004.72</ele>
        <time>2020-09-06T07:38:29Z</time>
      </trkpt>
      <trkpt lat="37.2064260487" lon="-3.4744307119">
        <ele>1003.27</ele>
        <time>2020-09-06T07:38:30Z</time>
      </trkpt>
      <trkpt lat="37.2061761841" lon="-3.4742126148">
        <ele>1000.39</ele>
        <time>2020-09-06T07:38:34Z</time>
      </trkpt>
      <trkpt lat="37.2061268985" lon="-3.4741581324">
        <ele>999.91</ele>
        <time>2020-09-06T07:38:35Z</time>
      </trkpt>
      <trkpt lat="37.2060916107" lon="-3.4740937594">
        <ele>998.95</ele>
        <time>2020-09-06T07:38:36Z</time>
      </trkpt>
      <trkpt lat="37.2060795408" lon="-3.4740153886">
        <ele>997.99</ele>
        <time>2020-09-06T07:38:37Z</time>
      </trkpt>
      <trkpt lat="37.2060866654" lon="-3.4739315696">
        <ele>997.51</ele>
        <time>2020-09-06T07:38:38Z</time>
      </trkpt>
      <trkpt lat="37.2061030939" lon="-3.4738464095">
        <ele>996.54</ele>
        <time>2020-09-06T07:38:39Z</time>
      </trkpt>
      <trkpt lat="37.2061156668" lon="-3.4737573098">
        <ele>996.54</ele>
        <time>2020-09-06T07:38:40Z</time>
      </trkpt>
      <trkpt lat="37.2061130684" lon="-3.4736737423">
        <ele>996.06</ele>
        <time>2020-09-06T07:38:41Z</time>
      </trkpt>
      <trkpt lat="37.2060965560" lon="-3.4735864028">
        <ele>996.06</ele>
        <time>2020-09-06T07:38:42Z</time>
      </trkpt>
      <trkpt lat="37.2060713265" lon="-3.4734944534">
        <ele>995.58</ele>
        <time>2020-09-06T07:38:43Z</time>
      </trkpt>
      <trkpt lat="37.2060432471" lon="-3.4734055214">
        <ele>995.58</ele>
        <time>2020-09-06T07:38:44Z</time>
      </trkpt>
      <trkpt lat="37.2060121503" lon="-3.4733203612">
        <ele>995.58</ele>
        <time>2020-09-06T07:38:45Z</time>
      </trkpt>
      <trkpt lat="37.2059901059" lon="-3.4732463490">
        <ele>995.58</ele>
        <time>2020-09-06T07:38:46Z</time>
      </trkpt>
      <trkpt lat="37.2059810534" lon="-3.4731648769">
        <ele>995.58</ele>
        <time>2020-09-06T07:38:47Z</time>
      </trkpt>
      <trkpt lat="37.2059836518" lon="-3.4730888531">
        <ele>995.58</ele>
        <time>2020-09-06T07:38:48Z</time>
      </trkpt>
      <trkpt lat="37.2060037684" lon="-3.4728875197">
        <ele>994.62</ele>
        <time>2020-09-06T07:38:51Z</time>
      </trkpt>
      <trkpt lat="37.2060181014" lon="-3.4728223924">
        <ele>994.14</ele>
        <time>2020-09-06T07:38:52Z</time>
      </trkpt>
      <trkpt lat="37.2060479410" lon="-3.4726680815">
        <ele>992.22</ele>
        <time>2020-09-06T07:38:54Z</time>
      </trkpt>
      <trkpt lat="37.2060528863" lon="-3.4725763835">
        <ele>991.74</ele>
        <time>2020-09-06T07:38:55Z</time>
      </trkpt>
      <trkpt lat="37.2060481925" lon="-3.4724871162">
        <ele>991.26</ele>
        <time>2020-09-06T07:38:56Z</time>
      </trkpt>
      <trkpt lat="37.2060352843" lon="-3.4724069852">
        <ele>989.81</ele>
        <time>2020-09-06T07:38:57Z</time>
      </trkpt>
      <trkpt lat="37.2060173471" lon="-3.4723376669">
        <ele>988.85</ele>
        <time>2020-09-06T07:38:58Z</time>
      </trkpt>
      <trkpt lat="37.2059900220" lon="-3.4722888004">
        <ele>988.37</ele>
        <time>2020-09-06T07:38:59Z</time>
      </trkpt>
      <trkpt lat="37.2059518006" lon="-3.4722669236">
        <ele>987.41</ele>
        <time>2020-09-06T07:39:00Z</time>
      </trkpt>
      <trkpt lat="37.2059118189" lon="-3.4722663369">
        <ele>987.41</ele>
        <time>2020-09-06T07:39:01Z</time>
      </trkpt>
      <trkpt lat="37.2058759443" lon="-3.4722846933">
        <ele>987.41</ele>
        <time>2020-09-06T07:39:02Z</time>
      </trkpt>
      <trkpt lat="37.2058405727" lon="-3.4723047260">
        <ele>986.93</ele>
        <time>2020-09-06T07:39:03Z</time>
      </trkpt>
      <trkpt lat="37.2058043629" lon="-3.4723135270">
        <ele>986.93</ele>
        <time>2020-09-06T07:39:04Z</time>
      </trkpt>
      <trkpt lat="37.2057715897" lon="-3.4723147005">
        <ele>986.93</ele>
        <time>2020-09-06T07:39:05Z</time>
      </trkpt>
      <trkpt lat="37.2056264989" lon="-3.4723459650">
        <ele>989.81</ele>
        <time>2020-09-06T07:39:11Z</time>
      </trkpt>
      <trkpt lat="37.2055026982" lon="-3.4724005312">
        <ele>993.18</ele>
        <time>2020-09-06T07:39:18Z</time>
      </trkpt>
      <trkpt lat="37.2054854315" lon="-3.4724138584">
        <ele>993.18</ele>
        <time>2020-09-06T07:39:19Z</time>
      </trkpt>
      <trkpt lat="37.2052944079" lon="-3.4725994337">
        <ele>996.54</ele>
        <time>2020-09-06T07:39:30Z</time>
      </trkpt>
      <trkpt lat="37.2050814237" lon="-3.4726899583">
        <ele>998.95</ele>
        <time>2020-09-06T07:39:40Z</time>
      </trkpt>
      <trkpt lat="37.2049215809" lon="-3.4728345461">
        <ele>1002.31</ele>
        <time>2020-09-06T07:39:50Z</time>
      </trkpt>
      <trkpt lat="37.2046817746" lon="-3.4730412439">
        <ele>1004.72</ele>
        <time>2020-09-06T07:40:03Z</time>
      </trkpt>
      <trkpt lat="37.2043708898" lon="-3.4732745122">
        <ele>1006.64</ele>
        <time>2020-09-06T07:40:16Z</time>
      </trkpt>
      <trkpt lat="37.2043415532" lon="-3.4732657950">
        <ele>1006.64</ele>
        <time>2020-09-06T07:40:17Z</time>
      </trkpt>
      <trkpt lat="37.2043149825" lon="-3.4732484445">
        <ele>1006.64</ele>
        <time>2020-09-06T07:40:18Z</time>
      </trkpt>
      <trkpt lat="37.2042907588" lon="-3.4732269868">
        <ele>1006.64</ele>
        <time>2020-09-06T07:40:19Z</time>
      </trkpt>
      <trkpt lat="37.2042682953" lon="-3.4732015897">
        <ele>1006.64</ele>
        <time>2020-09-06T07:40:20Z</time>
      </trkpt>
      <trkpt lat="37.2040583286" lon="-3.4730401542">
        <ele>1009.04</ele>
        <time>2020-09-06T07:40:30Z</time>
      </trkpt>
      <trkpt lat="37.2038849909" lon="-3.4729399066">
        <ele>1012.89</ele>
        <time>2020-09-06T07:40:40Z</time>
      </trkpt>
      <trkpt lat="37.2038276587" lon="-3.4729383141">
        <ele>1013.85</ele>
        <time>2020-09-06T07:40:43Z</time>
      </trkpt>
      <trkpt lat="37.2038113978" lon="-3.4729511384">
        <ele>1013.85</ele>
        <time>2020-09-06T07:40:44Z</time>
      </trkpt>
      <trkpt lat="37.2037971485" lon="-3.4729695786">
        <ele>1013.85</ele>
        <time>2020-09-06T07:40:45Z</time>
      </trkpt>
      <trkpt lat="37.2037859168" lon="-3.4729907010">
        <ele>1013.85</ele>
        <time>2020-09-06T07:40:46Z</time>
      </trkpt>
      <trkpt lat="37.2037746012" lon="-3.4730083030">
        <ele>1014.33</ele>
        <time>2020-09-06T07:40:47Z</time>
      </trkpt>
      <trkpt lat="37.2037621122" lon="-3.4730237257">
        <ele>1015.29</ele>
        <time>2020-09-06T07:40:48Z</time>
      </trkpt>
      <trkpt lat="37.2037478629" lon="-3.4730376396">
        <ele>1015.29</ele>
        <time>2020-09-06T07:40:49Z</time>
      </trkpt>
      <trkpt lat="37.2036806401" lon="-3.4730626177">
        <ele>1016.25</ele>
        <time>2020-09-06T07:40:53Z</time>
      </trkpt>
      <trkpt lat="37.2036618646" lon="-3.4730575886">
        <ele>1016.73</ele>
        <time>2020-09-06T07:40:54Z</time>
      </trkpt>
      <trkpt lat="37.2036425862" lon="-3.4730509669">
        <ele>1016.73</ele>
        <time>2020-09-06T07:40:55Z</time>
      </trkpt>
      <trkpt lat="37.2036228050" lon="-3.4730462730">
        <ele>1017.21</ele>
        <time>2020-09-06T07:40:56Z</time>
      </trkpt>
      <trkpt lat="37.2036023531" lon="-3.4730396513">
        <ele>1017.21</ele>
        <time>2020-09-06T07:40:57Z</time>
      </trkpt>
      <trkpt lat="37.2034162749" lon="-3.4729762003">
        <ele>1020.58</ele>
        <time>2020-09-06T07:41:07Z</time>
      </trkpt>
      <trkpt lat="37.2032140195" lon="-3.4729947243">
        <ele>1023.94</ele>
        <time>2020-09-06T07:41:18Z</time>
      </trkpt>
      <trkpt lat="37.2030772269" lon="-3.4729370568">
        <ele>1025.38</ele>
        <time>2020-09-06T07:41:25Z</time>
      </trkpt>
      <trkpt lat="37.2030664980" lon="-3.4729034454">
        <ele>1025.38</ele>
        <time>2020-09-06T07:41:26Z</time>
      </trkpt>
      <trkpt lat="37.2030267678" lon="-3.4727662336">
        <ele>1023.94</ele>
        <time>2020-09-06T07:41:29Z</time>
      </trkpt>
      <trkpt lat="37.2029980179" lon="-3.4726699255">
        <ele>1022.98</ele>
        <time>2020-09-06T07:41:31Z</time>
      </trkpt>
      <trkpt lat="37.2029835172" lon="-3.4726179577">
        <ele>1022.98</ele>
        <time>2020-09-06T07:41:32Z</time>
      </trkpt>
      <trkpt lat="37.2029688489" lon="-3.4725661576">
        <ele>1022.50</ele>
        <time>2020-09-06T07:41:33Z</time>
      </trkpt>
      <trkpt lat="37.2029289510" lon="-3.4724648204">
        <ele>1022.50</ele>
        <time>2020-09-06T07:41:35Z</time>
      </trkpt>
      <trkpt lat="37.2029046435" lon="-3.4724201448">
        <ele>1022.50</ele>
        <time>2020-09-06T07:41:36Z</time>
      </trkpt>
      <trkpt lat="37.2028787434" lon="-3.4723797441">
        <ele>1022.50</ele>
        <time>2020-09-06T07:41:37Z</time>
      </trkpt>
      <trkpt lat="37.2026230954" lon="-3.4719603974">
        <ele>1022.50</ele>
        <time>2020-09-06T07:41:48Z</time>
      </trkpt>
      <trkpt lat="37.2025920823" lon="-3.4719013050">
        <ele>1022.50</ele>
        <time>2020-09-06T07:41:49Z</time>
      </trkpt>
      <trkpt lat="37.2025163099" lon="-3.4717826173">
        <ele>1021.06</ele>
        <time>2020-09-06T07:41:51Z</time>
      </trkpt>
      <trkpt lat="37.2024665214" lon="-3.4717267100">
        <ele>1020.10</ele>
        <time>2020-09-06T07:41:52Z</time>
      </trkpt>
      <trkpt lat="37.2021548823" lon="-3.4714374505">
        <ele>1016.25</ele>
        <time>2020-09-06T07:41:57Z</time>
      </trkpt>
      <trkpt lat="37.2020892520" lon="-3.4713631030">
        <ele>1014.81</ele>
        <time>2020-09-06T07:41:58Z</time>
      </trkpt>
      <trkpt lat="37.2018335201" lon="-3.4710048605">
        <ele>1011.44</ele>
        <time>2020-09-06T07:42:02Z</time>
      </trkpt>
      <trkpt lat="37.2017519642" lon="-3.4709136654">
        <ele>1010.48</ele>
        <time>2020-09-06T07:42:03Z</time>
      </trkpt>
      <trkpt lat="37.2014974896" lon="-3.4706531558">
        <ele>1007.60</ele>
        <time>2020-09-06T07:42:06Z</time>
      </trkpt>
      <trkpt lat="37.2013920452" lon="-3.4705840051">
        <ele>1006.16</ele>
        <time>2020-09-06T07:42:07Z</time>
      </trkpt>
      <trkpt lat="37.2011629678" lon="-3.4704706818">
        <ele>1004.23</ele>
        <time>2020-09-06T07:42:09Z</time>
      </trkpt>
      <trkpt lat="37.2010564338" lon="-3.4703994356">
        <ele>1003.27</ele>
        <time>2020-09-06T07:42:10Z</time>
      </trkpt>
      <trkpt lat="37.2008494847" lon="-3.4702390060">
        <ele>1001.35</ele>
        <time>2020-09-06T07:42:12Z</time>
      </trkpt>
      <trkpt lat="37.2004197445" lon="-3.4699986968">
        <ele>997.51</ele>
        <time>2020-09-06T07:42:16Z</time>
      </trkpt>
      <trkpt lat="37.2001823690" lon="-3.4699109383">
        <ele>993.66</ele>
        <time>2020-09-06T07:42:18Z</time>
      </trkpt>
      <trkpt lat="37.2000688780" lon="-3.4698259458">
        <ele>991.74</ele>
        <time>2020-09-06T07:42:19Z</time>
      </trkpt>
      <trkpt lat="37.1999674570" lon="-3.4697174001">
        <ele>989.81</ele>
        <time>2020-09-06T07:42:20Z</time>
      </trkpt>
      <trkpt lat="37.1998768486" lon="-3.4695965331">
        <ele>988.37</ele>
        <time>2020-09-06T07:42:21Z</time>
      </trkpt>
      <trkpt lat="37.1997913532" lon="-3.4694715589">
        <ele>986.93</ele>
        <time>2020-09-06T07:42:22Z</time>
      </trkpt>
      <trkpt lat="37.1996366233" lon="-3.4692248795">
        <ele>984.53</ele>
        <time>2020-09-06T07:42:24Z</time>
      </trkpt>
      <trkpt lat="37.1995845716" lon="-3.4690873325">
        <ele>983.09</ele>
        <time>2020-09-06T07:42:25Z</time>
      </trkpt>
      <trkpt lat="37.1994527243" lon="-3.4686508868">
        <ele>979.72</ele>
        <time>2020-09-06T07:42:28Z</time>
      </trkpt>
      <trkpt lat="37.1993135009" lon="-3.4682158660">
        <ele>976.36</ele>
        <time>2020-09-06T07:42:31Z</time>
      </trkpt>
      <trkpt lat="37.1992238984" lon="-3.4677796718">
        <ele>972.51</ele>
        <time>2020-09-06T07:42:34Z</time>
      </trkpt>
      <trkpt lat="37.1991741098" lon="-3.4673780110">
        <ele>967.70</ele>
        <time>2020-09-06T07:42:37Z</time>
      </trkpt>
      <trkpt lat="37.1991544124" lon="-3.4671255480">
        <ele>963.86</ele>
        <time>2020-09-06T07:42:39Z</time>
      </trkpt>
      <trkpt lat="37.1991337091" lon="-3.4669985622">
        <ele>962.42</ele>
        <time>2020-09-06T07:42:40Z</time>
      </trkpt>
      <trkpt lat="37.1991005167" lon="-3.4668649547">
        <ele>960.98</ele>
        <time>2020-09-06T07:42:41Z</time>
      </trkpt>
      <trkpt lat="37.1990546677" lon="-3.4667270724">
        <ele>959.05</ele>
        <time>2020-09-06T07:42:42Z</time>
      </trkpt>
      <trkpt lat="37.1990022808" lon="-3.4665896092">
        <ele>957.13</ele>
        <time>2020-09-06T07:42:43Z</time>
      </trkpt>
      <trkpt lat="37.1989413444" lon="-3.4664657246">
        <ele>955.21</ele>
        <time>2020-09-06T07:42:44Z</time>
      </trkpt>
      <trkpt lat="37.1987944096" lon="-3.4662239067">
        <ele>952.32</ele>
        <time>2020-09-06T07:42:46Z</time>
      </trkpt>
      <trkpt lat="37.1987142786" lon="-3.4661043808">
        <ele>950.40</ele>
        <time>2020-09-06T07:42:47Z</time>
      </trkpt>
      <trkpt lat="37.1986361593" lon="-3.4659928177">
        <ele>948.96</ele>
        <time>2020-09-06T07:42:48Z</time>
      </trkpt>
      <trkpt lat="37.1985737979" lon="-3.4658729564">
        <ele>948.00</ele>
        <time>2020-09-06T07:42:49Z</time>
      </trkpt>
      <trkpt lat="37.1985273622" lon="-3.4657372534">
        <ele>947.04</ele>
        <time>2020-09-06T07:42:50Z</time>
      </trkpt>
      <trkpt lat="37.1984836925" lon="-3.4655977786">
        <ele>946.07</ele>
        <time>2020-09-06T07:42:51Z</time>
      </trkpt>
      <trkpt lat="37.1984258574" lon="-3.4654690325">
        <ele>944.63</ele>
        <time>2020-09-06T07:42:52Z</time>
      </trkpt>
      <trkpt lat="37.1983484086" lon="-3.4653533623">
        <ele>942.71</ele>
        <time>2020-09-06T07:42:53Z</time>
      </trkpt>
      <trkpt lat="37.1982684452" lon="-3.4652385302">
        <ele>941.27</ele>
        <time>2020-09-06T07:42:54Z</time>
      </trkpt>
      <trkpt lat="37.1982064191" lon="-3.4651133884">
        <ele>939.83</ele>
        <time>2020-09-06T07:42:55Z</time>
      </trkpt>
      <trkpt lat="37.1981669404" lon="-3.4649773501">
        <ele>938.38</ele>
        <time>2020-09-06T07:42:56Z</time>
      </trkpt>
      <trkpt lat="37.1981424652" lon="-3.4648497775">
        <ele>936.94</ele>
        <time>2020-09-06T07:42:57Z</time>
      </trkpt>
      <trkpt lat="37.1981100272" lon="-3.4647442494">
        <ele>935.50</ele>
        <time>2020-09-06T07:42:58Z</time>
      </trkpt>
      <trkpt lat="37.1980695426" lon="-3.4646771941">
        <ele>934.54</ele>
        <time>2020-09-06T07:42:59Z</time>
      </trkpt>
      <trkpt lat="37.1980239451" lon="-3.4646409843">
        <ele>933.58</ele>
        <time>2020-09-06T07:43:00Z</time>
      </trkpt>
      <trkpt lat="37.1979728155" lon="-3.4646196105">
        <ele>933.10</ele>
        <time>2020-09-06T07:43:01Z</time>
      </trkpt>
      <trkpt lat="37.1979213506" lon="-3.4645993263">
        <ele>934.54</ele>
        <time>2020-09-06T07:43:02Z</time>
      </trkpt>
      <trkpt lat="37.1978733223" lon="-3.4645735938">
        <ele>935.50</ele>
        <time>2020-09-06T07:43:03Z</time>
      </trkpt>
      <trkpt lat="37.1978321671" lon="-3.4645450115">
        <ele>935.50</ele>
        <time>2020-09-06T07:43:04Z</time>
      </trkpt>
      <trkpt lat="37.1977304947" lon="-3.4644735139">
        <ele>937.42</ele>
        <time>2020-09-06T07:43:07Z</time>
      </trkpt>
      <trkpt lat="37.1973247267" lon="-3.4644020163">
        <ele>939.35</ele>
        <time>2020-09-06T07:43:18Z</time>
      </trkpt>
      <trkpt lat="37.1972637903" lon="-3.4644088894">
        <ele>937.90</ele>
        <time>2020-09-06T07:43:19Z</time>
      </trkpt>
      <trkpt lat="37.1971988305" lon="-3.4644238930">
        <ele>936.94</ele>
        <time>2020-09-06T07:43:20Z</time>
      </trkpt>
      <trkpt lat="37.1971315239" lon="-3.4644364659">
        <ele>935.98</ele>
        <time>2020-09-06T07:43:21Z</time>
      </trkpt>
      <trkpt lat="37.1970560867" lon="-3.4644328617">
        <ele>935.02</ele>
        <time>2020-09-06T07:43:22Z</time>
      </trkpt>
      <trkpt lat="37.1969745308" lon="-3.4644077159">
        <ele>933.58</ele>
        <time>2020-09-06T07:43:23Z</time>
      </trkpt>
      <trkpt lat="37.1968852635" lon="-3.4643664770">
        <ele>932.62</ele>
        <time>2020-09-06T07:43:24Z</time>
      </trkpt>
      <trkpt lat="37.1967048012" lon="-3.4642987512">
        <ele>930.69</ele>
        <time>2020-09-06T07:43:26Z</time>
      </trkpt>
      <trkpt lat="37.1966120135" lon="-3.4642811492">
        <ele>929.73</ele>
        <time>2020-09-06T07:43:27Z</time>
      </trkpt>
      <trkpt lat="37.1961981989" lon="-3.4642618708">
        <ele>925.89</ele>
        <time>2020-09-06T07:43:31Z</time>
      </trkpt>
      <trkpt lat="37.1959806047" lon="-3.4642798081">
        <ele>923.48</ele>
        <time>2020-09-06T07:43:33Z</time>
      </trkpt>
      <trkpt lat="37.1958786808" lon="-3.4642745275">
        <ele>923.48</ele>
        <time>2020-09-06T07:43:34Z</time>
      </trkpt>
      <trkpt lat="37.1957772598" lon="-3.4642539080">
        <ele>922.52</ele>
        <time>2020-09-06T07:43:35Z</time>
      </trkpt>
      <trkpt lat="37.1956762578" lon="-3.4642176982">
        <ele>921.56</ele>
        <time>2020-09-06T07:43:36Z</time>
      </trkpt>
      <trkpt lat="37.1955838893" lon="-3.4641865175">
        <ele>920.60</ele>
        <time>2020-09-06T07:43:37Z</time>
      </trkpt>
      <trkpt lat="37.1954958793" lon="-3.4641693346">
        <ele>919.64</ele>
        <time>2020-09-06T07:43:38Z</time>
      </trkpt>
      <trkpt lat="37.1954178438" lon="-3.4641689993">
        <ele>918.68</ele>
        <time>2020-09-06T07:43:39Z</time>
      </trkpt>
      <trkpt lat="37.1953528840" lon="-3.4641842544">
        <ele>917.72</ele>
        <time>2020-09-06T07:43:40Z</time>
      </trkpt>
      <trkpt lat="37.1953004971" lon="-3.4642016049">
        <ele>917.72</ele>
        <time>2020-09-06T07:43:41Z</time>
      </trkpt>
      <trkpt lat="37.1952236351" lon="-3.4642051253">
        <ele>917.24</ele>
        <time>2020-09-06T07:43:43Z</time>
      </trkpt>
      <trkpt lat="37.1951833181" lon="-3.4641794767">
        <ele>917.72</ele>
        <time>2020-09-06T07:43:44Z</time>
      </trkpt>
      <trkpt lat="37.1951532271" lon="-3.4641436860">
        <ele>917.24</ele>
        <time>2020-09-06T07:43:45Z</time>
      </trkpt>
      <trkpt lat="37.1951326914" lon="-3.4641064703">
        <ele>917.24</ele>
        <time>2020-09-06T07:43:46Z</time>
      </trkpt>
      <trkpt lat="37.1951154247" lon="-3.4640633874">
        <ele>916.75</ele>
        <time>2020-09-06T07:43:47Z</time>
      </trkpt>
      <trkpt lat="37.1950419992" lon="-3.4638138581">
        <ele>920.12</ele>
        <time>2020-09-06T07:43:54Z</time>
      </trkpt>
      <trkpt lat="37.1949013509" lon="-3.4632610716">
        <ele>923.00</ele>
        <time>2020-09-06T07:44:09Z</time>
      </trkpt>
      <trkpt lat="37.1948561724" lon="-3.4627506975">
        <ele>925.41</ele>
        <time>2020-09-06T07:44:23Z</time>
      </trkpt>
      <trkpt lat="37.1948992554" lon="-3.4626452532">
        <ele>926.37</ele>
        <time>2020-09-06T07:44:28Z</time>
      </trkpt>
      <trkpt lat="37.1949082240" lon="-3.4626571555">
        <ele>926.85</ele>
        <time>2020-09-06T07:44:29Z</time>
      </trkpt>
      <trkpt lat="37.1949072182" lon="-3.4626826365">
        <ele>926.85</ele>
        <time>2020-09-06T07:44:30Z</time>
      </trkpt>
      <trkpt lat="37.1948989201" lon="-3.4627061896">
        <ele>926.85</ele>
        <time>2020-09-06T07:44:31Z</time>
      </trkpt>
      <trkpt lat="37.1948859282" lon="-3.4627320897">
        <ele>926.85</ele>
        <time>2020-09-06T07:44:32Z</time>
      </trkpt>
      <trkpt lat="37.1948743612" lon="-3.4627621807">
        <ele>926.85</ele>
        <time>2020-09-06T07:44:33Z</time>
      </trkpt>
      <trkpt lat="37.1948672365" lon="-3.4628030006">
        <ele>925.41</ele>
        <time>2020-09-06T07:44:34Z</time>
      </trkpt>
      <trkpt lat="37.1948656440" lon="-3.4628475923">
        <ele>925.41</ele>
        <time>2020-09-06T07:44:35Z</time>
      </trkpt>
      <trkpt lat="37.1948650572" lon="-3.4628885798">
        <ele>925.41</ele>
        <time>2020-09-06T07:44:36Z</time>
      </trkpt>
      <trkpt lat="37.1948662307" lon="-3.4629409667">
        <ele>925.41</ele>
        <time>2020-09-06T07:44:37Z</time>
      </trkpt>
      <trkpt lat="37.1948711760" lon="-3.4629995562">
        <ele>924.45</ele>
        <time>2020-09-06T07:44:38Z</time>
      </trkpt>
      <trkpt lat="37.1948829945" lon="-3.4630542062">
        <ele>923.96</ele>
        <time>2020-09-06T07:44:39Z</time>
      </trkpt>
      <trkpt lat="37.1949131694" lon="-3.4631761629">
        <ele>923.96</ele>
        <time>2020-09-06T07:44:41Z</time>
      </trkpt>
      <trkpt lat="37.1949128341" lon="-3.4632316511">
        <ele>923.00</ele>
        <time>2020-09-06T07:44:42Z</time>
      </trkpt>
      <trkpt lat="37.1948927175" lon="-3.4632597305">
        <ele>923.00</ele>
        <time>2020-09-06T07:44:43Z</time>
      </trkpt>
      <trkpt lat="37.1948627103" lon="-3.4632488340">
        <ele>923.00</ele>
        <time>2020-09-06T07:44:44Z</time>
      </trkpt>
      <trkpt lat="37.1948431805" lon="-3.4632122051">
        <ele>923.00</ele>
        <time>2020-09-06T07:44:45Z</time>
      </trkpt>
      <trkpt lat="37.1948288474" lon="-3.4631697088">
        <ele>922.52</ele>
        <time>2020-09-06T07:44:46Z</time>
      </trkpt>
      <trkpt lat="37.1948068030" lon="-3.4631088562">
        <ele>921.56</ele>
        <time>2020-09-06T07:44:47Z</time>
      </trkpt>
      <trkpt lat="37.1947824117" lon="-3.4630380291">
        <ele>921.56</ele>
        <time>2020-09-06T07:44:48Z</time>
      </trkpt>
      <trkpt lat="37.1947641391" lon="-3.4629552998">
        <ele>920.60</ele>
        <time>2020-09-06T07:44:49Z</time>
      </trkpt>
      <trkpt lat="37.1947558410" lon="-3.4628721513">
        <ele>920.60</ele>
        <time>2020-09-06T07:44:50Z</time>
      </trkpt>
      <trkpt lat="37.1947524883" lon="-3.4627842251">
        <ele>919.64</ele>
        <time>2020-09-06T07:44:51Z</time>
      </trkpt>
      <trkpt lat="37.1947600320" lon="-3.4627040103">
        <ele>919.64</ele>
        <time>2020-09-06T07:44:52Z</time>
      </trkpt>
      <trkpt lat="37.1947757062" lon="-3.4626302496">
        <ele>919.64</ele>
        <time>2020-09-06T07:44:53Z</time>
      </trkpt>
      <trkpt lat="37.1947973315" lon="-3.4625626914">
        <ele>919.16</ele>
        <time>2020-09-06T07:44:54Z</time>
      </trkpt>
      <trkpt lat="37.1948082279" lon="-3.4625066165">
        <ele>919.16</ele>
        <time>2020-09-06T07:44:55Z</time>
      </trkpt>
      <trkpt lat="37.1947996784" lon="-3.4624645393">
        <ele>919.16</ele>
        <time>2020-09-06T07:44:56Z</time>
      </trkpt>
      <trkpt lat="37.1947715152" lon="-3.4624525532">
        <ele>919.16</ele>
        <time>2020-09-06T07:44:57Z</time>
      </trkpt>
      <trkpt lat="37.1947321203" lon="-3.4624851588">
        <ele>918.68</ele>
        <time>2020-09-06T07:44:58Z</time>
      </trkpt>
      <trkpt lat="37.1947068907" lon="-3.4625270683">
        <ele>917.24</ele>
        <time>2020-09-06T07:44:59Z</time>
      </trkpt>
      <trkpt lat="37.1946685016" lon="-3.4625885915">
        <ele>916.75</ele>
        <time>2020-09-06T07:45:00Z</time>
      </trkpt>
      <trkpt lat="37.1946240775" lon="-3.4626558144">
        <ele>915.79</ele>
        <time>2020-09-06T07:45:01Z</time>
      </trkpt>
      <trkpt lat="37.1945282724" lon="-3.4628107119">
        <ele>912.43</ele>
        <time>2020-09-06T07:45:03Z</time>
      </trkpt>
      <trkpt lat="37.1944021247" lon="-3.4630170744">
        <ele>909.06</ele>
        <time>2020-09-06T07:45:06Z</time>
      </trkpt>
      <trkpt lat="37.1943400148" lon="-3.4631473292">
        <ele>906.66</ele>
        <time>2020-09-06T07:45:08Z</time>
      </trkpt>
      <trkpt lat="37.1943207365" lon="-3.4632136300">
        <ele>905.22</ele>
        <time>2020-09-06T07:45:09Z</time>
      </trkpt>
      <trkpt lat="37.1942880470" lon="-3.4633401129">
        <ele>902.33</ele>
        <time>2020-09-06T07:45:11Z</time>
      </trkpt>
      <trkpt lat="37.1942657512" lon="-3.4633950982">
        <ele>901.37</ele>
        <time>2020-09-06T07:45:12Z</time>
      </trkpt>
      <trkpt lat="37.1942245122" lon="-3.4634960163">
        <ele>898.97</ele>
        <time>2020-09-06T07:45:14Z</time>
      </trkpt>
      <trkpt lat="37.1942165494" lon="-3.4635691065">
        <ele>897.05</ele>
        <time>2020-09-06T07:45:15Z</time>
      </trkpt>
      <trkpt lat="37.1942217462" lon="-3.4636320546">
        <ele>895.61</ele>
        <time>2020-09-06T07:45:16Z</time>
      </trkpt>
      <trkpt lat="37.1942364145" lon="-3.4637102578">
        <ele>894.64</ele>
        <time>2020-09-06T07:45:17Z</time>
      </trkpt>
      <trkpt lat="37.1942539327" lon="-3.4637806658">
        <ele>893.68</ele>
        <time>2020-09-06T07:45:18Z</time>
      </trkpt>
      <trkpt lat="37.1942665055" lon="-3.4638564382">
        <ele>892.24</ele>
        <time>2020-09-06T07:45:19Z</time>
      </trkpt>
      <trkpt lat="37.1942638233" lon="-3.4639308695">
        <ele>890.80</ele>
        <time>2020-09-06T07:45:20Z</time>
      </trkpt>
      <trkpt lat="37.1942491550" lon="-3.4639891237">
        <ele>889.36</ele>
        <time>2020-09-06T07:45:21Z</time>
      </trkpt>
      <trkpt lat="37.1942177229" lon="-3.4640206397">
        <ele>889.36</ele>
        <time>2020-09-06T07:45:22Z</time>
      </trkpt>
      <trkpt lat="37.1941730473" lon="-3.4640161134">
        <ele>887.91</ele>
        <time>2020-09-06T07:45:23Z</time>
      </trkpt>
      <trkpt lat="37.1941260248" lon="-3.4639851842">
        <ele>886.95</ele>
        <time>2020-09-06T07:45:24Z</time>
      </trkpt>
      <trkpt lat="37.1940734703" lon="-3.4639265947">
        <ele>885.51</ele>
        <time>2020-09-06T07:45:25Z</time>
      </trkpt>
      <trkpt lat="37.1940303873" lon="-3.4638664126">
        <ele>884.55</ele>
        <time>2020-09-06T07:45:26Z</time>
      </trkpt>
      <trkpt lat="37.1939852927" lon="-3.4637965076">
        <ele>884.55</ele>
        <time>2020-09-06T07:45:27Z</time>
      </trkpt>
      <trkpt lat="37.1939172316" lon="-3.4637002833">
        <ele>884.55</ele>
        <time>2020-09-06T07:45:29Z</time>
      </trkpt>
      <trkpt lat="37.1938867215" lon="-3.4636607207">
        <ele>886.47</ele>
        <time>2020-09-06T07:45:30Z</time>
      </trkpt>
      <trkpt lat="37.1938621625" lon="-3.4636230022">
        <ele>886.47</ele>
        <time>2020-09-06T07:45:31Z</time>
      </trkpt>
      <trkpt lat="37.1937810257" lon="-3.4634988662">
        <ele>886.95</ele>
        <time>2020-09-06T07:45:34Z</time>
      </trkpt>
      <trkpt lat="37.1937518567" lon="-3.4634452220">
        <ele>886.95</ele>
        <time>2020-09-06T07:45:35Z</time>
      </trkpt>
      <trkpt lat="37.1937327459" lon="-3.4633969422">
        <ele>886.95</ele>
        <time>2020-09-06T07:45:36Z</time>
      </trkpt>
      <trkpt lat="37.1937230229" lon="-3.4633514285">
        <ele>887.43</ele>
        <time>2020-09-06T07:45:37Z</time>
      </trkpt>
      <trkpt lat="37.1937195025" lon="-3.4633033164">
        <ele>887.43</ele>
        <time>2020-09-06T07:45:38Z</time>
      </trkpt>
      <trkpt lat="37.1937923413" lon="-3.4627506975">
        <ele>889.36</ele>
        <time>2020-09-06T07:45:49Z</time>
      </trkpt>
      <trkpt lat="37.1937976219" lon="-3.4626314230">
        <ele>889.84</ele>
        <time>2020-09-06T07:45:51Z</time>
      </trkpt>
      <trkpt lat="37.1938451473" lon="-3.4623704944">
        <ele>889.84</ele>
        <time>2020-09-06T07:45:55Z</time>
      </trkpt>
      <trkpt lat="37.1938684490" lon="-3.4622969013">
        <ele>889.84</ele>
        <time>2020-09-06T07:45:56Z</time>
      </trkpt>
      <trkpt lat="37.1940142103" lon="-3.4619254153">
        <ele>889.36</ele>
        <time>2020-09-06T07:46:02Z</time>
      </trkpt>
      <trkpt lat="37.1940292977" lon="-3.4618628863">
        <ele>889.36</ele>
        <time>2020-09-06T07:46:03Z</time>
      </trkpt>
      <trkpt lat="37.1940417867" lon="-3.4617928136">
        <ele>889.36</ele>
        <time>2020-09-06T07:46:04Z</time>
      </trkpt>
      <trkpt lat="37.1940478217" lon="-3.4617271833">
        <ele>889.36</ele>
        <time>2020-09-06T07:46:05Z</time>
      </trkpt>
      <trkpt lat="37.1940484922" lon="-3.4616578650">
        <ele>889.36</ele>
        <time>2020-09-06T07:46:06Z</time>
      </trkpt>
      <trkpt lat="37.1940458100" lon="-3.4615882952">
        <ele>889.36</ele>
        <time>2020-09-06T07:46:07Z</time>
      </trkpt>
      <trkpt lat="37.1940386854" lon="-3.4615199827">
        <ele>889.36</ele>
        <time>2020-09-06T07:46:08Z</time>
      </trkpt>
      <trkpt lat="37.1940250229" lon="-3.4614468087">
        <ele>889.36</ele>
        <time>2020-09-06T07:46:09Z</time>
      </trkpt>
      <trkpt lat="37.1939953510" lon="-3.4613054898">
        <ele>888.40</ele>
        <time>2020-09-06T07:46:11Z</time>
      </trkpt>
      <trkpt lat="37.1939858794" lon="-3.4612274542">
        <ele>888.40</ele>
        <time>2020-09-06T07:46:12Z</time>
      </trkpt>
      <trkpt lat="37.1939655952" lon="-3.4607865661">
        <ele>888.40</ele>
        <time>2020-09-06T07:46:18Z</time>
      </trkpt>
      <trkpt lat="37.1939759888" lon="-3.4607181698">
        <ele>888.40</ele>
        <time>2020-09-06T07:46:19Z</time>
      </trkpt>
      <trkpt lat="37.1939996257" lon="-3.4606573172">
        <ele>888.40</ele>
        <time>2020-09-06T07:46:20Z</time>
      </trkpt>
      <trkpt lat="37.1940365061" lon="-3.4606061876">
        <ele>888.40</ele>
        <time>2020-09-06T07:46:21Z</time>
      </trkpt>
      <trkpt lat="37.1940763202" lon="-3.4605634399">
        <ele>888.40</ele>
        <time>2020-09-06T07:46:22Z</time>
      </trkpt>
      <trkpt lat="37.1941167209" lon="-3.4605330136">
        <ele>888.40</ele>
        <time>2020-09-06T07:46:23Z</time>
      </trkpt>
      <trkpt lat="37.1941570379" lon="-3.4605102148">
        <ele>889.84</ele>
        <time>2020-09-06T07:46:24Z</time>
      </trkpt>
      <trkpt lat="37.1941936668" lon="-3.4604972228">
        <ele>889.84</ele>
        <time>2020-09-06T07:46:25Z</time>
      </trkpt>
      <trkpt lat="37.1942267753" lon="-3.4604906011">
        <ele>890.80</ele>
        <time>2020-09-06T07:46:26Z</time>
      </trkpt>
      <trkpt lat="37.1943101753" lon="-3.4604784474">
        <ele>892.24</ele>
        <time>2020-09-06T07:46:30Z</time>
      </trkpt>
      <trkpt lat="37.1943282802" lon="-3.4604828898">
        <ele>892.24</ele>
        <time>2020-09-06T07:46:31Z</time>
      </trkpt>
      <trkpt lat="37.1943502408" lon="-3.4604835603">
        <ele>893.20</ele>
        <time>2020-09-06T07:46:32Z</time>
      </trkpt>
      <trkpt lat="37.1943698544" lon="-3.4604769386">
        <ele>893.20</ele>
        <time>2020-09-06T07:46:33Z</time>
      </trkpt>
      <trkpt lat="37.1943895519" lon="-3.4604678862">
        <ele>893.68</ele>
        <time>2020-09-06T07:46:34Z</time>
      </trkpt>
      <trkpt lat="37.1944065671" lon="-3.4604559001">
        <ele>894.16</ele>
        <time>2020-09-06T07:46:35Z</time>
      </trkpt>
      <trkpt lat="37.1944215707" lon="-3.4604453389">
        <ele>894.16</ele>
        <time>2020-09-06T07:46:36Z</time>
      </trkpt>
      <trkpt lat="37.1944386698" lon="-3.4604319278">
        <ele>895.12</ele>
        <time>2020-09-06T07:46:37Z</time>
      </trkpt>
      <trkpt lat="37.1946758777" lon="-3.4602491185">
        <ele>898.01</ele>
        <time>2020-09-06T07:46:49Z</time>
      </trkpt>
      <trkpt lat="37.1949848346" lon="-3.4599037841">
        <ele>899.45</ele>
        <time>2020-09-06T07:47:03Z</time>
      </trkpt>
      <trkpt lat="37.1951951366" lon="-3.4597092401">
        <ele>900.89</ele>
        <time>2020-09-06T07:47:10Z</time>
      </trkpt>
      <trkpt lat="37.1952554863" lon="-3.4596253373">
        <ele>900.89</ele>
        <time>2020-09-06T07:47:12Z</time>
      </trkpt>
      <trkpt lat="37.1953498665" lon="-3.4594344813">
        <ele>900.89</ele>
        <time>2020-09-06T07:47:16Z</time>
      </trkpt>
      <trkpt lat="37.1953618526" lon="-3.4593787417">
        <ele>900.89</ele>
        <time>2020-09-06T07:47:17Z</time>
      </trkpt>
      <trkpt lat="37.1954578254" lon="-3.4590079263">
        <ele>900.89</ele>
        <time>2020-09-06T07:47:23Z</time>
      </trkpt>
      <trkpt lat="37.1954658721" lon="-3.4589416254">
        <ele>900.89</ele>
        <time>2020-09-06T07:47:24Z</time>
      </trkpt>
      <trkpt lat="37.1955289878" lon="-3.4584201872">
        <ele>901.37</ele>
        <time>2020-09-06T07:47:32Z</time>
      </trkpt>
      <trkpt lat="37.1955505293" lon="-3.4583725780">
        <ele>901.37</ele>
        <time>2020-09-06T07:47:33Z</time>
      </trkpt>
      <trkpt lat="37.1955748368" lon="-3.4583314229">
        <ele>901.37</ele>
        <time>2020-09-06T07:47:34Z</time>
      </trkpt>
      <trkpt lat="37.1955951210" lon="-3.4582932014">
        <ele>901.85</ele>
        <time>2020-09-06T07:47:35Z</time>
      </trkpt>
      <trkpt lat="37.1956086997" lon="-3.4582564887">
        <ele>902.33</ele>
        <time>2020-09-06T07:47:36Z</time>
      </trkpt>
      <trkpt lat="37.1956202667" lon="-3.4582205303">
        <ele>902.82</ele>
        <time>2020-09-06T07:47:37Z</time>
      </trkpt>
      <trkpt lat="37.1956547163" lon="-3.4581333585">
        <ele>903.78</ele>
        <time>2020-09-06T07:47:42Z</time>
      </trkpt>
      <trkpt lat="37.1956515312" lon="-3.4581172653">
        <ele>903.78</ele>
        <time>2020-09-06T07:47:43Z</time>
      </trkpt>
      <trkpt lat="37.1956496872" lon="-3.4580949694">
        <ele>903.78</ele>
        <time>2020-09-06T07:47:44Z</time>
      </trkpt>
      <trkpt lat="37.1956514474" lon="-3.4580695722">
        <ele>903.78</ele>
        <time>2020-09-06T07:47:45Z</time>
      </trkpt>
      <trkpt lat="37.1956551354" lon="-3.4580409061">
        <ele>902.82</ele>
        <time>2020-09-06T07:47:46Z</time>
      </trkpt>
      <trkpt lat="37.1956593264" lon="-3.4580090549">
        <ele>904.26</ele>
        <time>2020-09-06T07:47:47Z</time>
      </trkpt>
      <trkpt lat="37.1956635173" lon="-3.4579756111">
        <ele>904.26</ele>
        <time>2020-09-06T07:47:48Z</time>
      </trkpt>
      <trkpt lat="37.1956682112" lon="-3.4579368029">
        <ele>904.26</ele>
        <time>2020-09-06T07:47:49Z</time>
      </trkpt>
      <trkpt lat="37.1956737433" lon="-3.4578941390">
        <ele>904.26</ele>
        <time>2020-09-06T07:47:50Z</time>
      </trkpt>
      <trkpt lat="37.1957024932" lon="-3.4578027762">
        <ele>902.82</ele>
        <time>2020-09-06T07:47:52Z</time>
      </trkpt>
      <trkpt lat="37.1957270522" lon="-3.4577574302">
        <ele>902.82</ele>
        <time>2020-09-06T07:47:53Z</time>
      </trkpt>
      <trkpt lat="37.1957548801" lon="-3.4577197116">
        <ele>902.82</ele>
        <time>2020-09-06T07:47:54Z</time>
      </trkpt>
      <trkpt lat="37.1961062495" lon="-3.4573823400">
        <ele>903.78</ele>
        <time>2020-09-06T07:48:04Z</time>
      </trkpt>
      <trkpt lat="37.1962244343" lon="-3.4569973592">
        <ele>903.78</ele>
        <time>2020-09-06T07:48:11Z</time>
      </trkpt>
      <trkpt lat="37.1963151265" lon="-3.4565586504">
        <ele>900.89</ele>
        <time>2020-09-06T07:48:17Z</time>
      </trkpt>
      <trkpt lat="37.1963808406" lon="-3.4561986476">
        <ele>900.89</ele>
        <time>2020-09-06T07:48:22Z</time>
      </trkpt>
      <trkpt lat="37.1964147873" lon="-3.4560656268">
        <ele>900.89</ele>
        <time>2020-09-06T07:48:24Z</time>
      </trkpt>
      <trkpt lat="37.1964439563" lon="-3.4559766110">
        <ele>902.82</ele>
        <time>2020-09-06T07:48:26Z</time>
      </trkpt>
      <trkpt lat="37.1964224987" lon="-3.4556208830">
        <ele>903.30</ele>
        <time>2020-09-06T07:48:33Z</time>
      </trkpt>
      <trkpt lat="37.1962686908" lon="-3.4555541631">
        <ele>904.74</ele>
        <time>2020-09-06T07:48:37Z</time>
      </trkpt>
      <trkpt lat="37.1961760707" lon="-3.4555368125">
        <ele>906.18</ele>
        <time>2020-09-06T07:48:40Z</time>
      </trkpt>
      <trkpt lat="37.1960356738" lon="-3.4552112594">
        <ele>906.66</ele>
        <time>2020-09-06T07:48:49Z</time>
      </trkpt>
      <trkpt lat="37.1960304771" lon="-3.4551093355">
        <ele>907.14</ele>
        <time>2020-09-06T07:48:51Z</time>
      </trkpt>
      <trkpt lat="37.1960551199" lon="-3.4549324773">
        <ele>907.14</ele>
        <time>2020-09-06T07:48:54Z</time>
      </trkpt>
      <trkpt lat="37.1960977837" lon="-3.4548009653">
        <ele>905.22</ele>
        <time>2020-09-06T07:48:56Z</time>
      </trkpt>
      <trkpt lat="37.1963084210" lon="-3.4546581376">
        <ele>903.78</ele>
        <time>2020-09-06T07:49:00Z</time>
      </trkpt>
      <trkpt lat="37.1966844331" lon="-3.4546220116">
        <ele>901.85</ele>
        <time>2020-09-06T07:49:05Z</time>
      </trkpt>
      <trkpt lat="37.1970434301" lon="-3.4543840494">
        <ele>901.85</ele>
        <time>2020-09-06T07:49:11Z</time>
      </trkpt>
      <trkpt lat="37.1971624531" lon="-3.4541610908">
        <ele>905.22</ele>
        <time>2020-09-06T07:49:17Z</time>
      </trkpt>
      <trkpt lat="37.1972232219" lon="-3.4539971408">
        <ele>909.54</ele>
        <time>2020-09-06T07:49:25Z</time>
      </trkpt>
      <trkpt lat="37.1972276643" lon="-3.4539761860">
        <ele>909.54</ele>
        <time>2020-09-06T07:49:26Z</time>
      </trkpt>
      <trkpt lat="37.1973384731" lon="-3.4537544008">
        <ele>912.43</ele>
        <time>2020-09-06T07:49:37Z</time>
      </trkpt>
      <trkpt lat="37.1975885052" lon="-3.4536964819">
        <ele>913.39</ele>
        <time>2020-09-06T07:49:47Z</time>
      </trkpt>
      <trkpt lat="37.1976704802" lon="-3.4535688255">
        <ele>913.87</ele>
        <time>2020-09-06T07:49:51Z</time>
      </trkpt>
      <trkpt lat="37.1979055926" lon="-3.4534179512">
        <ele>917.24</ele>
        <time>2020-09-06T07:50:02Z</time>
      </trkpt>
      <trkpt lat="37.1980407089" lon="-3.4533454478">
        <ele>918.68</ele>
        <time>2020-09-06T07:50:08Z</time>
      </trkpt>
      <trkpt lat="37.1982601471" lon="-3.4531816654">
        <ele>920.60</ele>
        <time>2020-09-06T07:50:17Z</time>
      </trkpt>
      <trkpt lat="37.1983216703" lon="-3.4526795894">
        <ele>921.08</ele>
        <time>2020-09-06T07:50:28Z</time>
      </trkpt>
      <trkpt lat="37.1983422898" lon="-3.4526346624">
        <ele>921.08</ele>
        <time>2020-09-06T07:50:29Z</time>
      </trkpt>
      <trkpt lat="37.1984268632" lon="-3.4524122067">
        <ele>922.52</ele>
        <time>2020-09-06T07:50:34Z</time>
      </trkpt>
      <trkpt lat="37.1985028870" lon="-3.4522568900">
        <ele>923.00</ele>
        <time>2020-09-06T07:50:38Z</time>
      </trkpt>
      <trkpt lat="37.1986703575" lon="-3.4521001484">
        <ele>923.00</ele>
        <time>2020-09-06T07:50:43Z</time>
      </trkpt>
      <trkpt lat="37.1988981776" lon="-3.4520537965">
        <ele>923.00</ele>
        <time>2020-09-06T07:50:48Z</time>
      </trkpt>
      <trkpt lat="37.1992200427" lon="-3.4521254618">
        <ele>923.00</ele>
        <time>2020-09-06T07:50:55Z</time>
      </trkpt>
      <trkpt lat="37.1993078012" lon="-3.4520713147">
        <ele>923.00</ele>
        <time>2020-09-06T07:50:57Z</time>
      </trkpt>
      <trkpt lat="37.1994101442" lon="-3.4520355240">
        <ele>923.00</ele>
        <time>2020-09-06T07:50:59Z</time>
      </trkpt>
      <trkpt lat="37.1995240543" lon="-3.4519535489">
        <ele>923.00</ele>
        <time>2020-09-06T07:51:02Z</time>
      </trkpt>
      <trkpt lat="37.1996678878" lon="-3.4518612642">
        <ele>923.96</ele>
        <time>2020-09-06T07:51:06Z</time>
      </trkpt>
      <trkpt lat="37.1998698916" lon="-3.4517522994">
        <ele>924.45</ele>
        <time>2020-09-06T07:51:11Z</time>
      </trkpt>
      <trkpt lat="37.2000662796" lon="-3.4516388923">
        <ele>921.56</ele>
        <time>2020-09-06T07:51:16Z</time>
      </trkpt>
      <trkpt lat="37.2000682913" lon="-3.4514883533">
        <ele>923.48</ele>
        <time>2020-09-06T07:51:20Z</time>
      </trkpt>
      <trkpt lat="37.1999489330" lon="-3.4511190467">
        <ele>926.85</ele>
        <time>2020-09-06T07:51:33Z</time>
      </trkpt>
      <trkpt lat="37.1998241264" lon="-3.4506722912">
        <ele>927.81</ele>
        <time>2020-09-06T07:51:45Z</time>
      </trkpt>
      <trkpt lat="37.1998237073" lon="-3.4505763184">
        <ele>927.81</ele>
        <time>2020-09-06T07:51:47Z</time>
      </trkpt>
      <trkpt lat="37.1999191772" lon="-3.4504238516">
        <ele>927.81</ele>
        <time>2020-09-06T07:51:51Z</time>
      </trkpt>
      <trkpt lat="37.1999667864" lon="-3.4503070917">
        <ele>927.81</ele>
        <time>2020-09-06T07:51:55Z</time>
      </trkpt>
      <trkpt lat="37.1999667026" lon="-3.4500424750">
        <ele>930.69</ele>
        <time>2020-09-06T07:52:06Z</time>
      </trkpt>
      <trkpt lat="37.1999495197" lon="-3.4498759266">
        <ele>934.54</ele>
        <time>2020-09-06T07:52:15Z</time>
      </trkpt>
      <trkpt lat="37.1999311633" lon="-3.4497730806">
        <ele>936.94</ele>
        <time>2020-09-06T07:52:20Z</time>
      </trkpt>
      <trkpt lat="37.2001361009" lon="-3.4497408941">
        <ele>938.86</ele>
        <time>2020-09-06T07:52:30Z</time>
      </trkpt>
      <trkpt lat="37.2001547925" lon="-3.4497346077">
        <ele>938.86</ele>
        <time>2020-09-06T07:52:31Z</time>
      </trkpt>
      <trkpt lat="37.2004881408" lon="-3.4496885911">
        <ele>941.27</ele>
        <time>2020-09-06T07:52:46Z</time>
      </trkpt>
      <trkpt lat="37.2006306332" lon="-3.4496159200">
        <ele>944.63</ele>
        <time>2020-09-06T07:52:55Z</time>
      </trkpt>
      <trkpt lat="37.2007805854" lon="-3.4495254792">
        <ele>948.00</ele>
        <time>2020-09-06T07:53:05Z</time>
      </trkpt>
      <trkpt lat="37.2010022867" lon="-3.4494760260">
        <ele>951.36</ele>
        <time>2020-09-06T07:53:17Z</time>
      </trkpt>
      <trkpt lat="37.2010644805" lon="-3.4494477790">
        <ele>952.32</ele>
        <time>2020-09-06T07:53:21Z</time>
      </trkpt>
      <trkpt lat="37.2011455335" lon="-3.4493942186">
        <ele>955.21</ele>
        <time>2020-09-06T07:53:28Z</time>
      </trkpt>
      <trkpt lat="37.2012040392" lon="-3.4492717590">
        <ele>958.09</ele>
        <time>2020-09-06T07:53:37Z</time>
      </trkpt>
      <trkpt lat="37.2012103256" lon="-3.4491565078">
        <ele>960.49</ele>
        <time>2020-09-06T07:53:44Z</time>
      </trkpt>
      <trkpt lat="37.2012095712" lon="-3.4491157718">
        <ele>960.49</ele>
        <time>2020-09-06T07:53:46Z</time>
      </trkpt>
      <trkpt lat="37.2014120780" lon="-3.4488113411">
        <ele>963.38</ele>
        <time>2020-09-06T07:54:02Z</time>
      </trkpt>
      <trkpt lat="37.2016661335" lon="-3.4488016181">
        <ele>966.26</ele>
        <time>2020-09-06T07:54:16Z</time>
      </trkpt>
      <trkpt lat="37.2018259764" lon="-3.4486945812">
        <ele>968.67</ele>
        <time>2020-09-06T07:54:27Z</time>
      </trkpt>
      <trkpt lat="37.2018670477" lon="-3.4486276098">
        <ele>970.11</ele>
        <time>2020-09-06T07:54:31Z</time>
      </trkpt>
      <trkpt lat="37.2019135673" lon="-3.4485852811">
        <ele>971.07</ele>
        <time>2020-09-06T07:54:35Z</time>
      </trkpt>
      <trkpt lat="37.2020358592" lon="-3.4484051540">
        <ele>975.39</ele>
        <time>2020-09-06T07:54:48Z</time>
      </trkpt>
      <trkpt lat="37.2020698898" lon="-3.4482568782">
        <ele>978.28</ele>
        <time>2020-09-06T07:54:56Z</time>
      </trkpt>
      <trkpt lat="37.2020784393" lon="-3.4482383542">
        <ele>978.28</ele>
        <time>2020-09-06T07:54:57Z</time>
      </trkpt>
      <trkpt lat="37.2021340951" lon="-3.4480197541">
        <ele>981.64</ele>
        <time>2020-09-06T07:55:08Z</time>
      </trkpt>
      <trkpt lat="37.2022013180" lon="-3.4478139784">
        <ele>985.49</ele>
        <time>2020-09-06T07:55:20Z</time>
      </trkpt>
      <trkpt lat="37.2022089455" lon="-3.4476820473">
        <ele>986.45</ele>
        <time>2020-09-06T07:55:27Z</time>
      </trkpt>
      <trkpt lat="37.2022181656" lon="-3.4475501999">
        <ele>988.37</ele>
        <time>2020-09-06T07:55:34Z</time>
      </trkpt>
      <trkpt lat="37.2022511903" lon="-3.4473518003">
        <ele>992.22</ele>
        <time>2020-09-06T07:55:44Z</time>
      </trkpt>
      <trkpt lat="37.2023096122" lon="-3.4472547378">
        <ele>991.74</ele>
        <time>2020-09-06T07:55:49Z</time>
      </trkpt>
      <trkpt lat="37.2025458142" lon="-3.4472871758">
        <ele>991.74</ele>
        <time>2020-09-06T07:56:00Z</time>
      </trkpt>
      <trkpt lat="37.2025414556" lon="-3.4472847451">
        <ele>992.70</ele>
        <time>2020-09-06T07:56:19Z</time>
      </trkpt>
      <trkpt lat="37.2025505919" lon="-3.4472812247">
        <ele>992.70</ele>
        <time>2020-09-06T07:56:50Z</time>
      </trkpt>
      <trkpt lat="37.2025561240" lon="-3.4473170154">
        <ele>992.70</ele>
        <time>2020-09-06T07:57:12Z</time>
      </trkpt>
      <trkpt lat="37.2026971076" lon="-3.4474859945">
        <ele>992.70</ele>
        <time>2020-09-06T07:57:21Z</time>
      </trkpt>
      <trkpt lat="37.2027753945" lon="-3.4475010820">
        <ele>992.70</ele>
        <time>2020-09-06T07:57:24Z</time>
      </trkpt>
      <trkpt lat="37.2027971875" lon="-3.4474718291">
        <ele>992.70</ele>
        <time>2020-09-06T07:57:25Z</time>
      </trkpt>
      <trkpt lat="37.2028069943" lon="-3.4474421572">
        <ele>992.70</ele>
        <time>2020-09-06T07:57:26Z</time>
      </trkpt>
      <trkpt lat="37.2028147057" lon="-3.4474049415">
        <ele>992.70</ele>
        <time>2020-09-06T07:57:27Z</time>
      </trkpt>
      <trkpt lat="37.2028209921" lon="-3.4473647922">
        <ele>992.70</ele>
        <time>2020-09-06T07:57:28Z</time>
      </trkpt>
      <trkpt lat="37.2028243449" lon="-3.4473271575">
        <ele>993.18</ele>
        <time>2020-09-06T07:57:29Z</time>
      </trkpt>
      <trkpt lat="37.2029478103" lon="-3.4468039591">
        <ele>996.54</ele>
        <time>2020-09-06T07:57:44Z</time>
      </trkpt>
      <trkpt lat="37.2031681705" lon="-3.4464160446">
        <ele>999.43</ele>
        <time>2020-09-06T07:57:58Z</time>
      </trkpt>
      <trkpt lat="37.2034557536" lon="-3.4460508451">
        <ele>1002.79</ele>
        <time>2020-09-06T07:58:14Z</time>
      </trkpt>
      <trkpt lat="37.2036824003" lon="-3.4457065165">
        <ele>1005.20</ele>
        <time>2020-09-06T07:58:27Z</time>
      </trkpt>
      <trkpt lat="37.2039148305" lon="-3.4454195201">
        <ele>1008.08</ele>
        <time>2020-09-06T07:58:39Z</time>
      </trkpt>
      <trkpt lat="37.2041923553" lon="-3.4452251438">
        <ele>1011.44</ele>
        <time>2020-09-06T07:58:51Z</time>
      </trkpt>
      <trkpt lat="37.2045459878" lon="-3.4451625310">
        <ele>1013.85</ele>
        <time>2020-09-06T07:59:04Z</time>
      </trkpt>
      <trkpt lat="37.2049170546" lon="-3.4451230522">
        <ele>1016.73</ele>
        <time>2020-09-06T07:59:17Z</time>
      </trkpt>
      <trkpt lat="37.2053854354" lon="-3.4450802207">
        <ele>1020.10</ele>
        <time>2020-09-06T07:59:34Z</time>
      </trkpt>
      <trkpt lat="37.2057564184" lon="-3.4449606948">
        <ele>1022.50</ele>
        <time>2020-09-06T07:59:47Z</time>
      </trkpt>
      <trkpt lat="37.2061478533" lon="-3.4445830062">
        <ele>1023.46</ele>
        <time>2020-09-06T08:00:00Z</time>
      </trkpt>
      <trkpt lat="37.2066119593" lon="-3.4440315608">
        <ele>1024.42</ele>
        <time>2020-09-06T08:00:15Z</time>
      </trkpt>
      <trkpt lat="37.2069769073" lon="-3.4436848015">
        <ele>1022.98</ele>
        <time>2020-09-06T08:00:23Z</time>
      </trkpt>
      <trkpt lat="37.2073824238" lon="-3.4433457535">
        <ele>1022.02</ele>
        <time>2020-09-06T08:00:30Z</time>
      </trkpt>
      <trkpt lat="37.2074517421" lon="-3.4433100466">
        <ele>1021.06</ele>
        <time>2020-09-06T08:00:31Z</time>
      </trkpt>
      <trkpt lat="37.2075266764" lon="-3.4432854038">
        <ele>1021.06</ele>
        <time>2020-09-06T08:00:32Z</time>
      </trkpt>
      <trkpt lat="37.2076077294" lon="-3.4432702325">
        <ele>1020.58</ele>
        <time>2020-09-06T08:00:33Z</time>
      </trkpt>
      <trkpt lat="37.2076902073" lon="-3.4432654548">
        <ele>1019.62</ele>
        <time>2020-09-06T08:00:34Z</time>
      </trkpt>
      <trkpt lat="37.2077756189" lon="-3.4432657063">
        <ele>1019.62</ele>
        <time>2020-09-06T08:00:35Z</time>
      </trkpt>
      <trkpt lat="37.2080358770" lon="-3.4432644490">
        <ele>1018.17</ele>
        <time>2020-09-06T08:00:38Z</time>
      </trkpt>
      <trkpt lat="37.2081106436" lon="-3.4432424884">
        <ele>1017.69</ele>
        <time>2020-09-06T08:00:39Z</time>
      </trkpt>
      <trkpt lat="37.2081819735" lon="-3.4432006627">
        <ele>1017.69</ele>
        <time>2020-09-06T08:00:40Z</time>
      </trkpt>
      <trkpt lat="37.2082481906" lon="-3.4431340266">
        <ele>1017.21</ele>
        <time>2020-09-06T08:00:41Z</time>
      </trkpt>
      <trkpt lat="37.2082989849" lon="-3.4430505428">
        <ele>1017.21</ele>
        <time>2020-09-06T08:00:42Z</time>
      </trkpt>
      <trkpt lat="37.2083325963" lon="-3.4429570846">
        <ele>1017.21</ele>
        <time>2020-09-06T08:00:43Z</time>
      </trkpt>
      <trkpt lat="37.2083459236" lon="-3.4428591840">
        <ele>1017.21</ele>
        <time>2020-09-06T08:00:44Z</time>
      </trkpt>
      <trkpt lat="37.2083408944" lon="-3.4427615348">
        <ele>1017.21</ele>
        <time>2020-09-06T08:00:45Z</time>
      </trkpt>
      <trkpt lat="37.2083198559" lon="-3.4426665679">
        <ele>1017.21</ele>
        <time>2020-09-06T08:00:46Z</time>
      </trkpt>
      <trkpt lat="37.2082850710" lon="-3.4425793961">
        <ele>1017.21</ele>
        <time>2020-09-06T08:00:47Z</time>
      </trkpt>
      <trkpt lat="37.2082388867" lon="-3.4425014444">
        <ele>1017.21</ele>
        <time>2020-09-06T08:00:48Z</time>
      </trkpt>
      <trkpt lat="37.2081855778" lon="-3.4424318746">
        <ele>1018.65</ele>
        <time>2020-09-06T08:00:49Z</time>
      </trkpt>
      <trkpt lat="37.2081336938" lon="-3.4423710220">
        <ele>1018.65</ele>
        <time>2020-09-06T08:00:50Z</time>
      </trkpt>
      <trkpt lat="37.2079752758" lon="-3.4422321338">
        <ele>1019.62</ele>
        <time>2020-09-06T08:00:53Z</time>
      </trkpt>
      <trkpt lat="37.2079228051" lon="-3.4422001150">
        <ele>1019.62</ele>
        <time>2020-09-06T08:00:54Z</time>
      </trkpt>
      <trkpt lat="37.2078711726" lon="-3.4421775676">
        <ele>1020.58</ele>
        <time>2020-09-06T08:00:55Z</time>
      </trkpt>
      <trkpt lat="37.2078205459" lon="-3.4421590436">
        <ele>1021.06</ele>
        <time>2020-09-06T08:00:56Z</time>
      </trkpt>
      <trkpt lat="37.2077747807" lon="-3.4421444591">
        <ele>1021.06</ele>
        <time>2020-09-06T08:00:57Z</time>
      </trkpt>
      <trkpt lat="37.2077296861" lon="-3.4421323892">
        <ele>1021.54</ele>
        <time>2020-09-06T08:00:58Z</time>
      </trkpt>
      <trkpt lat="37.2076880280" lon="-3.4421270248">
        <ele>1022.02</ele>
        <time>2020-09-06T08:00:59Z</time>
      </trkpt>
      <trkpt lat="37.2072796617" lon="-3.4421013761">
        <ele>1025.38</ele>
        <time>2020-09-06T08:01:11Z</time>
      </trkpt>
      <trkpt lat="37.2068334091" lon="-3.4420708660">
        <ele>1028.75</ele>
        <time>2020-09-06T08:01:26Z</time>
      </trkpt>
      <trkpt lat="37.2064200975" lon="-3.4421094228">
        <ele>1031.15</ele>
        <time>2020-09-06T08:01:41Z</time>
      </trkpt>
      <trkpt lat="37.2059773654" lon="-3.4421704430">
        <ele>1035.00</ele>
        <time>2020-09-06T08:01:57Z</time>
      </trkpt>
      <trkpt lat="37.2055281792" lon="-3.4422409348">
        <ele>1038.36</ele>
        <time>2020-09-06T08:02:13Z</time>
      </trkpt>
      <trkpt lat="37.2050727066" lon="-3.4423084930">
        <ele>1041.73</ele>
        <time>2020-09-06T08:02:29Z</time>
      </trkpt>
      <trkpt lat="37.2047369275" lon="-3.4420530125">
        <ele>1045.09</ele>
        <time>2020-09-06T08:02:44Z</time>
      </trkpt>
      <trkpt lat="37.2044756636" lon="-3.4414760862">
        <ele>1046.53</ele>
        <time>2020-09-06T08:03:00Z</time>
      </trkpt>
      <trkpt lat="37.2044393700" lon="-3.4414405469">
        <ele>1046.53</ele>
        <time>2020-09-06T08:03:01Z</time>
      </trkpt>
      <trkpt lat="37.2043974604" lon="-3.4414149821">
        <ele>1046.53</ele>
        <time>2020-09-06T08:03:02Z</time>
      </trkpt>
      <trkpt lat="37.2043542098" lon="-3.4413891658">
        <ele>1046.53</ele>
        <time>2020-09-06T08:03:03Z</time>
      </trkpt>
      <trkpt lat="37.2043109592" lon="-3.4413576499">
        <ele>1046.53</ele>
        <time>2020-09-06T08:03:04Z</time>
      </trkpt>
      <trkpt lat="37.2041045129" lon="-3.4411955439">
        <ele>1046.53</ele>
        <time>2020-09-06T08:03:09Z</time>
      </trkpt>
      <trkpt lat="37.2040649503" lon="-3.4411631897">
        <ele>1046.53</ele>
        <time>2020-09-06T08:03:10Z</time>
      </trkpt>
      <trkpt lat="37.2037141677" lon="-3.4408730920">
        <ele>1047.01</ele>
        <time>2020-09-06T08:03:20Z</time>
      </trkpt>
      <trkpt lat="37.2037577536" lon="-3.4407959785">
        <ele>1047.49</ele>
        <time>2020-09-06T08:03:23Z</time>
      </trkpt>
      <trkpt lat="37.2038086317" lon="-3.4407426696">
        <ele>1047.97</ele>
        <time>2020-09-06T08:03:27Z</time>
      </trkpt>
      <trkpt lat="37.2038616054" lon="-3.4407039452">
        <ele>1048.94</ele>
        <time>2020-09-06T08:03:38Z</time>
      </trkpt>
      <trkpt lat="37.2038503736" lon="-3.4406992514">
        <ele>1049.42</ele>
        <time>2020-09-06T08:04:23Z</time>
      </trkpt>
      <trkpt lat="37.2038595937" lon="-3.4407019336">
        <ele>1049.90</ele>
        <time>2020-09-06T08:05:02Z</time>
      </trkpt>
      <trkpt lat="37.2038493678" lon="-3.4406803921">
        <ele>1049.90</ele>
        <time>2020-09-06T08:05:18Z</time>
      </trkpt>
      <trkpt lat="37.2038523853" lon="-3.4406835772">
        <ele>1049.90</ele>
        <time>2020-09-06T08:05:21Z</time>
      </trkpt>
      <trkpt lat="37.2037274949" lon="-3.4407855850">
        <ele>1047.49</ele>
        <time>2020-09-06T08:05:26Z</time>
      </trkpt>
      <trkpt lat="37.2036834061" lon="-3.4408023488">
        <ele>1047.49</ele>
        <time>2020-09-06T08:05:27Z</time>
      </trkpt>
      <trkpt lat="37.2036528122" lon="-3.4408078808">
        <ele>1047.49</ele>
        <time>2020-09-06T08:05:28Z</time>
      </trkpt>
      <trkpt lat="37.2036198713" lon="-3.4408034384">
        <ele>1047.49</ele>
        <time>2020-09-06T08:05:29Z</time>
      </trkpt>
      <trkpt lat="37.2035864275" lon="-3.4407908656">
        <ele>1047.49</ele>
        <time>2020-09-06T08:05:30Z</time>
      </trkpt>
      <trkpt lat="37.2031349782" lon="-3.4405092336">
        <ele>1048.45</ele>
        <time>2020-09-06T08:05:42Z</time>
      </trkpt>
      <trkpt lat="37.2030647378" lon="-3.4403642267">
        <ele>1050.38</ele>
        <time>2020-09-06T08:05:47Z</time>
      </trkpt>
      <trkpt lat="37.2032483015" lon="-3.4397339076">
        <ele>1052.30</ele>
        <time>2020-09-06T08:06:02Z</time>
      </trkpt>
      <trkpt lat="37.2033953201" lon="-3.4391261358">
        <ele>1051.82</ele>
        <time>2020-09-06T08:06:14Z</time>
      </trkpt>
      <trkpt lat="37.2034115810" lon="-3.4390423167">
        <ele>1051.82</ele>
        <time>2020-09-06T08:06:15Z</time>
      </trkpt>
      <trkpt lat="37.2034654766" lon="-3.4387942962">
        <ele>1051.34</ele>
        <time>2020-09-06T08:06:18Z</time>
      </trkpt>
      <trkpt lat="37.2034860961" lon="-3.4387158416">
        <ele>1051.34</ele>
        <time>2020-09-06T08:06:19Z</time>
      </trkpt>
      <trkpt lat="37.2034939751" lon="-3.4386355430">
        <ele>1051.34</ele>
        <time>2020-09-06T08:06:20Z</time>
      </trkpt>
      <trkpt lat="37.2034919634" lon="-3.4385540709">
        <ele>1051.34</ele>
        <time>2020-09-06T08:06:21Z</time>
      </trkpt>
      <trkpt lat="37.2034858447" lon="-3.4384755325">
        <ele>1051.34</ele>
        <time>2020-09-06T08:06:22Z</time>
      </trkpt>
      <trkpt lat="37.2034723498" lon="-3.4383978322">
        <ele>1051.34</ele>
        <time>2020-09-06T08:06:23Z</time>
      </trkpt>
      <trkpt lat="37.2034509759" lon="-3.4383232333">
        <ele>1051.34</ele>
        <time>2020-09-06T08:06:24Z</time>
      </trkpt>
      <trkpt lat="37.2034252435" lon="-3.4382508136">
        <ele>1051.34</ele>
        <time>2020-09-06T08:06:25Z</time>
      </trkpt>
      <trkpt lat="37.2033256665" lon="-3.4380478039">
        <ele>1051.34</ele>
        <time>2020-09-06T08:06:28Z</time>
      </trkpt>
      <trkpt lat="37.2032837570" lon="-3.4379924834">
        <ele>1051.34</ele>
        <time>2020-09-06T08:06:29Z</time>
      </trkpt>
      <trkpt lat="37.2032359801" lon="-3.4379484784">
        <ele>1051.34</ele>
        <time>2020-09-06T08:06:30Z</time>
      </trkpt>
      <trkpt lat="37.2031369060" lon="-3.4378852788">
        <ele>1051.34</ele>
        <time>2020-09-06T08:06:32Z</time>
      </trkpt>
      <trkpt lat="37.2028494067" lon="-3.4377846960">
        <ele>1051.34</ele>
        <time>2020-09-06T08:06:38Z</time>
      </trkpt>
      <trkpt lat="37.2027542721" lon="-3.4377819300">
        <ele>1050.86</ele>
        <time>2020-09-06T08:06:40Z</time>
      </trkpt>
      <trkpt lat="37.2027059086" lon="-3.4377873782">
        <ele>1050.86</ele>
        <time>2020-09-06T08:06:41Z</time>
      </trkpt>
      <trkpt lat="37.2026591375" lon="-3.4378006216">
        <ele>1050.86</ele>
        <time>2020-09-06T08:06:42Z</time>
      </trkpt>
      <trkpt lat="37.2026132047" lon="-3.4378197324">
        <ele>1050.86</ele>
        <time>2020-09-06T08:06:43Z</time>
      </trkpt>
      <trkpt lat="37.2025693674" lon="-3.4378430340">
        <ele>1050.86</ele>
        <time>2020-09-06T08:06:44Z</time>
      </trkpt>
      <trkpt lat="37.2020765115" lon="-3.4381481353">
        <ele>1054.22</ele>
        <time>2020-09-06T08:06:57Z</time>
      </trkpt>
      <trkpt lat="37.2019629367" lon="-3.4383217245">
        <ele>1057.59</ele>
        <time>2020-09-06T08:07:05Z</time>
      </trkpt>
      <trkpt lat="37.2018805426" lon="-3.4385626204">
        <ele>1060.95</ele>
        <time>2020-09-06T08:07:15Z</time>
      </trkpt>
      <trkpt lat="37.2019722406" lon="-3.4388683923">
        <ele>1064.32</ele>
        <time>2020-09-06T08:07:28Z</time>
      </trkpt>
      <trkpt lat="37.2019967157" lon="-3.4389112238">
        <ele>1064.80</ele>
        <time>2020-09-06T08:07:30Z</time>
      </trkpt>
      <trkpt lat="37.2019085381" lon="-3.4391729906">
        <ele>1066.72</ele>
        <time>2020-09-06T08:07:41Z</time>
      </trkpt>
      <trkpt lat="37.2016015928" lon="-3.4394169040">
        <ele>1069.60</ele>
        <time>2020-09-06T08:07:57Z</time>
      </trkpt>
      <trkpt lat="37.2012742795" lon="-3.4393995535">
        <ele>1071.05</ele>
        <time>2020-09-06T08:08:09Z</time>
      </trkpt>
      <trkpt lat="37.2008623928" lon="-3.4392796922">
        <ele>1072.97</ele>
        <time>2020-09-06T08:08:22Z</time>
      </trkpt>
      <trkpt lat="37.2005492449" lon="-3.4390810411">
        <ele>1072.97</ele>
        <time>2020-09-06T08:08:30Z</time>
      </trkpt>
      <trkpt lat="37.2004298028" lon="-3.4390104655">
        <ele>1072.97</ele>
        <time>2020-09-06T08:08:33Z</time>
      </trkpt>
      <trkpt lat="37.2003861330" lon="-3.4389988147">
        <ele>1072.97</ele>
        <time>2020-09-06T08:08:34Z</time>
      </trkpt>
      <trkpt lat="37.2003395297" lon="-3.4389951266">
        <ele>1072.97</ele>
        <time>2020-09-06T08:08:35Z</time>
      </trkpt>
      <trkpt lat="37.2002055869" lon="-3.4389906842">
        <ele>1073.45</ele>
        <time>2020-09-06T08:08:38Z</time>
      </trkpt>
      <trkpt lat="37.1997772716" lon="-3.4387113992">
        <ele>1076.33</ele>
        <time>2020-09-06T08:08:51Z</time>
      </trkpt>
      <trkpt lat="37.1997054387" lon="-3.4384820703">
        <ele>1078.26</ele>
        <time>2020-09-06T08:08:58Z</time>
      </trkpt>
      <trkpt lat="37.1997082885" lon="-3.4384574275">
        <ele>1078.26</ele>
        <time>2020-09-06T08:08:59Z</time>
      </trkpt>
      <trkpt lat="37.1997077018" lon="-3.4384304378">
        <ele>1078.74</ele>
        <time>2020-09-06T08:09:00Z</time>
      </trkpt>
      <trkpt lat="37.1997034270" lon="-3.4384026937">
        <ele>1078.74</ele>
        <time>2020-09-06T08:09:01Z</time>
      </trkpt>
      <trkpt lat="37.1996974759" lon="-3.4383748658">
        <ele>1078.74</ele>
        <time>2020-09-06T08:09:02Z</time>
      </trkpt>
      <trkpt lat="37.1996934526" lon="-3.4383438528">
        <ele>1079.22</ele>
        <time>2020-09-06T08:09:03Z</time>
      </trkpt>
      <trkpt lat="37.1996900160" lon="-3.4383132588">
        <ele>1079.22</ele>
        <time>2020-09-06T08:09:04Z</time>
      </trkpt>
      <trkpt lat="37.1996278223" lon="-3.4380348120">
        <ele>1082.58</ele>
        <time>2020-09-06T08:09:15Z</time>
      </trkpt>
      <trkpt lat="37.1996106394" lon="-3.4379996080">
        <ele>1082.58</ele>
        <time>2020-09-06T08:09:17Z</time>
      </trkpt>
      <trkpt lat="37.1996092144" lon="-3.4379789885">
        <ele>1083.06</ele>
        <time>2020-09-06T08:09:18Z</time>
      </trkpt>
      <trkpt lat="37.1996094659" lon="-3.4379564412">
        <ele>1083.06</ele>
        <time>2020-09-06T08:09:19Z</time>
      </trkpt>
      <trkpt lat="37.1996043529" lon="-3.4379334748">
        <ele>1083.54</ele>
        <time>2020-09-06T08:09:20Z</time>
      </trkpt>
      <trkpt lat="37.1995958034" lon="-3.4379122686">
        <ele>1083.54</ele>
        <time>2020-09-06T08:09:21Z</time>
      </trkpt>
      <trkpt lat="37.1995889302" lon="-3.4378912300">
        <ele>1083.54</ele>
        <time>2020-09-06T08:09:22Z</time>
      </trkpt>
      <trkpt lat="37.1995828114" lon="-3.4378691856">
        <ele>1084.02</ele>
        <time>2020-09-06T08:09:23Z</time>
      </trkpt>
      <trkpt lat="37.1995084640" lon="-3.4375765733">
        <ele>1086.91</ele>
        <time>2020-09-06T08:09:35Z</time>
      </trkpt>
      <trkpt lat="37.1994007565" lon="-3.4373148903">
        <ele>1088.83</ele>
        <time>2020-09-06T08:09:47Z</time>
      </trkpt>
      <trkpt lat="37.1993805561" lon="-3.4373127948">
        <ele>1088.83</ele>
        <time>2020-09-06T08:09:48Z</time>
      </trkpt>
      <trkpt lat="37.1993574221" lon="-3.4373149741">
        <ele>1089.31</ele>
        <time>2020-09-06T08:09:49Z</time>
      </trkpt>
      <trkpt lat="37.1993339527" lon="-3.4373209253">
        <ele>1089.31</ele>
        <time>2020-09-06T08:09:50Z</time>
      </trkpt>
      <trkpt lat="37.1993104834" lon="-3.4373299778">
        <ele>1089.31</ele>
        <time>2020-09-06T08:09:51Z</time>
      </trkpt>
      <trkpt lat="37.1992873494" lon="-3.4373424668">
        <ele>1089.79</ele>
        <time>2020-09-06T08:09:52Z</time>
      </trkpt>
      <trkpt lat="37.1989347227" lon="-3.4376293793">
        <ele>1092.68</ele>
        <time>2020-09-06T08:10:08Z</time>
      </trkpt>
      <trkpt lat="37.1986811701" lon="-3.4376729652">
        <ele>1095.56</ele>
        <time>2020-09-06T08:10:20Z</time>
      </trkpt>
      <trkpt lat="37.1984463930" lon="-3.4377763979">
        <ele>1098.92</ele>
        <time>2020-09-06T08:10:33Z</time>
      </trkpt>
      <trkpt lat="37.1983569581" lon="-3.4380250890">
        <ele>1102.29</ele>
        <time>2020-09-06T08:10:44Z</time>
      </trkpt>
      <trkpt lat="37.1983314771" lon="-3.4380514920">
        <ele>1102.29</ele>
        <time>2020-09-06T08:10:46Z</time>
      </trkpt>
      <trkpt lat="37.1983135398" lon="-3.4380561858">
        <ele>1102.77</ele>
        <time>2020-09-06T08:10:47Z</time>
      </trkpt>
      <trkpt lat="37.1982759889" lon="-3.4380341414">
        <ele>1103.25</ele>
        <time>2020-09-06T08:10:49Z</time>
      </trkpt>
      <trkpt lat="37.1982601471" lon="-3.4380089957">
        <ele>1103.73</ele>
        <time>2020-09-06T08:10:50Z</time>
      </trkpt>
      <trkpt lat="37.1982537769" lon="-3.4379900526">
        <ele>1103.73</ele>
        <time>2020-09-06T08:10:51Z</time>
      </trkpt>
      <trkpt lat="37.1982462332" lon="-3.4379627276">
        <ele>1103.73</ele>
        <time>2020-09-06T08:10:52Z</time>
      </trkpt>
      <trkpt lat="37.1981128771" lon="-3.4374926705">
        <ele>1105.17</ele>
        <time>2020-09-06T08:11:08Z</time>
      </trkpt>
      <trkpt lat="37.1979412157" lon="-3.4374459833">
        <ele>1104.69</ele>
        <time>2020-09-06T08:11:12Z</time>
      </trkpt>
      <trkpt lat="37.1978929359" lon="-3.4374179877">
        <ele>1104.21</ele>
        <time>2020-09-06T08:11:13Z</time>
      </trkpt>
      <trkpt lat="37.1978506912" lon="-3.4373688698">
        <ele>1103.25</ele>
        <time>2020-09-06T08:11:14Z</time>
      </trkpt>
      <trkpt lat="37.1977041755" lon="-3.4371112101">
        <ele>1101.81</ele>
        <time>2020-09-06T08:11:18Z</time>
      </trkpt>
      <trkpt lat="37.1976833884" lon="-3.4370237030">
        <ele>1101.81</ele>
        <time>2020-09-06T08:11:19Z</time>
      </trkpt>
      <trkpt lat="37.1976615116" lon="-3.4369454999">
        <ele>1100.85</ele>
        <time>2020-09-06T08:11:20Z</time>
      </trkpt>
      <trkpt lat="37.1976201050" lon="-3.4368767682">
        <ele>1100.85</ele>
        <time>2020-09-06T08:11:21Z</time>
      </trkpt>
      <trkpt lat="37.1975576598" lon="-3.4368245490">
        <ele>1099.40</ele>
        <time>2020-09-06T08:11:22Z</time>
      </trkpt>
      <trkpt lat="37.1974852402" lon="-3.4367892612">
        <ele>1098.92</ele>
        <time>2020-09-06T08:11:23Z</time>
      </trkpt>
      <trkpt lat="37.1974087972" lon="-3.4367707372">
        <ele>1098.44</ele>
        <time>2020-09-06T08:11:24Z</time>
      </trkpt>
      <trkpt lat="37.1973296721" lon="-3.4367628582">
        <ele>1098.44</ele>
        <time>2020-09-06T08:11:25Z</time>
      </trkpt>
      <trkpt lat="37.1972463559" lon="-3.4367561527">
        <ele>1097.96</ele>
        <time>2020-09-06T08:11:26Z</time>
      </trkpt>
      <trkpt lat="37.1971673984" lon="-3.4367434122">
        <ele>1097.00</ele>
        <time>2020-09-06T08:11:27Z</time>
      </trkpt>
      <trkpt lat="37.1969216410" lon="-3.4366914444">
        <ele>1095.08</ele>
        <time>2020-09-06T08:11:30Z</time>
      </trkpt>
      <trkpt lat="37.1968518198" lon="-3.4366454277">
        <ele>1094.60</ele>
        <time>2020-09-06T08:11:31Z</time>
      </trkpt>
      <trkpt lat="37.1968003549" lon="-3.4365701582">
        <ele>1093.64</ele>
        <time>2020-09-06T08:11:32Z</time>
      </trkpt>
      <trkpt lat="37.1967663243" lon="-3.4364786278">
        <ele>1093.16</ele>
        <time>2020-09-06T08:11:33Z</time>
      </trkpt>
      <trkpt lat="37.1967405081" lon="-3.4363837447">
        <ele>1092.68</ele>
        <time>2020-09-06T08:11:34Z</time>
      </trkpt>
      <trkpt lat="37.1967188828" lon="-3.4362878557">
        <ele>1092.68</ele>
        <time>2020-09-06T08:11:35Z</time>
      </trkpt>
      <trkpt lat="37.1967080701" lon="-3.4361873567">
        <ele>1092.68</ele>
        <time>2020-09-06T08:11:36Z</time>
      </trkpt>
      <trkpt lat="37.1966936532" lon="-3.4360013623">
        <ele>1091.71</ele>
        <time>2020-09-06T08:11:38Z</time>
      </trkpt>
      <trkpt lat="37.1966419369" lon="-3.4358675033">
        <ele>1091.71</ele>
        <time>2020-09-06T08:11:40Z</time>
      </trkpt>
      <trkpt lat="37.1966120973" lon="-3.4358091652">
        <ele>1091.71</ele>
        <time>2020-09-06T08:11:41Z</time>
      </trkpt>
      <trkpt lat="37.1965705231" lon="-3.4357603826">
        <ele>1091.71</ele>
        <time>2020-09-06T08:11:42Z</time>
      </trkpt>
      <trkpt lat="37.1965139452" lon="-3.4357473906">
        <ele>1090.75</ele>
        <time>2020-09-06T08:11:43Z</time>
      </trkpt>
      <trkpt lat="37.1964581218" lon="-3.4357719496">
        <ele>1089.79</ele>
        <time>2020-09-06T08:11:44Z</time>
      </trkpt>
      <trkpt lat="37.1964148711" lon="-3.4358261805">
        <ele>1089.31</ele>
        <time>2020-09-06T08:11:45Z</time>
      </trkpt>
      <trkpt lat="37.1963850316" lon="-3.4359042998">
        <ele>1089.31</ele>
        <time>2020-09-06T08:11:46Z</time>
      </trkpt>
      <trkpt lat="37.1963698603" lon="-3.4359926451">
        <ele>1087.39</ele>
        <time>2020-09-06T08:11:47Z</time>
      </trkpt>
      <trkpt lat="37.1963631548" lon="-3.4360796493">
        <ele>1086.91</ele>
        <time>2020-09-06T08:11:48Z</time>
      </trkpt>
      <trkpt lat="37.1963502467" lon="-3.4361591935">
        <ele>1085.95</ele>
        <time>2020-09-06T08:11:49Z</time>
      </trkpt>
      <trkpt lat="37.1963264421" lon="-3.4362247400">
        <ele>1084.99</ele>
        <time>2020-09-06T08:11:50Z</time>
      </trkpt>
      <trkpt lat="37.1963017154" lon="-3.4362827428">
        <ele>1084.02</ele>
        <time>2020-09-06T08:11:51Z</time>
      </trkpt>
      <trkpt lat="37.1962871309" lon="-3.4363458585">
        <ele>1084.02</ele>
        <time>2020-09-06T08:11:52Z</time>
      </trkpt>
      <trkpt lat="37.1962831076" lon="-3.4364147577">
        <ele>1083.54</ele>
        <time>2020-09-06T08:11:53Z</time>
      </trkpt>
      <trkpt lat="37.1962848678" lon="-3.4364879318">
        <ele>1083.54</ele>
        <time>2020-09-06T08:11:54Z</time>
      </trkpt>
      <trkpt lat="37.1962835267" lon="-3.4366358723">
        <ele>1082.58</ele>
        <time>2020-09-06T08:11:56Z</time>
      </trkpt>
      <trkpt lat="37.1962746419" lon="-3.4367143270">
        <ele>1081.14</ele>
        <time>2020-09-06T08:11:57Z</time>
      </trkpt>
      <trkpt lat="37.1962567884" lon="-3.4367987327">
        <ele>1080.18</ele>
        <time>2020-09-06T08:11:58Z</time>
      </trkpt>
      <trkpt lat="37.1961694490" lon="-3.4370553866">
        <ele>1076.81</ele>
        <time>2020-09-06T08:12:01Z</time>
      </trkpt>
      <trkpt lat="37.1961259469" lon="-3.4371287283">
        <ele>1075.37</ele>
        <time>2020-09-06T08:12:02Z</time>
      </trkpt>
      <trkpt lat="37.1960625798" lon="-3.4371923469">
        <ele>1074.41</ele>
        <time>2020-09-06T08:12:03Z</time>
      </trkpt>
      <trkpt lat="37.1959857177" lon="-3.4372506011">
        <ele>1072.97</ele>
        <time>2020-09-06T08:12:04Z</time>
      </trkpt>
      <trkpt lat="37.1959021501" lon="-3.4373036586">
        <ele>1070.57</ele>
        <time>2020-09-06T08:12:05Z</time>
      </trkpt>
      <trkpt lat="37.1958163194" lon="-3.4373497590">
        <ele>1069.60</ele>
        <time>2020-09-06T08:12:06Z</time>
      </trkpt>
      <trkpt lat="37.1957258787" lon="-3.4373822808">
        <ele>1067.68</ele>
        <time>2020-09-06T08:12:07Z</time>
      </trkpt>
      <trkpt lat="37.1956332587" lon="-3.4374113660">
        <ele>1067.20</ele>
        <time>2020-09-06T08:12:08Z</time>
      </trkpt>
      <trkpt lat="37.1955427341" lon="-3.4374458157">
        <ele>1066.24</ele>
        <time>2020-09-06T08:12:09Z</time>
      </trkpt>
      <trkpt lat="37.1954549756" lon="-3.4374723863">
        <ele>1066.24</ele>
        <time>2020-09-06T08:12:10Z</time>
      </trkpt>
      <trkpt lat="37.1950886864" lon="-3.4375269525">
        <ele>1070.08</ele>
        <time>2020-09-06T08:12:16Z</time>
      </trkpt>
      <trkpt lat="37.1949560847" lon="-3.4375501703">
        <ele>1072.49</ele>
        <time>2020-09-06T08:12:21Z</time>
      </trkpt>
      <trkpt lat="37.1946593653" lon="-3.4374230169">
        <ele>1075.37</ele>
        <time>2020-09-06T08:12:34Z</time>
      </trkpt>
      <trkpt lat="37.1944318805" lon="-3.4372385312">
        <ele>1078.26</ele>
        <time>2020-09-06T08:12:46Z</time>
      </trkpt>
      <trkpt lat="37.1941335686" lon="-3.4370084479">
        <ele>1081.62</ele>
        <time>2020-09-06T08:13:01Z</time>
      </trkpt>
      <trkpt lat="37.1940400265" lon="-3.4368949570">
        <ele>1082.58</ele>
        <time>2020-09-06T08:13:06Z</time>
      </trkpt>
      <trkpt lat="37.1940401942" lon="-3.4368574060">
        <ele>1082.58</ele>
        <time>2020-09-06T08:13:07Z</time>
      </trkpt>
      <trkpt lat="37.1940470673" lon="-3.4368186817">
        <ele>1082.58</ele>
        <time>2020-09-06T08:13:08Z</time>
      </trkpt>
      <trkpt lat="37.1940557845" lon="-3.4367790353">
        <ele>1083.06</ele>
        <time>2020-09-06T08:13:09Z</time>
      </trkpt>
      <trkpt lat="37.1940707043" lon="-3.4367394727">
        <ele>1083.06</ele>
        <time>2020-09-06T08:13:10Z</time>
      </trkpt>
      <trkpt lat="37.1940884739" lon="-3.4367016703">
        <ele>1083.06</ele>
        <time>2020-09-06T08:13:11Z</time>
      </trkpt>
      <trkpt lat="37.1941058245" lon="-3.4366601799">
        <ele>1083.06</ele>
        <time>2020-09-06T08:13:12Z</time>
      </trkpt>
      <trkpt lat="37.1941152960" lon="-3.4366159234">
        <ele>1083.06</ele>
        <time>2020-09-06T08:13:13Z</time>
      </trkpt>
      <trkpt lat="37.1941179782" lon="-3.4365652967">
        <ele>1083.06</ele>
        <time>2020-09-06T08:13:14Z</time>
      </trkpt>
      <trkpt lat="37.1941173915" lon="-3.4365191124">
        <ele>1083.06</ele>
        <time>2020-09-06T08:13:15Z</time>
      </trkpt>
      <trkpt lat="37.1941148769" lon="-3.4364741016">
        <ele>1083.06</ele>
        <time>2020-09-06T08:13:16Z</time>
      </trkpt>
      <trkpt lat="37.1941086743" lon="-3.4364286717">
        <ele>1083.06</ele>
        <time>2020-09-06T08:13:17Z</time>
      </trkpt>
      <trkpt lat="37.1940992028" lon="-3.4363854211">
        <ele>1083.06</ele>
        <time>2020-09-06T08:13:18Z</time>
      </trkpt>
      <trkpt lat="37.1939538606" lon="-3.4360752068">
        <ele>1083.54</ele>
        <time>2020-09-06T08:13:26Z</time>
      </trkpt>
      <trkpt lat="37.1939144656" lon="-3.4360558446">
        <ele>1083.54</ele>
        <time>2020-09-06T08:13:27Z</time>
      </trkpt>
      <trkpt lat="37.1938671079" lon="-3.4360406734">
        <ele>1083.54</ele>
        <time>2020-09-06T08:13:28Z</time>
      </trkpt>
      <trkpt lat="37.1938114520" lon="-3.4360337164">
        <ele>1083.54</ele>
        <time>2020-09-06T08:13:29Z</time>
      </trkpt>
      <trkpt lat="37.1937564667" lon="-3.4360267594">
        <ele>1083.54</ele>
        <time>2020-09-06T08:13:30Z</time>
      </trkpt>
      <trkpt lat="37.1936998051" lon="-3.4360186290">
        <ele>1082.58</ele>
        <time>2020-09-06T08:13:31Z</time>
      </trkpt>
      <trkpt lat="37.1936397068" lon="-3.4360177070">
        <ele>1082.58</ele>
        <time>2020-09-06T08:13:32Z</time>
      </trkpt>
      <trkpt lat="37.1935787704" lon="-3.4360317886">
        <ele>1081.62</ele>
        <time>2020-09-06T08:13:33Z</time>
      </trkpt>
      <trkpt lat="37.1935207676" lon="-3.4360554256">
        <ele>1081.14</ele>
        <time>2020-09-06T08:13:34Z</time>
      </trkpt>
      <trkpt lat="37.1934589092" lon="-3.4360704292">
        <ele>1081.14</ele>
        <time>2020-09-06T08:13:35Z</time>
      </trkpt>
      <trkpt lat="37.1933895908" lon="-3.4360705968">
        <ele>1080.66</ele>
        <time>2020-09-06T08:13:36Z</time>
      </trkpt>
      <trkpt lat="37.1932540555" lon="-3.4360522404">
        <ele>1079.70</ele>
        <time>2020-09-06T08:13:38Z</time>
      </trkpt>
      <trkpt lat="37.1931888442" lon="-3.4360289387">
        <ele>1079.22</ele>
        <time>2020-09-06T08:13:39Z</time>
      </trkpt>
      <trkpt lat="37.1931274049" lon="-3.4359919745">
        <ele>1079.22</ele>
        <time>2020-09-06T08:13:40Z</time>
      </trkpt>
      <trkpt lat="37.1930678934" lon="-3.4359414317">
        <ele>1079.22</ele>
        <time>2020-09-06T08:13:41Z</time>
      </trkpt>
      <trkpt lat="37.1930085495" lon="-3.4358815849">
        <ele>1078.26</ele>
        <time>2020-09-06T08:13:42Z</time>
      </trkpt>
      <trkpt lat="37.1923370752" lon="-3.4352370165">
        <ele>1075.85</ele>
        <time>2020-09-06T08:13:53Z</time>
      </trkpt>
      <trkpt lat="37.1922929026" lon="-3.4351678658">
        <ele>1075.85</ele>
        <time>2020-09-06T08:13:54Z</time>
      </trkpt>
      <trkpt lat="37.1921880450" lon="-3.4349775128">
        <ele>1075.85</ele>
        <time>2020-09-06T08:13:57Z</time>
      </trkpt>
      <trkpt lat="37.1920442116" lon="-3.4347757604">
        <ele>1077.29</ele>
        <time>2020-09-06T08:14:01Z</time>
      </trkpt>
      <trkpt lat="37.1920166351" lon="-3.4347290732">
        <ele>1078.26</ele>
        <time>2020-09-06T08:14:02Z</time>
      </trkpt>
      <trkpt lat="37.1919939201" lon="-3.4346845653">
        <ele>1078.26</ele>
        <time>2020-09-06T08:14:03Z</time>
      </trkpt>
      <trkpt lat="37.1918980312" lon="-3.4344607685">
        <ele>1081.14</ele>
        <time>2020-09-06T08:14:09Z</time>
      </trkpt>
      <trkpt lat="37.1916820295" lon="-3.4340240713">
        <ele>1084.50</ele>
        <time>2020-09-06T08:14:22Z</time>
      </trkpt>
      <trkpt lat="37.1915742382" lon="-3.4334487375">
        <ele>1087.87</ele>
        <time>2020-09-06T08:14:37Z</time>
      </trkpt>
      <trkpt lat="37.1914484259" lon="-3.4328965377">
        <ele>1090.75</ele>
        <time>2020-09-06T08:14:52Z</time>
      </trkpt>
      <trkpt lat="37.1911175083" lon="-3.4325355291">
        <ele>1091.71</ele>
        <time>2020-09-06T08:15:04Z</time>
      </trkpt>
      <trkpt lat="37.1908944659" lon="-3.4323044401">
        <ele>1090.75</ele>
        <time>2020-09-06T08:15:10Z</time>
      </trkpt>
      <trkpt lat="37.1908490360" lon="-3.4322729241">
        <ele>1090.75</ele>
        <time>2020-09-06T08:15:11Z</time>
      </trkpt>
      <trkpt lat="37.1907564159" lon="-3.4322144184">
        <ele>1090.75</ele>
        <time>2020-09-06T08:15:13Z</time>
      </trkpt>
      <trkpt lat="37.1907081362" lon="-3.4321954753">
        <ele>1090.27</ele>
        <time>2020-09-06T08:15:14Z</time>
      </trkpt>
      <trkpt lat="37.1906596050" lon="-3.4321931284">
        <ele>1090.27</ele>
        <time>2020-09-06T08:15:15Z</time>
      </trkpt>
      <trkpt lat="37.1899540164" lon="-3.4323103912">
        <ele>1091.71</ele>
        <time>2020-09-06T08:15:29Z</time>
      </trkpt>
      <trkpt lat="37.1899051499" lon="-3.4323092178">
        <ele>1091.71</ele>
        <time>2020-09-06T08:15:30Z</time>
      </trkpt>
      <trkpt lat="37.1898085065" lon="-3.4323000815">
        <ele>1091.71</ele>
        <time>2020-09-06T08:15:32Z</time>
      </trkpt>
      <trkpt lat="37.1897620708" lon="-3.4322906099">
        <ele>1091.71</ele>
        <time>2020-09-06T08:15:33Z</time>
      </trkpt>
      <trkpt lat="37.1897166409" lon="-3.4322755225">
        <ele>1092.20</ele>
        <time>2020-09-06T08:15:34Z</time>
      </trkpt>
      <trkpt lat="37.1896739770" lon="-3.4322533105">
        <ele>1092.20</ele>
        <time>2020-09-06T08:15:35Z</time>
      </trkpt>
      <trkpt lat="37.1896322351" lon="-3.4322308470">
        <ele>1092.20</ele>
        <time>2020-09-06T08:15:36Z</time>
      </trkpt>
      <trkpt lat="37.1895886492" lon="-3.4322149213">
        <ele>1092.20</ele>
        <time>2020-09-06T08:15:37Z</time>
      </trkpt>
      <trkpt lat="37.1895430516" lon="-3.4322160110">
        <ele>1092.20</ele>
        <time>2020-09-06T08:15:38Z</time>
      </trkpt>
      <trkpt lat="37.1894972026" lon="-3.4322335292">
        <ele>1092.20</ele>
        <time>2020-09-06T08:15:39Z</time>
      </trkpt>
      <trkpt lat="37.1894568857" lon="-3.4322599322">
        <ele>1092.20</ele>
        <time>2020-09-06T08:15:40Z</time>
      </trkpt>
      <trkpt lat="37.1894162335" lon="-3.4322865028">
        <ele>1092.20</ele>
        <time>2020-09-06T08:15:41Z</time>
      </trkpt>
      <trkpt lat="37.1891751699" lon="-3.4324434120">
        <ele>1092.68</ele>
        <time>2020-09-06T08:15:47Z</time>
      </trkpt>
      <trkpt lat="37.1890268102" lon="-3.4326008242">
        <ele>1092.68</ele>
        <time>2020-09-06T08:15:51Z</time>
      </trkpt>
      <trkpt lat="37.1889996529" lon="-3.4326536302">
        <ele>1092.68</ele>
        <time>2020-09-06T08:15:52Z</time>
      </trkpt>
      <trkpt lat="37.1889806259" lon="-3.4327148180">
        <ele>1092.68</ele>
        <time>2020-09-06T08:15:53Z</time>
      </trkpt>
      <trkpt lat="37.1889687236" lon="-3.4327856451">
        <ele>1092.68</ele>
        <time>2020-09-06T08:15:54Z</time>
      </trkpt>
      <trkpt lat="37.1889611799" lon="-3.4328537062">
        <ele>1092.68</ele>
        <time>2020-09-06T08:15:55Z</time>
      </trkpt>
      <trkpt lat="37.1889415663" lon="-3.4329828713">
        <ele>1092.68</ele>
        <time>2020-09-06T08:15:57Z</time>
      </trkpt>
      <trkpt lat="37.1889180969" lon="-3.4330396168">
        <ele>1092.68</ele>
        <time>2020-09-06T08:15:58Z</time>
      </trkpt>
      <trkpt lat="37.1888812166" lon="-3.4330847114">
        <ele>1092.68</ele>
        <time>2020-09-06T08:15:59Z</time>
      </trkpt>
      <trkpt lat="37.1888294164" lon="-3.4331107792">
        <ele>1092.68</ele>
        <time>2020-09-06T08:16:00Z</time>
      </trkpt>
      <trkpt lat="37.1887750179" lon="-3.4331158083">
        <ele>1092.68</ele>
        <time>2020-09-06T08:16:01Z</time>
      </trkpt>
      <trkpt lat="37.1887206193" lon="-3.4331056662">
        <ele>1093.16</ele>
        <time>2020-09-06T08:16:02Z</time>
      </trkpt>
      <trkpt lat="37.1886674780" lon="-3.4330893215">
        <ele>1093.16</ele>
        <time>2020-09-06T08:16:03Z</time>
      </trkpt>
      <trkpt lat="37.1882368997" lon="-3.4329323284">
        <ele>1093.16</ele>
        <time>2020-09-06T08:16:11Z</time>
      </trkpt>
      <trkpt lat="37.1881832555" lon="-3.4328947775">
        <ele>1093.16</ele>
        <time>2020-09-06T08:16:12Z</time>
      </trkpt>
      <trkpt lat="37.1881355625" lon="-3.4328406304">
        <ele>1091.71</ele>
        <time>2020-09-06T08:16:13Z</time>
      </trkpt>
      <trkpt lat="37.1880960837" lon="-3.4327751677">
        <ele>1091.23</ele>
        <time>2020-09-06T08:16:14Z</time>
      </trkpt>
      <trkpt lat="37.1880682558" lon="-3.4326993953">
        <ele>1091.23</ele>
        <time>2020-09-06T08:16:15Z</time>
      </trkpt>
      <trkpt lat="37.1880545095" lon="-3.4326228686">
        <ele>1089.79</ele>
        <time>2020-09-06T08:16:16Z</time>
      </trkpt>
      <trkpt lat="37.1880375780" lon="-3.4325481020">
        <ele>1088.83</ele>
        <time>2020-09-06T08:16:17Z</time>
      </trkpt>
      <trkpt lat="37.1880118456" lon="-3.4324864950">
        <ele>1087.87</ele>
        <time>2020-09-06T08:16:18Z</time>
      </trkpt>
      <trkpt lat="37.1879784856" lon="-3.4324502852">
        <ele>1087.87</ele>
        <time>2020-09-06T08:16:19Z</time>
      </trkpt>
      <trkpt lat="37.1879389230" lon="-3.4324405622">
        <ele>1087.39</ele>
        <time>2020-09-06T08:16:20Z</time>
      </trkpt>
      <trkpt lat="37.1879010368" lon="-3.4324477706">
        <ele>1087.39</ele>
        <time>2020-09-06T08:16:21Z</time>
      </trkpt>
      <trkpt lat="37.1878662519" lon="-3.4324647859">
        <ele>1087.39</ele>
        <time>2020-09-06T08:16:22Z</time>
      </trkpt>
      <trkpt lat="37.1878345683" lon="-3.4324878361">
        <ele>1087.39</ele>
        <time>2020-09-06T08:16:23Z</time>
      </trkpt>
      <trkpt lat="37.1878040582" lon="-3.4325154964">
        <ele>1087.39</ele>
        <time>2020-09-06T08:16:24Z</time>
      </trkpt>
      <trkpt lat="37.1877766494" lon="-3.4325424023">
        <ele>1088.83</ele>
        <time>2020-09-06T08:16:25Z</time>
      </trkpt>
      <trkpt lat="37.1876346599" lon="-3.4327482618">
        <ele>1092.68</ele>
        <time>2020-09-06T08:16:34Z</time>
      </trkpt>
      <trkpt lat="37.1876222547" lon="-3.4327696357">
        <ele>1092.68</ele>
        <time>2020-09-06T08:16:35Z</time>
      </trkpt>
      <trkpt lat="37.1874983702" lon="-3.4331143834">
        <ele>1095.08</ele>
        <time>2020-09-06T08:16:48Z</time>
      </trkpt>
      <trkpt lat="37.1873630024" lon="-3.4335987736">
        <ele>1096.52</ele>
        <time>2020-09-06T08:17:02Z</time>
      </trkpt>
      <trkpt lat="37.1872442309" lon="-3.4338907991">
        <ele>1095.56</ele>
        <time>2020-09-06T08:17:08Z</time>
      </trkpt>
      <trkpt lat="37.1871490125" lon="-3.4341617860">
        <ele>1095.56</ele>
        <time>2020-09-06T08:17:13Z</time>
      </trkpt>
      <trkpt lat="37.1871203464" lon="-3.4342097305">
        <ele>1095.56</ele>
        <time>2020-09-06T08:17:14Z</time>
      </trkpt>
      <trkpt lat="37.1868264768" lon="-3.4345085453">
        <ele>1097.00</ele>
        <time>2020-09-06T08:17:22Z</time>
      </trkpt>
      <trkpt lat="37.1867900155" lon="-3.4345486108">
        <ele>1097.00</ele>
        <time>2020-09-06T08:17:23Z</time>
      </trkpt>
      <trkpt lat="37.1867559850" lon="-3.4345911909">
        <ele>1097.00</ele>
        <time>2020-09-06T08:17:24Z</time>
      </trkpt>
      <trkpt lat="37.1867248882" lon="-3.4346369561">
        <ele>1097.48</ele>
        <time>2020-09-06T08:17:25Z</time>
      </trkpt>
      <trkpt lat="37.1864362992" lon="-3.4351136349">
        <ele>1100.37</ele>
        <time>2020-09-06T08:17:38Z</time>
      </trkpt>
      <trkpt lat="37.1863995865" lon="-3.4351426363">
        <ele>1100.37</ele>
        <time>2020-09-06T08:17:39Z</time>
      </trkpt>
      <trkpt lat="37.1863620356" lon="-3.4351588134">
        <ele>1100.37</ele>
        <time>2020-09-06T08:17:40Z</time>
      </trkpt>
      <trkpt lat="37.1863247361" lon="-3.4351597354">
        <ele>1100.37</ele>
        <time>2020-09-06T08:17:41Z</time>
      </trkpt>
      <trkpt lat="37.1862870175" lon="-3.4351459052">
        <ele>1100.37</ele>
        <time>2020-09-06T08:17:42Z</time>
      </trkpt>
      <trkpt lat="37.1862534061" lon="-3.4351190832">
        <ele>1100.37</ele>
        <time>2020-09-06T08:17:43Z</time>
      </trkpt>
      <trkpt lat="37.1862244047" lon="-3.4350840468">
        <ele>1100.37</ele>
        <time>2020-09-06T08:17:44Z</time>
      </trkpt>
      <trkpt lat="37.1862001810" lon="-3.4350490104">
        <ele>1100.85</ele>
        <time>2020-09-06T08:17:45Z</time>
      </trkpt>
      <trkpt lat="37.1861724369" lon="-3.4350254573">
        <ele>1100.85</ele>
        <time>2020-09-06T08:17:46Z</time>
      </trkpt>
      <trkpt lat="37.1861403342" lon="-3.4350112081">
        <ele>1101.81</ele>
        <time>2020-09-06T08:17:47Z</time>
      </trkpt>
      <trkpt lat="37.1861100756" lon="-3.4350010660">
        <ele>1101.81</ele>
        <time>2020-09-06T08:17:48Z</time>
      </trkpt>
      <trkpt lat="37.1858866978" lon="-3.4349375311">
        <ele>1104.69</ele>
        <time>2020-09-06T08:17:57Z</time>
      </trkpt>
      <trkpt lat="37.1855053212" lon="-3.4347073641">
        <ele>1107.58</ele>
        <time>2020-09-06T08:18:13Z</time>
      </trkpt>
      <trkpt lat="37.1851199213" lon="-3.4346538037">
        <ele>1110.94</ele>
        <time>2020-09-06T08:18:27Z</time>
      </trkpt>
      <trkpt lat="37.1849053446" lon="-3.4346992336">
        <ele>1114.31</ele>
        <time>2020-09-06T08:18:37Z</time>
      </trkpt>
      <trkpt lat="37.1845242195" lon="-3.4348057676">
        <ele>1116.23</ele>
        <time>2020-09-06T08:18:52Z</time>
      </trkpt>
      <trkpt lat="37.1843084693" lon="-3.4351681173">
        <ele>1118.63</ele>
        <time>2020-09-06T08:19:05Z</time>
      </trkpt>
      <trkpt lat="37.1841984987" lon="-3.4354945086">
        <ele>1121.52</ele>
        <time>2020-09-06T08:19:17Z</time>
      </trkpt>
      <trkpt lat="37.1839856822" lon="-3.4357150365">
        <ele>1124.88</ele>
        <time>2020-09-06T08:19:30Z</time>
      </trkpt>
      <trkpt lat="37.1837130189" lon="-3.4359435271">
        <ele>1127.28</ele>
        <time>2020-09-06T08:19:43Z</time>
      </trkpt>
      <trkpt lat="37.1835665032" lon="-3.4362155199">
        <ele>1130.17</ele>
        <time>2020-09-06T08:19:55Z</time>
      </trkpt>
      <trkpt lat="37.1834128629" lon="-3.4364922903">
        <ele>1133.05</ele>
        <time>2020-09-06T08:20:07Z</time>
      </trkpt>
      <trkpt lat="37.1833944228" lon="-3.4365080483">
        <ele>1133.53</ele>
        <time>2020-09-06T08:20:08Z</time>
      </trkpt>
      <trkpt lat="37.1833757311" lon="-3.4365247283">
        <ele>1133.53</ele>
        <time>2020-09-06T08:20:09Z</time>
      </trkpt>
      <trkpt lat="37.1833607275" lon="-3.4365480300">
        <ele>1134.01</ele>
        <time>2020-09-06T08:20:10Z</time>
      </trkpt>
      <trkpt lat="37.1833493281" lon="-3.4365720022">
        <ele>1134.01</ele>
        <time>2020-09-06T08:20:11Z</time>
      </trkpt>
      <trkpt lat="37.1831716318" lon="-3.4368419833">
        <ele>1137.38</ele>
        <time>2020-09-06T08:20:23Z</time>
      </trkpt>
      <trkpt lat="37.1828214359" lon="-3.4371589869">
        <ele>1138.34</ele>
        <time>2020-09-06T08:20:36Z</time>
      </trkpt>
      <trkpt lat="37.1826766804" lon="-3.4372859728">
        <ele>1136.90</ele>
        <time>2020-09-06T08:20:39Z</time>
      </trkpt>
      <trkpt lat="37.1820187010" lon="-3.4378473926">
        <ele>1136.90</ele>
        <time>2020-09-06T08:20:52Z</time>
      </trkpt>
      <trkpt lat="37.1819006838" lon="-3.4379766416">
        <ele>1137.86</ele>
        <time>2020-09-06T08:20:55Z</time>
      </trkpt>
      <trkpt lat="37.1816951595" lon="-3.4383524023">
        <ele>1140.74</ele>
        <time>2020-09-06T08:21:04Z</time>
      </trkpt>
      <trkpt lat="37.1815042198" lon="-3.4388327692">
        <ele>1144.59</ele>
        <time>2020-09-06T08:21:18Z</time>
      </trkpt>
      <trkpt lat="37.1812450513" lon="-3.4392693825">
        <ele>1147.95</ele>
        <time>2020-09-06T08:21:33Z</time>
      </trkpt>
      <trkpt lat="37.1810422093" lon="-3.4394454025">
        <ele>1151.32</ele>
        <time>2020-09-06T08:21:45Z</time>
      </trkpt>
      <trkpt lat="37.1808988787" lon="-3.4395242762">
        <ele>1154.68</ele>
        <time>2020-09-06T08:21:54Z</time>
      </trkpt>
      <trkpt lat="37.1807917580" lon="-3.4395902418">
        <ele>1156.60</ele>
        <time>2020-09-06T08:22:01Z</time>
      </trkpt>
      <trkpt lat="37.1806234494" lon="-3.4397106897">
        <ele>1159.97</ele>
        <time>2020-09-06T08:22:12Z</time>
      </trkpt>
      <trkpt lat="37.1804162487" lon="-3.4398511704">
        <ele>1163.33</ele>
        <time>2020-09-06T08:22:24Z</time>
      </trkpt>
      <trkpt lat="37.1802427433" lon="-3.4402065631">
        <ele>1166.70</ele>
        <time>2020-09-06T08:22:40Z</time>
      </trkpt>
      <trkpt lat="37.1800167672" lon="-3.4405399114">
        <ele>1170.06</ele>
        <time>2020-09-06T08:22:56Z</time>
      </trkpt>
      <trkpt lat="37.1796621289" lon="-3.4405907057">
        <ele>1171.98</ele>
        <time>2020-09-06T08:23:09Z</time>
      </trkpt>
      <trkpt lat="37.1794273518" lon="-3.4407082200">
        <ele>1173.91</ele>
        <time>2020-09-06T08:23:18Z</time>
      </trkpt>
      <trkpt lat="37.1791811753" lon="-3.4409395605">
        <ele>1177.27</ele>
        <time>2020-09-06T08:23:31Z</time>
      </trkpt>
      <trkpt lat="37.1788475756" lon="-3.4411539696">
        <ele>1180.64</ele>
        <time>2020-09-06T08:23:46Z</time>
      </trkpt>
      <trkpt lat="37.1784309950" lon="-3.4412879124">
        <ele>1183.52</ele>
        <time>2020-09-06T08:24:01Z</time>
      </trkpt>
      <trkpt lat="37.1780927852" lon="-3.4414605796">
        <ele>1186.40</ele>
        <time>2020-09-06T08:24:14Z</time>
      </trkpt>
      <trkpt lat="37.1778420825" lon="-3.4417084325">
        <ele>1189.29</ele>
        <time>2020-09-06T08:24:27Z</time>
      </trkpt>
      <trkpt lat="37.1776925493" lon="-3.4419836942">
        <ele>1192.65</ele>
        <time>2020-09-06T08:24:38Z</time>
      </trkpt>
      <trkpt lat="37.1773306187" lon="-3.4422197286">
        <ele>1196.02</ele>
        <time>2020-09-06T08:24:54Z</time>
      </trkpt>
      <trkpt lat="37.1770627331" lon="-3.4422245901">
        <ele>1198.90</ele>
        <time>2020-09-06T08:25:06Z</time>
      </trkpt>
      <trkpt lat="37.1767833643" lon="-3.4420655854">
        <ele>1202.27</ele>
        <time>2020-09-06T08:25:19Z</time>
      </trkpt>
      <trkpt lat="37.1764853038" lon="-3.4420437086">
        <ele>1205.15</ele>
        <time>2020-09-06T08:25:32Z</time>
      </trkpt>
      <trkpt lat="37.1762874909" lon="-3.4421352390">
        <ele>1208.51</ele>
        <time>2020-09-06T08:25:43Z</time>
      </trkpt>
      <trkpt lat="37.1761058550" lon="-3.4421131108">
        <ele>1211.88</ele>
        <time>2020-09-06T08:25:55Z</time>
      </trkpt>
      <trkpt lat="37.1759611834" lon="-3.4420017991">
        <ele>1214.76</ele>
        <time>2020-09-06T08:26:06Z</time>
      </trkpt>
      <trkpt lat="37.1757999994" lon="-3.4418971092">
        <ele>1218.13</ele>
        <time>2020-09-06T08:26:17Z</time>
      </trkpt>
      <trkpt lat="37.1756206267" lon="-3.4418134578">
        <ele>1221.49</ele>
        <time>2020-09-06T08:26:28Z</time>
      </trkpt>
      <trkpt lat="37.1754152700" lon="-3.4417360090">
        <ele>1224.38</ele>
        <time>2020-09-06T08:26:40Z</time>
      </trkpt>
      <trkpt lat="37.1751566045" lon="-3.4416214284">
        <ele>1228.22</ele>
        <time>2020-09-06T08:26:53Z</time>
      </trkpt>
      <trkpt lat="37.1750879567" lon="-3.4416210931">
        <ele>1228.22</ele>
        <time>2020-09-06T08:26:56Z</time>
      </trkpt>
      <trkpt lat="37.1750727016" lon="-3.4416276310">
        <ele>1228.70</ele>
        <time>2020-09-06T08:26:57Z</time>
      </trkpt>
      <trkpt lat="37.1750515793" lon="-3.4416400362">
        <ele>1228.70</ele>
        <time>2020-09-06T08:26:58Z</time>
      </trkpt>
      <trkpt lat="37.1750329714" lon="-3.4416562971">
        <ele>1228.70</ele>
        <time>2020-09-06T08:26:59Z</time>
      </trkpt>
      <trkpt lat="37.1750163753" lon="-3.4416752402">
        <ele>1229.18</ele>
        <time>2020-09-06T08:27:00Z</time>
      </trkpt>
      <trkpt lat="37.1749994438" lon="-3.4416913334">
        <ele>1229.18</ele>
        <time>2020-09-06T08:27:01Z</time>
      </trkpt>
      <trkpt lat="37.1749818418" lon="-3.4417045768">
        <ele>1229.66</ele>
        <time>2020-09-06T08:27:02Z</time>
      </trkpt>
      <trkpt lat="37.1747451369" lon="-3.4418035671">
        <ele>1233.03</ele>
        <time>2020-09-06T08:27:14Z</time>
      </trkpt>
      <trkpt lat="37.1744703781" lon="-3.4419242665">
        <ele>1235.91</ele>
        <time>2020-09-06T08:27:27Z</time>
      </trkpt>
      <trkpt lat="37.1742067672" lon="-3.4420348238">
        <ele>1239.28</ele>
        <time>2020-09-06T08:27:40Z</time>
      </trkpt>
      <trkpt lat="37.1738932002" lon="-3.4421129432">
        <ele>1242.64</ele>
        <time>2020-09-06T08:27:53Z</time>
      </trkpt>
      <trkpt lat="37.1735158470" lon="-3.4422001988">
        <ele>1245.53</ele>
        <time>2020-09-06T08:28:08Z</time>
      </trkpt>
      <trkpt lat="37.1732540801" lon="-3.4422748815">
        <ele>1248.89</ele>
        <time>2020-09-06T08:28:20Z</time>
      </trkpt>
      <trkpt lat="37.1730119269" lon="-3.4423767217">
        <ele>1252.25</ele>
        <time>2020-09-06T08:28:32Z</time>
      </trkpt>
      <trkpt lat="37.1727289539" lon="-3.4426042903">
        <ele>1255.62</ele>
        <time>2020-09-06T08:28:47Z</time>
      </trkpt>
      <trkpt lat="37.1725349966" lon="-3.4427903686">
        <ele>1258.50</ele>
        <time>2020-09-06T08:28:59Z</time>
      </trkpt>
      <trkpt lat="37.1723334119" lon="-3.4429772012">
        <ele>1261.87</ele>
        <time>2020-09-06T08:29:11Z</time>
      </trkpt>
      <trkpt lat="37.1721801069" lon="-3.4430963919">
        <ele>1264.27</ele>
        <time>2020-09-06T08:29:20Z</time>
      </trkpt>
      <trkpt lat="37.1721599903" lon="-3.4431041032">
        <ele>1264.27</ele>
        <time>2020-09-06T08:29:21Z</time>
      </trkpt>
      <trkpt lat="37.1721421368" lon="-3.4431192745">
        <ele>1264.27</ele>
        <time>2020-09-06T08:29:22Z</time>
      </trkpt>
      <trkpt lat="37.1719078626" lon="-3.4432554804">
        <ele>1267.64</ele>
        <time>2020-09-06T08:29:34Z</time>
      </trkpt>
      <trkpt lat="37.1717018355" lon="-3.4433647804">
        <ele>1269.56</ele>
        <time>2020-09-06T08:29:44Z</time>
      </trkpt>
      <trkpt lat="37.1716818865" lon="-3.4433818795">
        <ele>1269.56</ele>
        <time>2020-09-06T08:29:45Z</time>
      </trkpt>
      <trkpt lat="37.1716593392" lon="-3.4433975536">
        <ele>1270.52</ele>
        <time>2020-09-06T08:29:46Z</time>
      </trkpt>
      <trkpt lat="37.1712749451" lon="-3.4436714742">
        <ele>1273.88</ele>
        <time>2020-09-06T08:30:03Z</time>
      </trkpt>
      <trkpt lat="37.1708731167" lon="-3.4438775014">
        <ele>1274.85</ele>
        <time>2020-09-06T08:30:16Z</time>
      </trkpt>
      <trkpt lat="37.1707275230" lon="-3.4439428803">
        <ele>1273.40</ele>
        <time>2020-09-06T08:30:19Z</time>
      </trkpt>
      <trkpt lat="37.1700975392" lon="-3.4444212355">
        <ele>1269.56</ele>
        <time>2020-09-06T08:30:31Z</time>
      </trkpt>
      <trkpt lat="37.1698335093" lon="-3.4447037056">
        <ele>1266.19</ele>
        <time>2020-09-06T08:30:35Z</time>
      </trkpt>
      <trkpt lat="37.1697516181" lon="-3.4447575174">
        <ele>1265.23</ele>
        <time>2020-09-06T08:30:36Z</time>
      </trkpt>
      <trkpt lat="37.1696642786" lon="-3.4447735269">
        <ele>1264.75</ele>
        <time>2020-09-06T08:30:37Z</time>
      </trkpt>
      <trkpt lat="37.1695780288" lon="-3.4447472077">
        <ele>1263.31</ele>
        <time>2020-09-06T08:30:38Z</time>
      </trkpt>
      <trkpt lat="37.1694990713" lon="-3.4446815774">
        <ele>1261.39</ele>
        <time>2020-09-06T08:30:39Z</time>
      </trkpt>
      <trkpt lat="37.1694212034" lon="-3.4446040448">
        <ele>1260.91</ele>
        <time>2020-09-06T08:30:40Z</time>
      </trkpt>
      <trkpt lat="37.1693323553" lon="-3.4445416834">
        <ele>1259.94</ele>
        <time>2020-09-06T08:30:41Z</time>
      </trkpt>
      <trkpt lat="37.1692274138" lon="-3.4445107542">
        <ele>1258.98</ele>
        <time>2020-09-06T08:30:42Z</time>
      </trkpt>
      <trkpt lat="37.1691168565" lon="-3.4445108380">
        <ele>1258.50</ele>
        <time>2020-09-06T08:30:43Z</time>
      </trkpt>
      <trkpt lat="37.1690020245" lon="-3.4445348103">
        <ele>1257.54</ele>
        <time>2020-09-06T08:30:44Z</time>
      </trkpt>
      <trkpt lat="37.1688932274" lon="-3.4445707686">
        <ele>1257.06</ele>
        <time>2020-09-06T08:30:45Z</time>
      </trkpt>
      <trkpt lat="37.1687904652" lon="-3.4446170367">
        <ele>1256.58</ele>
        <time>2020-09-06T08:30:46Z</time>
      </trkpt>
      <trkpt lat="37.1686937381" lon="-3.4446709324">
        <ele>1256.58</ele>
        <time>2020-09-06T08:30:47Z</time>
      </trkpt>
      <trkpt lat="37.1682818513" lon="-3.4448770434">
        <ele>1253.22</ele>
        <time>2020-09-06T08:30:51Z</time>
      </trkpt>
      <trkpt lat="37.1679736488" lon="-3.4449716751">
        <ele>1251.29</ele>
        <time>2020-09-06T08:30:54Z</time>
      </trkpt>
      <trkpt lat="37.1678887401" lon="-3.4449715912">
        <ele>1250.33</ele>
        <time>2020-09-06T08:30:55Z</time>
      </trkpt>
      <trkpt lat="37.1678156499" lon="-3.4449535701">
        <ele>1250.33</ele>
        <time>2020-09-06T08:30:56Z</time>
      </trkpt>
      <trkpt lat="37.1677540429" lon="-3.4449466970">
        <ele>1249.85</ele>
        <time>2020-09-06T08:30:57Z</time>
      </trkpt>
      <trkpt lat="37.1677080262" lon="-3.4449720941">
        <ele>1249.37</ele>
        <time>2020-09-06T08:30:58Z</time>
      </trkpt>
      <trkpt lat="37.1676922683" lon="-3.4450297616">
        <ele>1248.41</ele>
        <time>2020-09-06T08:30:59Z</time>
      </trkpt>
      <trkpt lat="37.1677133907" lon="-3.4450958110">
        <ele>1247.45</ele>
        <time>2020-09-06T08:31:00Z</time>
      </trkpt>
      <trkpt lat="37.1677653585" lon="-3.4451470245">
        <ele>1246.49</ele>
        <time>2020-09-06T08:31:01Z</time>
      </trkpt>
      <trkpt lat="37.1678355988" lon="-3.4451785404">
        <ele>1245.53</ele>
        <time>2020-09-06T08:31:02Z</time>
      </trkpt>
      <trkpt lat="37.1679167356" lon="-3.4451870061">
        <ele>1245.04</ele>
        <time>2020-09-06T08:31:03Z</time>
      </trkpt>
      <trkpt lat="37.1680077631" lon="-3.4451779537">
        <ele>1244.08</ele>
        <time>2020-09-06T08:31:04Z</time>
      </trkpt>
      <trkpt lat="37.1680966113" lon="-3.4451584239">
        <ele>1243.12</ele>
        <time>2020-09-06T08:31:05Z</time>
      </trkpt>
      <trkpt lat="37.1681760717" lon="-3.4451355413">
        <ele>1241.68</ele>
        <time>2020-09-06T08:31:06Z</time>
      </trkpt>
      <trkpt lat="37.1682836115" lon="-3.4451059531">
        <ele>1241.20</ele>
        <time>2020-09-06T08:31:08Z</time>
      </trkpt>
      <trkpt lat="37.1683156304" lon="-3.4451126587">
        <ele>1241.20</ele>
        <time>2020-09-06T08:31:09Z</time>
      </trkpt>
      <trkpt lat="37.1683332324" lon="-3.4451287519">
        <ele>1240.72</ele>
        <time>2020-09-06T08:31:10Z</time>
      </trkpt>
      <trkpt lat="37.1683480684" lon="-3.4451648779">
        <ele>1240.72</ele>
        <time>2020-09-06T08:31:11Z</time>
      </trkpt>
      <trkpt lat="37.1683500800" lon="-3.4452039376">
        <ele>1239.76</ele>
        <time>2020-09-06T08:31:12Z</time>
      </trkpt>
      <trkpt lat="37.1683421172" lon="-3.4452459309">
        <ele>1239.76</ele>
        <time>2020-09-06T08:31:13Z</time>
      </trkpt>
      <trkpt lat="37.1683270298" lon="-3.4452848230">
        <ele>1239.28</ele>
        <time>2020-09-06T08:31:14Z</time>
      </trkpt>
      <trkpt lat="37.1683062427" lon="-3.4453154169">
        <ele>1239.28</ele>
        <time>2020-09-06T08:31:15Z</time>
      </trkpt>
      <trkpt lat="37.1682777442" lon="-3.4453402273">
        <ele>1239.28</ele>
        <time>2020-09-06T08:31:16Z</time>
      </trkpt>
      <trkpt lat="37.1682434622" lon="-3.4453628585">
        <ele>1238.32</ele>
        <time>2020-09-06T08:31:17Z</time>
      </trkpt>
      <trkpt lat="37.1681209188" lon="-3.4454301652">
        <ele>1237.83</ele>
        <time>2020-09-06T08:31:20Z</time>
      </trkpt>
      <trkpt lat="37.1677671187" lon="-3.4455012437">
        <ele>1234.47</ele>
        <time>2020-09-06T08:31:26Z</time>
      </trkpt>
      <trkpt lat="37.1674639452" lon="-3.4455115534">
        <ele>1230.62</ele>
        <time>2020-09-06T08:31:30Z</time>
      </trkpt>
      <trkpt lat="37.1673872508" lon="-3.4454962984">
        <ele>1230.62</ele>
        <time>2020-09-06T08:31:31Z</time>
      </trkpt>
      <trkpt lat="37.1673041862" lon="-3.4454642795">
        <ele>1229.66</ele>
        <time>2020-09-06T08:31:32Z</time>
      </trkpt>
      <trkpt lat="37.1672321018" lon="-3.4454087913">
        <ele>1228.70</ele>
        <time>2020-09-06T08:31:33Z</time>
      </trkpt>
      <trkpt lat="37.1671797987" lon="-3.4453266487">
        <ele>1227.74</ele>
        <time>2020-09-06T08:31:34Z</time>
      </trkpt>
      <trkpt lat="37.1671432536" lon="-3.4452363756">
        <ele>1226.78</ele>
        <time>2020-09-06T08:31:35Z</time>
      </trkpt>
      <trkpt lat="37.1670974046" lon="-3.4451608546">
        <ele>1226.30</ele>
        <time>2020-09-06T08:31:36Z</time>
      </trkpt>
      <trkpt lat="37.1670318581" lon="-3.4451150056">
        <ele>1225.34</ele>
        <time>2020-09-06T08:31:37Z</time>
      </trkpt>
      <trkpt lat="37.1669498831" lon="-3.4451062046">
        <ele>1224.38</ele>
        <time>2020-09-06T08:31:38Z</time>
      </trkpt>
      <trkpt lat="37.1668720990" lon="-3.4451412410">
        <ele>1222.93</ele>
        <time>2020-09-06T08:31:39Z</time>
      </trkpt>
      <trkpt lat="37.1668057982" lon="-3.4452119842">
        <ele>1221.49</ele>
        <time>2020-09-06T08:31:40Z</time>
      </trkpt>
      <trkpt lat="37.1667550039" lon="-3.4452935401">
        <ele>1221.01</ele>
        <time>2020-09-06T08:31:41Z</time>
      </trkpt>
      <trkpt lat="37.1667194646" lon="-3.4453859087">
        <ele>1219.57</ele>
        <time>2020-09-06T08:31:42Z</time>
      </trkpt>
      <trkpt lat="37.1667153575" lon="-3.4454917721">
        <ele>1217.65</ele>
        <time>2020-09-06T08:31:43Z</time>
      </trkpt>
      <trkpt lat="37.1667509805" lon="-3.4455983061">
        <ele>1216.21</ele>
        <time>2020-09-06T08:31:44Z</time>
      </trkpt>
      <trkpt lat="37.1668200474" lon="-3.4456889983">
        <ele>1215.24</ele>
        <time>2020-09-06T08:31:45Z</time>
      </trkpt>
      <trkpt lat="37.1669110749" lon="-3.4457632620">
        <ele>1213.80</ele>
        <time>2020-09-06T08:31:46Z</time>
      </trkpt>
      <trkpt lat="37.1670016833" lon="-3.4458376095">
        <ele>1212.84</ele>
        <time>2020-09-06T08:31:47Z</time>
      </trkpt>
      <trkpt lat="37.1672765259" lon="-3.4460491687">
        <ele>1209.48</ele>
        <time>2020-09-06T08:31:50Z</time>
      </trkpt>
      <trkpt lat="37.1673530526" lon="-3.4461220074">
        <ele>1208.51</ele>
        <time>2020-09-06T08:31:51Z</time>
      </trkpt>
      <trkpt lat="37.1673990693" lon="-3.4462028090">
        <ele>1208.03</ele>
        <time>2020-09-06T08:31:52Z</time>
      </trkpt>
      <trkpt lat="37.1674241312" lon="-3.4463137854">
        <ele>1206.59</ele>
        <time>2020-09-06T08:31:53Z</time>
      </trkpt>
      <trkpt lat="37.1674302500" lon="-3.4464352392">
        <ele>1205.63</ele>
        <time>2020-09-06T08:31:54Z</time>
      </trkpt>
      <trkpt lat="37.1674347762" lon="-3.4465654939">
        <ele>1204.19</ele>
        <time>2020-09-06T08:31:55Z</time>
      </trkpt>
      <trkpt lat="37.1674472652" lon="-3.4466982633">
        <ele>1203.23</ele>
        <time>2020-09-06T08:31:56Z</time>
      </trkpt>
      <trkpt lat="37.1674654540" lon="-3.4468354750">
        <ele>1202.27</ele>
        <time>2020-09-06T08:31:57Z</time>
      </trkpt>
      <trkpt lat="37.1675657853" lon="-3.4473904409">
        <ele>1200.82</ele>
        <time>2020-09-06T08:32:01Z</time>
      </trkpt>
      <trkpt lat="37.1676128078" lon="-3.4476301633">
        <ele>1200.82</ele>
        <time>2020-09-06T08:32:03Z</time>
      </trkpt>
      <trkpt lat="37.1675940324" lon="-3.4477320872">
        <ele>1200.82</ele>
        <time>2020-09-06T08:32:04Z</time>
      </trkpt>
      <trkpt lat="37.1675422322" lon="-3.4478117991">
        <ele>1200.82</ele>
        <time>2020-09-06T08:32:05Z</time>
      </trkpt>
      <trkpt lat="37.1674674656" lon="-3.4478729032">
        <ele>1200.82</ele>
        <time>2020-09-06T08:32:06Z</time>
      </trkpt>
      <trkpt lat="37.1673751809" lon="-3.4479272179">
        <ele>1200.82</ele>
        <time>2020-09-06T08:32:07Z</time>
      </trkpt>
      <trkpt lat="37.1672780346" lon="-3.4479747433">
        <ele>1199.38</ele>
        <time>2020-09-06T08:32:08Z</time>
      </trkpt>
      <trkpt lat="37.1671781223" lon="-3.4480087738">
        <ele>1198.90</ele>
        <time>2020-09-06T08:32:09Z</time>
      </trkpt>
      <trkpt lat="37.1670704149" lon="-3.4480210952">
        <ele>1196.98</ele>
        <time>2020-09-06T08:32:10Z</time>
      </trkpt>
      <trkpt lat="37.1669636294" lon="-3.4480036609">
        <ele>1196.02</ele>
        <time>2020-09-06T08:32:11Z</time>
      </trkpt>
      <trkpt lat="37.1668638010" lon="-3.4479634278">
        <ele>1195.06</ele>
        <time>2020-09-06T08:32:12Z</time>
      </trkpt>
      <trkpt lat="37.1667685825" lon="-3.4479168244">
        <ele>1193.61</ele>
        <time>2020-09-06T08:32:13Z</time>
      </trkpt>
      <trkpt lat="37.1666671615" lon="-3.4478843864">
        <ele>1192.17</ele>
        <time>2020-09-06T08:32:14Z</time>
      </trkpt>
      <trkpt lat="37.1665705182" lon="-3.4478765074">
        <ele>1190.73</ele>
        <time>2020-09-06T08:32:15Z</time>
      </trkpt>
      <trkpt lat="37.1664818376" lon="-3.4478993062">
        <ele>1189.29</ele>
        <time>2020-09-06T08:32:16Z</time>
      </trkpt>
      <trkpt lat="37.1663944144" lon="-3.4479624219">
        <ele>1187.37</ele>
        <time>2020-09-06T08:32:17Z</time>
      </trkpt>
      <trkpt lat="37.1663175523" lon="-3.4480578080">
        <ele>1185.92</ele>
        <time>2020-09-06T08:32:18Z</time>
      </trkpt>
      <trkpt lat="37.1662466414" lon="-3.4481701255">
        <ele>1184.96</ele>
        <time>2020-09-06T08:32:19Z</time>
      </trkpt>
      <trkpt lat="37.1661849506" lon="-3.4482940100">
        <ele>1183.52</ele>
        <time>2020-09-06T08:32:20Z</time>
      </trkpt>
      <trkpt lat="37.1661418676" lon="-3.4484264441">
        <ele>1182.56</ele>
        <time>2020-09-06T08:32:21Z</time>
      </trkpt>
      <trkpt lat="37.1661151294" lon="-3.4485573694">
        <ele>1181.12</ele>
        <time>2020-09-06T08:32:22Z</time>
      </trkpt>
      <trkpt lat="37.1660913248" lon="-3.4486551024">
        <ele>1179.67</ele>
        <time>2020-09-06T08:32:23Z</time>
      </trkpt>
      <trkpt lat="37.1660563722" lon="-3.4487303719">
        <ele>1179.19</ele>
        <time>2020-09-06T08:32:24Z</time>
      </trkpt>
      <trkpt lat="37.1660034824" lon="-3.4487730358">
        <ele>1178.71</ele>
        <time>2020-09-06T08:32:25Z</time>
      </trkpt>
      <trkpt lat="37.1659386065" lon="-3.4487687610">
        <ele>1177.27</ele>
        <time>2020-09-06T08:32:26Z</time>
      </trkpt>
      <trkpt lat="37.1658833697" lon="-3.4487144463">
        <ele>1176.31</ele>
        <time>2020-09-06T08:32:27Z</time>
      </trkpt>
      <trkpt lat="37.1658540331" lon="-3.4486261010">
        <ele>1175.35</ele>
        <time>2020-09-06T08:32:28Z</time>
      </trkpt>
      <trkpt lat="37.1658434719" lon="-3.4485170525">
        <ele>1174.39</ele>
        <time>2020-09-06T08:32:29Z</time>
      </trkpt>
      <trkpt lat="37.1658437233" lon="-3.4484091774">
        <ele>1173.91</ele>
        <time>2020-09-06T08:32:30Z</time>
      </trkpt>
      <trkpt lat="37.1658529434" lon="-3.4482945129">
        <ele>1173.43</ele>
        <time>2020-09-06T08:32:31Z</time>
      </trkpt>
      <trkpt lat="37.1658706293" lon="-3.4481743164">
        <ele>1172.95</ele>
        <time>2020-09-06T08:32:32Z</time>
      </trkpt>
      <trkpt lat="37.1658920869" lon="-3.4480525274">
        <ele>1171.98</ele>
        <time>2020-09-06T08:32:33Z</time>
      </trkpt>
      <trkpt lat="37.1659081802" lon="-3.4479281399">
        <ele>1171.50</ele>
        <time>2020-09-06T08:32:34Z</time>
      </trkpt>
      <trkpt lat="37.1659093536" lon="-3.4478050936">
        <ele>1170.54</ele>
        <time>2020-09-06T08:32:35Z</time>
      </trkpt>
      <trkpt lat="37.1658837050" lon="-3.4476879984">
        <ele>1170.06</ele>
        <time>2020-09-06T08:32:36Z</time>
      </trkpt>
      <trkpt lat="37.1658346709" lon="-3.4475961328">
        <ele>1169.10</ele>
        <time>2020-09-06T08:32:37Z</time>
      </trkpt>
      <trkpt lat="37.1657607425" lon="-3.4475228749">
        <ele>1168.14</ele>
        <time>2020-09-06T08:32:38Z</time>
      </trkpt>
      <trkpt lat="37.1656703856" lon="-3.4474690631">
        <ele>1167.18</ele>
        <time>2020-09-06T08:32:39Z</time>
      </trkpt>
      <trkpt lat="37.1655735746" lon="-3.4474201128">
        <ele>1165.74</ele>
        <time>2020-09-06T08:32:40Z</time>
      </trkpt>
      <trkpt lat="37.1654840559" lon="-3.4473552369">
        <ele>1165.26</ele>
        <time>2020-09-06T08:32:41Z</time>
      </trkpt>
      <trkpt lat="37.1654149052" lon="-3.4472627845">
        <ele>1164.29</ele>
        <time>2020-09-06T08:32:42Z</time>
      </trkpt>
      <trkpt lat="37.1653800365" lon="-3.4471593518">
        <ele>1164.77</ele>
        <time>2020-09-06T08:32:43Z</time>
      </trkpt>
      <trkpt lat="37.1653652005" lon="-3.4470429271">
        <ele>1164.29</ele>
        <time>2020-09-06T08:32:44Z</time>
      </trkpt>
      <trkpt lat="37.1653600037" lon="-3.4469284303">
        <ele>1163.81</ele>
        <time>2020-09-06T08:32:45Z</time>
      </trkpt>
      <trkpt lat="37.1653503645" lon="-3.4468164481">
        <ele>1163.81</ele>
        <time>2020-09-06T08:32:46Z</time>
      </trkpt>
      <trkpt lat="37.1653144062" lon="-3.4467167035">
        <ele>1163.33</ele>
        <time>2020-09-06T08:32:47Z</time>
      </trkpt>
      <trkpt lat="37.1652492788" lon="-3.4466405120">
        <ele>1162.37</ele>
        <time>2020-09-06T08:32:48Z</time>
      </trkpt>
      <trkpt lat="37.1651786193" lon="-3.4465777315">
        <ele>1161.41</ele>
        <time>2020-09-06T08:32:49Z</time>
      </trkpt>
      <trkpt lat="37.1651341114" lon="-3.4465045575">
        <ele>1160.45</ele>
        <time>2020-09-06T08:32:50Z</time>
      </trkpt>
      <trkpt lat="37.1651283279" lon="-3.4464152902">
        <ele>1159.97</ele>
        <time>2020-09-06T08:32:51Z</time>
      </trkpt>
      <trkpt lat="37.1651559044" lon="-3.4463239275">
        <ele>1159.01</ele>
        <time>2020-09-06T08:32:52Z</time>
      </trkpt>
      <trkpt lat="37.1651830617" lon="-3.4462351631">
        <ele>1158.05</ele>
        <time>2020-09-06T08:32:53Z</time>
      </trkpt>
      <trkpt lat="37.1651803795" lon="-3.4461406991">
        <ele>1157.56</ele>
        <time>2020-09-06T08:32:54Z</time>
      </trkpt>
      <trkpt lat="37.1651518811" lon="-3.4460586403">
        <ele>1156.12</ele>
        <time>2020-09-06T08:32:55Z</time>
      </trkpt>
      <trkpt lat="37.1651087981" lon="-3.4459940158">
        <ele>1155.16</ele>
        <time>2020-09-06T08:32:56Z</time>
      </trkpt>
      <trkpt lat="37.1650449280" lon="-3.4459367674">
        <ele>1154.20</ele>
        <time>2020-09-06T08:32:57Z</time>
      </trkpt>
      <trkpt lat="37.1649606898" lon="-3.4458765853">
        <ele>1153.72</ele>
        <time>2020-09-06T08:32:58Z</time>
      </trkpt>
      <trkpt lat="37.1648745239" lon="-3.4458073508">
        <ele>1152.76</ele>
        <time>2020-09-06T08:32:59Z</time>
      </trkpt>
      <trkpt lat="37.1647975780" lon="-3.4457231127">
        <ele>1152.28</ele>
        <time>2020-09-06T08:33:00Z</time>
      </trkpt>
      <trkpt lat="37.1647282597" lon="-3.4456217755">
        <ele>1151.32</ele>
        <time>2020-09-06T08:33:01Z</time>
      </trkpt>
      <trkpt lat="37.1646697540" lon="-3.4455213603">
        <ele>1151.32</ele>
        <time>2020-09-06T08:33:02Z</time>
      </trkpt>
      <trkpt lat="37.1644719411" lon="-3.4451056179">
        <ele>1150.84</ele>
        <time>2020-09-06T08:33:06Z</time>
      </trkpt>
      <trkpt lat="37.1644383296" lon="-3.4450046159">
        <ele>1150.35</ele>
        <time>2020-09-06T08:33:07Z</time>
      </trkpt>
      <trkpt lat="37.1643741243" lon="-3.4448021930">
        <ele>1149.87</ele>
        <time>2020-09-06T08:33:09Z</time>
      </trkpt>
      <trkpt lat="37.1643173788" lon="-3.4447143506">
        <ele>1149.39</ele>
        <time>2020-09-06T08:33:10Z</time>
      </trkpt>
      <trkpt lat="37.1642592084" lon="-3.4446466248">
        <ele>1148.43</ele>
        <time>2020-09-06T08:33:11Z</time>
      </trkpt>
      <trkpt lat="37.1641844418" lon="-3.4445821680">
        <ele>1148.43</ele>
        <time>2020-09-06T08:33:12Z</time>
      </trkpt>
      <trkpt lat="37.1641287021" lon="-3.4445483051">
        <ele>1148.43</ele>
        <time>2020-09-06T08:33:13Z</time>
      </trkpt>
      <trkpt lat="37.1640565339" lon="-3.4445137717">
        <ele>1148.43</ele>
        <time>2020-09-06T08:33:14Z</time>
      </trkpt>
      <trkpt lat="37.1639834438" lon="-3.4444913082">
        <ele>1148.43</ele>
        <time>2020-09-06T08:33:15Z</time>
      </trkpt>
      <trkpt lat="37.1639155503" lon="-3.4444779810">
        <ele>1149.39</ele>
        <time>2020-09-06T08:33:16Z</time>
      </trkpt>
      <trkpt lat="37.1638481598" lon="-3.4444678389">
        <ele>1149.87</ele>
        <time>2020-09-06T08:33:17Z</time>
      </trkpt>
      <trkpt lat="37.1636631712" lon="-3.4444291983">
        <ele>1150.84</ele>
        <time>2020-09-06T08:33:20Z</time>
      </trkpt>
      <trkpt lat="37.1636085212" lon="-3.4444188885">
        <ele>1150.84</ele>
        <time>2020-09-06T08:33:21Z</time>
      </trkpt>
      <trkpt lat="37.1628917009" lon="-3.4440581314">
        <ele>1149.39</ele>
        <time>2020-09-06T08:33:34Z</time>
      </trkpt>
      <trkpt lat="37.1627262421" lon="-3.4439489152">
        <ele>1148.91</ele>
        <time>2020-09-06T08:33:37Z</time>
      </trkpt>
      <trkpt lat="37.1626635455" lon="-3.4438894875">
        <ele>1148.91</ele>
        <time>2020-09-06T08:33:38Z</time>
      </trkpt>
      <trkpt lat="37.1626179479" lon="-3.4438402019">
        <ele>1148.43</ele>
        <time>2020-09-06T08:33:39Z</time>
      </trkpt>
      <trkpt lat="37.1625218075" lon="-3.4437244479">
        <ele>1147.95</ele>
        <time>2020-09-06T08:33:41Z</time>
      </trkpt>
      <trkpt lat="37.1624669898" lon="-3.4436687920">
        <ele>1147.95</ele>
        <time>2020-09-06T08:33:42Z</time>
      </trkpt>
      <trkpt lat="37.1624009404" lon="-3.4436157346">
        <ele>1147.47</ele>
        <time>2020-09-06T08:33:43Z</time>
      </trkpt>
      <trkpt lat="37.1623362321" lon="-3.4435754176">
        <ele>1146.99</ele>
        <time>2020-09-06T08:33:44Z</time>
      </trkpt>
      <trkpt lat="37.1622637287" lon="-3.4435519483">
        <ele>1146.99</ele>
        <time>2020-09-06T08:33:45Z</time>
      </trkpt>
      <trkpt lat="37.1622102521" lon="-3.4435475059">
        <ele>1145.55</ele>
        <time>2020-09-06T08:33:46Z</time>
      </trkpt>
      <trkpt lat="37.1621528361" lon="-3.4435561392">
        <ele>1146.99</ele>
        <time>2020-09-06T08:33:47Z</time>
      </trkpt>
      <trkpt lat="37.1621188894" lon="-3.4435713105">
        <ele>1146.99</ele>
        <time>2020-09-06T08:33:48Z</time>
      </trkpt>
      <trkpt lat="37.1620808356" lon="-3.4435879067">
        <ele>1146.99</ele>
        <time>2020-09-06T08:33:49Z</time>
      </trkpt>
      <trkpt lat="37.1620550193" lon="-3.4435818717">
        <ele>1146.99</ele>
        <time>2020-09-06T08:33:50Z</time>
      </trkpt>
      <trkpt lat="37.1620333940" lon="-3.4435626771">
        <ele>1146.99</ele>
        <time>2020-09-06T08:33:51Z</time>
      </trkpt>
      <trkpt lat="37.1620328072" lon="-3.4435839672">
        <ele>1146.99</ele>
        <time>2020-09-06T08:33:53Z</time>
      </trkpt>
      <trkpt lat="37.1620432008" lon="-3.4435979649">
        <ele>1146.99</ele>
        <time>2020-09-06T08:33:54Z</time>
      </trkpt>
      <trkpt lat="37.1620636526" lon="-3.4435942769">
        <ele>1146.99</ele>
        <time>2020-09-06T08:33:55Z</time>
      </trkpt>
      <trkpt lat="37.1620883793" lon="-3.4435783513">
        <ele>1146.99</ele>
        <time>2020-09-06T08:33:56Z</time>
      </trkpt>
      <trkpt lat="37.1621157043" lon="-3.4435454104">
        <ele>1146.99</ele>
        <time>2020-09-06T08:33:57Z</time>
      </trkpt>
      <trkpt lat="37.1621321328" lon="-3.4435115475">
        <ele>1146.99</ele>
        <time>2020-09-06T08:33:58Z</time>
      </trkpt>
      <trkpt lat="37.1621431131" lon="-3.4434553050">
        <ele>1146.99</ele>
        <time>2020-09-06T08:33:59Z</time>
      </trkpt>
      <trkpt lat="37.1621412691" lon="-3.4433832206">
        <ele>1146.99</ele>
        <time>2020-09-06T08:34:01Z</time>
      </trkpt>
      <trkpt lat="37.1621270198" lon="-3.4432988148">
        <ele>1146.03</ele>
        <time>2020-09-06T08:34:02Z</time>
      </trkpt>
      <trkpt lat="37.1621038020" lon="-3.4432283230">
        <ele>1145.55</ele>
        <time>2020-09-06T08:34:03Z</time>
      </trkpt>
      <trkpt lat="37.1620816737" lon="-3.4431833960">
        <ele>1145.55</ele>
        <time>2020-09-06T08:34:04Z</time>
      </trkpt>
      <trkpt lat="37.1620416082" lon="-3.4431348648">
        <ele>1144.11</ele>
        <time>2020-09-06T08:34:05Z</time>
      </trkpt>
      <trkpt lat="37.1619952563" lon="-3.4431046061">
        <ele>1143.63</ele>
        <time>2020-09-06T08:34:06Z</time>
      </trkpt>
      <trkpt lat="37.1619383432" lon="-3.4430896025">
        <ele>1142.66</ele>
        <time>2020-09-06T08:34:07Z</time>
      </trkpt>
      <trkpt lat="37.1618743893" lon="-3.4430813882">
        <ele>1141.22</ele>
        <time>2020-09-06T08:34:08Z</time>
      </trkpt>
      <trkpt lat="37.1617078409" lon="-3.4430457652">
        <ele>1137.38</ele>
        <time>2020-09-06T08:34:11Z</time>
      </trkpt>
      <trkpt lat="37.1616777498" lon="-3.4430111479">
        <ele>1136.42</ele>
        <time>2020-09-06T08:34:12Z</time>
      </trkpt>
      <trkpt lat="37.1616713796" lon="-3.4429644607">
        <ele>1135.45</ele>
        <time>2020-09-06T08:34:13Z</time>
      </trkpt>
      <trkpt lat="37.1616542805" lon="-3.4427834116">
        <ele>1132.09</ele>
        <time>2020-09-06T08:34:16Z</time>
      </trkpt>
      <trkpt lat="37.1616380196" lon="-3.4427043702">
        <ele>1131.13</ele>
        <time>2020-09-06T08:34:17Z</time>
      </trkpt>
      <trkpt lat="37.1616152208" lon="-3.4426323697">
        <ele>1129.69</ele>
        <time>2020-09-06T08:34:18Z</time>
      </trkpt>
      <trkpt lat="37.1615834534" lon="-3.4425540827">
        <ele>1128.24</ele>
        <time>2020-09-06T08:34:19Z</time>
      </trkpt>
      <trkpt lat="37.1615479980" lon="-3.4424716048">
        <ele>1126.80</ele>
        <time>2020-09-06T08:34:20Z</time>
      </trkpt>
      <trkpt lat="37.1614721417" lon="-3.4423067328">
        <ele>1123.92</ele>
        <time>2020-09-06T08:34:22Z</time>
      </trkpt>
      <trkpt lat="37.1614388656" lon="-3.4422093350">
        <ele>1122.48</ele>
        <time>2020-09-06T08:34:23Z</time>
      </trkpt>
      <trkpt lat="37.1614280529" lon="-3.4421525896">
        <ele>1121.03</ele>
        <time>2020-09-06T08:34:24Z</time>
      </trkpt>
      <trkpt lat="37.1614015661" lon="-3.4419993684">
        <ele>1119.59</ele>
        <time>2020-09-06T08:34:26Z</time>
      </trkpt>
      <trkpt lat="37.1613753308" lon="-3.4419374261">
        <ele>1118.63</ele>
        <time>2020-09-06T08:34:27Z</time>
      </trkpt>
      <trkpt lat="37.1613430604" lon="-3.4418873023">
        <ele>1118.63</ele>
        <time>2020-09-06T08:34:28Z</time>
      </trkpt>
      <trkpt lat="37.1613076888" lon="-3.4418434650">
        <ele>1116.71</ele>
        <time>2020-09-06T08:34:29Z</time>
      </trkpt>
      <trkpt lat="37.1612662822" lon="-3.4417992923">
        <ele>1115.75</ele>
        <time>2020-09-06T08:34:30Z</time>
      </trkpt>
      <trkpt lat="37.1612250432" lon="-3.4417604841">
        <ele>1114.79</ele>
        <time>2020-09-06T08:34:31Z</time>
      </trkpt>
      <trkpt lat="37.1611824632" lon="-3.4417276271">
        <ele>1114.31</ele>
        <time>2020-09-06T08:34:32Z</time>
      </trkpt>
      <trkpt lat="37.1611315850" lon="-3.4417070076">
        <ele>1112.38</ele>
        <time>2020-09-06T08:34:33Z</time>
      </trkpt>
      <trkpt lat="37.1610626020" lon="-3.4416861366">
        <ele>1112.38</ele>
        <time>2020-09-06T08:34:34Z</time>
      </trkpt>
      <trkpt lat="37.1609961335" lon="-3.4416549560">
        <ele>1111.90</ele>
        <time>2020-09-06T08:34:35Z</time>
      </trkpt>
      <trkpt lat="37.1609202772" lon="-3.4416039940">
        <ele>1110.46</ele>
        <time>2020-09-06T08:34:36Z</time>
      </trkpt>
      <trkpt lat="37.1608647890" lon="-3.4415508527">
        <ele>1109.50</ele>
        <time>2020-09-06T08:34:37Z</time>
      </trkpt>
      <trkpt lat="37.1608178504" lon="-3.4414904192">
        <ele>1109.50</ele>
        <time>2020-09-06T08:34:38Z</time>
      </trkpt>
      <trkpt lat="37.1607931238" lon="-3.4414208494">
        <ele>1108.54</ele>
        <time>2020-09-06T08:34:39Z</time>
      </trkpt>
      <trkpt lat="37.1607832331" lon="-3.4413600806">
        <ele>1108.54</ele>
        <time>2020-09-06T08:34:40Z</time>
      </trkpt>
      <trkpt lat="37.1607836522" lon="-3.4412879962">
        <ele>1107.10</ele>
        <time>2020-09-06T08:34:41Z</time>
      </trkpt>
      <trkpt lat="37.1607841551" lon="-3.4412279818">
        <ele>1107.58</ele>
        <time>2020-09-06T08:34:42Z</time>
      </trkpt>
      <trkpt lat="37.1607877593" lon="-3.4409785364">
        <ele>1104.21</ele>
        <time>2020-09-06T08:34:46Z</time>
      </trkpt>
      <trkpt lat="37.1607768629" lon="-3.4409279935">
        <ele>1103.73</ele>
        <time>2020-09-06T08:34:47Z</time>
      </trkpt>
      <trkpt lat="37.1607528068" lon="-3.4408749361">
        <ele>1103.25</ele>
        <time>2020-09-06T08:34:48Z</time>
      </trkpt>
      <trkpt lat="37.1606916189" lon="-3.4407748561">
        <ele>1102.77</ele>
        <time>2020-09-06T08:34:54Z</time>
      </trkpt>
      <trkpt lat="37.1606978215" lon="-3.4407653846">
        <ele>1102.77</ele>
        <time>2020-09-06T08:34:55Z</time>
      </trkpt>
      <trkpt lat="37.1607101429" lon="-3.4407575056">
        <ele>1102.77</ele>
        <time>2020-09-06T08:34:56Z</time>
      </trkpt>
      <trkpt lat="37.1607196145" lon="-3.4407628700">
        <ele>1102.29</ele>
        <time>2020-09-06T08:34:57Z</time>
      </trkpt>
      <trkpt lat="37.1607227996" lon="-3.4407765325">
        <ele>1102.29</ele>
        <time>2020-09-06T08:34:58Z</time>
      </trkpt>
      <trkpt lat="37.1607236378" lon="-3.4408062883">
        <ele>1102.29</ele>
        <time>2020-09-06T08:34:59Z</time>
      </trkpt>
      <trkpt lat="37.1607239731" lon="-3.4408344515">
        <ele>1102.29</ele>
        <time>2020-09-06T08:35:00Z</time>
      </trkpt>
      <trkpt lat="37.1607112326" lon="-3.4408554062">
        <ele>1102.29</ele>
        <time>2020-09-06T08:35:01Z</time>
      </trkpt>
      <trkpt lat="37.1606785432" lon="-3.4408724215">
        <ele>1102.29</ele>
        <time>2020-09-06T08:35:02Z</time>
      </trkpt>
      <trkpt lat="37.1606418304" lon="-3.4408937953">
        <ele>1102.29</ele>
        <time>2020-09-06T08:35:03Z</time>
      </trkpt>
      <trkpt lat="37.1606089734" lon="-3.4409129899">
        <ele>1102.29</ele>
        <time>2020-09-06T08:35:04Z</time>
      </trkpt>
      <trkpt lat="37.1605703328" lon="-3.4409418236">
        <ele>1102.29</ele>
        <time>2020-09-06T08:35:05Z</time>
      </trkpt>
      <trkpt lat="37.1604819037" lon="-3.4410051908">
        <ele>1101.81</ele>
        <time>2020-09-06T08:35:07Z</time>
      </trkpt>
      <trkpt lat="37.1603094880" lon="-3.4410934523">
        <ele>1097.48</ele>
        <time>2020-09-06T08:35:10Z</time>
      </trkpt>
      <trkpt lat="37.1600884572" lon="-3.4412040096">
        <ele>1093.16</ele>
        <time>2020-09-06T08:35:13Z</time>
      </trkpt>
      <trkpt lat="37.1600172110" lon="-3.4412237909">
        <ele>1092.68</ele>
        <time>2020-09-06T08:35:14Z</time>
      </trkpt>
      <trkpt lat="37.1599416062" lon="-3.4412252996">
        <ele>1090.75</ele>
        <time>2020-09-06T08:35:15Z</time>
      </trkpt>
      <trkpt lat="37.1598641574" lon="-3.4411965497">
        <ele>1089.79</ele>
        <time>2020-09-06T08:35:16Z</time>
      </trkpt>
      <trkpt lat="37.1598032210" lon="-3.4411511198">
        <ele>1087.87</ele>
        <time>2020-09-06T08:35:17Z</time>
      </trkpt>
      <trkpt lat="37.1597279515" lon="-3.4410681389">
        <ele>1086.91</ele>
        <time>2020-09-06T08:35:18Z</time>
      </trkpt>
      <trkpt lat="37.1596646681" lon="-3.4409829788">
        <ele>1083.06</ele>
        <time>2020-09-06T08:35:19Z</time>
      </trkpt>
      <trkpt lat="37.1596072521" lon="-3.4409031831">
        <ele>1086.43</ele>
        <time>2020-09-06T08:35:20Z</time>
      </trkpt>
      <trkpt lat="37.1594750695" lon="-3.4407192003">
        <ele>1083.06</ele>
        <time>2020-09-06T08:35:22Z</time>
      </trkpt>
      <trkpt lat="37.1594157256" lon="-3.4406319447">
        <ele>1083.06</ele>
        <time>2020-09-06T08:35:23Z</time>
      </trkpt>
      <trkpt lat="37.1593680326" lon="-3.4405388217">
        <ele>1081.62</ele>
        <time>2020-09-06T08:35:24Z</time>
      </trkpt>
      <trkpt lat="37.1593415458" lon="-3.4404385742">
        <ele>1081.14</ele>
        <time>2020-09-06T08:35:25Z</time>
      </trkpt>
      <trkpt lat="37.1593335830" lon="-3.4403487202">
        <ele>1080.66</ele>
        <time>2020-09-06T08:35:26Z</time>
      </trkpt>
      <trkpt lat="37.1593300626" lon="-3.4402742051">
        <ele>1080.66</ele>
        <time>2020-09-06T08:35:27Z</time>
      </trkpt>
      <trkpt lat="37.1593198366" lon="-3.4401898831">
        <ele>1079.22</ele>
        <time>2020-09-06T08:35:28Z</time>
      </trkpt>
      <trkpt lat="37.1593132149" lon="-3.4401177987">
        <ele>1078.74</ele>
        <time>2020-09-06T08:35:29Z</time>
      </trkpt>
      <trkpt lat="37.1593146399" lon="-3.4400343150">
        <ele>1077.29</ele>
        <time>2020-09-06T08:35:30Z</time>
      </trkpt>
      <trkpt lat="37.1593143046" lon="-3.4399318043">
        <ele>1076.33</ele>
        <time>2020-09-06T08:35:31Z</time>
      </trkpt>
      <trkpt lat="37.1592930984" lon="-3.4398486558">
        <ele>1075.85</ele>
        <time>2020-09-06T08:35:32Z</time>
      </trkpt>
      <trkpt lat="37.1592705511" lon="-3.4397992026">
        <ele>1075.85</ele>
        <time>2020-09-06T08:35:33Z</time>
      </trkpt>
      <trkpt lat="37.1592380293" lon="-3.4397323150">
        <ele>1072.97</ele>
        <time>2020-09-06T08:35:34Z</time>
      </trkpt>
      <trkpt lat="37.1592114586" lon="-3.4396726359">
        <ele>1077.78</ele>
        <time>2020-09-06T08:35:35Z</time>
      </trkpt>
      <trkpt lat="37.1591861453" lon="-3.4395316523">
        <ele>1076.33</ele>
        <time>2020-09-06T08:35:39Z</time>
      </trkpt>
      <trkpt lat="37.1591986343" lon="-3.4395070095">
        <ele>1076.33</ele>
        <time>2020-09-06T08:35:40Z</time>
      </trkpt>
      <trkpt lat="37.1592102014" lon="-3.4394911677">
        <ele>1075.85</ele>
        <time>2020-09-06T08:35:41Z</time>
      </trkpt>
      <trkpt lat="37.1592271328" lon="-3.4394728951">
        <ele>1075.85</ele>
        <time>2020-09-06T08:35:42Z</time>
      </trkpt>
      <trkpt lat="37.1592442319" lon="-3.4394549578">
        <ele>1075.85</ele>
        <time>2020-09-06T08:35:43Z</time>
      </trkpt>
      <trkpt lat="37.1592630073" lon="-3.4394346736">
        <ele>1075.85</ele>
        <time>2020-09-06T08:35:44Z</time>
      </trkpt>
      <trkpt lat="37.1592845488" lon="-3.4394190833">
        <ele>1075.85</ele>
        <time>2020-09-06T08:35:45Z</time>
      </trkpt>
      <trkpt lat="37.1593130473" lon="-3.4393999726">
        <ele>1077.29</ele>
        <time>2020-09-06T08:35:46Z</time>
      </trkpt>
      <trkpt lat="37.1593284700" lon="-3.4393858071">
        <ele>1077.29</ele>
        <time>2020-09-06T08:35:47Z</time>
      </trkpt>
      <trkpt lat="37.1595313121" lon="-3.4391400497">
        <ele>1080.66</ele>
        <time>2020-09-06T08:35:57Z</time>
      </trkpt>
      <trkpt lat="37.1596520115" lon="-3.4389475174">
        <ele>1082.58</ele>
        <time>2020-09-06T08:36:05Z</time>
      </trkpt>
      <trkpt lat="37.1596372593" lon="-3.4389124811">
        <ele>1082.58</ele>
        <time>2020-09-06T08:36:07Z</time>
      </trkpt>
      <trkpt lat="37.1594754048" lon="-3.4386260714">
        <ele>1080.18</ele>
        <time>2020-09-06T08:36:15Z</time>
      </trkpt>
      <trkpt lat="37.1593832038" lon="-3.4385807253">
        <ele>1079.22</ele>
        <time>2020-09-06T08:36:18Z</time>
      </trkpt>
      <trkpt lat="37.1592532843" lon="-3.4383984189">
        <ele>1076.81</ele>
        <time>2020-09-06T08:36:22Z</time>
      </trkpt>
      <trkpt lat="37.1590770129" lon="-3.4381620493">
        <ele>1075.37</ele>
        <time>2020-09-06T08:36:27Z</time>
      </trkpt>
      <trkpt lat="37.1590623446" lon="-3.4381013643">
        <ele>1074.89</ele>
        <time>2020-09-06T08:36:28Z</time>
      </trkpt>
      <trkpt lat="37.1590646077" lon="-3.4376532678">
        <ele>1077.29</ele>
        <time>2020-09-06T08:36:37Z</time>
      </trkpt>
      <trkpt lat="37.1591172460" lon="-3.4371675365">
        <ele>1080.18</ele>
        <time>2020-09-06T08:36:50Z</time>
      </trkpt>
      <trkpt lat="37.1590133104" lon="-3.4367596731">
        <ele>1081.62</ele>
        <time>2020-09-06T08:37:02Z</time>
      </trkpt>
      <trkpt lat="37.1586398967" lon="-3.4361153562">
        <ele>1080.66</ele>
        <time>2020-09-06T08:37:15Z</time>
      </trkpt>
      <trkpt lat="37.1585255675" lon="-3.4359291103">
        <ele>1081.62</ele>
        <time>2020-09-06T08:37:19Z</time>
      </trkpt>
      <trkpt lat="37.1584940515" lon="-3.4358941577">
        <ele>1082.58</ele>
        <time>2020-09-06T08:37:20Z</time>
      </trkpt>
      <trkpt lat="37.1584549919" lon="-3.4358659945">
        <ele>1082.58</ele>
        <time>2020-09-06T08:37:21Z</time>
      </trkpt>
      <trkpt lat="37.1584087238" lon="-3.4358345624">
        <ele>1082.58</ele>
        <time>2020-09-06T08:37:22Z</time>
      </trkpt>
      <trkpt lat="37.1583692450" lon="-3.4357933234">
        <ele>1082.58</ele>
        <time>2020-09-06T08:37:23Z</time>
      </trkpt>
      <trkpt lat="37.1583343763" lon="-3.4357533418">
        <ele>1083.06</ele>
        <time>2020-09-06T08:37:24Z</time>
      </trkpt>
      <trkpt lat="37.1582915448" lon="-3.4357044753">
        <ele>1083.06</ele>
        <time>2020-09-06T08:37:25Z</time>
      </trkpt>
      <trkpt lat="37.1582534909" lon="-3.4356677625">
        <ele>1083.06</ele>
        <time>2020-09-06T08:37:26Z</time>
      </trkpt>
      <trkpt lat="37.1582130063" lon="-3.4356333967">
        <ele>1083.06</ele>
        <time>2020-09-06T08:37:27Z</time>
      </trkpt>
      <trkpt lat="37.1581669897" lon="-3.4356021322">
        <ele>1083.06</ele>
        <time>2020-09-06T08:37:28Z</time>
      </trkpt>
      <trkpt lat="37.1578421909" lon="-3.4353920817">
        <ele>1083.06</ele>
        <time>2020-09-06T08:37:35Z</time>
      </trkpt>
      <trkpt lat="37.1576919034" lon="-3.4351863060">
        <ele>1083.06</ele>
        <time>2020-09-06T08:37:39Z</time>
      </trkpt>
      <trkpt lat="37.1576671768" lon="-3.4351271298">
        <ele>1083.06</ele>
        <time>2020-09-06T08:37:40Z</time>
      </trkpt>
      <trkpt lat="37.1576504968" lon="-3.4350604098">
        <ele>1083.06</ele>
        <time>2020-09-06T08:37:41Z</time>
      </trkpt>
      <trkpt lat="37.1575484890" lon="-3.4343197849">
        <ele>1084.02</ele>
        <time>2020-09-06T08:37:52Z</time>
      </trkpt>
      <trkpt lat="37.1575477347" lon="-3.4342596866">
        <ele>1084.02</ele>
        <time>2020-09-06T08:37:53Z</time>
      </trkpt>
      <trkpt lat="37.1575433761" lon="-3.4341986664">
        <ele>1084.02</ele>
        <time>2020-09-06T08:37:54Z</time>
      </trkpt>
      <trkpt lat="37.1575342398" lon="-3.4341386519">
        <ele>1084.50</ele>
        <time>2020-09-06T08:37:55Z</time>
      </trkpt>
      <trkpt lat="37.1575204935" lon="-3.4340781346">
        <ele>1084.50</ele>
        <time>2020-09-06T08:37:56Z</time>
      </trkpt>
      <trkpt lat="37.1575012151" lon="-3.4340171982">
        <ele>1084.50</ele>
        <time>2020-09-06T08:37:57Z</time>
      </trkpt>
      <trkpt lat="37.1574858762" lon="-3.4339605365">
        <ele>1084.50</ele>
        <time>2020-09-06T08:37:58Z</time>
      </trkpt>
      <trkpt lat="37.1574712079" lon="-3.4339032881">
        <ele>1084.50</ele>
        <time>2020-09-06T08:37:59Z</time>
      </trkpt>
      <trkpt lat="37.1574551985" lon="-3.4338506497">
        <ele>1084.50</ele>
        <time>2020-09-06T08:38:00Z</time>
      </trkpt>
      <trkpt lat="37.1574354172" lon="-3.4337989334">
        <ele>1084.50</ele>
        <time>2020-09-06T08:38:01Z</time>
      </trkpt>
      <trkpt lat="37.1574156359" lon="-3.4337494802">
        <ele>1084.99</ele>
        <time>2020-09-06T08:38:02Z</time>
      </trkpt>
      <trkpt lat="37.1572943497" lon="-3.4334598854">
        <ele>1087.39</ele>
        <time>2020-09-06T08:38:09Z</time>
      </trkpt>
      <trkpt lat="37.1572450642" lon="-3.4330238588">
        <ele>1090.75</ele>
        <time>2020-09-06T08:38:21Z</time>
      </trkpt>
      <trkpt lat="37.1572856326" lon="-3.4327064361">
        <ele>1093.64</ele>
        <time>2020-09-06T08:38:32Z</time>
      </trkpt>
      <trkpt lat="37.1572013944" lon="-3.4323862474">
        <ele>1096.52</ele>
        <time>2020-09-06T08:38:44Z</time>
      </trkpt>
      <trkpt lat="37.1569300722" lon="-3.4320891928">
        <ele>1099.89</ele>
        <time>2020-09-06T08:38:57Z</time>
      </trkpt>
      <trkpt lat="37.1569591574" lon="-3.4317893721">
        <ele>1103.25</ele>
        <time>2020-09-06T08:39:08Z</time>
      </trkpt>
      <trkpt lat="37.1570107061" lon="-3.4316473827">
        <ele>1106.13</ele>
        <time>2020-09-06T08:39:15Z</time>
      </trkpt>
      <trkpt lat="37.1570099518" lon="-3.4314263519">
        <ele>1109.50</ele>
        <time>2020-09-06T08:39:25Z</time>
      </trkpt>
      <trkpt lat="37.1569703054" lon="-3.4312200733">
        <ele>1112.86</ele>
        <time>2020-09-06T08:39:34Z</time>
      </trkpt>
      <trkpt lat="37.1569391247" lon="-3.4310647566">
        <ele>1114.79</ele>
        <time>2020-09-06T08:39:41Z</time>
      </trkpt>
      <trkpt lat="37.1569387894" lon="-3.4310419578">
        <ele>1114.79</ele>
        <time>2020-09-06T08:39:42Z</time>
      </trkpt>
      <trkpt lat="37.1569349337" lon="-3.4310220927">
        <ele>1115.75</ele>
        <time>2020-09-06T08:39:43Z</time>
      </trkpt>
      <trkpt lat="37.1569261327" lon="-3.4310080949">
        <ele>1115.75</ele>
        <time>2020-09-06T08:39:44Z</time>
      </trkpt>
      <trkpt lat="37.1569156554" lon="-3.4309923369">
        <ele>1115.75</ele>
        <time>2020-09-06T08:39:45Z</time>
      </trkpt>
      <trkpt lat="37.1569059324" lon="-3.4309743159">
        <ele>1116.23</ele>
        <time>2020-09-06T08:39:46Z</time>
      </trkpt>
      <trkpt lat="37.1568947844" lon="-3.4309573006">
        <ele>1116.23</ele>
        <time>2020-09-06T08:39:47Z</time>
      </trkpt>
      <trkpt lat="37.1568821277" lon="-3.4309453145">
        <ele>1116.71</ele>
        <time>2020-09-06T08:39:48Z</time>
      </trkpt>
      <trkpt lat="37.1565847378" lon="-3.4308749065">
        <ele>1119.11</ele>
        <time>2020-09-06T08:40:01Z</time>
      </trkpt>
      <trkpt lat="37.1563235577" lon="-3.4307329170">
        <ele>1120.07</ele>
        <time>2020-09-06T08:40:12Z</time>
      </trkpt>
      <trkpt lat="37.1560014412" lon="-3.4302678891">
        <ele>1120.07</ele>
        <time>2020-09-06T08:40:24Z</time>
      </trkpt>
      <trkpt lat="37.1559824143" lon="-3.4302170109">
        <ele>1120.07</ele>
        <time>2020-09-06T08:40:25Z</time>
      </trkpt>
      <trkpt lat="37.1559639741" lon="-3.4301561583">
        <ele>1120.07</ele>
        <time>2020-09-06T08:40:26Z</time>
      </trkpt>
      <trkpt lat="37.1559413429" lon="-3.4300399851">
        <ele>1120.07</ele>
        <time>2020-09-06T08:40:28Z</time>
      </trkpt>
      <trkpt lat="37.1558219846" lon="-3.4293018747">
        <ele>1122.96</ele>
        <time>2020-09-06T08:40:43Z</time>
      </trkpt>
      <trkpt lat="37.1557094157" lon="-3.4289468173">
        <ele>1126.32</ele>
        <time>2020-09-06T08:40:54Z</time>
      </trkpt>
      <trkpt lat="37.1555922367" lon="-3.4286713041">
        <ele>1128.24</ele>
        <time>2020-09-06T08:41:05Z</time>
      </trkpt>
      <trkpt lat="37.1555498242" lon="-3.4285102040">
        <ele>1129.69</ele>
        <time>2020-09-06T08:41:12Z</time>
      </trkpt>
      <trkpt lat="37.1555411071" lon="-3.4284919314">
        <ele>1129.69</ele>
        <time>2020-09-06T08:41:13Z</time>
      </trkpt>
      <trkpt lat="37.1553350799" lon="-3.4281610139">
        <ele>1131.61</ele>
        <time>2020-09-06T08:41:26Z</time>
      </trkpt>
      <trkpt lat="37.1551610716" lon="-3.4278616961">
        <ele>1134.49</ele>
        <time>2020-09-06T08:41:38Z</time>
      </trkpt>
      <trkpt lat="37.1549844649" lon="-3.4274615441">
        <ele>1137.86</ele>
        <time>2020-09-06T08:41:53Z</time>
      </trkpt>
      <trkpt lat="37.1547049284" lon="-3.4271702729">
        <ele>1140.74</ele>
        <time>2020-09-06T08:42:08Z</time>
      </trkpt>
      <trkpt lat="37.1545773558" lon="-3.4269706160">
        <ele>1144.11</ele>
        <time>2020-09-06T08:42:19Z</time>
      </trkpt>
      <trkpt lat="37.1544378810" lon="-3.4267096035">
        <ele>1147.47</ele>
        <time>2020-09-06T08:42:33Z</time>
      </trkpt>
      <trkpt lat="37.1543542296" lon="-3.4265019000">
        <ele>1151.32</ele>
        <time>2020-09-06T08:42:44Z</time>
      </trkpt>
      <trkpt lat="37.1543031000" lon="-3.4262707271">
        <ele>1154.20</ele>
        <time>2020-09-06T08:42:55Z</time>
      </trkpt>
      <trkpt lat="37.1542089712" lon="-3.4260579944">
        <ele>1157.56</ele>
        <time>2020-09-06T08:43:06Z</time>
      </trkpt>
      <trkpt lat="37.1541289240" lon="-3.4258336946">
        <ele>1160.93</ele>
        <time>2020-09-06T08:43:18Z</time>
      </trkpt>
      <trkpt lat="37.1540814824" lon="-3.4255409148">
        <ele>1163.81</ele>
        <time>2020-09-06T08:43:32Z</time>
      </trkpt>
      <trkpt lat="37.1540461946" lon="-3.4253409225">
        <ele>1166.70</ele>
        <time>2020-09-06T08:43:42Z</time>
      </trkpt>
      <trkpt lat="37.1539625432" lon="-3.4250275232">
        <ele>1169.58</ele>
        <time>2020-09-06T08:43:56Z</time>
      </trkpt>
      <trkpt lat="37.1539731883" lon="-3.4246184863">
        <ele>1172.47</ele>
        <time>2020-09-06T08:44:11Z</time>
      </trkpt>
      <trkpt lat="37.1542007569" lon="-3.4242430609">
        <ele>1175.35</ele>
        <time>2020-09-06T08:44:27Z</time>
      </trkpt>
      <trkpt lat="37.1543607675" lon="-3.4237853251">
        <ele>1178.23</ele>
        <time>2020-09-06T08:44:43Z</time>
      </trkpt>
      <trkpt lat="37.1545382123" lon="-3.4234888572">
        <ele>1181.60</ele>
        <time>2020-09-06T08:44:56Z</time>
      </trkpt>
      <trkpt lat="37.1547904238" lon="-3.4232033696">
        <ele>1184.48</ele>
        <time>2020-09-06T08:45:11Z</time>
      </trkpt>
      <trkpt lat="37.1548604127" lon="-3.4230853524">
        <ele>1185.44</ele>
        <time>2020-09-06T08:45:17Z</time>
      </trkpt>
      <trkpt lat="37.1549236961" lon="-3.4227366652">
        <ele>1188.33</ele>
        <time>2020-09-06T08:45:31Z</time>
      </trkpt>
      <trkpt lat="37.1550089400" lon="-3.4225025587">
        <ele>1191.69</ele>
        <time>2020-09-06T08:45:42Z</time>
      </trkpt>
      <trkpt lat="37.1549678687" lon="-3.4221546259">
        <ele>1194.09</ele>
        <time>2020-09-06T08:45:56Z</time>
      </trkpt>
      <trkpt lat="37.1547928546" lon="-3.4218627680">
        <ele>1196.98</ele>
        <time>2020-09-06T08:46:10Z</time>
      </trkpt>
      <trkpt lat="37.1546293236" lon="-3.4215263184">
        <ele>1200.34</ele>
        <time>2020-09-06T08:46:25Z</time>
      </trkpt>
      <trkpt lat="37.1545349434" lon="-3.4210964944">
        <ele>1203.23</ele>
        <time>2020-09-06T08:46:40Z</time>
      </trkpt>
      <trkpt lat="37.1543723345" lon="-3.4206722025">
        <ele>1205.63</ele>
        <time>2020-09-06T08:46:55Z</time>
      </trkpt>
      <trkpt lat="37.1542385593" lon="-3.4202917479">
        <ele>1208.51</ele>
        <time>2020-09-06T08:47:09Z</time>
      </trkpt>
      <trkpt lat="37.1542292554" lon="-3.4199597407">
        <ele>1211.88</ele>
        <time>2020-09-06T08:47:21Z</time>
      </trkpt>
      <trkpt lat="37.1543367114" lon="-3.4196545556">
        <ele>1214.76</ele>
        <time>2020-09-06T08:47:33Z</time>
      </trkpt>
      <trkpt lat="37.1544610988" lon="-3.4193309303">
        <ele>1217.65</ele>
        <time>2020-09-06T08:47:46Z</time>
      </trkpt>
      <trkpt lat="37.1546090394" lon="-3.4189057164">
        <ele>1221.01</ele>
        <time>2020-09-06T08:48:02Z</time>
      </trkpt>
      <trkpt lat="37.1545294952" lon="-3.4185583703">
        <ele>1223.90</ele>
        <time>2020-09-06T08:48:16Z</time>
      </trkpt>
      <trkpt lat="37.1545040142" lon="-3.4182849526">
        <ele>1227.26</ele>
        <time>2020-09-06T08:48:27Z</time>
      </trkpt>
      <trkpt lat="37.1546193492" lon="-3.4177988023">
        <ele>1230.62</ele>
        <time>2020-09-06T08:48:45Z</time>
      </trkpt>
      <trkpt lat="37.1546387952" lon="-3.4173907712">
        <ele>1233.51</ele>
        <time>2020-09-06T08:48:59Z</time>
      </trkpt>
      <trkpt lat="37.1546595823" lon="-3.4170792159">
        <ele>1235.43</ele>
        <time>2020-09-06T08:49:10Z</time>
      </trkpt>
      <trkpt lat="37.1546274796" lon="-3.4167934768">
        <ele>1238.32</ele>
        <time>2020-09-06T08:49:20Z</time>
      </trkpt>
      <trkpt lat="37.1546072792" lon="-3.4164618887">
        <ele>1241.20</ele>
        <time>2020-09-06T08:49:32Z</time>
      </trkpt>
      <trkpt lat="37.1544460114" lon="-3.4160917439">
        <ele>1243.60</ele>
        <time>2020-09-06T08:49:48Z</time>
      </trkpt>
      <trkpt lat="37.1543533076" lon="-3.4157595690">
        <ele>1246.01</ele>
        <time>2020-09-06T08:50:01Z</time>
      </trkpt>
      <trkpt lat="37.1543594263" lon="-3.4152914397">
        <ele>1249.37</ele>
        <time>2020-09-06T08:50:18Z</time>
      </trkpt>
      <trkpt lat="37.1544315107" lon="-3.4148607776">
        <ele>1252.74</ele>
        <time>2020-09-06T08:50:34Z</time>
      </trkpt>
      <trkpt lat="37.1545325965" lon="-3.4144538362">
        <ele>1256.10</ele>
        <time>2020-09-06T08:50:49Z</time>
      </trkpt>
      <trkpt lat="37.1546612587" lon="-3.4139737207">
        <ele>1258.98</ele>
        <time>2020-09-06T08:51:06Z</time>
      </trkpt>
      <trkpt lat="37.1547342651" lon="-3.4135658573">
        <ele>1262.35</ele>
        <time>2020-09-06T08:51:21Z</time>
      </trkpt>
      <trkpt lat="37.1547905914" lon="-3.4132453334">
        <ele>1264.75</ele>
        <time>2020-09-06T08:51:33Z</time>
      </trkpt>
      <trkpt lat="37.1548966225" lon="-3.4129928704">
        <ele>1268.12</ele>
        <time>2020-09-06T08:51:44Z</time>
      </trkpt>
      <trkpt lat="37.1549832076" lon="-3.4127302654">
        <ele>1271.00</ele>
        <time>2020-09-06T08:51:54Z</time>
      </trkpt>
      <trkpt lat="37.1550971176" lon="-3.4123307001">
        <ele>1272.92</ele>
        <time>2020-09-06T08:52:09Z</time>
      </trkpt>
      <trkpt lat="37.1551971976" lon="-3.4119012114">
        <ele>1275.81</ele>
        <time>2020-09-06T08:52:25Z</time>
      </trkpt>
      <trkpt lat="37.1553443000" lon="-3.4115881473">
        <ele>1279.17</ele>
        <time>2020-09-06T08:52:38Z</time>
      </trkpt>
      <trkpt lat="37.1555800829" lon="-3.4113299008">
        <ele>1282.06</ele>
        <time>2020-09-06T08:52:53Z</time>
      </trkpt>
      <trkpt lat="37.1558506507" lon="-3.4112350177">
        <ele>1284.46</ele>
        <time>2020-09-06T08:53:06Z</time>
      </trkpt>
      <trkpt lat="37.1560822427" lon="-3.4109646175">
        <ele>1287.82</ele>
        <time>2020-09-06T08:53:19Z</time>
      </trkpt>
      <trkpt lat="37.1562508866" lon="-3.4106606897">
        <ele>1290.71</ele>
        <time>2020-09-06T08:53:34Z</time>
      </trkpt>
      <trkpt lat="37.1563862544" lon="-3.4102773014">
        <ele>1293.11</ele>
        <time>2020-09-06T08:53:49Z</time>
      </trkpt>
      <trkpt lat="37.1565388888" lon="-3.4100162052">
        <ele>1296.96</ele>
        <time>2020-09-06T08:54:01Z</time>
      </trkpt>
      <trkpt lat="37.1567923576" lon="-3.4098386765">
        <ele>1299.84</ele>
        <time>2020-09-06T08:54:15Z</time>
      </trkpt>
      <trkpt lat="37.1570806112" lon="-3.4097478166">
        <ele>1303.20</ele>
        <time>2020-09-06T08:54:29Z</time>
      </trkpt>
      <trkpt lat="37.1574371774" lon="-3.4095878899">
        <ele>1306.57</ele>
        <time>2020-09-06T08:54:45Z</time>
      </trkpt>
      <trkpt lat="37.1577136964" lon="-3.4093929268">
        <ele>1309.45</ele>
        <time>2020-09-06T08:54:59Z</time>
      </trkpt>
      <trkpt lat="37.1577266045" lon="-3.4093765821">
        <ele>1309.45</ele>
        <time>2020-09-06T08:55:00Z</time>
      </trkpt>
      <trkpt lat="37.1577410214" lon="-3.4093552083">
        <ele>1309.93</ele>
        <time>2020-09-06T08:55:01Z</time>
      </trkpt>
      <trkpt lat="37.1577571146" lon="-3.4093320742">
        <ele>1309.93</ele>
        <time>2020-09-06T08:55:02Z</time>
      </trkpt>
      <trkpt lat="37.1577737108" lon="-3.4093102813">
        <ele>1309.93</ele>
        <time>2020-09-06T08:55:03Z</time>
      </trkpt>
      <trkpt lat="37.1577916481" lon="-3.4092924278">
        <ele>1310.41</ele>
        <time>2020-09-06T08:55:04Z</time>
      </trkpt>
      <trkpt lat="37.1578127705" lon="-3.4092741553">
        <ele>1310.90</ele>
        <time>2020-09-06T08:55:05Z</time>
      </trkpt>
      <trkpt lat="37.1580787282" lon="-3.4090143163">
        <ele>1313.78</ele>
        <time>2020-09-06T08:55:20Z</time>
      </trkpt>
      <trkpt lat="37.1583573427" lon="-3.4087928664">
        <ele>1317.14</ele>
        <time>2020-09-06T08:55:35Z</time>
      </trkpt>
      <trkpt lat="37.1585607715" lon="-3.4084678162">
        <ele>1320.51</ele>
        <time>2020-09-06T08:55:50Z</time>
      </trkpt>
      <trkpt lat="37.1587184351" lon="-3.4080358967">
        <ele>1323.87</ele>
        <time>2020-09-06T08:56:07Z</time>
      </trkpt>
      <trkpt lat="37.1589528769" lon="-3.4078095853">
        <ele>1327.24</ele>
        <time>2020-09-06T08:56:21Z</time>
      </trkpt>
      <trkpt lat="37.1592355147" lon="-3.4075745568">
        <ele>1330.60</ele>
        <time>2020-09-06T08:56:36Z</time>
      </trkpt>
      <trkpt lat="37.1594854631" lon="-3.4074052423">
        <ele>1333.01</ele>
        <time>2020-09-06T08:56:49Z</time>
      </trkpt>
      <trkpt lat="37.1597627364" lon="-3.4072218463">
        <ele>1335.89</ele>
        <time>2020-09-06T08:57:03Z</time>
      </trkpt>
      <trkpt lat="37.1599856950" lon="-3.4070562199">
        <ele>1338.77</ele>
        <time>2020-09-06T08:57:15Z</time>
      </trkpt>
      <trkpt lat="37.1603173669" lon="-3.4068124741">
        <ele>1341.66</ele>
        <time>2020-09-06T08:57:32Z</time>
      </trkpt>
      <trkpt lat="37.1605035290" lon="-3.4066616837">
        <ele>1345.02</ele>
        <time>2020-09-06T08:57:42Z</time>
      </trkpt>
      <trkpt lat="37.1605220530" lon="-3.4066460095">
        <ele>1345.02</ele>
        <time>2020-09-06T08:57:43Z</time>
      </trkpt>
      <trkpt lat="37.1608884260" lon="-3.4064404014">
        <ele>1348.39</ele>
        <time>2020-09-06T08:58:02Z</time>
      </trkpt>
      <trkpt lat="37.1610933635" lon="-3.4063471947">
        <ele>1351.27</ele>
        <time>2020-09-06T08:58:13Z</time>
      </trkpt>
      <trkpt lat="37.1613643505" lon="-3.4061611164">
        <ele>1354.15</ele>
        <time>2020-09-06T08:58:27Z</time>
      </trkpt>
      <trkpt lat="37.1616220102" lon="-3.4060941450">
        <ele>1357.52</ele>
        <time>2020-09-06T08:58:41Z</time>
      </trkpt>
      <trkpt lat="37.1617172286" lon="-3.4061601944">
        <ele>1359.92</ele>
        <time>2020-09-06T08:58:48Z</time>
      </trkpt>
      <trkpt lat="37.1617195755" lon="-3.4061829094">
        <ele>1359.92</ele>
        <time>2020-09-06T08:58:49Z</time>
      </trkpt>
      <trkpt lat="37.1616632491" lon="-3.4063875116">
        <ele>1363.29</ele>
        <time>2020-09-06T08:58:59Z</time>
      </trkpt>
      <trkpt lat="37.1615454834" lon="-3.4066393040">
        <ele>1365.69</ele>
        <time>2020-09-06T08:59:11Z</time>
      </trkpt>
      <trkpt lat="37.1614284720" lon="-3.4069697186">
        <ele>1369.05</ele>
        <time>2020-09-06T08:59:25Z</time>
      </trkpt>
      <trkpt lat="37.1612263843" lon="-3.4072900750">
        <ele>1372.42</ele>
        <time>2020-09-06T08:59:41Z</time>
      </trkpt>
      <trkpt lat="37.1612018254" lon="-3.4074826073">
        <ele>1374.34</ele>
        <time>2020-09-06T08:59:49Z</time>
      </trkpt>
      <trkpt lat="37.1612116322" lon="-3.4075038973">
        <ele>1374.34</ele>
        <time>2020-09-06T08:59:50Z</time>
      </trkpt>
      <trkpt lat="37.1612201817" lon="-3.4075268637">
        <ele>1374.34</ele>
        <time>2020-09-06T08:59:51Z</time>
      </trkpt>
      <trkpt lat="37.1612248756" lon="-3.4075530153">
        <ele>1375.30</ele>
        <time>2020-09-06T08:59:52Z</time>
      </trkpt>
      <trkpt lat="37.1612360235" lon="-3.4075717069">
        <ele>1375.30</ele>
        <time>2020-09-06T08:59:53Z</time>
      </trkpt>
      <trkpt lat="37.1612532903" lon="-3.4075857885">
        <ele>1375.78</ele>
        <time>2020-09-06T08:59:54Z</time>
      </trkpt>
      <trkpt lat="37.1612710599" lon="-3.4075958468">
        <ele>1376.26</ele>
        <time>2020-09-06T08:59:55Z</time>
      </trkpt>
      <trkpt lat="37.1612891648" lon="-3.4076019656">
        <ele>1376.26</ele>
        <time>2020-09-06T08:59:56Z</time>
      </trkpt>
      <trkpt lat="37.1613078564" lon="-3.4076035582">
        <ele>1376.75</ele>
        <time>2020-09-06T08:59:57Z</time>
      </trkpt>
      <trkpt lat="37.1615059208" lon="-3.4075631574">
        <ele>1379.15</ele>
        <time>2020-09-06T09:00:09Z</time>
      </trkpt>
      <trkpt lat="37.1615254506" lon="-3.4075580444">
        <ele>1379.15</ele>
        <time>2020-09-06T09:00:10Z</time>
      </trkpt>
      <trkpt lat="37.1615437232" lon="-3.4075486567">
        <ele>1380.11</ele>
        <time>2020-09-06T09:00:11Z</time>
      </trkpt>
      <trkpt lat="37.1615601517" lon="-3.4075361677">
        <ele>1380.11</ele>
        <time>2020-09-06T09:00:12Z</time>
      </trkpt>
      <trkpt lat="37.1615757421" lon="-3.4075215831">
        <ele>1380.11</ele>
        <time>2020-09-06T09:00:13Z</time>
      </trkpt>
      <trkpt lat="37.1615907457" lon="-3.4075065795">
        <ele>1380.11</ele>
        <time>2020-09-06T09:00:14Z</time>
      </trkpt>
      <trkpt lat="37.1618355811" lon="-3.4073313139">
        <ele>1383.96</ele>
        <time>2020-09-06T09:00:29Z</time>
      </trkpt>
      <trkpt lat="37.1620872896" lon="-3.4071881510">
        <ele>1386.84</ele>
        <time>2020-09-06T09:00:44Z</time>
      </trkpt>
      <trkpt lat="37.1622908860" lon="-3.4069758374">
        <ele>1390.20</ele>
        <time>2020-09-06T09:00:58Z</time>
      </trkpt>
      <trkpt lat="37.1624936443" lon="-3.4068031702">
        <ele>1393.09</ele>
        <time>2020-09-06T09:01:11Z</time>
      </trkpt>
      <trkpt lat="37.1627209615" lon="-3.4066554811">
        <ele>1395.97</ele>
        <time>2020-09-06T09:01:25Z</time>
      </trkpt>
      <trkpt lat="37.1628339496" lon="-3.4064215422">
        <ele>1399.34</ele>
        <time>2020-09-06T09:01:37Z</time>
      </trkpt>
      <trkpt lat="37.1629721671" lon="-3.4061660618">
        <ele>1402.22</ele>
        <time>2020-09-06T09:01:51Z</time>
      </trkpt>
      <trkpt lat="37.1631365363" lon="-3.4058422688">
        <ele>1405.58</ele>
        <time>2020-09-06T09:02:07Z</time>
      </trkpt>
      <trkpt lat="37.1632546373" lon="-3.4055021312">
        <ele>1408.47</ele>
        <time>2020-09-06T09:02:22Z</time>
      </trkpt>
      <trkpt lat="37.1633407194" lon="-3.4052170627">
        <ele>1411.83</ele>
        <time>2020-09-06T09:02:35Z</time>
      </trkpt>
      <trkpt lat="37.1633134782" lon="-3.4050593991">
        <ele>1412.79</ele>
        <time>2020-09-06T09:02:42Z</time>
      </trkpt>
      <trkpt lat="37.1633079462" lon="-3.4050365165">
        <ele>1413.76</ele>
        <time>2020-09-06T09:02:43Z</time>
      </trkpt>
      <trkpt lat="37.1632061899" lon="-3.4047501069">
        <ele>1416.64</ele>
        <time>2020-09-06T09:02:56Z</time>
      </trkpt>
      <trkpt lat="37.1631347761" lon="-3.4044643678">
        <ele>1420.00</ele>
        <time>2020-09-06T09:03:09Z</time>
      </trkpt>
      <trkpt lat="37.1630833112" lon="-3.4040990844">
        <ele>1422.89</ele>
        <time>2020-09-06T09:03:24Z</time>
      </trkpt>
      <trkpt lat="37.1630249731" lon="-3.4037661552">
        <ele>1426.25</ele>
        <time>2020-09-06T09:03:38Z</time>
      </trkpt>
      <trkpt lat="37.1629806329" lon="-3.4034874570">
        <ele>1429.62</ele>
        <time>2020-09-06T09:03:50Z</time>
      </trkpt>
      <trkpt lat="37.1629520506" lon="-3.4032852016">
        <ele>1431.54</ele>
        <time>2020-09-06T09:03:58Z</time>
      </trkpt>
      <trkpt lat="37.1628965624" lon="-3.4030430485">
        <ele>1433.94</ele>
        <time>2020-09-06T09:04:08Z</time>
      </trkpt>
      <trkpt lat="37.1629182715" lon="-3.4026828781">
        <ele>1437.31</ele>
        <time>2020-09-06T09:04:25Z</time>
      </trkpt>
      <trkpt lat="37.1632185951" lon="-3.4025285672">
        <ele>1440.67</ele>
        <time>2020-09-06T09:04:42Z</time>
      </trkpt>
      <trkpt lat="37.1634646878" lon="-3.4023123141">
        <ele>1443.56</ele>
        <time>2020-09-06T09:04:56Z</time>
      </trkpt>
      <trkpt lat="37.1637420449" lon="-3.4021684807">
        <ele>1447.40</ele>
        <time>2020-09-06T09:05:11Z</time>
      </trkpt>
      <trkpt lat="37.1638299711" lon="-3.4021687321">
        <ele>1447.88</ele>
        <time>2020-09-06T09:05:16Z</time>
      </trkpt>
      <trkpt lat="37.1638468187" lon="-3.4021567460">
        <ele>1448.36</ele>
        <time>2020-09-06T09:05:17Z</time>
      </trkpt>
      <trkpt lat="37.1638616547" lon="-3.4021421615">
        <ele>1448.36</ele>
        <time>2020-09-06T09:05:18Z</time>
      </trkpt>
      <trkpt lat="37.1638742276" lon="-3.4021275770">
        <ele>1448.84</ele>
        <time>2020-09-06T09:05:19Z</time>
      </trkpt>
      <trkpt lat="37.1638858784" lon="-3.4021132439">
        <ele>1448.84</ele>
        <time>2020-09-06T09:05:20Z</time>
      </trkpt>
      <trkpt lat="37.1640323102" lon="-3.4018651396">
        <ele>1451.73</ele>
        <time>2020-09-06T09:05:33Z</time>
      </trkpt>
      <trkpt lat="37.1642542630" lon="-3.4018223919">
        <ele>1454.61</ele>
        <time>2020-09-06T09:05:46Z</time>
      </trkpt>
      <trkpt lat="37.1644449513" lon="-3.4019004274">
        <ele>1457.50</ele>
        <time>2020-09-06T09:05:57Z</time>
      </trkpt>
      <trkpt lat="37.1646878589" lon="-3.4017243236">
        <ele>1460.38</ele>
        <time>2020-09-06T09:06:11Z</time>
      </trkpt>
      <trkpt lat="37.1648855880" lon="-3.4016147722">
        <ele>1463.74</ele>
        <time>2020-09-06T09:06:22Z</time>
      </trkpt>
      <trkpt lat="37.1650435030" lon="-3.4012517519">
        <ele>1467.11</ele>
        <time>2020-09-06T09:06:38Z</time>
      </trkpt>
      <trkpt lat="37.1651069541" lon="-3.4008621611">
        <ele>1469.51</ele>
        <time>2020-09-06T09:06:53Z</time>
      </trkpt>
      <trkpt lat="37.1652124822" lon="-3.4005155694">
        <ele>1472.88</ele>
        <time>2020-09-06T09:07:08Z</time>
      </trkpt>
      <trkpt lat="37.1653335169" lon="-3.4002654534">
        <ele>1475.76</ele>
        <time>2020-09-06T09:07:20Z</time>
      </trkpt>
      <trkpt lat="37.1655322518" lon="-3.3999103960">
        <ele>1479.13</ele>
        <time>2020-09-06T09:07:36Z</time>
      </trkpt>
      <trkpt lat="37.1656912565" lon="-3.3995366469">
        <ele>1482.49</ele>
        <time>2020-09-06T09:07:52Z</time>
      </trkpt>
      <trkpt lat="37.1657072660" lon="-3.3991757222">
        <ele>1485.37</ele>
        <time>2020-09-06T09:08:06Z</time>
      </trkpt>
      <trkpt lat="37.1657573897" lon="-3.3989037294">
        <ele>1488.74</ele>
        <time>2020-09-06T09:08:18Z</time>
      </trkpt>
      <trkpt lat="37.1658684500" lon="-3.3986138832">
        <ele>1492.10</ele>
        <time>2020-09-06T09:08:32Z</time>
      </trkpt>
      <trkpt lat="37.1659815218" lon="-3.3984853886">
        <ele>1494.03</ele>
        <time>2020-09-06T09:08:40Z</time>
      </trkpt>
      <trkpt lat="37.1661702823" lon="-3.3981900942">
        <ele>1496.91</ele>
        <time>2020-09-06T09:08:55Z</time>
      </trkpt>
      <trkpt lat="37.1661817655" lon="-3.3978581708">
        <ele>1499.79</ele>
        <time>2020-09-06T09:09:08Z</time>
      </trkpt>
      <trkpt lat="37.1663631499" lon="-3.3976611122">
        <ele>1503.16</ele>
        <time>2020-09-06T09:09:21Z</time>
      </trkpt>
      <trkpt lat="37.1665634774" lon="-3.3974943962">
        <ele>1506.04</ele>
        <time>2020-09-06T09:09:34Z</time>
      </trkpt>
      <trkpt lat="37.1666191332" lon="-3.3971700165">
        <ele>1509.41</ele>
        <time>2020-09-06T09:09:48Z</time>
      </trkpt>
      <trkpt lat="37.1667469572" lon="-3.3969013765">
        <ele>1512.29</ele>
        <time>2020-09-06T09:10:02Z</time>
      </trkpt>
      <trkpt lat="37.1670364682" lon="-3.3968828525">
        <ele>1515.66</ele>
        <time>2020-09-06T09:10:17Z</time>
      </trkpt>
      <trkpt lat="37.1673598420" lon="-3.3969294559">
        <ele>1518.54</ele>
        <time>2020-09-06T09:10:33Z</time>
      </trkpt>
      <trkpt lat="37.1675912663" lon="-3.3969383407">
        <ele>1521.90</ele>
        <time>2020-09-06T09:10:45Z</time>
      </trkpt>
      <trkpt lat="37.1678842977" lon="-3.3970221598">
        <ele>1524.79</ele>
        <time>2020-09-06T09:11:00Z</time>
      </trkpt>
      <trkpt lat="37.1680879779" lon="-3.3968528453">
        <ele>1527.67</ele>
        <time>2020-09-06T09:11:13Z</time>
      </trkpt>
      <trkpt lat="37.1680945996" lon="-3.3968283702">
        <ele>1528.63</ele>
        <time>2020-09-06T09:11:14Z</time>
      </trkpt>
      <trkpt lat="37.1680990420" lon="-3.3968014643">
        <ele>1528.63</ele>
        <time>2020-09-06T09:11:15Z</time>
      </trkpt>
      <trkpt lat="37.1680696215" lon="-3.3963887393">
        <ele>1532.00</ele>
        <time>2020-09-06T09:11:31Z</time>
      </trkpt>
      <trkpt lat="37.1682208311" lon="-3.3961543813">
        <ele>1534.88</ele>
        <time>2020-09-06T09:11:45Z</time>
      </trkpt>
      <trkpt lat="37.1684991103" lon="-3.3961383719">
        <ele>1537.77</ele>
        <time>2020-09-06T09:11:59Z</time>
      </trkpt>
      <trkpt lat="37.1687522437" lon="-3.3961680438">
        <ele>1540.65</ele>
        <time>2020-09-06T09:12:13Z</time>
      </trkpt>
      <trkpt lat="37.1688653156" lon="-3.3963074349">
        <ele>1543.53</ele>
        <time>2020-09-06T09:12:22Z</time>
      </trkpt>
      <trkpt lat="37.1688825823" lon="-3.3963120449">
        <ele>1543.53</ele>
        <time>2020-09-06T09:12:23Z</time>
      </trkpt>
      <trkpt lat="37.1691026911" lon="-3.3961696364">
        <ele>1546.90</ele>
        <time>2020-09-06T09:12:37Z</time>
      </trkpt>
      <trkpt lat="37.1691444330" lon="-3.3958068676">
        <ele>1549.78</ele>
        <time>2020-09-06T09:12:52Z</time>
      </trkpt>
      <trkpt lat="37.1691357996" lon="-3.3954874333">
        <ele>1553.15</ele>
        <time>2020-09-06T09:13:06Z</time>
      </trkpt>
      <trkpt lat="37.1693597641" lon="-3.3952995948">
        <ele>1556.03</ele>
        <time>2020-09-06T09:13:21Z</time>
      </trkpt>
      <trkpt lat="37.1695906855" lon="-3.3951525763">
        <ele>1558.43</ele>
        <time>2020-09-06T09:13:34Z</time>
      </trkpt>
      <trkpt lat="37.1696090419" lon="-3.3951445296">
        <ele>1558.92</ele>
        <time>2020-09-06T09:13:35Z</time>
      </trkpt>
      <trkpt lat="37.1696251351" lon="-3.3951328788">
        <ele>1558.92</ele>
        <time>2020-09-06T09:13:36Z</time>
      </trkpt>
      <trkpt lat="37.1696408093" lon="-3.3951187134">
        <ele>1559.40</ele>
        <time>2020-09-06T09:13:37Z</time>
      </trkpt>
      <trkpt lat="37.1696583275" lon="-3.3951088227">
        <ele>1559.40</ele>
        <time>2020-09-06T09:13:38Z</time>
      </trkpt>
      <trkpt lat="37.1696749236" lon="-3.3950972557">
        <ele>1559.40</ele>
        <time>2020-09-06T09:13:39Z</time>
      </trkpt>
      <trkpt lat="37.1696867421" lon="-3.3950853534">
        <ele>1559.40</ele>
        <time>2020-09-06T09:13:40Z</time>
      </trkpt>
      <trkpt lat="37.1696960460" lon="-3.3950721100">
        <ele>1559.40</ele>
        <time>2020-09-06T09:13:41Z</time>
      </trkpt>
      <trkpt lat="37.1697074454" lon="-3.3950604592">
        <ele>1560.36</ele>
        <time>2020-09-06T09:13:42Z</time>
      </trkpt>
      <trkpt lat="37.1699182503" lon="-3.3947984409">
        <ele>1563.72</ele>
        <time>2020-09-06T09:13:58Z</time>
      </trkpt>
      <trkpt lat="37.1697883308" lon="-3.3945099358">
        <ele>1566.12</ele>
        <time>2020-09-06T09:14:11Z</time>
      </trkpt>
      <trkpt lat="37.1696254704" lon="-3.3941371925">
        <ele>1569.49</ele>
        <time>2020-09-06T09:14:28Z</time>
      </trkpt>
      <trkpt lat="37.1696473472" lon="-3.3937472664">
        <ele>1572.37</ele>
        <time>2020-09-06T09:14:43Z</time>
      </trkpt>
      <trkpt lat="37.1697309148" lon="-3.3934455179">
        <ele>1575.26</ele>
        <time>2020-09-06T09:14:57Z</time>
      </trkpt>
      <trkpt lat="37.1697787754" lon="-3.3931885287">
        <ele>1578.14</ele>
        <time>2020-09-06T09:15:09Z</time>
      </trkpt>
      <trkpt lat="37.1697867382" lon="-3.3929465432">
        <ele>1580.06</ele>
        <time>2020-09-06T09:15:20Z</time>
      </trkpt>
      <trkpt lat="37.1697751712" lon="-3.3926085010">
        <ele>1583.43</ele>
        <time>2020-09-06T09:15:34Z</time>
      </trkpt>
      <trkpt lat="37.1697858162" lon="-3.3922350034">
        <ele>1586.79</ele>
        <time>2020-09-06T09:15:49Z</time>
      </trkpt>
      <trkpt lat="37.1697812900" lon="-3.3922106121">
        <ele>1586.79</ele>
        <time>2020-09-06T09:15:50Z</time>
      </trkpt>
      <trkpt lat="37.1697854809" lon="-3.3921878971">
        <ele>1587.27</ele>
        <time>2020-09-06T09:15:51Z</time>
      </trkpt>
      <trkpt lat="37.1697942819" lon="-3.3921680320">
        <ele>1587.27</ele>
        <time>2020-09-06T09:15:52Z</time>
      </trkpt>
      <trkpt lat="37.1698061842" lon="-3.3921474963">
        <ele>1587.27</ele>
        <time>2020-09-06T09:15:53Z</time>
      </trkpt>
      <trkpt lat="37.1698174160" lon="-3.3921271283">
        <ele>1587.75</ele>
        <time>2020-09-06T09:15:54Z</time>
      </trkpt>
      <trkpt lat="37.1699615847" lon="-3.3918069396">
        <ele>1590.64</ele>
        <time>2020-09-06T09:16:10Z</time>
      </trkpt>
      <trkpt lat="37.1700841282" lon="-3.3915471006">
        <ele>1593.52</ele>
        <time>2020-09-06T09:16:24Z</time>
      </trkpt>
      <trkpt lat="37.1701141354" lon="-3.3912864234">
        <ele>1596.41</ele>
        <time>2020-09-06T09:16:35Z</time>
      </trkpt>
      <trkpt lat="37.1701221820" lon="-3.3909342159">
        <ele>1599.77</ele>
        <time>2020-09-06T09:16:50Z</time>
      </trkpt>
      <trkpt lat="37.1702131256" lon="-3.3905969281">
        <ele>1602.66</ele>
        <time>2020-09-06T09:17:05Z</time>
      </trkpt>
      <trkpt lat="37.1701437235" lon="-3.3902289625">
        <ele>1606.50</ele>
        <time>2020-09-06T09:17:21Z</time>
      </trkpt>
      <trkpt lat="37.1700151451" lon="-3.3899467438">
        <ele>1609.38</ele>
        <time>2020-09-06T09:17:36Z</time>
      </trkpt>
      <trkpt lat="37.1698464174" lon="-3.3896766789">
        <ele>1612.75</ele>
        <time>2020-09-06T09:17:51Z</time>
      </trkpt>
      <trkpt lat="37.1697137319" lon="-3.3893212862">
        <ele>1616.11</ele>
        <time>2020-09-06T09:18:07Z</time>
      </trkpt>
      <trkpt lat="37.1695562359" lon="-3.3890109044">
        <ele>1619.00</ele>
        <time>2020-09-06T09:18:22Z</time>
      </trkpt>
      <trkpt lat="37.1693942137" lon="-3.3887317032">
        <ele>1622.36</ele>
        <time>2020-09-06T09:18:36Z</time>
      </trkpt>
      <trkpt lat="37.1691938024" lon="-3.3884660807">
        <ele>1625.25</ele>
        <time>2020-09-06T09:18:51Z</time>
      </trkpt>
      <trkpt lat="37.1691818163" lon="-3.3881255239">
        <ele>1628.61</ele>
        <time>2020-09-06T09:19:06Z</time>
      </trkpt>
      <trkpt lat="37.1692421660" lon="-3.3878327440">
        <ele>1631.98</ele>
        <time>2020-09-06T09:19:19Z</time>
      </trkpt>
      <trkpt lat="37.1692608576" lon="-3.3874621801">
        <ele>1634.86</ele>
        <time>2020-09-06T09:19:35Z</time>
      </trkpt>
      <trkpt lat="37.1692462731" lon="-3.3871062845">
        <ele>1638.22</ele>
        <time>2020-09-06T09:19:50Z</time>
      </trkpt>
      <trkpt lat="37.1691902820" lon="-3.3867930528">
        <ele>1641.59</ele>
        <time>2020-09-06T09:20:04Z</time>
      </trkpt>
      <trkpt lat="37.1691802237" lon="-3.3864264283">
        <ele>1644.47</ele>
        <time>2020-09-06T09:20:19Z</time>
      </trkpt>
      <trkpt lat="37.1692166850" lon="-3.3861278649">
        <ele>1647.36</ele>
        <time>2020-09-06T09:20:32Z</time>
      </trkpt>
      <trkpt lat="37.1692801360" lon="-3.3858042397">
        <ele>1650.24</ele>
        <time>2020-09-06T09:20:46Z</time>
      </trkpt>
      <trkpt lat="37.1693041921" lon="-3.3855392039">
        <ele>1653.60</ele>
        <time>2020-09-06T09:20:58Z</time>
      </trkpt>
      <trkpt lat="37.1693151724" lon="-3.3852444962">
        <ele>1656.49</ele>
        <time>2020-09-06T09:21:11Z</time>
      </trkpt>
      <trkpt lat="37.1692381427" lon="-3.3849429153">
        <ele>1658.89</ele>
        <time>2020-09-06T09:21:24Z</time>
      </trkpt>
      <trkpt lat="37.1692490391" lon="-3.3845749497">
        <ele>1662.74</ele>
        <time>2020-09-06T09:21:40Z</time>
      </trkpt>
      <trkpt lat="37.1692948882" lon="-3.3842746262">
        <ele>1665.14</ele>
        <time>2020-09-06T09:21:53Z</time>
      </trkpt>
      <trkpt lat="37.1693722531" lon="-3.3840173855">
        <ele>1668.51</ele>
        <time>2020-09-06T09:22:05Z</time>
      </trkpt>
      <trkpt lat="37.1694061160" lon="-3.3836530242">
        <ele>1671.87</ele>
        <time>2020-09-06T09:22:21Z</time>
      </trkpt>
      <trkpt lat="37.1694543120" lon="-3.3833876532">
        <ele>1675.23</ele>
        <time>2020-09-06T09:22:34Z</time>
      </trkpt>
      <trkpt lat="37.1694663819" lon="-3.3831009082">
        <ele>1678.12</ele>
        <time>2020-09-06T09:22:47Z</time>
      </trkpt>
      <trkpt lat="37.1693368815" lon="-3.3827671409">
        <ele>1681.48</ele>
        <time>2020-09-06T09:23:03Z</time>
      </trkpt>
      <trkpt lat="37.1692837402" lon="-3.3824226446">
        <ele>1684.85</ele>
        <time>2020-09-06T09:23:18Z</time>
      </trkpt>
      <trkpt lat="37.1692658029" lon="-3.3820808306">
        <ele>1688.21</ele>
        <time>2020-09-06T09:23:33Z</time>
      </trkpt>
      <trkpt lat="37.1692593489" lon="-3.3817318082">
        <ele>1691.58</ele>
        <time>2020-09-06T09:23:48Z</time>
      </trkpt>
      <trkpt lat="37.1692780405" lon="-3.3813708834">
        <ele>1694.94</ele>
        <time>2020-09-06T09:24:03Z</time>
      </trkpt>
      <trkpt lat="37.1693153400" lon="-3.3809968829">
        <ele>1697.83</ele>
        <time>2020-09-06T09:24:18Z</time>
      </trkpt>
      <trkpt lat="37.1693334449" lon="-3.3808446676">
        <ele>1699.27</ele>
        <time>2020-09-06T09:24:24Z</time>
      </trkpt>
      <trkpt lat="37.1693311818" lon="-3.3808205277">
        <ele>1699.27</ele>
        <time>2020-09-06T09:24:25Z</time>
      </trkpt>
      <trkpt lat="37.1693196148" lon="-3.3804625366">
        <ele>1703.11</ele>
        <time>2020-09-06T09:24:40Z</time>
      </trkpt>
      <trkpt lat="37.1693529747" lon="-3.3801304456">
        <ele>1706.00</ele>
        <time>2020-09-06T09:24:54Z</time>
      </trkpt>
      <trkpt lat="37.1693208721" lon="-3.3797942474">
        <ele>1709.36</ele>
        <time>2020-09-06T09:25:08Z</time>
      </trkpt>
      <trkpt lat="37.1691568382" lon="-3.3795702830">
        <ele>1712.73</ele>
        <time>2020-09-06T09:25:22Z</time>
      </trkpt>
      <trkpt lat="37.1691012662" lon="-3.3794660959">
        <ele>1713.69</ele>
        <time>2020-09-06T09:25:28Z</time>
      </trkpt>
      <trkpt lat="37.1691612806" lon="-3.3791879844">
        <ele>1716.57</ele>
        <time>2020-09-06T09:25:41Z</time>
      </trkpt>
      <trkpt lat="37.1692450996" lon="-3.3790812828">
        <ele>1718.01</ele>
        <time>2020-09-06T09:25:48Z</time>
      </trkpt>
      <trkpt lat="37.1694875881" lon="-3.3789831307">
        <ele>1720.90</ele>
        <time>2020-09-06T09:26:02Z</time>
      </trkpt>
      <trkpt lat="37.1697403863" lon="-3.3789275587">
        <ele>1723.78</ele>
        <time>2020-09-06T09:26:16Z</time>
      </trkpt>
      <trkpt lat="37.1699421387" lon="-3.3787433244">
        <ele>1726.67</ele>
        <time>2020-09-06T09:26:30Z</time>
      </trkpt>
      <trkpt lat="37.1700179111" lon="-3.3785119839">
        <ele>1730.51</ele>
        <time>2020-09-06T09:26:42Z</time>
      </trkpt>
      <trkpt lat="37.1701772511" lon="-3.3783400711">
        <ele>1732.91</ele>
        <time>2020-09-06T09:26:55Z</time>
      </trkpt>
      <trkpt lat="37.1703629941" lon="-3.3781469520">
        <ele>1736.28</ele>
        <time>2020-09-06T09:27:09Z</time>
      </trkpt>
      <trkpt lat="37.1705686022" lon="-3.3779632207">
        <ele>1738.68</ele>
        <time>2020-09-06T09:27:23Z</time>
      </trkpt>
      <trkpt lat="37.1707983501" lon="-3.3777920622">
        <ele>1742.05</ele>
        <time>2020-09-06T09:27:37Z</time>
      </trkpt>
      <trkpt lat="37.1710485499" lon="-3.3777160384">
        <ele>1744.93</ele>
        <time>2020-09-06T09:27:51Z</time>
      </trkpt>
      <trkpt lat="37.1712942235" lon="-3.3777253423">
        <ele>1747.33</ele>
        <time>2020-09-06T09:28:04Z</time>
      </trkpt>
      <trkpt lat="37.1714806370" lon="-3.3774787467">
        <ele>1749.74</ele>
        <time>2020-09-06T09:28:18Z</time>
      </trkpt>
      <trkpt lat="37.1716725826" lon="-3.3772974461">
        <ele>1752.62</ele>
        <time>2020-09-06T09:28:31Z</time>
      </trkpt>
      <trkpt lat="37.1718998160" lon="-3.3771576360">
        <ele>1756.47</ele>
        <time>2020-09-06T09:28:46Z</time>
      </trkpt>
      <trkpt lat="37.1721177455" lon="-3.3770481683">
        <ele>1759.35</ele>
        <time>2020-09-06T09:29:00Z</time>
      </trkpt>
      <trkpt lat="37.1723673586" lon="-3.3769030776">
        <ele>1762.71</ele>
        <time>2020-09-06T09:29:16Z</time>
      </trkpt>
      <trkpt lat="37.1726160496" lon="-3.3768439852">
        <ele>1765.60</ele>
        <time>2020-09-06T09:29:31Z</time>
      </trkpt>
      <trkpt lat="37.1728470549" lon="-3.3767426480">
        <ele>1768.96</ele>
        <time>2020-09-06T09:29:45Z</time>
      </trkpt>
      <trkpt lat="37.1730869450" lon="-3.3766398858">
        <ele>1772.33</ele>
        <time>2020-09-06T09:29:58Z</time>
      </trkpt>
      <trkpt lat="37.1733534057" lon="-3.3764996566">
        <ele>1775.21</ele>
        <time>2020-09-06T09:30:14Z</time>
      </trkpt>
      <trkpt lat="37.1734944731" lon="-3.3762900252">
        <ele>1778.10</ele>
        <time>2020-09-06T09:30:26Z</time>
      </trkpt>
      <trkpt lat="37.1736306790" lon="-3.3759907912">
        <ele>1781.94</ele>
        <time>2020-09-06T09:30:41Z</time>
      </trkpt>
      <trkpt lat="37.1736545675" lon="-3.3758861013">
        <ele>1782.42</ele>
        <time>2020-09-06T09:30:46Z</time>
      </trkpt>
      <trkpt lat="37.1736654639" lon="-3.3758703433">
        <ele>1782.90</ele>
        <time>2020-09-06T09:30:47Z</time>
      </trkpt>
      <trkpt lat="37.1738143265" lon="-3.3756409306">
        <ele>1786.27</ele>
        <time>2020-09-06T09:31:01Z</time>
      </trkpt>
      <trkpt lat="37.1738372091" lon="-3.3753700275">
        <ele>1789.63</ele>
        <time>2020-09-06T09:31:14Z</time>
      </trkpt>
      <trkpt lat="37.1738492791" lon="-3.3750821929">
        <ele>1793.00</ele>
        <time>2020-09-06T09:31:26Z</time>
      </trkpt>
      <trkpt lat="37.1738889255" lon="-3.3748689573">
        <ele>1794.44</ele>
        <time>2020-09-06T09:31:36Z</time>
      </trkpt>
      <trkpt lat="37.1738957148" lon="-3.3746279776">
        <ele>1797.32</ele>
        <time>2020-09-06T09:31:48Z</time>
      </trkpt>
      <trkpt lat="37.1739162505" lon="-3.3743235469">
        <ele>1800.69</ele>
        <time>2020-09-06T09:32:02Z</time>
      </trkpt>
      <trkpt lat="37.1739243809" lon="-3.3740218822">
        <ele>1804.05</ele>
        <time>2020-09-06T09:32:15Z</time>
      </trkpt>
      <trkpt lat="37.1737966407" lon="-3.3737111650">
        <ele>1806.94</ele>
        <time>2020-09-06T09:32:29Z</time>
      </trkpt>
      <trkpt lat="37.1736644581" lon="-3.3734752145">
        <ele>1810.30</ele>
        <time>2020-09-06T09:32:41Z</time>
      </trkpt>
      <trkpt lat="37.1734917071" lon="-3.3731142897">
        <ele>1813.18</ele>
        <time>2020-09-06T09:32:58Z</time>
      </trkpt>
      <trkpt lat="37.1733119152" lon="-3.3728381898">
        <ele>1816.55</ele>
        <time>2020-09-06T09:33:13Z</time>
      </trkpt>
      <trkpt lat="37.1732462849" lon="-3.3727444801">
        <ele>1818.47</ele>
        <time>2020-09-06T09:33:18Z</time>
      </trkpt>
      <trkpt lat="37.1731055528" lon="-3.3724406362">
        <ele>1820.39</ele>
        <time>2020-09-06T09:33:32Z</time>
      </trkpt>
      <trkpt lat="37.1730462089" lon="-3.3720994927">
        <ele>1823.76</ele>
        <time>2020-09-06T09:33:46Z</time>
      </trkpt>
      <trkpt lat="37.1730636433" lon="-3.3719043620">
        <ele>1826.64</ele>
        <time>2020-09-06T09:33:54Z</time>
      </trkpt>
      <trkpt lat="37.1732011065" lon="-3.3715727739">
        <ele>1829.05</ele>
        <time>2020-09-06T09:34:10Z</time>
      </trkpt>
      <trkpt lat="37.1734150127" lon="-3.3713892940">
        <ele>1832.41</ele>
        <time>2020-09-06T09:34:25Z</time>
      </trkpt>
      <trkpt lat="37.1736518852" lon="-3.3712821733">
        <ele>1834.81</ele>
        <time>2020-09-06T09:34:40Z</time>
      </trkpt>
      <trkpt lat="37.1737952996" lon="-3.3712192252">
        <ele>1836.26</ele>
        <time>2020-09-06T09:34:49Z</time>
      </trkpt>
      <trkpt lat="37.1738129854" lon="-3.3712139446">
        <ele>1836.74</ele>
        <time>2020-09-06T09:34:50Z</time>
      </trkpt>
      <trkpt lat="37.1740461700" lon="-3.3712436166">
        <ele>1840.10</ele>
        <time>2020-09-06T09:35:03Z</time>
      </trkpt>
      <trkpt lat="37.1743620839" lon="-3.3713706862">
        <ele>1842.02</ele>
        <time>2020-09-06T09:35:18Z</time>
      </trkpt>
      <trkpt lat="37.1743800212" lon="-3.3713465463">
        <ele>1842.02</ele>
        <time>2020-09-06T09:35:19Z</time>
      </trkpt>
      <trkpt lat="37.1743951086" lon="-3.3713181317">
        <ele>1842.02</ele>
        <time>2020-09-06T09:35:20Z</time>
      </trkpt>
      <trkpt lat="37.1744083520" lon="-3.3712856937">
        <ele>1842.02</ele>
        <time>2020-09-06T09:35:21Z</time>
      </trkpt>
      <trkpt lat="37.1744166501" lon="-3.3712555189">
        <ele>1842.50</ele>
        <time>2020-09-06T09:35:22Z</time>
      </trkpt>
      <trkpt lat="37.1744229365" lon="-3.3712198958">
        <ele>1842.50</ele>
        <time>2020-09-06T09:35:23Z</time>
      </trkpt>
      <trkpt lat="37.1744641755" lon="-3.3708368428">
        <ele>1845.87</ele>
        <time>2020-09-06T09:35:37Z</time>
      </trkpt>
      <trkpt lat="37.1745132096" lon="-3.3705129661">
        <ele>1849.23</ele>
        <time>2020-09-06T09:35:51Z</time>
      </trkpt>
      <trkpt lat="37.1745434683" lon="-3.3701756783">
        <ele>1852.60</ele>
        <time>2020-09-06T09:36:05Z</time>
      </trkpt>
      <trkpt lat="37.1745570470" lon="-3.3698600996">
        <ele>1855.48</ele>
        <time>2020-09-06T09:36:18Z</time>
      </trkpt>
      <trkpt lat="37.1745680273" lon="-3.3694466203">
        <ele>1858.85</ele>
        <time>2020-09-06T09:36:34Z</time>
      </trkpt>
      <trkpt lat="37.1746047400" lon="-3.3690992743">
        <ele>1862.21</ele>
        <time>2020-09-06T09:36:49Z</time>
      </trkpt>
      <trkpt lat="37.1746259462" lon="-3.3688162174">
        <ele>1865.09</ele>
        <time>2020-09-06T09:37:02Z</time>
      </trkpt>
      <trkpt lat="37.1746309754" lon="-3.3687324822">
        <ele>1861.73</ele>
        <time>2020-09-06T09:37:06Z</time>
      </trkpt>
      <trkpt lat="37.1746339928" lon="-3.3687118627">
        <ele>1864.61</ele>
        <time>2020-09-06T09:37:07Z</time>
      </trkpt>
      <trkpt lat="37.1746343281" lon="-3.3686733898">
        <ele>1869.42</ele>
        <time>2020-09-06T09:37:09Z</time>
      </trkpt>
      <trkpt lat="37.1746365912" lon="-3.3686515130">
        <ele>1862.21</ele>
        <time>2020-09-06T09:37:10Z</time>
      </trkpt>
      <trkpt lat="37.1746372618" lon="-3.3686303906">
        <ele>1873.27</ele>
        <time>2020-09-06T09:37:11Z</time>
      </trkpt>
      <trkpt lat="37.1746361721" lon="-3.3686080948">
        <ele>1869.42</ele>
        <time>2020-09-06T09:37:12Z</time>
      </trkpt>
      <trkpt lat="37.1746350825" lon="-3.3685595635">
        <ele>1867.98</ele>
        <time>2020-09-06T09:37:14Z</time>
      </trkpt>
      <trkpt lat="37.1746306401" lon="-3.3683447354">
        <ele>1869.90</ele>
        <time>2020-09-06T09:37:23Z</time>
      </trkpt>
      <trkpt lat="37.1746526845" lon="-3.3679170068">
        <ele>1871.34</ele>
        <time>2020-09-06T09:37:39Z</time>
      </trkpt>
      <trkpt lat="37.1747554466" lon="-3.3676736802">
        <ele>1870.38</ele>
        <time>2020-09-06T09:37:46Z</time>
      </trkpt>
      <trkpt lat="37.1748733800" lon="-3.3675505500">
        <ele>1869.42</ele>
        <time>2020-09-06T09:37:50Z</time>
      </trkpt>
      <trkpt lat="37.1749299578" lon="-3.3674881887">
        <ele>1868.46</ele>
        <time>2020-09-06T09:37:52Z</time>
      </trkpt>
      <trkpt lat="37.1749622282" lon="-3.3674515598">
        <ele>1868.46</ele>
        <time>2020-09-06T09:37:53Z</time>
      </trkpt>
      <trkpt lat="37.1749907266" lon="-3.3674112428">
        <ele>1868.46</ele>
        <time>2020-09-06T09:37:54Z</time>
      </trkpt>
      <trkpt lat="37.1750117652" lon="-3.3673651423">
        <ele>1867.50</ele>
        <time>2020-09-06T09:37:55Z</time>
      </trkpt>
      <trkpt lat="37.1750292834" lon="-3.3673094865">
        <ele>1867.50</ele>
        <time>2020-09-06T09:37:56Z</time>
      </trkpt>
      <trkpt lat="37.1750425268" lon="-3.3672612906">
        <ele>1867.02</ele>
        <time>2020-09-06T09:37:57Z</time>
      </trkpt>
      <trkpt lat="37.1750848554" lon="-3.3670668304">
        <ele>1866.06</ele>
        <time>2020-09-06T09:38:00Z</time>
      </trkpt>
      <trkpt lat="37.1751851868" lon="-3.3667257708">
        <ele>1865.58</ele>
        <time>2020-09-06T09:38:05Z</time>
      </trkpt>
      <trkpt lat="37.1752153616" lon="-3.3666622359">
        <ele>1865.58</ele>
        <time>2020-09-06T09:38:06Z</time>
      </trkpt>
      <trkpt lat="37.1752524935" lon="-3.3665966894">
        <ele>1864.61</ele>
        <time>2020-09-06T09:38:07Z</time>
      </trkpt>
      <trkpt lat="37.1752938163" lon="-3.3665355854">
        <ele>1864.13</ele>
        <time>2020-09-06T09:38:08Z</time>
      </trkpt>
      <trkpt lat="37.1753353067" lon="-3.3664698713">
        <ele>1864.13</ele>
        <time>2020-09-06T09:38:09Z</time>
      </trkpt>
      <trkpt lat="37.1753769647" lon="-3.3664031513">
        <ele>1863.65</ele>
        <time>2020-09-06T09:38:10Z</time>
      </trkpt>
      <trkpt lat="37.1754216403" lon="-3.3663385268">
        <ele>1863.65</ele>
        <time>2020-09-06T09:38:11Z</time>
      </trkpt>
      <trkpt lat="37.1755699161" lon="-3.3661469165">
        <ele>1861.73</ele>
        <time>2020-09-06T09:38:14Z</time>
      </trkpt>
      <trkpt lat="37.1756794676" lon="-3.3660289831">
        <ele>1860.77</ele>
        <time>2020-09-06T09:38:16Z</time>
      </trkpt>
      <trkpt lat="37.1757513843" lon="-3.3659739979">
        <ele>1859.81</ele>
        <time>2020-09-06T09:38:17Z</time>
      </trkpt>
      <trkpt lat="37.1758987382" lon="-3.3658703137">
        <ele>1858.85</ele>
        <time>2020-09-06T09:38:19Z</time>
      </trkpt>
      <trkpt lat="37.1759533044" lon="-3.3658100478">
        <ele>1858.85</ele>
        <time>2020-09-06T09:38:20Z</time>
      </trkpt>
      <trkpt lat="37.1760123968" lon="-3.3657289948">
        <ele>1857.89</ele>
        <time>2020-09-06T09:38:21Z</time>
      </trkpt>
      <trkpt lat="37.1761300787" lon="-3.3655870892">
        <ele>1856.44</ele>
        <time>2020-09-06T09:38:23Z</time>
      </trkpt>
      <trkpt lat="37.1761967987" lon="-3.3655423298">
        <ele>1856.92</ele>
        <time>2020-09-06T09:38:24Z</time>
      </trkpt>
      <trkpt lat="37.1762722358" lon="-3.3655163459">
        <ele>1855.96</ele>
        <time>2020-09-06T09:38:25Z</time>
      </trkpt>
      <trkpt lat="37.1763539594" lon="-3.3655078802">
        <ele>1855.00</ele>
        <time>2020-09-06T09:38:26Z</time>
      </trkpt>
      <trkpt lat="37.1764334198" lon="-3.3655096404">
        <ele>1855.00</ele>
        <time>2020-09-06T09:38:27Z</time>
      </trkpt>
      <trkpt lat="37.1765202563" lon="-3.3655170165">
        <ele>1854.04</ele>
        <time>2020-09-06T09:38:28Z</time>
      </trkpt>
      <trkpt lat="37.1766712144" lon="-3.3655147534">
        <ele>1853.08</ele>
        <time>2020-09-06T09:38:30Z</time>
      </trkpt>
      <trkpt lat="37.1767390240" lon="-3.3654922061">
        <ele>1852.60</ele>
        <time>2020-09-06T09:38:31Z</time>
      </trkpt>
      <trkpt lat="37.1767974459" lon="-3.3654449321">
        <ele>1851.64</ele>
        <time>2020-09-06T09:38:32Z</time>
      </trkpt>
      <trkpt lat="37.1768391877" lon="-3.3653766196">
        <ele>1851.64</ele>
        <time>2020-09-06T09:38:33Z</time>
      </trkpt>
      <trkpt lat="37.1768713742" lon="-3.3652972430">
        <ele>1850.68</ele>
        <time>2020-09-06T09:38:34Z</time>
      </trkpt>
      <trkpt lat="37.1769084223" lon="-3.3652068861">
        <ele>1850.19</ele>
        <time>2020-09-06T09:38:35Z</time>
      </trkpt>
      <trkpt lat="37.1769513376" lon="-3.3651380707">
        <ele>1850.19</ele>
        <time>2020-09-06T09:38:36Z</time>
      </trkpt>
      <trkpt lat="37.1770118549" lon="-3.3650835045">
        <ele>1849.23</ele>
        <time>2020-09-06T09:38:37Z</time>
      </trkpt>
      <trkpt lat="37.1770875435" lon="-3.3650508150">
        <ele>1849.23</ele>
        <time>2020-09-06T09:38:38Z</time>
      </trkpt>
      <trkpt lat="37.1771658305" lon="-3.3650327101">
        <ele>1848.75</ele>
        <time>2020-09-06T09:38:39Z</time>
      </trkpt>
      <trkpt lat="37.1773970872" lon="-3.3649826702">
        <ele>1847.31</ele>
        <time>2020-09-06T09:38:42Z</time>
      </trkpt>
      <trkpt lat="37.1774677467" lon="-3.3649981767">
        <ele>1846.35</ele>
        <time>2020-09-06T09:38:43Z</time>
      </trkpt>
      <trkpt lat="37.1775312815" lon="-3.3650403377">
        <ele>1846.35</ele>
        <time>2020-09-06T09:38:44Z</time>
      </trkpt>
      <trkpt lat="37.1775922179" lon="-3.3651033696">
        <ele>1845.39</ele>
        <time>2020-09-06T09:38:45Z</time>
      </trkpt>
      <trkpt lat="37.1776525676" lon="-3.3651620429">
        <ele>1844.43</ele>
        <time>2020-09-06T09:38:46Z</time>
      </trkpt>
      <trkpt lat="37.1777200419" lon="-3.3652104903">
        <ele>1843.95</ele>
        <time>2020-09-06T09:38:47Z</time>
      </trkpt>
      <trkpt lat="37.1777942218" lon="-3.3652544115">
        <ele>1842.50</ele>
        <time>2020-09-06T09:38:48Z</time>
      </trkpt>
      <trkpt lat="37.1778625343" lon="-3.3653036132">
        <ele>1842.02</ele>
        <time>2020-09-06T09:38:49Z</time>
      </trkpt>
      <trkpt lat="37.1779209562" lon="-3.3653602749">
        <ele>1841.54</ele>
        <time>2020-09-06T09:38:50Z</time>
      </trkpt>
      <trkpt lat="37.1779785398" lon="-3.3654331136">
        <ele>1840.58</ele>
        <time>2020-09-06T09:38:51Z</time>
      </trkpt>
      <trkpt lat="37.1781103034" lon="-3.3656406496">
        <ele>1839.14</ele>
        <time>2020-09-06T09:38:54Z</time>
      </trkpt>
      <trkpt lat="37.1781610977" lon="-3.3656952996">
        <ele>1838.18</ele>
        <time>2020-09-06T09:38:55Z</time>
      </trkpt>
      <trkpt lat="37.1782244649" lon="-3.3657403942">
        <ele>1838.18</ele>
        <time>2020-09-06T09:38:56Z</time>
      </trkpt>
      <trkpt lat="37.1783009917" lon="-3.3657776099">
        <ele>1837.22</ele>
        <time>2020-09-06T09:38:57Z</time>
      </trkpt>
      <trkpt lat="37.1783741657" lon="-3.3658132330">
        <ele>1836.26</ele>
        <time>2020-09-06T09:38:58Z</time>
      </trkpt>
      <trkpt lat="37.1784446575" lon="-3.3658561483">
        <ele>1836.26</ele>
        <time>2020-09-06T09:38:59Z</time>
      </trkpt>
      <trkpt lat="37.1785056777" lon="-3.3659079485">
        <ele>1835.29</ele>
        <time>2020-09-06T09:39:00Z</time>
      </trkpt>
      <trkpt lat="37.1785689611" lon="-3.3659709804">
        <ele>1834.81</ele>
        <time>2020-09-06T09:39:01Z</time>
      </trkpt>
      <trkpt lat="37.1786385309" lon="-3.3660325874">
        <ele>1833.85</ele>
        <time>2020-09-06T09:39:02Z</time>
      </trkpt>
      <trkpt lat="37.1789303888" lon="-3.3662482537">
        <ele>1830.49</ele>
        <time>2020-09-06T09:39:06Z</time>
      </trkpt>
      <trkpt lat="37.1791331470" lon="-3.3664063364">
        <ele>1829.53</ele>
        <time>2020-09-06T09:39:10Z</time>
      </trkpt>
      <trkpt lat="37.1791799180" lon="-3.3664135449">
        <ele>1828.08</ele>
        <time>2020-09-06T09:39:11Z</time>
      </trkpt>
      <trkpt lat="37.1792189777" lon="-3.3663872257">
        <ele>1827.60</ele>
        <time>2020-09-06T09:39:12Z</time>
      </trkpt>
      <trkpt lat="37.1792459674" lon="-3.3663348388">
        <ele>1826.64</ele>
        <time>2020-09-06T09:39:13Z</time>
      </trkpt>
      <trkpt lat="37.1792538464" lon="-3.3662625868">
        <ele>1826.16</ele>
        <time>2020-09-06T09:39:14Z</time>
      </trkpt>
      <trkpt lat="37.1792522538" lon="-3.3661820367">
        <ele>1825.68</ele>
        <time>2020-09-06T09:39:15Z</time>
      </trkpt>
      <trkpt lat="37.1792587917" lon="-3.3660931885">
        <ele>1824.72</ele>
        <time>2020-09-06T09:39:16Z</time>
      </trkpt>
      <trkpt lat="37.1792732924" lon="-3.3659944497">
        <ele>1823.76</ele>
        <time>2020-09-06T09:39:17Z</time>
      </trkpt>
      <trkpt lat="37.1792784892" lon="-3.3659074455">
        <ele>1822.32</ele>
        <time>2020-09-06T09:39:18Z</time>
      </trkpt>
      <trkpt lat="37.1792640723" lon="-3.3658346906">
        <ele>1821.84</ele>
        <time>2020-09-06T09:39:19Z</time>
      </trkpt>
      <trkpt lat="37.1792310476" lon="-3.3657672163">
        <ele>1820.87</ele>
        <time>2020-09-06T09:39:20Z</time>
      </trkpt>
      <trkpt lat="37.1791837737" lon="-3.3657122310">
        <ele>1820.87</ele>
        <time>2020-09-06T09:39:21Z</time>
      </trkpt>
      <trkpt lat="37.1791293751" lon="-3.3656624425">
        <ele>1820.39</ele>
        <time>2020-09-06T09:39:22Z</time>
      </trkpt>
      <trkpt lat="37.1790766530" lon="-3.3656041045">
        <ele>1819.43</ele>
        <time>2020-09-06T09:39:23Z</time>
      </trkpt>
      <trkpt lat="37.1790286247" lon="-3.3655288350">
        <ele>1819.43</ele>
        <time>2020-09-06T09:39:24Z</time>
      </trkpt>
      <trkpt lat="37.1789938398" lon="-3.3654585108">
        <ele>1819.43</ele>
        <time>2020-09-06T09:39:25Z</time>
      </trkpt>
      <trkpt lat="37.1789590549" lon="-3.3653704170">
        <ele>1818.47</ele>
        <time>2020-09-06T09:39:26Z</time>
      </trkpt>
      <trkpt lat="37.1789349988" lon="-3.3652861789">
        <ele>1817.99</ele>
        <time>2020-09-06T09:39:27Z</time>
      </trkpt>
      <trkpt lat="37.1789118648" lon="-3.3651954029">
        <ele>1817.03</ele>
        <time>2020-09-06T09:39:28Z</time>
      </trkpt>
      <trkpt lat="37.1788882278" lon="-3.3651068062">
        <ele>1817.03</ele>
        <time>2020-09-06T09:39:29Z</time>
      </trkpt>
      <trkpt lat="37.1788595617" lon="-3.3650213107">
        <ele>1816.55</ele>
        <time>2020-09-06T09:39:30Z</time>
      </trkpt>
      <trkpt lat="37.1788179874" lon="-3.3649428561">
        <ele>1815.59</ele>
        <time>2020-09-06T09:39:31Z</time>
      </trkpt>
      <trkpt lat="37.1787306480" lon="-3.3647856954">
        <ele>1815.11</ele>
        <time>2020-09-06T09:39:33Z</time>
      </trkpt>
      <trkpt lat="37.1787058376" lon="-3.3646935783">
        <ele>1815.11</ele>
        <time>2020-09-06T09:39:34Z</time>
      </trkpt>
      <trkpt lat="37.1786769200" lon="-3.3645940013">
        <ele>1814.15</ele>
        <time>2020-09-06T09:39:35Z</time>
      </trkpt>
      <trkpt lat="37.1786417160" lon="-3.3645192347">
        <ele>1813.18</ele>
        <time>2020-09-06T09:39:36Z</time>
      </trkpt>
      <trkpt lat="37.1785915922" lon="-3.3644308895">
        <ele>1813.66</ele>
        <time>2020-09-06T09:39:37Z</time>
      </trkpt>
      <trkpt lat="37.1783243772" lon="-3.3640211821">
        <ele>1811.26</ele>
        <time>2020-09-06T09:39:42Z</time>
      </trkpt>
      <trkpt lat="37.1781336889" lon="-3.3637853991">
        <ele>1809.82</ele>
        <time>2020-09-06T09:39:45Z</time>
      </trkpt>
      <trkpt lat="37.1780897677" lon="-3.3637123089">
        <ele>1808.86</ele>
        <time>2020-09-06T09:39:46Z</time>
      </trkpt>
      <trkpt lat="37.1780517977" lon="-3.3636226226">
        <ele>1807.90</ele>
        <time>2020-09-06T09:39:47Z</time>
      </trkpt>
      <trkpt lat="37.1779823117" lon="-3.3634777833">
        <ele>1807.42</ele>
        <time>2020-09-06T09:39:49Z</time>
      </trkpt>
      <trkpt lat="37.1779300086" lon="-3.3634300902">
        <ele>1806.45</ele>
        <time>2020-09-06T09:39:50Z</time>
      </trkpt>
      <trkpt lat="37.1778666414" lon="-3.3634081297">
        <ele>1805.97</ele>
        <time>2020-09-06T09:39:51Z</time>
      </trkpt>
      <trkpt lat="37.1778005082" lon="-3.3634144999">
        <ele>1805.49</ele>
        <time>2020-09-06T09:39:52Z</time>
      </trkpt>
      <trkpt lat="37.1777275857" lon="-3.3634362929">
        <ele>1805.49</ele>
        <time>2020-09-06T09:39:53Z</time>
      </trkpt>
      <trkpt lat="37.1776565909" lon="-3.3634497039">
        <ele>1804.53</ele>
        <time>2020-09-06T09:39:54Z</time>
      </trkpt>
      <trkpt lat="37.1773420181" lon="-3.3635214530">
        <ele>1802.61</ele>
        <time>2020-09-06T09:39:58Z</time>
      </trkpt>
      <trkpt lat="37.1771003678" lon="-3.3636205271">
        <ele>1801.17</ele>
        <time>2020-09-06T09:40:01Z</time>
      </trkpt>
      <trkpt lat="37.1769551095" lon="-3.3636705671">
        <ele>1799.73</ele>
        <time>2020-09-06T09:40:03Z</time>
      </trkpt>
      <trkpt lat="37.1768769901" lon="-3.3636828046">
        <ele>1799.73</ele>
        <time>2020-09-06T09:40:04Z</time>
      </trkpt>
      <trkpt lat="37.1768172272" lon="-3.3636854868">
        <ele>1799.24</ele>
        <time>2020-09-06T09:40:05Z</time>
      </trkpt>
      <trkpt lat="37.1767546143" lon="-3.3636745065">
        <ele>1799.24</ele>
        <time>2020-09-06T09:40:06Z</time>
      </trkpt>
      <trkpt lat="37.1767017245" lon="-3.3636403084">
        <ele>1798.28</ele>
        <time>2020-09-06T09:40:07Z</time>
      </trkpt>
      <trkpt lat="37.1766680293" lon="-3.3635818027">
        <ele>1797.80</ele>
        <time>2020-09-06T09:40:08Z</time>
      </trkpt>
      <trkpt lat="37.1766550373" lon="-3.3635106403">
        <ele>1796.84</ele>
        <time>2020-09-06T09:40:09Z</time>
      </trkpt>
      <trkpt lat="37.1766667720" lon="-3.3634419926">
        <ele>1796.84</ele>
        <time>2020-09-06T09:40:10Z</time>
      </trkpt>
      <trkpt lat="37.1766956057" lon="-3.3633827325">
        <ele>1796.84</ele>
        <time>2020-09-06T09:40:11Z</time>
      </trkpt>
      <trkpt lat="37.1767369285" lon="-3.3633331116">
        <ele>1796.84</ele>
        <time>2020-09-06T09:40:12Z</time>
      </trkpt>
      <trkpt lat="37.1767850406" lon="-3.3632859215">
        <ele>1796.36</ele>
        <time>2020-09-06T09:40:13Z</time>
      </trkpt>
      <trkpt lat="37.1768797562" lon="-3.3631726820">
        <ele>1795.40</ele>
        <time>2020-09-06T09:40:15Z</time>
      </trkpt>
      <trkpt lat="37.1769193187" lon="-3.3630974125">
        <ele>1795.40</ele>
        <time>2020-09-06T09:40:16Z</time>
      </trkpt>
      <trkpt lat="37.1769494098" lon="-3.3630162757">
        <ele>1794.44</ele>
        <time>2020-09-06T09:40:17Z</time>
      </trkpt>
      <trkpt lat="37.1769748908" lon="-3.3629294392">
        <ele>1793.96</ele>
        <time>2020-09-06T09:40:18Z</time>
      </trkpt>
      <trkpt lat="37.1769931633" lon="-3.3628249168">
        <ele>1793.00</ele>
        <time>2020-09-06T09:40:19Z</time>
      </trkpt>
      <trkpt lat="37.1770006232" lon="-3.3627348114">
        <ele>1793.00</ele>
        <time>2020-09-06T09:40:20Z</time>
      </trkpt>
      <trkpt lat="37.1770012937" lon="-3.3626250084">
        <ele>1792.03</ele>
        <time>2020-09-06T09:40:21Z</time>
      </trkpt>
      <trkpt lat="37.1770086698" lon="-3.3625244256">
        <ele>1792.03</ele>
        <time>2020-09-06T09:40:22Z</time>
      </trkpt>
      <trkpt lat="37.1770311333" lon="-3.3624377567">
        <ele>1791.07</ele>
        <time>2020-09-06T09:40:23Z</time>
      </trkpt>
      <trkpt lat="37.1770784911" lon="-3.3623529319">
        <ele>1791.07</ele>
        <time>2020-09-06T09:40:24Z</time>
      </trkpt>
      <trkpt lat="37.1771439537" lon="-3.3622921631">
        <ele>1789.63</ele>
        <time>2020-09-06T09:40:25Z</time>
      </trkpt>
      <trkpt lat="37.1772198938" lon="-3.3622425422">
        <ele>1789.15</ele>
        <time>2020-09-06T09:40:26Z</time>
      </trkpt>
      <trkpt lat="37.1773047186" lon="-3.3621807676">
        <ele>1788.67</ele>
        <time>2020-09-06T09:40:27Z</time>
      </trkpt>
      <trkpt lat="37.1773757972" lon="-3.3621159755">
        <ele>1788.19</ele>
        <time>2020-09-06T09:40:28Z</time>
      </trkpt>
      <trkpt lat="37.1774467919" lon="-3.3620362636">
        <ele>1786.75</ele>
        <time>2020-09-06T09:40:29Z</time>
      </trkpt>
      <trkpt lat="37.1775116678" lon="-3.3619435597">
        <ele>1786.75</ele>
        <time>2020-09-06T09:40:30Z</time>
      </trkpt>
      <trkpt lat="37.1775688324" lon="-3.3618390374">
        <ele>1785.31</ele>
        <time>2020-09-06T09:40:31Z</time>
      </trkpt>
      <trkpt lat="37.1776188724" lon="-3.3617273066">
        <ele>1784.34</ele>
        <time>2020-09-06T09:40:32Z</time>
      </trkpt>
      <trkpt lat="37.1776610333" lon="-3.3616112173">
        <ele>1783.38</ele>
        <time>2020-09-06T09:40:33Z</time>
      </trkpt>
      <trkpt lat="37.1776949801" lon="-3.3614896797">
        <ele>1782.42</ele>
        <time>2020-09-06T09:40:34Z</time>
      </trkpt>
      <trkpt lat="37.1777244844" lon="-3.3613646217">
        <ele>1782.90</ele>
        <time>2020-09-06T09:40:35Z</time>
      </trkpt>
      <trkpt lat="37.1777963173" lon="-3.3611186966">
        <ele>1780.02</ele>
        <time>2020-09-06T09:40:37Z</time>
      </trkpt>
      <trkpt lat="37.1779817250" lon="-3.3606799878">
        <ele>1776.65</ele>
        <time>2020-09-06T09:40:41Z</time>
      </trkpt>
      <trkpt lat="37.1780771110" lon="-3.3604687639">
        <ele>1775.21</ele>
        <time>2020-09-06T09:40:43Z</time>
      </trkpt>
      <trkpt lat="37.1781434957" lon="-3.3603774849">
        <ele>1774.73</ele>
        <time>2020-09-06T09:40:44Z</time>
      </trkpt>
      <trkpt lat="37.1782167535" lon="-3.3602993656">
        <ele>1773.77</ele>
        <time>2020-09-06T09:40:45Z</time>
      </trkpt>
      <trkpt lat="37.1782994829" lon="-3.3602346573">
        <ele>1773.77</ele>
        <time>2020-09-06T09:40:46Z</time>
      </trkpt>
      <trkpt lat="37.1783897560" lon="-3.3601880539">
        <ele>1773.29</ele>
        <time>2020-09-06T09:40:47Z</time>
      </trkpt>
      <trkpt lat="37.1784935240" lon="-3.3601423725">
        <ele>1772.33</ele>
        <time>2020-09-06T09:40:48Z</time>
      </trkpt>
      <trkpt lat="37.1786763333" lon="-3.3600561228">
        <ele>1771.37</ele>
        <time>2020-09-06T09:40:50Z</time>
      </trkpt>
      <trkpt lat="37.1790684387" lon="-3.3598022349">
        <ele>1768.00</ele>
        <time>2020-09-06T09:40:54Z</time>
      </trkpt>
      <trkpt lat="37.1791515872" lon="-3.3597040828">
        <ele>1767.52</ele>
        <time>2020-09-06T09:40:55Z</time>
      </trkpt>
      <trkpt lat="37.1792157926" lon="-3.3595828805">
        <ele>1766.56</ele>
        <time>2020-09-06T09:40:56Z</time>
      </trkpt>
      <trkpt lat="37.1792534273" lon="-3.3594459202">
        <ele>1766.08</ele>
        <time>2020-09-06T09:40:57Z</time>
      </trkpt>
      <trkpt lat="37.1792623121" lon="-3.3593107201">
        <ele>1765.12</ele>
        <time>2020-09-06T09:40:58Z</time>
      </trkpt>
      <trkpt lat="37.1792632341" lon="-3.3591756038">
        <ele>1765.12</ele>
        <time>2020-09-06T09:40:59Z</time>
      </trkpt>
      <trkpt lat="37.1792878769" lon="-3.3590458520">
        <ele>1764.16</ele>
        <time>2020-09-06T09:41:00Z</time>
      </trkpt>
      <trkpt lat="37.1793430299" lon="-3.3589307684">
        <ele>1764.16</ele>
        <time>2020-09-06T09:41:01Z</time>
      </trkpt>
      <trkpt lat="37.1794180479" lon="-3.3588328678">
        <ele>1762.71</ele>
        <time>2020-09-06T09:41:02Z</time>
      </trkpt>
      <trkpt lat="37.1795001905" lon="-3.3587368950">
        <ele>1761.75</ele>
        <time>2020-09-06T09:41:03Z</time>
      </trkpt>
      <trkpt lat="37.1795802377" lon="-3.3586318698">
        <ele>1760.79</ele>
        <time>2020-09-06T09:41:04Z</time>
      </trkpt>
      <trkpt lat="37.1797498874" lon="-3.3584063966">
        <ele>1759.83</ele>
        <time>2020-09-06T09:41:06Z</time>
      </trkpt>
      <trkpt lat="37.1798524819" lon="-3.3583211526">
        <ele>1758.87</ele>
        <time>2020-09-06T09:41:07Z</time>
      </trkpt>
      <trkpt lat="37.1799620334" lon="-3.3582592104">
        <ele>1757.91</ele>
        <time>2020-09-06T09:41:08Z</time>
      </trkpt>
      <trkpt lat="37.1800588444" lon="-3.3582016267">
        <ele>1757.43</ele>
        <time>2020-09-06T09:41:09Z</time>
      </trkpt>
      <trkpt lat="37.1801366284" lon="-3.3581250161">
        <ele>1756.47</ele>
        <time>2020-09-06T09:41:10Z</time>
      </trkpt>
      <trkpt lat="37.1801760234" lon="-3.3580389339">
        <ele>1755.99</ele>
        <time>2020-09-06T09:41:11Z</time>
      </trkpt>
      <trkpt lat="37.1801837347" lon="-3.3579277061">
        <ele>1754.54</ele>
        <time>2020-09-06T09:41:12Z</time>
      </trkpt>
      <trkpt lat="37.1801639535" lon="-3.3578169812">
        <ele>1754.06</ele>
        <time>2020-09-06T09:41:13Z</time>
      </trkpt>
      <trkpt lat="37.1801310964" lon="-3.3577039093">
        <ele>1754.06</ele>
        <time>2020-09-06T09:41:14Z</time>
      </trkpt>
      <trkpt lat="37.1800953895" lon="-3.3575862274">
        <ele>1753.10</ele>
        <time>2020-09-06T09:41:15Z</time>
      </trkpt>
      <trkpt lat="37.1800378058" lon="-3.3573590778">
        <ele>1751.66</ele>
        <time>2020-09-06T09:41:17Z</time>
      </trkpt>
      <trkpt lat="37.1800384764" lon="-3.3572529629">
        <ele>1751.66</ele>
        <time>2020-09-06T09:41:18Z</time>
      </trkpt>
      <trkpt lat="37.1800633706" lon="-3.3571731672">
        <ele>1750.70</ele>
        <time>2020-09-06T09:41:19Z</time>
      </trkpt>
      <trkpt lat="37.1801139135" lon="-3.3571092971">
        <ele>1750.22</ele>
        <time>2020-09-06T09:41:20Z</time>
      </trkpt>
      <trkpt lat="37.1801777836" lon="-3.3570699859">
        <ele>1750.22</ele>
        <time>2020-09-06T09:41:21Z</time>
      </trkpt>
      <trkpt lat="37.1802499518" lon="-3.3570326865">
        <ele>1749.26</ele>
        <time>2020-09-06T09:41:22Z</time>
      </trkpt>
      <trkpt lat="37.1803161688" lon="-3.3569703251">
        <ele>1748.29</ele>
        <time>2020-09-06T09:41:23Z</time>
      </trkpt>
      <trkpt lat="37.1803737525" lon="-3.3568884339">
        <ele>1748.29</ele>
        <time>2020-09-06T09:41:24Z</time>
      </trkpt>
      <trkpt lat="37.1804334316" lon="-3.3567984961">
        <ele>1748.29</ele>
        <time>2020-09-06T09:41:25Z</time>
      </trkpt>
      <trkpt lat="37.1804995649" lon="-3.3567088936">
        <ele>1747.33</ele>
        <time>2020-09-06T09:41:26Z</time>
      </trkpt>
      <trkpt lat="37.1807212662" lon="-3.3564334642">
        <ele>1745.41</ele>
        <time>2020-09-06T09:41:29Z</time>
      </trkpt>
      <trkpt lat="37.1808081865" lon="-3.3563555963">
        <ele>1744.45</ele>
        <time>2020-09-06T09:41:30Z</time>
      </trkpt>
      <trkpt lat="37.1809011418" lon="-3.3562921453">
        <ele>1743.97</ele>
        <time>2020-09-06T09:41:31Z</time>
      </trkpt>
      <trkpt lat="37.1809962764" lon="-3.3562241681">
        <ele>1743.01</ele>
        <time>2020-09-06T09:41:32Z</time>
      </trkpt>
      <trkpt lat="37.1810834482" lon="-3.3561390080">
        <ele>1742.05</ele>
        <time>2020-09-06T09:41:33Z</time>
      </trkpt>
      <trkpt lat="37.1811636630" lon="-3.3560412750">
        <ele>1741.57</ele>
        <time>2020-09-06T09:41:34Z</time>
      </trkpt>
      <trkpt lat="37.1814087499" lon="-3.3557737246">
        <ele>1738.20</ele>
        <time>2020-09-06T09:41:37Z</time>
      </trkpt>
      <trkpt lat="37.1814892162" lon="-3.3556921687">
        <ele>1738.68</ele>
        <time>2020-09-06T09:41:38Z</time>
      </trkpt>
      <trkpt lat="37.1815639827" lon="-3.3555957768">
        <ele>1738.20</ele>
        <time>2020-09-06T09:41:39Z</time>
      </trkpt>
      <trkpt lat="37.1816052217" lon="-3.3554945234">
        <ele>1737.24</ele>
        <time>2020-09-06T09:41:40Z</time>
      </trkpt>
      <trkpt lat="37.1816178784" lon="-3.3553658612">
        <ele>1736.28</ele>
        <time>2020-09-06T09:41:41Z</time>
      </trkpt>
      <trkpt lat="37.1816064790" lon="-3.3552376181">
        <ele>1735.80</ele>
        <time>2020-09-06T09:41:42Z</time>
      </trkpt>
      <trkpt lat="37.1815872006" lon="-3.3551061898">
        <ele>1735.80</ele>
        <time>2020-09-06T09:41:43Z</time>
      </trkpt>
      <trkpt lat="37.1815739572" lon="-3.3549737558">
        <ele>1734.84</ele>
        <time>2020-09-06T09:41:44Z</time>
      </trkpt>
      <trkpt lat="37.1815840155" lon="-3.3548354544">
        <ele>1733.88</ele>
        <time>2020-09-06T09:41:45Z</time>
      </trkpt>
      <trkpt lat="37.1816232428" lon="-3.3547036909">
        <ele>1733.39</ele>
        <time>2020-09-06T09:41:46Z</time>
      </trkpt>
      <trkpt lat="37.1817099117" lon="-3.3544391580">
        <ele>1731.47</ele>
        <time>2020-09-06T09:41:48Z</time>
      </trkpt>
      <trkpt lat="37.1817514859" lon="-3.3541777264">
        <ele>1730.03</ele>
        <time>2020-09-06T09:41:50Z</time>
      </trkpt>
      <trkpt lat="37.1818042081" lon="-3.3540903870">
        <ele>1729.55</ele>
        <time>2020-09-06T09:41:51Z</time>
      </trkpt>
      <trkpt lat="37.1818838362" lon="-3.3540339768">
        <ele>1728.59</ele>
        <time>2020-09-06T09:41:52Z</time>
      </trkpt>
      <trkpt lat="37.1819762047" lon="-3.3540040534">
        <ele>1728.59</ele>
        <time>2020-09-06T09:41:53Z</time>
      </trkpt>
      <trkpt lat="37.1820699144" lon="-3.3539703581">
        <ele>1727.63</ele>
        <time>2020-09-06T09:41:54Z</time>
      </trkpt>
      <trkpt lat="37.1821600199" lon="-3.3539192285">
        <ele>1726.67</ele>
        <time>2020-09-06T09:41:55Z</time>
      </trkpt>
      <trkpt lat="37.1822410729" lon="-3.3538365830">
        <ele>1726.67</ele>
        <time>2020-09-06T09:41:56Z</time>
      </trkpt>
      <trkpt lat="37.1823042724" lon="-3.3537381794">
        <ele>1725.70</ele>
        <time>2020-09-06T09:41:57Z</time>
      </trkpt>
      <trkpt lat="37.1823585872" lon="-3.3536328189">
        <ele>1725.22</ele>
        <time>2020-09-06T09:41:58Z</time>
      </trkpt>
      <trkpt lat="37.1825552266" lon="-3.3533054218">
        <ele>1722.34</ele>
        <time>2020-09-06T09:42:01Z</time>
      </trkpt>
      <trkpt lat="37.1826408897" lon="-3.3532095328">
        <ele>1721.38</ele>
        <time>2020-09-06T09:42:02Z</time>
      </trkpt>
      <trkpt lat="37.1828236151" lon="-3.3530171681">
        <ele>1719.94</ele>
        <time>2020-09-06T09:42:04Z</time>
      </trkpt>
      <trkpt lat="37.1828925144" lon="-3.3529035933">
        <ele>1718.97</ele>
        <time>2020-09-06T09:42:05Z</time>
      </trkpt>
      <trkpt lat="37.1829503495" lon="-3.3527739253">
        <ele>1718.97</ele>
        <time>2020-09-06T09:42:06Z</time>
      </trkpt>
      <trkpt lat="37.1830614936" lon="-3.3525085542">
        <ele>1717.53</ele>
        <time>2020-09-06T09:42:08Z</time>
      </trkpt>
      <trkpt lat="37.1831366792" lon="-3.3523917943">
        <ele>1716.09</ele>
        <time>2020-09-06T09:42:09Z</time>
      </trkpt>
      <trkpt lat="37.1832247730" lon="-3.3522893675">
        <ele>1715.61</ele>
        <time>2020-09-06T09:42:10Z</time>
      </trkpt>
      <trkpt lat="37.1834857017" lon="-3.3519846015">
        <ele>1713.21</ele>
        <time>2020-09-06T09:42:13Z</time>
      </trkpt>
      <trkpt lat="37.1835319698" lon="-3.3518535923">
        <ele>1712.25</ele>
        <time>2020-09-06T09:42:14Z</time>
      </trkpt>
      <trkpt lat="37.1835417766" lon="-3.3517099265">
        <ele>1711.28</ele>
        <time>2020-09-06T09:42:15Z</time>
      </trkpt>
      <trkpt lat="37.1835195646" lon="-3.3515647519">
        <ele>1710.80</ele>
        <time>2020-09-06T09:42:16Z</time>
      </trkpt>
      <trkpt lat="37.1834850311" lon="-3.3514202479">
        <ele>1709.84</ele>
        <time>2020-09-06T09:42:17Z</time>
      </trkpt>
      <trkpt lat="37.1834379248" lon="-3.3511156496">
        <ele>1708.40</ele>
        <time>2020-09-06T09:42:19Z</time>
      </trkpt>
      <trkpt lat="37.1834411938" lon="-3.3509585727">
        <ele>1707.92</ele>
        <time>2020-09-06T09:42:20Z</time>
      </trkpt>
      <trkpt lat="37.1834430378" lon="-3.3507999871">
        <ele>1706.96</ele>
        <time>2020-09-06T09:42:21Z</time>
      </trkpt>
      <trkpt lat="37.1834289562" lon="-3.3506421559">
        <ele>1706.00</ele>
        <time>2020-09-06T09:42:22Z</time>
      </trkpt>
      <trkpt lat="37.1834085044" lon="-3.3504861686">
        <ele>1705.04</ele>
        <time>2020-09-06T09:42:23Z</time>
      </trkpt>
      <trkpt lat="37.1834052354" lon="-3.3503339533">
        <ele>1704.07</ele>
        <time>2020-09-06T09:42:24Z</time>
      </trkpt>
      <trkpt lat="37.1834116057" lon="-3.3501900360">
        <ele>1703.59</ele>
        <time>2020-09-06T09:42:25Z</time>
      </trkpt>
      <trkpt lat="37.1834062412" lon="-3.3500590269">
        <ele>1702.63</ele>
        <time>2020-09-06T09:42:26Z</time>
      </trkpt>
      <trkpt lat="37.1833795030" lon="-3.3498329669">
        <ele>1701.19</ele>
        <time>2020-09-06T09:42:28Z</time>
      </trkpt>
      <trkpt lat="37.1833933331" lon="-3.3497352339">
        <ele>1700.71</ele>
        <time>2020-09-06T09:42:29Z</time>
      </trkpt>
      <trkpt lat="37.1834363323" lon="-3.3496517502">
        <ele>1699.75</ele>
        <time>2020-09-06T09:42:30Z</time>
      </trkpt>
      <trkpt lat="37.1835028008" lon="-3.3496000338">
        <ele>1699.27</ele>
        <time>2020-09-06T09:42:31Z</time>
      </trkpt>
      <trkpt lat="37.1835822612" lon="-3.3495929092">
        <ele>1698.31</ele>
        <time>2020-09-06T09:42:32Z</time>
      </trkpt>
      <trkpt lat="37.1836685948" lon="-3.3496216591">
        <ele>1697.83</ele>
        <time>2020-09-06T09:42:33Z</time>
      </trkpt>
      <trkpt lat="37.1837602090" lon="-3.3496547677">
        <ele>1696.86</ele>
        <time>2020-09-06T09:42:34Z</time>
      </trkpt>
      <trkpt lat="37.1838563494" lon="-3.3496675082">
        <ele>1696.86</ele>
        <time>2020-09-06T09:42:35Z</time>
      </trkpt>
      <trkpt lat="37.1839571837" lon="-3.3496602997">
        <ele>1695.90</ele>
        <time>2020-09-06T09:42:36Z</time>
      </trkpt>
      <trkpt lat="37.1840625443" lon="-3.3496416081">
        <ele>1695.42</ele>
        <time>2020-09-06T09:42:37Z</time>
      </trkpt>
      <trkpt lat="37.1841702517" lon="-3.3496158756">
        <ele>1693.98</ele>
        <time>2020-09-06T09:42:38Z</time>
      </trkpt>
      <trkpt lat="37.1842784621" lon="-3.3495784085">
        <ele>1693.50</ele>
        <time>2020-09-06T09:42:39Z</time>
      </trkpt>
      <trkpt lat="37.1843822300" lon="-3.3495134488">
        <ele>1692.54</ele>
        <time>2020-09-06T09:42:40Z</time>
      </trkpt>
      <trkpt lat="37.1844735928" lon="-3.3494200744">
        <ele>1691.58</ele>
        <time>2020-09-06T09:42:41Z</time>
      </trkpt>
      <trkpt lat="37.1845499519" lon="-3.3493044041">
        <ele>1690.62</ele>
        <time>2020-09-06T09:42:42Z</time>
      </trkpt>
      <trkpt lat="37.1846171748" lon="-3.3491772506">
        <ele>1690.14</ele>
        <time>2020-09-06T09:42:43Z</time>
      </trkpt>
      <trkpt lat="37.1848390438" lon="-3.3486356959">
        <ele>1686.77</ele>
        <time>2020-09-06T09:42:47Z</time>
      </trkpt>
      <trkpt lat="37.1850171592" lon="-3.3481030259">
        <ele>1683.89</ele>
        <time>2020-09-06T09:42:51Z</time>
      </trkpt>
      <trkpt lat="37.1850589849" lon="-3.3479744475">
        <ele>1683.89</ele>
        <time>2020-09-06T09:42:52Z</time>
      </trkpt>
      <trkpt lat="37.1850908361" lon="-3.3478392474">
        <ele>1682.93</ele>
        <time>2020-09-06T09:42:53Z</time>
      </trkpt>
      <trkpt lat="37.1851042472" lon="-3.3477021195">
        <ele>1682.93</ele>
        <time>2020-09-06T09:42:54Z</time>
      </trkpt>
      <trkpt lat="37.1851165686" lon="-3.3474153746">
        <ele>1681.48</ele>
        <time>2020-09-06T09:42:56Z</time>
      </trkpt>
      <trkpt lat="37.1851482522" lon="-3.3472756483">
        <ele>1680.04</ele>
        <time>2020-09-06T09:42:57Z</time>
      </trkpt>
      <trkpt lat="37.1851992980" lon="-3.3471450582">
        <ele>1679.56</ele>
        <time>2020-09-06T09:42:58Z</time>
      </trkpt>
      <trkpt lat="37.1852621622" lon="-3.3470190782">
        <ele>1678.60</ele>
        <time>2020-09-06T09:42:59Z</time>
      </trkpt>
      <trkpt lat="37.1853330731" lon="-3.3468998875">
        <ele>1677.64</ele>
        <time>2020-09-06T09:43:00Z</time>
      </trkpt>
      <trkpt lat="37.1854089294" lon="-3.3467812836">
        <ele>1677.16</ele>
        <time>2020-09-06T09:43:01Z</time>
      </trkpt>
      <trkpt lat="37.1854779962" lon="-3.3466545492">
        <ele>1676.20</ele>
        <time>2020-09-06T09:43:02Z</time>
      </trkpt>
      <trkpt lat="37.1855281200" lon="-3.3465203550">
        <ele>1675.72</ele>
        <time>2020-09-06T09:43:03Z</time>
      </trkpt>
      <trkpt lat="37.1855481528" lon="-3.3463818021">
        <ele>1674.75</ele>
        <time>2020-09-06T09:43:04Z</time>
      </trkpt>
      <trkpt lat="37.1855395194" lon="-3.3462437522">
        <ele>1673.79</ele>
        <time>2020-09-06T09:43:05Z</time>
      </trkpt>
      <trkpt lat="37.1855097637" lon="-3.3461077139">
        <ele>1673.31</ele>
        <time>2020-09-06T09:43:06Z</time>
      </trkpt>
      <trkpt lat="37.1854740568" lon="-3.3459746093">
        <ele>1672.35</ele>
        <time>2020-09-06T09:43:07Z</time>
      </trkpt>
      <trkpt lat="37.1854291297" lon="-3.3458460309">
        <ele>1671.87</ele>
        <time>2020-09-06T09:43:08Z</time>
      </trkpt>
      <trkpt lat="37.1853838675" lon="-3.3457702585">
        <ele>1670.43</ele>
        <time>2020-09-06T09:43:09Z</time>
      </trkpt>
      <trkpt lat="37.1853186563" lon="-3.3457190450">
        <ele>1670.43</ele>
        <time>2020-09-06T09:43:10Z</time>
      </trkpt>
      <trkpt lat="37.1852448955" lon="-3.3456898760">
        <ele>1669.47</ele>
        <time>2020-09-06T09:43:11Z</time>
      </trkpt>
      <trkpt lat="37.1851662733" lon="-3.3456647303">
        <ele>1669.47</ele>
        <time>2020-09-06T09:43:12Z</time>
      </trkpt>
      <trkpt lat="37.1850045025" lon="-3.3455892932">
        <ele>1668.02</ele>
        <time>2020-09-06T09:43:14Z</time>
      </trkpt>
      <trkpt lat="37.1849222761" lon="-3.3455472160">
        <ele>1667.06</ele>
        <time>2020-09-06T09:43:15Z</time>
      </trkpt>
      <trkpt lat="37.1848429833" lon="-3.3455074858">
        <ele>1666.58</ele>
        <time>2020-09-06T09:43:16Z</time>
      </trkpt>
      <trkpt lat="37.1847726591" lon="-3.3454570267">
        <ele>1665.62</ele>
        <time>2020-09-06T09:43:17Z</time>
      </trkpt>
      <trkpt lat="37.1847123932" lon="-3.3453976829">
        <ele>1665.62</ele>
        <time>2020-09-06T09:43:18Z</time>
      </trkpt>
      <trkpt lat="37.1846705675" lon="-3.3453359921">
        <ele>1664.66</ele>
        <time>2020-09-06T09:43:19Z</time>
      </trkpt>
      <trkpt lat="37.1846484393" lon="-3.3452673443">
        <ele>1664.66</ele>
        <time>2020-09-06T09:43:20Z</time>
      </trkpt>
      <trkpt lat="37.1846460924" lon="-3.3451896440">
        <ele>1663.70</ele>
        <time>2020-09-06T09:43:21Z</time>
      </trkpt>
      <trkpt lat="37.1846648678" lon="-3.3451114409">
        <ele>1663.22</ele>
        <time>2020-09-06T09:43:22Z</time>
      </trkpt>
      <trkpt lat="37.1847087052" lon="-3.3450495824">
        <ele>1662.26</ele>
        <time>2020-09-06T09:43:23Z</time>
      </trkpt>
      <trkpt lat="37.1847692225" lon="-3.3450125344">
        <ele>1660.81</ele>
        <time>2020-09-06T09:43:24Z</time>
      </trkpt>
      <trkpt lat="37.1848380379" lon="-3.3449977823">
        <ele>1660.81</ele>
        <time>2020-09-06T09:43:25Z</time>
      </trkpt>
      <trkpt lat="37.1849065181" lon="-3.3449915797">
        <ele>1661.30</ele>
        <time>2020-09-06T09:43:26Z</time>
      </trkpt>
      <trkpt lat="37.1849760879" lon="-3.3449806832">
        <ele>1660.33</ele>
        <time>2020-09-06T09:43:27Z</time>
      </trkpt>
      <trkpt lat="37.1850440651" lon="-3.3449629135">
        <ele>1660.33</ele>
        <time>2020-09-06T09:43:28Z</time>
      </trkpt>
      <trkpt lat="37.1851106174" lon="-3.3449324034">
        <ele>1659.85</ele>
        <time>2020-09-06T09:43:29Z</time>
      </trkpt>
      <trkpt lat="37.1851701289" lon="-3.3448848780">
        <ele>1658.89</ele>
        <time>2020-09-06T09:43:30Z</time>
      </trkpt>
      <trkpt lat="37.1852201689" lon="-3.3448235225">
        <ele>1658.41</ele>
        <time>2020-09-06T09:43:31Z</time>
      </trkpt>
      <trkpt lat="37.1852657665" lon="-3.3447516058">
        <ele>1658.41</ele>
        <time>2020-09-06T09:43:32Z</time>
      </trkpt>
      <trkpt lat="37.1853160579" lon="-3.3446818683">
        <ele>1657.45</ele>
        <time>2020-09-06T09:43:33Z</time>
      </trkpt>
      <trkpt lat="37.1853773296" lon="-3.3446229436">
        <ele>1656.97</ele>
        <time>2020-09-06T09:43:34Z</time>
      </trkpt>
      <trkpt lat="37.1854467317" lon="-3.3445888292">
        <ele>1656.97</ele>
        <time>2020-09-06T09:43:35Z</time>
      </trkpt>
      <trkpt lat="37.1855199896" lon="-3.3445864823">
        <ele>1656.01</ele>
        <time>2020-09-06T09:43:36Z</time>
      </trkpt>
      <trkpt lat="37.1855935827" lon="-3.3446144778">
        <ele>1655.05</ele>
        <time>2020-09-06T09:43:37Z</time>
      </trkpt>
      <trkpt lat="37.1856675111" lon="-3.3446537890">
        <ele>1654.09</ele>
        <time>2020-09-06T09:43:38Z</time>
      </trkpt>
      <trkpt lat="37.1860832535" lon="-3.3448451478">
        <ele>1651.20</ele>
        <time>2020-09-06T09:43:43Z</time>
      </trkpt>
      <trkpt lat="37.1861652285" lon="-3.3448955230">
        <ele>1650.72</ele>
        <time>2020-09-06T09:43:44Z</time>
      </trkpt>
      <trkpt lat="37.1862394083" lon="-3.3449528553">
        <ele>1650.72</ele>
        <time>2020-09-06T09:43:45Z</time>
      </trkpt>
      <trkpt lat="37.1863109060" lon="-3.3450090978">
        <ele>1649.76</ele>
        <time>2020-09-06T09:43:46Z</time>
      </trkpt>
      <trkpt lat="37.1863854211" lon="-3.3450532705">
        <ele>1649.28</ele>
        <time>2020-09-06T09:43:47Z</time>
      </trkpt>
      <trkpt lat="37.1864702459" lon="-3.3450824395">
        <ele>1649.28</ele>
        <time>2020-09-06T09:43:48Z</time>
      </trkpt>
      <trkpt lat="37.1865553223" lon="-3.3450933360">
        <ele>1647.84</ele>
        <time>2020-09-06T09:43:49Z</time>
      </trkpt>
      <trkpt lat="37.1866432484" lon="-3.3450911567">
        <ele>1647.36</ele>
        <time>2020-09-06T09:43:50Z</time>
      </trkpt>
      <trkpt lat="37.1867337730" lon="-3.3450810146">
        <ele>1646.88</ele>
        <time>2020-09-06T09:43:51Z</time>
      </trkpt>
      <trkpt lat="37.1872179955" lon="-3.3450228442">
        <ele>1643.51</ele>
        <time>2020-09-06T09:43:56Z</time>
      </trkpt>
      <trkpt lat="37.1876173094" lon="-3.3450346626">
        <ele>1641.11</ele>
        <time>2020-09-06T09:44:00Z</time>
      </trkpt>
      <trkpt lat="37.1877133660" lon="-3.3450248558">
        <ele>1639.67</ele>
        <time>2020-09-06T09:44:01Z</time>
      </trkpt>
      <trkpt lat="37.1878106799" lon="-3.3449962735">
        <ele>1639.19</ele>
        <time>2020-09-06T09:44:02Z</time>
      </trkpt>
      <trkpt lat="37.1881810762" lon="-3.3448558766">
        <ele>1636.30</ele>
        <time>2020-09-06T09:44:06Z</time>
      </trkpt>
      <trkpt lat="37.1882752888" lon="-3.3448185772">
        <ele>1636.30</ele>
        <time>2020-09-06T09:44:07Z</time>
      </trkpt>
      <trkpt lat="37.1884468663" lon="-3.3447407931">
        <ele>1635.34</ele>
        <time>2020-09-06T09:44:09Z</time>
      </trkpt>
      <trkpt lat="37.1890167519" lon="-3.3444089536">
        <ele>1631.98</ele>
        <time>2020-09-06T09:44:16Z</time>
      </trkpt>
      <trkpt lat="37.1891002357" lon="-3.3443874121">
        <ele>1631.98</ele>
        <time>2020-09-06T09:44:17Z</time>
      </trkpt>
      <trkpt lat="37.1891801152" lon="-3.3443875797">
        <ele>1631.98</ele>
        <time>2020-09-06T09:44:18Z</time>
      </trkpt>
      <trkpt lat="37.1892515291" lon="-3.3444102947">
        <ele>1631.98</ele>
        <time>2020-09-06T09:44:19Z</time>
      </trkpt>
      <trkpt lat="37.1893198416" lon="-3.3444642741">
        <ele>1631.01</ele>
        <time>2020-09-06T09:44:20Z</time>
      </trkpt>
      <trkpt lat="37.1893709712" lon="-3.3445408009">
        <ele>1630.53</ele>
        <time>2020-09-06T09:44:21Z</time>
      </trkpt>
      <trkpt lat="37.1894046664" lon="-3.3446329180">
        <ele>1630.53</ele>
        <time>2020-09-06T09:44:22Z</time>
      </trkpt>
      <trkpt lat="37.1894257050" lon="-3.3447345905">
        <ele>1629.57</ele>
        <time>2020-09-06T09:44:23Z</time>
      </trkpt>
      <trkpt lat="37.1894355956" lon="-3.3448435552">
        <ele>1629.09</ele>
        <time>2020-09-06T09:44:24Z</time>
      </trkpt>
      <trkpt lat="37.1894413792" lon="-3.3449532744">
        <ele>1628.61</ele>
        <time>2020-09-06T09:44:25Z</time>
      </trkpt>
      <trkpt lat="37.1894612443" lon="-3.3450537734">
        <ele>1627.17</ele>
        <time>2020-09-06T09:44:26Z</time>
      </trkpt>
      <trkpt lat="37.1895113681" lon="-3.3451429568">
        <ele>1627.17</ele>
        <time>2020-09-06T09:44:27Z</time>
      </trkpt>
      <trkpt lat="37.1895842068" lon="-3.3452063240">
        <ele>1626.21</ele>
        <time>2020-09-06T09:44:28Z</time>
      </trkpt>
      <trkpt lat="37.1896681935" lon="-3.3452483173">
        <ele>1625.73</ele>
        <time>2020-09-06T09:44:29Z</time>
      </trkpt>
      <trkpt lat="37.1897510905" lon="-3.3452784922">
        <ele>1625.25</ele>
        <time>2020-09-06T09:44:30Z</time>
      </trkpt>
      <trkpt lat="37.1898894757" lon="-3.3453228325">
        <ele>1624.28</ele>
        <time>2020-09-06T09:44:32Z</time>
      </trkpt>
      <trkpt lat="37.1901489794" lon="-3.3454230800">
        <ele>1621.40</ele>
        <time>2020-09-06T09:44:36Z</time>
      </trkpt>
      <trkpt lat="37.1901975945" lon="-3.3454678394">
        <ele>1620.92</ele>
        <time>2020-09-06T09:44:37Z</time>
      </trkpt>
      <trkpt lat="37.1902352292" lon="-3.3455199748">
        <ele>1620.44</ele>
        <time>2020-09-06T09:44:38Z</time>
      </trkpt>
      <trkpt lat="37.1902633086" lon="-3.3455844317">
        <ele>1619.48</ele>
        <time>2020-09-06T09:44:39Z</time>
      </trkpt>
      <trkpt lat="37.1902829222" lon="-3.3456592821">
        <ele>1619.96</ele>
        <time>2020-09-06T09:44:40Z</time>
      </trkpt>
      <trkpt lat="37.1902975906" lon="-3.3457421791">
        <ele>1619.00</ele>
        <time>2020-09-06T09:44:41Z</time>
      </trkpt>
      <trkpt lat="37.1903945692" lon="-3.3462178521">
        <ele>1616.11</ele>
        <time>2020-09-06T09:44:46Z</time>
      </trkpt>
      <trkpt lat="37.1904345509" lon="-3.3463140763">
        <ele>1615.63</ele>
        <time>2020-09-06T09:44:47Z</time>
      </trkpt>
      <trkpt lat="37.1904839203" lon="-3.3464036789">
        <ele>1615.15</ele>
        <time>2020-09-06T09:44:48Z</time>
      </trkpt>
      <trkpt lat="37.1905445214" lon="-3.3464896772">
        <ele>1614.67</ele>
        <time>2020-09-06T09:44:49Z</time>
      </trkpt>
      <trkpt lat="37.1906069666" lon="-3.3465705626">
        <ele>1613.23</ele>
        <time>2020-09-06T09:44:50Z</time>
      </trkpt>
      <trkpt lat="37.1906697471" lon="-3.3466532920">
        <ele>1613.23</ele>
        <time>2020-09-06T09:44:51Z</time>
      </trkpt>
      <trkpt lat="37.1907813940" lon="-3.3468124643">
        <ele>1611.79</ele>
        <time>2020-09-06T09:44:53Z</time>
      </trkpt>
      <trkpt lat="37.1908284165" lon="-3.3468991332">
        <ele>1610.83</ele>
        <time>2020-09-06T09:44:54Z</time>
      </trkpt>
      <trkpt lat="37.1908628661" lon="-3.3469816949">
        <ele>1610.35</ele>
        <time>2020-09-06T09:44:55Z</time>
      </trkpt>
      <trkpt lat="37.1909005847" lon="-3.3470734768">
        <ele>1609.38</ele>
        <time>2020-09-06T09:44:56Z</time>
      </trkpt>
      <trkpt lat="37.1909450088" lon="-3.3471676894">
        <ele>1608.90</ele>
        <time>2020-09-06T09:44:57Z</time>
      </trkpt>
      <trkpt lat="37.1909953840" lon="-3.3472466469">
        <ele>1607.94</ele>
        <time>2020-09-06T09:44:58Z</time>
      </trkpt>
      <trkpt lat="37.1910548117" lon="-3.3473166358">
        <ele>1607.46</ele>
        <time>2020-09-06T09:44:59Z</time>
      </trkpt>
      <trkpt lat="37.1911180113" lon="-3.3473810926">
        <ele>1606.98</ele>
        <time>2020-09-06T09:45:00Z</time>
      </trkpt>
      <trkpt lat="37.1911859047" lon="-3.3474465553">
        <ele>1606.02</ele>
        <time>2020-09-06T09:45:01Z</time>
      </trkpt>
      <trkpt lat="37.1913148183" lon="-3.3475613873">
        <ele>1604.58</ele>
        <time>2020-09-06T09:45:03Z</time>
      </trkpt>
      <trkpt lat="37.1913693845" lon="-3.3475820068">
        <ele>1604.10</ele>
        <time>2020-09-06T09:45:04Z</time>
      </trkpt>
      <trkpt lat="37.1914273873" lon="-3.3475709427">
        <ele>1603.62</ele>
        <time>2020-09-06T09:45:05Z</time>
      </trkpt>
      <trkpt lat="37.1914801095" lon="-3.3475406840">
        <ele>1602.66</ele>
        <time>2020-09-06T09:45:06Z</time>
      </trkpt>
      <trkpt lat="37.1915287245" lon="-3.3474939968">
        <ele>1602.17</ele>
        <time>2020-09-06T09:45:07Z</time>
      </trkpt>
      <trkpt lat="37.1915726457" lon="-3.3474331442">
        <ele>1602.17</ele>
        <time>2020-09-06T09:45:08Z</time>
      </trkpt>
      <trkpt lat="37.1916189138" lon="-3.3473624010">
        <ele>1601.21</ele>
        <time>2020-09-06T09:45:09Z</time>
      </trkpt>
      <trkpt lat="37.1916742343" lon="-3.3472955134">
        <ele>1600.73</ele>
        <time>2020-09-06T09:45:10Z</time>
      </trkpt>
      <trkpt lat="37.1917357575" lon="-3.3472332358">
        <ele>1600.25</ele>
        <time>2020-09-06T09:45:11Z</time>
      </trkpt>
      <trkpt lat="37.1918586362" lon="-3.3471015561">
        <ele>1598.81</ele>
        <time>2020-09-06T09:45:13Z</time>
      </trkpt>
      <trkpt lat="37.1919235960" lon="-3.3470500074">
        <ele>1598.81</ele>
        <time>2020-09-06T09:45:14Z</time>
      </trkpt>
      <trkpt lat="37.1919913217" lon="-3.3470126241">
        <ele>1598.33</ele>
        <time>2020-09-06T09:45:15Z</time>
      </trkpt>
      <trkpt lat="37.1920670941" lon="-3.3469880652">
        <ele>1597.37</ele>
        <time>2020-09-06T09:45:16Z</time>
      </trkpt>
      <trkpt lat="37.1921468899" lon="-3.3469774202">
        <ele>1597.37</ele>
        <time>2020-09-06T09:45:17Z</time>
      </trkpt>
      <trkpt lat="37.1922285296" lon="-3.3469780907">
        <ele>1596.41</ele>
        <time>2020-09-06T09:45:18Z</time>
      </trkpt>
      <trkpt lat="37.1923107561" lon="-3.3469827008">
        <ele>1595.93</ele>
        <time>2020-09-06T09:45:19Z</time>
      </trkpt>
      <trkpt lat="37.1924794000" lon="-3.3469800185">
        <ele>1594.48</ele>
        <time>2020-09-06T09:45:21Z</time>
      </trkpt>
      <trkpt lat="37.1925560944" lon="-3.3469564654">
        <ele>1594.00</ele>
        <time>2020-09-06T09:45:22Z</time>
      </trkpt>
      <trkpt lat="37.1926285140" lon="-3.3469122089">
        <ele>1592.56</ele>
        <time>2020-09-06T09:45:23Z</time>
      </trkpt>
      <trkpt lat="37.1926914621" lon="-3.3468452375">
        <ele>1592.08</ele>
        <time>2020-09-06T09:45:24Z</time>
      </trkpt>
      <trkpt lat="37.1927355509" lon="-3.3467558026">
        <ele>1591.60</ele>
        <time>2020-09-06T09:45:25Z</time>
      </trkpt>
      <trkpt lat="37.1927620377" lon="-3.3466516156">
        <ele>1590.64</ele>
        <time>2020-09-06T09:45:26Z</time>
      </trkpt>
      <trkpt lat="37.1927756164" lon="-3.3465325925">
        <ele>1590.16</ele>
        <time>2020-09-06T09:45:27Z</time>
      </trkpt>
      <trkpt lat="37.1927702520" lon="-3.3464263100">
        <ele>1589.20</ele>
        <time>2020-09-06T09:45:28Z</time>
      </trkpt>
      <trkpt lat="37.1927478723" lon="-3.3463397250">
        <ele>1588.72</ele>
        <time>2020-09-06T09:45:29Z</time>
      </trkpt>
      <trkpt lat="37.1927057113" lon="-3.3462631144">
        <ele>1587.75</ele>
        <time>2020-09-06T09:45:30Z</time>
      </trkpt>
      <trkpt lat="37.1926430147" lon="-3.3461943828">
        <ele>1586.79</ele>
        <time>2020-09-06T09:45:31Z</time>
      </trkpt>
      <trkpt lat="37.1925786417" lon="-3.3461287525">
        <ele>1586.31</ele>
        <time>2020-09-06T09:45:32Z</time>
      </trkpt>
      <trkpt lat="37.1925191302" lon="-3.3460574225">
        <ele>1585.35</ele>
        <time>2020-09-06T09:45:33Z</time>
      </trkpt>
      <trkpt lat="37.1924644802" lon="-3.3459753636">
        <ele>1584.87</ele>
        <time>2020-09-06T09:45:34Z</time>
      </trkpt>
      <trkpt lat="37.1924174577" lon="-3.3458911255">
        <ele>1584.39</ele>
        <time>2020-09-06T09:45:35Z</time>
      </trkpt>
      <trkpt lat="37.1923822537" lon="-3.3457981702">
        <ele>1583.91</ele>
        <time>2020-09-06T09:45:36Z</time>
      </trkpt>
      <trkpt lat="37.1923552640" lon="-3.3456935640">
        <ele>1583.43</ele>
        <time>2020-09-06T09:45:37Z</time>
      </trkpt>
      <trkpt lat="37.1923198923" lon="-3.3455830067">
        <ele>1581.99</ele>
        <time>2020-09-06T09:45:38Z</time>
      </trkpt>
      <trkpt lat="37.1922777314" lon="-3.3454835974">
        <ele>1581.51</ele>
        <time>2020-09-06T09:45:39Z</time>
      </trkpt>
      <trkpt lat="37.1921867039" lon="-3.3452843595">
        <ele>1580.54</ele>
        <time>2020-09-06T09:45:41Z</time>
      </trkpt>
      <trkpt lat="37.1920473967" lon="-3.3449702896">
        <ele>1578.14</ele>
        <time>2020-09-06T09:45:44Z</time>
      </trkpt>
      <trkpt lat="37.1920206584" lon="-3.3448751550">
        <ele>1576.70</ele>
        <time>2020-09-06T09:45:45Z</time>
      </trkpt>
      <trkpt lat="37.1920144558" lon="-3.3447863068">
        <ele>1576.22</ele>
        <time>2020-09-06T09:45:46Z</time>
      </trkpt>
      <trkpt lat="37.1920378413" lon="-3.3447206765">
        <ele>1575.74</ele>
        <time>2020-09-06T09:45:47Z</time>
      </trkpt>
      <trkpt lat="37.1920900606" lon="-3.3446788508">
        <ele>1574.30</ele>
        <time>2020-09-06T09:45:48Z</time>
      </trkpt>
      <trkpt lat="37.1921597142" lon="-3.3446709719">
        <ele>1574.30</ele>
        <time>2020-09-06T09:45:49Z</time>
      </trkpt>
      <trkpt lat="37.1922343131" lon="-3.3446701337">
        <ele>1573.82</ele>
        <time>2020-09-06T09:45:50Z</time>
      </trkpt>
      <trkpt lat="37.1923106723" lon="-3.3446548786">
        <ele>1572.85</ele>
        <time>2020-09-06T09:45:51Z</time>
      </trkpt>
      <trkpt lat="37.1923882887" lon="-3.3446258772">
        <ele>1572.37</ele>
        <time>2020-09-06T09:45:52Z</time>
      </trkpt>
      <trkpt lat="37.1924642287" lon="-3.3445830457">
        <ele>1571.89</ele>
        <time>2020-09-06T09:45:53Z</time>
      </trkpt>
      <trkpt lat="37.1925419290" lon="-3.3445334248">
        <ele>1570.93</ele>
        <time>2020-09-06T09:45:54Z</time>
      </trkpt>
      <trkpt lat="37.1926218923" lon="-3.3444843069">
        <ele>1570.93</ele>
        <time>2020-09-06T09:45:55Z</time>
      </trkpt>
      <trkpt lat="37.1929611918" lon="-3.3442970552">
        <ele>1568.05</ele>
        <time>2020-09-06T09:45:59Z</time>
      </trkpt>
      <trkpt lat="37.1934110485" lon="-3.3441062830">
        <ele>1564.68</ele>
        <time>2020-09-06T09:46:04Z</time>
      </trkpt>
      <trkpt lat="37.1934955381" lon="-3.3440705761">
        <ele>1563.72</ele>
        <time>2020-09-06T09:46:05Z</time>
      </trkpt>
      <trkpt lat="37.1935718972" lon="-3.3440213744">
        <ele>1562.76</ele>
        <time>2020-09-06T09:46:06Z</time>
      </trkpt>
      <trkpt lat="37.1937065944" lon="-3.3438913710">
        <ele>1562.28</ele>
        <time>2020-09-06T09:46:08Z</time>
      </trkpt>
      <trkpt lat="37.1937542874" lon="-3.3438093960">
        <ele>1561.32</ele>
        <time>2020-09-06T09:46:09Z</time>
      </trkpt>
      <trkpt lat="37.1937925927" lon="-3.3437166084">
        <ele>1560.84</ele>
        <time>2020-09-06T09:46:10Z</time>
      </trkpt>
      <trkpt lat="37.1938560437" lon="-3.3435188793">
        <ele>1560.84</ele>
        <time>2020-09-06T09:46:12Z</time>
      </trkpt>
      <trkpt lat="37.1938727237" lon="-3.3434123453">
        <ele>1560.84</ele>
        <time>2020-09-06T09:46:13Z</time>
      </trkpt>
      <trkpt lat="37.1938727237" lon="-3.3433036320">
        <ele>1560.84</ele>
        <time>2020-09-06T09:46:14Z</time>
      </trkpt>
      <trkpt lat="37.1938567981" lon="-3.3431947511">
        <ele>1560.84</ele>
        <time>2020-09-06T09:46:15Z</time>
      </trkpt>
      <trkpt lat="37.1938232705" lon="-3.3430960961">
        <ele>1560.84</ele>
        <time>2020-09-06T09:46:16Z</time>
      </trkpt>
      <trkpt lat="37.1937816124" lon="-3.3430009615">
        <ele>1560.84</ele>
        <time>2020-09-06T09:46:17Z</time>
      </trkpt>
      <trkpt lat="37.1937407088" lon="-3.3429042343">
        <ele>1560.36</ele>
        <time>2020-09-06T09:46:18Z</time>
      </trkpt>
      <trkpt lat="37.1936620027" lon="-3.3427133784">
        <ele>1558.92</ele>
        <time>2020-09-06T09:46:20Z</time>
      </trkpt>
      <trkpt lat="37.1935977973" lon="-3.3426425513">
        <ele>1558.92</ele>
        <time>2020-09-06T09:46:21Z</time>
      </trkpt>
      <trkpt lat="37.1927918773" lon="-3.3418818936">
        <ele>1557.95</ele>
        <time>2020-09-06T09:46:33Z</time>
      </trkpt>
      <trkpt lat="37.1926853433" lon="-3.3417932130">
        <ele>1557.95</ele>
        <time>2020-09-06T09:46:35Z</time>
      </trkpt>
      <trkpt lat="37.1926303580" lon="-3.3417738508">
        <ele>1557.95</ele>
        <time>2020-09-06T09:46:36Z</time>
      </trkpt>
      <trkpt lat="37.1921665035" lon="-3.3417083882">
        <ele>1560.36</ele>
        <time>2020-09-06T09:46:45Z</time>
      </trkpt>
      <trkpt lat="37.1920725424" lon="-3.3416796383">
        <ele>1558.92</ele>
        <time>2020-09-06T09:46:47Z</time>
      </trkpt>
      <trkpt lat="37.1920297109" lon="-3.3416537382">
        <ele>1558.92</ele>
        <time>2020-09-06T09:46:48Z</time>
      </trkpt>
      <trkpt lat="37.1919916570" lon="-3.3416188695">
        <ele>1558.92</ele>
        <time>2020-09-06T09:46:49Z</time>
      </trkpt>
      <trkpt lat="37.1919581294" lon="-3.3415747806">
        <ele>1558.92</ele>
        <time>2020-09-06T09:46:50Z</time>
      </trkpt>
      <trkpt lat="37.1919326484" lon="-3.3415279258">
        <ele>1558.92</ele>
        <time>2020-09-06T09:46:51Z</time>
      </trkpt>
      <trkpt lat="37.1919135377" lon="-3.3414766286">
        <ele>1558.92</ele>
        <time>2020-09-06T09:46:52Z</time>
      </trkpt>
      <trkpt lat="37.1919010486" lon="-3.3414219785">
        <ele>1558.92</ele>
        <time>2020-09-06T09:46:53Z</time>
      </trkpt>
      <trkpt lat="37.1918888949" lon="-3.3413663227">
        <ele>1560.36</ele>
        <time>2020-09-06T09:46:54Z</time>
      </trkpt>
      <trkpt lat="37.1918734722" lon="-3.3413105831">
        <ele>1560.36</ele>
        <time>2020-09-06T09:46:55Z</time>
      </trkpt>
      <trkpt lat="37.1918523498" lon="-3.3412568551">
        <ele>1560.36</ele>
        <time>2020-09-06T09:46:56Z</time>
      </trkpt>
      <trkpt lat="37.1918247733" lon="-3.3412101679">
        <ele>1560.84</ele>
        <time>2020-09-06T09:46:57Z</time>
      </trkpt>
      <trkpt lat="37.1917926706" lon="-3.3411697671">
        <ele>1560.84</ele>
        <time>2020-09-06T09:46:58Z</time>
      </trkpt>
      <trkpt lat="37.1917572990" lon="-3.3411348984">
        <ele>1560.84</ele>
        <time>2020-09-06T09:46:59Z</time>
      </trkpt>
      <trkpt lat="37.1917205863" lon="-3.3411079925">
        <ele>1560.84</ele>
        <time>2020-09-06T09:47:00Z</time>
      </trkpt>
      <trkpt lat="37.1916837897" lon="-3.3410835173">
        <ele>1561.32</ele>
        <time>2020-09-06T09:47:01Z</time>
      </trkpt>
      <trkpt lat="37.1916475799" lon="-3.3410608862">
        <ele>1561.32</ele>
        <time>2020-09-06T09:47:02Z</time>
      </trkpt>
      <trkpt lat="37.1913118009" lon="-3.3408178110">
        <ele>1563.72</ele>
        <time>2020-09-06T09:47:13Z</time>
      </trkpt>
      <trkpt lat="37.1911044326" lon="-3.3405000530">
        <ele>1564.20</ele>
        <time>2020-09-06T09:47:21Z</time>
      </trkpt>
      <trkpt lat="37.1910747606" lon="-3.3404594846">
        <ele>1564.20</ele>
        <time>2020-09-06T09:47:22Z</time>
      </trkpt>
      <trkpt lat="37.1910452563" lon="-3.3404161502">
        <ele>1564.20</ele>
        <time>2020-09-06T09:47:23Z</time>
      </trkpt>
      <trkpt lat="37.1910176799" lon="-3.3403690439">
        <ele>1564.20</ele>
        <time>2020-09-06T09:47:24Z</time>
      </trkpt>
      <trkpt lat="37.1909968089" lon="-3.3403214347">
        <ele>1564.20</ele>
        <time>2020-09-06T09:47:25Z</time>
      </trkpt>
      <trkpt lat="37.1909844875" lon="-3.3402714785">
        <ele>1564.20</ele>
        <time>2020-09-06T09:47:26Z</time>
      </trkpt>
      <trkpt lat="37.1909869183" lon="-3.3402185049">
        <ele>1564.68</ele>
        <time>2020-09-06T09:47:27Z</time>
      </trkpt>
      <trkpt lat="37.1910062805" lon="-3.3401735779">
        <ele>1564.68</ele>
        <time>2020-09-06T09:47:28Z</time>
      </trkpt>
      <trkpt lat="37.1910383832" lon="-3.3401408046">
        <ele>1564.68</ele>
        <time>2020-09-06T09:47:29Z</time>
      </trkpt>
      <trkpt lat="37.1910780296" lon="-3.3401159104">
        <ele>1564.68</ele>
        <time>2020-09-06T09:47:30Z</time>
      </trkpt>
      <trkpt lat="37.1911214478" lon="-3.3401038405">
        <ele>1564.68</ele>
        <time>2020-09-06T09:47:31Z</time>
      </trkpt>
      <trkpt lat="37.1911727451" lon="-3.3401026670">
        <ele>1564.68</ele>
        <time>2020-09-06T09:47:32Z</time>
      </trkpt>
      <trkpt lat="37.1912266407" lon="-3.3401161619">
        <ele>1564.68</ele>
        <time>2020-09-06T09:47:33Z</time>
      </trkpt>
      <trkpt lat="37.1912827995" lon="-3.3401387930">
        <ele>1564.68</ele>
        <time>2020-09-06T09:47:34Z</time>
      </trkpt>
      <trkpt lat="37.1914003137" lon="-3.3401881624">
        <ele>1562.76</ele>
        <time>2020-09-06T09:47:36Z</time>
      </trkpt>
      <trkpt lat="37.1914637648" lon="-3.3402077761">
        <ele>1561.32</ele>
        <time>2020-09-06T09:47:37Z</time>
      </trkpt>
      <trkpt lat="37.1915334184" lon="-3.3402105421">
        <ele>1561.32</ele>
        <time>2020-09-06T09:47:38Z</time>
      </trkpt>
      <trkpt lat="37.1916060895" lon="-3.3401986398">
        <ele>1561.32</ele>
        <time>2020-09-06T09:47:39Z</time>
      </trkpt>
      <trkpt lat="37.1916863881" lon="-3.3401904255">
        <ele>1559.88</ele>
        <time>2020-09-06T09:47:40Z</time>
      </trkpt>
      <trkpt lat="37.1917676087" lon="-3.3401874080">
        <ele>1559.40</ele>
        <time>2020-09-06T09:47:41Z</time>
      </trkpt>
      <trkpt lat="37.1918522660" lon="-3.3401737455">
        <ele>1558.92</ele>
        <time>2020-09-06T09:47:42Z</time>
      </trkpt>
      <trkpt lat="37.1919384319" lon="-3.3401506115">
        <ele>1557.95</ele>
        <time>2020-09-06T09:47:43Z</time>
      </trkpt>
      <trkpt lat="37.1920199879" lon="-3.3401164971">
        <ele>1556.99</ele>
        <time>2020-09-06T09:47:44Z</time>
      </trkpt>
      <trkpt lat="37.1920977719" lon="-3.3400633559">
        <ele>1556.51</ele>
        <time>2020-09-06T09:47:45Z</time>
      </trkpt>
      <trkpt lat="37.1921725385" lon="-3.3399884216">
        <ele>1555.55</ele>
        <time>2020-09-06T09:47:46Z</time>
      </trkpt>
      <trkpt lat="37.1922400966" lon="-3.3399112243">
        <ele>1555.07</ele>
        <time>2020-09-06T09:47:47Z</time>
      </trkpt>
      <trkpt lat="37.1923123486" lon="-3.3398384694">
        <ele>1554.11</ele>
        <time>2020-09-06T09:47:48Z</time>
      </trkpt>
      <trkpt lat="37.1923925634" lon="-3.3397798799">
        <ele>1553.63</ele>
        <time>2020-09-06T09:47:49Z</time>
      </trkpt>
      <trkpt lat="37.1924780589" lon="-3.3397337794">
        <ele>1552.67</ele>
        <time>2020-09-06T09:47:50Z</time>
      </trkpt>
      <trkpt lat="37.1925659850" lon="-3.3396954741">
        <ele>1551.71</ele>
        <time>2020-09-06T09:47:51Z</time>
      </trkpt>
      <trkpt lat="37.1926581021" lon="-3.3396602701">
        <ele>1551.22</ele>
        <time>2020-09-06T09:47:52Z</time>
      </trkpt>
      <trkpt lat="37.1928462759" lon="-3.3395772893">
        <ele>1549.30</ele>
        <time>2020-09-06T09:47:54Z</time>
      </trkpt>
      <trkpt lat="37.1929358784" lon="-3.3395247348">
        <ele>1548.82</ele>
        <time>2020-09-06T09:47:55Z</time>
      </trkpt>
      <trkpt lat="37.1930216253" lon="-3.3394618705">
        <ele>1548.82</ele>
        <time>2020-09-06T09:47:56Z</time>
      </trkpt>
      <trkpt lat="37.1931024268" lon="-3.3393886965">
        <ele>1547.38</ele>
        <time>2020-09-06T09:47:57Z</time>
      </trkpt>
      <trkpt lat="37.1931744274" lon="-3.3393017761">
        <ele>1546.90</ele>
        <time>2020-09-06T09:47:58Z</time>
      </trkpt>
      <trkpt lat="37.1932398900" lon="-3.3391977567">
        <ele>1546.42</ele>
        <time>2020-09-06T09:47:59Z</time>
      </trkpt>
      <trkpt lat="37.1933031734" lon="-3.3390853554">
        <ele>1545.94</ele>
        <time>2020-09-06T09:48:00Z</time>
      </trkpt>
      <trkpt lat="37.1934563108" lon="-3.3388089202">
        <ele>1543.53</ele>
        <time>2020-09-06T09:48:03Z</time>
      </trkpt>
      <trkpt lat="37.1935016569" lon="-3.3387634065">
        <ele>1542.57</ele>
        <time>2020-09-06T09:48:04Z</time>
      </trkpt>
      <trkpt lat="37.1935500205" lon="-3.3387543540">
        <ele>1542.09</ele>
        <time>2020-09-06T09:48:05Z</time>
      </trkpt>
      <trkpt lat="37.1935926843" lon="-3.3387867082">
        <ele>1541.61</ele>
        <time>2020-09-06T09:48:06Z</time>
      </trkpt>
      <trkpt lat="37.1936158184" lon="-3.3388516679">
        <ele>1540.65</ele>
        <time>2020-09-06T09:48:07Z</time>
      </trkpt>
      <trkpt lat="37.1936103702" lon="-3.3389266022">
        <ele>1540.65</ele>
        <time>2020-09-06T09:48:08Z</time>
      </trkpt>
      <trkpt lat="37.1935865656" lon="-3.3390017878">
        <ele>1540.17</ele>
        <time>2020-09-06T09:48:09Z</time>
      </trkpt>
      <trkpt lat="37.1935517807" lon="-3.3390716091">
        <ele>1540.17</ele>
        <time>2020-09-06T09:48:10Z</time>
      </trkpt>
      <trkpt lat="37.1935132239" lon="-3.3391430229">
        <ele>1539.69</ele>
        <time>2020-09-06T09:48:11Z</time>
      </trkpt>
      <trkpt lat="37.1934796963" lon="-3.3392184600">
        <ele>1539.21</ele>
        <time>2020-09-06T09:48:12Z</time>
      </trkpt>
      <trkpt lat="37.1934542991" lon="-3.3393001836">
        <ele>1539.21</ele>
        <time>2020-09-06T09:48:13Z</time>
      </trkpt>
      <trkpt lat="37.1934429836" lon="-3.3393928874">
        <ele>1539.21</ele>
        <time>2020-09-06T09:48:14Z</time>
      </trkpt>
      <trkpt lat="37.1934411395" lon="-3.3394834958">
        <ele>1538.73</ele>
        <time>2020-09-06T09:48:15Z</time>
      </trkpt>
      <trkpt lat="37.1934344340" lon="-3.3395744395">
        <ele>1538.73</ele>
        <time>2020-09-06T09:48:16Z</time>
      </trkpt>
      <trkpt lat="37.1934168320" lon="-3.3396611083">
        <ele>1538.25</ele>
        <time>2020-09-06T09:48:17Z</time>
      </trkpt>
      <trkpt lat="37.1933859028" lon="-3.3397476096">
        <ele>1538.25</ele>
        <time>2020-09-06T09:48:18Z</time>
      </trkpt>
      <trkpt lat="37.1933456697" lon="-3.3398311771">
        <ele>1537.77</ele>
        <time>2020-09-06T09:48:19Z</time>
      </trkpt>
      <trkpt lat="37.1933040954" lon="-3.3399144933">
        <ele>1536.80</ele>
        <time>2020-09-06T09:48:20Z</time>
      </trkpt>
      <trkpt lat="37.1932702325" lon="-3.3400047664">
        <ele>1536.80</ele>
        <time>2020-09-06T09:48:21Z</time>
      </trkpt>
      <trkpt lat="37.1932589170" lon="-3.3400837239">
        <ele>1535.36</ele>
        <time>2020-09-06T09:48:22Z</time>
      </trkpt>
      <trkpt lat="37.1932760160" lon="-3.3401481807">
        <ele>1534.88</ele>
        <time>2020-09-06T09:48:23Z</time>
      </trkpt>
      <trkpt lat="37.1933221165" lon="-3.3401851449">
        <ele>1533.92</ele>
        <time>2020-09-06T09:48:24Z</time>
      </trkpt>
      <trkpt lat="37.1933864057" lon="-3.3401874918">
        <ele>1533.92</ele>
        <time>2020-09-06T09:48:25Z</time>
      </trkpt>
      <trkpt lat="37.1934524551" lon="-3.3401533775">
        <ele>1533.92</ele>
        <time>2020-09-06T09:48:26Z</time>
      </trkpt>
      <trkpt lat="37.1935103741" lon="-3.3400899265">
        <ele>1532.96</ele>
        <time>2020-09-06T09:48:27Z</time>
      </trkpt>
      <trkpt lat="37.1935549658" lon="-3.3400071133">
        <ele>1532.48</ele>
        <time>2020-09-06T09:48:28Z</time>
      </trkpt>
      <trkpt lat="37.1935992222" lon="-3.3399163373">
        <ele>1532.00</ele>
        <time>2020-09-06T09:48:29Z</time>
      </trkpt>
      <trkpt lat="37.1936560515" lon="-3.3398481086">
        <ele>1531.04</ele>
        <time>2020-09-06T09:48:30Z</time>
      </trkpt>
      <trkpt lat="37.1937295608" lon="-3.3398034330">
        <ele>1531.04</ele>
        <time>2020-09-06T09:48:31Z</time>
      </trkpt>
      <trkpt lat="37.1938113682" lon="-3.3397792932">
        <ele>1530.56</ele>
        <time>2020-09-06T09:48:32Z</time>
      </trkpt>
      <trkpt lat="37.1939012222" lon="-3.3397585060">
        <ele>1529.59</ele>
        <time>2020-09-06T09:48:33Z</time>
      </trkpt>
      <trkpt lat="37.1939931717" lon="-3.3397244755">
        <ele>1528.63</ele>
        <time>2020-09-06T09:48:34Z</time>
      </trkpt>
      <trkpt lat="37.1940824389" lon="-3.3396807220">
        <ele>1528.15</ele>
        <time>2020-09-06T09:48:35Z</time>
      </trkpt>
      <trkpt lat="37.1943275258" lon="-3.3395327814">
        <ele>1524.31</ele>
        <time>2020-09-06T09:48:38Z</time>
      </trkpt>
      <trkpt lat="37.1943852771" lon="-3.3394610323">
        <ele>1523.35</ele>
        <time>2020-09-06T09:48:39Z</time>
      </trkpt>
      <trkpt lat="37.1944216546" lon="-3.3393670712">
        <ele>1522.87</ele>
        <time>2020-09-06T09:48:40Z</time>
      </trkpt>
      <trkpt lat="37.1944412682" lon="-3.3392576035">
        <ele>1522.39</ele>
        <time>2020-09-06T09:48:41Z</time>
      </trkpt>
      <trkpt lat="37.1944443695" lon="-3.3391427714">
        <ele>1522.39</ele>
        <time>2020-09-06T09:48:42Z</time>
      </trkpt>
      <trkpt lat="37.1944452915" lon="-3.3390304539">
        <ele>1520.94</ele>
        <time>2020-09-06T09:48:43Z</time>
      </trkpt>
      <trkpt lat="37.1944669168" lon="-3.3389257640">
        <ele>1520.46</ele>
        <time>2020-09-06T09:48:44Z</time>
      </trkpt>
      <trkpt lat="37.1945127659" lon="-3.3388472255">
        <ele>1519.98</ele>
        <time>2020-09-06T09:48:45Z</time>
      </trkpt>
      <trkpt lat="37.1945771389" lon="-3.3387977723">
        <ele>1519.98</ele>
        <time>2020-09-06T09:48:46Z</time>
      </trkpt>
      <trkpt lat="37.1946590301" lon="-3.3387771528">
        <ele>1519.50</ele>
        <time>2020-09-06T09:48:47Z</time>
      </trkpt>
      <trkpt lat="37.1947488841" lon="-3.3387773205">
        <ele>1518.54</ele>
        <time>2020-09-06T09:48:48Z</time>
      </trkpt>
      <trkpt lat="37.1948404144" lon="-3.3387681004">
        <ele>1518.06</ele>
        <time>2020-09-06T09:48:49Z</time>
      </trkpt>
      <trkpt lat="37.1949202940" lon="-3.3387269452">
        <ele>1517.10</ele>
        <time>2020-09-06T09:48:50Z</time>
      </trkpt>
      <trkpt lat="37.1949803084" lon="-3.3386522625">
        <ele>1516.14</ele>
        <time>2020-09-06T09:48:51Z</time>
      </trkpt>
      <trkpt lat="37.1950246487" lon="-3.3385525178">
        <ele>1515.18</ele>
        <time>2020-09-06T09:48:52Z</time>
      </trkpt>
      <trkpt lat="37.1950564999" lon="-3.3384532761">
        <ele>1515.18</ele>
        <time>2020-09-06T09:48:53Z</time>
      </trkpt>
      <trkpt lat="37.1951362118" lon="-3.3382367715">
        <ele>1513.73</ele>
        <time>2020-09-06T09:48:55Z</time>
      </trkpt>
      <trkpt lat="37.1953226253" lon="-3.3377961349">
        <ele>1509.89</ele>
        <time>2020-09-06T09:48:59Z</time>
      </trkpt>
      <trkpt lat="37.1953452565" lon="-3.3376841526">
        <ele>1508.93</ele>
        <time>2020-09-06T09:49:00Z</time>
      </trkpt>
      <trkpt lat="37.1953488607" lon="-3.3375768643">
        <ele>1507.97</ele>
        <time>2020-09-06T09:49:01Z</time>
      </trkpt>
      <trkpt lat="37.1953397244" lon="-3.3374715876">
        <ele>1507.00</ele>
        <time>2020-09-06T09:49:02Z</time>
      </trkpt>
      <trkpt lat="37.1953195240" lon="-3.3373733517">
        <ele>1506.52</ele>
        <time>2020-09-06T09:49:03Z</time>
      </trkpt>
      <trkpt lat="37.1952937916" lon="-3.3372772112">
        <ele>1506.52</ele>
        <time>2020-09-06T09:49:04Z</time>
      </trkpt>
      <trkpt lat="37.1952620242" lon="-3.3371799812">
        <ele>1505.56</ele>
        <time>2020-09-06T09:49:05Z</time>
      </trkpt>
      <trkpt lat="37.1951170173" lon="-3.3368247561">
        <ele>1502.20</ele>
        <time>2020-09-06T09:49:09Z</time>
      </trkpt>
      <trkpt lat="37.1950919554" lon="-3.3367421106">
        <ele>1501.72</ele>
        <time>2020-09-06T09:49:10Z</time>
      </trkpt>
      <trkpt lat="37.1950825676" lon="-3.3366501611">
        <ele>1501.24</ele>
        <time>2020-09-06T09:49:11Z</time>
      </trkpt>
      <trkpt lat="37.1950921230" lon="-3.3365700301">
        <ele>1501.24</ele>
        <time>2020-09-06T09:49:12Z</time>
      </trkpt>
      <trkpt lat="37.1951230522" lon="-3.3364895638">
        <ele>1500.76</ele>
        <time>2020-09-06T09:49:13Z</time>
      </trkpt>
      <trkpt lat="37.1951689012" lon="-3.3364203293">
        <ele>1500.76</ele>
        <time>2020-09-06T09:49:14Z</time>
      </trkpt>
      <trkpt lat="37.1952281613" lon="-3.3363646735">
        <ele>1499.79</ele>
        <time>2020-09-06T09:49:15Z</time>
      </trkpt>
      <trkpt lat="37.1952941269" lon="-3.3363238536">
        <ele>1499.79</ele>
        <time>2020-09-06T09:49:16Z</time>
      </trkpt>
      <trkpt lat="37.1953581646" lon="-3.3362775855">
        <ele>1498.83</ele>
        <time>2020-09-06T09:49:17Z</time>
      </trkpt>
      <trkpt lat="37.1954196878" lon="-3.3362208400">
        <ele>1497.87</ele>
        <time>2020-09-06T09:49:18Z</time>
      </trkpt>
      <trkpt lat="37.1954774391" lon="-3.3361558802">
        <ele>1497.39</ele>
        <time>2020-09-06T09:49:19Z</time>
      </trkpt>
      <trkpt lat="37.1955294907" lon="-3.3360872325">
        <ele>1496.91</ele>
        <time>2020-09-06T09:49:20Z</time>
      </trkpt>
      <trkpt lat="37.1956486814" lon="-3.3359311614">
        <ele>1495.47</ele>
        <time>2020-09-06T09:49:23Z</time>
      </trkpt>
      <trkpt lat="37.1956958715" lon="-3.3359072730">
        <ele>1495.47</ele>
        <time>2020-09-06T09:49:24Z</time>
      </trkpt>
      <trkpt lat="37.1957450733" lon="-3.3359136432">
        <ele>1494.99</ele>
        <time>2020-09-06T09:49:25Z</time>
      </trkpt>
      <trkpt lat="37.1957919281" lon="-3.3359394595">
        <ele>1494.51</ele>
        <time>2020-09-06T09:49:26Z</time>
      </trkpt>
      <trkpt lat="37.1958361007" lon="-3.3359680418">
        <ele>1494.51</ele>
        <time>2020-09-06T09:49:27Z</time>
      </trkpt>
      <trkpt lat="37.1958705503" lon="-3.3360036649">
        <ele>1494.51</ele>
        <time>2020-09-06T09:49:28Z</time>
      </trkpt>
      <trkpt lat="37.1958873980" lon="-3.3360532019">
        <ele>1494.51</ele>
        <time>2020-09-06T09:49:29Z</time>
      </trkpt>
      <trkpt lat="37.1958831232" lon="-3.3361107018">
        <ele>1494.51</ele>
        <time>2020-09-06T09:49:30Z</time>
      </trkpt>
      <trkpt lat="37.1958692092" lon="-3.3361591492">
        <ele>1494.51</ele>
        <time>2020-09-06T09:49:31Z</time>
      </trkpt>
      <trkpt lat="37.1958508529" lon="-3.3362013102">
        <ele>1494.51</ele>
        <time>2020-09-06T09:49:32Z</time>
      </trkpt>
      <trkpt lat="37.1958275512" lon="-3.3362483326">
        <ele>1494.51</ele>
        <time>2020-09-06T09:49:33Z</time>
      </trkpt>
      <trkpt lat="37.1957092825" lon="-3.3367522527">
        <ele>1498.35</ele>
        <time>2020-09-06T09:49:45Z</time>
      </trkpt>
      <trkpt lat="37.1958978754" lon="-3.3371352218">
        <ele>1500.27</ele>
        <time>2020-09-06T09:49:57Z</time>
      </trkpt>
      <trkpt lat="37.1961125359" lon="-3.3376740944">
        <ele>1503.16</ele>
        <time>2020-09-06T09:50:13Z</time>
      </trkpt>
      <trkpt lat="37.1961605642" lon="-3.3381063491">
        <ele>1505.08</ele>
        <time>2020-09-06T09:50:25Z</time>
      </trkpt>
      <trkpt lat="37.1960750688" lon="-3.3385989536">
        <ele>1507.00</ele>
        <time>2020-09-06T09:50:38Z</time>
      </trkpt>
      <trkpt lat="37.1961784177" lon="-3.3390489779">
        <ele>1509.89</ele>
        <time>2020-09-06T09:50:51Z</time>
      </trkpt>
      <trkpt lat="37.1961789206" lon="-3.3396849129">
        <ele>1512.29</ele>
        <time>2020-09-06T09:51:07Z</time>
      </trkpt>
      <trkpt lat="37.1960753202" lon="-3.3403041679">
        <ele>1513.73</ele>
        <time>2020-09-06T09:51:22Z</time>
      </trkpt>
      <trkpt lat="37.1960225981" lon="-3.3406749833">
        <ele>1514.21</ele>
        <time>2020-09-06T09:51:29Z</time>
      </trkpt>
      <trkpt lat="37.1960136294" lon="-3.3407208323">
        <ele>1514.21</ele>
        <time>2020-09-06T09:51:30Z</time>
      </trkpt>
      <trkpt lat="37.1960528567" lon="-3.3412208129">
        <ele>1516.14</ele>
        <time>2020-09-06T09:51:42Z</time>
      </trkpt>
      <trkpt lat="37.1961391065" lon="-3.3421062771">
        <ele>1515.18</ele>
        <time>2020-09-06T09:51:56Z</time>
      </trkpt>
      <trkpt lat="37.1961608995" lon="-3.3423746657">
        <ele>1515.18</ele>
        <time>2020-09-06T09:52:00Z</time>
      </trkpt>
      <trkpt lat="37.1961758193" lon="-3.3424400445">
        <ele>1515.18</ele>
        <time>2020-09-06T09:52:01Z</time>
      </trkpt>
      <trkpt lat="37.1961989533" lon="-3.3424913418">
        <ele>1515.18</ele>
        <time>2020-09-06T09:52:02Z</time>
      </trkpt>
      <trkpt lat="37.1962328162" lon="-3.3425344247">
        <ele>1515.18</ele>
        <time>2020-09-06T09:52:03Z</time>
      </trkpt>
      <trkpt lat="37.1962725464" lon="-3.3425644320">
        <ele>1516.14</ele>
        <time>2020-09-06T09:52:04Z</time>
      </trkpt>
      <trkpt lat="37.1963133663" lon="-3.3425802737">
        <ele>1516.62</ele>
        <time>2020-09-06T09:52:05Z</time>
      </trkpt>
      <trkpt lat="37.1963537671" lon="-3.3425893262">
        <ele>1516.62</ele>
        <time>2020-09-06T09:52:06Z</time>
      </trkpt>
      <trkpt lat="37.1964951698" lon="-3.3426635060">
        <ele>1517.58</ele>
        <time>2020-09-06T09:52:10Z</time>
      </trkpt>
      <trkpt lat="37.1965118498" lon="-3.3427101094">
        <ele>1517.58</ele>
        <time>2020-09-06T09:52:11Z</time>
      </trkpt>
      <trkpt lat="37.1965146996" lon="-3.3427661844">
        <ele>1518.06</ele>
        <time>2020-09-06T09:52:12Z</time>
      </trkpt>
      <trkpt lat="37.1965089999" lon="-3.3428262826">
        <ele>1518.06</ele>
        <time>2020-09-06T09:52:13Z</time>
      </trkpt>
      <trkpt lat="37.1964971814" lon="-3.3428871352">
        <ele>1518.54</ele>
        <time>2020-09-06T09:52:14Z</time>
      </trkpt>
      <trkpt lat="37.1964807529" lon="-3.3429470658">
        <ele>1518.54</ele>
        <time>2020-09-06T09:52:15Z</time>
      </trkpt>
      <trkpt lat="37.1964601334" lon="-3.3430058230">
        <ele>1518.54</ele>
        <time>2020-09-06T09:52:16Z</time>
      </trkpt>
      <trkpt lat="37.1964437049" lon="-3.3430650830">
        <ele>1518.54</ele>
        <time>2020-09-06T09:52:17Z</time>
      </trkpt>
      <trkpt lat="37.1964336466" lon="-3.3431270253">
        <ele>1518.54</ele>
        <time>2020-09-06T09:52:18Z</time>
      </trkpt>
      <trkpt lat="37.1964211576" lon="-3.3431898896">
        <ele>1518.54</ele>
        <time>2020-09-06T09:52:19Z</time>
      </trkpt>
      <trkpt lat="37.1964030527" lon="-3.3432511613">
        <ele>1518.54</ele>
        <time>2020-09-06T09:52:20Z</time>
      </trkpt>
      <trkpt lat="37.1963772364" lon="-3.3433055598">
        <ele>1518.06</ele>
        <time>2020-09-06T09:52:21Z</time>
      </trkpt>
      <trkpt lat="37.1963441279" lon="-3.3433545940">
        <ele>1518.54</ele>
        <time>2020-09-06T09:52:22Z</time>
      </trkpt>
      <trkpt lat="37.1963101812" lon="-3.3433980122">
        <ele>1518.06</ele>
        <time>2020-09-06T09:52:23Z</time>
      </trkpt>
      <trkpt lat="37.1962769050" lon="-3.3434359822">
        <ele>1518.54</ele>
        <time>2020-09-06T09:52:24Z</time>
      </trkpt>
      <trkpt lat="37.1962471493" lon="-3.3434737846">
        <ele>1518.54</ele>
        <time>2020-09-06T09:52:25Z</time>
      </trkpt>
      <trkpt lat="37.1962243505" lon="-3.3435180411">
        <ele>1518.54</ele>
        <time>2020-09-06T09:52:26Z</time>
      </trkpt>
      <trkpt lat="37.1962096822" lon="-3.3435667399">
        <ele>1519.50</ele>
        <time>2020-09-06T09:52:27Z</time>
      </trkpt>
      <trkpt lat="37.1962043177" lon="-3.3436206356">
        <ele>1519.50</ele>
        <time>2020-09-06T09:52:28Z</time>
      </trkpt>
      <trkpt lat="37.1962054074" lon="-3.3436778840">
        <ele>1519.50</ele>
        <time>2020-09-06T09:52:29Z</time>
      </trkpt>
      <trkpt lat="37.1962122805" lon="-3.3437340427">
        <ele>1519.50</ele>
        <time>2020-09-06T09:52:30Z</time>
      </trkpt>
      <trkpt lat="37.1962274518" lon="-3.3437891956">
        <ele>1519.50</ele>
        <time>2020-09-06T09:52:31Z</time>
      </trkpt>
      <trkpt lat="37.1962474007" lon="-3.3438392356">
        <ele>1519.50</ele>
        <time>2020-09-06T09:52:32Z</time>
      </trkpt>
      <trkpt lat="37.1962713730" lon="-3.3438841626">
        <ele>1519.98</ele>
        <time>2020-09-06T09:52:33Z</time>
      </trkpt>
      <trkpt lat="37.1963020507" lon="-3.3439249825">
        <ele>1519.98</ele>
        <time>2020-09-06T09:52:34Z</time>
      </trkpt>
      <trkpt lat="37.1963380929" lon="-3.3439628687">
        <ele>1519.98</ele>
        <time>2020-09-06T09:52:35Z</time>
      </trkpt>
      <trkpt lat="37.1963736322" lon="-3.3439937141">
        <ele>1519.98</ele>
        <time>2020-09-06T09:52:36Z</time>
      </trkpt>
      <trkpt lat="37.1964134462" lon="-3.3440210391">
        <ele>1519.98</ele>
        <time>2020-09-06T09:52:37Z</time>
      </trkpt>
      <trkpt lat="37.1964555234" lon="-3.3440412395">
        <ele>1519.98</ele>
        <time>2020-09-06T09:52:38Z</time>
      </trkpt>
      <trkpt lat="37.1964986064" lon="-3.3440554887">
        <ele>1519.98</ele>
        <time>2020-09-06T09:52:39Z</time>
      </trkpt>
      <trkpt lat="37.1965468023" lon="-3.3440647088">
        <ele>1519.98</ele>
        <time>2020-09-06T09:52:40Z</time>
      </trkpt>
      <trkpt lat="37.1965918969" lon="-3.3440660499">
        <ele>1519.98</ele>
        <time>2020-09-06T09:52:41Z</time>
      </trkpt>
      <trkpt lat="37.1966371592" lon="-3.3440668881">
        <ele>1519.98</ele>
        <time>2020-09-06T09:52:42Z</time>
      </trkpt>
      <trkpt lat="37.1966834273" lon="-3.3440764435">
        <ele>1519.98</ele>
        <time>2020-09-06T09:52:43Z</time>
      </trkpt>
      <trkpt lat="37.1967268456" lon="-3.3441025112">
        <ele>1519.98</ele>
        <time>2020-09-06T09:52:44Z</time>
      </trkpt>
      <trkpt lat="37.1967655700" lon="-3.3441424090">
        <ele>1520.46</ele>
        <time>2020-09-06T09:52:45Z</time>
      </trkpt>
      <trkpt lat="37.1968061384" lon="-3.3441821393">
        <ele>1520.46</ele>
        <time>2020-09-06T09:52:46Z</time>
      </trkpt>
      <trkpt lat="37.1968492214" lon="-3.3442247193">
        <ele>1520.46</ele>
        <time>2020-09-06T09:52:47Z</time>
      </trkpt>
      <trkpt lat="37.1970149316" lon="-3.3443861548">
        <ele>1520.94</ele>
        <time>2020-09-06T09:52:51Z</time>
      </trkpt>
      <trkpt lat="37.1970505547" lon="-3.3444380388">
        <ele>1520.94</ele>
        <time>2020-09-06T09:52:52Z</time>
      </trkpt>
      <trkpt lat="37.1972295921" lon="-3.3447304834">
        <ele>1520.94</ele>
        <time>2020-09-06T09:52:57Z</time>
      </trkpt>
      <trkpt lat="37.1972915344" lon="-3.3448504284">
        <ele>1520.94</ele>
        <time>2020-09-06T09:52:59Z</time>
      </trkpt>
      <trkpt lat="37.1973888483" lon="-3.3450144622">
        <ele>1520.94</ele>
        <time>2020-09-06T09:53:02Z</time>
      </trkpt>
      <trkpt lat="37.1974087134" lon="-3.3450726327">
        <ele>1520.94</ele>
        <time>2020-09-06T09:53:03Z</time>
      </trkpt>
      <trkpt lat="37.1974485274" lon="-3.3451923262">
        <ele>1520.94</ele>
        <time>2020-09-06T09:53:05Z</time>
      </trkpt>
      <trkpt lat="37.1974735893" lon="-3.3452499937">
        <ele>1520.94</ele>
        <time>2020-09-06T09:53:06Z</time>
      </trkpt>
      <trkpt lat="37.1974864975" lon="-3.3453136124">
        <ele>1520.94</ele>
        <time>2020-09-06T09:53:07Z</time>
      </trkpt>
      <trkpt lat="37.1974773612" lon="-3.3453736268">
        <ele>1520.94</ele>
        <time>2020-09-06T09:53:08Z</time>
      </trkpt>
      <trkpt lat="37.1974528860" lon="-3.3454247564">
        <ele>1520.94</ele>
        <time>2020-09-06T09:53:09Z</time>
      </trkpt>
      <trkpt lat="37.1974239685" lon="-3.3454752155">
        <ele>1520.94</ele>
        <time>2020-09-06T09:53:10Z</time>
      </trkpt>
      <trkpt lat="37.1973948833" lon="-3.3455324639">
        <ele>1520.94</ele>
        <time>2020-09-06T09:53:11Z</time>
      </trkpt>
      <trkpt lat="37.1973668877" lon="-3.3455961663">
        <ele>1520.94</ele>
        <time>2020-09-06T09:53:12Z</time>
      </trkpt>
      <trkpt lat="37.1973421611" lon="-3.3456653170">
        <ele>1520.94</ele>
        <time>2020-09-06T09:53:13Z</time>
      </trkpt>
      <trkpt lat="37.1973210387" lon="-3.3457376529">
        <ele>1520.94</ele>
        <time>2020-09-06T09:53:14Z</time>
      </trkpt>
      <trkpt lat="37.1973008383" lon="-3.3458203822">
        <ele>1520.94</ele>
        <time>2020-09-06T09:53:15Z</time>
      </trkpt>
      <trkpt lat="37.1972839907" lon="-3.3458979987">
        <ele>1520.94</ele>
        <time>2020-09-06T09:53:16Z</time>
      </trkpt>
      <trkpt lat="37.1972575877" lon="-3.3461255673">
        <ele>1520.94</ele>
        <time>2020-09-06T09:53:19Z</time>
      </trkpt>
      <trkpt lat="37.1972617786" lon="-3.3462032676">
        <ele>1519.50</ele>
        <time>2020-09-06T09:53:20Z</time>
      </trkpt>
      <trkpt lat="37.1972751059" lon="-3.3462784532">
        <ele>1519.50</ele>
        <time>2020-09-06T09:53:21Z</time>
      </trkpt>
      <trkpt lat="37.1973508783" lon="-3.3465888351">
        <ele>1519.50</ele>
        <time>2020-09-06T09:53:25Z</time>
      </trkpt>
      <trkpt lat="37.1975086257" lon="-3.3469481673">
        <ele>1519.50</ele>
        <time>2020-09-06T09:53:30Z</time>
      </trkpt>
      <trkpt lat="37.1975734178" lon="-3.3470811043">
        <ele>1519.50</ele>
        <time>2020-09-06T09:53:32Z</time>
      </trkpt>
      <trkpt lat="37.1975868288" lon="-3.3471526857">
        <ele>1519.50</ele>
        <time>2020-09-06T09:53:33Z</time>
      </trkpt>
      <trkpt lat="37.1975864097" lon="-3.3472303022">
        <ele>1519.50</ele>
        <time>2020-09-06T09:53:34Z</time>
      </trkpt>
      <trkpt lat="37.1975771058" lon="-3.3473135345">
        <ele>1519.50</ele>
        <time>2020-09-06T09:53:35Z</time>
      </trkpt>
      <trkpt lat="37.1975664608" lon="-3.3473883849">
        <ele>1519.50</ele>
        <time>2020-09-06T09:53:36Z</time>
      </trkpt>
      <trkpt lat="37.1975296643" lon="-3.3475465514">
        <ele>1519.50</ele>
        <time>2020-09-06T09:53:38Z</time>
      </trkpt>
      <trkpt lat="37.1975125652" lon="-3.3476242516">
        <ele>1519.50</ele>
        <time>2020-09-06T09:53:39Z</time>
      </trkpt>
      <trkpt lat="37.1975029260" lon="-3.3477051370">
        <ele>1519.50</ele>
        <time>2020-09-06T09:53:40Z</time>
      </trkpt>
      <trkpt lat="37.1975023393" lon="-3.3477866929">
        <ele>1519.02</ele>
        <time>2020-09-06T09:53:41Z</time>
      </trkpt>
      <trkpt lat="37.1975084580" lon="-3.3478675783">
        <ele>1519.02</ele>
        <time>2020-09-06T09:53:42Z</time>
      </trkpt>
      <trkpt lat="37.1975206956" lon="-3.3479487151">
        <ele>1519.02</ele>
        <time>2020-09-06T09:53:43Z</time>
      </trkpt>
      <trkpt lat="37.1975362021" lon="-3.3480281755">
        <ele>1519.02</ele>
        <time>2020-09-06T09:53:44Z</time>
      </trkpt>
      <trkpt lat="37.1975563187" lon="-3.3481105696">
        <ele>1519.02</ele>
        <time>2020-09-06T09:53:45Z</time>
      </trkpt>
      <trkpt lat="37.1975807101" lon="-3.3481860906">
        <ele>1519.02</ele>
        <time>2020-09-06T09:53:46Z</time>
      </trkpt>
      <trkpt lat="37.1976088732" lon="-3.3482590131">
        <ele>1519.02</ele>
        <time>2020-09-06T09:53:47Z</time>
      </trkpt>
      <trkpt lat="37.1976399701" lon="-3.3483274933">
        <ele>1519.02</ele>
        <time>2020-09-06T09:53:48Z</time>
      </trkpt>
      <trkpt lat="37.1976734139" lon="-3.3483926207">
        <ele>1519.02</ele>
        <time>2020-09-06T09:53:49Z</time>
      </trkpt>
      <trkpt lat="37.1977454145" lon="-3.3485268988">
        <ele>1519.02</ele>
        <time>2020-09-06T09:53:51Z</time>
      </trkpt>
      <trkpt lat="37.1977858990" lon="-3.3485954627">
        <ele>1519.02</ele>
        <time>2020-09-06T09:53:52Z</time>
      </trkpt>
      <trkpt lat="37.1978180856" lon="-3.3486648649">
        <ele>1519.02</ele>
        <time>2020-09-06T09:53:53Z</time>
      </trkpt>
      <trkpt lat="37.1978488471" lon="-3.3487317525">
        <ele>1519.02</ele>
        <time>2020-09-06T09:53:54Z</time>
      </trkpt>
      <trkpt lat="37.1978825424" lon="-3.3487963770">
        <ele>1519.02</ele>
        <time>2020-09-06T09:53:55Z</time>
      </trkpt>
      <trkpt lat="37.1979131363" lon="-3.3488625102">
        <ele>1519.02</ele>
        <time>2020-09-06T09:53:56Z</time>
      </trkpt>
      <trkpt lat="37.1979464125" lon="-3.3489361871">
        <ele>1519.02</ele>
        <time>2020-09-06T09:53:57Z</time>
      </trkpt>
      <trkpt lat="37.1982091013" lon="-3.3493666817">
        <ele>1519.02</ele>
        <time>2020-09-06T09:54:04Z</time>
      </trkpt>
      <trkpt lat="37.1982558724" lon="-3.3494114410">
        <ele>1519.02</ele>
        <time>2020-09-06T09:54:05Z</time>
      </trkpt>
      <trkpt lat="37.1984049026" lon="-3.3495137002">
        <ele>1519.02</ele>
        <time>2020-09-06T09:54:08Z</time>
      </trkpt>
      <trkpt lat="37.1987670846" lon="-3.3496447932">
        <ele>1519.98</ele>
        <time>2020-09-06T09:54:15Z</time>
      </trkpt>
      <trkpt lat="37.1988230757" lon="-3.3496479783">
        <ele>1519.98</ele>
        <time>2020-09-06T09:54:16Z</time>
      </trkpt>
      <trkpt lat="37.1988790669" lon="-3.3496411890">
        <ele>1519.98</ele>
        <time>2020-09-06T09:54:17Z</time>
      </trkpt>
      <trkpt lat="37.1989395842" lon="-3.3496235870">
        <ele>1519.98</ele>
        <time>2020-09-06T09:54:18Z</time>
      </trkpt>
      <trkpt lat="37.1989967488" lon="-3.3495969325">
        <ele>1519.98</ele>
        <time>2020-09-06T09:54:19Z</time>
      </trkpt>
      <trkpt lat="37.1990513988" lon="-3.3495667577">
        <ele>1519.98</ele>
        <time>2020-09-06T09:54:20Z</time>
      </trkpt>
      <trkpt lat="37.1991050430" lon="-3.3495418634">
        <ele>1519.98</ele>
        <time>2020-09-06T09:54:21Z</time>
      </trkpt>
      <trkpt lat="37.1991562564" lon="-3.3495351579">
        <ele>1519.98</ele>
        <time>2020-09-06T09:54:22Z</time>
      </trkpt>
      <trkpt lat="37.1991950646" lon="-3.3495531790">
        <ele>1519.98</ele>
        <time>2020-09-06T09:54:23Z</time>
      </trkpt>
      <trkpt lat="37.1992162708" lon="-3.3495901432">
        <ele>1519.98</ele>
        <time>2020-09-06T09:54:24Z</time>
      </trkpt>
      <trkpt lat="37.1992247365" lon="-3.3496407699">
        <ele>1519.98</ele>
        <time>2020-09-06T09:54:25Z</time>
      </trkpt>
      <trkpt lat="37.1992239822" lon="-3.3496963419">
        <ele>1519.98</ele>
        <time>2020-09-06T09:54:26Z</time>
      </trkpt>
      <trkpt lat="37.1992208809" lon="-3.3497582842">
        <ele>1519.98</ele>
        <time>2020-09-06T09:54:27Z</time>
      </trkpt>
      <trkpt lat="37.1992251556" lon="-3.3498295303">
        <ele>1519.98</ele>
        <time>2020-09-06T09:54:28Z</time>
      </trkpt>
      <trkpt lat="37.1992470324" lon="-3.3498959988">
        <ele>1519.02</ele>
        <time>2020-09-06T09:54:29Z</time>
      </trkpt>
      <trkpt lat="37.1992860921" lon="-3.3499534149">
        <ele>1519.02</ele>
        <time>2020-09-06T09:54:30Z</time>
      </trkpt>
      <trkpt lat="37.1993352100" lon="-3.3499928936">
        <ele>1519.02</ele>
        <time>2020-09-06T09:54:31Z</time>
      </trkpt>
      <trkpt lat="37.1993927937" lon="-3.3500162791">
        <ele>1519.02</ele>
        <time>2020-09-06T09:54:32Z</time>
      </trkpt>
      <trkpt lat="37.1994517185" lon="-3.3500308637">
        <ele>1519.02</ele>
        <time>2020-09-06T09:54:33Z</time>
      </trkpt>
      <trkpt lat="37.1995131578" lon="-3.3500400838">
        <ele>1519.02</ele>
        <time>2020-09-06T09:54:34Z</time>
      </trkpt>
      <trkpt lat="37.1995804645" lon="-3.3500482980">
        <ele>1519.02</ele>
        <time>2020-09-06T09:54:35Z</time>
      </trkpt>
      <trkpt lat="37.1998411417" lon="-3.3500653133">
        <ele>1519.02</ele>
        <time>2020-09-06T09:54:39Z</time>
      </trkpt>
      <trkpt lat="37.1999011561" lon="-3.3500928897">
        <ele>1519.02</ele>
        <time>2020-09-06T09:54:40Z</time>
      </trkpt>
      <trkpt lat="37.1999487653" lon="-3.3501408342">
        <ele>1519.02</ele>
        <time>2020-09-06T09:54:41Z</time>
      </trkpt>
      <trkpt lat="37.1999807842" lon="-3.3502046205">
        <ele>1519.02</ele>
        <time>2020-09-06T09:54:42Z</time>
      </trkpt>
      <trkpt lat="37.1999981347" lon="-3.3502822369">
        <ele>1519.02</ele>
        <time>2020-09-06T09:54:43Z</time>
      </trkpt>
      <trkpt lat="37.2000034153" lon="-3.3503573388">
        <ele>1518.54</ele>
        <time>2020-09-06T09:54:44Z</time>
      </trkpt>
      <trkpt lat="37.2000087798" lon="-3.3504383080">
        <ele>1517.58</ele>
        <time>2020-09-06T09:54:45Z</time>
      </trkpt>
      <trkpt lat="37.2000202630" lon="-3.3505196963">
        <ele>1517.58</ele>
        <time>2020-09-06T09:54:46Z</time>
      </trkpt>
      <trkpt lat="37.2000375297" lon="-3.3505955525">
        <ele>1517.58</ele>
        <time>2020-09-06T09:54:47Z</time>
      </trkpt>
      <trkpt lat="37.2000596579" lon="-3.3506659605">
        <ele>1517.58</ele>
        <time>2020-09-06T09:54:48Z</time>
      </trkpt>
      <trkpt lat="37.2000853065" lon="-3.3507339377">
        <ele>1517.58</ele>
        <time>2020-09-06T09:54:49Z</time>
      </trkpt>
      <trkpt lat="37.2001159005" lon="-3.3508018311">
        <ele>1517.58</ele>
        <time>2020-09-06T09:54:50Z</time>
      </trkpt>
      <trkpt lat="37.2004386876" lon="-3.3513415419">
        <ele>1517.58</ele>
        <time>2020-09-06T09:54:59Z</time>
      </trkpt>
      <trkpt lat="37.2009101696" lon="-3.3522001002">
        <ele>1516.14</ele>
        <time>2020-09-06T09:55:12Z</time>
      </trkpt>
      <trkpt lat="37.2009409312" lon="-3.3522788063">
        <ele>1516.14</ele>
        <time>2020-09-06T09:55:13Z</time>
      </trkpt>
      <trkpt lat="37.2009628918" lon="-3.3523632120">
        <ele>1515.66</ele>
        <time>2020-09-06T09:55:14Z</time>
      </trkpt>
      <trkpt lat="37.2010603733" lon="-3.3528778609">
        <ele>1515.66</ele>
        <time>2020-09-06T09:55:20Z</time>
      </trkpt>
      <trkpt lat="37.2010897100" lon="-3.3529530466">
        <ele>1515.66</ele>
        <time>2020-09-06T09:55:21Z</time>
      </trkpt>
      <trkpt lat="37.2011348046" lon="-3.3530146535">
        <ele>1515.66</ele>
        <time>2020-09-06T09:55:22Z</time>
      </trkpt>
      <trkpt lat="37.2011937294" lon="-3.3530598320">
        <ele>1515.66</ele>
        <time>2020-09-06T09:55:23Z</time>
      </trkpt>
      <trkpt lat="37.2012558393" lon="-3.3530909289">
        <ele>1515.66</ele>
        <time>2020-09-06T09:55:24Z</time>
      </trkpt>
      <trkpt lat="37.2014968190" lon="-3.3532030787">
        <ele>1515.66</ele>
        <time>2020-09-06T09:55:28Z</time>
      </trkpt>
      <trkpt lat="37.2015421651" lon="-3.3532558847">
        <ele>1515.66</ele>
        <time>2020-09-06T09:55:29Z</time>
      </trkpt>
      <trkpt lat="37.2015703283" lon="-3.3533230238">
        <ele>1515.66</ele>
        <time>2020-09-06T09:55:30Z</time>
      </trkpt>
      <trkpt lat="37.2015883494" lon="-3.3533952758">
        <ele>1515.18</ele>
        <time>2020-09-06T09:55:31Z</time>
      </trkpt>
      <trkpt lat="37.2016109806" lon="-3.3534618281">
        <ele>1515.18</ele>
        <time>2020-09-06T09:55:32Z</time>
      </trkpt>
      <trkpt lat="37.2016424965" lon="-3.3535272069">
        <ele>1515.18</ele>
        <time>2020-09-06T09:55:33Z</time>
      </trkpt>
      <trkpt lat="37.2016728390" lon="-3.3535923343">
        <ele>1515.18</ele>
        <time>2020-09-06T09:55:34Z</time>
      </trkpt>
      <trkpt lat="37.2018149123" lon="-3.3539249282">
        <ele>1515.18</ele>
        <time>2020-09-06T09:55:39Z</time>
      </trkpt>
      <trkpt lat="37.2018338554" lon="-3.3540029638">
        <ele>1515.18</ele>
        <time>2020-09-06T09:55:40Z</time>
      </trkpt>
      <trkpt lat="37.2018455062" lon="-3.3540797420">
        <ele>1515.18</ele>
        <time>2020-09-06T09:55:41Z</time>
      </trkpt>
      <trkpt lat="37.2018849850" lon="-3.3544461988">
        <ele>1515.18</ele>
        <time>2020-09-06T09:55:46Z</time>
      </trkpt>
      <trkpt lat="37.2019073647" lon="-3.3545181993">
        <ele>1515.18</ele>
        <time>2020-09-06T09:55:47Z</time>
      </trkpt>
      <trkpt lat="37.2019341867" lon="-3.3545839973">
        <ele>1515.18</ele>
        <time>2020-09-06T09:55:48Z</time>
      </trkpt>
      <trkpt lat="37.2019667923" lon="-3.3546461072">
        <ele>1515.18</ele>
        <time>2020-09-06T09:55:49Z</time>
      </trkpt>
      <trkpt lat="37.2020010743" lon="-3.3547033556">
        <ele>1515.18</ele>
        <time>2020-09-06T09:55:50Z</time>
      </trkpt>
      <trkpt lat="37.2020346019" lon="-3.3547559101">
        <ele>1515.18</ele>
        <time>2020-09-06T09:55:51Z</time>
      </trkpt>
      <trkpt lat="37.2020676266" lon="-3.3547996636">
        <ele>1515.18</ele>
        <time>2020-09-06T09:55:52Z</time>
      </trkpt>
      <trkpt lat="37.2021371964" lon="-3.3548714966">
        <ele>1516.62</ele>
        <time>2020-09-06T09:55:54Z</time>
      </trkpt>
      <trkpt lat="37.2021739092" lon="-3.3548984025">
        <ele>1516.62</ele>
        <time>2020-09-06T09:55:55Z</time>
      </trkpt>
      <trkpt lat="37.2025060002" lon="-3.3549664635">
        <ele>1519.50</ele>
        <time>2020-09-06T09:56:06Z</time>
      </trkpt>
      <trkpt lat="37.2026952635" lon="-3.3546386473">
        <ele>1522.39</ele>
        <time>2020-09-06T09:56:19Z</time>
      </trkpt>
      <trkpt lat="37.2026686091" lon="-3.3541881200">
        <ele>1525.75</ele>
        <time>2020-09-06T09:56:34Z</time>
      </trkpt>
      <trkpt lat="37.2026914079" lon="-3.3538645785">
        <ele>1528.63</ele>
        <time>2020-09-06T09:56:47Z</time>
      </trkpt>
      <trkpt lat="37.2029003687" lon="-3.3536209166">
        <ele>1531.52</ele>
        <time>2020-09-06T09:57:01Z</time>
      </trkpt>
      <trkpt lat="37.2030091658" lon="-3.3534511831">
        <ele>1534.40</ele>
        <time>2020-09-06T09:57:09Z</time>
      </trkpt>
      <trkpt lat="37.2031808272" lon="-3.3532708045">
        <ele>1534.40</ele>
        <time>2020-09-06T09:57:17Z</time>
      </trkpt>
      <trkpt lat="37.2032226529" lon="-3.3532747440">
        <ele>1534.40</ele>
        <time>2020-09-06T09:57:18Z</time>
      </trkpt>
      <trkpt lat="37.2032648139" lon="-3.3532956988">
        <ele>1532.48</ele>
        <time>2020-09-06T09:57:19Z</time>
      </trkpt>
      <trkpt lat="37.2033089865" lon="-3.3533236105">
        <ele>1532.48</ele>
        <time>2020-09-06T09:57:20Z</time>
      </trkpt>
      <trkpt lat="37.2033528239" lon="-3.3533546235">
        <ele>1532.48</ele>
        <time>2020-09-06T09:57:21Z</time>
      </trkpt>
      <trkpt lat="37.2033943143" lon="-3.3533928450">
        <ele>1532.48</ele>
        <time>2020-09-06T09:57:22Z</time>
      </trkpt>
      <trkpt lat="37.2034297697" lon="-3.3534388617">
        <ele>1531.52</ele>
        <time>2020-09-06T09:57:23Z</time>
      </trkpt>
      <trkpt lat="37.2034587711" lon="-3.3534995466">
        <ele>1531.52</ele>
        <time>2020-09-06T09:57:24Z</time>
      </trkpt>
      <trkpt lat="37.2034786362" lon="-3.3535690326">
        <ele>1531.52</ele>
        <time>2020-09-06T09:57:25Z</time>
      </trkpt>
      <trkpt lat="37.2035039496" lon="-3.3536364231">
        <ele>1531.52</ele>
        <time>2020-09-06T09:57:26Z</time>
      </trkpt>
      <trkpt lat="37.2035402432" lon="-3.3537038136">
        <ele>1530.56</ele>
        <time>2020-09-06T09:57:27Z</time>
      </trkpt>
      <trkpt lat="37.2035788838" lon="-3.3537681028">
        <ele>1530.56</ele>
        <time>2020-09-06T09:57:28Z</time>
      </trkpt>
      <trkpt lat="37.2036222182" lon="-3.3538340684">
        <ele>1530.08</ele>
        <time>2020-09-06T09:57:29Z</time>
      </trkpt>
      <trkpt lat="37.2038201988" lon="-3.3541225735">
        <ele>1529.11</ele>
        <time>2020-09-06T09:57:33Z</time>
      </trkpt>
      <trkpt lat="37.2038805485" lon="-3.3541877009">
        <ele>1528.63</ele>
        <time>2020-09-06T09:57:34Z</time>
      </trkpt>
      <trkpt lat="37.2039498668" lon="-3.3542485535">
        <ele>1527.67</ele>
        <time>2020-09-06T09:57:35Z</time>
      </trkpt>
      <trkpt lat="37.2040166706" lon="-3.3543034550">
        <ele>1527.67</ele>
        <time>2020-09-06T09:57:36Z</time>
      </trkpt>
      <trkpt lat="37.2040764336" lon="-3.3543612901">
        <ele>1527.19</ele>
        <time>2020-09-06T09:57:37Z</time>
      </trkpt>
      <trkpt lat="37.2041268926" lon="-3.3544361405">
        <ele>1527.19</ele>
        <time>2020-09-06T09:57:38Z</time>
      </trkpt>
      <trkpt lat="37.2041616775" lon="-3.3545312751">
        <ele>1525.75</ele>
        <time>2020-09-06T09:57:39Z</time>
      </trkpt>
      <trkpt lat="37.2041719873" lon="-3.3546202071">
        <ele>1525.75</ele>
        <time>2020-09-06T09:57:40Z</time>
      </trkpt>
      <trkpt lat="37.2041625157" lon="-3.3547133300">
        <ele>1525.75</ele>
        <time>2020-09-06T09:57:41Z</time>
      </trkpt>
      <trkpt lat="37.2041427344" lon="-3.3548089676">
        <ele>1525.27</ele>
        <time>2020-09-06T09:57:42Z</time>
      </trkpt>
      <trkpt lat="37.2041307483" lon="-3.3549004979">
        <ele>1524.79</ele>
        <time>2020-09-06T09:57:43Z</time>
      </trkpt>
      <trkpt lat="37.2041259706" lon="-3.3549912740">
        <ele>1524.79</ele>
        <time>2020-09-06T09:57:44Z</time>
      </trkpt>
      <trkpt lat="37.2041349392" lon="-3.3551782742">
        <ele>1524.79</ele>
        <time>2020-09-06T09:57:46Z</time>
      </trkpt>
      <trkpt lat="37.2041638568" lon="-3.3552573994">
        <ele>1524.79</ele>
        <time>2020-09-06T09:57:47Z</time>
      </trkpt>
      <trkpt lat="37.2042149026" lon="-3.3553200960">
        <ele>1524.79</ele>
        <time>2020-09-06T09:57:48Z</time>
      </trkpt>
      <trkpt lat="37.2042744141" lon="-3.3553558029">
        <ele>1524.79</ele>
        <time>2020-09-06T09:57:49Z</time>
      </trkpt>
      <trkpt lat="37.2043321654" lon="-3.3553739078">
        <ele>1524.79</ele>
        <time>2020-09-06T09:57:50Z</time>
      </trkpt>
      <trkpt lat="37.2043859772" lon="-3.3553912584">
        <ele>1524.79</ele>
        <time>2020-09-06T09:57:51Z</time>
      </trkpt>
      <trkpt lat="37.2044388670" lon="-3.3554159850">
        <ele>1524.79</ele>
        <time>2020-09-06T09:57:52Z</time>
      </trkpt>
      <trkpt lat="37.2044870630" lon="-3.3554434776">
        <ele>1524.79</ele>
        <time>2020-09-06T09:57:53Z</time>
      </trkpt>
      <trkpt lat="37.2045306489" lon="-3.3554727305">
        <ele>1524.79</ele>
        <time>2020-09-06T09:57:54Z</time>
      </trkpt>
      <trkpt lat="37.2045686189" lon="-3.3555067610">
        <ele>1526.23</ele>
        <time>2020-09-06T09:57:55Z</time>
      </trkpt>
      <trkpt lat="37.2046050802" lon="-3.3555433899">
        <ele>1526.71</ele>
        <time>2020-09-06T09:57:56Z</time>
      </trkpt>
      <trkpt lat="37.2046331596" lon="-3.3555770013">
        <ele>1526.71</ele>
        <time>2020-09-06T09:57:57Z</time>
      </trkpt>
      <trkpt lat="37.2046583891" lon="-3.3556091879">
        <ele>1527.19</ele>
        <time>2020-09-06T09:57:58Z</time>
      </trkpt>
      <trkpt lat="37.2046815231" lon="-3.3556376025">
        <ele>1527.19</ele>
        <time>2020-09-06T09:57:59Z</time>
      </trkpt>
      <trkpt lat="37.2050303780" lon="-3.3560937457">
        <ele>1529.59</ele>
        <time>2020-09-06T09:58:14Z</time>
      </trkpt>
      <trkpt lat="37.2055066377" lon="-3.3565144334">
        <ele>1530.56</ele>
        <time>2020-09-06T09:58:29Z</time>
      </trkpt>
      <trkpt lat="37.2057990823" lon="-3.3569792099">
        <ele>1532.48</ele>
        <time>2020-09-06T09:58:42Z</time>
      </trkpt>
      <trkpt lat="37.2060039360" lon="-3.3576076012">
        <ele>1534.88</ele>
        <time>2020-09-06T09:58:58Z</time>
      </trkpt>
      <trkpt lat="37.2060660459" lon="-3.3582935762">
        <ele>1538.73</ele>
        <time>2020-09-06T09:59:15Z</time>
      </trkpt>
      <trkpt lat="37.2061908524" lon="-3.3590177726">
        <ele>1541.13</ele>
        <time>2020-09-06T09:59:34Z</time>
      </trkpt>
      <trkpt lat="37.2063626815" lon="-3.3595947828">
        <ele>1543.53</ele>
        <time>2020-09-06T09:59:50Z</time>
      </trkpt>
      <trkpt lat="37.2066766676" lon="-3.3600158058">
        <ele>1544.98</ele>
        <time>2020-09-06T10:00:04Z</time>
      </trkpt>
      <trkpt lat="37.2066792659" lon="-3.3600156382">
        <ele>1544.50</ele>
        <time>2020-09-06T10:00:19Z</time>
      </trkpt>
      <trkpt lat="37.2066882346" lon="-3.3600199968">
        <ele>1544.50</ele>
        <time>2020-09-06T10:00:46Z</time>
      </trkpt>
      <trkpt lat="37.2066882346" lon="-3.3600059990">
        <ele>1544.50</ele>
        <time>2020-09-06T10:01:04Z</time>
      </trkpt>
      <trkpt lat="37.2066989634" lon="-3.3600013889">
        <ele>1544.50</ele>
        <time>2020-09-06T10:01:05Z</time>
      </trkpt>
      <trkpt lat="37.2067125421" lon="-3.3599978685">
        <ele>1544.50</ele>
        <time>2020-09-06T10:01:06Z</time>
      </trkpt>
      <trkpt lat="37.2067299765" lon="-3.3599921688">
        <ele>1543.05</ele>
        <time>2020-09-06T10:01:07Z</time>
      </trkpt>
      <trkpt lat="37.2067474108" lon="-3.3599820267">
        <ele>1543.05</ele>
        <time>2020-09-06T10:01:08Z</time>
      </trkpt>
      <trkpt lat="37.2067722213" lon="-3.3599707950">
        <ele>1543.05</ele>
        <time>2020-09-06T10:01:09Z</time>
      </trkpt>
      <trkpt lat="37.2072734591" lon="-3.3597286418">
        <ele>1541.13</ele>
        <time>2020-09-06T10:01:21Z</time>
      </trkpt>
      <trkpt lat="37.2074771393" lon="-3.3596154861">
        <ele>1539.21</ele>
        <time>2020-09-06T10:01:24Z</time>
      </trkpt>
      <trkpt lat="37.2075379081" lon="-3.3595519513">
        <ele>1538.73</ele>
        <time>2020-09-06T10:01:25Z</time>
      </trkpt>
      <trkpt lat="37.2075887863" lon="-3.3594725747">
        <ele>1538.25</ele>
        <time>2020-09-06T10:01:26Z</time>
      </trkpt>
      <trkpt lat="37.2076819092" lon="-3.3593164198">
        <ele>1537.77</ele>
        <time>2020-09-06T10:01:28Z</time>
      </trkpt>
      <trkpt lat="37.2077394929" lon="-3.3592635300">
        <ele>1537.77</ele>
        <time>2020-09-06T10:01:29Z</time>
      </trkpt>
      <trkpt lat="37.2078030277" lon="-3.3592412341">
        <ele>1537.77</ele>
        <time>2020-09-06T10:01:30Z</time>
      </trkpt>
      <trkpt lat="37.2078627907" lon="-3.3592555672">
        <ele>1537.77</ele>
        <time>2020-09-06T10:01:31Z</time>
      </trkpt>
      <trkpt lat="37.2079115734" lon="-3.3593012486">
        <ele>1537.77</ele>
        <time>2020-09-06T10:01:32Z</time>
      </trkpt>
      <trkpt lat="37.2079420835" lon="-3.3593678009">
        <ele>1537.77</ele>
        <time>2020-09-06T10:01:33Z</time>
      </trkpt>
      <trkpt lat="37.2079539858" lon="-3.3594466746">
        <ele>1536.80</ele>
        <time>2020-09-06T10:01:34Z</time>
      </trkpt>
      <trkpt lat="37.2079502139" lon="-3.3595298231">
        <ele>1536.80</ele>
        <time>2020-09-06T10:01:35Z</time>
      </trkpt>
      <trkpt lat="37.2079405747" lon="-3.3596174140">
        <ele>1536.80</ele>
        <time>2020-09-06T10:01:36Z</time>
      </trkpt>
      <trkpt lat="37.2079523932" lon="-3.3601091802">
        <ele>1534.40</ele>
        <time>2020-09-06T10:01:41Z</time>
      </trkpt>
      <trkpt lat="37.2079519741" lon="-3.3602227550">
        <ele>1533.92</ele>
        <time>2020-09-06T10:01:42Z</time>
      </trkpt>
      <trkpt lat="37.2079414129" lon="-3.3603377547">
        <ele>1532.48</ele>
        <time>2020-09-06T10:01:43Z</time>
      </trkpt>
      <trkpt lat="37.2079296783" lon="-3.3604446240">
        <ele>1531.52</ele>
        <time>2020-09-06T10:01:44Z</time>
      </trkpt>
      <trkpt lat="37.2079085559" lon="-3.3606671635">
        <ele>1530.08</ele>
        <time>2020-09-06T10:01:46Z</time>
      </trkpt>
      <trkpt lat="37.2078591865" lon="-3.3610485401">
        <ele>1526.71</ele>
        <time>2020-09-06T10:01:49Z</time>
      </trkpt>
      <trkpt lat="37.2077691648" lon="-3.3616082836">
        <ele>1523.83</ele>
        <time>2020-09-06T10:01:53Z</time>
      </trkpt>
      <trkpt lat="37.2076491360" lon="-3.3621404506">
        <ele>1519.50</ele>
        <time>2020-09-06T10:01:57Z</time>
      </trkpt>
      <trkpt lat="37.2076052148" lon="-3.3622736391">
        <ele>1518.54</ele>
        <time>2020-09-06T10:01:58Z</time>
      </trkpt>
      <trkpt lat="37.2075518221" lon="-3.3624105994">
        <ele>1517.10</ele>
        <time>2020-09-06T10:01:59Z</time>
      </trkpt>
      <trkpt lat="37.2075045481" lon="-3.3625463024">
        <ele>1516.14</ele>
        <time>2020-09-06T10:02:00Z</time>
      </trkpt>
      <trkpt lat="37.2074674163" lon="-3.3626885433">
        <ele>1514.69</ele>
        <time>2020-09-06T10:02:01Z</time>
      </trkpt>
      <trkpt lat="37.2074450366" lon="-3.3628334664">
        <ele>1514.69</ele>
        <time>2020-09-06T10:02:02Z</time>
      </trkpt>
      <trkpt lat="37.2074344754" lon="-3.3629781380">
        <ele>1514.69</ele>
        <time>2020-09-06T10:02:03Z</time>
      </trkpt>
      <trkpt lat="37.2074232437" lon="-3.3631191216">
        <ele>1513.73</ele>
        <time>2020-09-06T10:02:04Z</time>
      </trkpt>
      <trkpt lat="37.2074084077" lon="-3.3632489573">
        <ele>1513.73</ele>
        <time>2020-09-06T10:02:05Z</time>
      </trkpt>
      <trkpt lat="37.2074126825" lon="-3.3633525576">
        <ele>1513.73</ele>
        <time>2020-09-06T10:02:06Z</time>
      </trkpt>
      <trkpt lat="37.2074467968" lon="-3.3634284977">
        <ele>1513.73</ele>
        <time>2020-09-06T10:02:07Z</time>
      </trkpt>
      <trkpt lat="37.2075026203" lon="-3.3634714969">
        <ele>1513.73</ele>
        <time>2020-09-06T10:02:08Z</time>
      </trkpt>
      <trkpt lat="37.2075625509" lon="-3.3634866681">
        <ele>1513.73</ele>
        <time>2020-09-06T10:02:09Z</time>
      </trkpt>
      <trkpt lat="37.2076190449" lon="-3.3634855784">
        <ele>1513.73</ele>
        <time>2020-09-06T10:02:10Z</time>
      </trkpt>
      <trkpt lat="37.2076736949" lon="-3.3634820580">
        <ele>1515.18</ele>
        <time>2020-09-06T10:02:11Z</time>
      </trkpt>
      <trkpt lat="37.2077341285" lon="-3.3634752687">
        <ele>1515.18</ele>
        <time>2020-09-06T10:02:12Z</time>
      </trkpt>
      <trkpt lat="37.2078607790" lon="-3.3634764422">
        <ele>1515.18</ele>
        <time>2020-09-06T10:02:14Z</time>
      </trkpt>
      <trkpt lat="37.2079254035" lon="-3.3635072038">
        <ele>1513.73</ele>
        <time>2020-09-06T10:02:15Z</time>
      </trkpt>
      <trkpt lat="37.2079808917" lon="-3.3635621052">
        <ele>1513.25</ele>
        <time>2020-09-06T10:02:16Z</time>
      </trkpt>
      <trkpt lat="37.2080184426" lon="-3.3636398055">
        <ele>1512.77</ele>
        <time>2020-09-06T10:02:17Z</time>
      </trkpt>
      <trkpt lat="37.2080337815" lon="-3.3637310006">
        <ele>1512.77</ele>
        <time>2020-09-06T10:02:18Z</time>
      </trkpt>
      <trkpt lat="37.2080370504" lon="-3.3638330083">
        <ele>1511.81</ele>
        <time>2020-09-06T10:02:19Z</time>
      </trkpt>
      <trkpt lat="37.2080482822" lon="-3.3639268856">
        <ele>1511.81</ele>
        <time>2020-09-06T10:02:20Z</time>
      </trkpt>
      <trkpt lat="37.2080761939" lon="-3.3640096150">
        <ele>1511.81</ele>
        <time>2020-09-06T10:02:21Z</time>
      </trkpt>
      <trkpt lat="37.2081238031" lon="-3.3640744071">
        <ele>1511.33</ele>
        <time>2020-09-06T10:02:22Z</time>
      </trkpt>
      <trkpt lat="37.2081867512" lon="-3.3641262073">
        <ele>1510.37</ele>
        <time>2020-09-06T10:02:23Z</time>
      </trkpt>
      <trkpt lat="37.2082567401" lon="-3.3641878143">
        <ele>1509.41</ele>
        <time>2020-09-06T10:02:24Z</time>
      </trkpt>
      <trkpt lat="37.2083252203" lon="-3.3642574679">
        <ele>1508.93</ele>
        <time>2020-09-06T10:02:25Z</time>
      </trkpt>
      <trkpt lat="37.2085261345" lon="-3.3644581307">
        <ele>1506.52</ele>
        <time>2020-09-06T10:02:28Z</time>
      </trkpt>
      <trkpt lat="37.2085792758" lon="-3.3645352442">
        <ele>1506.04</ele>
        <time>2020-09-06T10:02:29Z</time>
      </trkpt>
      <trkpt lat="37.2086273879" lon="-3.3646161295">
        <ele>1505.08</ele>
        <time>2020-09-06T10:02:30Z</time>
      </trkpt>
      <trkpt lat="37.2086847201" lon="-3.3646922372">
        <ele>1505.08</ele>
        <time>2020-09-06T10:02:31Z</time>
      </trkpt>
      <trkpt lat="37.2087518591" lon="-3.3647478931">
        <ele>1503.64</ele>
        <time>2020-09-06T10:02:32Z</time>
      </trkpt>
      <trkpt lat="37.2088290565" lon="-3.3647795767">
        <ele>1503.64</ele>
        <time>2020-09-06T10:02:33Z</time>
      </trkpt>
      <trkpt lat="37.2089086846" lon="-3.3647791576">
        <ele>1502.20</ele>
        <time>2020-09-06T10:02:34Z</time>
      </trkpt>
      <trkpt lat="37.2089795955" lon="-3.3647393435">
        <ele>1501.72</ele>
        <time>2020-09-06T10:02:35Z</time>
      </trkpt>
      <trkpt lat="37.2090324014" lon="-3.3646664210">
        <ele>1501.24</ele>
        <time>2020-09-06T10:02:36Z</time>
      </trkpt>
      <trkpt lat="37.2090639174" lon="-3.3645738848">
        <ele>1500.27</ele>
        <time>2020-09-06T10:02:37Z</time>
      </trkpt>
      <trkpt lat="37.2090743110" lon="-3.3644668479">
        <ele>1500.27</ele>
        <time>2020-09-06T10:02:38Z</time>
      </trkpt>
      <trkpt lat="37.2090706229" lon="-3.3643567935">
        <ele>1499.79</ele>
        <time>2020-09-06T10:02:39Z</time>
      </trkpt>
      <trkpt lat="37.2090639174" lon="-3.3642445598">
        <ele>1498.83</ele>
        <time>2020-09-06T10:02:40Z</time>
      </trkpt>
      <trkpt lat="37.2090631630" lon="-3.3640309889">
        <ele>1496.91</ele>
        <time>2020-09-06T10:02:42Z</time>
      </trkpt>
      <trkpt lat="37.2090873029" lon="-3.3639343455">
        <ele>1496.43</ele>
        <time>2020-09-06T10:02:43Z</time>
      </trkpt>
      <trkpt lat="37.2091345768" lon="-3.3638488501">
        <ele>1495.47</ele>
        <time>2020-09-06T10:02:44Z</time>
      </trkpt>
      <trkpt lat="37.2091995366" lon="-3.3637855668">
        <ele>1494.51</ele>
        <time>2020-09-06T10:02:45Z</time>
      </trkpt>
      <trkpt lat="37.2092774045" lon="-3.3637356106">
        <ele>1494.03</ele>
        <time>2020-09-06T10:02:46Z</time>
      </trkpt>
      <trkpt lat="37.2093636543" lon="-3.3636893425">
        <ele>1493.06</ele>
        <time>2020-09-06T10:02:47Z</time>
      </trkpt>
      <trkpt lat="37.2096492257" lon="-3.3635388874">
        <ele>1489.70</ele>
        <time>2020-09-06T10:02:50Z</time>
      </trkpt>
      <trkpt lat="37.2097439412" lon="-3.3634729218">
        <ele>1488.74</ele>
        <time>2020-09-06T10:02:51Z</time>
      </trkpt>
      <trkpt lat="37.2098306101" lon="-3.3634010889">
        <ele>1487.78</ele>
        <time>2020-09-06T10:02:52Z</time>
      </trkpt>
      <trkpt lat="37.2099136747" lon="-3.3633171860">
        <ele>1486.34</ele>
        <time>2020-09-06T10:02:53Z</time>
      </trkpt>
      <trkpt lat="37.2099877708" lon="-3.3632180281">
        <ele>1485.37</ele>
        <time>2020-09-06T10:02:54Z</time>
      </trkpt>
      <trkpt lat="37.2100514732" lon="-3.3631078899">
        <ele>1484.89</ele>
        <time>2020-09-06T10:02:55Z</time>
      </trkpt>
      <trkpt lat="37.2101079673" lon="-3.3629958238">
        <ele>1483.93</ele>
        <time>2020-09-06T10:02:56Z</time>
      </trkpt>
      <trkpt lat="37.2102328576" lon="-3.3627955802">
        <ele>1482.01</ele>
        <time>2020-09-06T10:02:58Z</time>
      </trkpt>
      <trkpt lat="37.2103112284" lon="-3.3627220709">
        <ele>1482.01</ele>
        <time>2020-09-06T10:02:59Z</time>
      </trkpt>
      <trkpt lat="37.2103962209" lon="-3.3626595419">
        <ele>1481.53</ele>
        <time>2020-09-06T10:03:00Z</time>
      </trkpt>
      <trkpt lat="37.2105652001" lon="-3.3625314664">
        <ele>1480.57</ele>
        <time>2020-09-06T10:03:02Z</time>
      </trkpt>
      <trkpt lat="37.2109972872" lon="-3.3621949330">
        <ele>1477.68</ele>
        <time>2020-09-06T10:03:07Z</time>
      </trkpt>
      <trkpt lat="37.2113071661" lon="-3.3618995547">
        <ele>1474.32</ele>
        <time>2020-09-06T10:03:11Z</time>
      </trkpt>
      <trkpt lat="37.2113960143" lon="-3.3618413005">
        <ele>1474.32</ele>
        <time>2020-09-06T10:03:12Z</time>
      </trkpt>
      <trkpt lat="37.2114789113" lon="-3.3617810346">
        <ele>1473.84</ele>
        <time>2020-09-06T10:03:13Z</time>
      </trkpt>
      <trkpt lat="37.2115537617" lon="-3.3617054299">
        <ele>1473.84</ele>
        <time>2020-09-06T10:03:14Z</time>
      </trkpt>
      <trkpt lat="37.2116214875" lon="-3.3616159949">
        <ele>1472.88</ele>
        <time>2020-09-06T10:03:15Z</time>
      </trkpt>
      <trkpt lat="37.2116846032" lon="-3.3615276497">
        <ele>1472.40</ele>
        <time>2020-09-06T10:03:16Z</time>
      </trkpt>
      <trkpt lat="37.2117305361" lon="-3.3614402264">
        <ele>1470.95</ele>
        <time>2020-09-06T10:03:17Z</time>
      </trkpt>
      <trkpt lat="37.2117451206" lon="-3.3613434993">
        <ele>1470.95</ele>
        <time>2020-09-06T10:03:18Z</time>
      </trkpt>
      <trkpt lat="37.2117296141" lon="-3.3612398989">
        <ele>1469.99</ele>
        <time>2020-09-06T10:03:19Z</time>
      </trkpt>
      <trkpt lat="37.2116948292" lon="-3.3611420821">
        <ele>1469.51</ele>
        <time>2020-09-06T10:03:20Z</time>
      </trkpt>
      <trkpt lat="37.2116644867" lon="-3.3610414155">
        <ele>1469.03</ele>
        <time>2020-09-06T10:03:21Z</time>
      </trkpt>
      <trkpt lat="37.2116616368" lon="-3.3609344624">
        <ele>1468.55</ele>
        <time>2020-09-06T10:03:22Z</time>
      </trkpt>
      <trkpt lat="37.2116852738" lon="-3.3608255815">
        <ele>1468.55</ele>
        <time>2020-09-06T10:03:23Z</time>
      </trkpt>
      <trkpt lat="37.2117301170" lon="-3.3607307822">
        <ele>1467.11</ele>
        <time>2020-09-06T10:03:24Z</time>
      </trkpt>
      <trkpt lat="37.2117920592" lon="-3.3606560156">
        <ele>1467.11</ele>
        <time>2020-09-06T10:03:25Z</time>
      </trkpt>
      <trkpt lat="37.2118669935" lon="-3.3605955821">
        <ele>1466.63</ele>
        <time>2020-09-06T10:03:26Z</time>
      </trkpt>
      <trkpt lat="37.2119506449" lon="-3.3605417702">
        <ele>1466.15</ele>
        <time>2020-09-06T10:03:27Z</time>
      </trkpt>
      <trkpt lat="37.2122810595" lon="-3.3603777364">
        <ele>1465.67</ele>
        <time>2020-09-06T10:03:31Z</time>
      </trkpt>
      <trkpt lat="37.2123729251" lon="-3.3603635710">
        <ele>1465.19</ele>
        <time>2020-09-06T10:03:32Z</time>
      </trkpt>
      <trkpt lat="37.2124650422" lon="-3.3603654988">
        <ele>1464.71</ele>
        <time>2020-09-06T10:03:33Z</time>
      </trkpt>
      <trkpt lat="37.2125570755" lon="-3.3603784908">
        <ele>1463.26</ele>
        <time>2020-09-06T10:03:34Z</time>
      </trkpt>
      <trkpt lat="37.2126498632" lon="-3.3604045585">
        <ele>1462.78</ele>
        <time>2020-09-06T10:03:35Z</time>
      </trkpt>
      <trkpt lat="37.2127350233" lon="-3.3604397625">
        <ele>1462.78</ele>
        <time>2020-09-06T10:03:36Z</time>
      </trkpt>
      <trkpt lat="37.2128153220" lon="-3.3604818396">
        <ele>1462.78</ele>
        <time>2020-09-06T10:03:37Z</time>
      </trkpt>
      <trkpt lat="37.2128933575" lon="-3.3605255093">
        <ele>1462.78</ele>
        <time>2020-09-06T10:03:38Z</time>
      </trkpt>
      <trkpt lat="37.2132581379" lon="-3.3607346378">
        <ele>1462.78</ele>
        <time>2020-09-06T10:03:43Z</time>
      </trkpt>
      <trkpt lat="37.2133295517" lon="-3.3607866894">
        <ele>1462.78</ele>
        <time>2020-09-06T10:03:44Z</time>
      </trkpt>
      <trkpt lat="37.2133993730" lon="-3.3608449437">
        <ele>1462.30</ele>
        <time>2020-09-06T10:03:45Z</time>
      </trkpt>
      <trkpt lat="37.2136029694" lon="-3.3610285074">
        <ele>1459.90</ele>
        <time>2020-09-06T10:03:48Z</time>
      </trkpt>
      <trkpt lat="37.2136892192" lon="-3.3610560838">
        <ele>1458.94</ele>
        <time>2020-09-06T10:03:49Z</time>
      </trkpt>
      <trkpt lat="37.2137728706" lon="-3.3610497136">
        <ele>1457.98</ele>
        <time>2020-09-06T10:03:50Z</time>
      </trkpt>
      <trkpt lat="37.2138509061" lon="-3.3610109054">
        <ele>1457.98</ele>
        <time>2020-09-06T10:03:51Z</time>
      </trkpt>
      <trkpt lat="37.2139213141" lon="-3.3609509747">
        <ele>1457.02</ele>
        <time>2020-09-06T10:03:52Z</time>
      </trkpt>
      <trkpt lat="37.2139824182" lon="-3.3608767111">
        <ele>1457.02</ele>
        <time>2020-09-06T10:03:53Z</time>
      </trkpt>
      <trkpt lat="37.2140368167" lon="-3.3607992623">
        <ele>1456.53</ele>
        <time>2020-09-06T10:03:54Z</time>
      </trkpt>
      <trkpt lat="37.2140985914" lon="-3.3607321233">
        <ele>1456.53</ele>
        <time>2020-09-06T10:03:55Z</time>
      </trkpt>
      <trkpt lat="37.2141746152" lon="-3.3606964163">
        <ele>1455.57</ele>
        <time>2020-09-06T10:03:56Z</time>
      </trkpt>
      <trkpt lat="37.2142536566" lon="-3.3606985118">
        <ele>1454.61</ele>
        <time>2020-09-06T10:03:57Z</time>
      </trkpt>
      <trkpt lat="37.2143365536" lon="-3.3607200533">
        <ele>1454.61</ele>
        <time>2020-09-06T10:03:58Z</time>
      </trkpt>
      <trkpt lat="37.2144214623" lon="-3.3607379906">
        <ele>1453.17</ele>
        <time>2020-09-06T10:03:59Z</time>
      </trkpt>
      <trkpt lat="37.2145013418" lon="-3.3607255016">
        <ele>1452.69</ele>
        <time>2020-09-06T10:04:00Z</time>
      </trkpt>
      <trkpt lat="37.2145630326" lon="-3.3606783953">
        <ele>1452.69</ele>
        <time>2020-09-06T10:04:01Z</time>
      </trkpt>
      <trkpt lat="37.2146123182" lon="-3.3606022876">
        <ele>1452.21</ele>
        <time>2020-09-06T10:04:02Z</time>
      </trkpt>
      <trkpt lat="37.2146642860" lon="-3.3605218213">
        <ele>1451.73</ele>
        <time>2020-09-06T10:04:03Z</time>
      </trkpt>
      <trkpt lat="37.2147284076" lon="-3.3604593761">
        <ele>1451.73</ele>
        <time>2020-09-06T10:04:04Z</time>
      </trkpt>
      <trkpt lat="37.2148064431" lon="-3.3604171313">
        <ele>1450.77</ele>
        <time>2020-09-06T10:04:05Z</time>
      </trkpt>
      <trkpt lat="37.2148844786" lon="-3.3603939973">
        <ele>1450.29</ele>
        <time>2020-09-06T10:04:06Z</time>
      </trkpt>
      <trkpt lat="37.2149673756" lon="-3.3603824303">
        <ele>1450.29</ele>
        <time>2020-09-06T10:04:07Z</time>
      </trkpt>
      <trkpt lat="37.2150530387" lon="-3.3603626490">
        <ele>1448.84</ele>
        <time>2020-09-06T10:04:08Z</time>
      </trkpt>
      <trkpt lat="37.2151450720" lon="-3.3603196498">
        <ele>1447.88</ele>
        <time>2020-09-06T10:04:09Z</time>
      </trkpt>
      <trkpt lat="37.2152312379" lon="-3.3602541033">
        <ele>1446.92</ele>
        <time>2020-09-06T10:04:10Z</time>
      </trkpt>
      <trkpt lat="37.2153029870" lon="-3.3601746429">
        <ele>1445.96</ele>
        <time>2020-09-06T10:04:11Z</time>
      </trkpt>
      <trkpt lat="37.2153575532" lon="-3.3600731380">
        <ele>1445.48</ele>
        <time>2020-09-06T10:04:12Z</time>
      </trkpt>
      <trkpt lat="37.2153952718" lon="-3.3599688672">
        <ele>1445.00</ele>
        <time>2020-09-06T10:04:13Z</time>
      </trkpt>
      <trkpt lat="37.2154216748" lon="-3.3598703798">
        <ele>1444.52</ele>
        <time>2020-09-06T10:04:14Z</time>
      </trkpt>
      <trkpt lat="37.2154300567" lon="-3.3597728983">
        <ele>1444.52</ele>
        <time>2020-09-06T10:04:15Z</time>
      </trkpt>
      <trkpt lat="37.2154142149" lon="-3.3596784342">
        <ele>1442.60</ele>
        <time>2020-09-06T10:04:16Z</time>
      </trkpt>
      <trkpt lat="37.2153753228" lon="-3.3595905919">
        <ele>1441.15</ele>
        <time>2020-09-06T10:04:17Z</time>
      </trkpt>
      <trkpt lat="37.2153373528" lon="-3.3595044259">
        <ele>1440.67</ele>
        <time>2020-09-06T10:04:18Z</time>
      </trkpt>
      <trkpt lat="37.2153267078" lon="-3.3594059385">
        <ele>1440.67</ele>
        <time>2020-09-06T10:04:19Z</time>
      </trkpt>
      <trkpt lat="37.2153418791" lon="-3.3593117259">
        <ele>1439.71</ele>
        <time>2020-09-06T10:04:20Z</time>
      </trkpt>
      <trkpt lat="37.2153651807" lon="-3.3592196088">
        <ele>1439.23</ele>
        <time>2020-09-06T10:04:21Z</time>
      </trkpt>
      <trkpt lat="37.2153998818" lon="-3.3591240551">
        <ele>1439.23</ele>
        <time>2020-09-06T10:04:22Z</time>
      </trkpt>
      <trkpt lat="37.2154523525" lon="-3.3590416610">
        <ele>1438.27</ele>
        <time>2020-09-06T10:04:23Z</time>
      </trkpt>
      <trkpt lat="37.2155193239" lon="-3.3589896094">
        <ele>1438.27</ele>
        <time>2020-09-06T10:04:24Z</time>
      </trkpt>
      <trkpt lat="37.2155961860" lon="-3.3589693252">
        <ele>1437.79</ele>
        <time>2020-09-06T10:04:25Z</time>
      </trkpt>
      <trkpt lat="37.2156727966" lon="-3.3589399885">
        <ele>1436.83</ele>
        <time>2020-09-06T10:04:26Z</time>
      </trkpt>
      <trkpt lat="37.2157205734" lon="-3.3588800579">
        <ele>1435.87</ele>
        <time>2020-09-06T10:04:27Z</time>
      </trkpt>
      <trkpt lat="37.2157386784" lon="-3.3588050399">
        <ele>1435.87</ele>
        <time>2020-09-06T10:04:28Z</time>
      </trkpt>
      <trkpt lat="37.2157367505" lon="-3.3587189578">
        <ele>1435.87</ele>
        <time>2020-09-06T10:04:29Z</time>
      </trkpt>
      <trkpt lat="37.2157313023" lon="-3.3586252481">
        <ele>1435.87</ele>
        <time>2020-09-06T10:04:30Z</time>
      </trkpt>
      <trkpt lat="37.2157421988" lon="-3.3585274313">
        <ele>1435.87</ele>
        <time>2020-09-06T10:04:31Z</time>
      </trkpt>
      <trkpt lat="37.2157726251" lon="-3.3584328834">
        <ele>1435.39</ele>
        <time>2020-09-06T10:04:32Z</time>
      </trkpt>
      <trkpt lat="37.2158175521" lon="-3.3583411016">
        <ele>1434.42</ele>
        <time>2020-09-06T10:04:33Z</time>
      </trkpt>
      <trkpt lat="37.2158701904" lon="-3.3582535945">
        <ele>1433.94</ele>
        <time>2020-09-06T10:04:34Z</time>
      </trkpt>
      <trkpt lat="37.2159110941" lon="-3.3581598848">
        <ele>1432.98</ele>
        <time>2020-09-06T10:04:35Z</time>
      </trkpt>
      <trkpt lat="37.2159287799" lon="-3.3580627386">
        <ele>1432.02</ele>
        <time>2020-09-06T10:04:36Z</time>
      </trkpt>
      <trkpt lat="37.2159200627" lon="-3.3579666819">
        <ele>1432.02</ele>
        <time>2020-09-06T10:04:37Z</time>
      </trkpt>
      <trkpt lat="37.2158835176" lon="-3.3578840364">
        <ele>1431.06</ele>
        <time>2020-09-06T10:04:38Z</time>
      </trkpt>
      <trkpt lat="37.2158295382" lon="-3.3578091022">
        <ele>1430.58</ele>
        <time>2020-09-06T10:04:39Z</time>
      </trkpt>
      <trkpt lat="37.2157817613" lon="-3.3577225171">
        <ele>1430.10</ele>
        <time>2020-09-06T10:04:40Z</time>
      </trkpt>
      <trkpt lat="37.2157487366" lon="-3.3576234430">
        <ele>1430.10</ele>
        <time>2020-09-06T10:04:41Z</time>
      </trkpt>
      <trkpt lat="37.2157333139" lon="-3.3575129695">
        <ele>1429.14</ele>
        <time>2020-09-06T10:04:42Z</time>
      </trkpt>
      <trkpt lat="37.2157370858" lon="-3.3574117161">
        <ele>1427.70</ele>
        <time>2020-09-06T10:04:43Z</time>
      </trkpt>
      <trkpt lat="37.2157611419" lon="-3.3573200181">
        <ele>1427.70</ele>
        <time>2020-09-06T10:04:44Z</time>
      </trkpt>
      <trkpt lat="37.2157893889" lon="-3.3572311699">
        <ele>1426.73</ele>
        <time>2020-09-06T10:04:45Z</time>
      </trkpt>
      <trkpt lat="37.2157920711" lon="-3.3571363706">
        <ele>1425.77</ele>
        <time>2020-09-06T10:04:46Z</time>
      </trkpt>
      <trkpt lat="37.2157795820" lon="-3.3570380509">
        <ele>1425.29</ele>
        <time>2020-09-06T10:04:47Z</time>
      </trkpt>
      <trkpt lat="37.2157717869" lon="-3.3569303434">
        <ele>1424.81</ele>
        <time>2020-09-06T10:04:48Z</time>
      </trkpt>
      <trkpt lat="37.2157726251" lon="-3.3568219654">
        <ele>1424.81</ele>
        <time>2020-09-06T10:04:49Z</time>
      </trkpt>
      <trkpt lat="37.2157851979" lon="-3.3567161020">
        <ele>1423.37</ele>
        <time>2020-09-06T10:04:50Z</time>
      </trkpt>
      <trkpt lat="37.2158074938" lon="-3.3566203807">
        <ele>1422.41</ele>
        <time>2020-09-06T10:04:51Z</time>
      </trkpt>
      <trkpt lat="37.2158433683" lon="-3.3565377351">
        <ele>1422.41</ele>
        <time>2020-09-06T10:04:52Z</time>
      </trkpt>
      <trkpt lat="37.2158988565" lon="-3.3564774692">
        <ele>1420.97</ele>
        <time>2020-09-06T10:04:53Z</time>
      </trkpt>
      <trkpt lat="37.2159659117" lon="-3.3564458694">
        <ele>1420.97</ele>
        <time>2020-09-06T10:04:54Z</time>
      </trkpt>
      <trkpt lat="37.2160330508" lon="-3.3564520720">
        <ele>1420.00</ele>
        <time>2020-09-06T10:04:55Z</time>
      </trkpt>
      <trkpt lat="37.2160888743" lon="-3.3564949036">
        <ele>1419.04</ele>
        <time>2020-09-06T10:04:56Z</time>
      </trkpt>
      <trkpt lat="37.2161270957" lon="-3.3565641381">
        <ele>1418.56</ele>
        <time>2020-09-06T10:04:57Z</time>
      </trkpt>
      <trkpt lat="37.2161619645" lon="-3.3566376474">
        <ele>1418.08</ele>
        <time>2020-09-06T10:04:58Z</time>
      </trkpt>
      <trkpt lat="37.2162050474" lon="-3.3567100670">
        <ele>1417.60</ele>
        <time>2020-09-06T10:04:59Z</time>
      </trkpt>
      <trkpt lat="37.2162565123" lon="-3.3567828219">
        <ele>1417.12</ele>
        <time>2020-09-06T10:05:00Z</time>
      </trkpt>
      <trkpt lat="37.2163188737" lon="-3.3568483684">
        <ele>1417.12</ele>
        <time>2020-09-06T10:05:01Z</time>
      </trkpt>
      <trkpt lat="37.2163995076" lon="-3.3568958938">
        <ele>1416.16</ele>
        <time>2020-09-06T10:05:02Z</time>
      </trkpt>
      <trkpt lat="37.2164837457" lon="-3.3569113165">
        <ele>1415.20</ele>
        <time>2020-09-06T10:05:03Z</time>
      </trkpt>
      <trkpt lat="37.2165707499" lon="-3.3569024317">
        <ele>1415.20</ele>
        <time>2020-09-06T10:05:04Z</time>
      </trkpt>
      <trkpt lat="37.2166582569" lon="-3.3568777889">
        <ele>1414.24</ele>
        <time>2020-09-06T10:05:05Z</time>
      </trkpt>
      <trkpt lat="37.2167424951" lon="-3.3568596840">
        <ele>1413.76</ele>
        <time>2020-09-06T10:05:06Z</time>
      </trkpt>
      <trkpt lat="37.2168159205" lon="-3.3568746038">
        <ele>1412.79</ele>
        <time>2020-09-06T10:05:07Z</time>
      </trkpt>
      <trkpt lat="37.2168755159" lon="-3.3569279965">
        <ele>1412.79</ele>
        <time>2020-09-06T10:05:08Z</time>
      </trkpt>
      <trkpt lat="37.2169300821" lon="-3.3570054453">
        <ele>1412.31</ele>
        <time>2020-09-06T10:05:09Z</time>
      </trkpt>
      <trkpt lat="37.2169878334" lon="-3.3570677228">
        <ele>1412.31</ele>
        <time>2020-09-06T10:05:10Z</time>
      </trkpt>
      <trkpt lat="37.2170568164" lon="-3.3571089618">
        <ele>1411.35</ele>
        <time>2020-09-06T10:05:11Z</time>
      </trkpt>
      <trkpt lat="37.2171332594" lon="-3.3571227081">
        <ele>1410.87</ele>
        <time>2020-09-06T10:05:12Z</time>
      </trkpt>
      <trkpt lat="37.2172137257" lon="-3.3571002446">
        <ele>1410.39</ele>
        <time>2020-09-06T10:05:13Z</time>
      </trkpt>
      <trkpt lat="37.2172875702" lon="-3.3570464328">
        <ele>1409.91</ele>
        <time>2020-09-06T10:05:14Z</time>
      </trkpt>
      <trkpt lat="37.2173557989" lon="-3.3569818083">
        <ele>1409.91</ele>
        <time>2020-09-06T10:05:15Z</time>
      </trkpt>
      <trkpt lat="37.2174909152" lon="-3.3568466082">
        <ele>1407.51</ele>
        <time>2020-09-06T10:05:17Z</time>
      </trkpt>
      <trkpt lat="37.2175313998" lon="-3.3567620348">
        <ele>1407.51</ele>
        <time>2020-09-06T10:05:18Z</time>
      </trkpt>
      <trkpt lat="37.2176097706" lon="-3.3565900382">
        <ele>1406.55</ele>
        <time>2020-09-06T10:05:20Z</time>
      </trkpt>
      <trkpt lat="37.2176737245" lon="-3.3565260004">
        <ele>1405.58</ele>
        <time>2020-09-06T10:05:21Z</time>
      </trkpt>
      <trkpt lat="37.2177442163" lon="-3.3564649802">
        <ele>1404.62</ele>
        <time>2020-09-06T10:05:22Z</time>
      </trkpt>
      <trkpt lat="37.2178105172" lon="-3.3563913032">
        <ele>1404.62</ele>
        <time>2020-09-06T10:05:23Z</time>
      </trkpt>
      <trkpt lat="37.2178723756" lon="-3.3563167881">
        <ele>1404.14</ele>
        <time>2020-09-06T10:05:24Z</time>
      </trkpt>
      <trkpt lat="37.2179412749" lon="-3.3562552650">
        <ele>1403.18</ele>
        <time>2020-09-06T10:05:25Z</time>
      </trkpt>
      <trkpt lat="37.2180184722" lon="-3.3562198095">
        <ele>1402.70</ele>
        <time>2020-09-06T10:05:26Z</time>
      </trkpt>
      <trkpt lat="37.2181036323" lon="-3.3562074881">
        <ele>1402.70</ele>
        <time>2020-09-06T10:05:27Z</time>
      </trkpt>
      <trkpt lat="37.2181839310" lon="-3.3561835159">
        <ele>1401.74</ele>
        <time>2020-09-06T10:05:28Z</time>
      </trkpt>
      <trkpt lat="37.2182474658" lon="-3.3561276924">
        <ele>1400.30</ele>
        <time>2020-09-06T10:05:29Z</time>
      </trkpt>
      <trkpt lat="37.2182996850" lon="-3.3560442086">
        <ele>1400.30</ele>
        <time>2020-09-06T10:05:30Z</time>
      </trkpt>
      <trkpt lat="37.2183486354" lon="-3.3559738845">
        <ele>1398.86</ele>
        <time>2020-09-06T10:05:31Z</time>
      </trkpt>
      <trkpt lat="37.2184071410" lon="-3.3559406083">
        <ele>1398.86</ele>
        <time>2020-09-06T10:05:32Z</time>
      </trkpt>
      <trkpt lat="37.2184696700" lon="-3.3559480682">
        <ele>1399.34</ele>
        <time>2020-09-06T10:05:33Z</time>
      </trkpt>
      <trkpt lat="37.2185344622" lon="-3.3559840266">
        <ele>1397.89</ele>
        <time>2020-09-06T10:05:34Z</time>
      </trkpt>
      <trkpt lat="37.2185936384" lon="-3.3560364135">
        <ele>1397.89</ele>
        <time>2020-09-06T10:05:35Z</time>
      </trkpt>
      <trkpt lat="37.2186346259" lon="-3.3560999483">
        <ele>1396.93</ele>
        <time>2020-09-06T10:05:36Z</time>
      </trkpt>
      <trkpt lat="37.2186516412" lon="-3.3561837673">
        <ele>1396.45</ele>
        <time>2020-09-06T10:05:37Z</time>
      </trkpt>
      <trkpt lat="37.2186534014" lon="-3.3562771417">
        <ele>1395.49</ele>
        <time>2020-09-06T10:05:38Z</time>
      </trkpt>
      <trkpt lat="37.2186580114" lon="-3.3563741203">
        <ele>1394.53</ele>
        <time>2020-09-06T10:05:39Z</time>
      </trkpt>
      <trkpt lat="37.2186740208" lon="-3.3564646449">
        <ele>1393.57</ele>
        <time>2020-09-06T10:05:40Z</time>
      </trkpt>
      <trkpt lat="37.2187082190" lon="-3.3565388247">
        <ele>1393.57</ele>
        <time>2020-09-06T10:05:41Z</time>
      </trkpt>
      <trkpt lat="37.2187627852" lon="-3.3565839194">
        <ele>1392.61</ele>
        <time>2020-09-06T10:05:42Z</time>
      </trkpt>
      <trkpt lat="37.2188276611" lon="-3.3565948159">
        <ele>1392.61</ele>
        <time>2020-09-06T10:05:43Z</time>
      </trkpt>
      <trkpt lat="37.2188974824" lon="-3.3566012699">
        <ele>1392.13</ele>
        <time>2020-09-06T10:05:44Z</time>
      </trkpt>
      <trkpt lat="37.2189571615" lon="-3.3566355519">
        <ele>1391.17</ele>
        <time>2020-09-06T10:05:45Z</time>
      </trkpt>
      <trkpt lat="37.2189964727" lon="-3.3566996735">
        <ele>1390.68</ele>
        <time>2020-09-06T10:05:46Z</time>
      </trkpt>
      <trkpt lat="37.2190183494" lon="-3.3567793015">
        <ele>1390.20</ele>
        <time>2020-09-06T10:05:47Z</time>
      </trkpt>
      <trkpt lat="37.2190412320" lon="-3.3568664733">
        <ele>1389.72</ele>
        <time>2020-09-06T10:05:48Z</time>
      </trkpt>
      <trkpt lat="37.2191234585" lon="-3.3571289945">
        <ele>1387.80</ele>
        <time>2020-09-06T10:05:51Z</time>
      </trkpt>
      <trkpt lat="37.2191744205" lon="-3.3571714908">
        <ele>1387.80</ele>
        <time>2020-09-06T10:05:52Z</time>
      </trkpt>
      <trkpt lat="37.2192249633" lon="-3.3571682218">
        <ele>1387.80</ele>
        <time>2020-09-06T10:05:53Z</time>
      </trkpt>
      <trkpt lat="37.2192656994" lon="-3.3571312577">
        <ele>1387.32</ele>
        <time>2020-09-06T10:05:54Z</time>
      </trkpt>
      <trkpt lat="37.2192870732" lon="-3.3570713270">
        <ele>1387.32</ele>
        <time>2020-09-06T10:05:55Z</time>
      </trkpt>
      <trkpt lat="37.2192919347" lon="-3.3569977339">
        <ele>1387.32</ele>
        <time>2020-09-06T10:05:56Z</time>
      </trkpt>
      <trkpt lat="37.2192858998" lon="-3.3569140825">
        <ele>1386.84</ele>
        <time>2020-09-06T10:05:57Z</time>
      </trkpt>
      <trkpt lat="37.2192834690" lon="-3.3568244800">
        <ele>1386.36</ele>
        <time>2020-09-06T10:05:58Z</time>
      </trkpt>
      <trkpt lat="37.2192958742" lon="-3.3567269985">
        <ele>1385.88</ele>
        <time>2020-09-06T10:05:59Z</time>
      </trkpt>
      <trkpt lat="37.2193252109" lon="-3.3566197101">
        <ele>1385.40</ele>
        <time>2020-09-06T10:06:00Z</time>
      </trkpt>
      <trkpt lat="37.2193607502" lon="-3.3565181214">
        <ele>1384.92</ele>
        <time>2020-09-06T10:06:01Z</time>
      </trkpt>
      <trkpt lat="37.2194006480" lon="-3.3564151917">
        <ele>1383.96</ele>
        <time>2020-09-06T10:06:02Z</time>
      </trkpt>
      <trkpt lat="37.2194423899" lon="-3.3563121781">
        <ele>1383.96</ele>
        <time>2020-09-06T10:06:03Z</time>
      </trkpt>
      <trkpt lat="37.2196349222" lon="-3.3559789974">
        <ele>1381.55</ele>
        <time>2020-09-06T10:06:07Z</time>
      </trkpt>
      <trkpt lat="37.2196900751" lon="-3.3559712861">
        <ele>1380.59</ele>
        <time>2020-09-06T10:06:08Z</time>
      </trkpt>
      <trkpt lat="37.2197419591" lon="-3.3559998684">
        <ele>1380.11</ele>
        <time>2020-09-06T10:06:09Z</time>
      </trkpt>
      <trkpt lat="37.2198524326" lon="-3.3560782392">
        <ele>1378.67</ele>
        <time>2020-09-06T10:06:11Z</time>
      </trkpt>
      <trkpt lat="37.2199111897" lon="-3.3560649958">
        <ele>1378.19</ele>
        <time>2020-09-06T10:06:12Z</time>
      </trkpt>
      <trkpt lat="37.2199488245" lon="-3.3560132794">
        <ele>1378.19</ele>
        <time>2020-09-06T10:06:13Z</time>
      </trkpt>
      <trkpt lat="37.2199632414" lon="-3.3559439611">
        <ele>1378.19</ele>
        <time>2020-09-06T10:06:14Z</time>
      </trkpt>
      <trkpt lat="37.2199671809" lon="-3.3558670990">
        <ele>1378.19</ele>
        <time>2020-09-06T10:06:15Z</time>
      </trkpt>
      <trkpt lat="37.2199743893" lon="-3.3557825256">
        <ele>1378.19</ele>
        <time>2020-09-06T10:06:16Z</time>
      </trkpt>
      <trkpt lat="37.2200397681" lon="-3.3554128837">
        <ele>1377.23</ele>
        <time>2020-09-06T10:06:20Z</time>
      </trkpt>
      <trkpt lat="37.2200750560" lon="-3.3553211857">
        <ele>1376.26</ele>
        <time>2020-09-06T10:06:21Z</time>
      </trkpt>
      <trkpt lat="37.2201138642" lon="-3.3552228659">
        <ele>1376.26</ele>
        <time>2020-09-06T10:06:22Z</time>
      </trkpt>
      <trkpt lat="37.2201529238" lon="-3.3551330958">
        <ele>1376.26</ele>
        <time>2020-09-06T10:06:23Z</time>
      </trkpt>
      <trkpt lat="37.2202060651" lon="-3.3550505340">
        <ele>1375.30</ele>
        <time>2020-09-06T10:06:24Z</time>
      </trkpt>
      <trkpt lat="37.2202643193" lon="-3.3549703192">
        <ele>1374.82</ele>
        <time>2020-09-06T10:06:25Z</time>
      </trkpt>
      <trkpt lat="37.2203121800" lon="-3.3548879251">
        <ele>1374.82</ele>
        <time>2020-09-06T10:06:26Z</time>
      </trkpt>
      <trkpt lat="37.2203531675" lon="-3.3547777869">
        <ele>1373.38</ele>
        <time>2020-09-06T10:06:27Z</time>
      </trkpt>
      <trkpt lat="37.2203814983" lon="-3.3546841610">
        <ele>1373.38</ele>
        <time>2020-09-06T10:06:28Z</time>
      </trkpt>
      <trkpt lat="37.2204297781" lon="-3.3544611186">
        <ele>1372.42</ele>
        <time>2020-09-06T10:06:30Z</time>
      </trkpt>
      <trkpt lat="37.2204439435" lon="-3.3543393295">
        <ele>1371.94</ele>
        <time>2020-09-06T10:06:31Z</time>
      </trkpt>
      <trkpt lat="37.2204507329" lon="-3.3542281017">
        <ele>1371.46</ele>
        <time>2020-09-06T10:06:32Z</time>
      </trkpt>
      <trkpt lat="37.2204654850" lon="-3.3536153007">
        <ele>1370.98</ele>
        <time>2020-09-06T10:06:38Z</time>
      </trkpt>
      <trkpt lat="37.2204789799" lon="-3.3535085153">
        <ele>1370.02</ele>
        <time>2020-09-06T10:06:39Z</time>
      </trkpt>
      <trkpt lat="37.2205019463" lon="-3.3534129616">
        <ele>1369.54</ele>
        <time>2020-09-06T10:06:40Z</time>
      </trkpt>
      <trkpt lat="37.2205368988" lon="-3.3533098642">
        <ele>1368.57</ele>
        <time>2020-09-06T10:06:41Z</time>
      </trkpt>
      <trkpt lat="37.2205781378" lon="-3.3532037493">
        <ele>1367.61</ele>
        <time>2020-09-06T10:06:42Z</time>
      </trkpt>
      <trkpt lat="37.2207569238" lon="-3.3527607657">
        <ele>1363.29</ele>
        <time>2020-09-06T10:06:46Z</time>
      </trkpt>
      <trkpt lat="37.2208098974" lon="-3.3526609372">
        <ele>1362.33</ele>
        <time>2020-09-06T10:06:47Z</time>
      </trkpt>
      <trkpt lat="37.2209285852" lon="-3.3524782956">
        <ele>1360.40</ele>
        <time>2020-09-06T10:06:49Z</time>
      </trkpt>
      <trkpt lat="37.2213315871" lon="-3.3520419337">
        <ele>1357.04</ele>
        <time>2020-09-06T10:06:54Z</time>
      </trkpt>
      <trkpt lat="37.2214278113" lon="-3.3519750461">
        <ele>1357.04</ele>
        <time>2020-09-06T10:06:55Z</time>
      </trkpt>
      <trkpt lat="37.2215289809" lon="-3.3519246709">
        <ele>1356.08</ele>
        <time>2020-09-06T10:06:56Z</time>
      </trkpt>
      <trkpt lat="37.2216338385" lon="-3.3518909756">
        <ele>1355.60</ele>
        <time>2020-09-06T10:06:57Z</time>
      </trkpt>
      <trkpt lat="37.2217410430" lon="-3.3518691827">
        <ele>1355.60</ele>
        <time>2020-09-06T10:06:58Z</time>
      </trkpt>
      <trkpt lat="37.2218445595" lon="-3.3518574480">
        <ele>1355.60</ele>
        <time>2020-09-06T10:06:59Z</time>
      </trkpt>
      <trkpt lat="37.2219450586" lon="-3.3518444560">
        <ele>1354.63</ele>
        <time>2020-09-06T10:07:00Z</time>
      </trkpt>
      <trkpt lat="37.2220413666" lon="-3.3518215735">
        <ele>1354.63</ele>
        <time>2020-09-06T10:07:01Z</time>
      </trkpt>
      <trkpt lat="37.2221293766" lon="-3.3517846093">
        <ele>1354.15</ele>
        <time>2020-09-06T10:07:02Z</time>
      </trkpt>
      <trkpt lat="37.2222123574" lon="-3.3517424483">
        <ele>1354.15</ele>
        <time>2020-09-06T10:07:03Z</time>
      </trkpt>
      <trkpt lat="37.2225571051" lon="-3.3515339065">
        <ele>1353.19</ele>
        <time>2020-09-06T10:07:07Z</time>
      </trkpt>
      <trkpt lat="37.2230711672" lon="-3.3510725666">
        <ele>1352.23</ele>
        <time>2020-09-06T10:07:14Z</time>
      </trkpt>
      <trkpt lat="37.2230956424" lon="-3.3509937767">
        <ele>1351.27</ele>
        <time>2020-09-06T10:07:15Z</time>
      </trkpt>
      <trkpt lat="37.2231032699" lon="-3.3509104606">
        <ele>1351.27</ele>
        <time>2020-09-06T10:07:16Z</time>
      </trkpt>
      <trkpt lat="37.2231098916" lon="-3.3508235402">
        <ele>1351.27</ele>
        <time>2020-09-06T10:07:17Z</time>
      </trkpt>
      <trkpt lat="37.2231248952" lon="-3.3507372905">
        <ele>1350.79</ele>
        <time>2020-09-06T10:07:18Z</time>
      </trkpt>
      <trkpt lat="37.2231428325" lon="-3.3506458439">
        <ele>1350.31</ele>
        <time>2020-09-06T10:07:19Z</time>
      </trkpt>
      <trkpt lat="37.2231597640" lon="-3.3505557384">
        <ele>1350.31</ele>
        <time>2020-09-06T10:07:20Z</time>
      </trkpt>
      <trkpt lat="37.2231797129" lon="-3.3504639566">
        <ele>1349.35</ele>
        <time>2020-09-06T10:07:21Z</time>
      </trkpt>
      <trkpt lat="37.2232724167" lon="-3.3499560133">
        <ele>1348.87</ele>
        <time>2020-09-06T10:07:26Z</time>
      </trkpt>
      <trkpt lat="37.2232735064" lon="-3.3498451207">
        <ele>1347.91</ele>
        <time>2020-09-06T10:07:27Z</time>
      </trkpt>
      <trkpt lat="37.2232569102" lon="-3.3497366589">
        <ele>1347.91</ele>
        <time>2020-09-06T10:07:28Z</time>
      </trkpt>
      <trkpt lat="37.2232355364" lon="-3.3496292867">
        <ele>1347.43</ele>
        <time>2020-09-06T10:07:29Z</time>
      </trkpt>
      <trkpt lat="37.2232303396" lon="-3.3495178912">
        <ele>1347.43</ele>
        <time>2020-09-06T10:07:30Z</time>
      </trkpt>
      <trkpt lat="37.2232439183" lon="-3.3494085073">
        <ele>1346.94</ele>
        <time>2020-09-06T10:07:31Z</time>
      </trkpt>
      <trkpt lat="37.2232796252" lon="-3.3492992911">
        <ele>1346.94</ele>
        <time>2020-09-06T10:07:32Z</time>
      </trkpt>
      <trkpt lat="37.2233314253" lon="-3.3492093533">
        <ele>1346.46</ele>
        <time>2020-09-06T10:07:33Z</time>
      </trkpt>
      <trkpt lat="37.2233979777" lon="-3.3491343353">
        <ele>1346.46</ele>
        <time>2020-09-06T10:07:34Z</time>
      </trkpt>
      <trkpt lat="37.2234738339" lon="-3.3490711357">
        <ele>1345.98</ele>
        <time>2020-09-06T10:07:35Z</time>
      </trkpt>
      <trkpt lat="37.2235532105" lon="-3.3490122948">
        <ele>1345.02</ele>
        <time>2020-09-06T10:07:36Z</time>
      </trkpt>
      <trkpt lat="37.2236272227" lon="-3.3489462454">
        <ele>1345.02</ele>
        <time>2020-09-06T10:07:37Z</time>
      </trkpt>
      <trkpt lat="37.2236957867" lon="-3.3488745801">
        <ele>1345.02</ele>
        <time>2020-09-06T10:07:38Z</time>
      </trkpt>
      <trkpt lat="37.2238438949" lon="-3.3487395477">
        <ele>1344.06</ele>
        <time>2020-09-06T10:07:40Z</time>
      </trkpt>
      <trkpt lat="37.2239282168" lon="-3.3487003203">
        <ele>1343.58</ele>
        <time>2020-09-06T10:07:41Z</time>
      </trkpt>
      <trkpt lat="37.2240175679" lon="-3.3486725762">
        <ele>1342.62</ele>
        <time>2020-09-06T10:07:42Z</time>
      </trkpt>
      <trkpt lat="37.2241181508" lon="-3.3486427367">
        <ele>1342.14</ele>
        <time>2020-09-06T10:07:43Z</time>
      </trkpt>
      <trkpt lat="37.2245631460" lon="-3.3484600112">
        <ele>1337.81</ele>
        <time>2020-09-06T10:07:48Z</time>
      </trkpt>
      <trkpt lat="37.2247286048" lon="-3.3483813051">
        <ele>1336.85</ele>
        <time>2020-09-06T10:07:50Z</time>
      </trkpt>
      <trkpt lat="37.2252418287" lon="-3.3481175266">
        <ele>1335.41</ele>
        <time>2020-09-06T10:07:56Z</time>
      </trkpt>
      <trkpt lat="37.2254090477" lon="-3.3480560035">
        <ele>1335.89</ele>
        <time>2020-09-06T10:07:58Z</time>
      </trkpt>
      <trkpt lat="37.2254834790" lon="-3.3480049577">
        <ele>1335.41</ele>
        <time>2020-09-06T10:07:59Z</time>
      </trkpt>
      <trkpt lat="37.2255469300" lon="-3.3479347173">
        <ele>1335.41</ele>
        <time>2020-09-06T10:08:00Z</time>
      </trkpt>
      <trkpt lat="37.2256068606" lon="-3.3478510659">
        <ele>1335.41</ele>
        <time>2020-09-06T10:08:01Z</time>
      </trkpt>
      <trkpt lat="37.2256659530" lon="-3.3477717731">
        <ele>1335.41</ele>
        <time>2020-09-06T10:08:02Z</time>
      </trkpt>
      <trkpt lat="37.2257322539" lon="-3.3477007784">
        <ele>1334.93</ele>
        <time>2020-09-06T10:08:03Z</time>
      </trkpt>
      <trkpt lat="37.2258072719" lon="-3.3476455417">
        <ele>1334.45</ele>
        <time>2020-09-06T10:08:04Z</time>
      </trkpt>
      <trkpt lat="37.2258889955" lon="-3.3476079069">
        <ele>1334.45</ele>
        <time>2020-09-06T10:08:05Z</time>
      </trkpt>
      <trkpt lat="37.2259728983" lon="-3.3475749660">
        <ele>1333.97</ele>
        <time>2020-09-06T10:08:06Z</time>
      </trkpt>
      <trkpt lat="37.2260505985" lon="-3.3475200646">
        <ele>1333.97</ele>
        <time>2020-09-06T10:08:07Z</time>
      </trkpt>
      <trkpt lat="37.2261064220" lon="-3.3474455494">
        <ele>1333.01</ele>
        <time>2020-09-06T10:08:08Z</time>
      </trkpt>
      <trkpt lat="37.2261488345" lon="-3.3473614790">
        <ele>1333.01</ele>
        <time>2020-09-06T10:08:09Z</time>
      </trkpt>
      <trkpt lat="37.2261974495" lon="-3.3472810965">
        <ele>1333.01</ele>
        <time>2020-09-06T10:08:10Z</time>
      </trkpt>
      <trkpt lat="37.2262576316" lon="-3.3472118620">
        <ele>1333.01</ele>
        <time>2020-09-06T10:08:11Z</time>
      </trkpt>
      <trkpt lat="37.2263273690" lon="-3.3471531887">
        <ele>1333.01</ele>
        <time>2020-09-06T10:08:12Z</time>
      </trkpt>
      <trkpt lat="37.2264020517" lon="-3.3471017238">
        <ele>1331.56</ele>
        <time>2020-09-06T10:08:13Z</time>
      </trkpt>
      <trkpt lat="37.2264802549" lon="-3.3470490854">
        <ele>1331.56</ele>
        <time>2020-09-06T10:08:14Z</time>
      </trkpt>
      <trkpt lat="37.2266385891" lon="-3.3469330799">
        <ele>1329.64</ele>
        <time>2020-09-06T10:08:16Z</time>
      </trkpt>
      <trkpt lat="37.2267229110" lon="-3.3468868118">
        <ele>1329.64</ele>
        <time>2020-09-06T10:08:17Z</time>
      </trkpt>
      <trkpt lat="37.2268146090" lon="-3.3468499314">
        <ele>1328.20</ele>
        <time>2020-09-06T10:08:18Z</time>
      </trkpt>
      <trkpt lat="37.2269933950" lon="-3.3467910904">
        <ele>1326.76</ele>
        <time>2020-09-06T10:08:20Z</time>
      </trkpt>
      <trkpt lat="37.2270817403" lon="-3.3467760030">
        <ele>1326.76</ele>
        <time>2020-09-06T10:08:21Z</time>
      </trkpt>
      <trkpt lat="37.2271587700" lon="-3.3467549644">
        <ele>1326.28</ele>
        <time>2020-09-06T10:08:22Z</time>
      </trkpt>
      <trkpt lat="37.2272396553" lon="-3.3467075229">
        <ele>1326.28</ele>
        <time>2020-09-06T10:08:23Z</time>
      </trkpt>
      <trkpt lat="37.2273761965" lon="-3.3465803694">
        <ele>1325.31</ele>
        <time>2020-09-06T10:08:25Z</time>
      </trkpt>
      <trkpt lat="37.2274383903" lon="-3.3465237916">
        <ele>1323.87</ele>
        <time>2020-09-06T10:08:26Z</time>
      </trkpt>
      <trkpt lat="37.2275046911" lon="-3.3465006575">
        <ele>1322.91</ele>
        <time>2020-09-06T10:08:27Z</time>
      </trkpt>
      <trkpt lat="37.2275770269" lon="-3.3465133980">
        <ele>1322.43</ele>
        <time>2020-09-06T10:08:28Z</time>
      </trkpt>
      <trkpt lat="37.2276443336" lon="-3.3465491887">
        <ele>1321.95</ele>
        <time>2020-09-06T10:08:29Z</time>
      </trkpt>
      <trkpt lat="37.2277153283" lon="-3.3465950377">
        <ele>1320.99</ele>
        <time>2020-09-06T10:08:30Z</time>
      </trkpt>
      <trkpt lat="37.2277918551" lon="-3.3466425631">
        <ele>1320.99</ele>
        <time>2020-09-06T10:08:31Z</time>
      </trkpt>
      <trkpt lat="37.2280884068" lon="-3.3468330838">
        <ele>1319.55</ele>
        <time>2020-09-06T10:08:35Z</time>
      </trkpt>
      <trkpt lat="37.2286675964" lon="-3.3470303100">
        <ele>1317.14</ele>
        <time>2020-09-06T10:08:42Z</time>
      </trkpt>
      <trkpt lat="37.2287523374" lon="-3.3470438048">
        <ele>1317.14</ele>
        <time>2020-09-06T10:08:43Z</time>
      </trkpt>
      <trkpt lat="37.2288395930" lon="-3.3470557909">
        <ele>1317.14</ele>
        <time>2020-09-06T10:08:44Z</time>
      </trkpt>
      <trkpt lat="37.2289115936" lon="-3.3470718004">
        <ele>1317.14</ele>
        <time>2020-09-06T10:08:45Z</time>
      </trkpt>
      <trkpt lat="37.2289906349" lon="-3.3471043222">
        <ele>1317.14</ele>
        <time>2020-09-06T10:08:46Z</time>
      </trkpt>
      <trkpt lat="37.2290610429" lon="-3.3471499197">
        <ele>1317.14</ele>
        <time>2020-09-06T10:08:47Z</time>
      </trkpt>
      <trkpt lat="37.2291252483" lon="-3.3472057432">
        <ele>1317.14</ele>
        <time>2020-09-06T10:08:48Z</time>
      </trkpt>
      <trkpt lat="37.2291810717" lon="-3.3472716250">
        <ele>1317.14</ele>
        <time>2020-09-06T10:08:49Z</time>
      </trkpt>
      <trkpt lat="37.2292331234" lon="-3.3473371714">
        <ele>1317.14</ele>
        <time>2020-09-06T10:08:50Z</time>
      </trkpt>
      <trkpt lat="37.2293010168" lon="-3.3473898098">
        <ele>1317.14</ele>
        <time>2020-09-06T10:08:51Z</time>
      </trkpt>
      <trkpt lat="37.2293713409" lon="-3.3474130277">
        <ele>1317.14</ele>
        <time>2020-09-06T10:08:52Z</time>
      </trkpt>
      <trkpt lat="37.2294417489" lon="-3.3474257682">
        <ele>1317.14</ele>
        <time>2020-09-06T10:08:53Z</time>
      </trkpt>
      <trkpt lat="37.2295100614" lon="-3.3474455494">
        <ele>1317.14</ele>
        <time>2020-09-06T10:08:54Z</time>
      </trkpt>
      <trkpt lat="37.2296616063" lon="-3.3474955894">
        <ele>1317.14</ele>
        <time>2020-09-06T10:08:56Z</time>
      </trkpt>
      <trkpt lat="37.2297383007" lon="-3.3475156222">
        <ele>1317.14</ele>
        <time>2020-09-06T10:08:57Z</time>
      </trkpt>
      <trkpt lat="37.2298034281" lon="-3.3475509938">
        <ele>1317.14</ele>
        <time>2020-09-06T10:08:58Z</time>
      </trkpt>
      <trkpt lat="37.2298610955" lon="-3.3476050571">
        <ele>1317.14</ele>
        <time>2020-09-06T10:08:59Z</time>
      </trkpt>
      <trkpt lat="37.2299094591" lon="-3.3476640657">
        <ele>1317.14</ele>
        <time>2020-09-06T10:09:00Z</time>
      </trkpt>
      <trkpt lat="37.2299606726" lon="-3.3477358148">
        <ele>1317.14</ele>
        <time>2020-09-06T10:09:01Z</time>
      </trkpt>
      <trkpt lat="37.2302236967" lon="-3.3480871003">
        <ele>1316.66</ele>
        <time>2020-09-06T10:09:06Z</time>
      </trkpt>
      <trkpt lat="37.2302869800" lon="-3.3481425885">
        <ele>1315.70</ele>
        <time>2020-09-06T10:09:07Z</time>
      </trkpt>
      <trkpt lat="37.2303634230" lon="-3.3481867611">
        <ele>1315.70</ele>
        <time>2020-09-06T10:09:08Z</time>
      </trkpt>
      <trkpt lat="37.2304376028" lon="-3.3482181933">
        <ele>1315.70</ele>
        <time>2020-09-06T10:09:09Z</time>
      </trkpt>
      <trkpt lat="37.2305189911" lon="-3.3482447639">
        <ele>1315.22</ele>
        <time>2020-09-06T10:09:10Z</time>
      </trkpt>
      <trkpt lat="37.2306000441" lon="-3.3482765313">
        <ele>1315.22</ele>
        <time>2020-09-06T10:09:11Z</time>
      </trkpt>
      <trkpt lat="37.2306689434" lon="-3.3483173512">
        <ele>1314.26</ele>
        <time>2020-09-06T10:09:12Z</time>
      </trkpt>
      <trkpt lat="37.2307280358" lon="-3.3483762760">
        <ele>1313.30</ele>
        <time>2020-09-06T10:09:13Z</time>
      </trkpt>
      <trkpt lat="37.2307784948" lon="-3.3484573290">
        <ele>1313.30</ele>
        <time>2020-09-06T10:09:14Z</time>
      </trkpt>
      <trkpt lat="37.2308154590" lon="-3.3485434949">
        <ele>1313.30</ele>
        <time>2020-09-06T10:09:15Z</time>
      </trkpt>
      <trkpt lat="37.2308440413" lon="-3.3486249670">
        <ele>1313.30</ele>
        <time>2020-09-06T10:09:16Z</time>
      </trkpt>
      <trkpt lat="37.2309121024" lon="-3.3488041721">
        <ele>1312.82</ele>
        <time>2020-09-06T10:09:18Z</time>
      </trkpt>
      <trkpt lat="37.2309606336" lon="-3.3488867339">
        <ele>1312.82</ele>
        <time>2020-09-06T10:09:19Z</time>
      </trkpt>
      <trkpt lat="37.2312835883" lon="-3.3493712917">
        <ele>1310.90</ele>
        <time>2020-09-06T10:09:25Z</time>
      </trkpt>
      <trkpt lat="37.2313489672" lon="-3.3494359162">
        <ele>1310.41</ele>
        <time>2020-09-06T10:09:26Z</time>
      </trkpt>
      <trkpt lat="37.2314226441" lon="-3.3494821843">
        <ele>1310.41</ele>
        <time>2020-09-06T10:09:27Z</time>
      </trkpt>
      <trkpt lat="37.2315723449" lon="-3.3495576214">
        <ele>1309.45</ele>
        <time>2020-09-06T10:09:29Z</time>
      </trkpt>
      <trkpt lat="37.2316415794" lon="-3.3496335614">
        <ele>1308.97</ele>
        <time>2020-09-06T10:09:30Z</time>
      </trkpt>
      <trkpt lat="37.2316863388" lon="-3.3497203141">
        <ele>1308.97</ele>
        <time>2020-09-06T10:09:31Z</time>
      </trkpt>
      <trkpt lat="37.2317169327" lon="-3.3498137724">
        <ele>1308.01</ele>
        <time>2020-09-06T10:09:32Z</time>
      </trkpt>
      <trkpt lat="37.2317403182" lon="-3.3499029558">
        <ele>1308.49</ele>
        <time>2020-09-06T10:09:33Z</time>
      </trkpt>
      <trkpt lat="37.2317754384" lon="-3.3499970008">
        <ele>1308.01</ele>
        <time>2020-09-06T10:09:34Z</time>
      </trkpt>
      <trkpt lat="37.2318139113" lon="-3.3500607032">
        <ele>1308.01</ele>
        <time>2020-09-06T10:09:35Z</time>
      </trkpt>
      <trkpt lat="37.2318684775" lon="-3.3501128387">
        <ele>1307.53</ele>
        <time>2020-09-06T10:09:36Z</time>
      </trkpt>
      <trkpt lat="37.2319345269" lon="-3.3501483779">
        <ele>1307.53</ele>
        <time>2020-09-06T10:09:37Z</time>
      </trkpt>
      <trkpt lat="37.2320055217" lon="-3.3501625434">
        <ele>1307.53</ele>
        <time>2020-09-06T10:09:38Z</time>
      </trkpt>
      <trkpt lat="37.2320750915" lon="-3.3501653932">
        <ele>1307.53</ele>
        <time>2020-09-06T10:09:39Z</time>
      </trkpt>
      <trkpt lat="37.2321391292" lon="-3.3501722664">
        <ele>1308.01</ele>
        <time>2020-09-06T10:09:40Z</time>
      </trkpt>
      <trkpt lat="37.2322093695" lon="-3.3502031956">
        <ele>1307.53</ele>
        <time>2020-09-06T10:09:41Z</time>
      </trkpt>
      <trkpt lat="37.2322597448" lon="-3.3502461948">
        <ele>1308.01</ele>
        <time>2020-09-06T10:09:42Z</time>
      </trkpt>
      <trkpt lat="37.2323736548" lon="-3.3503637090">
        <ele>1307.53</ele>
        <time>2020-09-06T10:09:44Z</time>
      </trkpt>
      <trkpt lat="37.2324434761" lon="-3.3504041936">
        <ele>1307.05</ele>
        <time>2020-09-06T10:09:45Z</time>
      </trkpt>
      <trkpt lat="37.2325075977" lon="-3.3504193649">
        <ele>1307.05</ele>
        <time>2020-09-06T10:09:46Z</time>
      </trkpt>
      <trkpt lat="37.2325677797" lon="-3.3504149225">
        <ele>1307.05</ele>
        <time>2020-09-06T10:09:47Z</time>
      </trkpt>
      <trkpt lat="37.2326282132" lon="-3.3503916208">
        <ele>1307.05</ele>
        <time>2020-09-06T10:09:48Z</time>
      </trkpt>
      <trkpt lat="37.2326967772" lon="-3.3503488731">
        <ele>1307.05</ele>
        <time>2020-09-06T10:09:49Z</time>
      </trkpt>
      <trkpt lat="37.2327483259" lon="-3.3503027726">
        <ele>1307.05</ele>
        <time>2020-09-06T10:09:50Z</time>
      </trkpt>
      <trkpt lat="37.2328000423" lon="-3.3502435964">
        <ele>1306.57</ele>
        <time>2020-09-06T10:09:51Z</time>
      </trkpt>
      <trkpt lat="37.2328541894" lon="-3.3501819894">
        <ele>1306.57</ele>
        <time>2020-09-06T10:09:52Z</time>
      </trkpt>
      <trkpt lat="37.2329126112" lon="-3.3501589391">
        <ele>1306.57</ele>
        <time>2020-09-06T10:09:53Z</time>
      </trkpt>
      <trkpt lat="37.2329884674" lon="-3.3501798939">
        <ele>1306.57</ele>
        <time>2020-09-06T10:09:54Z</time>
      </trkpt>
      <trkpt lat="37.2330478113" lon="-3.3502309397">
        <ele>1305.61</ele>
        <time>2020-09-06T10:09:55Z</time>
      </trkpt>
      <trkpt lat="37.2330820095" lon="-3.3503057063">
        <ele>1305.61</ele>
        <time>2020-09-06T10:09:56Z</time>
      </trkpt>
      <trkpt lat="37.2330841050" lon="-3.3503716718">
        <ele>1304.65</ele>
        <time>2020-09-06T10:09:57Z</time>
      </trkpt>
      <trkpt lat="37.2330638207" lon="-3.3504458517">
        <ele>1304.17</ele>
        <time>2020-09-06T10:09:58Z</time>
      </trkpt>
      <trkpt lat="37.2330322210" lon="-3.3505138289">
        <ele>1303.20</ele>
        <time>2020-09-06T10:09:59Z</time>
      </trkpt>
      <trkpt lat="37.2329968493" lon="-3.3505878411">
        <ele>1302.72</ele>
        <time>2020-09-06T10:10:00Z</time>
      </trkpt>
      <trkpt lat="37.2329628188" lon="-3.3506781142">
        <ele>1301.76</ele>
        <time>2020-09-06T10:10:01Z</time>
      </trkpt>
      <trkpt lat="37.2329438757" lon="-3.3507758472">
        <ele>1301.28</ele>
        <time>2020-09-06T10:10:02Z</time>
      </trkpt>
      <trkpt lat="37.2329418641" lon="-3.3508738317">
        <ele>1300.80</ele>
        <time>2020-09-06T10:10:03Z</time>
      </trkpt>
      <trkpt lat="37.2329499107" lon="-3.3509701397">
        <ele>1300.80</ele>
        <time>2020-09-06T10:10:04Z</time>
      </trkpt>
      <trkpt lat="37.2329605557" lon="-3.3510665316">
        <ele>1299.36</ele>
        <time>2020-09-06T10:10:05Z</time>
      </trkpt>
      <trkpt lat="37.2330217436" lon="-3.3513483312">
        <ele>1298.40</ele>
        <time>2020-09-06T10:10:08Z</time>
      </trkpt>
      <trkpt lat="37.2330537625" lon="-3.3514329884">
        <ele>1298.40</ele>
        <time>2020-09-06T10:10:09Z</time>
      </trkpt>
      <trkpt lat="37.2330903076" lon="-3.3515123650">
        <ele>1297.92</ele>
        <time>2020-09-06T10:10:10Z</time>
      </trkpt>
      <trkpt lat="37.2331384197" lon="-3.3515781630">
        <ele>1297.92</ele>
        <time>2020-09-06T10:10:11Z</time>
      </trkpt>
      <trkpt lat="37.2331983503" lon="-3.3516424522">
        <ele>1297.92</ele>
        <time>2020-09-06T10:10:12Z</time>
      </trkpt>
      <trkpt lat="37.2332555987" lon="-3.3517173026">
        <ele>1297.92</ele>
        <time>2020-09-06T10:10:13Z</time>
      </trkpt>
      <trkpt lat="37.2333015315" lon="-3.3518084139">
        <ele>1297.92</ele>
        <time>2020-09-06T10:10:14Z</time>
      </trkpt>
      <trkpt lat="37.2333420999" lon="-3.3519019559">
        <ele>1297.92</ele>
        <time>2020-09-06T10:10:15Z</time>
      </trkpt>
      <trkpt lat="37.2333738673" lon="-3.3519763034">
        <ele>1296.96</ele>
        <time>2020-09-06T10:10:16Z</time>
      </trkpt>
      <trkpt lat="37.2334054671" lon="-3.3520616312">
        <ele>1296.96</ele>
        <time>2020-09-06T10:10:17Z</time>
      </trkpt>
      <trkpt lat="37.2334334627" lon="-3.3521568496">
        <ele>1295.99</ele>
        <time>2020-09-06T10:10:18Z</time>
      </trkpt>
      <trkpt lat="37.2334599495" lon="-3.3522617910">
        <ele>1295.51</ele>
        <time>2020-09-06T10:10:19Z</time>
      </trkpt>
      <trkpt lat="37.2334845923" lon="-3.3523649722">
        <ele>1294.55</ele>
        <time>2020-09-06T10:10:20Z</time>
      </trkpt>
      <trkpt lat="37.2335201316" lon="-3.3524598554">
        <ele>1295.03</ele>
        <time>2020-09-06T10:10:21Z</time>
      </trkpt>
      <trkpt lat="37.2335688304" lon="-3.3525292575">
        <ele>1294.55</ele>
        <time>2020-09-06T10:10:22Z</time>
      </trkpt>
      <trkpt lat="37.2336161043" lon="-3.3525897749">
        <ele>1294.55</ele>
        <time>2020-09-06T10:10:23Z</time>
      </trkpt>
      <trkpt lat="37.2336507216" lon="-3.3526590932">
        <ele>1294.55</ele>
        <time>2020-09-06T10:10:24Z</time>
      </trkpt>
      <trkpt lat="37.2336807288" lon="-3.3527453430">
        <ele>1294.55</ele>
        <time>2020-09-06T10:10:25Z</time>
      </trkpt>
      <trkpt lat="37.2337029409" lon="-3.3528170083">
        <ele>1294.55</ele>
        <time>2020-09-06T10:10:26Z</time>
      </trkpt>
      <trkpt lat="37.2337576747" lon="-3.3529708162">
        <ele>1294.55</ele>
        <time>2020-09-06T10:10:28Z</time>
      </trkpt>
      <trkpt lat="37.2337948903" lon="-3.3530272264">
        <ele>1294.55</ele>
        <time>2020-09-06T10:10:29Z</time>
      </trkpt>
      <trkpt lat="37.2338362969" lon="-3.3530722372">
        <ele>1294.55</ele>
        <time>2020-09-06T10:10:30Z</time>
      </trkpt>
      <trkpt lat="37.2338828165" lon="-3.3531130571">
        <ele>1295.51</ele>
        <time>2020-09-06T10:10:31Z</time>
      </trkpt>
      <trkpt lat="37.2339346167" lon="-3.3531549666">
        <ele>1295.51</ele>
        <time>2020-09-06T10:10:32Z</time>
      </trkpt>
      <trkpt lat="37.2339875903" lon="-3.3531918470">
        <ele>1295.51</ele>
        <time>2020-09-06T10:10:33Z</time>
      </trkpt>
      <trkpt lat="37.2340958007" lon="-3.3532856405">
        <ele>1295.51</ele>
        <time>2020-09-06T10:10:35Z</time>
      </trkpt>
      <trkpt lat="37.2342545539" lon="-3.3534662705">
        <ele>1295.51</ele>
        <time>2020-09-06T10:10:38Z</time>
      </trkpt>
      <trkpt lat="37.2343106288" lon="-3.3535274584">
        <ele>1295.51</ele>
        <time>2020-09-06T10:10:39Z</time>
      </trkpt>
      <trkpt lat="37.2343594953" lon="-3.3535991237">
        <ele>1294.55</ele>
        <time>2020-09-06T10:10:40Z</time>
      </trkpt>
      <trkpt lat="37.2343993932" lon="-3.3536818530">
        <ele>1294.55</ele>
        <time>2020-09-06T10:10:41Z</time>
      </trkpt>
      <trkpt lat="37.2344325855" lon="-3.3537707850">
        <ele>1294.55</ele>
        <time>2020-09-06T10:10:42Z</time>
      </trkpt>
      <trkpt lat="37.2344588209" lon="-3.3538656682">
        <ele>1294.55</ele>
        <time>2020-09-06T10:10:43Z</time>
      </trkpt>
      <trkpt lat="37.2344795242" lon="-3.3539571986">
        <ele>1294.55</ele>
        <time>2020-09-06T10:10:44Z</time>
      </trkpt>
      <trkpt lat="37.2344937734" lon="-3.3540457115">
        <ele>1294.55</ele>
        <time>2020-09-06T10:10:45Z</time>
      </trkpt>
      <trkpt lat="37.2344993893" lon="-3.3541385829">
        <ele>1294.55</ele>
        <time>2020-09-06T10:10:46Z</time>
      </trkpt>
      <trkpt lat="37.2344987188" lon="-3.3542104159">
        <ele>1294.55</ele>
        <time>2020-09-06T10:10:47Z</time>
      </trkpt>
      <trkpt lat="37.2344940249" lon="-3.3542894572">
        <ele>1294.55</ele>
        <time>2020-09-06T10:10:48Z</time>
      </trkpt>
      <trkpt lat="37.2344865650" lon="-3.3543676604">
        <ele>1294.55</ele>
        <time>2020-09-06T10:10:49Z</time>
      </trkpt>
      <trkpt lat="37.2344748303" lon="-3.3546735160">
        <ele>1295.51</ele>
        <time>2020-09-06T10:10:53Z</time>
      </trkpt>
      <trkpt lat="37.2344825417" lon="-3.3548526373">
        <ele>1295.51</ele>
        <time>2020-09-06T10:10:55Z</time>
      </trkpt>
      <trkpt lat="37.2345168237" lon="-3.3549351990">
        <ele>1293.59</ele>
        <time>2020-09-06T10:10:56Z</time>
      </trkpt>
      <trkpt lat="37.2345721442" lon="-3.3550061099">
        <ele>1293.59</ele>
        <time>2020-09-06T10:10:57Z</time>
      </trkpt>
      <trkpt lat="37.2346302308" lon="-3.3550641965">
        <ele>1293.11</ele>
        <time>2020-09-06T10:10:58Z</time>
      </trkpt>
      <trkpt lat="37.2346866410" lon="-3.3551173378">
        <ele>1293.11</ele>
        <time>2020-09-06T10:10:59Z</time>
      </trkpt>
      <trkpt lat="37.2347885650" lon="-3.3552225307">
        <ele>1293.11</ele>
        <time>2020-09-06T10:11:01Z</time>
      </trkpt>
      <trkpt lat="37.2348297201" lon="-3.3552800305">
        <ele>1293.11</ele>
        <time>2020-09-06T10:11:02Z</time>
      </trkpt>
      <trkpt lat="37.2348600626" lon="-3.3553454094">
        <ele>1294.55</ele>
        <time>2020-09-06T10:11:03Z</time>
      </trkpt>
      <trkpt lat="37.2348744795" lon="-3.3554218523">
        <ele>1294.55</ele>
        <time>2020-09-06T10:11:04Z</time>
      </trkpt>
      <trkpt lat="37.2348727193" lon="-3.3554994687">
        <ele>1294.55</ele>
        <time>2020-09-06T10:11:05Z</time>
      </trkpt>
      <trkpt lat="37.2348612361" lon="-3.3555858023">
        <ele>1293.11</ele>
        <time>2020-09-06T10:11:06Z</time>
      </trkpt>
      <trkpt lat="37.2348384373" lon="-3.3556802664">
        <ele>1292.15</ele>
        <time>2020-09-06T10:11:07Z</time>
      </trkpt>
      <trkpt lat="37.2348051611" lon="-3.3557754010">
        <ele>1291.67</ele>
        <time>2020-09-06T10:11:08Z</time>
      </trkpt>
      <trkpt lat="37.2347678617" lon="-3.3558722120">
        <ele>1291.19</ele>
        <time>2020-09-06T10:11:09Z</time>
      </trkpt>
      <trkpt lat="37.2346718051" lon="-3.3562983479">
        <ele>1289.27</ele>
        <time>2020-09-06T10:11:13Z</time>
      </trkpt>
      <trkpt lat="37.2346726432" lon="-3.3564047981">
        <ele>1288.78</ele>
        <time>2020-09-06T10:11:14Z</time>
      </trkpt>
      <trkpt lat="37.2347135469" lon="-3.3568285871">
        <ele>1286.38</ele>
        <time>2020-09-06T10:11:18Z</time>
      </trkpt>
      <trkpt lat="37.2347494215" lon="-3.3569199499">
        <ele>1286.38</ele>
        <time>2020-09-06T10:11:19Z</time>
      </trkpt>
      <trkpt lat="37.2348064184" lon="-3.3569899388">
        <ele>1285.90</ele>
        <time>2020-09-06T10:11:20Z</time>
      </trkpt>
      <trkpt lat="37.2348802630" lon="-3.3570345305">
        <ele>1285.42</ele>
        <time>2020-09-06T10:11:21Z</time>
      </trkpt>
      <trkpt lat="37.2349705361" lon="-3.3570585027">
        <ele>1284.94</ele>
        <time>2020-09-06T10:11:22Z</time>
      </trkpt>
      <trkpt lat="37.2350461408" lon="-3.3570679743">
        <ele>1284.94</ele>
        <time>2020-09-06T10:11:23Z</time>
      </trkpt>
      <trkpt lat="37.2351281997" lon="-3.3570818882">
        <ele>1284.94</ele>
        <time>2020-09-06T10:11:24Z</time>
      </trkpt>
      <trkpt lat="37.2352028824" lon="-3.3571077045">
        <ele>1283.98</ele>
        <time>2020-09-06T10:11:25Z</time>
      </trkpt>
      <trkpt lat="37.2352763917" lon="-3.3571590018">
        <ele>1283.98</ele>
        <time>2020-09-06T10:11:26Z</time>
      </trkpt>
      <trkpt lat="37.2353379149" lon="-3.3572294097">
        <ele>1283.50</ele>
        <time>2020-09-06T10:11:27Z</time>
      </trkpt>
      <trkpt lat="37.2353995219" lon="-3.3573073614">
        <ele>1283.02</ele>
        <time>2020-09-06T10:11:28Z</time>
      </trkpt>
      <trkpt lat="37.2354680020" lon="-3.3573810384">
        <ele>1281.57</ele>
        <time>2020-09-06T10:11:29Z</time>
      </trkpt>
      <trkpt lat="37.2355431039" lon="-3.3574443217">
        <ele>1281.57</ele>
        <time>2020-09-06T10:11:30Z</time>
      </trkpt>
      <trkpt lat="37.2356215585" lon="-3.3574969601">
        <ele>1282.06</ele>
        <time>2020-09-06T10:11:31Z</time>
      </trkpt>
      <trkpt lat="37.2360667214" lon="-3.3577490039">
        <ele>1281.09</ele>
        <time>2020-09-06T10:11:37Z</time>
      </trkpt>
      <trkpt lat="37.2361460980" lon="-3.3577487525">
        <ele>1280.13</ele>
        <time>2020-09-06T10:11:38Z</time>
      </trkpt>
      <trkpt lat="37.2362010833" lon="-3.3577246126">
        <ele>1280.13</ele>
        <time>2020-09-06T10:11:39Z</time>
      </trkpt>
      <trkpt lat="37.2362580802" lon="-3.3576802723">
        <ele>1280.13</ele>
        <time>2020-09-06T10:11:40Z</time>
      </trkpt>
      <trkpt lat="37.2363253031" lon="-3.3576408774">
        <ele>1279.65</ele>
        <time>2020-09-06T10:11:41Z</time>
      </trkpt>
      <trkpt lat="37.2363956273" lon="-3.3576344233">
        <ele>1279.65</ele>
        <time>2020-09-06T10:11:42Z</time>
      </trkpt>
      <trkpt lat="37.2364702262" lon="-3.3576392848">
        <ele>1279.65</ele>
        <time>2020-09-06T10:11:43Z</time>
      </trkpt>
      <trkpt lat="37.2365469206" lon="-3.3576306514">
        <ele>1279.17</ele>
        <time>2020-09-06T10:11:44Z</time>
      </trkpt>
      <trkpt lat="37.2366242856" lon="-3.3576034103">
        <ele>1279.17</ele>
        <time>2020-09-06T10:11:45Z</time>
      </trkpt>
      <trkpt lat="37.2366898321" lon="-3.3575704694">
        <ele>1278.21</ele>
        <time>2020-09-06T10:11:46Z</time>
      </trkpt>
      <trkpt lat="37.2367609106" lon="-3.3575225249">
        <ele>1278.21</ele>
        <time>2020-09-06T10:11:47Z</time>
      </trkpt>
      <trkpt lat="37.2368220147" lon="-3.3574688807">
        <ele>1278.21</ele>
        <time>2020-09-06T10:11:48Z</time>
      </trkpt>
      <trkpt lat="37.2368806880" lon="-3.3574095368">
        <ele>1278.21</ele>
        <time>2020-09-06T10:11:49Z</time>
      </trkpt>
      <trkpt lat="37.2369430494" lon="-3.3573587425">
        <ele>1277.25</ele>
        <time>2020-09-06T10:11:50Z</time>
      </trkpt>
      <trkpt lat="37.2370053269" lon="-3.3573258016">
        <ele>1277.25</ele>
        <time>2020-09-06T10:11:51Z</time>
      </trkpt>
      <trkpt lat="37.2370637488" lon="-3.3573169168">
        <ele>1277.25</ele>
        <time>2020-09-06T10:11:52Z</time>
      </trkpt>
      <trkpt lat="37.2371148784" lon="-3.3573431522">
        <ele>1276.29</ele>
        <time>2020-09-06T10:11:53Z</time>
      </trkpt>
      <trkpt lat="37.2371377610" lon="-3.3573891688">
        <ele>1276.29</ele>
        <time>2020-09-06T10:11:54Z</time>
      </trkpt>
      <trkpt lat="37.2371439636" lon="-3.3574393764">
        <ele>1276.29</ele>
        <time>2020-09-06T10:11:55Z</time>
      </trkpt>
      <trkpt lat="37.2371366713" lon="-3.3574876562">
        <ele>1276.29</ele>
        <time>2020-09-06T10:11:56Z</time>
      </trkpt>
      <trkpt lat="37.2371278703" lon="-3.3575305715">
        <ele>1276.29</ele>
        <time>2020-09-06T10:11:57Z</time>
      </trkpt>
      <trkpt lat="37.2371161357" lon="-3.3575817011">
        <ele>1276.29</ele>
        <time>2020-09-06T10:11:58Z</time>
      </trkpt>
      <trkpt lat="37.2370950133" lon="-3.3576916717">
        <ele>1276.29</ele>
        <time>2020-09-06T10:12:00Z</time>
      </trkpt>
      <trkpt lat="37.2370882239" lon="-3.3578008879">
        <ele>1277.73</ele>
        <time>2020-09-06T10:12:02Z</time>
      </trkpt>
      <trkpt lat="37.2370642517" lon="-3.3579480741">
        <ele>1277.73</ele>
        <time>2020-09-06T10:12:05Z</time>
      </trkpt>
      <trkpt lat="37.2370376810" lon="-3.3580499142">
        <ele>1277.73</ele>
        <time>2020-09-06T10:12:07Z</time>
      </trkpt>
      <trkpt lat="37.2370344959" lon="-3.3581023850">
        <ele>1278.69</ele>
        <time>2020-09-06T10:12:08Z</time>
      </trkpt>
      <trkpt lat="37.2370448057" lon="-3.3581625670">
        <ele>1278.69</ele>
        <time>2020-09-06T10:12:09Z</time>
      </trkpt>
      <trkpt lat="37.2370700352" lon="-3.3582087513">
        <ele>1278.69</ele>
        <time>2020-09-06T10:12:10Z</time>
      </trkpt>
      <trkpt lat="37.2371094301" lon="-3.3582476433">
        <ele>1278.69</ele>
        <time>2020-09-06T10:12:11Z</time>
      </trkpt>
      <trkpt lat="37.2371547762" lon="-3.3582795784">
        <ele>1278.69</ele>
        <time>2020-09-06T10:12:12Z</time>
      </trkpt>
      <trkpt lat="37.2372939996" lon="-3.3583748806">
        <ele>1278.69</ele>
        <time>2020-09-06T10:12:15Z</time>
      </trkpt>
      <trkpt lat="37.2373416089" lon="-3.3584126830">
        <ele>1278.69</ele>
        <time>2020-09-06T10:12:16Z</time>
      </trkpt>
      <trkpt lat="37.2373810038" lon="-3.3584478032">
        <ele>1278.69</ele>
        <time>2020-09-06T10:12:17Z</time>
      </trkpt>
      <trkpt lat="37.2374173813" lon="-3.3584895451">
        <ele>1279.17</ele>
        <time>2020-09-06T10:12:18Z</time>
      </trkpt>
      <trkpt lat="37.2374496516" lon="-3.3585349750">
        <ele>1279.17</ele>
        <time>2020-09-06T10:12:19Z</time>
      </trkpt>
      <trkpt lat="37.2374784853" lon="-3.3585832547">
        <ele>1280.13</ele>
        <time>2020-09-06T10:12:20Z</time>
      </trkpt>
      <trkpt lat="37.2375012841" lon="-3.3586363960">
        <ele>1280.13</ele>
        <time>2020-09-06T10:12:21Z</time>
      </trkpt>
      <trkpt lat="37.2375231609" lon="-3.3586917166">
        <ele>1280.13</ele>
        <time>2020-09-06T10:12:22Z</time>
      </trkpt>
      <trkpt lat="37.2375767212" lon="-3.3587954845">
        <ele>1279.65</ele>
        <time>2020-09-06T10:12:24Z</time>
      </trkpt>
      <trkpt lat="37.2376137692" lon="-3.3588373102">
        <ele>1279.65</ele>
        <time>2020-09-06T10:12:25Z</time>
      </trkpt>
      <trkpt lat="37.2376575228" lon="-3.3588691615">
        <ele>1280.61</ele>
        <time>2020-09-06T10:12:26Z</time>
      </trkpt>
      <trkpt lat="37.2377083171" lon="-3.3588946424">
        <ele>1280.13</ele>
        <time>2020-09-06T10:12:27Z</time>
      </trkpt>
      <trkpt lat="37.2377626318" lon="-3.3589137532">
        <ele>1280.13</ele>
        <time>2020-09-06T10:12:28Z</time>
      </trkpt>
      <trkpt lat="37.2378187906" lon="-3.3589338697">
        <ele>1280.13</ele>
        <time>2020-09-06T10:12:29Z</time>
      </trkpt>
      <trkpt lat="37.2378692497" lon="-3.3589715045">
        <ele>1280.13</ele>
        <time>2020-09-06T10:12:30Z</time>
      </trkpt>
      <trkpt lat="37.2379069682" lon="-3.3590278309">
        <ele>1280.13</ele>
        <time>2020-09-06T10:12:31Z</time>
      </trkpt>
      <trkpt lat="37.2379355505" lon="-3.3590988256">
        <ele>1280.13</ele>
        <time>2020-09-06T10:12:32Z</time>
      </trkpt>
      <trkpt lat="37.2379591037" lon="-3.3591776155">
        <ele>1278.69</ele>
        <time>2020-09-06T10:12:33Z</time>
      </trkpt>
      <trkpt lat="37.2379834112" lon="-3.3592602611">
        <ele>1278.69</ele>
        <time>2020-09-06T10:12:34Z</time>
      </trkpt>
      <trkpt lat="37.2380007617" lon="-3.3593492769">
        <ele>1277.73</ele>
        <time>2020-09-06T10:12:35Z</time>
      </trkpt>
      <trkpt lat="37.2380027734" lon="-3.3594423998">
        <ele>1277.25</ele>
        <time>2020-09-06T10:12:36Z</time>
      </trkpt>
      <trkpt lat="37.2379928827" lon="-3.3595351875">
        <ele>1277.25</ele>
        <time>2020-09-06T10:12:37Z</time>
      </trkpt>
      <trkpt lat="37.2379526496" lon="-3.3597174939">
        <ele>1276.77</ele>
        <time>2020-09-06T10:12:39Z</time>
      </trkpt>
      <trkpt lat="37.2379048727" lon="-3.3598962799">
        <ele>1275.81</ele>
        <time>2020-09-06T10:12:41Z</time>
      </trkpt>
      <trkpt lat="37.2378979996" lon="-3.3599924203">
        <ele>1274.85</ele>
        <time>2020-09-06T10:12:42Z</time>
      </trkpt>
      <trkpt lat="37.2379042022" lon="-3.3600913268">
        <ele>1274.36</ele>
        <time>2020-09-06T10:12:43Z</time>
      </trkpt>
      <trkpt lat="37.2379093990" lon="-3.3601910714">
        <ele>1274.36</ele>
        <time>2020-09-06T10:12:44Z</time>
      </trkpt>
      <trkpt lat="37.2378995083" lon="-3.3602901455">
        <ele>1274.36</ele>
        <time>2020-09-06T10:12:45Z</time>
      </trkpt>
      <trkpt lat="37.2378731053" lon="-3.3603815082">
        <ele>1274.36</ele>
        <time>2020-09-06T10:12:46Z</time>
      </trkpt>
      <trkpt lat="37.2378353868" lon="-3.3604683448">
        <ele>1273.40</ele>
        <time>2020-09-06T10:12:47Z</time>
      </trkpt>
      <trkpt lat="37.2377872746" lon="-3.3605455421">
        <ele>1273.40</ele>
        <time>2020-09-06T10:12:48Z</time>
      </trkpt>
      <trkpt lat="37.2377261706" lon="-3.3606042154">
        <ele>1272.92</ele>
        <time>2020-09-06T10:12:49Z</time>
      </trkpt>
      <trkpt lat="37.2376603726" lon="-3.3606569376">
        <ele>1271.96</ele>
        <time>2020-09-06T10:12:50Z</time>
      </trkpt>
      <trkpt lat="37.2376022022" lon="-3.3607270103">
        <ele>1271.96</ele>
        <time>2020-09-06T10:12:51Z</time>
      </trkpt>
      <trkpt lat="37.2375535034" lon="-3.3608136792">
        <ele>1271.48</ele>
        <time>2020-09-06T10:12:52Z</time>
      </trkpt>
      <trkpt lat="37.2375144437" lon="-3.3609022759">
        <ele>1271.48</ele>
        <time>2020-09-06T10:12:53Z</time>
      </trkpt>
      <trkpt lat="37.2374833468" lon="-3.3609980810">
        <ele>1270.52</ele>
        <time>2020-09-06T10:12:54Z</time>
      </trkpt>
      <trkpt lat="37.2374600451" lon="-3.3610984124">
        <ele>1270.52</ele>
        <time>2020-09-06T10:12:55Z</time>
      </trkpt>
      <trkpt lat="37.2374418564" lon="-3.3612005040">
        <ele>1270.04</ele>
        <time>2020-09-06T10:12:56Z</time>
      </trkpt>
      <trkpt lat="37.2374324687" lon="-3.3613113128">
        <ele>1270.04</ele>
        <time>2020-09-06T10:12:57Z</time>
      </trkpt>
      <trkpt lat="37.2374344803" lon="-3.3614159189">
        <ele>1270.04</ele>
        <time>2020-09-06T10:12:58Z</time>
      </trkpt>
      <trkpt lat="37.2374421079" lon="-3.3615199383">
        <ele>1269.08</ele>
        <time>2020-09-06T10:12:59Z</time>
      </trkpt>
      <trkpt lat="37.2374573629" lon="-3.3616241254">
        <ele>1269.08</ele>
        <time>2020-09-06T10:13:00Z</time>
      </trkpt>
      <trkpt lat="37.2374863643" lon="-3.3617273066">
        <ele>1268.60</ele>
        <time>2020-09-06T10:13:01Z</time>
      </trkpt>
      <trkpt lat="37.2375305369" lon="-3.3618257940">
        <ele>1267.64</ele>
        <time>2020-09-06T10:13:02Z</time>
      </trkpt>
      <trkpt lat="37.2375881206" lon="-3.3619174082">
        <ele>1267.16</ele>
        <time>2020-09-06T10:13:03Z</time>
      </trkpt>
      <trkpt lat="37.2376531642" lon="-3.3620091900">
        <ele>1266.67</ele>
        <time>2020-09-06T10:13:04Z</time>
      </trkpt>
      <trkpt lat="37.2377785575" lon="-3.3621835336">
        <ele>1265.71</ele>
        <time>2020-09-06T10:13:06Z</time>
      </trkpt>
      <trkpt lat="37.2378482949" lon="-3.3622595575">
        <ele>1265.71</ele>
        <time>2020-09-06T10:13:07Z</time>
      </trkpt>
      <trkpt lat="37.2379224747" lon="-3.3623300493">
        <ele>1265.23</ele>
        <time>2020-09-06T10:13:08Z</time>
      </trkpt>
      <trkpt lat="37.2380015161" lon="-3.3623872977">
        <ele>1265.23</ele>
        <time>2020-09-06T10:13:09Z</time>
      </trkpt>
      <trkpt lat="37.2380844131" lon="-3.3624176402">
        <ele>1265.23</ele>
        <time>2020-09-06T10:13:10Z</time>
      </trkpt>
      <trkpt lat="37.2381752729" lon="-3.3624269441">
        <ele>1265.23</ele>
        <time>2020-09-06T10:13:11Z</time>
      </trkpt>
      <trkpt lat="37.2382595949" lon="-3.3624292072">
        <ele>1265.23</ele>
        <time>2020-09-06T10:13:12Z</time>
      </trkpt>
      <trkpt lat="37.2383404803" lon="-3.3624263573">
        <ele>1265.23</ele>
        <time>2020-09-06T10:13:13Z</time>
      </trkpt>
      <trkpt lat="37.2384183481" lon="-3.3624134492">
        <ele>1265.23</ele>
        <time>2020-09-06T10:13:14Z</time>
      </trkpt>
      <trkpt lat="37.2391490825" lon="-3.3624049835">
        <ele>1265.23</ele>
        <time>2020-09-06T10:13:24Z</time>
      </trkpt>
      <trkpt lat="37.2392091807" lon="-3.3624540176">
        <ele>1265.23</ele>
        <time>2020-09-06T10:13:25Z</time>
      </trkpt>
      <trkpt lat="37.2392565385" lon="-3.3625216596">
        <ele>1265.23</ele>
        <time>2020-09-06T10:13:26Z</time>
      </trkpt>
      <trkpt lat="37.2392924968" lon="-3.3626038022">
        <ele>1264.27</ele>
        <time>2020-09-06T10:13:27Z</time>
      </trkpt>
      <trkpt lat="37.2393171396" lon="-3.3626952488">
        <ele>1264.27</ele>
        <time>2020-09-06T10:13:28Z</time>
      </trkpt>
      <trkpt lat="37.2393409442" lon="-3.3627954125">
        <ele>1262.35</ele>
        <time>2020-09-06T10:13:29Z</time>
      </trkpt>
      <trkpt lat="37.2393656708" lon="-3.3628987614">
        <ele>1262.35</ele>
        <time>2020-09-06T10:13:30Z</time>
      </trkpt>
      <trkpt lat="37.2394100949" lon="-3.3631218038">
        <ele>1258.98</ele>
        <time>2020-09-06T10:13:32Z</time>
      </trkpt>
      <trkpt lat="37.2394381743" lon="-3.3632327802">
        <ele>1258.50</ele>
        <time>2020-09-06T10:13:33Z</time>
      </trkpt>
      <trkpt lat="37.2394698579" lon="-3.3633481991">
        <ele>1257.54</ele>
        <time>2020-09-06T10:13:34Z</time>
      </trkpt>
      <trkpt lat="37.2394939978" lon="-3.3634687308">
        <ele>1256.10</ele>
        <time>2020-09-06T10:13:35Z</time>
      </trkpt>
      <trkpt lat="37.2395113483" lon="-3.3635963034">
        <ele>1254.66</ele>
        <time>2020-09-06T10:13:36Z</time>
      </trkpt>
      <trkpt lat="37.2395232506" lon="-3.3637180924">
        <ele>1254.18</ele>
        <time>2020-09-06T10:13:37Z</time>
      </trkpt>
      <trkpt lat="37.2395406011" lon="-3.3638289850">
        <ele>1252.74</ele>
        <time>2020-09-06T10:13:38Z</time>
      </trkpt>
      <trkpt lat="37.2395719495" lon="-3.3639277238">
        <ele>1252.25</ele>
        <time>2020-09-06T10:13:39Z</time>
      </trkpt>
      <trkpt lat="37.2396427765" lon="-3.3641179930">
        <ele>1250.33</ele>
        <time>2020-09-06T10:13:41Z</time>
      </trkpt>
      <trkpt lat="37.2396596242" lon="-3.3642161451">
        <ele>1250.33</ele>
        <time>2020-09-06T10:13:42Z</time>
      </trkpt>
      <trkpt lat="37.2396597918" lon="-3.3643168118">
        <ele>1249.85</ele>
        <time>2020-09-06T10:13:43Z</time>
      </trkpt>
      <trkpt lat="37.2396364901" lon="-3.3645252697">
        <ele>1247.45</ele>
        <time>2020-09-06T10:13:45Z</time>
      </trkpt>
      <trkpt lat="37.2396086622" lon="-3.3646129444">
        <ele>1247.45</ele>
        <time>2020-09-06T10:13:46Z</time>
      </trkpt>
      <trkpt lat="37.2395682614" lon="-3.3646894712">
        <ele>1247.45</ele>
        <time>2020-09-06T10:13:47Z</time>
      </trkpt>
      <trkpt lat="37.2395196464" lon="-3.3647587895">
        <ele>1246.49</ele>
        <time>2020-09-06T10:13:48Z</time>
      </trkpt>
      <trkpt lat="37.2394705284" lon="-3.3648362383">
        <ele>1246.49</ele>
        <time>2020-09-06T10:13:49Z</time>
      </trkpt>
      <trkpt lat="37.2394316364" lon="-3.3649129327">
        <ele>1245.53</ele>
        <time>2020-09-06T10:13:50Z</time>
      </trkpt>
      <trkpt lat="37.2393933311" lon="-3.3650050499">
        <ele>1244.08</ele>
        <time>2020-09-06T10:13:51Z</time>
      </trkpt>
      <trkpt lat="37.2393710352" lon="-3.3650932275">
        <ele>1244.08</ele>
        <time>2020-09-06T10:13:52Z</time>
      </trkpt>
      <trkpt lat="37.2393664252" lon="-3.3651802316">
        <ele>1243.12</ele>
        <time>2020-09-06T10:13:53Z</time>
      </trkpt>
      <trkpt lat="37.2393831890" lon="-3.3652640507">
        <ele>1242.16</ele>
        <time>2020-09-06T10:13:54Z</time>
      </trkpt>
      <trkpt lat="37.2394178063" lon="-3.3653447684">
        <ele>1241.68</ele>
        <time>2020-09-06T10:13:55Z</time>
      </trkpt>
      <trkpt lat="37.2394599672" lon="-3.3654217143">
        <ele>1241.20</ele>
        <time>2020-09-06T10:13:56Z</time>
      </trkpt>
      <trkpt lat="37.2395542637" lon="-3.3655781206">
        <ele>1240.72</ele>
        <time>2020-09-06T10:13:58Z</time>
      </trkpt>
      <trkpt lat="37.2395806666" lon="-3.3656574134">
        <ele>1240.72</ele>
        <time>2020-09-06T10:13:59Z</time>
      </trkpt>
      <trkpt lat="37.2395893838" lon="-3.3657376282">
        <ele>1240.72</ele>
        <time>2020-09-06T10:14:00Z</time>
      </trkpt>
      <trkpt lat="37.2395861149" lon="-3.3658153284">
        <ele>1240.72</ele>
        <time>2020-09-06T10:14:01Z</time>
      </trkpt>
      <trkpt lat="37.2395736258" lon="-3.3658918552">
        <ele>1240.72</ele>
        <time>2020-09-06T10:14:02Z</time>
      </trkpt>
      <trkpt lat="37.2395560239" lon="-3.3659662027">
        <ele>1240.72</ele>
        <time>2020-09-06T10:14:03Z</time>
      </trkpt>
      <trkpt lat="37.2395281121" lon="-3.3660389576">
        <ele>1240.72</ele>
        <time>2020-09-06T10:14:04Z</time>
      </trkpt>
      <trkpt lat="37.2394934949" lon="-3.3661117963">
        <ele>1240.72</ele>
        <time>2020-09-06T10:14:05Z</time>
      </trkpt>
      <trkpt lat="37.2394543514" lon="-3.3661713917">
        <ele>1240.72</ele>
        <time>2020-09-06T10:14:06Z</time>
      </trkpt>
      <trkpt lat="37.2394095920" lon="-3.3662257902">
        <ele>1240.72</ele>
        <time>2020-09-06T10:14:07Z</time>
      </trkpt>
      <trkpt lat="37.2393173911" lon="-3.3663227689">
        <ele>1240.72</ele>
        <time>2020-09-06T10:14:09Z</time>
      </trkpt>
      <trkpt lat="37.2392628249" lon="-3.3663713001">
        <ele>1240.72</ele>
        <time>2020-09-06T10:14:10Z</time>
      </trkpt>
      <trkpt lat="37.2392133716" lon="-3.3664336614">
        <ele>1240.72</ele>
        <time>2020-09-06T10:14:11Z</time>
      </trkpt>
      <trkpt lat="37.2391715460" lon="-3.3665168099">
        <ele>1240.72</ele>
        <time>2020-09-06T10:14:12Z</time>
      </trkpt>
      <trkpt lat="37.2391372640" lon="-3.3665999584">
        <ele>1239.28</ele>
        <time>2020-09-06T10:14:13Z</time>
      </trkpt>
      <trkpt lat="37.2390997969" lon="-3.3666753117">
        <ele>1239.28</ele>
        <time>2020-09-06T10:14:14Z</time>
      </trkpt>
      <trkpt lat="37.2389639262" lon="-3.3668984380">
        <ele>1238.32</ele>
        <time>2020-09-06T10:14:17Z</time>
      </trkpt>
      <trkpt lat="37.2389054205" lon="-3.3669563569">
        <ele>1237.83</ele>
        <time>2020-09-06T10:14:18Z</time>
      </trkpt>
      <trkpt lat="37.2388303187" lon="-3.3670083247">
        <ele>1236.87</ele>
        <time>2020-09-06T10:14:19Z</time>
      </trkpt>
      <trkpt lat="37.2387522832" lon="-3.3670583647">
        <ele>1236.87</ele>
        <time>2020-09-06T10:14:20Z</time>
      </trkpt>
      <trkpt lat="37.2386810370" lon="-3.3671203908">
        <ele>1235.43</ele>
        <time>2020-09-06T10:14:21Z</time>
      </trkpt>
      <trkpt lat="37.2386382055" lon="-3.3671982586">
        <ele>1234.95</ele>
        <time>2020-09-06T10:14:22Z</time>
      </trkpt>
      <trkpt lat="37.2386225313" lon="-3.3672930580">
        <ele>1233.99</ele>
        <time>2020-09-06T10:14:23Z</time>
      </trkpt>
      <trkpt lat="37.2386334278" lon="-3.3673916291">
        <ele>1233.51</ele>
        <time>2020-09-06T10:14:24Z</time>
      </trkpt>
      <trkpt lat="37.2386615910" lon="-3.3674910385">
        <ele>1232.55</ele>
        <time>2020-09-06T10:14:25Z</time>
      </trkpt>
      <trkpt lat="37.2387092002" lon="-3.3675844967">
        <ele>1232.55</ele>
        <time>2020-09-06T10:14:26Z</time>
      </trkpt>
      <trkpt lat="37.2387620900" lon="-3.3676546533">
        <ele>1232.07</ele>
        <time>2020-09-06T10:14:27Z</time>
      </trkpt>
      <trkpt lat="37.2388199251" lon="-3.3677341975">
        <ele>1232.07</ele>
        <time>2020-09-06T10:14:28Z</time>
      </trkpt>
      <trkpt lat="37.2390763275" lon="-3.3680518717">
        <ele>1230.14</ele>
        <time>2020-09-06T10:14:32Z</time>
      </trkpt>
      <trkpt lat="37.2391244397" lon="-3.3681511134">
        <ele>1229.66</ele>
        <time>2020-09-06T10:14:33Z</time>
      </trkpt>
      <trkpt lat="37.2391589731" lon="-3.3682536241">
        <ele>1229.66</ele>
        <time>2020-09-06T10:14:34Z</time>
      </trkpt>
      <trkpt lat="37.2392435465" lon="-3.3686505072">
        <ele>1228.70</ele>
        <time>2020-09-06T10:14:38Z</time>
      </trkpt>
      <trkpt lat="37.2392639145" lon="-3.3687422890">
        <ele>1229.18</ele>
        <time>2020-09-06T10:14:39Z</time>
      </trkpt>
      <trkpt lat="37.2392769065" lon="-3.3688308857">
        <ele>1228.70</ele>
        <time>2020-09-06T10:14:40Z</time>
      </trkpt>
      <trkpt lat="37.2393260244" lon="-3.3690978494">
        <ele>1226.78</ele>
        <time>2020-09-06T10:14:43Z</time>
      </trkpt>
      <trkpt lat="37.2393550258" lon="-3.3691787347">
        <ele>1226.78</ele>
        <time>2020-09-06T10:14:44Z</time>
      </trkpt>
      <trkpt lat="37.2393952589" lon="-3.3692414314">
        <ele>1228.22</ele>
        <time>2020-09-06T10:14:45Z</time>
      </trkpt>
      <trkpt lat="37.2394473944" lon="-3.3692973386">
        <ele>1228.22</ele>
        <time>2020-09-06T10:14:46Z</time>
      </trkpt>
      <trkpt lat="37.2395004518" lon="-3.3693468757">
        <ele>1228.22</ele>
        <time>2020-09-06T10:14:47Z</time>
      </trkpt>
      <trkpt lat="37.2399749514" lon="-3.3697156794">
        <ele>1226.78</ele>
        <time>2020-09-06T10:14:55Z</time>
      </trkpt>
      <trkpt lat="37.2400689963" lon="-3.3698258176">
        <ele>1226.30</ele>
        <time>2020-09-06T10:14:57Z</time>
      </trkpt>
      <trkpt lat="37.2401046194" lon="-3.3698908612">
        <ele>1225.82</ele>
        <time>2020-09-06T10:14:58Z</time>
      </trkpt>
      <trkpt lat="37.2401294298" lon="-3.3699683100">
        <ele>1225.82</ele>
        <time>2020-09-06T10:14:59Z</time>
      </trkpt>
      <trkpt lat="37.2401349619" lon="-3.3700463455">
        <ele>1225.82</ele>
        <time>2020-09-06T10:15:00Z</time>
      </trkpt>
      <trkpt lat="37.2401293460" lon="-3.3701253030">
        <ele>1225.82</ele>
        <time>2020-09-06T10:15:01Z</time>
      </trkpt>
      <trkpt lat="37.2401203774" lon="-3.3702092059">
        <ele>1225.82</ele>
        <time>2020-09-06T10:15:02Z</time>
      </trkpt>
      <trkpt lat="37.2401160188" lon="-3.3703882433">
        <ele>1225.82</ele>
        <time>2020-09-06T10:15:04Z</time>
      </trkpt>
      <trkpt lat="37.2401230596" lon="-3.3704848867">
        <ele>1225.34</ele>
        <time>2020-09-06T10:15:05Z</time>
      </trkpt>
      <trkpt lat="37.2401389852" lon="-3.3705734834">
        <ele>1225.34</ele>
        <time>2020-09-06T10:15:06Z</time>
      </trkpt>
      <trkpt lat="37.2403148375" lon="-3.3710494079">
        <ele>1225.34</ele>
        <time>2020-09-06T10:15:12Z</time>
      </trkpt>
      <trkpt lat="37.2403556574" lon="-3.3710950054">
        <ele>1225.34</ele>
        <time>2020-09-06T10:15:13Z</time>
      </trkpt>
      <trkpt lat="37.2403994948" lon="-3.3711245097">
        <ele>1225.34</ele>
        <time>2020-09-06T10:15:14Z</time>
      </trkpt>
      <trkpt lat="37.2404412366" lon="-3.3711444587">
        <ele>1225.34</ele>
        <time>2020-09-06T10:15:15Z</time>
      </trkpt>
      <trkpt lat="37.2404807154" lon="-3.3711616416">
        <ele>1225.34</ele>
        <time>2020-09-06T10:15:16Z</time>
      </trkpt>
      <trkpt lat="37.2405098006" lon="-3.3711772319">
        <ele>1225.34</ele>
        <time>2020-09-06T10:15:17Z</time>
      </trkpt>
      <trkpt lat="37.2405305877" lon="-3.3711886313">
        <ele>1225.34</ele>
        <time>2020-09-06T10:15:18Z</time>
      </trkpt>
      <trkpt lat="37.2405577451" lon="-3.3712024614">
        <ele>1225.34</ele>
        <time>2020-09-06T10:15:19Z</time>
      </trkpt>
      <trkpt lat="37.2405726649" lon="-3.3712167945">
        <ele>1225.34</ele>
        <time>2020-09-06T10:15:20Z</time>
      </trkpt>
      <trkpt lat="37.2405902669" lon="-3.3712454606">
        <ele>1226.78</ele>
        <time>2020-09-06T10:15:21Z</time>
      </trkpt>
      <trkpt lat="37.2406120598" lon="-3.3712845203">
        <ele>1226.78</ele>
        <time>2020-09-06T10:15:22Z</time>
      </trkpt>
      <trkpt lat="37.2406341881" lon="-3.3713225741">
        <ele>1226.78</ele>
        <time>2020-09-06T10:15:23Z</time>
      </trkpt>
      <trkpt lat="37.2407653648" lon="-3.3715897892">
        <ele>1225.34</ele>
        <time>2020-09-06T10:15:30Z</time>
      </trkpt>
      <trkpt lat="37.2407893371" lon="-3.3716799784">
        <ele>1225.34</ele>
        <time>2020-09-06T10:15:34Z</time>
      </trkpt>
      <trkpt lat="37.2407812905" lon="-3.3716893662">
        <ele>1225.34</ele>
        <time>2020-09-06T10:15:35Z</time>
      </trkpt>
      <trkpt lat="37.2407588270" lon="-3.3717039507">
        <ele>1224.86</ele>
        <time>2020-09-06T10:15:50Z</time>
      </trkpt>
      <trkpt lat="37.2407530434" lon="-3.3717184514">
        <ele>1224.86</ele>
        <time>2020-09-06T10:16:06Z</time>
      </trkpt>
      <trkpt lat="37.2407423984" lon="-3.3717534039">
        <ele>1223.90</ele>
        <time>2020-09-06T10:16:16Z</time>
      </trkpt>
      <trkpt lat="37.2407510318" lon="-3.3717462793">
        <ele>1223.90</ele>
        <time>2020-09-06T10:16:57Z</time>
      </trkpt>
      <trkpt lat="37.2407754231" lon="-3.3717402443">
        <ele>1223.42</ele>
        <time>2020-09-06T10:17:17Z</time>
      </trkpt>
      <trkpt lat="37.2407758422" lon="-3.3717358019">
        <ele>1223.42</ele>
        <time>2020-09-06T10:17:25Z</time>
      </trkpt>
      <trkpt lat="37.2407855652" lon="-3.3717292640">
        <ele>1223.42</ele>
        <time>2020-09-06T10:17:26Z</time>
      </trkpt>
      <trkpt lat="37.2408004850" lon="-3.3717162721">
        <ele>1223.42</ele>
        <time>2020-09-06T10:17:27Z</time>
      </trkpt>
      <trkpt lat="37.2408183385" lon="-3.3717125840">
        <ele>1223.42</ele>
        <time>2020-09-06T10:17:28Z</time>
      </trkpt>
      <trkpt lat="37.2408387065" lon="-3.3717187867">
        <ele>1223.42</ele>
        <time>2020-09-06T10:17:29Z</time>
      </trkpt>
      <trkpt lat="37.2408586554" lon="-3.3717392385">
        <ele>1224.86</ele>
        <time>2020-09-06T10:17:30Z</time>
      </trkpt>
      <trkpt lat="37.2408759221" lon="-3.3717656415">
        <ele>1225.34</ele>
        <time>2020-09-06T10:17:31Z</time>
      </trkpt>
      <trkpt lat="37.2410054225" lon="-3.3719054516">
        <ele>1228.22</ele>
        <time>2020-09-06T10:17:37Z</time>
      </trkpt>
      <trkpt lat="37.2411301453" lon="-3.3721361216">
        <ele>1228.70</ele>
        <time>2020-09-06T10:17:48Z</time>
      </trkpt>
      <trkpt lat="37.2411218472" lon="-3.3721266501">
        <ele>1228.70</ele>
        <time>2020-09-06T10:18:00Z</time>
      </trkpt>
      <trkpt lat="37.2410588991" lon="-3.3721548971">
        <ele>1227.26</ele>
        <time>2020-09-06T10:18:16Z</time>
      </trkpt>
      <trkpt lat="37.2410249524" lon="-3.3721417375">
        <ele>1226.78</ele>
        <time>2020-09-06T10:18:26Z</time>
      </trkpt>
      <trkpt lat="37.2410269640" lon="-3.3721368760">
        <ele>1224.86</ele>
        <time>2020-09-06T10:18:36Z</time>
      </trkpt>
      <trkpt lat="37.2410212643" lon="-3.3721405640">
        <ele>1224.86</ele>
        <time>2020-09-06T10:18:37Z</time>
      </trkpt>
      <trkpt lat="37.2410093620" lon="-3.3721343614">
        <ele>1224.86</ele>
        <time>2020-09-06T10:52:02Z</time>
      </trkpt>
      <trkpt lat="37.2410208452" lon="-3.3721440006">
        <ele>1223.42</ele>
        <time>2020-09-06T10:52:06Z</time>
      </trkpt>
      <trkpt lat="37.2410247847" lon="-3.3721400611">
        <ele>1220.05</ele>
        <time>2020-09-06T10:52:19Z</time>
      </trkpt>
      <trkpt lat="37.2410222702" lon="-3.3721632790">
        <ele>1218.61</ele>
        <time>2020-09-06T10:52:38Z</time>
      </trkpt>
      <trkpt lat="37.2410237789" lon="-3.3721689787">
        <ele>1218.61</ele>
        <time>2020-09-06T10:52:39Z</time>
      </trkpt>
      <trkpt lat="37.2410459910" lon="-3.3721806295">
        <ele>1218.61</ele>
        <time>2020-09-06T10:52:42Z</time>
      </trkpt>
      <trkpt lat="37.2411055025" lon="-3.3721640334">
        <ele>1220.53</ele>
        <time>2020-09-06T10:52:53Z</time>
      </trkpt>
      <trkpt lat="37.2410961147" lon="-3.3721394744">
        <ele>1220.53</ele>
        <time>2020-09-06T10:53:04Z</time>
      </trkpt>
      <trkpt lat="37.2409583163" lon="-3.3718660567">
        <ele>1219.09</ele>
        <time>2020-09-06T10:53:14Z</time>
      </trkpt>
      <trkpt lat="37.2407821286" lon="-3.3716692496">
        <ele>1216.21</ele>
        <time>2020-09-06T10:53:21Z</time>
      </trkpt>
      <trkpt lat="37.2407501936" lon="-3.3716693334">
        <ele>1215.72</ele>
        <time>2020-09-06T10:53:22Z</time>
      </trkpt>
      <trkpt lat="37.2407195158" lon="-3.3716949821">
        <ele>1215.72</ele>
        <time>2020-09-06T10:53:23Z</time>
      </trkpt>
      <trkpt lat="37.2407267243" lon="-3.3717334550">
        <ele>1214.76</ele>
        <time>2020-09-06T10:53:29Z</time>
      </trkpt>
      <trkpt lat="37.2407195996" lon="-3.3717233967">
        <ele>1214.76</ele>
        <time>2020-09-06T10:53:49Z</time>
      </trkpt>
      <trkpt lat="37.2407161631" lon="-3.3717329521">
        <ele>1214.76</ele>
        <time>2020-09-06T10:54:25Z</time>
      </trkpt>
      <trkpt lat="37.2407182585" lon="-3.3717343770">
        <ele>1214.76</ele>
        <time>2020-09-06T10:54:57Z</time>
      </trkpt>
      <trkpt lat="37.2407024167" lon="-3.3717435133">
        <ele>1214.28</ele>
        <time>2020-09-06T10:55:31Z</time>
      </trkpt>
      <trkpt lat="37.2407122236" lon="-3.3717504703">
        <ele>1213.80</ele>
        <time>2020-09-06T10:56:03Z</time>
      </trkpt>
      <trkpt lat="37.2407210246" lon="-3.3717383165">
        <ele>1213.80</ele>
        <time>2020-09-06T10:56:37Z</time>
      </trkpt>
      <trkpt lat="37.2407331783" lon="-3.3717422560">
        <ele>1213.80</ele>
        <time>2020-09-06T10:57:11Z</time>
      </trkpt>
      <trkpt lat="37.2407341003" lon="-3.3717193734">
        <ele>1213.32</ele>
        <time>2020-09-06T10:57:29Z</time>
      </trkpt>
      <trkpt lat="37.2407369502" lon="-3.3717176132">
        <ele>1214.76</ele>
        <time>2020-09-06T10:57:31Z</time>
      </trkpt>
      <trkpt lat="37.2407657001" lon="-3.3717163559">
        <ele>1214.76</ele>
        <time>2020-09-06T10:57:40Z</time>
      </trkpt>
      <trkpt lat="37.2407746688" lon="-3.3717263304">
        <ele>1214.76</ele>
        <time>2020-09-06T10:57:41Z</time>
      </trkpt>
      <trkpt lat="37.2408803646" lon="-3.3720962238">
        <ele>1214.76</ele>
        <time>2020-09-06T10:57:51Z</time>
      </trkpt>
      <trkpt lat="37.2408763412" lon="-3.3725099545">
        <ele>1213.32</ele>
        <time>2020-09-06T10:57:59Z</time>
      </trkpt>
      <trkpt lat="37.2408162430" lon="-3.3732600510">
        <ele>1209.96</ele>
        <time>2020-09-06T10:58:09Z</time>
      </trkpt>
      <trkpt lat="37.2408191767" lon="-3.3734177984">
        <ele>1209.96</ele>
        <time>2020-09-06T10:58:11Z</time>
      </trkpt>
      <trkpt lat="37.2409167420" lon="-3.3739932161">
        <ele>1208.51</ele>
        <time>2020-09-06T10:58:18Z</time>
      </trkpt>
      <trkpt lat="37.2409480065" lon="-3.3740691561">
        <ele>1208.51</ele>
        <time>2020-09-06T10:58:19Z</time>
      </trkpt>
      <trkpt lat="37.2409856413" lon="-3.3741373010">
        <ele>1208.51</ele>
        <time>2020-09-06T10:58:20Z</time>
      </trkpt>
      <trkpt lat="37.2410332505" lon="-3.3741992433">
        <ele>1208.51</ele>
        <time>2020-09-06T10:58:21Z</time>
      </trkpt>
      <trkpt lat="37.2410842124" lon="-3.3742498700">
        <ele>1208.03</ele>
        <time>2020-09-06T10:58:22Z</time>
      </trkpt>
      <trkpt lat="37.2411345039" lon="-3.3742929529">
        <ele>1208.03</ele>
        <time>2020-09-06T10:58:23Z</time>
      </trkpt>
      <trkpt lat="37.2414767370" lon="-3.3746157400">
        <ele>1207.55</ele>
        <time>2020-09-06T10:58:30Z</time>
      </trkpt>
      <trkpt lat="37.2415225860" lon="-3.3746773470">
        <ele>1208.03</ele>
        <time>2020-09-06T10:58:31Z</time>
      </trkpt>
      <trkpt lat="37.2415599693" lon="-3.3747488447">
        <ele>1207.55</ele>
        <time>2020-09-06T10:58:32Z</time>
      </trkpt>
      <trkpt lat="37.2415880486" lon="-3.3748212643">
        <ele>1208.03</ele>
        <time>2020-09-06T10:58:33Z</time>
      </trkpt>
      <trkpt lat="37.2416126914" lon="-3.3748925105">
        <ele>1208.03</ele>
        <time>2020-09-06T10:58:34Z</time>
      </trkpt>
      <trkpt lat="37.2416349035" lon="-3.3749609068">
        <ele>1208.03</ele>
        <time>2020-09-06T10:58:35Z</time>
      </trkpt>
      <trkpt lat="37.2417199798" lon="-3.3752903994">
        <ele>1211.40</ele>
        <time>2020-09-06T10:58:41Z</time>
      </trkpt>
      <trkpt lat="37.2418445349" lon="-3.3761402406">
        <ele>1212.36</ele>
        <time>2020-09-06T10:58:58Z</time>
      </trkpt>
      <trkpt lat="37.2418316267" lon="-3.3761880174">
        <ele>1212.36</ele>
        <time>2020-09-06T10:58:59Z</time>
      </trkpt>
      <trkpt lat="37.2417820897" lon="-3.3765319269">
        <ele>1213.32</ele>
        <time>2020-09-06T10:59:06Z</time>
      </trkpt>
      <trkpt lat="37.2417946626" lon="-3.3765812963">
        <ele>1213.32</ele>
        <time>2020-09-06T10:59:07Z</time>
      </trkpt>
      <trkpt lat="37.2421098221" lon="-3.3772218414">
        <ele>1216.69</ele>
        <time>2020-09-06T10:59:23Z</time>
      </trkpt>
      <trkpt lat="37.2424207907" lon="-3.3774771541">
        <ele>1216.69</ele>
        <time>2020-09-06T10:59:31Z</time>
      </trkpt>
      <trkpt lat="37.2424615268" lon="-3.3775250148">
        <ele>1216.69</ele>
        <time>2020-09-06T10:59:32Z</time>
      </trkpt>
      <trkpt lat="37.2424936295" lon="-3.3775846101">
        <ele>1216.21</ele>
        <time>2020-09-06T10:59:33Z</time>
      </trkpt>
      <trkpt lat="37.2425188590" lon="-3.3776535932">
        <ele>1214.76</ele>
        <time>2020-09-06T10:59:34Z</time>
      </trkpt>
      <trkpt lat="37.2425317671" lon="-3.3777289465">
        <ele>1214.76</ele>
        <time>2020-09-06T10:59:35Z</time>
      </trkpt>
      <trkpt lat="37.2425315157" lon="-3.3778014500">
        <ele>1214.76</ele>
        <time>2020-09-06T10:59:36Z</time>
      </trkpt>
      <trkpt lat="37.2425259836" lon="-3.3778695110">
        <ele>1214.28</ele>
        <time>2020-09-06T10:59:37Z</time>
      </trkpt>
      <trkpt lat="37.2425154224" lon="-3.3779351413">
        <ele>1214.28</ele>
        <time>2020-09-06T10:59:38Z</time>
      </trkpt>
      <trkpt lat="37.2425005864" lon="-3.3779973350">
        <ele>1214.28</ele>
        <time>2020-09-06T10:59:39Z</time>
      </trkpt>
      <trkpt lat="37.2424819786" lon="-3.3780548349">
        <ele>1214.28</ele>
        <time>2020-09-06T10:59:40Z</time>
      </trkpt>
      <trkpt lat="37.2423140053" lon="-3.3789205179">
        <ele>1215.24</ele>
        <time>2020-09-06T10:59:54Z</time>
      </trkpt>
      <trkpt lat="37.2423108201" lon="-3.3789952006">
        <ele>1215.24</ele>
        <time>2020-09-06T10:59:55Z</time>
      </trkpt>
      <trkpt lat="37.2422744427" lon="-3.3794505056">
        <ele>1214.76</ele>
        <time>2020-09-06T11:00:01Z</time>
      </trkpt>
      <trkpt lat="37.2422836628" lon="-3.3795280382">
        <ele>1214.28</ele>
        <time>2020-09-06T11:00:02Z</time>
      </trkpt>
      <trkpt lat="37.2423052881" lon="-3.3796032239">
        <ele>1214.28</ele>
        <time>2020-09-06T11:00:03Z</time>
      </trkpt>
      <trkpt lat="37.2423397377" lon="-3.3796739671">
        <ele>1214.28</ele>
        <time>2020-09-06T11:00:04Z</time>
      </trkpt>
      <trkpt lat="37.2423857544" lon="-3.3797371667">
        <ele>1213.80</ele>
        <time>2020-09-06T11:00:05Z</time>
      </trkpt>
      <trkpt lat="37.2424396500" lon="-3.3797960076">
        <ele>1213.32</ele>
        <time>2020-09-06T11:00:06Z</time>
      </trkpt>
      <trkpt lat="37.2424911987" lon="-3.3798515797">
        <ele>1213.32</ele>
        <time>2020-09-06T11:00:07Z</time>
      </trkpt>
      <trkpt lat="37.2425339464" lon="-3.3799130190">
        <ele>1212.84</ele>
        <time>2020-09-06T11:00:08Z</time>
      </trkpt>
      <trkpt lat="37.2425567452" lon="-3.3799856063">
        <ele>1212.84</ele>
        <time>2020-09-06T11:00:09Z</time>
      </trkpt>
      <trkpt lat="37.2425507940" lon="-3.3800607082">
        <ele>1212.36</ele>
        <time>2020-09-06T11:00:10Z</time>
      </trkpt>
      <trkpt lat="37.2425204515" lon="-3.3801301103">
        <ele>1212.36</ele>
        <time>2020-09-06T11:00:11Z</time>
      </trkpt>
      <trkpt lat="37.2424776200" lon="-3.3801908791">
        <ele>1212.36</ele>
        <time>2020-09-06T11:00:12Z</time>
      </trkpt>
      <trkpt lat="37.2424317710" lon="-3.3802490495">
        <ele>1212.36</ele>
        <time>2020-09-06T11:00:13Z</time>
      </trkpt>
      <trkpt lat="37.2423959803" lon="-3.3803105727">
        <ele>1212.36</ele>
        <time>2020-09-06T11:00:14Z</time>
      </trkpt>
      <trkpt lat="37.2423704155" lon="-3.3803808130">
        <ele>1212.36</ele>
        <time>2020-09-06T11:00:15Z</time>
      </trkpt>
      <trkpt lat="37.2423566692" lon="-3.3804577589">
        <ele>1212.36</ele>
        <time>2020-09-06T11:00:16Z</time>
      </trkpt>
      <trkpt lat="37.2423523944" lon="-3.3805369679">
        <ele>1211.88</ele>
        <time>2020-09-06T11:00:17Z</time>
      </trkpt>
      <trkpt lat="37.2423567530" lon="-3.3806187753">
        <ele>1211.88</ele>
        <time>2020-09-06T11:00:18Z</time>
      </trkpt>
      <trkpt lat="37.2423668951" lon="-3.3807041869">
        <ele>1210.92</ele>
        <time>2020-09-06T11:00:19Z</time>
      </trkpt>
      <trkpt lat="37.2423826531" lon="-3.3807932865">
        <ele>1210.92</ele>
        <time>2020-09-06T11:00:20Z</time>
      </trkpt>
      <trkpt lat="37.2423982434" lon="-3.3808907680">
        <ele>1209.96</ele>
        <time>2020-09-06T11:00:21Z</time>
      </trkpt>
      <trkpt lat="37.2424062900" lon="-3.3809877466">
        <ele>1209.00</ele>
        <time>2020-09-06T11:00:22Z</time>
      </trkpt>
      <trkpt lat="37.2424063738" lon="-3.3810856473">
        <ele>1209.00</ele>
        <time>2020-09-06T11:00:23Z</time>
      </trkpt>
      <trkpt lat="37.2424031049" lon="-3.3811812010">
        <ele>1209.00</ele>
        <time>2020-09-06T11:00:24Z</time>
      </trkpt>
      <trkpt lat="37.2424086370" lon="-3.3813431393">
        <ele>1209.00</ele>
        <time>2020-09-06T11:00:26Z</time>
      </trkpt>
      <trkpt lat="37.2424223833" lon="-3.3814028185">
        <ele>1209.00</ele>
        <time>2020-09-06T11:00:27Z</time>
      </trkpt>
      <trkpt lat="37.2424450982" lon="-3.3814473264">
        <ele>1210.92</ele>
        <time>2020-09-06T11:00:28Z</time>
      </trkpt>
      <trkpt lat="37.2424777038" lon="-3.3814691193">
        <ele>1211.40</ele>
        <time>2020-09-06T11:00:29Z</time>
      </trkpt>
      <trkpt lat="37.2425183561" lon="-3.3814726397">
        <ele>1211.88</ele>
        <time>2020-09-06T11:00:30Z</time>
      </trkpt>
      <trkpt lat="37.2425513808" lon="-3.3814698737">
        <ele>1211.88</ele>
        <time>2020-09-06T11:00:31Z</time>
      </trkpt>
      <trkpt lat="37.2425875906" lon="-3.3814723045">
        <ele>1211.88</ele>
        <time>2020-09-06T11:00:32Z</time>
      </trkpt>
      <trkpt lat="37.2426240519" lon="-3.3814789262">
        <ele>1211.88</ele>
        <time>2020-09-06T11:00:33Z</time>
      </trkpt>
      <trkpt lat="37.2426601779" lon="-3.3814888168">
        <ele>1211.88</ele>
        <time>2020-09-06T11:00:34Z</time>
      </trkpt>
      <trkpt lat="37.2431153152" lon="-3.3818007074">
        <ele>1214.76</ele>
        <time>2020-09-06T11:00:48Z</time>
      </trkpt>
      <trkpt lat="37.2434929200" lon="-3.3817808423">
        <ele>1217.17</ele>
        <time>2020-09-06T11:01:01Z</time>
      </trkpt>
      <trkpt lat="37.2437199857" lon="-3.3814298082">
        <ele>1219.57</ele>
        <time>2020-09-06T11:01:15Z</time>
      </trkpt>
      <trkpt lat="37.2435770743" lon="-3.3810264710">
        <ele>1222.45</ele>
        <time>2020-09-06T11:01:30Z</time>
      </trkpt>
      <trkpt lat="37.2433732264" lon="-3.3808238804">
        <ele>1225.34</ele>
        <time>2020-09-06T11:01:41Z</time>
      </trkpt>
      <trkpt lat="37.2432128806" lon="-3.3804246504">
        <ele>1227.26</ele>
        <time>2020-09-06T11:01:56Z</time>
      </trkpt>
      <trkpt lat="37.2433848772" lon="-3.3800250851">
        <ele>1230.14</ele>
        <time>2020-09-06T11:02:11Z</time>
      </trkpt>
      <trkpt lat="37.2434686124" lon="-3.3795918245">
        <ele>1233.03</ele>
        <time>2020-09-06T11:02:25Z</time>
      </trkpt>
      <trkpt lat="37.2432273813" lon="-3.3792839572">
        <ele>1235.43</ele>
        <time>2020-09-06T11:02:39Z</time>
      </trkpt>
      <trkpt lat="37.2429444082" lon="-3.3790203463">
        <ele>1237.83</ele>
        <time>2020-09-06T11:02:54Z</time>
      </trkpt>
      <trkpt lat="37.2429543827" lon="-3.3785973117">
        <ele>1240.72</ele>
        <time>2020-09-06T11:03:08Z</time>
      </trkpt>
      <trkpt lat="37.2432213463" lon="-3.3783632051">
        <ele>1243.12</ele>
        <time>2020-09-06T11:03:22Z</time>
      </trkpt>
      <trkpt lat="37.2435288783" lon="-3.3785157558">
        <ele>1246.01</ele>
        <time>2020-09-06T11:03:36Z</time>
      </trkpt>
      <trkpt lat="37.2437380906" lon="-3.3789314982">
        <ele>1248.89</ele>
        <time>2020-09-06T11:03:51Z</time>
      </trkpt>
      <trkpt lat="37.2440630570" lon="-3.3791039139">
        <ele>1251.77</ele>
        <time>2020-09-06T11:04:04Z</time>
      </trkpt>
      <trkpt lat="37.2444904502" lon="-3.3791496791">
        <ele>1254.66</ele>
        <time>2020-09-06T11:04:20Z</time>
      </trkpt>
      <trkpt lat="37.2449301649" lon="-3.3790933527">
        <ele>1257.54</ele>
        <time>2020-09-06T11:04:37Z</time>
      </trkpt>
      <trkpt lat="37.2452581488" lon="-3.3788728248">
        <ele>1260.91</ele>
        <time>2020-09-06T11:04:52Z</time>
      </trkpt>
      <trkpt lat="37.2456324007" lon="-3.3790407982">
        <ele>1263.79</ele>
        <time>2020-09-06T11:05:07Z</time>
      </trkpt>
      <trkpt lat="37.2460701875" lon="-3.3791894093">
        <ele>1265.71</ele>
        <time>2020-09-06T11:05:22Z</time>
      </trkpt>
      <trkpt lat="37.2466217168" lon="-3.3790278900">
        <ele>1267.16</ele>
        <time>2020-09-06T11:05:39Z</time>
      </trkpt>
      <trkpt lat="37.2470289096" lon="-3.3786538895">
        <ele>1268.60</ele>
        <time>2020-09-06T11:05:53Z</time>
      </trkpt>
      <trkpt lat="37.2472410556" lon="-3.3781026118">
        <ele>1270.04</ele>
        <time>2020-09-06T11:06:07Z</time>
      </trkpt>
      <trkpt lat="37.2477157228" lon="-3.3775867894">
        <ele>1271.00</ele>
        <time>2020-09-06T11:06:23Z</time>
      </trkpt>
      <trkpt lat="37.2477137111" lon="-3.3771622460">
        <ele>1273.88</ele>
        <time>2020-09-06T11:06:33Z</time>
      </trkpt>
      <trkpt lat="37.2477347497" lon="-3.3767325059">
        <ele>1276.77</ele>
        <time>2020-09-06T11:06:46Z</time>
      </trkpt>
      <trkpt lat="37.2480323073" lon="-3.3762908634">
        <ele>1280.13</ele>
        <time>2020-09-06T11:07:02Z</time>
      </trkpt>
      <trkpt lat="37.2484451160" lon="-3.3758866042">
        <ele>1282.54</ele>
        <time>2020-09-06T11:07:18Z</time>
      </trkpt>
      <trkpt lat="37.2488682345" lon="-3.3757448662">
        <ele>1284.46</ele>
        <time>2020-09-06T11:07:31Z</time>
      </trkpt>
      <trkpt lat="37.2493667901" lon="-3.3755792398">
        <ele>1285.90</ele>
        <time>2020-09-06T11:07:46Z</time>
      </trkpt>
      <trkpt lat="37.2497775871" lon="-3.3754504099">
        <ele>1287.82</ele>
        <time>2020-09-06T11:07:58Z</time>
      </trkpt>
      <trkpt lat="37.2503901366" lon="-3.3752680197">
        <ele>1290.23</ele>
        <time>2020-09-06T11:08:15Z</time>
      </trkpt>
      <trkpt lat="37.2509736009" lon="-3.3751350828">
        <ele>1292.63</ele>
        <time>2020-09-06T11:08:31Z</time>
      </trkpt>
      <trkpt lat="37.2513117269" lon="-3.3750506770">
        <ele>1293.59</ele>
        <time>2020-09-06T11:08:41Z</time>
      </trkpt>
      <trkpt lat="37.2513317596" lon="-3.3750126231">
        <ele>1293.59</ele>
        <time>2020-09-06T11:08:42Z</time>
      </trkpt>
      <trkpt lat="37.2513292450" lon="-3.3749709651">
        <ele>1293.59</ele>
        <time>2020-09-06T11:08:43Z</time>
      </trkpt>
      <trkpt lat="37.2513176780" lon="-3.3749475796">
        <ele>1293.59</ele>
        <time>2020-09-06T11:08:44Z</time>
      </trkpt>
      <trkpt lat="37.2512985673" lon="-3.3749277145">
        <ele>1294.07</ele>
        <time>2020-09-06T11:08:45Z</time>
      </trkpt>
      <trkpt lat="37.2512784507" lon="-3.3749130461">
        <ele>1294.07</ele>
        <time>2020-09-06T11:08:46Z</time>
      </trkpt>
      <trkpt lat="37.2512590047" lon="-3.3748983778">
        <ele>1294.07</ele>
        <time>2020-09-06T11:08:47Z</time>
      </trkpt>
      <trkpt lat="37.2510520555" lon="-3.3746755030">
        <ele>1297.44</ele>
        <time>2020-09-06T11:08:59Z</time>
      </trkpt>
      <trkpt lat="37.2508160211" lon="-3.3742592577">
        <ele>1300.80</ele>
        <time>2020-09-06T11:09:18Z</time>
      </trkpt>
      <trkpt lat="37.2506963275" lon="-3.3739543241">
        <ele>1303.69</ele>
        <time>2020-09-06T11:09:31Z</time>
      </trkpt>
      <trkpt lat="37.2505738679" lon="-3.3735068981">
        <ele>1305.61</ele>
        <time>2020-09-06T11:09:47Z</time>
      </trkpt>
      <trkpt lat="37.2502406035" lon="-3.3734207321">
        <ele>1308.97</ele>
        <time>2020-09-06T11:10:01Z</time>
      </trkpt>
      <trkpt lat="37.2500151303" lon="-3.3730743919">
        <ele>1310.90</ele>
        <time>2020-09-06T11:10:14Z</time>
      </trkpt>
      <trkpt lat="37.2498413734" lon="-3.3725897502">
        <ele>1313.30</ele>
        <time>2020-09-06T11:10:29Z</time>
      </trkpt>
      <trkpt lat="37.2499727178" lon="-3.3720884286">
        <ele>1315.70</ele>
        <time>2020-09-06T11:10:44Z</time>
      </trkpt>
      <trkpt lat="37.2501684353" lon="-3.3717448544">
        <ele>1317.14</ele>
        <time>2020-09-06T11:10:56Z</time>
      </trkpt>
      <trkpt lat="37.2503549326" lon="-3.3712446224">
        <ele>1319.55</ele>
        <time>2020-09-06T11:11:11Z</time>
      </trkpt>
      <trkpt lat="37.2504853550" lon="-3.3708992042">
        <ele>1322.91</ele>
        <time>2020-09-06T11:11:22Z</time>
      </trkpt>
      <trkpt lat="37.2506713495" lon="-3.3703527041">
        <ele>1325.31</ele>
        <time>2020-09-06T11:11:39Z</time>
      </trkpt>
      <trkpt lat="37.2507746983" lon="-3.3698952198">
        <ele>1328.20</ele>
        <time>2020-09-06T11:11:54Z</time>
      </trkpt>
      <trkpt lat="37.2505193017" lon="-3.3694849256">
        <ele>1330.12</ele>
        <time>2020-09-06T11:12:09Z</time>
      </trkpt>
      <trkpt lat="37.2503121849" lon="-3.3690512460">
        <ele>1334.45</ele>
        <time>2020-09-06T11:12:24Z</time>
      </trkpt>
      <trkpt lat="37.2502957564" lon="-3.3690208197">
        <ele>1334.45</ele>
        <time>2020-09-06T11:12:25Z</time>
      </trkpt>
      <trkpt lat="37.2499541938" lon="-3.3687801752">
        <ele>1335.89</ele>
        <time>2020-09-06T11:12:39Z</time>
      </trkpt>
      <trkpt lat="37.2494601645" lon="-3.3689165488">
        <ele>1337.81</ele>
        <time>2020-09-06T11:12:52Z</time>
      </trkpt>
      <trkpt lat="37.2488524765" lon="-3.3690588735">
        <ele>1338.29</ele>
        <time>2020-09-06T11:13:05Z</time>
      </trkpt>
      <trkpt lat="37.2481596284" lon="-3.3690488990">
        <ele>1340.22</ele>
        <time>2020-09-06T11:13:20Z</time>
      </trkpt>
      <trkpt lat="37.2476055846" lon="-3.3686751500">
        <ele>1342.14</ele>
        <time>2020-09-06T11:13:34Z</time>
      </trkpt>
      <trkpt lat="37.2472195979" lon="-3.3683665283">
        <ele>1344.54</ele>
        <time>2020-09-06T11:13:46Z</time>
      </trkpt>
      <trkpt lat="37.2467596829" lon="-3.3679423202">
        <ele>1347.91</ele>
        <time>2020-09-06T11:14:02Z</time>
      </trkpt>
      <trkpt lat="37.2468386404" lon="-3.3675734326">
        <ele>1350.79</ele>
        <time>2020-09-06T11:14:12Z</time>
      </trkpt>
      <trkpt lat="37.2470346931" lon="-3.3668808360">
        <ele>1353.67</ele>
        <time>2020-09-06T11:14:30Z</time>
      </trkpt>
      <trkpt lat="37.2471936140" lon="-3.3665013034">
        <ele>1354.63</ele>
        <time>2020-09-06T11:14:39Z</time>
      </trkpt>
      <trkpt lat="37.2472281475" lon="-3.3664733917">
        <ele>1354.63</ele>
        <time>2020-09-06T11:14:40Z</time>
      </trkpt>
      <trkpt lat="37.2472626809" lon="-3.3664501738">
        <ele>1354.63</ele>
        <time>2020-09-06T11:14:41Z</time>
      </trkpt>
      <trkpt lat="37.2477785032" lon="-3.3660501055">
        <ele>1357.04</ele>
        <time>2020-09-06T11:14:58Z</time>
      </trkpt>
      <trkpt lat="37.2481678426" lon="-3.3656092174">
        <ele>1358.96</ele>
        <time>2020-09-06T11:15:12Z</time>
      </trkpt>
      <trkpt lat="37.2485973313" lon="-3.3650350571">
        <ele>1361.84</ele>
        <time>2020-09-06T11:15:29Z</time>
      </trkpt>
      <trkpt lat="37.2487114929" lon="-3.3644083422">
        <ele>1363.77</ele>
        <time>2020-09-06T11:15:44Z</time>
      </trkpt>
      <trkpt lat="37.2489481140" lon="-3.3640153985">
        <ele>1366.65</ele>
        <time>2020-09-06T11:15:55Z</time>
      </trkpt>
      <trkpt lat="37.2493134812" lon="-3.3635709062">
        <ele>1368.57</ele>
        <time>2020-09-06T11:16:10Z</time>
      </trkpt>
      <trkpt lat="37.2495982982" lon="-3.3630324528">
        <ele>1370.98</ele>
        <time>2020-09-06T11:16:25Z</time>
      </trkpt>
      <trkpt lat="37.2499691136" lon="-3.3625747170">
        <ele>1374.34</ele>
        <time>2020-09-06T11:16:40Z</time>
      </trkpt>
      <trkpt lat="37.2502422798" lon="-3.3620745689">
        <ele>1375.78</ele>
        <time>2020-09-06T11:16:54Z</time>
      </trkpt>
      <trkpt lat="37.2503961716" lon="-3.3615416475">
        <ele>1378.19</ele>
        <time>2020-09-06T11:17:07Z</time>
      </trkpt>
      <trkpt lat="37.2504987661" lon="-3.3609967399">
        <ele>1380.11</ele>
        <time>2020-09-06T11:17:20Z</time>
      </trkpt>
      <trkpt lat="37.2508321144" lon="-3.3607731108">
        <ele>1382.99</ele>
        <time>2020-09-06T11:17:32Z</time>
      </trkpt>
      <trkpt lat="37.2512607649" lon="-3.3609122504">
        <ele>1384.92</ele>
        <time>2020-09-06T11:17:46Z</time>
      </trkpt>
      <trkpt lat="37.2515756730" lon="-3.3606291935">
        <ele>1387.32</ele>
        <time>2020-09-06T11:17:58Z</time>
      </trkpt>
      <trkpt lat="37.2519055009" lon="-3.3599878941">
        <ele>1389.72</ele>
        <time>2020-09-06T11:18:16Z</time>
      </trkpt>
      <trkpt lat="37.2521534376" lon="-3.3594560623">
        <ele>1392.13</ele>
        <time>2020-09-06T11:18:31Z</time>
      </trkpt>
      <trkpt lat="37.2520018928" lon="-3.3590060379">
        <ele>1393.09</ele>
        <time>2020-09-06T11:18:43Z</time>
      </trkpt>
      <trkpt lat="37.2520655952" lon="-3.3586470410">
        <ele>1395.01</ele>
        <time>2020-09-06T11:18:52Z</time>
      </trkpt>
      <trkpt lat="37.2525509074" lon="-3.3581798337">
        <ele>1396.45</ele>
        <time>2020-09-06T11:19:08Z</time>
      </trkpt>
      <trkpt lat="37.2529293504" lon="-3.3577038255">
        <ele>1400.30</ele>
        <time>2020-09-06T11:19:23Z</time>
      </trkpt>
      <trkpt lat="37.2532694880" lon="-3.3572942019">
        <ele>1401.26</ele>
        <time>2020-09-06T11:19:35Z</time>
      </trkpt>
      <trkpt lat="37.2534983978" lon="-3.3567787986">
        <ele>1403.18</ele>
        <time>2020-09-06T11:19:47Z</time>
      </trkpt>
      <trkpt lat="37.2538046725" lon="-3.3558028098">
        <ele>1403.66</ele>
        <time>2020-09-06T11:20:06Z</time>
      </trkpt>
      <trkpt lat="37.2539347596" lon="-3.3550310880">
        <ele>1406.07</ele>
        <time>2020-09-06T11:20:21Z</time>
      </trkpt>
      <trkpt lat="37.2539101169" lon="-3.3544223942">
        <ele>1409.43</ele>
        <time>2020-09-06T11:20:34Z</time>
      </trkpt>
      <trkpt lat="37.2539726458" lon="-3.3535749000">
        <ele>1412.31</ele>
        <time>2020-09-06T11:20:53Z</time>
      </trkpt>
      <trkpt lat="37.2537854780" lon="-3.3529763483">
        <ele>1414.72</ele>
        <time>2020-09-06T11:21:08Z</time>
      </trkpt>
      <trkpt lat="37.2538164072" lon="-3.3524278365">
        <ele>1417.12</ele>
        <time>2020-09-06T11:21:21Z</time>
      </trkpt>
      <trkpt lat="37.2537817899" lon="-3.3518286981">
        <ele>1420.00</ele>
        <time>2020-09-06T11:21:36Z</time>
      </trkpt>
      <trkpt lat="37.2541400325" lon="-3.3513480797">
        <ele>1422.41</ele>
        <time>2020-09-06T11:21:51Z</time>
      </trkpt>
      <trkpt lat="37.2543646675" lon="-3.3509909268">
        <ele>1425.29</ele>
        <time>2020-09-06T11:22:03Z</time>
      </trkpt>
      <trkpt lat="37.2544113547" lon="-3.3508653659">
        <ele>1426.25</ele>
        <time>2020-09-06T11:22:07Z</time>
      </trkpt>
      <trkpt lat="37.2544116899" lon="-3.3508315869">
        <ele>1426.73</ele>
        <time>2020-09-06T11:22:08Z</time>
      </trkpt>
      <trkpt lat="37.2544100974" lon="-3.3507973887">
        <ele>1426.73</ele>
        <time>2020-09-06T11:22:09Z</time>
      </trkpt>
      <trkpt lat="37.2542956844" lon="-3.3502949774">
        <ele>1428.18</ele>
        <time>2020-09-06T11:22:24Z</time>
      </trkpt>
      <trkpt lat="37.2541752364" lon="-3.3498851862">
        <ele>1432.02</ele>
        <time>2020-09-06T11:22:36Z</time>
      </trkpt>
      <trkpt lat="37.2540671937" lon="-3.3493773267">
        <ele>1433.94</ele>
        <time>2020-09-06T11:22:51Z</time>
      </trkpt>
      <trkpt lat="37.2538851388" lon="-3.3487997297">
        <ele>1435.87</ele>
        <time>2020-09-06T11:23:08Z</time>
      </trkpt>
      <trkpt lat="37.2536656167" lon="-3.3482976537">
        <ele>1439.23</ele>
        <time>2020-09-06T11:23:24Z</time>
      </trkpt>
      <trkpt lat="37.2534155846" lon="-3.3479092363">
        <ele>1442.11</ele>
        <time>2020-09-06T11:23:38Z</time>
      </trkpt>
      <trkpt lat="37.2530958988" lon="-3.3478025347">
        <ele>1445.48</ele>
        <time>2020-09-06T11:23:52Z</time>
      </trkpt>
      <trkpt lat="37.2527713515" lon="-3.3477664087">
        <ele>1448.84</ele>
        <time>2020-09-06T11:24:06Z</time>
      </trkpt>
      <trkpt lat="37.2524510790" lon="-3.3477222361">
        <ele>1449.81</ele>
        <time>2020-09-06T11:24:20Z</time>
      </trkpt>
      <trkpt lat="37.2524090856" lon="-3.3477081545">
        <ele>1452.69</ele>
        <time>2020-09-06T11:24:22Z</time>
      </trkpt>
      <trkpt lat="37.2521650046" lon="-3.3474109322">
        <ele>1454.13</ele>
        <time>2020-09-06T11:24:35Z</time>
      </trkpt>
      <trkpt lat="37.2522557806" lon="-3.3470054157">
        <ele>1457.02</ele>
        <time>2020-09-06T11:24:47Z</time>
      </trkpt>
      <trkpt lat="37.2522016335" lon="-3.3465809561">
        <ele>1459.42</ele>
        <time>2020-09-06T11:25:01Z</time>
      </trkpt>
      <trkpt lat="37.2521655075" lon="-3.3462146670">
        <ele>1462.30</ele>
        <time>2020-09-06T11:25:13Z</time>
      </trkpt>
      <trkpt lat="37.2523020487" lon="-3.3457695879">
        <ele>1465.19</ele>
        <time>2020-09-06T11:25:27Z</time>
      </trkpt>
      <trkpt lat="37.2522925772" lon="-3.3453587070">
        <ele>1468.07</ele>
        <time>2020-09-06T11:25:39Z</time>
      </trkpt>
      <trkpt lat="37.2522106860" lon="-3.3449771628">
        <ele>1470.47</ele>
        <time>2020-09-06T11:25:53Z</time>
      </trkpt>
      <trkpt lat="37.2520854603" lon="-3.3445977140">
        <ele>1472.88</ele>
        <time>2020-09-06T11:26:06Z</time>
      </trkpt>
      <trkpt lat="37.2521255258" lon="-3.3441579156">
        <ele>1476.24</ele>
        <time>2020-09-06T11:26:19Z</time>
      </trkpt>
      <trkpt lat="37.2521396074" lon="-3.3436658978">
        <ele>1478.65</ele>
        <time>2020-09-06T11:26:34Z</time>
      </trkpt>
      <trkpt lat="37.2520520166" lon="-3.3431819268">
        <ele>1482.49</ele>
        <time>2020-09-06T11:26:50Z</time>
      </trkpt>
      <trkpt lat="37.2522644140" lon="-3.3429592196">
        <ele>1484.89</ele>
        <time>2020-09-06T11:27:02Z</time>
      </trkpt>
      <trkpt lat="37.2526350617" lon="-3.3428993728">
        <ele>1487.78</ele>
        <time>2020-09-06T11:27:17Z</time>
      </trkpt>
      <trkpt lat="37.2530044522" lon="-3.3426681999">
        <ele>1490.18</ele>
        <time>2020-09-06T11:27:34Z</time>
      </trkpt>
      <trkpt lat="37.2530146781" lon="-3.3424718957">
        <ele>1492.58</ele>
        <time>2020-09-06T11:27:41Z</time>
      </trkpt>
      <trkpt lat="37.2528244928" lon="-3.3420743421">
        <ele>1495.47</ele>
        <time>2020-09-06T11:27:57Z</time>
      </trkpt>
      <trkpt lat="37.2525140271" lon="-3.3416440152">
        <ele>1498.35</ele>
        <time>2020-09-06T11:28:15Z</time>
      </trkpt>
      <trkpt lat="37.2522085905" lon="-3.3416208811">
        <ele>1499.79</ele>
        <time>2020-09-06T11:28:27Z</time>
      </trkpt>
      <trkpt lat="37.2517992184" lon="-3.3417280018">
        <ele>1502.68</ele>
        <time>2020-09-06T11:28:42Z</time>
      </trkpt>
      <trkpt lat="37.2515114676" lon="-3.3413789794">
        <ele>1505.08</ele>
        <time>2020-09-06T11:28:55Z</time>
      </trkpt>
      <trkpt lat="37.2511789575" lon="-3.3410126902">
        <ele>1507.48</ele>
        <time>2020-09-06T11:29:09Z</time>
      </trkpt>
      <trkpt lat="37.2509019356" lon="-3.3405562956">
        <ele>1509.89</ele>
        <time>2020-09-06T11:29:23Z</time>
      </trkpt>
      <trkpt lat="37.2505648993" lon="-3.3404855523">
        <ele>1511.81</ele>
        <time>2020-09-06T11:29:35Z</time>
      </trkpt>
      <trkpt lat="37.2501277830" lon="-3.3406579681">
        <ele>1513.25</ele>
        <time>2020-09-06T11:29:49Z</time>
      </trkpt>
      <trkpt lat="37.2497692052" lon="-3.3403512742">
        <ele>1516.62</ele>
        <time>2020-09-06T11:30:03Z</time>
      </trkpt>
      <trkpt lat="37.2494479269" lon="-3.3399078716">
        <ele>1519.02</ele>
        <time>2020-09-06T11:30:18Z</time>
      </trkpt>
      <trkpt lat="37.2493273113" lon="-3.3394168597">
        <ele>1520.46</ele>
        <time>2020-09-06T11:30:30Z</time>
      </trkpt>
      <trkpt lat="37.2492110543" lon="-3.3392051328">
        <ele>1520.94</ele>
        <time>2020-09-06T11:30:35Z</time>
      </trkpt>
      <trkpt lat="37.2491745092" lon="-3.3391747065">
        <ele>1520.94</ele>
        <time>2020-09-06T11:30:36Z</time>
      </trkpt>
      <trkpt lat="37.2487154324" lon="-3.3389532566">
        <ele>1521.90</ele>
        <time>2020-09-06T11:30:47Z</time>
      </trkpt>
      <trkpt lat="37.2485999297" lon="-3.3388753049">
        <ele>1521.90</ele>
        <time>2020-09-06T11:30:50Z</time>
      </trkpt>
      <trkpt lat="37.2485661507" lon="-3.3388374187">
        <ele>1522.39</ele>
        <time>2020-09-06T11:30:51Z</time>
      </trkpt>
      <trkpt lat="37.2485323716" lon="-3.3387960959">
        <ele>1522.39</ele>
        <time>2020-09-06T11:30:52Z</time>
      </trkpt>
      <trkpt lat="37.2485038731" lon="-3.3387503307">
        <ele>1522.39</ele>
        <time>2020-09-06T11:30:53Z</time>
      </trkpt>
      <trkpt lat="37.2484809067" lon="-3.3387007937">
        <ele>1522.39</ele>
        <time>2020-09-06T11:30:54Z</time>
      </trkpt>
      <trkpt lat="37.2484625503" lon="-3.3386483230">
        <ele>1522.39</ele>
        <time>2020-09-06T11:30:55Z</time>
      </trkpt>
      <trkpt lat="37.2484446131" lon="-3.3385962714">
        <ele>1523.35</ele>
        <time>2020-09-06T11:30:56Z</time>
      </trkpt>
      <trkpt lat="37.2484241612" lon="-3.3385448065">
        <ele>1522.87</ele>
        <time>2020-09-06T11:30:57Z</time>
      </trkpt>
      <trkpt lat="37.2483817488" lon="-3.3384436369">
        <ele>1522.87</ele>
        <time>2020-09-06T11:30:59Z</time>
      </trkpt>
      <trkpt lat="37.2483532503" lon="-3.3383935969">
        <ele>1523.35</ele>
        <time>2020-09-06T11:31:00Z</time>
      </trkpt>
      <trkpt lat="37.2483219020" lon="-3.3383526932">
        <ele>1523.35</ele>
        <time>2020-09-06T11:31:01Z</time>
      </trkpt>
      <trkpt lat="37.2482496500" lon="-3.3382713050">
        <ele>1523.35</ele>
        <time>2020-09-06T11:31:03Z</time>
      </trkpt>
      <trkpt lat="37.2482086625" lon="-3.3382347599">
        <ele>1523.35</ele>
        <time>2020-09-06T11:31:04Z</time>
      </trkpt>
      <trkpt lat="37.2481642384" lon="-3.3382020704">
        <ele>1523.83</ele>
        <time>2020-09-06T11:31:05Z</time>
      </trkpt>
      <trkpt lat="37.2478884738" lon="-3.3379749209">
        <ele>1523.83</ele>
        <time>2020-09-06T11:31:11Z</time>
      </trkpt>
      <trkpt lat="37.2478464805" lon="-3.3379219472">
        <ele>1523.83</ele>
        <time>2020-09-06T11:31:12Z</time>
      </trkpt>
      <trkpt lat="37.2477144655" lon="-3.3377582487">
        <ele>1523.83</ele>
        <time>2020-09-06T11:31:15Z</time>
      </trkpt>
      <trkpt lat="37.2476808541" lon="-3.3376994915">
        <ele>1523.83</ele>
        <time>2020-09-06T11:31:16Z</time>
      </trkpt>
      <trkpt lat="37.2476188280" lon="-3.3375720866">
        <ele>1522.39</ele>
        <time>2020-09-06T11:31:18Z</time>
      </trkpt>
      <trkpt lat="37.2475224361" lon="-3.3373926301">
        <ele>1522.39</ele>
        <time>2020-09-06T11:31:21Z</time>
      </trkpt>
      <trkpt lat="37.2474824544" lon="-3.3373415004">
        <ele>1522.39</ele>
        <time>2020-09-06T11:31:22Z</time>
      </trkpt>
      <trkpt lat="37.2474388685" lon="-3.3372948971">
        <ele>1522.39</ele>
        <time>2020-09-06T11:31:23Z</time>
      </trkpt>
      <trkpt lat="37.2473928519" lon="-3.3372518979">
        <ele>1522.39</ele>
        <time>2020-09-06T11:31:24Z</time>
      </trkpt>
      <trkpt lat="37.2473459970" lon="-3.3372120000">
        <ele>1522.39</ele>
        <time>2020-09-06T11:31:25Z</time>
      </trkpt>
      <trkpt lat="37.2470974736" lon="-3.3369935676">
        <ele>1523.83</ele>
        <time>2020-09-06T11:31:31Z</time>
      </trkpt>
      <trkpt lat="37.2469357029" lon="-3.3368297014">
        <ele>1524.79</ele>
        <time>2020-09-06T11:31:36Z</time>
      </trkpt>
      <trkpt lat="37.2468782030" lon="-3.3367528394">
        <ele>1525.27</ele>
        <time>2020-09-06T11:31:38Z</time>
      </trkpt>
      <trkpt lat="37.2468366288" lon="-3.3366622310">
        <ele>1525.27</ele>
        <time>2020-09-06T11:31:40Z</time>
      </trkpt>
      <trkpt lat="37.2468233854" lon="-3.3366116881">
        <ele>1525.75</ele>
        <time>2020-09-06T11:31:41Z</time>
      </trkpt>
      <trkpt lat="37.2467979882" lon="-3.3364587184">
        <ele>1525.75</ele>
        <time>2020-09-06T11:31:44Z</time>
      </trkpt>
      <trkpt lat="37.2467964794" lon="-3.3364066668">
        <ele>1526.23</ele>
        <time>2020-09-06T11:31:45Z</time>
      </trkpt>
      <trkpt lat="37.2467580065" lon="-3.3356538881">
        <ele>1528.63</ele>
        <time>2020-09-06T11:32:00Z</time>
      </trkpt>
      <trkpt lat="37.2466688231" lon="-3.3352730982">
        <ele>1530.56</ele>
        <time>2020-09-06T11:32:10Z</time>
      </trkpt>
      <trkpt lat="37.2468314320" lon="-3.3348592836">
        <ele>1531.52</ele>
        <time>2020-09-06T11:32:20Z</time>
      </trkpt>
      <trkpt lat="37.2469385527" lon="-3.3340870589">
        <ele>1533.44</ele>
        <time>2020-09-06T11:32:35Z</time>
      </trkpt>
      <trkpt lat="37.2469982319" lon="-3.3333332743">
        <ele>1534.88</ele>
        <time>2020-09-06T11:32:50Z</time>
      </trkpt>
      <trkpt lat="37.2470122296" lon="-3.3328373171">
        <ele>1536.32</ele>
        <time>2020-09-06T11:33:00Z</time>
      </trkpt>
      <trkpt lat="37.2470217850" lon="-3.3327876125">
        <ele>1536.32</ele>
        <time>2020-09-06T11:33:01Z</time>
      </trkpt>
      <trkpt lat="37.2470312566" lon="-3.3327374887">
        <ele>1536.32</ele>
        <time>2020-09-06T11:33:02Z</time>
      </trkpt>
      <trkpt lat="37.2473011538" lon="-3.3321075886">
        <ele>1539.69</ele>
        <time>2020-09-06T11:33:17Z</time>
      </trkpt>
      <trkpt lat="37.2476564627" lon="-3.3316826262">
        <ele>1542.09</ele>
        <time>2020-09-06T11:33:31Z</time>
      </trkpt>
      <trkpt lat="37.2477199975" lon="-3.3315983880">
        <ele>1542.09</ele>
        <time>2020-09-06T11:33:33Z</time>
      </trkpt>
      <trkpt lat="37.2478609812" lon="-3.3313331846">
        <ele>1540.65</ele>
        <time>2020-09-06T11:33:38Z</time>
      </trkpt>
      <trkpt lat="37.2480717022" lon="-3.3308031131">
        <ele>1537.77</ele>
        <time>2020-09-06T11:33:46Z</time>
      </trkpt>
      <trkpt lat="37.2481068224" lon="-3.3307621256">
        <ele>1537.77</ele>
        <time>2020-09-06T11:33:47Z</time>
      </trkpt>
      <trkpt lat="37.2481568623" lon="-3.3307437692">
        <ele>1537.77</ele>
        <time>2020-09-06T11:33:48Z</time>
      </trkpt>
      <trkpt lat="37.2488710005" lon="-3.3308705874">
        <ele>1535.84</ele>
        <time>2020-09-06T11:34:01Z</time>
      </trkpt>
      <trkpt lat="37.2494960390" lon="-3.3308527339">
        <ele>1534.40</ele>
        <time>2020-09-06T11:34:11Z</time>
      </trkpt>
      <trkpt lat="37.2498881444" lon="-3.3306661528">
        <ele>1534.40</ele>
        <time>2020-09-06T11:34:18Z</time>
      </trkpt>
      <trkpt lat="37.2499412019" lon="-3.3306401689">
        <ele>1534.40</ele>
        <time>2020-09-06T11:34:19Z</time>
      </trkpt>
      <trkpt lat="37.2499902360" lon="-3.3306114189">
        <ele>1533.92</ele>
        <time>2020-09-06T11:34:20Z</time>
      </trkpt>
      <trkpt lat="37.2500304691" lon="-3.3305770531">
        <ele>1533.92</ele>
        <time>2020-09-06T11:34:21Z</time>
      </trkpt>
      <trkpt lat="37.2500580456" lon="-3.3305308688">
        <ele>1533.92</ele>
        <time>2020-09-06T11:34:22Z</time>
      </trkpt>
      <trkpt lat="37.2500728816" lon="-3.3304681722">
        <ele>1533.92</ele>
        <time>2020-09-06T11:34:23Z</time>
      </trkpt>
      <trkpt lat="37.2500760667" lon="-3.3304155339">
        <ele>1533.44</ele>
        <time>2020-09-06T11:34:24Z</time>
      </trkpt>
      <trkpt lat="37.2500784136" lon="-3.3303568605">
        <ele>1532.96</ele>
        <time>2020-09-06T11:34:25Z</time>
      </trkpt>
      <trkpt lat="37.2500845324" lon="-3.3302991092">
        <ele>1532.48</ele>
        <time>2020-09-06T11:34:26Z</time>
      </trkpt>
      <trkpt lat="37.2500913218" lon="-3.3302335627">
        <ele>1532.48</ele>
        <time>2020-09-06T11:34:27Z</time>
      </trkpt>
      <trkpt lat="37.2502783220" lon="-3.3292952925">
        <ele>1529.59</ele>
        <time>2020-09-06T11:34:39Z</time>
      </trkpt>
      <trkpt lat="37.2503123526" lon="-3.3292141557">
        <ele>1529.59</ele>
        <time>2020-09-06T11:34:40Z</time>
      </trkpt>
      <trkpt lat="37.2503515799" lon="-3.3291377965">
        <ele>1529.59</ele>
        <time>2020-09-06T11:34:41Z</time>
      </trkpt>
      <trkpt lat="37.2506294399" lon="-3.3287016861">
        <ele>1528.63</ele>
        <time>2020-09-06T11:34:47Z</time>
      </trkpt>
      <trkpt lat="37.2506684158" lon="-3.3286229800">
        <ele>1528.63</ele>
        <time>2020-09-06T11:34:48Z</time>
      </trkpt>
      <trkpt lat="37.2507021111" lon="-3.3285419270">
        <ele>1528.63</ele>
        <time>2020-09-06T11:34:49Z</time>
      </trkpt>
      <trkpt lat="37.2507273406" lon="-3.3284566831">
        <ele>1528.15</ele>
        <time>2020-09-06T11:34:50Z</time>
      </trkpt>
      <trkpt lat="37.2507382371" lon="-3.3283694275">
        <ele>1528.15</ele>
        <time>2020-09-06T11:34:51Z</time>
      </trkpt>
      <trkpt lat="37.2507348843" lon="-3.3282843512">
        <ele>1528.15</ele>
        <time>2020-09-06T11:34:52Z</time>
      </trkpt>
      <trkpt lat="37.2507247422" lon="-3.3281996101">
        <ele>1528.15</ele>
        <time>2020-09-06T11:34:53Z</time>
      </trkpt>
      <trkpt lat="37.2506638896" lon="-3.3279415313">
        <ele>1527.19</ele>
        <time>2020-09-06T11:34:56Z</time>
      </trkpt>
      <trkpt lat="37.2505972534" lon="-3.3277826943">
        <ele>1527.19</ele>
        <time>2020-09-06T11:34:58Z</time>
      </trkpt>
      <trkpt lat="37.2503690142" lon="-3.3273743279">
        <ele>1527.19</ele>
        <time>2020-09-06T11:35:04Z</time>
      </trkpt>
      <trkpt lat="37.2503421083" lon="-3.3273089491">
        <ele>1527.19</ele>
        <time>2020-09-06T11:35:05Z</time>
      </trkpt>
      <trkpt lat="37.2503223270" lon="-3.3272439893">
        <ele>1527.19</ele>
        <time>2020-09-06T11:35:06Z</time>
      </trkpt>
      <trkpt lat="37.2501477320" lon="-3.3267947193">
        <ele>1530.56</ele>
        <time>2020-09-06T11:35:14Z</time>
      </trkpt>
      <trkpt lat="37.2500960995" lon="-3.3266980760">
        <ele>1530.56</ele>
        <time>2020-09-06T11:35:16Z</time>
      </trkpt>
      <trkpt lat="37.2499775793" lon="-3.3265096508">
        <ele>1531.04</ele>
        <time>2020-09-06T11:35:20Z</time>
      </trkpt>
      <trkpt lat="37.2499535233" lon="-3.3264552522">
        <ele>1530.56</ele>
        <time>2020-09-06T11:35:21Z</time>
      </trkpt>
      <trkpt lat="37.2499314789" lon="-3.3263977524">
        <ele>1531.52</ele>
        <time>2020-09-06T11:35:22Z</time>
      </trkpt>
      <trkpt lat="37.2499151342" lon="-3.3263383247">
        <ele>1531.52</ele>
        <time>2020-09-06T11:35:23Z</time>
      </trkpt>
      <trkpt lat="37.2499005497" lon="-3.3262782265">
        <ele>1531.52</ele>
        <time>2020-09-06T11:35:24Z</time>
      </trkpt>
      <trkpt lat="37.2498896532" lon="-3.3262224868">
        <ele>1532.00</ele>
        <time>2020-09-06T11:35:25Z</time>
      </trkpt>
      <trkpt lat="37.2498838697" lon="-3.3261678368">
        <ele>1532.48</ele>
        <time>2020-09-06T11:35:26Z</time>
      </trkpt>
      <trkpt lat="37.2498837858" lon="-3.3261117619">
        <ele>1532.48</ele>
        <time>2020-09-06T11:35:27Z</time>
      </trkpt>
      <trkpt lat="37.2498866357" lon="-3.3260005340">
        <ele>1532.96</ele>
        <time>2020-09-06T11:35:29Z</time>
      </trkpt>
      <trkpt lat="37.2498938441" lon="-3.3259394299">
        <ele>1533.44</ele>
        <time>2020-09-06T11:35:30Z</time>
      </trkpt>
      <trkpt lat="37.2499401122" lon="-3.3256093506">
        <ele>1533.92</ele>
        <time>2020-09-06T11:35:36Z</time>
      </trkpt>
      <trkpt lat="37.2500505019" lon="-3.3246405702">
        <ele>1535.84</ele>
        <time>2020-09-06T11:35:54Z</time>
      </trkpt>
      <trkpt lat="37.2499845363" lon="-3.3245209605">
        <ele>1536.32</ele>
        <time>2020-09-06T11:35:57Z</time>
      </trkpt>
      <trkpt lat="37.2499523498" lon="-3.3244887739">
        <ele>1536.32</ele>
        <time>2020-09-06T11:35:58Z</time>
      </trkpt>
      <trkpt lat="37.2499186546" lon="-3.3244553301">
        <ele>1536.32</ele>
        <time>2020-09-06T11:35:59Z</time>
      </trkpt>
      <trkpt lat="37.2498454805" lon="-3.3243904542">
        <ele>1536.80</ele>
        <time>2020-09-06T11:36:01Z</time>
      </trkpt>
      <trkpt lat="37.2496687900" lon="-3.3241691720">
        <ele>1537.77</ele>
        <time>2020-09-06T11:36:07Z</time>
      </trkpt>
      <trkpt lat="37.2496441472" lon="-3.3241218980">
        <ele>1538.25</ele>
        <time>2020-09-06T11:36:08Z</time>
      </trkpt>
      <trkpt lat="37.2496257909" lon="-3.3240712713">
        <ele>1538.25</ele>
        <time>2020-09-06T11:36:09Z</time>
      </trkpt>
      <trkpt lat="37.2496117931" lon="-3.3240192197">
        <ele>1538.25</ele>
        <time>2020-09-06T11:36:10Z</time>
      </trkpt>
      <trkpt lat="37.2496043332" lon="-3.3239664137">
        <ele>1538.25</ele>
        <time>2020-09-06T11:36:11Z</time>
      </trkpt>
      <trkpt lat="37.2496023215" lon="-3.3239120990">
        <ele>1539.21</ele>
        <time>2020-09-06T11:36:12Z</time>
      </trkpt>
      <trkpt lat="37.2496060934" lon="-3.3238540124">
        <ele>1539.21</ele>
        <time>2020-09-06T11:36:13Z</time>
      </trkpt>
      <trkpt lat="37.2496148106" lon="-3.3237955067">
        <ele>1539.21</ele>
        <time>2020-09-06T11:36:14Z</time>
      </trkpt>
      <trkpt lat="37.2496343404" lon="-3.3236812614">
        <ele>1539.69</ele>
        <time>2020-09-06T11:36:16Z</time>
      </trkpt>
      <trkpt lat="37.2496733163" lon="-3.3234847058">
        <ele>1540.17</ele>
        <time>2020-09-06T11:36:20Z</time>
      </trkpt>
      <trkpt lat="37.2497899085" lon="-3.3227784466">
        <ele>1542.57</ele>
        <time>2020-09-06T11:36:34Z</time>
      </trkpt>
      <trkpt lat="37.2497860529" lon="-3.3227214497">
        <ele>1542.57</ele>
        <time>2020-09-06T11:36:35Z</time>
      </trkpt>
      <trkpt lat="37.2497754917" lon="-3.3226612676">
        <ele>1542.57</ele>
        <time>2020-09-06T11:36:36Z</time>
      </trkpt>
      <trkpt lat="37.2497609910" lon="-3.3226037677">
        <ele>1542.57</ele>
        <time>2020-09-06T11:36:37Z</time>
      </trkpt>
      <trkpt lat="37.2497425508" lon="-3.3225492854">
        <ele>1542.57</ele>
        <time>2020-09-06T11:36:38Z</time>
      </trkpt>
      <trkpt lat="37.2497198358" lon="-3.3224998321">
        <ele>1542.57</ele>
        <time>2020-09-06T11:36:39Z</time>
      </trkpt>
      <trkpt lat="37.2496944387" lon="-3.3224559110">
        <ele>1543.05</ele>
        <time>2020-09-06T11:36:40Z</time>
      </trkpt>
      <trkpt lat="37.2496660240" lon="-3.3224141691">
        <ele>1543.05</ele>
        <time>2020-09-06T11:36:41Z</time>
      </trkpt>
      <trkpt lat="37.2496045846" lon="-3.3223373909">
        <ele>1543.53</ele>
        <time>2020-09-06T11:36:43Z</time>
      </trkpt>
      <trkpt lat="37.2495708056" lon="-3.3223021869">
        <ele>1544.01</ele>
        <time>2020-09-06T11:36:44Z</time>
      </trkpt>
      <trkpt lat="37.2492799535" lon="-3.3223407436">
        <ele>1545.46</ele>
        <time>2020-09-06T11:36:53Z</time>
      </trkpt>
      <trkpt lat="37.2491442505" lon="-3.3229070250">
        <ele>1548.82</ele>
        <time>2020-09-06T11:37:06Z</time>
      </trkpt>
      <trkpt lat="37.2491248883" lon="-3.3233181573">
        <ele>1549.30</ele>
        <time>2020-09-06T11:37:14Z</time>
      </trkpt>
      <trkpt lat="37.2491131537" lon="-3.3233688679">
        <ele>1549.30</ele>
        <time>2020-09-06T11:37:15Z</time>
      </trkpt>
      <trkpt lat="37.2490972281" lon="-3.3234137949">
        <ele>1549.30</ele>
        <time>2020-09-06T11:37:16Z</time>
      </trkpt>
      <trkpt lat="37.2490167618" lon="-3.3235294651">
        <ele>1550.74</ele>
        <time>2020-09-06T11:37:19Z</time>
      </trkpt>
      <trkpt lat="37.2485684976" lon="-3.3236815128">
        <ele>1553.15</ele>
        <time>2020-09-06T11:37:31Z</time>
      </trkpt>
      <trkpt lat="37.2483558487" lon="-3.3236758970">
        <ele>1554.11</ele>
        <time>2020-09-06T11:37:36Z</time>
      </trkpt>
      <trkpt lat="37.2483154479" lon="-3.3236762322">
        <ele>1554.11</ele>
        <time>2020-09-06T11:37:37Z</time>
      </trkpt>
      <trkpt lat="37.2482763883" lon="-3.3236775734">
        <ele>1554.59</ele>
        <time>2020-09-06T11:37:38Z</time>
      </trkpt>
      <trkpt lat="37.2482380830" lon="-3.3236791659">
        <ele>1554.59</ele>
        <time>2020-09-06T11:37:39Z</time>
      </trkpt>
      <trkpt lat="37.2481986880" lon="-3.3236791659">
        <ele>1555.07</ele>
        <time>2020-09-06T11:37:40Z</time>
      </trkpt>
      <trkpt lat="37.2478551138" lon="-3.3236770704">
        <ele>1555.07</ele>
        <time>2020-09-06T11:37:48Z</time>
      </trkpt>
      <trkpt lat="37.2477142978" lon="-3.3236990310">
        <ele>1555.07</ele>
        <time>2020-09-06T11:37:51Z</time>
      </trkpt>
      <trkpt lat="37.2476630844" lon="-3.3237154596">
        <ele>1555.07</ele>
        <time>2020-09-06T11:37:52Z</time>
      </trkpt>
      <trkpt lat="37.2476121224" lon="-3.3237360790">
        <ele>1555.07</ele>
        <time>2020-09-06T11:37:53Z</time>
      </trkpt>
      <trkpt lat="37.2474001441" lon="-3.3238457981">
        <ele>1554.11</ele>
        <time>2020-09-06T11:37:57Z</time>
      </trkpt>
      <trkpt lat="37.2467191983" lon="-3.3240727801">
        <ele>1553.15</ele>
        <time>2020-09-06T11:38:08Z</time>
      </trkpt>
      <trkpt lat="37.2466644645" lon="-3.3240788151">
        <ele>1554.59</ele>
        <time>2020-09-06T11:38:09Z</time>
      </trkpt>
      <trkpt lat="37.2466103174" lon="-3.3240808267">
        <ele>1555.07</ele>
        <time>2020-09-06T11:38:10Z</time>
      </trkpt>
      <trkpt lat="37.2465596069" lon="-3.3240774740">
        <ele>1555.07</ele>
        <time>2020-09-06T11:38:11Z</time>
      </trkpt>
      <trkpt lat="37.2465104889" lon="-3.3240711037">
        <ele>1555.55</ele>
        <time>2020-09-06T11:38:12Z</time>
      </trkpt>
      <trkpt lat="37.2464609519" lon="-3.3240622189">
        <ele>1555.55</ele>
        <time>2020-09-06T11:38:13Z</time>
      </trkpt>
      <trkpt lat="37.2464105766" lon="-3.3240497299">
        <ele>1556.03</ele>
        <time>2020-09-06T11:38:14Z</time>
      </trkpt>
      <trkpt lat="37.2461060621" lon="-3.3239044715">
        <ele>1556.51</ele>
        <time>2020-09-06T11:38:20Z</time>
      </trkpt>
      <trkpt lat="37.2459245939" lon="-3.3237753902">
        <ele>1556.99</ele>
        <time>2020-09-06T11:38:24Z</time>
      </trkpt>
      <trkpt lat="37.2458823491" lon="-3.3237547707">
        <ele>1557.47</ele>
        <time>2020-09-06T11:38:25Z</time>
      </trkpt>
      <trkpt lat="37.2458411101" lon="-3.3237411082">
        <ele>1557.47</ele>
        <time>2020-09-06T11:38:26Z</time>
      </trkpt>
      <trkpt lat="37.2458004579" lon="-3.3237350732">
        <ele>1557.95</ele>
        <time>2020-09-06T11:38:27Z</time>
      </trkpt>
      <trkpt lat="37.2457595542" lon="-3.3237361629">
        <ele>1557.95</ele>
        <time>2020-09-06T11:38:28Z</time>
      </trkpt>
      <trkpt lat="37.2457196563" lon="-3.3237452153">
        <ele>1558.43</ele>
        <time>2020-09-06T11:38:29Z</time>
      </trkpt>
      <trkpt lat="37.2456795909" lon="-3.3237597998">
        <ele>1558.43</ele>
        <time>2020-09-06T11:38:30Z</time>
      </trkpt>
      <trkpt lat="37.2456423752" lon="-3.3237738814">
        <ele>1558.92</ele>
        <time>2020-09-06T11:38:31Z</time>
      </trkpt>
      <trkpt lat="37.2456047405" lon="-3.3237863705">
        <ele>1558.92</ele>
        <time>2020-09-06T11:38:32Z</time>
      </trkpt>
      <trkpt lat="37.2455269564" lon="-3.3238063194">
        <ele>1559.40</ele>
        <time>2020-09-06T11:38:34Z</time>
      </trkpt>
      <trkpt lat="37.2454451490" lon="-3.3238305431">
        <ele>1560.36</ele>
        <time>2020-09-06T11:38:36Z</time>
      </trkpt>
      <trkpt lat="37.2452409659" lon="-3.3238852769">
        <ele>1560.36</ele>
        <time>2020-09-06T11:38:41Z</time>
      </trkpt>
      <trkpt lat="37.2445849143" lon="-3.3241861034">
        <ele>1563.72</ele>
        <time>2020-09-06T11:38:58Z</time>
      </trkpt>
      <trkpt lat="37.2444995865" lon="-3.3241929766">
        <ele>1563.72</ele>
        <time>2020-09-06T11:39:00Z</time>
      </trkpt>
      <trkpt lat="37.2444570903" lon="-3.3241897076">
        <ele>1564.20</ele>
        <time>2020-09-06T11:39:01Z</time>
      </trkpt>
      <trkpt lat="37.2444146778" lon="-3.3241857681">
        <ele>1564.20</ele>
        <time>2020-09-06T11:39:02Z</time>
      </trkpt>
      <trkpt lat="37.2442481294" lon="-3.3241870254">
        <ele>1565.16</ele>
        <time>2020-09-06T11:39:06Z</time>
      </trkpt>
      <trkpt lat="37.2437799163" lon="-3.3243184537">
        <ele>1566.61</ele>
        <time>2020-09-06T11:39:17Z</time>
      </trkpt>
      <trkpt lat="37.2430153191" lon="-3.3248711564">
        <ele>1567.57</ele>
        <time>2020-09-06T11:39:34Z</time>
      </trkpt>
      <trkpt lat="37.2429355234" lon="-3.3249815460">
        <ele>1567.57</ele>
        <time>2020-09-06T11:39:36Z</time>
      </trkpt>
      <trkpt lat="37.2429061029" lon="-3.3250413928">
        <ele>1567.57</ele>
        <time>2020-09-06T11:39:37Z</time>
      </trkpt>
      <trkpt lat="37.2428827174" lon="-3.3251050115">
        <ele>1567.57</ele>
        <time>2020-09-06T11:39:38Z</time>
      </trkpt>
      <trkpt lat="37.2427630238" lon="-3.3255475760">
        <ele>1566.12</ele>
        <time>2020-09-06T11:39:44Z</time>
      </trkpt>
      <trkpt lat="37.2427371237" lon="-3.3256195765">
        <ele>1566.12</ele>
        <time>2020-09-06T11:39:45Z</time>
      </trkpt>
      <trkpt lat="37.2425719164" lon="-3.3259314671">
        <ele>1565.16</ele>
        <time>2020-09-06T11:39:50Z</time>
      </trkpt>
      <trkpt lat="37.2425286658" lon="-3.3259726223">
        <ele>1564.20</ele>
        <time>2020-09-06T11:39:51Z</time>
      </trkpt>
      <trkpt lat="37.2424783744" lon="-3.3259991929">
        <ele>1564.20</ele>
        <time>2020-09-06T11:39:52Z</time>
      </trkpt>
      <trkpt lat="37.2424252331" lon="-3.3260141965">
        <ele>1564.20</ele>
        <time>2020-09-06T11:39:53Z</time>
      </trkpt>
      <trkpt lat="37.2423663083" lon="-3.3260190580">
        <ele>1563.24</ele>
        <time>2020-09-06T11:39:54Z</time>
      </trkpt>
      <trkpt lat="37.2423038632" lon="-3.3260203153">
        <ele>1563.24</ele>
        <time>2020-09-06T11:39:55Z</time>
      </trkpt>
      <trkpt lat="37.2414033115" lon="-3.3260546811">
        <ele>1560.36</ele>
        <time>2020-09-06T11:40:07Z</time>
      </trkpt>
      <trkpt lat="37.2411681991" lon="-3.3260127716">
        <ele>1559.40</ele>
        <time>2020-09-06T11:40:10Z</time>
      </trkpt>
      <trkpt lat="37.2410870623" lon="-3.3260173816">
        <ele>1559.40</ele>
        <time>2020-09-06T11:40:11Z</time>
      </trkpt>
      <trkpt lat="37.2410107031" lon="-3.3260364085">
        <ele>1559.40</ele>
        <time>2020-09-06T11:40:12Z</time>
      </trkpt>
      <trkpt lat="37.2409382835" lon="-3.3260672539">
        <ele>1559.40</ele>
        <time>2020-09-06T11:40:13Z</time>
      </trkpt>
      <trkpt lat="37.2408701386" lon="-3.3261071518">
        <ele>1558.92</ele>
        <time>2020-09-06T11:40:14Z</time>
      </trkpt>
      <trkpt lat="37.2408004012" lon="-3.3261457924">
        <ele>1558.92</ele>
        <time>2020-09-06T11:40:15Z</time>
      </trkpt>
      <trkpt lat="37.2407277301" lon="-3.3261706866">
        <ele>1558.92</ele>
        <time>2020-09-06T11:40:16Z</time>
      </trkpt>
      <trkpt lat="37.2406504489" lon="-3.3261738718">
        <ele>1557.95</ele>
        <time>2020-09-06T11:40:17Z</time>
      </trkpt>
      <trkpt lat="37.2405724134" lon="-3.3261475526">
        <ele>1557.47</ele>
        <time>2020-09-06T11:40:18Z</time>
      </trkpt>
      <trkpt lat="37.2404985689" lon="-3.3260877058">
        <ele>1557.47</ele>
        <time>2020-09-06T11:40:19Z</time>
      </trkpt>
      <trkpt lat="37.2404495347" lon="-3.3260091674">
        <ele>1557.47</ele>
        <time>2020-09-06T11:40:20Z</time>
      </trkpt>
      <trkpt lat="37.2404258978" lon="-3.3259173017">
        <ele>1557.47</ele>
        <time>2020-09-06T11:40:21Z</time>
      </trkpt>
      <trkpt lat="37.2404115647" lon="-3.3258166350">
        <ele>1556.51</ele>
        <time>2020-09-06T11:40:22Z</time>
      </trkpt>
      <trkpt lat="37.2402665578" lon="-3.3250185102">
        <ele>1554.59</ele>
        <time>2020-09-06T11:40:30Z</time>
      </trkpt>
      <trkpt lat="37.2402251512" lon="-3.3249210287">
        <ele>1554.11</ele>
        <time>2020-09-06T11:40:31Z</time>
      </trkpt>
      <trkpt lat="37.2401724290" lon="-3.3248257264">
        <ele>1553.15</ele>
        <time>2020-09-06T11:40:32Z</time>
      </trkpt>
      <trkpt lat="37.2401082236" lon="-3.3247331902">
        <ele>1551.22</ele>
        <time>2020-09-06T11:40:33Z</time>
      </trkpt>
      <trkpt lat="37.2400382347" lon="-3.3246383071">
        <ele>1550.26</ele>
        <time>2020-09-06T11:40:34Z</time>
      </trkpt>
      <trkpt lat="37.2397322953" lon="-3.3242315333">
        <ele>1547.38</ele>
        <time>2020-09-06T11:40:38Z</time>
      </trkpt>
      <trkpt lat="37.2395029664" lon="-3.3239122666">
        <ele>1544.50</ele>
        <time>2020-09-06T11:40:41Z</time>
      </trkpt>
      <trkpt lat="37.2392603103" lon="-3.3234826103">
        <ele>1542.09</ele>
        <time>2020-09-06T11:40:45Z</time>
      </trkpt>
      <trkpt lat="37.2388806939" lon="-3.3229644410">
        <ele>1538.25</ele>
        <time>2020-09-06T11:40:50Z</time>
      </trkpt>
      <trkpt lat="37.2385629360" lon="-3.3225859981">
        <ele>1535.36</ele>
        <time>2020-09-06T11:40:54Z</time>
      </trkpt>
      <trkpt lat="37.2383847367" lon="-3.3224146720">
        <ele>1533.44</ele>
        <time>2020-09-06T11:40:56Z</time>
      </trkpt>
      <trkpt lat="37.2382818907" lon="-3.3223599382">
        <ele>1532.96</ele>
        <time>2020-09-06T11:40:57Z</time>
      </trkpt>
      <trkpt lat="37.2381723393" lon="-3.3223367203">
        <ele>1531.52</ele>
        <time>2020-09-06T11:40:58Z</time>
      </trkpt>
      <trkpt lat="37.2380624525" lon="-3.3223290090">
        <ele>1531.52</ele>
        <time>2020-09-06T11:40:59Z</time>
      </trkpt>
      <trkpt lat="37.2375227418" lon="-3.3222782146">
        <ele>1530.56</ele>
        <time>2020-09-06T11:41:04Z</time>
      </trkpt>
      <trkpt lat="37.2371520102" lon="-3.3220920525">
        <ele>1530.56</ele>
        <time>2020-09-06T11:41:08Z</time>
      </trkpt>
      <trkpt lat="37.2369914129" lon="-3.3219514042">
        <ele>1530.56</ele>
        <time>2020-09-06T11:41:10Z</time>
      </trkpt>
      <trkpt lat="37.2369274590" lon="-3.3218658250">
        <ele>1530.56</ele>
        <time>2020-09-06T11:41:11Z</time>
      </trkpt>
      <trkpt lat="37.2368081845" lon="-3.3216844406">
        <ele>1529.11</ele>
        <time>2020-09-06T11:41:13Z</time>
      </trkpt>
      <trkpt lat="37.2367366031" lon="-3.3216075785">
        <ele>1529.11</ele>
        <time>2020-09-06T11:41:14Z</time>
      </trkpt>
      <trkpt lat="37.2364216112" lon="-3.3213223424">
        <ele>1527.19</ele>
        <time>2020-09-06T11:41:18Z</time>
      </trkpt>
      <trkpt lat="37.2363344394" lon="-3.3212623280">
        <ele>1526.71</ele>
        <time>2020-09-06T11:41:19Z</time>
      </trkpt>
      <trkpt lat="37.2362425737" lon="-3.3212243579">
        <ele>1525.75</ele>
        <time>2020-09-06T11:41:20Z</time>
      </trkpt>
      <trkpt lat="37.2361474391" lon="-3.3212034870">
        <ele>1525.27</ele>
        <time>2020-09-06T11:41:21Z</time>
      </trkpt>
      <trkpt lat="37.2360516340" lon="-3.3211945184">
        <ele>1524.31</ele>
        <time>2020-09-06T11:41:22Z</time>
      </trkpt>
      <trkpt lat="37.2359552421" lon="-3.3211930096">
        <ele>1523.83</ele>
        <time>2020-09-06T11:41:23Z</time>
      </trkpt>
      <trkpt lat="37.2358578444" lon="-3.3212024812">
        <ele>1523.35</ele>
        <time>2020-09-06T11:41:24Z</time>
      </trkpt>
      <trkpt lat="37.2357596084" lon="-3.3212234359">
        <ele>1522.39</ele>
        <time>2020-09-06T11:41:25Z</time>
      </trkpt>
      <trkpt lat="37.2356600314" lon="-3.3212494198">
        <ele>1521.90</ele>
        <time>2020-09-06T11:41:26Z</time>
      </trkpt>
      <trkpt lat="37.2354830895" lon="-3.3212836180">
        <ele>1521.42</ele>
        <time>2020-09-06T11:41:28Z</time>
      </trkpt>
      <trkpt lat="37.2354063950" lon="-3.3212690335">
        <ele>1520.94</ele>
        <time>2020-09-06T11:41:29Z</time>
      </trkpt>
      <trkpt lat="37.2353447881" lon="-3.3212196641">
        <ele>1520.46</ele>
        <time>2020-09-06T11:41:30Z</time>
      </trkpt>
      <trkpt lat="37.2353043035" lon="-3.3211445622">
        <ele>1520.46</ele>
        <time>2020-09-06T11:41:31Z</time>
      </trkpt>
      <trkpt lat="37.2352845222" lon="-3.3210567199">
        <ele>1520.46</ele>
        <time>2020-09-06T11:41:32Z</time>
      </trkpt>
      <trkpt lat="37.2352740448" lon="-3.3209589869">
        <ele>1519.98</ele>
        <time>2020-09-06T11:41:33Z</time>
      </trkpt>
      <trkpt lat="37.2352715302" lon="-3.3208644390">
        <ele>1519.50</ele>
        <time>2020-09-06T11:41:34Z</time>
      </trkpt>
      <trkpt lat="37.2354264278" lon="-3.3196470514">
        <ele>1517.58</ele>
        <time>2020-09-06T11:41:47Z</time>
      </trkpt>
      <trkpt lat="37.2354899626" lon="-3.3194065746">
        <ele>1517.58</ele>
        <time>2020-09-06T11:41:50Z</time>
      </trkpt>
      <trkpt lat="37.2356077284" lon="-3.3186461683">
        <ele>1516.62</ele>
        <time>2020-09-06T11:41:59Z</time>
      </trkpt>
      <trkpt lat="37.2355922218" lon="-3.3183970582">
        <ele>1516.62</ele>
        <time>2020-09-06T11:42:02Z</time>
      </trkpt>
      <trkpt lat="37.2355954070" lon="-3.3183145802">
        <ele>1516.14</ele>
        <time>2020-09-06T11:42:03Z</time>
      </trkpt>
      <trkpt lat="37.2356089856" lon="-3.3182361256">
        <ele>1516.14</ele>
        <time>2020-09-06T11:42:04Z</time>
      </trkpt>
      <trkpt lat="37.2356336284" lon="-3.3181616943">
        <ele>1516.14</ele>
        <time>2020-09-06T11:42:05Z</time>
      </trkpt>
      <trkpt lat="37.2356700897" lon="-3.3180995006">
        <ele>1516.14</ele>
        <time>2020-09-06T11:42:06Z</time>
      </trkpt>
      <trkpt lat="37.2357122507" lon="-3.3180440962">
        <ele>1516.14</ele>
        <time>2020-09-06T11:42:07Z</time>
      </trkpt>
      <trkpt lat="37.2362496983" lon="-3.3172629867">
        <ele>1512.77</ele>
        <time>2020-09-06T11:42:19Z</time>
      </trkpt>
      <trkpt lat="37.2365143988" lon="-3.3167563844">
        <ele>1510.37</ele>
        <time>2020-09-06T11:42:25Z</time>
      </trkpt>
      <trkpt lat="37.2366081923" lon="-3.3165633492">
        <ele>1509.41</ele>
        <time>2020-09-06T11:42:27Z</time>
      </trkpt>
      <trkpt lat="37.2366404627" lon="-3.3164605871">
        <ele>1507.97</ele>
        <time>2020-09-06T11:42:28Z</time>
      </trkpt>
      <trkpt lat="37.2366556339" lon="-3.3163430728">
        <ele>1507.48</ele>
        <time>2020-09-06T11:42:29Z</time>
      </trkpt>
      <trkpt lat="37.2366492637" lon="-3.3162409812">
        <ele>1507.00</ele>
        <time>2020-09-06T11:42:30Z</time>
      </trkpt>
      <trkpt lat="37.2366278060" lon="-3.3161341958">
        <ele>1507.00</ele>
        <time>2020-09-06T11:42:31Z</time>
      </trkpt>
      <trkpt lat="37.2366100363" lon="-3.3160412405">
        <ele>1507.00</ele>
        <time>2020-09-06T11:42:32Z</time>
      </trkpt>
      <trkpt lat="37.2366185021" lon="-3.3159576729">
        <ele>1506.04</ele>
        <time>2020-09-06T11:42:33Z</time>
      </trkpt>
      <trkpt lat="37.2366577294" lon="-3.3158995863">
        <ele>1506.04</ele>
        <time>2020-09-06T11:42:34Z</time>
      </trkpt>
      <trkpt lat="37.2367145587" lon="-3.3158732671">
        <ele>1506.04</ele>
        <time>2020-09-06T11:42:35Z</time>
      </trkpt>
      <trkpt lat="37.2367806919" lon="-3.3158632088">
        <ele>1506.04</ele>
        <time>2020-09-06T11:42:36Z</time>
      </trkpt>
      <trkpt lat="37.2368507646" lon="-3.3158570901">
        <ele>1505.56</ele>
        <time>2020-09-06T11:42:37Z</time>
      </trkpt>
      <trkpt lat="37.2370096855" lon="-3.3158314414">
        <ele>1505.08</ele>
        <time>2020-09-06T11:42:39Z</time>
      </trkpt>
      <trkpt lat="37.2370888945" lon="-3.3158052061">
        <ele>1505.08</ele>
        <time>2020-09-06T11:42:40Z</time>
      </trkpt>
      <trkpt lat="37.2371679358" lon="-3.3157675713">
        <ele>1504.12</ele>
        <time>2020-09-06T11:42:41Z</time>
      </trkpt>
      <trkpt lat="37.2372427862" lon="-3.3157187048">
        <ele>1504.12</ele>
        <time>2020-09-06T11:42:42Z</time>
      </trkpt>
      <trkpt lat="37.2373139486" lon="-3.3156568464">
        <ele>1503.64</ele>
        <time>2020-09-06T11:42:43Z</time>
      </trkpt>
      <trkpt lat="37.2373804171" lon="-3.3155853488">
        <ele>1503.64</ele>
        <time>2020-09-06T11:42:44Z</time>
      </trkpt>
      <trkpt lat="37.2374450415" lon="-3.3155021165">
        <ele>1503.16</ele>
        <time>2020-09-06T11:42:45Z</time>
      </trkpt>
      <trkpt lat="37.2378673218" lon="-3.3147661015">
        <ele>1500.27</ele>
        <time>2020-09-06T11:42:53Z</time>
      </trkpt>
      <trkpt lat="37.2379359696" lon="-3.3146840427">
        <ele>1500.27</ele>
        <time>2020-09-06T11:42:54Z</time>
      </trkpt>
      <trkpt lat="37.2380090598" lon="-3.3146122936">
        <ele>1499.79</ele>
        <time>2020-09-06T11:42:55Z</time>
      </trkpt>
      <trkpt lat="37.2380906995" lon="-3.3145472500">
        <ele>1499.31</ele>
        <time>2020-09-06T11:42:56Z</time>
      </trkpt>
      <trkpt lat="37.2381794639" lon="-3.3144829609">
        <ele>1499.31</ele>
        <time>2020-09-06T11:42:57Z</time>
      </trkpt>
      <trkpt lat="37.2383419052" lon="-3.3143578190">
        <ele>1498.35</ele>
        <time>2020-09-06T11:42:59Z</time>
      </trkpt>
      <trkpt lat="37.2384167556" lon="-3.3142864890">
        <ele>1498.35</ele>
        <time>2020-09-06T11:43:00Z</time>
      </trkpt>
      <trkpt lat="37.2384854034" lon="-3.3142114710">
        <ele>1497.87</ele>
        <time>2020-09-06T11:43:01Z</time>
      </trkpt>
      <trkpt lat="37.2385444958" lon="-3.3141288254">
        <ele>1497.39</ele>
        <time>2020-09-06T11:43:02Z</time>
      </trkpt>
      <trkpt lat="37.2385822982" lon="-3.3140359540">
        <ele>1496.91</ele>
        <time>2020-09-06T11:43:03Z</time>
      </trkpt>
      <trkpt lat="37.2385907639" lon="-3.3139388915">
        <ele>1495.95</ele>
        <time>2020-09-06T11:43:04Z</time>
      </trkpt>
      <trkpt lat="37.2385639418" lon="-3.3138479479">
        <ele>1495.95</ele>
        <time>2020-09-06T11:43:05Z</time>
      </trkpt>
      <trkpt lat="37.2385139018" lon="-3.3137771208">
        <ele>1494.99</ele>
        <time>2020-09-06T11:43:06Z</time>
      </trkpt>
      <trkpt lat="37.2384575754" lon="-3.3137094788">
        <ele>1494.99</ele>
        <time>2020-09-06T11:43:07Z</time>
      </trkpt>
      <trkpt lat="37.2384133190" lon="-3.3136314433">
        <ele>1494.99</ele>
        <time>2020-09-06T11:43:08Z</time>
      </trkpt>
      <trkpt lat="37.2383937892" lon="-3.3135421760">
        <ele>1494.99</ele>
        <time>2020-09-06T11:43:09Z</time>
      </trkpt>
      <trkpt lat="37.2384073678" lon="-3.3134578541">
        <ele>1494.99</ele>
        <time>2020-09-06T11:43:10Z</time>
      </trkpt>
      <trkpt lat="37.2384468466" lon="-3.3133913856">
        <ele>1494.99</ele>
        <time>2020-09-06T11:43:11Z</time>
      </trkpt>
      <trkpt lat="37.2384999879" lon="-3.3133407589">
        <ele>1494.99</ele>
        <time>2020-09-06T11:43:12Z</time>
      </trkpt>
      <trkpt lat="37.2385640256" lon="-3.3132979274">
        <ele>1494.99</ele>
        <time>2020-09-06T11:43:13Z</time>
      </trkpt>
      <trkpt lat="37.2386261355" lon="-3.3132585324">
        <ele>1494.99</ele>
        <time>2020-09-06T11:43:14Z</time>
      </trkpt>
      <trkpt lat="37.2391886450" lon="-3.3128418680">
        <ele>1492.10</ele>
        <time>2020-09-06T11:43:22Z</time>
      </trkpt>
      <trkpt lat="37.2392502520" lon="-3.3127708733">
        <ele>1491.14</ele>
        <time>2020-09-06T11:43:23Z</time>
      </trkpt>
      <trkpt lat="37.2393037286" lon="-3.3126970287">
        <ele>1491.14</ele>
        <time>2020-09-06T11:43:24Z</time>
      </trkpt>
      <trkpt lat="37.2393435426" lon="-3.3126258664">
        <ele>1490.66</ele>
        <time>2020-09-06T11:43:25Z</time>
      </trkpt>
      <trkpt lat="37.2393685207" lon="-3.3125538658">
        <ele>1490.18</ele>
        <time>2020-09-06T11:43:26Z</time>
      </trkpt>
      <trkpt lat="37.2393801715" lon="-3.3124773391">
        <ele>1490.18</ele>
        <time>2020-09-06T11:43:27Z</time>
      </trkpt>
      <trkpt lat="37.2393826023" lon="-3.3123915922">
        <ele>1489.22</ele>
        <time>2020-09-06T11:43:28Z</time>
      </trkpt>
      <trkpt lat="37.2393767349" lon="-3.3123055939">
        <ele>1489.22</ele>
        <time>2020-09-06T11:43:29Z</time>
      </trkpt>
      <trkpt lat="37.2393587977" lon="-3.3122192603">
        <ele>1488.74</ele>
        <time>2020-09-06T11:43:30Z</time>
      </trkpt>
      <trkpt lat="37.2393275332" lon="-3.3121264726">
        <ele>1487.78</ele>
        <time>2020-09-06T11:43:31Z</time>
      </trkpt>
      <trkpt lat="37.2392895631" lon="-3.3120331820">
        <ele>1487.78</ele>
        <time>2020-09-06T11:43:32Z</time>
      </trkpt>
      <trkpt lat="37.2390013933" lon="-3.3115460258">
        <ele>1486.82</ele>
        <time>2020-09-06T11:43:38Z</time>
      </trkpt>
      <trkpt lat="37.2386961244" lon="-3.3111711033">
        <ele>1486.82</ele>
        <time>2020-09-06T11:43:44Z</time>
      </trkpt>
      <trkpt lat="37.2386476770" lon="-3.3111129329">
        <ele>1486.82</ele>
        <time>2020-09-06T11:43:45Z</time>
      </trkpt>
      <trkpt lat="37.2385505307" lon="-3.3110045549">
        <ele>1486.82</ele>
        <time>2020-09-06T11:43:47Z</time>
      </trkpt>
      <trkpt lat="37.2384899296" lon="-3.3109587897">
        <ele>1486.82</ele>
        <time>2020-09-06T11:43:48Z</time>
      </trkpt>
      <trkpt lat="37.2384324297" lon="-3.3109287824">
        <ele>1486.82</ele>
        <time>2020-09-06T11:43:49Z</time>
      </trkpt>
      <trkpt lat="37.2383688111" lon="-3.3109045587">
        <ele>1486.82</ele>
        <time>2020-09-06T11:43:50Z</time>
      </trkpt>
      <trkpt lat="37.2382996604" lon="-3.3108869568">
        <ele>1486.82</ele>
        <time>2020-09-06T11:43:51Z</time>
      </trkpt>
      <trkpt lat="37.2382277437" lon="-3.3108772337">
        <ele>1486.82</ele>
        <time>2020-09-06T11:43:52Z</time>
      </trkpt>
      <trkpt lat="37.2381516360" lon="-3.3108739648">
        <ele>1486.82</ele>
        <time>2020-09-06T11:43:53Z</time>
      </trkpt>
      <trkpt lat="37.2376771364" lon="-3.3108877949">
        <ele>1485.85</ele>
        <time>2020-09-06T11:43:59Z</time>
      </trkpt>
      <trkpt lat="37.2375985980" lon="-3.3108683489">
        <ele>1485.85</ele>
        <time>2020-09-06T11:44:00Z</time>
      </trkpt>
      <trkpt lat="37.2375245020" lon="-3.3108341508">
        <ele>1485.37</ele>
        <time>2020-09-06T11:44:01Z</time>
      </trkpt>
      <trkpt lat="37.2374583688" lon="-3.3107802551">
        <ele>1485.37</ele>
        <time>2020-09-06T11:44:02Z</time>
      </trkpt>
      <trkpt lat="37.2374100890" lon="-3.3107024711">
        <ele>1485.37</ele>
        <time>2020-09-06T11:44:03Z</time>
      </trkpt>
      <trkpt lat="37.2373835184" lon="-3.3106132876">
        <ele>1484.89</ele>
        <time>2020-09-06T11:44:04Z</time>
      </trkpt>
      <trkpt lat="37.2373726219" lon="-3.3105226792">
        <ele>1484.89</ele>
        <time>2020-09-06T11:44:05Z</time>
      </trkpt>
      <trkpt lat="37.2373704426" lon="-3.3104313165">
        <ele>1484.89</ele>
        <time>2020-09-06T11:44:06Z</time>
      </trkpt>
      <trkpt lat="37.2373612225" lon="-3.3103418816">
        <ele>1484.89</ele>
        <time>2020-09-06T11:44:07Z</time>
      </trkpt>
      <trkpt lat="37.2373411898" lon="-3.3102568053">
        <ele>1484.89</ele>
        <time>2020-09-06T11:44:08Z</time>
      </trkpt>
      <trkpt lat="37.2373112664" lon="-3.3101768419">
        <ele>1484.89</ele>
        <time>2020-09-06T11:44:09Z</time>
      </trkpt>
      <trkpt lat="37.2372748051" lon="-3.3101019915">
        <ele>1484.89</ele>
        <time>2020-09-06T11:44:10Z</time>
      </trkpt>
      <trkpt lat="37.2372372542" lon="-3.3100283984">
        <ele>1484.89</ele>
        <time>2020-09-06T11:44:11Z</time>
      </trkpt>
      <trkpt lat="37.2372075822" lon="-3.3099504467">
        <ele>1484.89</ele>
        <time>2020-09-06T11:44:12Z</time>
      </trkpt>
      <trkpt lat="37.2371929139" lon="-3.3098667115">
        <ele>1484.89</ele>
        <time>2020-09-06T11:44:13Z</time>
      </trkpt>
      <trkpt lat="37.2371958476" lon="-3.3097864129">
        <ele>1484.89</ele>
        <time>2020-09-06T11:44:14Z</time>
      </trkpt>
      <trkpt lat="37.2372163832" lon="-3.3097135741">
        <ele>1485.85</ele>
        <time>2020-09-06T11:44:15Z</time>
      </trkpt>
      <trkpt lat="37.2372495756" lon="-3.3096425794">
        <ele>1485.85</ele>
        <time>2020-09-06T11:44:16Z</time>
      </trkpt>
      <trkpt lat="37.2372814268" lon="-3.3095658012">
        <ele>1486.34</ele>
        <time>2020-09-06T11:44:17Z</time>
      </trkpt>
      <trkpt lat="37.2373023815" lon="-3.3094825689">
        <ele>1486.34</ele>
        <time>2020-09-06T11:44:18Z</time>
      </trkpt>
      <trkpt lat="37.2373136971" lon="-3.3093961515">
        <ele>1486.34</ele>
        <time>2020-09-06T11:44:19Z</time>
      </trkpt>
      <trkpt lat="37.2373182233" lon="-3.3093054593">
        <ele>1486.34</ele>
        <time>2020-09-06T11:44:20Z</time>
      </trkpt>
      <trkpt lat="37.2373193130" lon="-3.3092114981">
        <ele>1486.34</ele>
        <time>2020-09-06T11:44:21Z</time>
      </trkpt>
      <trkpt lat="37.2373147029" lon="-3.3091167826">
        <ele>1486.34</ele>
        <time>2020-09-06T11:44:22Z</time>
      </trkpt>
      <trkpt lat="37.2371896449" lon="-3.3079786040">
        <ele>1483.93</ele>
        <time>2020-09-06T11:44:34Z</time>
      </trkpt>
      <trkpt lat="37.2371971887" lon="-3.3078929409">
        <ele>1483.45</ele>
        <time>2020-09-06T11:44:35Z</time>
      </trkpt>
      <trkpt lat="37.2372160479" lon="-3.3078090381">
        <ele>1483.45</ele>
        <time>2020-09-06T11:44:36Z</time>
      </trkpt>
      <trkpt lat="37.2372432891" lon="-3.3077336010">
        <ele>1483.45</ele>
        <time>2020-09-06T11:44:37Z</time>
      </trkpt>
      <trkpt lat="37.2372714523" lon="-3.3076621871">
        <ele>1483.45</ele>
        <time>2020-09-06T11:44:38Z</time>
      </trkpt>
      <trkpt lat="37.2372914851" lon="-3.3075906057">
        <ele>1483.45</ele>
        <time>2020-09-06T11:44:39Z</time>
      </trkpt>
      <trkpt lat="37.2373002861" lon="-3.3075100556">
        <ele>1483.45</ele>
        <time>2020-09-06T11:44:40Z</time>
      </trkpt>
      <trkpt lat="37.2372972686" lon="-3.3074319363">
        <ele>1483.45</ele>
        <time>2020-09-06T11:44:41Z</time>
      </trkpt>
      <trkpt lat="37.2372857854" lon="-3.3073544037">
        <ele>1483.45</ele>
        <time>2020-09-06T11:44:42Z</time>
      </trkpt>
      <trkpt lat="37.2372719552" lon="-3.3072750270">
        <ele>1483.45</ele>
        <time>2020-09-06T11:44:43Z</time>
      </trkpt>
      <trkpt lat="37.2372633219" lon="-3.3071928844">
        <ele>1483.45</ele>
        <time>2020-09-06T11:44:44Z</time>
      </trkpt>
      <trkpt lat="37.2372623999" lon="-3.3071088139">
        <ele>1483.45</ele>
        <time>2020-09-06T11:44:45Z</time>
      </trkpt>
      <trkpt lat="37.2372665908" lon="-3.3070229832">
        <ele>1483.45</ele>
        <time>2020-09-06T11:44:46Z</time>
      </trkpt>
      <trkpt lat="37.2372770682" lon="-3.3069373202">
        <ele>1483.45</ele>
        <time>2020-09-06T11:44:47Z</time>
      </trkpt>
      <trkpt lat="37.2372947540" lon="-3.3068497293">
        <ele>1483.45</ele>
        <time>2020-09-06T11:44:48Z</time>
      </trkpt>
      <trkpt lat="37.2373227496" lon="-3.3066799119">
        <ele>1482.97</ele>
        <time>2020-09-06T11:44:50Z</time>
      </trkpt>
      <trkpt lat="37.2373217437" lon="-3.3065913152">
        <ele>1482.49</ele>
        <time>2020-09-06T11:44:51Z</time>
      </trkpt>
      <trkpt lat="37.2373096738" lon="-3.3064980246">
        <ele>1482.49</ele>
        <time>2020-09-06T11:44:52Z</time>
      </trkpt>
      <trkpt lat="37.2372929938" lon="-3.3063998725">
        <ele>1482.49</ele>
        <time>2020-09-06T11:44:53Z</time>
      </trkpt>
      <trkpt lat="37.2372895572" lon="-3.3062901534">
        <ele>1481.53</ele>
        <time>2020-09-06T11:44:54Z</time>
      </trkpt>
      <trkpt lat="37.2373115178" lon="-3.3061879780">
        <ele>1481.53</ele>
        <time>2020-09-06T11:44:55Z</time>
      </trkpt>
      <trkpt lat="37.2373585403" lon="-3.3061014768">
        <ele>1480.09</ele>
        <time>2020-09-06T11:44:56Z</time>
      </trkpt>
      <trkpt lat="37.2374214046" lon="-3.3060269617">
        <ele>1480.09</ele>
        <time>2020-09-06T11:44:57Z</time>
      </trkpt>
      <trkpt lat="37.2374913935" lon="-3.3059551287">
        <ele>1479.61</ele>
        <time>2020-09-06T11:44:58Z</time>
      </trkpt>
      <trkpt lat="37.2377203871" lon="-3.3057397977">
        <ele>1477.68</ele>
        <time>2020-09-06T11:45:01Z</time>
      </trkpt>
      <trkpt lat="37.2377933096" lon="-3.3056619298">
        <ele>1477.68</ele>
        <time>2020-09-06T11:45:02Z</time>
      </trkpt>
      <trkpt lat="37.2378560901" lon="-3.3055711538">
        <ele>1476.72</ele>
        <time>2020-09-06T11:45:03Z</time>
      </trkpt>
      <trkpt lat="37.2379038669" lon="-3.3054619376">
        <ele>1475.76</ele>
        <time>2020-09-06T11:45:04Z</time>
      </trkpt>
      <trkpt lat="37.2379332036" lon="-3.3053329401">
        <ele>1474.32</ele>
        <time>2020-09-06T11:45:05Z</time>
      </trkpt>
      <trkpt lat="37.2379382327" lon="-3.3051958960">
        <ele>1473.84</ele>
        <time>2020-09-06T11:45:06Z</time>
      </trkpt>
      <trkpt lat="37.2379135899" lon="-3.3050648030">
        <ele>1472.88</ele>
        <time>2020-09-06T11:45:07Z</time>
      </trkpt>
      <trkpt lat="37.2378610354" lon="-3.3049351349">
        <ele>1471.92</ele>
        <time>2020-09-06T11:45:08Z</time>
      </trkpt>
      <trkpt lat="37.2378144320" lon="-3.3048220631">
        <ele>1470.95</ele>
        <time>2020-09-06T11:45:09Z</time>
      </trkpt>
      <trkpt lat="37.2377893701" lon="-3.3047196362">
        <ele>1469.99</ele>
        <time>2020-09-06T11:45:10Z</time>
      </trkpt>
      <trkpt lat="37.2377954051" lon="-3.3046279382">
        <ele>1469.51</ele>
        <time>2020-09-06T11:45:11Z</time>
      </trkpt>
      <trkpt lat="37.2378344648" lon="-3.3045516629">
        <ele>1468.55</ele>
        <time>2020-09-06T11:45:12Z</time>
      </trkpt>
      <trkpt lat="37.2378989216" lon="-3.3044918161">
        <ele>1468.07</ele>
        <time>2020-09-06T11:45:13Z</time>
      </trkpt>
      <trkpt lat="37.2379674017" lon="-3.3044363279">
        <ele>1468.07</ele>
        <time>2020-09-06T11:45:14Z</time>
      </trkpt>
      <trkpt lat="37.2380372230" lon="-3.3043789957">
        <ele>1467.11</ele>
        <time>2020-09-06T11:45:15Z</time>
      </trkpt>
      <trkpt lat="37.2381100617" lon="-3.3043292910">
        <ele>1467.11</ele>
        <time>2020-09-06T11:45:16Z</time>
      </trkpt>
      <trkpt lat="37.2381853312" lon="-3.3042971045">
        <ele>1466.15</ele>
        <time>2020-09-06T11:45:17Z</time>
      </trkpt>
      <trkpt lat="37.2382619418" lon="-3.3042948414">
        <ele>1466.15</ele>
        <time>2020-09-06T11:45:18Z</time>
      </trkpt>
      <trkpt lat="37.2383334395" lon="-3.3043283690">
        <ele>1465.19</ele>
        <time>2020-09-06T11:45:19Z</time>
      </trkpt>
      <trkpt lat="37.2383956332" lon="-3.3043934964">
        <ele>1465.19</ele>
        <time>2020-09-06T11:45:20Z</time>
      </trkpt>
      <trkpt lat="37.2384505346" lon="-3.3044709451">
        <ele>1464.23</ele>
        <time>2020-09-06T11:45:21Z</time>
      </trkpt>
      <trkpt lat="37.2385036759" lon="-3.3045590390">
        <ele>1464.23</ele>
        <time>2020-09-06T11:45:22Z</time>
      </trkpt>
      <trkpt lat="37.2385507822" lon="-3.3046477195">
        <ele>1463.26</ele>
        <time>2020-09-06T11:45:23Z</time>
      </trkpt>
      <trkpt lat="37.2385862377" lon="-3.3047466259">
        <ele>1462.78</ele>
        <time>2020-09-06T11:45:24Z</time>
      </trkpt>
      <trkpt lat="37.2386096232" lon="-3.3048539143">
        <ele>1462.78</ele>
        <time>2020-09-06T11:45:25Z</time>
      </trkpt>
      <trkpt lat="37.2386220284" lon="-3.3049677406">
        <ele>1462.30</ele>
        <time>2020-09-06T11:45:26Z</time>
      </trkpt>
      <trkpt lat="37.2386314161" lon="-3.3050920442">
        <ele>1461.34</ele>
        <time>2020-09-06T11:45:27Z</time>
      </trkpt>
      <trkpt lat="37.2386428155" lon="-3.3052127436">
        <ele>1460.38</ele>
        <time>2020-09-06T11:45:28Z</time>
      </trkpt>
      <trkpt lat="37.2387045063" lon="-3.3055944555">
        <ele>1458.46</ele>
        <time>2020-09-06T11:45:31Z</time>
      </trkpt>
      <trkpt lat="37.2387459967" lon="-3.3057207707">
        <ele>1457.50</ele>
        <time>2020-09-06T11:45:32Z</time>
      </trkpt>
      <trkpt lat="37.2387889959" lon="-3.3058450744">
        <ele>1456.53</ele>
        <time>2020-09-06T11:45:33Z</time>
      </trkpt>
      <trkpt lat="37.2388205957" lon="-3.3059712220">
        <ele>1456.05</ele>
        <time>2020-09-06T11:45:34Z</time>
      </trkpt>
      <trkpt lat="37.2388392035" lon="-3.3061106130">
        <ele>1455.09</ele>
        <time>2020-09-06T11:45:35Z</time>
      </trkpt>
      <trkpt lat="37.2388411313" lon="-3.3062417060">
        <ele>1455.57</ele>
        <time>2020-09-06T11:45:36Z</time>
      </trkpt>
      <trkpt lat="37.2388326656" lon="-3.3063702006">
        <ele>1454.61</ele>
        <time>2020-09-06T11:45:37Z</time>
      </trkpt>
      <trkpt lat="37.2388118785" lon="-3.3064922411">
        <ele>1453.65</ele>
        <time>2020-09-06T11:45:38Z</time>
      </trkpt>
      <trkpt lat="37.2387718968" lon="-3.3066071570">
        <ele>1452.69</ele>
        <time>2020-09-06T11:45:39Z</time>
      </trkpt>
      <trkpt lat="37.2387154028" lon="-3.3067085780">
        <ele>1452.21</ele>
        <time>2020-09-06T11:45:40Z</time>
      </trkpt>
      <trkpt lat="37.2385827173" lon="-3.3068787307">
        <ele>1451.73</ele>
        <time>2020-09-06T11:45:42Z</time>
      </trkpt>
      <trkpt lat="37.2385081183" lon="-3.3069415111">
        <ele>1450.77</ele>
        <time>2020-09-06T11:45:43Z</time>
      </trkpt>
      <trkpt lat="37.2383964714" lon="-3.3070404176">
        <ele>1449.81</ele>
        <time>2020-09-06T11:45:45Z</time>
      </trkpt>
      <trkpt lat="37.2383803781" lon="-3.3071031142">
        <ele>1448.36</ele>
        <time>2020-09-06T11:45:46Z</time>
      </trkpt>
      <trkpt lat="37.2383983992" lon="-3.3071535733">
        <ele>1448.36</ele>
        <time>2020-09-06T11:45:47Z</time>
      </trkpt>
      <trkpt lat="37.2384410631" lon="-3.3071769588">
        <ele>1447.40</ele>
        <time>2020-09-06T11:45:48Z</time>
      </trkpt>
      <trkpt lat="37.2384832241" lon="-3.3071721811">
        <ele>1447.40</ele>
        <time>2020-09-06T11:45:49Z</time>
      </trkpt>
      <trkpt lat="37.2385393828" lon="-3.3071482088">
        <ele>1446.44</ele>
        <time>2020-09-06T11:45:50Z</time>
      </trkpt>
      <trkpt lat="37.2386033367" lon="-3.3071176987">
        <ele>1445.96</ele>
        <time>2020-09-06T11:45:51Z</time>
      </trkpt>
      <trkpt lat="37.2389123775" lon="-3.3069894556">
        <ele>1444.04</ele>
        <time>2020-09-06T11:45:55Z</time>
      </trkpt>
      <trkpt lat="37.2389987949" lon="-3.3069403376">
        <ele>1442.11</ele>
        <time>2020-09-06T11:45:56Z</time>
      </trkpt>
      <trkpt lat="37.2393543553" lon="-3.3066792414">
        <ele>1438.27</ele>
        <time>2020-09-06T11:46:00Z</time>
      </trkpt>
      <trkpt lat="37.2394188959" lon="-3.3066086657">
        <ele>1437.31</ele>
        <time>2020-09-06T11:46:01Z</time>
      </trkpt>
      <trkpt lat="37.2394768987" lon="-3.3065157942">
        <ele>1435.87</ele>
        <time>2020-09-06T11:46:02Z</time>
      </trkpt>
      <trkpt lat="37.2395181376" lon="-3.3064116910">
        <ele>1434.42</ele>
        <time>2020-09-06T11:46:03Z</time>
      </trkpt>
      <trkpt lat="37.2395485640" lon="-3.3062942605">
        <ele>1433.46</ele>
        <time>2020-09-06T11:46:04Z</time>
      </trkpt>
      <trkpt lat="37.2395759728" lon="-3.3061714657">
        <ele>1432.02</ele>
        <time>2020-09-06T11:46:05Z</time>
      </trkpt>
      <trkpt lat="37.2396942414" lon="-3.3056418970">
        <ele>1428.66</ele>
        <time>2020-09-06T11:46:09Z</time>
      </trkpt>
      <trkpt lat="37.2398482170" lon="-3.3050682396">
        <ele>1424.33</ele>
        <time>2020-09-06T11:46:13Z</time>
      </trkpt>
      <trkpt lat="37.2399556730" lon="-3.3047920559">
        <ele>1422.89</ele>
        <time>2020-09-06T11:46:15Z</time>
      </trkpt>
      <trkpt lat="37.2400881071" lon="-3.3043819293">
        <ele>1420.00</ele>
        <time>2020-09-06T11:46:18Z</time>
      </trkpt>
      <trkpt lat="37.2401155159" lon="-3.3042442147">
        <ele>1418.56</ele>
        <time>2020-09-06T11:46:19Z</time>
      </trkpt>
      <trkpt lat="37.2401197907" lon="-3.3041112777">
        <ele>1417.12</ele>
        <time>2020-09-06T11:46:20Z</time>
      </trkpt>
      <trkpt lat="37.2401087265" lon="-3.3039789274">
        <ele>1416.64</ele>
        <time>2020-09-06T11:46:21Z</time>
      </trkpt>
      <trkpt lat="37.2400882747" lon="-3.3038531151">
        <ele>1416.64</ele>
        <time>2020-09-06T11:46:22Z</time>
      </trkpt>
      <trkpt lat="37.2400759533" lon="-3.3037572261">
        <ele>1415.20</ele>
        <time>2020-09-06T11:46:23Z</time>
      </trkpt>
      <trkpt lat="37.2400797252" lon="-3.3036739100">
        <ele>1414.24</ele>
        <time>2020-09-06T11:46:24Z</time>
      </trkpt>
      <trkpt lat="37.2401106544" lon="-3.3036190923">
        <ele>1413.76</ele>
        <time>2020-09-06T11:46:25Z</time>
      </trkpt>
      <trkpt lat="37.2401565034" lon="-3.3036005683">
        <ele>1413.28</ele>
        <time>2020-09-06T11:46:26Z</time>
      </trkpt>
      <trkpt lat="37.2402020171" lon="-3.3036183380">
        <ele>1413.28</ele>
        <time>2020-09-06T11:46:27Z</time>
      </trkpt>
      <trkpt lat="37.2402447648" lon="-3.3036636002">
        <ele>1412.79</ele>
        <time>2020-09-06T11:46:28Z</time>
      </trkpt>
      <trkpt lat="37.2402903624" lon="-3.3037226927">
        <ele>1412.79</ele>
        <time>2020-09-06T11:46:29Z</time>
      </trkpt>
      <trkpt lat="37.2403329425" lon="-3.3037923463">
        <ele>1412.79</ele>
        <time>2020-09-06T11:46:30Z</time>
      </trkpt>
      <trkpt lat="37.2403684817" lon="-3.3038711362">
        <ele>1411.83</ele>
        <time>2020-09-06T11:46:31Z</time>
      </trkpt>
      <trkpt lat="37.2403989919" lon="-3.3039635047">
        <ele>1411.35</ele>
        <time>2020-09-06T11:46:32Z</time>
      </trkpt>
      <trkpt lat="37.2404178511" lon="-3.3040614054">
        <ele>1411.35</ele>
        <time>2020-09-06T11:46:33Z</time>
      </trkpt>
      <trkpt lat="37.2404298373" lon="-3.3041675203">
        <ele>1410.39</ele>
        <time>2020-09-06T11:46:34Z</time>
      </trkpt>
      <trkpt lat="37.2404420748" lon="-3.3042723779">
        <ele>1410.39</ele>
        <time>2020-09-06T11:46:35Z</time>
      </trkpt>
      <trkpt lat="37.2404693998" lon="-3.3043767326">
        <ele>1409.43</ele>
        <time>2020-09-06T11:46:36Z</time>
      </trkpt>
      <trkpt lat="37.2405122314" lon="-3.3044641558">
        <ele>1408.95</ele>
        <time>2020-09-06T11:46:37Z</time>
      </trkpt>
      <trkpt lat="37.2405844834" lon="-3.3045258466">
        <ele>1407.99</ele>
        <time>2020-09-06T11:46:38Z</time>
      </trkpt>
      <trkpt lat="37.2406647820" lon="-3.3045583684">
        <ele>1407.51</ele>
        <time>2020-09-06T11:46:39Z</time>
      </trkpt>
      <trkpt lat="37.2407604195" lon="-3.3045934886">
        <ele>1406.55</ele>
        <time>2020-09-06T11:46:40Z</time>
      </trkpt>
      <trkpt lat="37.2408392932" lon="-3.3046536706">
        <ele>1406.07</ele>
        <time>2020-09-06T11:46:41Z</time>
      </trkpt>
      <trkpt lat="37.2408990562" lon="-3.3047355618">
        <ele>1405.58</ele>
        <time>2020-09-06T11:46:42Z</time>
      </trkpt>
      <trkpt lat="37.2409485094" lon="-3.3048340492">
        <ele>1404.62</ele>
        <time>2020-09-06T11:46:43Z</time>
      </trkpt>
      <trkpt lat="37.2409925982" lon="-3.3049385715">
        <ele>1404.62</ele>
        <time>2020-09-06T11:46:44Z</time>
      </trkpt>
      <trkpt lat="37.2410822008" lon="-3.3051278349">
        <ele>1403.18</ele>
        <time>2020-09-06T11:46:46Z</time>
      </trkpt>
      <trkpt lat="37.2411332466" lon="-3.3051855862">
        <ele>1402.22</ele>
        <time>2020-09-06T11:46:47Z</time>
      </trkpt>
      <trkpt lat="37.2412001342" lon="-3.3052055351">
        <ele>1401.26</ele>
        <time>2020-09-06T11:46:48Z</time>
      </trkpt>
      <trkpt lat="37.2412669379" lon="-3.3051734325">
        <ele>1401.26</ele>
        <time>2020-09-06T11:46:49Z</time>
      </trkpt>
      <trkpt lat="37.2413120326" lon="-3.3050999232">
        <ele>1400.30</ele>
        <time>2020-09-06T11:46:50Z</time>
      </trkpt>
      <trkpt lat="37.2413340770" lon="-3.3049972448">
        <ele>1399.82</ele>
        <time>2020-09-06T11:46:51Z</time>
      </trkpt>
      <trkpt lat="37.2413322330" lon="-3.3048966620">
        <ele>1399.82</ele>
        <time>2020-09-06T11:46:52Z</time>
      </trkpt>
      <trkpt lat="37.2413164750" lon="-3.3047774713">
        <ele>1398.37</ele>
        <time>2020-09-06T11:46:53Z</time>
      </trkpt>
      <trkpt lat="37.2412872221" lon="-3.3046735357">
        <ele>1397.89</ele>
        <time>2020-09-06T11:46:54Z</time>
      </trkpt>
      <trkpt lat="37.2412464023" lon="-3.3045641519">
        <ele>1397.89</ele>
        <time>2020-09-06T11:46:55Z</time>
      </trkpt>
      <trkpt lat="37.2411518544" lon="-3.3043444622">
        <ele>1396.45</ele>
        <time>2020-09-06T11:46:57Z</time>
      </trkpt>
      <trkpt lat="37.2410594020" lon="-3.3041147981">
        <ele>1395.01</ele>
        <time>2020-09-06T11:46:59Z</time>
      </trkpt>
      <trkpt lat="37.2410506848" lon="-3.3039931767">
        <ele>1395.01</ele>
        <time>2020-09-06T11:47:00Z</time>
      </trkpt>
      <trkpt lat="37.2410704661" lon="-3.3037678711">
        <ele>1393.09</ele>
        <time>2020-09-06T11:47:02Z</time>
      </trkpt>
      <trkpt lat="37.2411189135" lon="-3.3035305794">
        <ele>1390.68</ele>
        <time>2020-09-06T11:47:04Z</time>
      </trkpt>
      <trkpt lat="37.2411604878" lon="-3.3034098800">
        <ele>1389.72</ele>
        <time>2020-09-06T11:47:05Z</time>
      </trkpt>
      <trkpt lat="37.2412246931" lon="-3.3032892644">
        <ele>1388.28</ele>
        <time>2020-09-06T11:47:06Z</time>
      </trkpt>
      <trkpt lat="37.2412904073" lon="-3.3031788748">
        <ele>1387.80</ele>
        <time>2020-09-06T11:47:07Z</time>
      </trkpt>
      <trkpt lat="37.2413489968" lon="-3.3030680660">
        <ele>1386.84</ele>
        <time>2020-09-06T11:47:08Z</time>
      </trkpt>
      <trkpt lat="37.2413907386" lon="-3.3029693272">
        <ele>1385.88</ele>
        <time>2020-09-06T11:47:09Z</time>
      </trkpt>
      <trkpt lat="37.2414211649" lon="-3.3028634638">
        <ele>1385.40</ele>
        <time>2020-09-06T11:47:10Z</time>
      </trkpt>
      <trkpt lat="37.2414438799" lon="-3.3027514815">
        <ele>1383.96</ele>
        <time>2020-09-06T11:47:11Z</time>
      </trkpt>
      <trkpt lat="37.2415068280" lon="-3.3022474777">
        <ele>1381.07</ele>
        <time>2020-09-06T11:47:15Z</time>
      </trkpt>
      <trkpt lat="37.2415116057" lon="-3.3021100145">
        <ele>1380.11</ele>
        <time>2020-09-06T11:47:16Z</time>
      </trkpt>
      <trkpt lat="37.2415236756" lon="-3.3019678574">
        <ele>1378.67</ele>
        <time>2020-09-06T11:47:17Z</time>
      </trkpt>
      <trkpt lat="37.2415519226" lon="-3.3016831242">
        <ele>1377.71</ele>
        <time>2020-09-06T11:47:19Z</time>
      </trkpt>
      <trkpt lat="37.2416527569" lon="-3.3010259829">
        <ele>1376.75</ele>
        <time>2020-09-06T11:47:24Z</time>
      </trkpt>
      <trkpt lat="37.2416392621" lon="-3.3009245619">
        <ele>1375.78</ele>
        <time>2020-09-06T11:47:25Z</time>
      </trkpt>
      <trkpt lat="37.2416162957" lon="-3.3008187823">
        <ele>1375.30</ele>
        <time>2020-09-06T11:47:26Z</time>
      </trkpt>
      <trkpt lat="37.2416069917" lon="-3.3007375617">
        <ele>1374.34</ele>
        <time>2020-09-06T11:47:27Z</time>
      </trkpt>
      <trkpt lat="37.2416190617" lon="-3.3006644715">
        <ele>1374.34</ele>
        <time>2020-09-06T11:47:28Z</time>
      </trkpt>
      <trkpt lat="37.2416587081" lon="-3.3006140962">
        <ele>1373.86</ele>
        <time>2020-09-06T11:47:29Z</time>
      </trkpt>
      <trkpt lat="37.2417174652" lon="-3.3006035350">
        <ele>1373.38</ele>
        <time>2020-09-06T11:47:30Z</time>
      </trkpt>
      <trkpt lat="37.2417769767" lon="-3.3006337099">
        <ele>1372.42</ele>
        <time>2020-09-06T11:47:31Z</time>
      </trkpt>
      <trkpt lat="37.2418330517" lon="-3.3006889466">
        <ele>1372.42</ele>
        <time>2020-09-06T11:47:32Z</time>
      </trkpt>
      <trkpt lat="37.2418924794" lon="-3.3007494640">
        <ele>1371.46</ele>
        <time>2020-09-06T11:47:33Z</time>
      </trkpt>
      <trkpt lat="37.2421344649" lon="-3.3009986579">
        <ele>1369.05</ele>
        <time>2020-09-06T11:47:37Z</time>
      </trkpt>
      <trkpt lat="37.2422016878" lon="-3.3010516316">
        <ele>1368.57</ele>
        <time>2020-09-06T11:47:38Z</time>
      </trkpt>
      <trkpt lat="37.2422667313" lon="-3.3011024259">
        <ele>1368.09</ele>
        <time>2020-09-06T11:47:39Z</time>
      </trkpt>
      <trkpt lat="37.2423144244" lon="-3.3011599258">
        <ele>1367.61</ele>
        <time>2020-09-06T11:47:40Z</time>
      </trkpt>
      <trkpt lat="37.2423399054" lon="-3.3012262266">
        <ele>1367.13</ele>
        <time>2020-09-06T11:47:41Z</time>
      </trkpt>
      <trkpt lat="37.2423389833" lon="-3.3012952097">
        <ele>1367.13</ele>
        <time>2020-09-06T11:47:42Z</time>
      </trkpt>
      <trkpt lat="37.2423110716" lon="-3.3013588283">
        <ele>1366.65</ele>
        <time>2020-09-06T11:47:43Z</time>
      </trkpt>
      <trkpt lat="37.2422616184" lon="-3.3014149871">
        <ele>1365.69</ele>
        <time>2020-09-06T11:47:44Z</time>
      </trkpt>
      <trkpt lat="37.2422037832" lon="-3.3014726546">
        <ele>1365.21</ele>
        <time>2020-09-06T11:47:45Z</time>
      </trkpt>
      <trkpt lat="37.2420882806" lon="-3.3016070165">
        <ele>1364.25</ele>
        <time>2020-09-06T11:47:47Z</time>
      </trkpt>
      <trkpt lat="37.2420358099" lon="-3.3016834594">
        <ele>1363.77</ele>
        <time>2020-09-06T11:47:48Z</time>
      </trkpt>
      <trkpt lat="37.2419924755" lon="-3.3017559629">
        <ele>1363.77</ele>
        <time>2020-09-06T11:47:49Z</time>
      </trkpt>
      <trkpt lat="37.2419588640" lon="-3.3018303104">
        <ele>1363.77</ele>
        <time>2020-09-06T11:47:50Z</time>
      </trkpt>
      <trkpt lat="37.2419358976" lon="-3.3019101061">
        <ele>1363.77</ele>
        <time>2020-09-06T11:47:51Z</time>
      </trkpt>
      <trkpt lat="37.2419230733" lon="-3.3019922487">
        <ele>1362.81</ele>
        <time>2020-09-06T11:47:52Z</time>
      </trkpt>
      <trkpt lat="37.2419222351" lon="-3.3020746429">
        <ele>1362.81</ele>
        <time>2020-09-06T11:47:53Z</time>
      </trkpt>
      <trkpt lat="37.2419394180" lon="-3.3021464758">
        <ele>1362.81</ele>
        <time>2020-09-06T11:47:54Z</time>
      </trkpt>
      <trkpt lat="37.2419810761" lon="-3.3021908160">
        <ele>1362.33</ele>
        <time>2020-09-06T11:47:55Z</time>
      </trkpt>
      <trkpt lat="37.2420330439" lon="-3.3021892235">
        <ele>1362.33</ele>
        <time>2020-09-06T11:47:56Z</time>
      </trkpt>
      <trkpt lat="37.2420740314" lon="-3.3021463919">
        <ele>1361.84</ele>
        <time>2020-09-06T11:47:57Z</time>
      </trkpt>
      <trkpt lat="37.2420988418" lon="-3.3020810131">
        <ele>1361.36</ele>
        <time>2020-09-06T11:47:58Z</time>
      </trkpt>
      <trkpt lat="37.2421145160" lon="-3.3020051569">
        <ele>1360.88</ele>
        <time>2020-09-06T11:47:59Z</time>
      </trkpt>
      <trkpt lat="37.2421296872" lon="-3.3019245230">
        <ele>1360.40</ele>
        <time>2020-09-06T11:48:00Z</time>
      </trkpt>
      <trkpt lat="37.2421599459" lon="-3.3018415421">
        <ele>1360.40</ele>
        <time>2020-09-06T11:48:01Z</time>
      </trkpt>
      <trkpt lat="37.2422048729" lon="-3.3017714694">
        <ele>1359.92</ele>
        <time>2020-09-06T11:48:02Z</time>
      </trkpt>
      <trkpt lat="37.2422605287" lon="-3.3017182443">
        <ele>1359.92</ele>
        <time>2020-09-06T11:48:03Z</time>
      </trkpt>
      <trkpt lat="37.2423259914" lon="-3.3016799390">
        <ele>1358.96</ele>
        <time>2020-09-06T11:48:04Z</time>
      </trkpt>
      <trkpt lat="37.2423993330" lon="-3.3016521949">
        <ele>1358.48</ele>
        <time>2020-09-06T11:48:05Z</time>
      </trkpt>
      <trkpt lat="37.2424783744" lon="-3.3016402088">
        <ele>1358.00</ele>
        <time>2020-09-06T11:48:06Z</time>
      </trkpt>
      <trkpt lat="37.2425605170" lon="-3.3016461600">
        <ele>1357.04</ele>
        <time>2020-09-06T11:48:07Z</time>
      </trkpt>
      <trkpt lat="37.2426469345" lon="-3.3016665280">
        <ele>1356.56</ele>
        <time>2020-09-06T11:48:08Z</time>
      </trkpt>
      <trkpt lat="37.2427275684" lon="-3.3016796038">
        <ele>1355.60</ele>
        <time>2020-09-06T11:48:09Z</time>
      </trkpt>
      <trkpt lat="37.2428101301" lon="-3.3016668633">
        <ele>1355.60</ele>
        <time>2020-09-06T11:48:10Z</time>
      </trkpt>
      <trkpt lat="37.2428926080" lon="-3.3016255405">
        <ele>1354.15</ele>
        <time>2020-09-06T11:48:11Z</time>
      </trkpt>
      <trkpt lat="37.2429667879" lon="-3.3015619218">
        <ele>1353.67</ele>
        <time>2020-09-06T11:48:12Z</time>
      </trkpt>
      <trkpt lat="37.2430323344" lon="-3.3014820423">
        <ele>1352.71</ele>
        <time>2020-09-06T11:48:13Z</time>
      </trkpt>
      <trkpt lat="37.2430935223" lon="-3.3013905119">
        <ele>1352.23</ele>
        <time>2020-09-06T11:48:14Z</time>
      </trkpt>
      <trkpt lat="37.2431555483" lon="-3.3012894262">
        <ele>1351.27</ele>
        <time>2020-09-06T11:48:15Z</time>
      </trkpt>
      <trkpt lat="37.2432145569" lon="-3.3011960518">
        <ele>1351.27</ele>
        <time>2020-09-06T11:48:16Z</time>
      </trkpt>
      <trkpt lat="37.2433177382" lon="-3.3010086324">
        <ele>1349.35</ele>
        <time>2020-09-06T11:48:18Z</time>
      </trkpt>
      <trkpt lat="37.2433502600" lon="-3.3009040263">
        <ele>1348.39</ele>
        <time>2020-09-06T11:48:19Z</time>
      </trkpt>
      <trkpt lat="37.2433642577" lon="-3.3007877693">
        <ele>1348.39</ele>
        <time>2020-09-06T11:48:20Z</time>
      </trkpt>
      <trkpt lat="37.2433494218" lon="-3.3004108351">
        <ele>1345.98</ele>
        <time>2020-09-06T11:48:23Z</time>
      </trkpt>
      <trkpt lat="37.2433202527" lon="-3.3002955839">
        <ele>1345.02</ele>
        <time>2020-09-06T11:48:24Z</time>
      </trkpt>
      <trkpt lat="37.2432738170" lon="-3.3001897205">
        <ele>1344.54</ele>
        <time>2020-09-06T11:48:25Z</time>
      </trkpt>
      <trkpt lat="37.2432138864" lon="-3.3000943344">
        <ele>1344.06</ele>
        <time>2020-09-06T11:48:26Z</time>
      </trkpt>
      <trkpt lat="37.2431444004" lon="-3.3000069950">
        <ele>1344.06</ele>
        <time>2020-09-06T11:48:27Z</time>
      </trkpt>
      <trkpt lat="37.2430744953" lon="-3.2999268640">
        <ele>1342.62</ele>
        <time>2020-09-06T11:48:28Z</time>
      </trkpt>
      <trkpt lat="37.2429530416" lon="-3.2997764926">
        <ele>1341.66</ele>
        <time>2020-09-06T11:48:30Z</time>
      </trkpt>
      <trkpt lat="37.2429177538" lon="-3.2997035701">
        <ele>1341.18</ele>
        <time>2020-09-06T11:48:31Z</time>
      </trkpt>
      <trkpt lat="37.2429186758" lon="-3.2996303961">
        <ele>1341.18</ele>
        <time>2020-09-06T11:48:32Z</time>
      </trkpt>
      <trkpt lat="37.2429578193" lon="-3.2995789312">
        <ele>1340.70</ele>
        <time>2020-09-06T11:48:33Z</time>
      </trkpt>
      <trkpt lat="37.2430171631" lon="-3.2995641790">
        <ele>1339.73</ele>
        <time>2020-09-06T11:48:34Z</time>
      </trkpt>
      <trkpt lat="37.2430848889" lon="-3.2995824516">
        <ele>1339.73</ele>
        <time>2020-09-06T11:48:35Z</time>
      </trkpt>
      <trkpt lat="37.2431517765" lon="-3.2996092737">
        <ele>1338.77</ele>
        <time>2020-09-06T11:48:36Z</time>
      </trkpt>
      <trkpt lat="37.2433034051" lon="-3.2996546198">
        <ele>1337.33</ele>
        <time>2020-09-06T11:48:38Z</time>
      </trkpt>
      <trkpt lat="37.2434598953" lon="-3.2996694557">
        <ele>1335.89</ele>
        <time>2020-09-06T11:48:40Z</time>
      </trkpt>
      <trkpt lat="37.2435349133" lon="-3.2996487524">
        <ele>1333.97</ele>
        <time>2020-09-06T11:48:41Z</time>
      </trkpt>
      <trkpt lat="37.2436077520" lon="-3.2996021491">
        <ele>1333.49</ele>
        <time>2020-09-06T11:48:42Z</time>
      </trkpt>
      <trkpt lat="37.2436738014" lon="-3.2995353453">
        <ele>1332.52</ele>
        <time>2020-09-06T11:48:43Z</time>
      </trkpt>
      <trkpt lat="37.2437447123" lon="-3.2994667813">
        <ele>1332.52</ele>
        <time>2020-09-06T11:48:44Z</time>
      </trkpt>
      <trkpt lat="37.2438217420" lon="-3.2994059287">
        <ele>1331.08</ele>
        <time>2020-09-06T11:48:45Z</time>
      </trkpt>
      <trkpt lat="37.2440455388" lon="-3.2992217783">
        <ele>1328.68</ele>
        <time>2020-09-06T11:48:48Z</time>
      </trkpt>
      <trkpt lat="37.2443254106" lon="-3.2989345305">
        <ele>1324.83</ele>
        <time>2020-09-06T11:48:52Z</time>
      </trkpt>
      <trkpt lat="37.2445587628" lon="-3.2986909524">
        <ele>1321.47</ele>
        <time>2020-09-06T11:48:55Z</time>
      </trkpt>
      <trkpt lat="37.2448167577" lon="-3.2984524872">
        <ele>1318.10</ele>
        <time>2020-09-06T11:48:58Z</time>
      </trkpt>
      <trkpt lat="37.2448906861" lon="-3.2983642258">
        <ele>1316.66</ele>
        <time>2020-09-06T11:48:59Z</time>
      </trkpt>
      <trkpt lat="37.2449500300" lon="-3.2982695941">
        <ele>1315.70</ele>
        <time>2020-09-06T11:49:00Z</time>
      </trkpt>
      <trkpt lat="37.2449978068" lon="-3.2981605455">
        <ele>1315.22</ele>
        <time>2020-09-06T11:49:01Z</time>
      </trkpt>
      <trkpt lat="37.2450360283" lon="-3.2980382536">
        <ele>1314.74</ele>
        <time>2020-09-06T11:49:02Z</time>
      </trkpt>
      <trkpt lat="37.2450655326" lon="-3.2979238406">
        <ele>1313.78</ele>
        <time>2020-09-06T11:49:03Z</time>
      </trkpt>
      <trkpt lat="37.2450977191" lon="-3.2978138700">
        <ele>1313.78</ele>
        <time>2020-09-06T11:49:04Z</time>
      </trkpt>
      <trkpt lat="37.2451377846" lon="-3.2977114432">
        <ele>1312.82</ele>
        <time>2020-09-06T11:49:05Z</time>
      </trkpt>
      <trkpt lat="37.2451826278" lon="-3.2976108603">
        <ele>1312.34</ele>
        <time>2020-09-06T11:49:06Z</time>
      </trkpt>
      <trkpt lat="37.2453598212" lon="-3.2971934415">
        <ele>1308.49</ele>
        <time>2020-09-06T11:49:10Z</time>
      </trkpt>
      <trkpt lat="37.2454066761" lon="-3.2970948704">
        <ele>1307.05</ele>
        <time>2020-09-06T11:49:11Z</time>
      </trkpt>
      <trkpt lat="37.2455198318" lon="-3.2969020028">
        <ele>1306.09</ele>
        <time>2020-09-06T11:49:13Z</time>
      </trkpt>
      <trkpt lat="37.2457422037" lon="-3.2966370508">
        <ele>1303.69</ele>
        <time>2020-09-06T11:49:16Z</time>
      </trkpt>
      <trkpt lat="37.2459070757" lon="-3.2965015993">
        <ele>1300.80</ele>
        <time>2020-09-06T11:49:18Z</time>
      </trkpt>
      <trkpt lat="37.2459810879" lon="-3.2964150142">
        <ele>1299.36</ele>
        <time>2020-09-06T11:49:19Z</time>
      </trkpt>
      <trkpt lat="37.2460526694" lon="-3.2963096537">
        <ele>1298.40</ele>
        <time>2020-09-06T11:49:20Z</time>
      </trkpt>
      <trkpt lat="37.2462570202" lon="-3.2959664986">
        <ele>1295.03</ele>
        <time>2020-09-06T11:49:23Z</time>
      </trkpt>
      <trkpt lat="37.2464200482" lon="-3.2956029754">
        <ele>1290.71</ele>
        <time>2020-09-06T11:49:26Z</time>
      </trkpt>
      <trkpt lat="37.2465390712" lon="-3.2952827029">
        <ele>1286.38</ele>
        <time>2020-09-06T11:49:29Z</time>
      </trkpt>
      <trkpt lat="37.2465822380" lon="-3.2951782644">
        <ele>1285.42</ele>
        <time>2020-09-06T11:49:30Z</time>
      </trkpt>
      <trkpt lat="37.2466725949" lon="-3.2949700579">
        <ele>1283.50</ele>
        <time>2020-09-06T11:49:32Z</time>
      </trkpt>
      <trkpt lat="37.2467268258" lon="-3.2948832214">
        <ele>1283.02</ele>
        <time>2020-09-06T11:49:33Z</time>
      </trkpt>
      <trkpt lat="37.2469072882" lon="-3.2946362905">
        <ele>1279.65</ele>
        <time>2020-09-06T11:49:36Z</time>
      </trkpt>
      <trkpt lat="37.2469688952" lon="-3.2945821434">
        <ele>1278.21</ele>
        <time>2020-09-06T11:49:37Z</time>
      </trkpt>
      <trkpt lat="37.2470404766" lon="-3.2945580874">
        <ele>1277.25</ele>
        <time>2020-09-06T11:49:38Z</time>
      </trkpt>
      <trkpt lat="37.2471122257" lon="-3.2945621945">
        <ele>1276.77</ele>
        <time>2020-09-06T11:49:39Z</time>
      </trkpt>
      <trkpt lat="37.2471881658" lon="-3.2945853285">
        <ele>1276.29</ele>
        <time>2020-09-06T11:49:40Z</time>
      </trkpt>
      <trkpt lat="37.2472628485" lon="-3.2946072891">
        <ele>1275.81</ele>
        <time>2020-09-06T11:49:41Z</time>
      </trkpt>
      <trkpt lat="37.2473423928" lon="-3.2946061995">
        <ele>1274.36</ele>
        <time>2020-09-06T11:49:42Z</time>
      </trkpt>
      <trkpt lat="37.2474246193" lon="-3.2945675589">
        <ele>1273.40</ele>
        <time>2020-09-06T11:49:43Z</time>
      </trkpt>
      <trkpt lat="37.2474905849" lon="-3.2945049461">
        <ele>1272.92</ele>
        <time>2020-09-06T11:49:44Z</time>
      </trkpt>
      <trkpt lat="37.2475446481" lon="-3.2944281679">
        <ele>1271.96</ele>
        <time>2020-09-06T11:49:45Z</time>
      </trkpt>
      <trkpt lat="37.2475945204" lon="-3.2943487912">
        <ele>1271.48</ele>
        <time>2020-09-06T11:49:46Z</time>
      </trkpt>
      <trkpt lat="37.2476490866" lon="-3.2942864299">
        <ele>1270.52</ele>
        <time>2020-09-06T11:49:47Z</time>
      </trkpt>
      <trkpt lat="37.2477127891" lon="-3.2942534052">
        <ele>1269.56</ele>
        <time>2020-09-06T11:49:48Z</time>
      </trkpt>
      <trkpt lat="37.2477934230" lon="-3.2942536566">
        <ele>1268.60</ele>
        <time>2020-09-06T11:49:49Z</time>
      </trkpt>
      <trkpt lat="37.2478676029" lon="-3.2942803949">
        <ele>1268.12</ele>
        <time>2020-09-06T11:49:50Z</time>
      </trkpt>
      <trkpt lat="37.2479331493" lon="-3.2943169400">
        <ele>1267.64</ele>
        <time>2020-09-06T11:49:51Z</time>
      </trkpt>
      <trkpt lat="37.2479978576" lon="-3.2943712547">
        <ele>1266.67</ele>
        <time>2020-09-06T11:49:52Z</time>
      </trkpt>
      <trkpt lat="37.2480525076" lon="-3.2944231387">
        <ele>1265.71</ele>
        <time>2020-09-06T11:49:53Z</time>
      </trkpt>
      <trkpt lat="37.2481074929" lon="-3.2944504637">
        <ele>1265.23</ele>
        <time>2020-09-06T11:49:54Z</time>
      </trkpt>
      <trkpt lat="37.2481721174" lon="-3.2944390643">
        <ele>1264.75</ele>
        <time>2020-09-06T11:49:55Z</time>
      </trkpt>
      <trkpt lat="37.2482224088" lon="-3.2943923771">
        <ele>1263.79</ele>
        <time>2020-09-06T11:49:56Z</time>
      </trkpt>
      <trkpt lat="37.2482634801" lon="-3.2943235617">
        <ele>1262.83</ele>
        <time>2020-09-06T11:49:57Z</time>
      </trkpt>
      <trkpt lat="37.2482979298" lon="-3.2942461129">
        <ele>1262.35</ele>
        <time>2020-09-06T11:49:58Z</time>
      </trkpt>
      <trkpt lat="37.2483332176" lon="-3.2941503078">
        <ele>1261.87</ele>
        <time>2020-09-06T11:49:59Z</time>
      </trkpt>
      <trkpt lat="37.2484126780" lon="-3.2939927280">
        <ele>1260.43</ele>
        <time>2020-09-06T11:50:01Z</time>
      </trkpt>
      <trkpt lat="37.2484778054" lon="-3.2939592004">
        <ele>1259.94</ele>
        <time>2020-09-06T11:50:02Z</time>
      </trkpt>
      <trkpt lat="37.2485422622" lon="-3.2939697616">
        <ele>1258.98</ele>
        <time>2020-09-06T11:50:03Z</time>
      </trkpt>
      <trkpt lat="37.2486036178" lon="-3.2940073963">
        <ele>1258.98</ele>
        <time>2020-09-06T11:50:04Z</time>
      </trkpt>
      <trkpt lat="37.2486606985" lon="-3.2940520719">
        <ele>1258.50</ele>
        <time>2020-09-06T11:50:05Z</time>
      </trkpt>
      <trkpt lat="37.2487327829" lon="-3.2940876111">
        <ele>1258.02</ele>
        <time>2020-09-06T11:50:06Z</time>
      </trkpt>
      <trkpt lat="37.2488189489" lon="-3.2940887008">
        <ele>1258.02</ele>
        <time>2020-09-06T11:50:07Z</time>
      </trkpt>
      <trkpt lat="37.2488948051" lon="-3.2940514013">
        <ele>1257.06</ele>
        <time>2020-09-06T11:50:08Z</time>
      </trkpt>
      <trkpt lat="37.2489685658" lon="-3.2939713541">
        <ele>1256.10</ele>
        <time>2020-09-06T11:50:09Z</time>
      </trkpt>
      <trkpt lat="37.2490225453" lon="-3.2938747108">
        <ele>1255.62</ele>
        <time>2020-09-06T11:50:10Z</time>
      </trkpt>
      <trkpt lat="37.2490657959" lon="-3.2937681768">
        <ele>1254.66</ele>
        <time>2020-09-06T11:50:11Z</time>
      </trkpt>
      <trkpt lat="37.2490989882" lon="-3.2936727908">
        <ele>1254.18</ele>
        <time>2020-09-06T11:50:12Z</time>
      </trkpt>
      <trkpt lat="37.2491360363" lon="-3.2935844455">
        <ele>1253.22</ele>
        <time>2020-09-06T11:50:13Z</time>
      </trkpt>
      <trkpt lat="37.2491952963" lon="-3.2935147919">
        <ele>1252.74</ele>
        <time>2020-09-06T11:50:14Z</time>
      </trkpt>
      <trkpt lat="37.2492701467" lon="-3.2934746426">
        <ele>1251.77</ele>
        <time>2020-09-06T11:50:15Z</time>
      </trkpt>
      <trkpt lat="37.2493480146" lon="-3.2934562862">
        <ele>1251.77</ele>
        <time>2020-09-06T11:50:16Z</time>
      </trkpt>
      <trkpt lat="37.2494252119" lon="-3.2934438810">
        <ele>1250.81</ele>
        <time>2020-09-06T11:50:17Z</time>
      </trkpt>
      <trkpt lat="37.2497049160" lon="-3.2934025582">
        <ele>1247.45</ele>
        <time>2020-09-06T11:50:20Z</time>
      </trkpt>
      <trkpt lat="37.2499889787" lon="-3.2933573797">
        <ele>1243.12</ele>
        <time>2020-09-06T11:50:23Z</time>
      </trkpt>
      <trkpt lat="37.2500871308" lon="-3.2933290489">
        <ele>1241.68</ele>
        <time>2020-09-06T11:50:24Z</time>
      </trkpt>
      <trkpt lat="37.2501872107" lon="-3.2932827808">
        <ele>1240.24</ele>
        <time>2020-09-06T11:50:25Z</time>
      </trkpt>
      <trkpt lat="37.2502960078" lon="-3.2932120375">
        <ele>1238.80</ele>
        <time>2020-09-06T11:50:26Z</time>
      </trkpt>
      <trkpt lat="37.2504971735" lon="-3.2930719759">
        <ele>1236.87</ele>
        <time>2020-09-06T11:50:28Z</time>
      </trkpt>
      <trkpt lat="37.2506089043" lon="-3.2930160686">
        <ele>1235.91</ele>
        <time>2020-09-06T11:50:29Z</time>
      </trkpt>
      <trkpt lat="37.2507257480" lon="-3.2929716446">
        <ele>1234.47</ele>
        <time>2020-09-06T11:50:30Z</time>
      </trkpt>
      <trkpt lat="37.2508468665" lon="-3.2929390389">
        <ele>1233.51</ele>
        <time>2020-09-06T11:50:31Z</time>
      </trkpt>
      <trkpt lat="37.2509782109" lon="-3.2929186709">
        <ele>1233.03</ele>
        <time>2020-09-06T11:50:32Z</time>
      </trkpt>
      <trkpt lat="37.2510875110" lon="-3.2929163240">
        <ele>1231.59</ele>
        <time>2020-09-06T11:50:33Z</time>
      </trkpt>
      <trkpt lat="37.2512045223" lon="-3.2929333393">
        <ele>1230.14</ele>
        <time>2020-09-06T11:50:34Z</time>
      </trkpt>
      <trkpt lat="37.2513130680" lon="-3.2929653581">
        <ele>1229.18</ele>
        <time>2020-09-06T11:50:35Z</time>
      </trkpt>
      <trkpt lat="37.2514155786" lon="-3.2930061780">
        <ele>1228.22</ele>
        <time>2020-09-06T11:50:36Z</time>
      </trkpt>
      <trkpt lat="37.2515181731" lon="-3.2930590678">
        <ele>1227.74</ele>
        <time>2020-09-06T11:50:37Z</time>
      </trkpt>
      <trkpt lat="37.2516172472" lon="-3.2931274641">
        <ele>1226.78</ele>
        <time>2020-09-06T11:50:38Z</time>
      </trkpt>
      <trkpt lat="37.2517137229" lon="-3.2932024822">
        <ele>1225.82</ele>
        <time>2020-09-06T11:50:39Z</time>
      </trkpt>
      <trkpt lat="37.2518109530" lon="-3.2932552882">
        <ele>1224.86</ele>
        <time>2020-09-06T11:50:40Z</time>
      </trkpt>
      <trkpt lat="37.2519174032" lon="-3.2932876423">
        <ele>1223.90</ele>
        <time>2020-09-06T11:50:41Z</time>
      </trkpt>
      <trkpt lat="37.2520279605" lon="-3.2933081780">
        <ele>1223.42</ele>
        <time>2020-09-06T11:50:42Z</time>
      </trkpt>
      <trkpt lat="37.2521411162" lon="-3.2933200803">
        <ele>1221.97</ele>
        <time>2020-09-06T11:50:43Z</time>
      </trkpt>
      <trkpt lat="37.2522594687" lon="-3.2933153026">
        <ele>1220.53</ele>
        <time>2020-09-06T11:50:44Z</time>
      </trkpt>
      <trkpt lat="37.2523746360" lon="-3.2932906598">
        <ele>1220.05</ele>
        <time>2020-09-06T11:50:45Z</time>
      </trkpt>
      <trkpt lat="37.2524891328" lon="-3.2932479959">
        <ele>1218.61</ele>
        <time>2020-09-06T11:50:46Z</time>
      </trkpt>
      <trkpt lat="37.2526049707" lon="-3.2931930944">
        <ele>1217.17</ele>
        <time>2020-09-06T11:50:47Z</time>
      </trkpt>
      <trkpt lat="37.2527249996" lon="-3.2931294758">
        <ele>1216.69</ele>
        <time>2020-09-06T11:50:48Z</time>
      </trkpt>
      <trkpt lat="37.2530875169" lon="-3.2929580659">
        <ele>1212.84</ele>
        <time>2020-09-06T11:50:51Z</time>
      </trkpt>
      <trkpt lat="37.2539308202" lon="-3.2926522102">
        <ele>1209.48</ele>
        <time>2020-09-06T11:50:59Z</time>
      </trkpt>
      <trkpt lat="37.2542381845" lon="-3.2925535552">
        <ele>1208.51</ele>
        <time>2020-09-06T11:51:02Z</time>
      </trkpt>
      <trkpt lat="37.2545250133" lon="-3.2924372144">
        <ele>1206.11</ele>
        <time>2020-09-06T11:51:05Z</time>
      </trkpt>
      <trkpt lat="37.2548086569" lon="-3.2922755275">
        <ele>1204.67</ele>
        <time>2020-09-06T11:51:08Z</time>
      </trkpt>
      <trkpt lat="37.2548922244" lon="-3.2922104839">
        <ele>1203.71</ele>
        <time>2020-09-06T11:51:09Z</time>
      </trkpt>
      <trkpt lat="37.2549767140" lon="-3.2921362203">
        <ele>1203.71</ele>
        <time>2020-09-06T11:51:10Z</time>
      </trkpt>
      <trkpt lat="37.2553054523" lon="-3.2917617168">
        <ele>1200.82</ele>
        <time>2020-09-06T11:51:14Z</time>
      </trkpt>
      <trkpt lat="37.2555730026" lon="-3.2913040649">
        <ele>1198.90</ele>
        <time>2020-09-06T11:51:18Z</time>
      </trkpt>
      <trkpt lat="37.2557722405" lon="-3.2907977141">
        <ele>1195.54</ele>
        <time>2020-09-06T11:51:22Z</time>
      </trkpt>
      <trkpt lat="37.2558540478" lon="-3.2905292418">
        <ele>1193.61</ele>
        <time>2020-09-06T11:51:24Z</time>
      </trkpt>
      <trkpt lat="37.2559187561" lon="-3.2902510464">
        <ele>1192.65</ele>
        <time>2020-09-06T11:51:26Z</time>
      </trkpt>
      <trkpt lat="37.2559973784" lon="-3.2899795566">
        <ele>1190.73</ele>
        <time>2020-09-06T11:51:28Z</time>
      </trkpt>
      <trkpt lat="37.2560530342" lon="-3.2898477092">
        <ele>1190.73</ele>
        <time>2020-09-06T11:51:29Z</time>
      </trkpt>
      <trkpt lat="37.2562517691" lon="-3.2894925680">
        <ele>1187.85</ele>
        <time>2020-09-06T11:51:32Z</time>
      </trkpt>
      <trkpt lat="37.2563333251" lon="-3.2893923204">
        <ele>1187.37</ele>
        <time>2020-09-06T11:51:33Z</time>
      </trkpt>
      <trkpt lat="37.2564194072" lon="-3.2893160451">
        <ele>1186.40</ele>
        <time>2020-09-06T11:51:34Z</time>
      </trkpt>
      <trkpt lat="37.2565094288" lon="-3.2892634906">
        <ele>1185.44</ele>
        <time>2020-09-06T11:51:35Z</time>
      </trkpt>
      <trkpt lat="37.2566084191" lon="-3.2892323937">
        <ele>1184.48</ele>
        <time>2020-09-06T11:51:36Z</time>
      </trkpt>
      <trkpt lat="37.2567067388" lon="-3.2892225869">
        <ele>1184.48</ele>
        <time>2020-09-06T11:51:37Z</time>
      </trkpt>
      <trkpt lat="37.2568032146" lon="-3.2892273646">
        <ele>1183.52</ele>
        <time>2020-09-06T11:51:38Z</time>
      </trkpt>
      <trkpt lat="37.2570766322" lon="-3.2892229222">
        <ele>1182.56</ele>
        <time>2020-09-06T11:51:41Z</time>
      </trkpt>
      <trkpt lat="37.2571633011" lon="-3.2892074157">
        <ele>1182.56</ele>
        <time>2020-09-06T11:51:42Z</time>
      </trkpt>
      <trkpt lat="37.2576222103" lon="-3.2890996244">
        <ele>1179.67</ele>
        <time>2020-09-06T11:51:47Z</time>
      </trkpt>
      <trkpt lat="37.2578197718" lon="-3.2890206669">
        <ele>1177.75</ele>
        <time>2020-09-06T11:51:49Z</time>
      </trkpt>
      <trkpt lat="37.2579064406" lon="-3.2889539469">
        <ele>1176.31</ele>
        <time>2020-09-06T11:51:50Z</time>
      </trkpt>
      <trkpt lat="37.2579872422" lon="-3.2888736483">
        <ele>1175.83</ele>
        <time>2020-09-06T11:51:51Z</time>
      </trkpt>
      <trkpt lat="37.2580656130" lon="-3.2887850516">
        <ele>1174.87</ele>
        <time>2020-09-06T11:51:52Z</time>
      </trkpt>
      <trkpt lat="37.2581441514" lon="-3.2886910066">
        <ele>1174.39</ele>
        <time>2020-09-06T11:51:53Z</time>
      </trkpt>
      <trkpt lat="37.2583599016" lon="-3.2884042617">
        <ele>1171.50</ele>
        <time>2020-09-06T11:51:56Z</time>
      </trkpt>
      <trkpt lat="37.2584255319" lon="-3.2883351110">
        <ele>1171.02</ele>
        <time>2020-09-06T11:51:57Z</time>
      </trkpt>
      <trkpt lat="37.2584951017" lon="-3.2882938720">
        <ele>1169.58</ele>
        <time>2020-09-06T11:51:58Z</time>
      </trkpt>
      <trkpt lat="37.2585656773" lon="-3.2882839814">
        <ele>1169.58</ele>
        <time>2020-09-06T11:51:59Z</time>
      </trkpt>
      <trkpt lat="37.2586329002" lon="-3.2882990688">
        <ele>1168.62</ele>
        <time>2020-09-06T11:52:00Z</time>
      </trkpt>
      <trkpt lat="37.2587039787" lon="-3.2883065287">
        <ele>1168.14</ele>
        <time>2020-09-06T11:52:01Z</time>
      </trkpt>
      <trkpt lat="37.2587743029" lon="-3.2882961351">
        <ele>1168.14</ele>
        <time>2020-09-06T11:52:02Z</time>
      </trkpt>
      <trkpt lat="37.2588435374" lon="-3.2882706542">
        <ele>1167.18</ele>
        <time>2020-09-06T11:52:03Z</time>
      </trkpt>
      <trkpt lat="37.2589140292" lon="-3.2882336061">
        <ele>1166.70</ele>
        <time>2020-09-06T11:52:04Z</time>
      </trkpt>
      <trkpt lat="37.2589867003" lon="-3.2881844882">
        <ele>1166.22</ele>
        <time>2020-09-06T11:52:05Z</time>
      </trkpt>
      <trkpt lat="37.2590665799" lon="-3.2881206181">
        <ele>1165.26</ele>
        <time>2020-09-06T11:52:06Z</time>
      </trkpt>
      <trkpt lat="37.2591414303" lon="-3.2880505454">
        <ele>1164.29</ele>
        <time>2020-09-06T11:52:07Z</time>
      </trkpt>
      <trkpt lat="37.2592117544" lon="-3.2879723422">
        <ele>1163.81</ele>
        <time>2020-09-06T11:52:08Z</time>
      </trkpt>
      <trkpt lat="37.2593474574" lon="-3.2878114097">
        <ele>1162.85</ele>
        <time>2020-09-06T11:52:10Z</time>
      </trkpt>
      <trkpt lat="37.2595778760" lon="-3.2874518260">
        <ele>1159.97</ele>
        <time>2020-09-06T11:52:14Z</time>
      </trkpt>
      <trkpt lat="37.2596209589" lon="-3.2873504050">
        <ele>1159.01</ele>
        <time>2020-09-06T11:52:15Z</time>
      </trkpt>
      <trkpt lat="37.2597869206" lon="-3.2869512588">
        <ele>1155.64</ele>
        <time>2020-09-06T11:52:19Z</time>
      </trkpt>
      <trkpt lat="37.2598853242" lon="-3.2867500931">
        <ele>1154.20</ele>
        <time>2020-09-06T11:52:21Z</time>
      </trkpt>
      <trkpt lat="37.2599559836" lon="-3.2866598200">
        <ele>1154.20</ele>
        <time>2020-09-06T11:52:22Z</time>
      </trkpt>
      <trkpt lat="37.2600331809" lon="-3.2865910884">
        <ele>1153.72</ele>
        <time>2020-09-06T11:52:23Z</time>
      </trkpt>
      <trkpt lat="37.2601132281" lon="-3.2865393721">
        <ele>1154.20</ele>
        <time>2020-09-06T11:52:24Z</time>
      </trkpt>
      <trkpt lat="37.2601858992" lon="-3.2865014859">
        <ele>1153.72</ele>
        <time>2020-09-06T11:52:25Z</time>
      </trkpt>
      <trkpt lat="37.2604003083" lon="-3.2864138950">
        <ele>1156.60</ele>
        <time>2020-09-06T11:52:29Z</time>
      </trkpt>
      <trkpt lat="37.2607343271" lon="-3.2863720693">
        <ele>1159.49</ele>
        <time>2020-09-06T11:52:41Z</time>
      </trkpt>
      <trkpt lat="37.2609454673" lon="-3.2863512821">
        <ele>1160.93</ele>
        <time>2020-09-06T11:52:51Z</time>
      </trkpt>
      <trkpt lat="37.2612229083" lon="-3.2862950396">
        <ele>1163.81</ele>
        <time>2020-09-06T11:53:04Z</time>
      </trkpt>
      <trkpt lat="37.2614864353" lon="-3.2860573288">
        <ele>1165.74</ele>
        <time>2020-09-06T11:53:18Z</time>
      </trkpt>
      <trkpt lat="37.2618580051" lon="-3.2857489586">
        <ele>1166.22</ele>
        <time>2020-09-06T11:53:32Z</time>
      </trkpt>
      <trkpt lat="37.2621978913" lon="-3.2853928115">
        <ele>1164.77</ele>
        <time>2020-09-06T11:53:42Z</time>
      </trkpt>
      <trkpt lat="37.2622917686" lon="-3.2852769736">
        <ele>1163.81</ele>
        <time>2020-09-06T11:53:44Z</time>
      </trkpt>
      <trkpt lat="37.2623374499" lon="-3.2852317113">
        <ele>1163.33</ele>
        <time>2020-09-06T11:53:45Z</time>
      </trkpt>
      <trkpt lat="37.2625046689" lon="-3.2850983553">
        <ele>1162.85</ele>
        <time>2020-09-06T11:53:48Z</time>
      </trkpt>
      <trkpt lat="37.2625702992" lon="-3.2850676775">
        <ele>1162.85</ele>
        <time>2020-09-06T11:53:49Z</time>
      </trkpt>
      <trkpt lat="37.2626304813" lon="-3.2850406040">
        <ele>1162.85</ele>
        <time>2020-09-06T11:53:50Z</time>
      </trkpt>
      <trkpt lat="37.2628310602" lon="-3.2849281188">
        <ele>1161.41</ele>
        <time>2020-09-06T11:53:53Z</time>
      </trkpt>
      <trkpt lat="37.2628959361" lon="-3.2848868798">
        <ele>1161.41</ele>
        <time>2020-09-06T11:53:54Z</time>
      </trkpt>
      <trkpt lat="37.2629619017" lon="-3.2848458923">
        <ele>1161.41</ele>
        <time>2020-09-06T11:53:55Z</time>
      </trkpt>
      <trkpt lat="37.2630233411" lon="-3.2847985346">
        <ele>1161.41</ele>
        <time>2020-09-06T11:53:56Z</time>
      </trkpt>
      <trkpt lat="37.2630810924" lon="-3.2847490814">
        <ele>1161.41</ele>
        <time>2020-09-06T11:53:57Z</time>
      </trkpt>
      <trkpt lat="37.2638293449" lon="-3.2840403076">
        <ele>1159.97</ele>
        <time>2020-09-06T11:54:12Z</time>
      </trkpt>
      <trkpt lat="37.2644473426" lon="-3.2835825719">
        <ele>1159.01</ele>
        <time>2020-09-06T11:54:23Z</time>
      </trkpt>
      <trkpt lat="37.2645009030" lon="-3.2835213840">
        <ele>1159.01</ele>
        <time>2020-09-06T11:54:24Z</time>
      </trkpt>
      <trkpt lat="37.2648072615" lon="-3.2831660751">
        <ele>1157.56</ele>
        <time>2020-09-06T11:54:29Z</time>
      </trkpt>
      <trkpt lat="37.2648853809" lon="-3.2830994390">
        <ele>1157.08</ele>
        <time>2020-09-06T11:54:30Z</time>
      </trkpt>
      <trkpt lat="37.2657721024" lon="-3.2823401224">
        <ele>1154.20</ele>
        <time>2020-09-06T11:54:43Z</time>
      </trkpt>
      <trkpt lat="37.2664282378" lon="-3.2815673947">
        <ele>1150.84</ele>
        <time>2020-09-06T11:54:54Z</time>
      </trkpt>
      <trkpt lat="37.2669404559" lon="-3.2810219843">
        <ele>1147.95</ele>
        <time>2020-09-06T11:55:02Z</time>
      </trkpt>
      <trkpt lat="37.2672941722" lon="-3.2806777395">
        <ele>1146.03</ele>
        <time>2020-09-06T11:55:07Z</time>
      </trkpt>
      <trkpt lat="37.2676120140" lon="-3.2804011367">
        <ele>1144.11</ele>
        <time>2020-09-06T11:55:11Z</time>
      </trkpt>
      <trkpt lat="37.2677006945" lon="-3.2803460676">
        <ele>1143.14</ele>
        <time>2020-09-06T11:55:12Z</time>
      </trkpt>
      <trkpt lat="37.2677920572" lon="-3.2802981231">
        <ele>1142.18</ele>
        <time>2020-09-06T11:55:13Z</time>
      </trkpt>
      <trkpt lat="37.2678826656" lon="-3.2802464906">
        <ele>1141.70</ele>
        <time>2020-09-06T11:55:14Z</time>
      </trkpt>
      <trkpt lat="37.2679727711" lon="-3.2801858895">
        <ele>1141.70</ele>
        <time>2020-09-06T11:55:15Z</time>
      </trkpt>
      <trkpt lat="37.2682463564" lon="-3.2799791917">
        <ele>1138.34</ele>
        <time>2020-09-06T11:55:18Z</time>
      </trkpt>
      <trkpt lat="37.2684325185" lon="-3.2798470929">
        <ele>1137.38</ele>
        <time>2020-09-06T11:55:20Z</time>
      </trkpt>
      <trkpt lat="37.2687033378" lon="-3.2796755992">
        <ele>1134.01</ele>
        <time>2020-09-06T11:55:23Z</time>
      </trkpt>
      <trkpt lat="37.2687931918" lon="-3.2796281576">
        <ele>1133.53</ele>
        <time>2020-09-06T11:55:24Z</time>
      </trkpt>
      <trkpt lat="37.2688972950" lon="-3.2796007488">
        <ele>1133.53</ele>
        <time>2020-09-06T11:55:25Z</time>
      </trkpt>
      <trkpt lat="37.2693665978" lon="-3.2795489486">
        <ele>1131.61</ele>
        <time>2020-09-06T11:55:30Z</time>
      </trkpt>
      <trkpt lat="37.2694489080" lon="-3.2795808837">
        <ele>1131.61</ele>
        <time>2020-09-06T11:55:31Z</time>
      </trkpt>
      <trkpt lat="37.2695271950" lon="-3.2796243858">
        <ele>1131.13</ele>
        <time>2020-09-06T11:55:32Z</time>
      </trkpt>
      <trkpt lat="37.2696818411" lon="-3.2797180116">
        <ele>1131.13</ele>
        <time>2020-09-06T11:55:34Z</time>
      </trkpt>
      <trkpt lat="37.2697581165" lon="-3.2797390502">
        <ele>1131.13</ele>
        <time>2020-09-06T11:55:35Z</time>
      </trkpt>
      <trkpt lat="37.2698326316" lon="-3.2797279023">
        <ele>1131.13</ele>
        <time>2020-09-06T11:55:36Z</time>
      </trkpt>
      <trkpt lat="37.2699063085" lon="-3.2796904352">
        <ele>1131.13</ele>
        <time>2020-09-06T11:55:37Z</time>
      </trkpt>
      <trkpt lat="37.2699817456" lon="-3.2796363719">
        <ele>1131.13</ele>
        <time>2020-09-06T11:55:38Z</time>
      </trkpt>
      <trkpt lat="37.2700524051" lon="-3.2795823924">
        <ele>1130.65</ele>
        <time>2020-09-06T11:55:39Z</time>
      </trkpt>
      <trkpt lat="37.2701902874" lon="-3.2794701587">
        <ele>1130.65</ele>
        <time>2020-09-06T11:55:41Z</time>
      </trkpt>
      <trkpt lat="37.2702486254" lon="-3.2793968171">
        <ele>1130.17</ele>
        <time>2020-09-06T11:55:42Z</time>
      </trkpt>
      <trkpt lat="37.2702969052" lon="-3.2793124951">
        <ele>1129.69</ele>
        <time>2020-09-06T11:55:43Z</time>
      </trkpt>
      <trkpt lat="37.2703470290" lon="-3.2792259939">
        <ele>1129.21</ele>
        <time>2020-09-06T11:55:44Z</time>
      </trkpt>
      <trkpt lat="37.2704078816" lon="-3.2791497186">
        <ele>1128.73</ele>
        <time>2020-09-06T11:55:45Z</time>
      </trkpt>
      <trkpt lat="37.2704823967" lon="-3.2790814061">
        <ele>1128.73</ele>
        <time>2020-09-06T11:55:46Z</time>
      </trkpt>
      <trkpt lat="37.2705554869" lon="-3.2790211402">
        <ele>1128.24</ele>
        <time>2020-09-06T11:55:47Z</time>
      </trkpt>
      <trkpt lat="37.2709975485" lon="-3.2786270231">
        <ele>1125.36</ele>
        <time>2020-09-06T11:55:53Z</time>
      </trkpt>
      <trkpt lat="37.2711330000" lon="-3.2785035577">
        <ele>1125.36</ele>
        <time>2020-09-06T11:55:55Z</time>
      </trkpt>
      <trkpt lat="37.2711850516" lon="-3.2784350775">
        <ele>1125.36</ele>
        <time>2020-09-06T11:55:56Z</time>
      </trkpt>
      <trkpt lat="37.2712230217" lon="-3.2783531025">
        <ele>1125.36</ele>
        <time>2020-09-06T11:55:57Z</time>
      </trkpt>
      <trkpt lat="37.2712482512" lon="-3.2782667689">
        <ele>1125.36</ele>
        <time>2020-09-06T11:55:58Z</time>
      </trkpt>
      <trkpt lat="37.2712637577" lon="-3.2781873085">
        <ele>1125.36</ele>
        <time>2020-09-06T11:55:59Z</time>
      </trkpt>
      <trkpt lat="37.2712726425" lon="-3.2781091891">
        <ele>1124.40</ele>
        <time>2020-09-06T11:56:00Z</time>
      </trkpt>
      <trkpt lat="37.2712863050" lon="-3.2779169921">
        <ele>1123.92</ele>
        <time>2020-09-06T11:56:03Z</time>
      </trkpt>
      <trkpt lat="37.2712667752" lon="-3.2778774295">
        <ele>1123.92</ele>
        <time>2020-09-06T11:56:04Z</time>
      </trkpt>
      <trkpt lat="37.2712374385" lon="-3.2778664492">
        <ele>1123.92</ele>
        <time>2020-09-06T11:56:05Z</time>
      </trkpt>
      <trkpt lat="37.2712112870" lon="-3.2778791059">
        <ele>1124.40</ele>
        <time>2020-09-06T11:56:06Z</time>
      </trkpt>
      <trkpt lat="37.2711884044" lon="-3.2778991386">
        <ele>1123.92</ele>
        <time>2020-09-06T11:56:07Z</time>
      </trkpt>
      <trkpt lat="37.2711650189" lon="-3.2779163215">
        <ele>1125.84</ele>
        <time>2020-09-06T11:56:08Z</time>
      </trkpt>
      <trkpt lat="37.2711392026" lon="-3.2779271342">
        <ele>1126.32</ele>
        <time>2020-09-06T11:56:09Z</time>
      </trkpt>
      <trkpt lat="37.2711166553" lon="-3.2779335883">
        <ele>1126.80</ele>
        <time>2020-09-06T11:56:10Z</time>
      </trkpt>
      <trkpt lat="37.2710938565" lon="-3.2779367734">
        <ele>1126.80</ele>
        <time>2020-09-06T11:56:11Z</time>
      </trkpt>
      <trkpt lat="37.2710677050" lon="-3.2779426407">
        <ele>1126.80</ele>
        <time>2020-09-06T11:56:12Z</time>
      </trkpt>
      <trkpt lat="37.2710421402" lon="-3.2779479213">
        <ele>1126.80</ele>
        <time>2020-09-06T11:56:13Z</time>
      </trkpt>
      <trkpt lat="37.2710156534" lon="-3.2779515255">
        <ele>1126.80</ele>
        <time>2020-09-06T11:56:14Z</time>
      </trkpt>
      <trkpt lat="37.2709886637" lon="-3.2779513579">
        <ele>1126.80</ele>
        <time>2020-09-06T11:56:15Z</time>
      </trkpt>
      <trkpt lat="37.2709575668" lon="-3.2779511902">
        <ele>1126.80</ele>
        <time>2020-09-06T11:56:16Z</time>
      </trkpt>
      <trkpt lat="37.2706569918" lon="-3.2779386174">
        <ele>1123.44</ele>
        <time>2020-09-06T11:56:22Z</time>
      </trkpt>
      <trkpt lat="37.2706033476" lon="-3.2779164892">
        <ele>1123.44</ele>
        <time>2020-09-06T11:56:23Z</time>
      </trkpt>
      <trkpt lat="37.2705534752" lon="-3.2778817043">
        <ele>1123.44</ele>
        <time>2020-09-06T11:56:24Z</time>
      </trkpt>
      <trkpt lat="37.2704187781" lon="-3.2777662016">
        <ele>1123.44</ele>
        <time>2020-09-06T11:56:27Z</time>
      </trkpt>
      <trkpt lat="37.2703739349" lon="-3.2777411398">
        <ele>1123.44</ele>
        <time>2020-09-06T11:56:28Z</time>
      </trkpt>
      <trkpt lat="37.2703279182" lon="-3.2777256332">
        <ele>1123.44</ele>
        <time>2020-09-06T11:56:29Z</time>
      </trkpt>
      <trkpt lat="37.2702832427" lon="-3.2777192630">
        <ele>1122.96</ele>
        <time>2020-09-06T11:56:30Z</time>
      </trkpt>
      <trkpt lat="37.2702376451" lon="-3.2777190953">
        <ele>1122.96</ele>
        <time>2020-09-06T11:56:31Z</time>
      </trkpt>
      <trkpt lat="37.2701869346" lon="-3.2777307462">
        <ele>1122.96</ele>
        <time>2020-09-06T11:56:32Z</time>
      </trkpt>
      <trkpt lat="37.2701332066" lon="-3.2777562272">
        <ele>1122.96</ele>
        <time>2020-09-06T11:56:33Z</time>
      </trkpt>
      <trkpt lat="37.2700792272" lon="-3.2777917664">
        <ele>1122.00</ele>
        <time>2020-09-06T11:56:34Z</time>
      </trkpt>
      <trkpt lat="37.2700235713" lon="-3.2778313290">
        <ele>1121.52</ele>
        <time>2020-09-06T11:56:35Z</time>
      </trkpt>
      <trkpt lat="37.2698510718" lon="-3.2779554650">
        <ele>1119.11</ele>
        <time>2020-09-06T11:56:38Z</time>
      </trkpt>
      <trkpt lat="37.2697825916" lon="-3.2779674511">
        <ele>1118.15</ele>
        <time>2020-09-06T11:56:39Z</time>
      </trkpt>
      <trkpt lat="37.2697136085" lon="-3.2779620867">
        <ele>1117.67</ele>
        <time>2020-09-06T11:56:40Z</time>
      </trkpt>
      <trkpt lat="37.2695806716" lon="-3.2779430598">
        <ele>1116.71</ele>
        <time>2020-09-06T11:56:42Z</time>
      </trkpt>
      <trkpt lat="37.2695147060" lon="-3.2779454906">
        <ele>1116.23</ele>
        <time>2020-09-06T11:56:43Z</time>
      </trkpt>
      <trkpt lat="37.2692996264" lon="-3.2779637631">
        <ele>1112.86</ele>
        <time>2020-09-06T11:56:46Z</time>
      </trkpt>
      <trkpt lat="37.2690542880" lon="-3.2780012302">
        <ele>1109.02</ele>
        <time>2020-09-06T11:56:49Z</time>
      </trkpt>
      <trkpt lat="37.2688833810" lon="-3.2780588977">
        <ele>1107.58</ele>
        <time>2020-09-06T11:56:51Z</time>
      </trkpt>
      <trkpt lat="37.2687986400" lon="-3.2780735660">
        <ele>1106.61</ele>
        <time>2020-09-06T11:56:52Z</time>
      </trkpt>
      <trkpt lat="37.2687188443" lon="-3.2780830376">
        <ele>1106.61</ele>
        <time>2020-09-06T11:56:53Z</time>
      </trkpt>
      <trkpt lat="37.2686457541" lon="-3.2781011425">
        <ele>1106.61</ele>
        <time>2020-09-06T11:56:54Z</time>
      </trkpt>
      <trkpt lat="37.2685747594" lon="-3.2781235222">
        <ele>1105.65</ele>
        <time>2020-09-06T11:56:55Z</time>
      </trkpt>
      <trkpt lat="37.2684994899" lon="-3.2781439740">
        <ele>1104.69</ele>
        <time>2020-09-06T11:56:56Z</time>
      </trkpt>
      <trkpt lat="37.2684192751" lon="-3.2781570498">
        <ele>1103.73</ele>
        <time>2020-09-06T11:56:57Z</time>
      </trkpt>
      <trkpt lat="37.2683369648" lon="-3.2781608216">
        <ele>1102.77</ele>
        <time>2020-09-06T11:56:58Z</time>
      </trkpt>
      <trkpt lat="37.2682568338" lon="-3.2781536970">
        <ele>1102.77</ele>
        <time>2020-09-06T11:56:59Z</time>
      </trkpt>
      <trkpt lat="37.2681839112" lon="-3.2781381067">
        <ele>1102.77</ele>
        <time>2020-09-06T11:57:00Z</time>
      </trkpt>
      <trkpt lat="37.2681192867" lon="-3.2781174872">
        <ele>1102.29</ele>
        <time>2020-09-06T11:57:01Z</time>
      </trkpt>
      <trkpt lat="37.2680670675" lon="-3.2780884020">
        <ele>1102.29</ele>
        <time>2020-09-06T11:57:02Z</time>
      </trkpt>
      <trkpt lat="37.2680372279" lon="-3.2780438103">
        <ele>1102.29</ele>
        <time>2020-09-06T11:57:03Z</time>
      </trkpt>
      <trkpt lat="37.2680354677" lon="-3.2779876515">
        <ele>1102.29</ele>
        <time>2020-09-06T11:57:04Z</time>
      </trkpt>
      <trkpt lat="37.2680492140" lon="-3.2779299002">
        <ele>1102.29</ele>
        <time>2020-09-06T11:57:05Z</time>
      </trkpt>
      <trkpt lat="37.2680700012" lon="-3.2778791059">
        <ele>1102.29</ele>
        <time>2020-09-06T11:57:06Z</time>
      </trkpt>
      <trkpt lat="37.2680968232" lon="-3.2778339274">
        <ele>1102.29</ele>
        <time>2020-09-06T11:57:07Z</time>
      </trkpt>
      <trkpt lat="37.2681250703" lon="-3.2777919341">
        <ele>1102.29</ele>
        <time>2020-09-06T11:57:08Z</time>
      </trkpt>
      <trkpt lat="37.2681479529" lon="-3.2777516171">
        <ele>1102.29</ele>
        <time>2020-09-06T11:57:09Z</time>
      </trkpt>
      <trkpt lat="37.2681634594" lon="-3.2777139824">
        <ele>1102.29</ele>
        <time>2020-09-06T11:57:10Z</time>
      </trkpt>
      <trkpt lat="37.2681725118" lon="-3.2776783593">
        <ele>1102.29</ele>
        <time>2020-09-06T11:57:11Z</time>
      </trkpt>
      <trkpt lat="37.2681830730" lon="-3.2776449155">
        <ele>1103.25</ele>
        <time>2020-09-06T11:57:12Z</time>
      </trkpt>
      <trkpt lat="37.2681953106" lon="-3.2776154112">
        <ele>1103.73</ele>
        <time>2020-09-06T11:57:13Z</time>
      </trkpt>
      <trkpt lat="37.2683847416" lon="-3.2772830687">
        <ele>1107.10</ele>
        <time>2020-09-06T11:57:27Z</time>
      </trkpt>
      <trkpt lat="37.2686699778" lon="-3.2771223038">
        <ele>1109.50</ele>
        <time>2020-09-06T11:57:41Z</time>
      </trkpt>
      <trkpt lat="37.2689603269" lon="-3.2770548295">
        <ele>1112.38</ele>
        <time>2020-09-06T11:57:54Z</time>
      </trkpt>
      <trkpt lat="37.2693341598" lon="-3.2770769577">
        <ele>1115.27</ele>
        <time>2020-09-06T11:58:10Z</time>
      </trkpt>
      <trkpt lat="37.2694296297" lon="-3.2769736927">
        <ele>1117.19</ele>
        <time>2020-09-06T11:58:17Z</time>
      </trkpt>
      <trkpt lat="37.2694262769" lon="-3.2769536600">
        <ele>1117.19</ele>
        <time>2020-09-06T11:58:18Z</time>
      </trkpt>
      <trkpt lat="37.2694225051" lon="-3.2769379020">
        <ele>1117.19</ele>
        <time>2020-09-06T11:58:19Z</time>
      </trkpt>
      <trkpt lat="37.2694148775" lon="-3.2769236527">
        <ele>1117.19</ele>
        <time>2020-09-06T11:58:20Z</time>
      </trkpt>
      <trkpt lat="37.2694026399" lon="-3.2769143488">
        <ele>1117.67</ele>
        <time>2020-09-06T11:58:21Z</time>
      </trkpt>
      <trkpt lat="37.2693895642" lon="-3.2769068051">
        <ele>1117.67</ele>
        <time>2020-09-06T11:58:22Z</time>
      </trkpt>
      <trkpt lat="37.2693790868" lon="-3.2768987585">
        <ele>1118.15</ele>
        <time>2020-09-06T11:58:23Z</time>
      </trkpt>
      <trkpt lat="37.2693698667" lon="-3.2768907119">
        <ele>1118.15</ele>
        <time>2020-09-06T11:58:24Z</time>
      </trkpt>
      <trkpt lat="37.2693547793" lon="-3.2768850960">
        <ele>1118.15</ele>
        <time>2020-09-06T11:58:25Z</time>
      </trkpt>
      <trkpt lat="37.2693386022" lon="-3.2768778875">
        <ele>1118.15</ele>
        <time>2020-09-06T11:58:26Z</time>
      </trkpt>
      <trkpt lat="37.2693187371" lon="-3.2768736966">
        <ele>1118.15</ele>
        <time>2020-09-06T11:58:27Z</time>
      </trkpt>
      <trkpt lat="37.2692963574" lon="-3.2768690027">
        <ele>1118.63</ele>
        <time>2020-09-06T11:58:28Z</time>
      </trkpt>
      <trkpt lat="37.2692738101" lon="-3.2768655661">
        <ele>1118.63</ele>
        <time>2020-09-06T11:58:29Z</time>
      </trkpt>
      <trkpt lat="37.2692505084" lon="-3.2768664882">
        <ele>1119.11</ele>
        <time>2020-09-06T11:58:30Z</time>
      </trkpt>
      <trkpt lat="37.2687874921" lon="-3.2767441962">
        <ele>1120.55</ele>
        <time>2020-09-06T11:58:47Z</time>
      </trkpt>
      <trkpt lat="37.2683798801" lon="-3.2766825892">
        <ele>1123.44</ele>
        <time>2020-09-06T11:59:02Z</time>
      </trkpt>
      <trkpt lat="37.2680225596" lon="-3.2766135223">
        <ele>1125.84</ele>
        <time>2020-09-06T11:59:16Z</time>
      </trkpt>
      <trkpt lat="37.2678175382" lon="-3.2763608918">
        <ele>1129.21</ele>
        <time>2020-09-06T11:59:28Z</time>
      </trkpt>
      <trkpt lat="37.2675729543" lon="-3.2761508413">
        <ele>1132.09</ele>
        <time>2020-09-06T11:59:42Z</time>
      </trkpt>
      <trkpt lat="37.2673333995" lon="-3.2759816106">
        <ele>1135.94</ele>
        <time>2020-09-06T11:59:56Z</time>
      </trkpt>
      <trkpt lat="37.2673160490" lon="-3.2759683672">
        <ele>1135.94</ele>
        <time>2020-09-06T11:59:57Z</time>
      </trkpt>
      <trkpt lat="37.2672758996" lon="-3.2758950256">
        <ele>1136.42</ele>
        <time>2020-09-06T12:00:01Z</time>
      </trkpt>
      <trkpt lat="37.2672735527" lon="-3.2758687064">
        <ele>1136.42</ele>
        <time>2020-09-06T12:00:02Z</time>
      </trkpt>
      <trkpt lat="37.2672753129" lon="-3.2758426387">
        <ele>1136.42</ele>
        <time>2020-09-06T12:00:03Z</time>
      </trkpt>
      <trkpt lat="37.2672806773" lon="-3.2758165710">
        <ele>1136.90</ele>
        <time>2020-09-06T12:00:04Z</time>
      </trkpt>
      <trkpt lat="37.2672892269" lon="-3.2757964544">
        <ele>1136.90</ele>
        <time>2020-09-06T12:00:05Z</time>
      </trkpt>
      <trkpt lat="37.2672991175" lon="-3.2757761702">
        <ele>1137.38</ele>
        <time>2020-09-06T12:00:06Z</time>
      </trkpt>
      <trkpt lat="37.2674609721" lon="-3.2755367830">
        <ele>1140.74</ele>
        <time>2020-09-06T12:00:20Z</time>
      </trkpt>
      <trkpt lat="37.2674728744" lon="-3.2755185105">
        <ele>1140.74</ele>
        <time>2020-09-06T12:00:21Z</time>
      </trkpt>
      <trkpt lat="37.2676662449" lon="-3.2750803884">
        <ele>1143.14</ele>
        <time>2020-09-06T12:00:38Z</time>
      </trkpt>
      <trkpt lat="37.2676011175" lon="-3.2748487964">
        <ele>1144.11</ele>
        <time>2020-09-06T12:00:47Z</time>
      </trkpt>
      <trkpt lat="37.2675768100" lon="-3.2748404145">
        <ele>1144.59</ele>
        <time>2020-09-06T12:00:48Z</time>
      </trkpt>
      <trkpt lat="37.2675498202" lon="-3.2748410851">
        <ele>1144.59</ele>
        <time>2020-09-06T12:00:49Z</time>
      </trkpt>
      <trkpt lat="37.2675199807" lon="-3.2748445217">
        <ele>1144.59</ele>
        <time>2020-09-06T12:00:50Z</time>
      </trkpt>
      <trkpt lat="37.2674956731" lon="-3.2748555858">
        <ele>1144.59</ele>
        <time>2020-09-06T12:00:51Z</time>
      </trkpt>
      <trkpt lat="37.2674651630" lon="-3.2748690806">
        <ele>1144.59</ele>
        <time>2020-09-06T12:00:52Z</time>
      </trkpt>
      <trkpt lat="37.2670637537" lon="-3.2752090506">
        <ele>1144.11</ele>
        <time>2020-09-06T12:01:06Z</time>
      </trkpt>
      <trkpt lat="37.2666147351" lon="-3.2755118888">
        <ele>1144.11</ele>
        <time>2020-09-06T12:01:19Z</time>
      </trkpt>
      <trkpt lat="37.2664762661" lon="-3.2755948696">
        <ele>1144.11</ele>
        <time>2020-09-06T12:01:23Z</time>
      </trkpt>
      <trkpt lat="37.2663575783" lon="-3.2756472565">
        <ele>1144.11</ele>
        <time>2020-09-06T12:01:26Z</time>
      </trkpt>
      <trkpt lat="37.2663190216" lon="-3.2756708097">
        <ele>1144.59</ele>
        <time>2020-09-06T12:01:27Z</time>
      </trkpt>
      <trkpt lat="37.2657921351" lon="-3.2759652659">
        <ele>1146.03</ele>
        <time>2020-09-06T12:01:42Z</time>
      </trkpt>
      <trkpt lat="37.2654493991" lon="-3.2760828640">
        <ele>1149.39</ele>
        <time>2020-09-06T12:01:55Z</time>
      </trkpt>
      <trkpt lat="37.2651665937" lon="-3.2761565410">
        <ele>1152.76</ele>
        <time>2020-09-06T12:02:08Z</time>
      </trkpt>
      <trkpt lat="37.2647940181" lon="-3.2762915734">
        <ele>1155.64</ele>
        <time>2020-09-06T12:02:23Z</time>
      </trkpt>
      <trkpt lat="37.2643602546" lon="-3.2763276994">
        <ele>1158.05</ele>
        <time>2020-09-06T12:02:39Z</time>
      </trkpt>
      <trkpt lat="37.2638387326" lon="-3.2762134541">
        <ele>1160.45</ele>
        <time>2020-09-06T12:02:57Z</time>
      </trkpt>
      <trkpt lat="37.2634084895" lon="-3.2759819459">
        <ele>1162.85</ele>
        <time>2020-09-06T12:03:12Z</time>
      </trkpt>
      <trkpt lat="37.2629413661" lon="-3.2759266254">
        <ele>1165.74</ele>
        <time>2020-09-06T12:03:27Z</time>
      </trkpt>
      <trkpt lat="37.2624227777" lon="-3.2759136334">
        <ele>1168.14</ele>
        <time>2020-09-06T12:03:44Z</time>
      </trkpt>
      <trkpt lat="37.2619305085" lon="-3.2757967897">
        <ele>1170.54</ele>
        <time>2020-09-06T12:04:01Z</time>
      </trkpt>
      <trkpt lat="37.2613776382" lon="-3.2757075224">
        <ele>1172.47</ele>
        <time>2020-09-06T12:04:18Z</time>
      </trkpt>
      <trkpt lat="37.2607673518" lon="-3.2756339293">
        <ele>1174.39</ele>
        <time>2020-09-06T12:04:36Z</time>
      </trkpt>
      <trkpt lat="37.2602656949" lon="-3.2755803689">
        <ele>1175.35</ele>
        <time>2020-09-06T12:04:50Z</time>
      </trkpt>
      <trkpt lat="37.2595683206" lon="-3.2754314225">
        <ele>1174.87</ele>
        <time>2020-09-06T12:05:05Z</time>
      </trkpt>
      <trkpt lat="37.2594587691" lon="-3.2753913570">
        <ele>1173.43</ele>
        <time>2020-09-06T12:05:07Z</time>
      </trkpt>
      <trkpt lat="37.2591653187" lon="-3.2752577495">
        <ele>1171.98</ele>
        <time>2020-09-06T12:05:12Z</time>
      </trkpt>
      <trkpt lat="37.2586469818" lon="-3.2750479504">
        <ele>1171.02</ele>
        <time>2020-09-06T12:05:20Z</time>
      </trkpt>
      <trkpt lat="37.2585214209" lon="-3.2749751955">
        <ele>1171.02</ele>
        <time>2020-09-06T12:05:22Z</time>
      </trkpt>
      <trkpt lat="37.2584595624" lon="-3.2749506366">
        <ele>1170.06</ele>
        <time>2020-09-06T12:05:23Z</time>
      </trkpt>
      <trkpt lat="37.2583414614" lon="-3.2749000099">
        <ele>1170.06</ele>
        <time>2020-09-06T12:05:25Z</time>
      </trkpt>
      <trkpt lat="37.2582252044" lon="-3.2748407498">
        <ele>1170.06</ele>
        <time>2020-09-06T12:05:27Z</time>
      </trkpt>
      <trkpt lat="37.2581591550" lon="-3.2748256624">
        <ele>1170.06</ele>
        <time>2020-09-06T12:05:28Z</time>
      </trkpt>
      <trkpt lat="37.2580939438" lon="-3.2748254109">
        <ele>1170.06</ele>
        <time>2020-09-06T12:05:29Z</time>
      </trkpt>
      <trkpt lat="37.2580319177" lon="-3.2748379838">
        <ele>1170.06</ele>
        <time>2020-09-06T12:05:30Z</time>
      </trkpt>
      <trkpt lat="37.2579807043" lon="-3.2748566754">
        <ele>1170.06</ele>
        <time>2020-09-06T12:05:31Z</time>
      </trkpt>
      <trkpt lat="37.2579274792" lon="-3.2748804800">
        <ele>1170.06</ele>
        <time>2020-09-06T12:05:32Z</time>
      </trkpt>
      <trkpt lat="37.2577315103" lon="-3.2749187853">
        <ele>1170.06</ele>
        <time>2020-09-06T12:05:36Z</time>
      </trkpt>
      <trkpt lat="37.2576438356" lon="-3.2749149296">
        <ele>1171.50</ele>
        <time>2020-09-06T12:05:38Z</time>
      </trkpt>
      <trkpt lat="37.2573119961" lon="-3.2749425061">
        <ele>1175.35</ele>
        <time>2020-09-06T12:05:49Z</time>
      </trkpt>
      <trkpt lat="37.2569082398" lon="-3.2749929652">
        <ele>1177.27</ele>
        <time>2020-09-06T12:06:04Z</time>
      </trkpt>
      <trkpt lat="37.2566898074" lon="-3.2747348864">
        <ele>1179.19</ele>
        <time>2020-09-06T12:06:15Z</time>
      </trkpt>
      <trkpt lat="37.2562562954" lon="-3.2743264362">
        <ele>1180.64</ele>
        <time>2020-09-06T12:06:33Z</time>
      </trkpt>
      <trkpt lat="37.2559925169" lon="-3.2740468159">
        <ele>1184.48</ele>
        <time>2020-09-06T12:06:47Z</time>
      </trkpt>
      <trkpt lat="37.2558195982" lon="-3.2738284674">
        <ele>1187.85</ele>
        <time>2020-09-06T12:07:01Z</time>
      </trkpt>
      <trkpt lat="37.2558024991" lon="-3.2738184091">
        <ele>1187.85</ele>
        <time>2020-09-06T12:07:02Z</time>
      </trkpt>
      <trkpt lat="37.2557868250" lon="-3.2738043275">
        <ele>1187.85</ele>
        <time>2020-09-06T12:07:03Z</time>
      </trkpt>
      <trkpt lat="37.2556783631" lon="-3.2736038323">
        <ele>1190.73</ele>
        <time>2020-09-06T12:07:13Z</time>
      </trkpt>
      <trkpt lat="37.2554810531" lon="-3.2731707394">
        <ele>1192.17</ele>
        <time>2020-09-06T12:07:28Z</time>
      </trkpt>
      <trkpt lat="37.2551605292" lon="-3.2727312762">
        <ele>1194.58</ele>
        <time>2020-09-06T12:07:44Z</time>
      </trkpt>
      <trkpt lat="37.2547669988" lon="-3.2722786535">
        <ele>1195.06</ele>
        <time>2020-09-06T12:07:59Z</time>
      </trkpt>
      <trkpt lat="37.2542722151" lon="-3.2721002866">
        <ele>1196.98</ele>
        <time>2020-09-06T12:08:13Z</time>
      </trkpt>
      <trkpt lat="37.2538281418" lon="-3.2718640007">
        <ele>1198.42</ele>
        <time>2020-09-06T12:08:25Z</time>
      </trkpt>
      <trkpt lat="37.2533787880" lon="-3.2716104481">
        <ele>1198.42</ele>
        <time>2020-09-06T12:08:35Z</time>
      </trkpt>
      <trkpt lat="37.2530916240" lon="-3.2715156488">
        <ele>1196.50</ele>
        <time>2020-09-06T12:08:41Z</time>
      </trkpt>
      <trkpt lat="37.2524730396" lon="-3.2711578254">
        <ele>1193.13</ele>
        <time>2020-09-06T12:08:52Z</time>
      </trkpt>
      <trkpt lat="37.2517387848" lon="-3.2704592776">
        <ele>1190.25</ele>
        <time>2020-09-06T12:09:03Z</time>
      </trkpt>
      <trkpt lat="37.2516843863" lon="-3.2703871094">
        <ele>1190.25</ele>
        <time>2020-09-06T12:09:04Z</time>
      </trkpt>
      <trkpt lat="37.2515827976" lon="-3.2702466287">
        <ele>1189.77</ele>
        <time>2020-09-06T12:09:06Z</time>
      </trkpt>
      <trkpt lat="37.2515024152" lon="-3.2701042201">
        <ele>1189.77</ele>
        <time>2020-09-06T12:09:08Z</time>
      </trkpt>
      <trkpt lat="37.2509667277" lon="-3.2690071128">
        <ele>1188.33</ele>
        <time>2020-09-06T12:09:22Z</time>
      </trkpt>
      <trkpt lat="37.2506204713" lon="-3.2684456091">
        <ele>1185.92</ele>
        <time>2020-09-06T12:09:29Z</time>
      </trkpt>
      <trkpt lat="37.2503914777" lon="-3.2681493089">
        <ele>1183.52</ele>
        <time>2020-09-06T12:09:34Z</time>
      </trkpt>
      <trkpt lat="37.2501458041" lon="-3.2678303774">
        <ele>1180.16</ele>
        <time>2020-09-06T12:09:39Z</time>
      </trkpt>
      <trkpt lat="37.2499829438" lon="-3.2675064169">
        <ele>1176.79</ele>
        <time>2020-09-06T12:09:43Z</time>
      </trkpt>
      <trkpt lat="37.2497055866" lon="-3.2669300772">
        <ele>1172.95</ele>
        <time>2020-09-06T12:09:49Z</time>
      </trkpt>
      <trkpt lat="37.2496640962" lon="-3.2668330148">
        <ele>1172.47</ele>
        <time>2020-09-06T12:09:50Z</time>
      </trkpt>
      <trkpt lat="37.2493662033" lon="-3.2661876921">
        <ele>1169.58</ele>
        <time>2020-09-06T12:09:57Z</time>
      </trkpt>
      <trkpt lat="37.2489865031" lon="-3.2656338159">
        <ele>1170.06</ele>
        <time>2020-09-06T12:10:06Z</time>
      </trkpt>
      <trkpt lat="37.2488562483" lon="-3.2652349211">
        <ele>1171.02</ele>
        <time>2020-09-06T12:10:15Z</time>
      </trkpt>
      <trkpt lat="37.2487425059" lon="-3.2646778598">
        <ele>1174.39</ele>
        <time>2020-09-06T12:10:29Z</time>
      </trkpt>
      <trkpt lat="37.2485566791" lon="-3.2643765304">
        <ele>1175.35</ele>
        <time>2020-09-06T12:10:39Z</time>
      </trkpt>
      <trkpt lat="37.2485344671" lon="-3.2643344533">
        <ele>1175.35</ele>
        <time>2020-09-06T12:10:40Z</time>
      </trkpt>
      <trkpt lat="37.2483996022" lon="-3.2640535757">
        <ele>1175.35</ele>
        <time>2020-09-06T12:10:47Z</time>
      </trkpt>
      <trkpt lat="37.2483525798" lon="-3.2639485504">
        <ele>1175.35</ele>
        <time>2020-09-06T12:10:49Z</time>
      </trkpt>
      <trkpt lat="37.2483181302" lon="-3.2638954092">
        <ele>1175.35</ele>
        <time>2020-09-06T12:10:50Z</time>
      </trkpt>
      <trkpt lat="37.2481315490" lon="-3.2636947464">
        <ele>1172.95</ele>
        <time>2020-09-06T12:10:54Z</time>
      </trkpt>
      <trkpt lat="37.2479577083" lon="-3.2635786571">
        <ele>1171.02</ele>
        <time>2020-09-06T12:10:57Z</time>
      </trkpt>
      <trkpt lat="37.2479038965" lon="-3.2635582052">
        <ele>1170.54</ele>
        <time>2020-09-06T12:10:58Z</time>
      </trkpt>
      <trkpt lat="37.2478507552" lon="-3.2635513321">
        <ele>1169.58</ele>
        <time>2020-09-06T12:10:59Z</time>
      </trkpt>
      <trkpt lat="37.2477952670" lon="-3.2635530084">
        <ele>1169.10</ele>
        <time>2020-09-06T12:11:00Z</time>
      </trkpt>
      <trkpt lat="37.2477373481" lon="-3.2635532599">
        <ele>1169.10</ele>
        <time>2020-09-06T12:11:01Z</time>
      </trkpt>
      <trkpt lat="37.2476773337" lon="-3.2635414414">
        <ele>1169.10</ele>
        <time>2020-09-06T12:11:02Z</time>
      </trkpt>
      <trkpt lat="37.2476257011" lon="-3.2635172177">
        <ele>1169.10</ele>
        <time>2020-09-06T12:11:03Z</time>
      </trkpt>
      <trkpt lat="37.2475800198" lon="-3.2634875458">
        <ele>1168.62</ele>
        <time>2020-09-06T12:11:04Z</time>
      </trkpt>
      <trkpt lat="37.2475362662" lon="-3.2634559460">
        <ele>1168.62</ele>
        <time>2020-09-06T12:11:05Z</time>
      </trkpt>
      <trkpt lat="37.2474959493" lon="-3.2634212449">
        <ele>1168.62</ele>
        <time>2020-09-06T12:11:06Z</time>
      </trkpt>
      <trkpt lat="37.2473429795" lon="-3.2632900681">
        <ele>1168.62</ele>
        <time>2020-09-06T12:11:10Z</time>
      </trkpt>
      <trkpt lat="37.2473125532" lon="-3.2632520981">
        <ele>1168.62</ele>
        <time>2020-09-06T12:11:11Z</time>
      </trkpt>
      <trkpt lat="37.2469071206" lon="-3.2625049353">
        <ele>1165.74</ele>
        <time>2020-09-06T12:11:24Z</time>
      </trkpt>
      <trkpt lat="37.2468697373" lon="-3.2624367904">
        <ele>1165.74</ele>
        <time>2020-09-06T12:11:25Z</time>
      </trkpt>
      <trkpt lat="37.2467805538" lon="-3.2623003330">
        <ele>1164.29</ele>
        <time>2020-09-06T12:11:27Z</time>
      </trkpt>
      <trkpt lat="37.2467196174" lon="-3.2622336131">
        <ele>1163.33</ele>
        <time>2020-09-06T12:11:28Z</time>
      </trkpt>
      <trkpt lat="37.2466521431" lon="-3.2621755265">
        <ele>1162.85</ele>
        <time>2020-09-06T12:11:29Z</time>
      </trkpt>
      <trkpt lat="37.2465783823" lon="-3.2621316891">
        <ele>1162.85</ele>
        <time>2020-09-06T12:11:30Z</time>
      </trkpt>
      <trkpt lat="37.2465018556" lon="-3.2621003408">
        <ele>1162.85</ele>
        <time>2020-09-06T12:11:31Z</time>
      </trkpt>
      <trkpt lat="37.2464152705" lon="-3.2620730158">
        <ele>1161.89</ele>
        <time>2020-09-06T12:11:32Z</time>
      </trkpt>
      <trkpt lat="37.2463405877" lon="-3.2620431762">
        <ele>1161.89</ele>
        <time>2020-09-06T12:11:33Z</time>
      </trkpt>
      <trkpt lat="37.2462643962" lon="-3.2619995903">
        <ele>1161.89</ele>
        <time>2020-09-06T12:11:34Z</time>
      </trkpt>
      <trkpt lat="37.2461821698" lon="-3.2619538251">
        <ele>1161.89</ele>
        <time>2020-09-06T12:11:35Z</time>
      </trkpt>
      <trkpt lat="37.2460973449" lon="-3.2619184535">
        <ele>1160.93</ele>
        <time>2020-09-06T12:11:36Z</time>
      </trkpt>
      <trkpt lat="37.2460098378" lon="-3.2618879434">
        <ele>1160.45</ele>
        <time>2020-09-06T12:11:37Z</time>
      </trkpt>
      <trkpt lat="37.2459260188" lon="-3.2618612051">
        <ele>1160.45</ele>
        <time>2020-09-06T12:11:38Z</time>
      </trkpt>
      <trkpt lat="37.2454806883" lon="-3.2617612928">
        <ele>1158.53</ele>
        <time>2020-09-06T12:11:43Z</time>
      </trkpt>
      <trkpt lat="37.2453879006" lon="-3.2617737819">
        <ele>1157.56</ele>
        <time>2020-09-06T12:11:44Z</time>
      </trkpt>
      <trkpt lat="37.2453029919" lon="-3.2617975865">
        <ele>1157.56</ele>
        <time>2020-09-06T12:11:45Z</time>
      </trkpt>
      <trkpt lat="37.2452187538" lon="-3.2618140150">
        <ele>1157.56</ele>
        <time>2020-09-06T12:11:46Z</time>
      </trkpt>
      <trkpt lat="37.2442474589" lon="-3.2620623708">
        <ele>1154.68</ele>
        <time>2020-09-06T12:11:58Z</time>
      </trkpt>
      <trkpt lat="37.2439914756" lon="-3.2621638756">
        <ele>1153.24</ele>
        <time>2020-09-06T12:12:01Z</time>
      </trkpt>
      <trkpt lat="37.2433045786" lon="-3.2623647898">
        <ele>1150.84</ele>
        <time>2020-09-06T12:12:10Z</time>
      </trkpt>
      <trkpt lat="37.2432262916" lon="-3.2623645384">
        <ele>1150.84</ele>
        <time>2020-09-06T12:12:11Z</time>
      </trkpt>
      <trkpt lat="37.2431485914" lon="-3.2623429969">
        <ele>1150.35</ele>
        <time>2020-09-06T12:12:12Z</time>
      </trkpt>
      <trkpt lat="37.2430718970" lon="-3.2622999977">
        <ele>1149.39</ele>
        <time>2020-09-06T12:12:13Z</time>
      </trkpt>
      <trkpt lat="37.2430001479" lon="-3.2622424141">
        <ele>1148.43</ele>
        <time>2020-09-06T12:12:14Z</time>
      </trkpt>
      <trkpt lat="37.2429335117" lon="-3.2621719223">
        <ele>1147.47</ele>
        <time>2020-09-06T12:12:15Z</time>
      </trkpt>
      <trkpt lat="37.2428702284" lon="-3.2620931324">
        <ele>1147.47</ele>
        <time>2020-09-06T12:12:16Z</time>
      </trkpt>
      <trkpt lat="37.2428032570" lon="-3.2620233111">
        <ele>1146.99</ele>
        <time>2020-09-06T12:12:17Z</time>
      </trkpt>
      <trkpt lat="37.2427307535" lon="-3.2619765401">
        <ele>1146.99</ele>
        <time>2020-09-06T12:12:18Z</time>
      </trkpt>
      <trkpt lat="37.2426642012" lon="-3.2619342115">
        <ele>1146.99</ele>
        <time>2020-09-06T12:12:19Z</time>
      </trkpt>
      <trkpt lat="37.2426072881" lon="-3.2618803158">
        <ele>1146.99</ele>
        <time>2020-09-06T12:12:20Z</time>
      </trkpt>
      <trkpt lat="37.2425518837" lon="-3.2618214749">
        <ele>1146.99</ele>
        <time>2020-09-06T12:12:21Z</time>
      </trkpt>
      <trkpt lat="37.2424927074" lon="-3.2617686689">
        <ele>1146.99</ele>
        <time>2020-09-06T12:12:22Z</time>
      </trkpt>
      <trkpt lat="37.2423771210" lon="-3.2616808265">
        <ele>1146.99</ele>
        <time>2020-09-06T12:12:24Z</time>
      </trkpt>
      <trkpt lat="37.2423373908" lon="-3.2616327982">
        <ele>1146.51</ele>
        <time>2020-09-06T12:12:25Z</time>
      </trkpt>
      <trkpt lat="37.2422718443" lon="-3.2615354843">
        <ele>1146.51</ele>
        <time>2020-09-06T12:12:27Z</time>
      </trkpt>
      <trkpt lat="37.2422493808" lon="-3.2614907250">
        <ele>1146.99</ele>
        <time>2020-09-06T12:12:28Z</time>
      </trkpt>
      <trkpt lat="37.2422322817" lon="-3.2614425290">
        <ele>1147.95</ele>
        <time>2020-09-06T12:12:29Z</time>
      </trkpt>
      <trkpt lat="37.2422198765" lon="-3.2613909803">
        <ele>1147.95</ele>
        <time>2020-09-06T12:12:30Z</time>
      </trkpt>
      <trkpt lat="37.2422044538" lon="-3.2613385934">
        <ele>1147.95</ele>
        <time>2020-09-06T12:12:31Z</time>
      </trkpt>
      <trkpt lat="37.2421784699" lon="-3.2612929959">
        <ele>1147.95</ele>
        <time>2020-09-06T12:12:32Z</time>
      </trkpt>
      <trkpt lat="37.2421419248" lon="-3.2612567861">
        <ele>1147.95</ele>
        <time>2020-09-06T12:12:33Z</time>
      </trkpt>
      <trkpt lat="37.2416340653" lon="-3.2608640939">
        <ele>1149.87</ele>
        <time>2020-09-06T12:12:47Z</time>
      </trkpt>
      <trkpt lat="37.2413934208" lon="-3.2606880739">
        <ele>1152.28</ele>
        <time>2020-09-06T12:12:55Z</time>
      </trkpt>
      <trkpt lat="37.2413821891" lon="-3.2606546301">
        <ele>1152.28</ele>
        <time>2020-09-06T12:12:56Z</time>
      </trkpt>
      <trkpt lat="37.2413820215" lon="-3.2606200967">
        <ele>1152.28</ele>
        <time>2020-09-06T12:12:57Z</time>
      </trkpt>
      <trkpt lat="37.2413929179" lon="-3.2605933584">
        <ele>1152.28</ele>
        <time>2020-09-06T12:12:58Z</time>
      </trkpt>
      <trkpt lat="37.2414104361" lon="-3.2605751697">
        <ele>1152.28</ele>
        <time>2020-09-06T12:12:59Z</time>
      </trkpt>
      <trkpt lat="37.2414319776" lon="-3.2605647761">
        <ele>1153.24</ele>
        <time>2020-09-06T12:13:00Z</time>
      </trkpt>
      <trkpt lat="37.2414536867" lon="-3.2605610881">
        <ele>1153.24</ele>
        <time>2020-09-06T12:13:01Z</time>
      </trkpt>
      <trkpt lat="37.2414767370" lon="-3.2605638541">
        <ele>1153.24</ele>
        <time>2020-09-06T12:13:02Z</time>
      </trkpt>
      <trkpt lat="37.2415015474" lon="-3.2605698891">
        <ele>1153.24</ele>
        <time>2020-09-06T12:13:03Z</time>
      </trkpt>
      <trkpt lat="37.2415262740" lon="-3.2605755888">
        <ele>1154.20</ele>
        <time>2020-09-06T12:13:04Z</time>
      </trkpt>
      <trkpt lat="37.2418670822" lon="-3.2606288977">
        <ele>1156.60</ele>
        <time>2020-09-06T12:13:18Z</time>
      </trkpt>
      <trkpt lat="37.2422813997" lon="-3.2607946917">
        <ele>1158.05</ele>
        <time>2020-09-06T12:13:33Z</time>
      </trkpt>
      <trkpt lat="37.2427325975" lon="-3.2608108688">
        <ele>1159.97</ele>
        <time>2020-09-06T12:13:46Z</time>
      </trkpt>
      <trkpt lat="37.2431109566" lon="-3.2607741561">
        <ele>1161.41</ele>
        <time>2020-09-06T12:13:57Z</time>
      </trkpt>
      <trkpt lat="37.2434335761" lon="-3.2605952024">
        <ele>1164.29</ele>
        <time>2020-09-06T12:14:12Z</time>
      </trkpt>
      <trkpt lat="37.2437413596" lon="-3.2603908516">
        <ele>1167.18</ele>
        <time>2020-09-06T12:14:27Z</time>
      </trkpt>
      <trkpt lat="37.2440169565" lon="-3.2601813041">
        <ele>1170.54</ele>
        <time>2020-09-06T12:14:43Z</time>
      </trkpt>
      <trkpt lat="37.2442482971" lon="-3.2599639613">
        <ele>1173.91</ele>
        <time>2020-09-06T12:14:57Z</time>
      </trkpt>
      <trkpt lat="37.2444919590" lon="-3.2597068883">
        <ele>1177.27</ele>
        <time>2020-09-06T12:15:13Z</time>
      </trkpt>
      <trkpt lat="37.2446712479" lon="-3.2594923116">
        <ele>1180.16</ele>
        <time>2020-09-06T12:15:26Z</time>
      </trkpt>
      <trkpt lat="37.2447775304" lon="-3.2592846081">
        <ele>1183.52</ele>
        <time>2020-09-06T12:15:37Z</time>
      </trkpt>
      <trkpt lat="37.2447407339" lon="-3.2589648385">
        <ele>1186.88</ele>
        <time>2020-09-06T12:15:51Z</time>
      </trkpt>
      <trkpt lat="37.2446276620" lon="-3.2588361762">
        <ele>1188.33</ele>
        <time>2020-09-06T12:15:59Z</time>
      </trkpt>
      <trkpt lat="37.2442222293" lon="-3.2586485054">
        <ele>1190.25</ele>
        <time>2020-09-06T12:16:17Z</time>
      </trkpt>
      <trkpt lat="37.2437672596" lon="-3.2585242018">
        <ele>1192.65</ele>
        <time>2020-09-06T12:16:34Z</time>
      </trkpt>
      <trkpt lat="37.2434172314" lon="-3.2584098727">
        <ele>1196.50</ele>
        <time>2020-09-06T12:16:48Z</time>
      </trkpt>
      <trkpt lat="37.2433205042" lon="-3.2583825476">
        <ele>1197.94</ele>
        <time>2020-09-06T12:16:52Z</time>
      </trkpt>
      <trkpt lat="37.2428775206" lon="-3.2582883351">
        <ele>1200.34</ele>
        <time>2020-09-06T12:17:10Z</time>
      </trkpt>
      <trkpt lat="37.2424924560" lon="-3.2582490239">
        <ele>1202.75</ele>
        <time>2020-09-06T12:17:24Z</time>
      </trkpt>
      <trkpt lat="37.2420646437" lon="-3.2582943700">
        <ele>1204.19</ele>
        <time>2020-09-06T12:17:37Z</time>
      </trkpt>
      <trkpt lat="37.2417084966" lon="-3.2580573298">
        <ele>1206.59</ele>
        <time>2020-09-06T12:17:49Z</time>
      </trkpt>
      <trkpt lat="37.2411893215" lon="-3.2577811461">
        <ele>1209.00</ele>
        <time>2020-09-06T12:18:07Z</time>
      </trkpt>
      <trkpt lat="37.2405804601" lon="-3.2574871089">
        <ele>1210.44</ele>
        <time>2020-09-06T12:18:24Z</time>
      </trkpt>
      <trkpt lat="37.2400772944" lon="-3.2573432755">
        <ele>1211.40</ele>
        <time>2020-09-06T12:18:35Z</time>
      </trkpt>
      <trkpt lat="37.2396695986" lon="-3.2571343146">
        <ele>1213.80</ele>
        <time>2020-09-06T12:18:47Z</time>
      </trkpt>
      <trkpt lat="37.2392288782" lon="-3.2568526827">
        <ele>1215.72</ele>
        <time>2020-09-06T12:19:00Z</time>
      </trkpt>
      <trkpt lat="37.2391963564" lon="-3.2568232622">
        <ele>1215.72</ele>
        <time>2020-09-06T12:19:01Z</time>
      </trkpt>
      <trkpt lat="37.2391366772" lon="-3.2567535248">
        <ele>1215.72</ele>
        <time>2020-09-06T12:19:03Z</time>
      </trkpt>
      <trkpt lat="37.2391102742" lon="-3.2567115314">
        <ele>1215.72</ele>
        <time>2020-09-06T12:19:04Z</time>
      </trkpt>
      <trkpt lat="37.2390876431" lon="-3.2566695381">
        <ele>1215.72</ele>
        <time>2020-09-06T12:19:05Z</time>
      </trkpt>
      <trkpt lat="37.2387084458" lon="-3.2560863253">
        <ele>1217.17</ele>
        <time>2020-09-06T12:19:19Z</time>
      </trkpt>
      <trkpt lat="37.2382884286" lon="-3.2556671463">
        <ele>1220.05</ele>
        <time>2020-09-06T12:19:33Z</time>
      </trkpt>
      <trkpt lat="37.2380073834" lon="-3.2551497314">
        <ele>1221.97</ele>
        <time>2020-09-06T12:19:47Z</time>
      </trkpt>
      <trkpt lat="37.2375752125" lon="-3.2548464742">
        <ele>1224.86</ele>
        <time>2020-09-06T12:20:01Z</time>
      </trkpt>
      <trkpt lat="37.2369359247" lon="-3.2544828672">
        <ele>1226.78</ele>
        <time>2020-09-06T12:20:20Z</time>
      </trkpt>
      <trkpt lat="37.2364824638" lon="-3.2540211082">
        <ele>1229.66</ele>
        <time>2020-09-06T12:20:36Z</time>
      </trkpt>
      <trkpt lat="37.2362098843" lon="-3.2534614485">
        <ele>1231.11</ele>
        <time>2020-09-06T12:20:50Z</time>
      </trkpt>
      <trkpt lat="37.2360461019" lon="-3.2528790738">
        <ele>1232.55</ele>
        <time>2020-09-06T12:21:01Z</time>
      </trkpt>
      <trkpt lat="37.2360374685" lon="-3.2528171316">
        <ele>1232.55</ele>
        <time>2020-09-06T12:21:02Z</time>
      </trkpt>
      <trkpt lat="37.2359009273" lon="-3.2520151511">
        <ele>1231.11</ele>
        <time>2020-09-06T12:21:14Z</time>
      </trkpt>
      <trkpt lat="37.2359009273" lon="-3.2519511972">
        <ele>1231.11</ele>
        <time>2020-09-06T12:21:15Z</time>
      </trkpt>
      <trkpt lat="37.2359129973" lon="-3.2518838067">
        <ele>1231.11</ele>
        <time>2020-09-06T12:21:16Z</time>
      </trkpt>
      <trkpt lat="37.2359666415" lon="-3.2516978960">
        <ele>1230.62</ele>
        <time>2020-09-06T12:21:19Z</time>
      </trkpt>
      <trkpt lat="37.2360466048" lon="-3.2515809685">
        <ele>1230.62</ele>
        <time>2020-09-06T12:21:22Z</time>
      </trkpt>
      <trkpt lat="37.2360884305" lon="-3.2515699882">
        <ele>1230.62</ele>
        <time>2020-09-06T12:21:23Z</time>
      </trkpt>
      <trkpt lat="37.2361314297" lon="-3.2515669707">
        <ele>1229.66</ele>
        <time>2020-09-06T12:21:24Z</time>
      </trkpt>
      <trkpt lat="37.2361809667" lon="-3.2515664678">
        <ele>1229.66</ele>
        <time>2020-09-06T12:21:25Z</time>
      </trkpt>
      <trkpt lat="37.2362340242" lon="-3.2515617739">
        <ele>1229.66</ele>
        <time>2020-09-06T12:21:26Z</time>
      </trkpt>
      <trkpt lat="37.2364849783" lon="-3.2514933776">
        <ele>1229.18</ele>
        <time>2020-09-06T12:21:31Z</time>
      </trkpt>
      <trkpt lat="37.2365334257" lon="-3.2514597662">
        <ele>1228.70</ele>
        <time>2020-09-06T12:21:32Z</time>
      </trkpt>
      <trkpt lat="37.2365751676" lon="-3.2514078822">
        <ele>1228.70</ele>
        <time>2020-09-06T12:21:33Z</time>
      </trkpt>
      <trkpt lat="37.2366063483" lon="-3.2513432577">
        <ele>1228.22</ele>
        <time>2020-09-06T12:21:34Z</time>
      </trkpt>
      <trkpt lat="37.2366266325" lon="-3.2512690779">
        <ele>1228.22</ele>
        <time>2020-09-06T12:21:35Z</time>
      </trkpt>
      <trkpt lat="37.2366434801" lon="-3.2511907071">
        <ele>1228.22</ele>
        <time>2020-09-06T12:21:36Z</time>
      </trkpt>
      <trkpt lat="37.2367319092" lon="-3.2502819411">
        <ele>1224.86</ele>
        <time>2020-09-06T12:21:47Z</time>
      </trkpt>
      <trkpt lat="37.2369060013" lon="-3.2493420783">
        <ele>1223.42</ele>
        <time>2020-09-06T12:21:58Z</time>
      </trkpt>
      <trkpt lat="37.2373621445" lon="-3.2482576277">
        <ele>1219.57</ele>
        <time>2020-09-06T12:22:11Z</time>
      </trkpt>
      <trkpt lat="37.2374862805" lon="-3.2478882372">
        <ele>1218.13</ele>
        <time>2020-09-06T12:22:15Z</time>
      </trkpt>
      <trkpt lat="37.2375280224" lon="-3.2477961201">
        <ele>1218.13</ele>
        <time>2020-09-06T12:22:16Z</time>
      </trkpt>
      <trkpt lat="37.2375746258" lon="-3.2477108762">
        <ele>1217.17</ele>
        <time>2020-09-06T12:22:17Z</time>
      </trkpt>
      <trkpt lat="37.2376267612" lon="-3.2476296555">
        <ele>1217.17</ele>
        <time>2020-09-06T12:22:18Z</time>
      </trkpt>
      <trkpt lat="37.2376836743" lon="-3.2475496922">
        <ele>1216.69</ele>
        <time>2020-09-06T12:22:19Z</time>
      </trkpt>
      <trkpt lat="37.2382966429" lon="-3.2468541618">
        <ele>1212.84</ele>
        <time>2020-09-06T12:22:28Z</time>
      </trkpt>
      <trkpt lat="37.2392301355" lon="-3.2461642474">
        <ele>1210.92</ele>
        <time>2020-09-06T12:22:40Z</time>
      </trkpt>
      <trkpt lat="37.2400733549" lon="-3.2454154082">
        <ele>1208.03</ele>
        <time>2020-09-06T12:22:52Z</time>
      </trkpt>
      <trkpt lat="37.2402364668" lon="-3.2453430723">
        <ele>1208.03</ele>
        <time>2020-09-06T12:22:54Z</time>
      </trkpt>
      <trkpt lat="37.2411631700" lon="-3.2451378834">
        <ele>1206.59</ele>
        <time>2020-09-06T12:23:06Z</time>
      </trkpt>
      <trkpt lat="37.2412470728" lon="-3.2451399788">
        <ele>1206.59</ele>
        <time>2020-09-06T12:23:07Z</time>
      </trkpt>
      <trkpt lat="37.2418829240" lon="-3.2451697346">
        <ele>1204.67</ele>
        <time>2020-09-06T12:23:15Z</time>
      </trkpt>
      <trkpt lat="37.2419540863" lon="-3.2451548986">
        <ele>1204.19</ele>
        <time>2020-09-06T12:23:16Z</time>
      </trkpt>
      <trkpt lat="37.2420950700" lon="-3.2451070379">
        <ele>1204.19</ele>
        <time>2020-09-06T12:23:18Z</time>
      </trkpt>
      <trkpt lat="37.2421647236" lon="-3.2450712472">
        <ele>1204.19</ele>
        <time>2020-09-06T12:23:19Z</time>
      </trkpt>
      <trkpt lat="37.2429879941" lon="-3.2446874399">
        <ele>1202.75</ele>
        <time>2020-09-06T12:23:31Z</time>
      </trkpt>
      <trkpt lat="37.2439850215" lon="-3.2441088371">
        <ele>1200.34</ele>
        <time>2020-09-06T12:23:47Z</time>
      </trkpt>
      <trkpt lat="37.2449153289" lon="-3.2437039074">
        <ele>1196.98</ele>
        <time>2020-09-06T12:24:00Z</time>
      </trkpt>
      <trkpt lat="37.2459382564" lon="-3.2430815510">
        <ele>1194.58</ele>
        <time>2020-09-06T12:24:14Z</time>
      </trkpt>
      <trkpt lat="37.2464588564" lon="-3.2427440118">
        <ele>1191.21</ele>
        <time>2020-09-06T12:24:21Z</time>
      </trkpt>
      <trkpt lat="37.2465256602" lon="-3.2426859252">
        <ele>1191.21</ele>
        <time>2020-09-06T12:24:22Z</time>
      </trkpt>
      <trkpt lat="37.2467977367" lon="-3.2424581889">
        <ele>1190.73</ele>
        <time>2020-09-06T12:24:26Z</time>
      </trkpt>
      <trkpt lat="37.2468747664" lon="-3.2424161118">
        <ele>1190.73</ele>
        <time>2020-09-06T12:24:27Z</time>
      </trkpt>
      <trkpt lat="37.2482310422" lon="-3.2418680191">
        <ele>1187.85</ele>
        <time>2020-09-06T12:24:44Z</time>
      </trkpt>
      <trkpt lat="37.2490486130" lon="-3.2412092015">
        <ele>1185.92</ele>
        <time>2020-09-06T12:24:56Z</time>
      </trkpt>
      <trkpt lat="37.2493595816" lon="-3.2407074608">
        <ele>1185.44</ele>
        <time>2020-09-06T12:25:02Z</time>
      </trkpt>
      <trkpt lat="37.2494285647" lon="-3.2406395674">
        <ele>1184.96</ele>
        <time>2020-09-06T12:25:03Z</time>
      </trkpt>
      <trkpt lat="37.2495036665" lon="-3.2405780442">
        <ele>1184.96</ele>
        <time>2020-09-06T12:25:04Z</time>
      </trkpt>
      <trkpt lat="37.2495813668" lon="-3.2405247353">
        <ele>1184.48</ele>
        <time>2020-09-06T12:25:05Z</time>
      </trkpt>
      <trkpt lat="37.2496572230" lon="-3.2404788863">
        <ele>1184.48</ele>
        <time>2020-09-06T12:25:06Z</time>
      </trkpt>
      <trkpt lat="37.2500445507" lon="-3.2402840070">
        <ele>1184.48</ele>
        <time>2020-09-06T12:25:11Z</time>
      </trkpt>
      <trkpt lat="37.2501285374" lon="-3.2402659021">
        <ele>1183.52</ele>
        <time>2020-09-06T12:25:12Z</time>
      </trkpt>
      <trkpt lat="37.2504483908" lon="-3.2402514853">
        <ele>1183.04</ele>
        <time>2020-09-06T12:25:16Z</time>
      </trkpt>
      <trkpt lat="37.2505224869" lon="-3.2402778883">
        <ele>1182.56</ele>
        <time>2020-09-06T12:25:17Z</time>
      </trkpt>
      <trkpt lat="37.2506783064" lon="-3.2403541636">
        <ele>1182.08</ele>
        <time>2020-09-06T12:25:19Z</time>
      </trkpt>
      <trkpt lat="37.2507547494" lon="-3.2403967436">
        <ele>1181.60</ele>
        <time>2020-09-06T12:25:20Z</time>
      </trkpt>
      <trkpt lat="37.2508300189" lon="-3.2404327858">
        <ele>1181.60</ele>
        <time>2020-09-06T12:25:21Z</time>
      </trkpt>
      <trkpt lat="37.2509069648" lon="-3.2404619548">
        <ele>1181.60</ele>
        <time>2020-09-06T12:25:22Z</time>
      </trkpt>
      <trkpt lat="37.2509801388" lon="-3.2404858433">
        <ele>1181.60</ele>
        <time>2020-09-06T12:25:23Z</time>
      </trkpt>
      <trkpt lat="37.2512062825" lon="-3.2405292615">
        <ele>1181.60</ele>
        <time>2020-09-06T12:25:26Z</time>
      </trkpt>
      <trkpt lat="37.2512797080" lon="-3.2405346259">
        <ele>1181.60</ele>
        <time>2020-09-06T12:25:27Z</time>
      </trkpt>
      <trkpt lat="37.2521192394" lon="-3.2405813131">
        <ele>1181.12</ele>
        <time>2020-09-06T12:25:38Z</time>
      </trkpt>
      <trkpt lat="37.2521985322" lon="-3.2405845821">
        <ele>1181.12</ele>
        <time>2020-09-06T12:25:39Z</time>
      </trkpt>
      <trkpt lat="37.2525767237" lon="-3.2405722607">
        <ele>1179.67</ele>
        <time>2020-09-06T12:25:44Z</time>
      </trkpt>
      <trkpt lat="37.2526354808" lon="-3.2405332010">
        <ele>1179.67</ele>
        <time>2020-09-06T12:25:45Z</time>
      </trkpt>
      <trkpt lat="37.2526835091" lon="-3.2404663973">
        <ele>1179.19</ele>
        <time>2020-09-06T12:25:46Z</time>
      </trkpt>
      <trkpt lat="37.2533180192" lon="-3.2397318911">
        <ele>1178.23</ele>
        <time>2020-09-06T12:25:58Z</time>
      </trkpt>
      <trkpt lat="37.2543215007" lon="-3.2389171701">
        <ele>1175.83</ele>
        <time>2020-09-06T12:26:14Z</time>
      </trkpt>
      <trkpt lat="37.2550090682" lon="-3.2382091507">
        <ele>1173.91</ele>
        <time>2020-09-06T12:26:26Z</time>
      </trkpt>
      <trkpt lat="37.2550735250" lon="-3.2381741982">
        <ele>1173.43</ele>
        <time>2020-09-06T12:26:27Z</time>
      </trkpt>
      <trkpt lat="37.2551410832" lon="-3.2381518185">
        <ele>1172.95</ele>
        <time>2020-09-06T12:26:28Z</time>
      </trkpt>
      <trkpt lat="37.2552154306" lon="-3.2381364796">
        <ele>1172.95</ele>
        <time>2020-09-06T12:26:29Z</time>
      </trkpt>
      <trkpt lat="37.2552859224" lon="-3.2381259184">
        <ele>1172.95</ele>
        <time>2020-09-06T12:26:30Z</time>
      </trkpt>
      <trkpt lat="37.2555709071" lon="-3.2381140161">
        <ele>1171.98</ele>
        <time>2020-09-06T12:26:36Z</time>
      </trkpt>
      <trkpt lat="37.2555255610" lon="-3.2381481305">
        <ele>1171.50</ele>
        <time>2020-09-06T12:26:40Z</time>
      </trkpt>
      <trkpt lat="37.2555029299" lon="-3.2381423470">
        <ele>1171.50</ele>
        <time>2020-09-06T12:26:41Z</time>
      </trkpt>
      <trkpt lat="37.2554836515" lon="-3.2381351385">
        <ele>1171.50</ele>
        <time>2020-09-06T12:26:42Z</time>
      </trkpt>
      <trkpt lat="37.2554594278" lon="-3.2381285168">
        <ele>1171.50</ele>
        <time>2020-09-06T12:26:43Z</time>
      </trkpt>
      <trkpt lat="37.2554309294" lon="-3.2381223142">
        <ele>1171.50</ele>
        <time>2020-09-06T12:26:44Z</time>
      </trkpt>
      <trkpt lat="37.2552548256" lon="-3.2380922232">
        <ele>1171.50</ele>
        <time>2020-09-06T12:26:50Z</time>
      </trkpt>
      <trkpt lat="37.2552528977" lon="-3.2380536664">
        <ele>1171.50</ele>
        <time>2020-09-06T12:26:51Z</time>
      </trkpt>
      <trkpt lat="37.2552736010" lon="-3.2380125951">
        <ele>1171.50</ele>
        <time>2020-09-06T12:26:52Z</time>
      </trkpt>
      <trkpt lat="37.2555408999" lon="-3.2376629859">
        <ele>1171.50</ele>
        <time>2020-09-06T12:27:00Z</time>
      </trkpt>
      <trkpt lat="37.2558230348" lon="-3.2371454034">
        <ele>1170.54</ele>
        <time>2020-09-06T12:27:08Z</time>
      </trkpt>
      <trkpt lat="37.2561309021" lon="-3.2366619352">
        <ele>1168.62</ele>
        <time>2020-09-06T12:27:16Z</time>
      </trkpt>
      <trkpt lat="37.2564356681" lon="-3.2363506313">
        <ele>1168.14</ele>
        <time>2020-09-06T12:27:22Z</time>
      </trkpt>
      <trkpt lat="37.2564933356" lon="-3.2363248989">
        <ele>1168.14</ele>
        <time>2020-09-06T12:27:23Z</time>
      </trkpt>
      <trkpt lat="37.2566722054" lon="-3.2362615317">
        <ele>1167.66</ele>
        <time>2020-09-06T12:27:26Z</time>
      </trkpt>
      <trkpt lat="37.2567331418" lon="-3.2362311892">
        <ele>1167.66</ele>
        <time>2020-09-06T12:27:27Z</time>
      </trkpt>
      <trkpt lat="37.2567807510" lon="-3.2361936383">
        <ele>1167.66</ele>
        <time>2020-09-06T12:27:28Z</time>
      </trkpt>
      <trkpt lat="37.2568234988" lon="-3.2361430954">
        <ele>1167.66</ele>
        <time>2020-09-06T12:27:29Z</time>
      </trkpt>
      <trkpt lat="37.2568628937" lon="-3.2360847574">
        <ele>1167.66</ele>
        <time>2020-09-06T12:27:30Z</time>
      </trkpt>
      <trkpt lat="37.2570775542" lon="-3.2358271815">
        <ele>1167.18</ele>
        <time>2020-09-06T12:27:35Z</time>
      </trkpt>
      <trkpt lat="37.2573055420" lon="-3.2355964277">
        <ele>1165.74</ele>
        <time>2020-09-06T12:27:40Z</time>
      </trkpt>
      <trkpt lat="37.2575596813" lon="-3.2352507580">
        <ele>1165.26</ele>
        <time>2020-09-06T12:27:47Z</time>
      </trkpt>
      <trkpt lat="37.2578522097" lon="-3.2348532043">
        <ele>1164.29</ele>
        <time>2020-09-06T12:27:56Z</time>
      </trkpt>
      <trkpt lat="37.2580392938" lon="-3.2346713170">
        <ele>1163.81</ele>
        <time>2020-09-06T12:28:01Z</time>
      </trkpt>
      <trkpt lat="37.2580653615" lon="-3.2346307486">
        <ele>1163.81</ele>
        <time>2020-09-06T12:28:02Z</time>
      </trkpt>
      <trkpt lat="37.2580834664" lon="-3.2345766854">
        <ele>1163.33</ele>
        <time>2020-09-06T12:28:03Z</time>
      </trkpt>
      <trkpt lat="37.2580854781" lon="-3.2345160004">
        <ele>1163.33</ele>
        <time>2020-09-06T12:28:04Z</time>
      </trkpt>
      <trkpt lat="37.2580803651" lon="-3.2344700675">
        <ele>1163.33</ele>
        <time>2020-09-06T12:28:05Z</time>
      </trkpt>
      <trkpt lat="37.2580749169" lon="-3.2344157528">
        <ele>1163.33</ele>
        <time>2020-09-06T12:28:06Z</time>
      </trkpt>
      <trkpt lat="37.2580015752" lon="-3.2339612022">
        <ele>1161.89</ele>
        <time>2020-09-06T12:28:14Z</time>
      </trkpt>
      <trkpt lat="37.2579772677" lon="-3.2339187060">
        <ele>1161.41</ele>
        <time>2020-09-06T12:28:15Z</time>
      </trkpt>
      <trkpt lat="37.2579548042" lon="-3.2338969130">
        <ele>1161.41</ele>
        <time>2020-09-06T12:28:16Z</time>
      </trkpt>
      <trkpt lat="37.2579353582" lon="-3.2338820770">
        <ele>1161.41</ele>
        <time>2020-09-06T12:28:17Z</time>
      </trkpt>
      <trkpt lat="37.2579098772" lon="-3.2338669896">
        <ele>1161.41</ele>
        <time>2020-09-06T12:28:18Z</time>
      </trkpt>
      <trkpt lat="37.2578818817" lon="-3.2338531595">
        <ele>1161.41</ele>
        <time>2020-09-06T12:28:19Z</time>
      </trkpt>
      <trkpt lat="37.2575995792" lon="-3.2336356491">
        <ele>1160.45</ele>
        <time>2020-09-06T12:28:32Z</time>
      </trkpt>
      <trkpt lat="37.2575941309" lon="-3.2336204778">
        <ele>1160.45</ele>
        <time>2020-09-06T12:28:33Z</time>
      </trkpt>
      <trkpt lat="37.2575914487" lon="-3.2336032949">
        <ele>1160.45</ele>
        <time>2020-09-06T12:28:34Z</time>
      </trkpt>
      <trkpt lat="37.2575532272" lon="-3.2332802564">
        <ele>1158.05</ele>
        <time>2020-09-06T12:28:44Z</time>
      </trkpt>
      <trkpt lat="37.2575476952" lon="-3.2332367543">
        <ele>1157.08</ele>
        <time>2020-09-06T12:28:54Z</time>
      </trkpt>
      <trkpt lat="37.2575316858" lon="-3.2331793383">
        <ele>1156.60</ele>
        <time>2020-09-06T12:29:07Z</time>
      </trkpt>
      <trkpt lat="37.2575292550" lon="-3.2331598923">
        <ele>1156.60</ele>
        <time>2020-09-06T12:29:24Z</time>
      </trkpt>
      <trkpt lat="37.2575176880" lon="-3.2331332378">
        <ele>1156.60</ele>
        <time>2020-09-06T12:29:40Z</time>
      </trkpt>
      <trkpt lat="37.2575136647" lon="-3.2331251912">
        <ele>1156.60</ele>
        <time>2020-09-06T12:29:41Z</time>
      </trkpt>
      <trkpt lat="37.2575233039" lon="-3.2331051584">
        <ele>1152.76</ele>
        <time>2020-09-06T12:29:47Z</time>
      </trkpt>
      <trkpt lat="37.2575050313" lon="-3.2334327232">
        <ele>1160.93</ele>
        <time>2020-09-06T12:43:23Z</time>
      </trkpt>
      <trkpt lat="37.2574947216" lon="-3.2334076613">
        <ele>1160.93</ele>
        <time>2020-09-06T12:43:26Z</time>
      </trkpt>
      <trkpt lat="37.2574977390" lon="-3.2333748043">
        <ele>1163.81</ele>
        <time>2020-09-06T12:43:44Z</time>
      </trkpt>
      <trkpt lat="37.2574973200" lon="-3.2333726250">
        <ele>1167.18</ele>
        <time>2020-09-06T12:43:49Z</time>
      </trkpt>
      <trkpt lat="37.2574879322" lon="-3.2333797496">
        <ele>1170.54</ele>
        <time>2020-09-06T12:43:55Z</time>
      </trkpt>
      <trkpt lat="37.2574837413" lon="-3.2333873771">
        <ele>1173.43</ele>
        <time>2020-09-06T12:44:05Z</time>
      </trkpt>
      <trkpt lat="37.2574912850" lon="-3.2333625667">
        <ele>1174.87</ele>
        <time>2020-09-06T12:44:23Z</time>
      </trkpt>
      <trkpt lat="37.2575159278" lon="-3.2333789952">
        <ele>1174.87</ele>
        <time>2020-09-06T12:45:01Z</time>
      </trkpt>
      <trkpt lat="37.2575151734" lon="-3.2333665062">
        <ele>1173.43</ele>
        <time>2020-09-06T12:45:19Z</time>
      </trkpt>
      <trkpt lat="37.2575300932" lon="-3.2333800849">
        <ele>1173.43</ele>
        <time>2020-09-06T12:45:32Z</time>
      </trkpt>
      <trkpt lat="37.2575444262" lon="-3.2333824318">
        <ele>1173.43</ele>
        <time>2020-09-06T12:45:41Z</time>
      </trkpt>
      <trkpt lat="37.2575483657" lon="-3.2333870418">
        <ele>1173.43</ele>
        <time>2020-09-06T12:46:07Z</time>
      </trkpt>
      <trkpt lat="37.2575500421" lon="-3.2333925739">
        <ele>1172.95</ele>
        <time>2020-09-06T12:46:37Z</time>
      </trkpt>
      <trkpt lat="37.2575553227" lon="-3.2334153727">
        <ele>1172.47</ele>
        <time>2020-09-06T12:47:01Z</time>
      </trkpt>
      <trkpt lat="37.2575521376" lon="-3.2334060688">
        <ele>1172.47</ele>
        <time>2020-09-06T12:47:21Z</time>
      </trkpt>
      <trkpt lat="37.2575550713" lon="-3.2334031351">
        <ele>1172.47</ele>
        <time>2020-09-06T12:47:41Z</time>
      </trkpt>
      <trkpt lat="37.2575589269" lon="-3.2333851978">
        <ele>1172.47</ele>
        <time>2020-09-06T12:47:49Z</time>
      </trkpt>
      <trkpt lat="37.2575653810" lon="-3.2331355009">
        <ele>1170.54</ele>
        <time>2020-09-06T12:48:00Z</time>
      </trkpt>
      <trkpt lat="37.2575849108" lon="-3.2331225928">
        <ele>1170.54</ele>
        <time>2020-09-06T12:48:01Z</time>
      </trkpt>
      <trkpt lat="37.2577056941" lon="-3.2329800166">
        <ele>1168.14</ele>
        <time>2020-09-06T12:48:08Z</time>
      </trkpt>
      <trkpt lat="37.2576987371" lon="-3.2326543797">
        <ele>1164.29</ele>
        <time>2020-09-06T12:48:16Z</time>
      </trkpt>
      <trkpt lat="37.2576932888" lon="-3.2326092012">
        <ele>1164.29</ele>
        <time>2020-09-06T12:48:17Z</time>
      </trkpt>
      <trkpt lat="37.2576881759" lon="-3.2324129809">
        <ele>1161.89</ele>
        <time>2020-09-06T12:48:21Z</time>
      </trkpt>
      <trkpt lat="37.2576760221" lon="-3.2323577441">
        <ele>1161.41</ele>
        <time>2020-09-06T12:48:22Z</time>
      </trkpt>
      <trkpt lat="37.2576586716" lon="-3.2323035132">
        <ele>1161.41</ele>
        <time>2020-09-06T12:48:23Z</time>
      </trkpt>
      <trkpt lat="37.2576341126" lon="-3.2322462648">
        <ele>1160.45</ele>
        <time>2020-09-06T12:48:24Z</time>
      </trkpt>
      <trkpt lat="37.2576095536" lon="-3.2321880106">
        <ele>1160.45</ele>
        <time>2020-09-06T12:48:25Z</time>
      </trkpt>
      <trkpt lat="37.2574775387" lon="-3.2318217214">
        <ele>1161.89</ele>
        <time>2020-09-06T12:48:31Z</time>
      </trkpt>
      <trkpt lat="37.2574639600" lon="-3.2317548338">
        <ele>1159.49</ele>
        <time>2020-09-06T12:48:32Z</time>
      </trkpt>
      <trkpt lat="37.2574462742" lon="-3.2314009499">
        <ele>1159.49</ele>
        <time>2020-09-06T12:48:38Z</time>
      </trkpt>
      <trkpt lat="37.2574605234" lon="-3.2313528378">
        <ele>1159.49</ele>
        <time>2020-09-06T12:48:39Z</time>
      </trkpt>
      <trkpt lat="37.2574782092" lon="-3.2313097548">
        <ele>1160.93</ele>
        <time>2020-09-06T12:48:40Z</time>
      </trkpt>
      <trkpt lat="37.2574991640" lon="-3.2312717009">
        <ele>1160.93</ele>
        <time>2020-09-06T12:48:41Z</time>
      </trkpt>
      <trkpt lat="37.2575246450" lon="-3.2312407717">
        <ele>1160.93</ele>
        <time>2020-09-06T12:48:42Z</time>
      </trkpt>
      <trkpt lat="37.2575544007" lon="-3.2312142011">
        <ele>1161.41</ele>
        <time>2020-09-06T12:48:43Z</time>
      </trkpt>
      <trkpt lat="37.2575892694" lon="-3.2311893906">
        <ele>1161.41</ele>
        <time>2020-09-06T12:48:44Z</time>
      </trkpt>
      <trkpt lat="37.2576199472" lon="-3.2311703637">
        <ele>1161.41</ele>
        <time>2020-09-06T12:48:45Z</time>
      </trkpt>
      <trkpt lat="37.2576533910" lon="-3.2311524265">
        <ele>1161.41</ele>
        <time>2020-09-06T12:48:46Z</time>
      </trkpt>
      <trkpt lat="37.2576850746" lon="-3.2311335672">
        <ele>1161.89</ele>
        <time>2020-09-06T12:48:47Z</time>
      </trkpt>
      <trkpt lat="37.2582744900" lon="-3.2307206746">
        <ele>1163.81</ele>
        <time>2020-09-06T12:49:06Z</time>
      </trkpt>
      <trkpt lat="37.2585640009" lon="-3.2303171698">
        <ele>1166.70</ele>
        <time>2020-09-06T12:49:19Z</time>
      </trkpt>
      <trkpt lat="37.2590064816" lon="-3.2297865115">
        <ele>1168.14</ele>
        <time>2020-09-06T12:49:37Z</time>
      </trkpt>
      <trkpt lat="37.2594859265" lon="-3.2291125227">
        <ele>1168.14</ele>
        <time>2020-09-06T12:49:55Z</time>
      </trkpt>
      <trkpt lat="37.2595034447" lon="-3.2290608902">
        <ele>1168.14</ele>
        <time>2020-09-06T12:49:56Z</time>
      </trkpt>
      <trkpt lat="37.2595126648" lon="-3.2290058210">
        <ele>1168.14</ele>
        <time>2020-09-06T12:49:57Z</time>
      </trkpt>
      <trkpt lat="37.2595161851" lon="-3.2289508358">
        <ele>1168.14</ele>
        <time>2020-09-06T12:49:58Z</time>
      </trkpt>
      <trkpt lat="37.2595168557" lon="-3.2288975269">
        <ele>1168.14</ele>
        <time>2020-09-06T12:49:59Z</time>
      </trkpt>
      <trkpt lat="37.2595193703" lon="-3.2288534380">
        <ele>1168.14</ele>
        <time>2020-09-06T12:50:00Z</time>
      </trkpt>
      <trkpt lat="37.2595342062" lon="-3.2288051583">
        <ele>1168.14</ele>
        <time>2020-09-06T12:50:01Z</time>
      </trkpt>
      <trkpt lat="37.2595647164" lon="-3.2287607342">
        <ele>1168.14</ele>
        <time>2020-09-06T12:50:02Z</time>
      </trkpt>
      <trkpt lat="37.2595925443" lon="-3.2287322357">
        <ele>1168.14</ele>
        <time>2020-09-06T12:50:03Z</time>
      </trkpt>
      <trkpt lat="37.2596279997" lon="-3.2287029829">
        <ele>1168.14</ele>
        <time>2020-09-06T12:50:04Z</time>
      </trkpt>
      <trkpt lat="37.2596704122" lon="-3.2286689524">
        <ele>1168.14</ele>
        <time>2020-09-06T12:50:05Z</time>
      </trkpt>
      <trkpt lat="37.2599587496" lon="-3.2284322474">
        <ele>1166.70</ele>
        <time>2020-09-06T12:50:12Z</time>
      </trkpt>
      <trkpt lat="37.2607423738" lon="-3.2277865894">
        <ele>1164.77</ele>
        <time>2020-09-06T12:50:30Z</time>
      </trkpt>
      <trkpt lat="37.2608649172" lon="-3.2276798878">
        <ele>1164.29</ele>
        <time>2020-09-06T12:50:33Z</time>
      </trkpt>
      <trkpt lat="37.2609080840" lon="-3.2276374754">
        <ele>1164.29</ele>
        <time>2020-09-06T12:50:34Z</time>
      </trkpt>
      <trkpt lat="37.2609535139" lon="-3.2275969069">
        <ele>1164.29</ele>
        <time>2020-09-06T12:50:35Z</time>
      </trkpt>
      <trkpt lat="37.2610033862" lon="-3.2275605295">
        <ele>1164.29</ele>
        <time>2020-09-06T12:50:36Z</time>
      </trkpt>
      <trkpt lat="37.2610580362" lon="-3.2275262475">
        <ele>1163.81</ele>
        <time>2020-09-06T12:50:37Z</time>
      </trkpt>
      <trkpt lat="37.2617186140" lon="-3.2269929908">
        <ele>1162.37</ele>
        <time>2020-09-06T12:50:49Z</time>
      </trkpt>
      <trkpt lat="37.2628582176" lon="-3.2260241266">
        <ele>1159.97</ele>
        <time>2020-09-06T12:51:09Z</time>
      </trkpt>
      <trkpt lat="37.2639170196" lon="-3.2251233235">
        <ele>1157.08</ele>
        <time>2020-09-06T12:51:28Z</time>
      </trkpt>
      <trkpt lat="37.2649134602" lon="-3.2242867257">
        <ele>1155.16</ele>
        <time>2020-09-06T12:51:45Z</time>
      </trkpt>
      <trkpt lat="37.2652539331" lon="-3.2239795290">
        <ele>1151.80</ele>
        <time>2020-09-06T12:51:51Z</time>
      </trkpt>
      <trkpt lat="37.2653057333" lon="-3.2239081152">
        <ele>1151.80</ele>
        <time>2020-09-06T12:51:52Z</time>
      </trkpt>
      <trkpt lat="37.2653559409" lon="-3.2238236256">
        <ele>1150.84</ele>
        <time>2020-09-06T12:51:53Z</time>
      </trkpt>
      <trkpt lat="37.2653970122" lon="-3.2237414829">
        <ele>1149.87</ele>
        <time>2020-09-06T12:51:54Z</time>
      </trkpt>
      <trkpt lat="37.2654358204" lon="-3.2236419059">
        <ele>1149.39</ele>
        <time>2020-09-06T12:51:55Z</time>
      </trkpt>
      <trkpt lat="37.2654654924" lon="-3.2235471066">
        <ele>1148.43</ele>
        <time>2020-09-06T12:51:56Z</time>
      </trkpt>
      <trkpt lat="37.2654931527" lon="-3.2234392315">
        <ele>1147.95</ele>
        <time>2020-09-06T12:51:57Z</time>
      </trkpt>
      <trkpt lat="37.2655179631" lon="-3.2233362179">
        <ele>1146.51</ele>
        <time>2020-09-06T12:51:58Z</time>
      </trkpt>
      <trkpt lat="37.2656147741" lon="-3.2229208108">
        <ele>1143.14</ele>
        <time>2020-09-06T12:52:02Z</time>
      </trkpt>
      <trkpt lat="37.2656982578" lon="-3.2224848680">
        <ele>1139.78</ele>
        <time>2020-09-06T12:52:06Z</time>
      </trkpt>
      <trkpt lat="37.2657450289" lon="-3.2221072633">
        <ele>1136.42</ele>
        <time>2020-09-06T12:52:09Z</time>
      </trkpt>
      <trkpt lat="37.2657941468" lon="-3.2216785289">
        <ele>1133.53</ele>
        <time>2020-09-06T12:52:12Z</time>
      </trkpt>
      <trkpt lat="37.2658464499" lon="-3.2214044407">
        <ele>1131.13</ele>
        <time>2020-09-06T12:52:14Z</time>
      </trkpt>
      <trkpt lat="37.2659049556" lon="-3.2212818973">
        <ele>1129.21</ele>
        <time>2020-09-06T12:52:15Z</time>
      </trkpt>
      <trkpt lat="37.2659829911" lon="-3.2211931329">
        <ele>1128.24</ele>
        <time>2020-09-06T12:52:16Z</time>
      </trkpt>
      <trkpt lat="37.2660747729" lon="-3.2211366389">
        <ele>1126.80</ele>
        <time>2020-09-06T12:52:17Z</time>
      </trkpt>
      <trkpt lat="37.2661739308" lon="-3.2211000100">
        <ele>1125.84</ele>
        <time>2020-09-06T12:52:18Z</time>
      </trkpt>
      <trkpt lat="37.2662648745" lon="-3.2210601959">
        <ele>1124.40</ele>
        <time>2020-09-06T12:52:19Z</time>
      </trkpt>
      <trkpt lat="37.2663443349" lon="-3.2209936436">
        <ele>1122.96</ele>
        <time>2020-09-06T12:52:20Z</time>
      </trkpt>
      <trkpt lat="37.2663990688" lon="-3.2209020294">
        <ele>1122.00</ele>
        <time>2020-09-06T12:52:21Z</time>
      </trkpt>
      <trkpt lat="37.2664214484" lon="-3.2207899634">
        <ele>1121.03</ele>
        <time>2020-09-06T12:52:22Z</time>
      </trkpt>
      <trkpt lat="37.2664105520" lon="-3.2206646539">
        <ele>1119.59</ele>
        <time>2020-09-06T12:52:23Z</time>
      </trkpt>
      <trkpt lat="37.2663800418" lon="-3.2205468044">
        <ele>1119.11</ele>
        <time>2020-09-06T12:52:24Z</time>
      </trkpt>
      <trkpt lat="37.2663436644" lon="-3.2204274461">
        <ele>1119.11</ele>
        <time>2020-09-06T12:52:25Z</time>
      </trkpt>
      <trkpt lat="37.2662301734" lon="-3.2200461533">
        <ele>1115.27</ele>
        <time>2020-09-06T12:52:28Z</time>
      </trkpt>
      <trkpt lat="37.2660490405" lon="-3.2195176743">
        <ele>1111.42</ele>
        <time>2020-09-06T12:52:32Z</time>
      </trkpt>
      <trkpt lat="37.2658770438" lon="-3.2191250660">
        <ele>1108.06</ele>
        <time>2020-09-06T12:52:35Z</time>
      </trkpt>
      <trkpt lat="37.2657434363" lon="-3.2187487185">
        <ele>1103.73</ele>
        <time>2020-09-06T12:52:38Z</time>
      </trkpt>
      <trkpt lat="37.2657450289" lon="-3.2186358143">
        <ele>1102.77</ele>
        <time>2020-09-06T12:52:39Z</time>
      </trkpt>
      <trkpt lat="37.2657833342" lon="-3.2185224909">
        <ele>1101.33</ele>
        <time>2020-09-06T12:52:40Z</time>
      </trkpt>
      <trkpt lat="37.2658451926" lon="-3.2184486464">
        <ele>1100.37</ele>
        <time>2020-09-06T12:52:41Z</time>
      </trkpt>
      <trkpt lat="37.2659296822" lon="-3.2183989417">
        <ele>1099.40</ele>
        <time>2020-09-06T12:52:42Z</time>
      </trkpt>
      <trkpt lat="37.2660311870" lon="-3.2183940802">
        <ele>1098.44</ele>
        <time>2020-09-06T12:52:43Z</time>
      </trkpt>
      <trkpt lat="37.2661279142" lon="-3.2184229977">
        <ele>1097.48</ele>
        <time>2020-09-06T12:52:44Z</time>
      </trkpt>
      <trkpt lat="37.2662186064" lon="-3.2184374146">
        <ele>1096.52</ele>
        <time>2020-09-06T12:52:45Z</time>
      </trkpt>
      <trkpt lat="37.2663081251" lon="-3.2184144482">
        <ele>1094.60</ele>
        <time>2020-09-06T12:52:46Z</time>
      </trkpt>
      <trkpt lat="37.2663838137" lon="-3.2183489855">
        <ele>1093.64</ele>
        <time>2020-09-06T12:52:47Z</time>
      </trkpt>
      <trkpt lat="37.2664380446" lon="-3.2182383444">
        <ele>1092.20</ele>
        <time>2020-09-06T12:52:48Z</time>
      </trkpt>
      <trkpt lat="37.2664656211" lon="-3.2181126159">
        <ele>1091.23</ele>
        <time>2020-09-06T12:52:49Z</time>
      </trkpt>
      <trkpt lat="37.2664990649" lon="-3.2179896533">
        <ele>1089.79</ele>
        <time>2020-09-06T12:52:50Z</time>
      </trkpt>
      <trkpt lat="37.2665570676" lon="-3.2178896572">
        <ele>1089.31</ele>
        <time>2020-09-06T12:52:51Z</time>
      </trkpt>
      <trkpt lat="37.2666304093" lon="-3.2178214286">
        <ele>1087.39</ele>
        <time>2020-09-06T12:52:52Z</time>
      </trkpt>
      <trkpt lat="37.2667214368" lon="-3.2177662756">
        <ele>1086.43</ele>
        <time>2020-09-06T12:52:53Z</time>
      </trkpt>
      <trkpt lat="37.2668253724" lon="-3.2177148107">
        <ele>1085.47</ele>
        <time>2020-09-06T12:52:54Z</time>
      </trkpt>
      <trkpt lat="37.2671604808" lon="-3.2175750006">
        <ele>1081.62</ele>
        <time>2020-09-06T12:52:57Z</time>
      </trkpt>
      <trkpt lat="37.2672875505" lon="-3.2175587397">
        <ele>1080.18</ele>
        <time>2020-09-06T12:52:58Z</time>
      </trkpt>
      <trkpt lat="37.2674063221" lon="-3.2175700553">
        <ele>1079.22</ele>
        <time>2020-09-06T12:52:59Z</time>
      </trkpt>
      <trkpt lat="37.2675319668" lon="-3.2176075224">
        <ele>1077.29</ele>
        <time>2020-09-06T12:53:00Z</time>
      </trkpt>
      <trkpt lat="37.2676610481" lon="-3.2176766731">
        <ele>1075.85</ele>
        <time>2020-09-06T12:53:01Z</time>
      </trkpt>
      <trkpt lat="37.2677693423" lon="-3.2177551277">
        <ele>1074.41</ele>
        <time>2020-09-06T12:53:02Z</time>
      </trkpt>
      <trkpt lat="37.2678861022" lon="-3.2178561296">
        <ele>1072.97</ele>
        <time>2020-09-06T12:53:03Z</time>
      </trkpt>
      <trkpt lat="37.2679858468" lon="-3.2179464027">
        <ele>1071.05</ele>
        <time>2020-09-06T12:53:04Z</time>
      </trkpt>
      <trkpt lat="37.2680942249" lon="-3.2180283777">
        <ele>1069.60</ele>
        <time>2020-09-06T12:53:05Z</time>
      </trkpt>
      <trkpt lat="37.2682140023" lon="-3.2180779148">
        <ele>1067.68</ele>
        <time>2020-09-06T12:53:06Z</time>
      </trkpt>
      <trkpt lat="37.2683190275" lon="-3.2180800941">
        <ele>1066.24</ele>
        <time>2020-09-06T12:53:07Z</time>
      </trkpt>
      <trkpt lat="37.2684208676" lon="-3.2180419564">
        <ele>1064.80</ele>
        <time>2020-09-06T12:53:08Z</time>
      </trkpt>
      <trkpt lat="37.2685113922" lon="-3.2179652620">
        <ele>1063.36</ele>
        <time>2020-09-06T12:53:09Z</time>
      </trkpt>
      <trkpt lat="37.2685797885" lon="-3.2178511843">
        <ele>1061.91</ele>
        <time>2020-09-06T12:53:10Z</time>
      </trkpt>
      <trkpt lat="37.2686202731" lon="-3.2177194208">
        <ele>1060.95</ele>
        <time>2020-09-06T12:53:11Z</time>
      </trkpt>
      <trkpt lat="37.2686489392" lon="-3.2175667025">
        <ele>1059.51</ele>
        <time>2020-09-06T12:53:12Z</time>
      </trkpt>
      <trkpt lat="37.2686981410" lon="-3.2172474358">
        <ele>1056.63</ele>
        <time>2020-09-06T12:53:14Z</time>
      </trkpt>
      <trkpt lat="37.2687026672" lon="-3.2170647942">
        <ele>1054.70</ele>
        <time>2020-09-06T12:53:15Z</time>
      </trkpt>
      <trkpt lat="37.2686909325" lon="-3.2169042807">
        <ele>1053.26</ele>
        <time>2020-09-06T12:53:16Z</time>
      </trkpt>
      <trkpt lat="37.2686454188" lon="-3.2165745366">
        <ele>1050.86</ele>
        <time>2020-09-06T12:53:18Z</time>
      </trkpt>
      <trkpt lat="37.2685877513" lon="-3.2164391689">
        <ele>1049.90</ele>
        <time>2020-09-06T12:53:19Z</time>
      </trkpt>
      <trkpt lat="37.2685106378" lon="-3.2163265161">
        <ele>1048.45</ele>
        <time>2020-09-06T12:53:20Z</time>
      </trkpt>
      <trkpt lat="37.2684341110" lon="-3.2162224967">
        <ele>1048.45</ele>
        <time>2020-09-06T12:53:21Z</time>
      </trkpt>
      <trkpt lat="37.2683641221" lon="-3.2161212433">
        <ele>1048.45</ele>
        <time>2020-09-06T12:53:22Z</time>
      </trkpt>
      <trkpt lat="37.2682492901" lon="-3.2159264479">
        <ele>1048.45</ele>
        <time>2020-09-06T12:53:24Z</time>
      </trkpt>
      <trkpt lat="37.2682134155" lon="-3.2158282958">
        <ele>1048.45</ele>
        <time>2020-09-06T12:53:25Z</time>
      </trkpt>
      <trkpt lat="37.2681935504" lon="-3.2157268748">
        <ele>1048.45</ele>
        <time>2020-09-06T12:53:26Z</time>
      </trkpt>
      <trkpt lat="37.2681935504" lon="-3.2156264596">
        <ele>1048.45</ele>
        <time>2020-09-06T12:53:27Z</time>
      </trkpt>
      <trkpt lat="37.2682129126" lon="-3.2155266311">
        <ele>1048.45</ele>
        <time>2020-09-06T12:53:28Z</time>
      </trkpt>
      <trkpt lat="37.2682499606" lon="-3.2154371124">
        <ele>1048.45</ele>
        <time>2020-09-06T12:53:29Z</time>
      </trkpt>
      <trkpt lat="37.2683019284" lon="-3.2153521199">
        <ele>1048.45</ele>
        <time>2020-09-06T12:53:30Z</time>
      </trkpt>
      <trkpt lat="37.2683683131" lon="-3.2152759284">
        <ele>1048.45</ele>
        <time>2020-09-06T12:53:31Z</time>
      </trkpt>
      <trkpt lat="37.2684408166" lon="-3.2152116392">
        <ele>1048.45</ele>
        <time>2020-09-06T12:53:32Z</time>
      </trkpt>
      <trkpt lat="37.2685168404" lon="-3.2151471823">
        <ele>1047.97</ele>
        <time>2020-09-06T12:53:33Z</time>
      </trkpt>
      <trkpt lat="37.2688314971" lon="-3.2148544863">
        <ele>1045.09</ele>
        <time>2020-09-06T12:53:37Z</time>
      </trkpt>
      <trkpt lat="37.2688931040" lon="-3.2147665601">
        <ele>1044.61</ele>
        <time>2020-09-06T12:53:38Z</time>
      </trkpt>
      <trkpt lat="37.2689404618" lon="-3.2146591879">
        <ele>1043.65</ele>
        <time>2020-09-06T12:53:39Z</time>
      </trkpt>
      <trkpt lat="37.2689745761" lon="-3.2145388238">
        <ele>1042.69</ele>
        <time>2020-09-06T12:53:40Z</time>
      </trkpt>
      <trkpt lat="37.2690118756" lon="-3.2144255843">
        <ele>1042.21</ele>
        <time>2020-09-06T12:53:41Z</time>
      </trkpt>
      <trkpt lat="37.2690683696" lon="-3.2143341377">
        <ele>1040.76</ele>
        <time>2020-09-06T12:53:42Z</time>
      </trkpt>
      <trkpt lat="37.2691475786" lon="-3.2142682560">
        <ele>1039.80</ele>
        <time>2020-09-06T12:53:43Z</time>
      </trkpt>
      <trkpt lat="37.2692374326" lon="-3.2142374106">
        <ele>1039.32</ele>
        <time>2020-09-06T12:53:44Z</time>
      </trkpt>
      <trkpt lat="37.2693310585" lon="-3.2142422721">
        <ele>1038.36</ele>
        <time>2020-09-06T12:53:45Z</time>
      </trkpt>
      <trkpt lat="37.2694232594" lon="-3.2142838463">
        <ele>1036.92</ele>
        <time>2020-09-06T12:53:46Z</time>
      </trkpt>
      <trkpt lat="37.2694987804" lon="-3.2143583614">
        <ele>1035.96</ele>
        <time>2020-09-06T12:53:47Z</time>
      </trkpt>
      <trkpt lat="37.2695618961" lon="-3.2144555915">
        <ele>1034.52</ele>
        <time>2020-09-06T12:53:48Z</time>
      </trkpt>
      <trkpt lat="37.2696271911" lon="-3.2145559229">
        <ele>1033.55</ele>
        <time>2020-09-06T12:53:49Z</time>
      </trkpt>
      <trkpt lat="37.2697053105" lon="-3.2146342099">
        <ele>1032.59</ele>
        <time>2020-09-06T12:53:50Z</time>
      </trkpt>
      <trkpt lat="37.2697913088" lon="-3.2146767899">
        <ele>1031.63</ele>
        <time>2020-09-06T12:53:51Z</time>
      </trkpt>
      <trkpt lat="37.2698805761" lon="-3.2146724313">
        <ele>1030.67</ele>
        <time>2020-09-06T12:53:52Z</time>
      </trkpt>
      <trkpt lat="37.2699498944" lon="-3.2146222237">
        <ele>1030.19</ele>
        <time>2020-09-06T12:53:53Z</time>
      </trkpt>
      <trkpt lat="37.2699953243" lon="-3.2145392429">
        <ele>1030.19</ele>
        <time>2020-09-06T12:53:54Z</time>
      </trkpt>
      <trkpt lat="37.2700222302" lon="-3.2144402526">
        <ele>1029.71</ele>
        <time>2020-09-06T12:53:55Z</time>
      </trkpt>
      <trkpt lat="37.2700457834" lon="-3.2143418491">
        <ele>1029.23</ele>
        <time>2020-09-06T12:53:56Z</time>
      </trkpt>
      <trkpt lat="37.2702463623" lon="-3.2136208378">
        <ele>1025.86</ele>
        <time>2020-09-06T12:54:03Z</time>
      </trkpt>
      <trkpt lat="37.2702985816" lon="-3.2135190815">
        <ele>1024.90</ele>
        <time>2020-09-06T12:54:04Z</time>
      </trkpt>
      <trkpt lat="37.2703632899" lon="-3.2134223543">
        <ele>1023.94</ele>
        <time>2020-09-06T12:54:05Z</time>
      </trkpt>
      <trkpt lat="37.2704387270" lon="-3.2133294828">
        <ele>1023.46</ele>
        <time>2020-09-06T12:54:06Z</time>
      </trkpt>
      <trkpt lat="37.2705217917" lon="-3.2132320851">
        <ele>1022.50</ele>
        <time>2020-09-06T12:54:07Z</time>
      </trkpt>
      <trkpt lat="37.2707766853" lon="-3.2129676361">
        <ele>1020.10</ele>
        <time>2020-09-06T12:54:10Z</time>
      </trkpt>
      <trkpt lat="37.2708752565" lon="-3.2129023410">
        <ele>1020.10</ele>
        <time>2020-09-06T12:54:11Z</time>
      </trkpt>
      <trkpt lat="37.2709781025" lon="-3.2128564920">
        <ele>1018.17</ele>
        <time>2020-09-06T12:54:12Z</time>
      </trkpt>
      <trkpt lat="37.2710884083" lon="-3.2128253952">
        <ele>1017.21</ele>
        <time>2020-09-06T12:54:13Z</time>
      </trkpt>
      <trkpt lat="37.2712022346" lon="-3.2128161751">
        <ele>1016.25</ele>
        <time>2020-09-06T12:54:14Z</time>
      </trkpt>
      <trkpt lat="37.2713233531" lon="-3.2128255628">
        <ele>1015.29</ele>
        <time>2020-09-06T12:54:15Z</time>
      </trkpt>
      <trkpt lat="37.2714373469" lon="-3.2128497865">
        <ele>1013.85</ele>
        <time>2020-09-06T12:54:16Z</time>
      </trkpt>
      <trkpt lat="37.2715481557" lon="-3.2128871698">
        <ele>1012.89</ele>
        <time>2020-09-06T12:54:17Z</time>
      </trkpt>
      <trkpt lat="37.2716587968" lon="-3.2129336894">
        <ele>1011.44</ele>
        <time>2020-09-06T12:54:18Z</time>
      </trkpt>
      <trkpt lat="37.2718743794" lon="-3.2130024210">
        <ele>1008.56</ele>
        <time>2020-09-06T12:54:20Z</time>
      </trkpt>
      <trkpt lat="37.2719790693" lon="-3.2130045164">
        <ele>1007.60</ele>
        <time>2020-09-06T12:54:21Z</time>
      </trkpt>
      <trkpt lat="37.2720784787" lon="-3.2129773591">
        <ele>1006.64</ele>
        <time>2020-09-06T12:54:22Z</time>
      </trkpt>
      <trkpt lat="37.2721706796" lon="-3.2129109744">
        <ele>1005.68</ele>
        <time>2020-09-06T12:54:23Z</time>
      </trkpt>
      <trkpt lat="37.2722380701" lon="-3.2128155045">
        <ele>1004.72</ele>
        <time>2020-09-06T12:54:24Z</time>
      </trkpt>
      <trkpt lat="37.2722781356" lon="-3.2126983255">
        <ele>1004.23</ele>
        <time>2020-09-06T12:54:25Z</time>
      </trkpt>
      <trkpt lat="37.2722883616" lon="-3.2125676516">
        <ele>1002.79</ele>
        <time>2020-09-06T12:54:26Z</time>
      </trkpt>
      <trkpt lat="37.2722749505" lon="-3.2124285121">
        <ele>1000.87</ele>
        <time>2020-09-06T12:54:27Z</time>
      </trkpt>
      <trkpt lat="37.2722475417" lon="-3.2122882828">
        <ele>999.91</ele>
        <time>2020-09-06T12:54:28Z</time>
      </trkpt>
      <trkpt lat="37.2722139303" lon="-3.2121483050">
        <ele>999.43</ele>
        <time>2020-09-06T12:54:29Z</time>
      </trkpt>
      <trkpt lat="37.2721773852" lon="-3.2120102551">
        <ele>998.47</ele>
        <time>2020-09-06T12:54:30Z</time>
      </trkpt>
      <trkpt lat="37.2721229866" lon="-3.2117280364">
        <ele>997.51</ele>
        <time>2020-09-06T12:54:32Z</time>
      </trkpt>
      <trkpt lat="37.2721127607" lon="-3.2115970273">
        <ele>997.51</ele>
        <time>2020-09-06T12:54:33Z</time>
      </trkpt>
      <trkpt lat="37.2721104138" lon="-3.2114650961">
        <ele>997.02</ele>
        <time>2020-09-06T12:54:34Z</time>
      </trkpt>
      <trkpt lat="37.2721195500" lon="-3.2113295607">
        <ele>997.02</ele>
        <time>2020-09-06T12:54:35Z</time>
      </trkpt>
      <trkpt lat="37.2721339669" lon="-3.2112130523">
        <ele>997.02</ele>
        <time>2020-09-06T12:54:36Z</time>
      </trkpt>
      <trkpt lat="37.2721590288" lon="-3.2110942807">
        <ele>997.02</ele>
        <time>2020-09-06T12:54:37Z</time>
      </trkpt>
      <trkpt lat="37.2722022794" lon="-3.2109800354">
        <ele>996.54</ele>
        <time>2020-09-06T12:54:38Z</time>
      </trkpt>
      <trkpt lat="37.2722583544" lon="-3.2108831406">
        <ele>996.54</ele>
        <time>2020-09-06T12:54:39Z</time>
      </trkpt>
      <trkpt lat="37.2723230626" lon="-3.2108012494">
        <ele>995.58</ele>
        <time>2020-09-06T12:54:40Z</time>
      </trkpt>
      <trkpt lat="37.2724016849" lon="-3.2107319310">
        <ele>995.58</ele>
        <time>2020-09-06T12:54:41Z</time>
      </trkpt>
      <trkpt lat="37.2724911198" lon="-3.2106791250">
        <ele>994.62</ele>
        <time>2020-09-06T12:54:42Z</time>
      </trkpt>
      <trkpt lat="37.2725906968" lon="-3.2106404845">
        <ele>994.62</ele>
        <time>2020-09-06T12:54:43Z</time>
      </trkpt>
      <trkpt lat="37.2726810537" lon="-3.2106142491">
        <ele>993.66</ele>
        <time>2020-09-06T12:54:44Z</time>
      </trkpt>
      <trkpt lat="37.2729610093" lon="-3.2105191145">
        <ele>992.70</ele>
        <time>2020-09-06T12:54:47Z</time>
      </trkpt>
      <trkpt lat="37.2730462532" lon="-3.2104678173">
        <ele>992.22</ele>
        <time>2020-09-06T12:54:48Z</time>
      </trkpt>
      <trkpt lat="37.2738519218" lon="-3.2097668387">
        <ele>991.26</ele>
        <time>2020-09-06T12:55:00Z</time>
      </trkpt>
      <trkpt lat="37.2744161077" lon="-3.2092543691">
        <ele>990.30</ele>
        <time>2020-09-06T12:55:10Z</time>
      </trkpt>
      <trkpt lat="37.2744669858" lon="-3.2091936003">
        <ele>990.30</ele>
        <time>2020-09-06T12:55:11Z</time>
      </trkpt>
      <trkpt lat="37.2748502903" lon="-3.2087461744">
        <ele>992.22</ele>
        <time>2020-09-06T12:55:19Z</time>
      </trkpt>
      <trkpt lat="37.2755713016" lon="-3.2083409093">
        <ele>990.78</ele>
        <time>2020-09-06T12:55:31Z</time>
      </trkpt>
      <trkpt lat="37.2760035563" lon="-3.2082042005">
        <ele>988.85</ele>
        <time>2020-09-06T12:55:37Z</time>
      </trkpt>
      <trkpt lat="37.2760733776" lon="-3.2081612851">
        <ele>988.85</ele>
        <time>2020-09-06T12:55:38Z</time>
      </trkpt>
      <trkpt lat="37.2761406004" lon="-3.2081123348">
        <ele>988.85</ele>
        <time>2020-09-06T12:55:39Z</time>
      </trkpt>
      <trkpt lat="37.2762045544" lon="-3.2080583554">
        <ele>988.85</ele>
        <time>2020-09-06T12:55:40Z</time>
      </trkpt>
      <trkpt lat="37.2762650717" lon="-3.2080006041">
        <ele>988.37</ele>
        <time>2020-09-06T12:55:41Z</time>
      </trkpt>
      <trkpt lat="37.2767864261" lon="-3.2074060757">
        <ele>985.01</ele>
        <time>2020-09-06T12:55:50Z</time>
      </trkpt>
      <trkpt lat="37.2770120669" lon="-3.2069672830">
        <ele>981.64</ele>
        <time>2020-09-06T12:55:55Z</time>
      </trkpt>
      <trkpt lat="37.2770998254" lon="-3.2066875789">
        <ele>980.20</ele>
        <time>2020-09-06T12:55:58Z</time>
      </trkpt>
      <trkpt lat="37.2771447524" lon="-3.2064948790">
        <ele>979.24</ele>
        <time>2020-09-06T12:56:00Z</time>
      </trkpt>
      <trkpt lat="37.2772532143" lon="-3.2059919648">
        <ele>975.88</ele>
        <time>2020-09-06T12:56:05Z</time>
      </trkpt>
      <trkpt lat="37.2773058526" lon="-3.2058064733">
        <ele>974.91</ele>
        <time>2020-09-06T12:56:07Z</time>
      </trkpt>
      <trkpt lat="37.2773478460" lon="-3.2057141885">
        <ele>973.95</ele>
        <time>2020-09-06T12:56:08Z</time>
      </trkpt>
      <trkpt lat="37.2775537893" lon="-3.2053680997">
        <ele>971.55</ele>
        <time>2020-09-06T12:56:12Z</time>
      </trkpt>
      <trkpt lat="37.2778456472" lon="-3.2049670257">
        <ele>968.18</ele>
        <time>2020-09-06T12:56:17Z</time>
      </trkpt>
      <trkpt lat="37.2781940829" lon="-3.2044939511">
        <ele>964.34</ele>
        <time>2020-09-06T12:56:22Z</time>
      </trkpt>
      <trkpt lat="37.2785509005" lon="-3.2041606866">
        <ele>960.49</ele>
        <time>2020-09-06T12:56:27Z</time>
      </trkpt>
      <trkpt lat="37.2786347196" lon="-3.2041067909">
        <ele>960.49</ele>
        <time>2020-09-06T12:56:28Z</time>
      </trkpt>
      <trkpt lat="37.2795661166" lon="-3.2038405817">
        <ele>958.57</ele>
        <time>2020-09-06T12:56:39Z</time>
      </trkpt>
      <trkpt lat="37.2796201799" lon="-3.2038252428">
        <ele>958.57</ele>
        <time>2020-09-06T12:56:40Z</time>
      </trkpt>
      <trkpt lat="37.2796596587" lon="-3.2037951518">
        <ele>958.57</ele>
        <time>2020-09-06T12:56:41Z</time>
      </trkpt>
      <trkpt lat="37.2796816193" lon="-3.2037512306">
        <ele>958.57</ele>
        <time>2020-09-06T12:56:42Z</time>
      </trkpt>
      <trkpt lat="37.2796889115" lon="-3.2037024479">
        <ele>958.57</ele>
        <time>2020-09-06T12:56:43Z</time>
      </trkpt>
      <trkpt lat="37.2796914261" lon="-3.2036536653">
        <ele>958.09</ele>
        <time>2020-09-06T12:56:44Z</time>
      </trkpt>
      <trkpt lat="37.2796932701" lon="-3.2036006078">
        <ele>958.09</ele>
        <time>2020-09-06T12:56:45Z</time>
      </trkpt>
      <trkpt lat="37.2796929348" lon="-3.2035529986">
        <ele>957.61</ele>
        <time>2020-09-06T12:56:46Z</time>
      </trkpt>
      <trkpt lat="37.2796910908" lon="-3.2035062276">
        <ele>957.13</ele>
        <time>2020-09-06T12:56:47Z</time>
      </trkpt>
      <trkpt lat="37.2796980478" lon="-3.2034028787">
        <ele>956.17</ele>
        <time>2020-09-06T12:56:49Z</time>
      </trkpt>
      <trkpt lat="37.2797233611" lon="-3.2032990269">
        <ele>955.69</ele>
        <time>2020-09-06T12:56:51Z</time>
      </trkpt>
      <trkpt lat="37.2797480877" lon="-3.2032593805">
        <ele>954.73</ele>
        <time>2020-09-06T12:56:52Z</time>
      </trkpt>
      <trkpt lat="37.2797785141" lon="-3.2032287866">
        <ele>954.73</ele>
        <time>2020-09-06T12:56:53Z</time>
      </trkpt>
      <trkpt lat="37.2798094433" lon="-3.2032013778">
        <ele>954.73</ele>
        <time>2020-09-06T12:56:54Z</time>
      </trkpt>
      <trkpt lat="37.2798326612" lon="-3.2031816803">
        <ele>954.73</ele>
        <time>2020-09-06T12:56:55Z</time>
      </trkpt>
      <trkpt lat="37.2798511852" lon="-3.2031676825">
        <ele>954.73</ele>
        <time>2020-09-06T12:56:56Z</time>
      </trkpt>
      <trkpt lat="37.2798676137" lon="-3.2031624857">
        <ele>954.73</ele>
        <time>2020-09-06T12:56:57Z</time>
      </trkpt>
      <trkpt lat="37.2798828688" lon="-3.2031546067">
        <ele>954.73</ele>
        <time>2020-09-06T12:56:58Z</time>
      </trkpt>
      <trkpt lat="37.2798972856" lon="-3.2031465601">
        <ele>954.73</ele>
        <time>2020-09-06T12:56:59Z</time>
      </trkpt>
      <trkpt lat="37.2799055837" lon="-3.2031436265">
        <ele>954.73</ele>
        <time>2020-09-06T12:57:00Z</time>
      </trkpt>
      <trkpt lat="37.2799086012" lon="-3.2031487394">
        <ele>955.69</ele>
        <time>2020-09-06T12:57:14Z</time>
      </trkpt>
      <trkpt lat="37.2799168993" lon="-3.2031651679">
        <ele>955.21</ele>
        <time>2020-09-06T12:57:34Z</time>
      </trkpt>
      <trkpt lat="37.2799155582" lon="-3.2031644974">
        <ele>954.25</ele>
        <time>2020-09-06T12:57:36Z</time>
      </trkpt>
      <trkpt lat="37.2799414583" lon="-3.2031622343">
        <ele>953.77</ele>
        <time>2020-09-06T12:58:03Z</time>
      </trkpt>
      <trkpt lat="37.2801517602" lon="-3.2031369209">
        <ele>954.73</ele>
        <time>2020-09-06T12:58:15Z</time>
      </trkpt>
      <trkpt lat="37.2802467272" lon="-3.2031193189">
        <ele>956.17</ele>
        <time>2020-09-06T12:58:21Z</time>
      </trkpt>
      <trkpt lat="37.2802659217" lon="-3.2031199895">
        <ele>956.17</ele>
        <time>2020-09-06T12:58:22Z</time>
      </trkpt>
      <trkpt lat="37.2803723719" lon="-3.2031142898">
        <ele>955.69</ele>
        <time>2020-09-06T12:58:25Z</time>
      </trkpt>
      <trkpt lat="37.2804167960" lon="-3.2031018846">
        <ele>954.25</ele>
        <time>2020-09-06T12:58:26Z</time>
      </trkpt>
      <trkpt lat="37.2804604657" lon="-3.2030790020">
        <ele>953.77</ele>
        <time>2020-09-06T12:58:27Z</time>
      </trkpt>
      <trkpt lat="37.2805014532" lon="-3.2030514255">
        <ele>953.77</ele>
        <time>2020-09-06T12:58:28Z</time>
      </trkpt>
      <trkpt lat="37.2805358190" lon="-3.2030163053">
        <ele>953.77</ele>
        <time>2020-09-06T12:58:29Z</time>
      </trkpt>
      <trkpt lat="37.2805628926" lon="-3.2029769104">
        <ele>953.77</ele>
        <time>2020-09-06T12:58:30Z</time>
      </trkpt>
      <trkpt lat="37.2805773932" lon="-3.2029326539">
        <ele>953.77</ele>
        <time>2020-09-06T12:58:31Z</time>
      </trkpt>
      <trkpt lat="37.2805798240" lon="-3.2028855477">
        <ele>953.77</ele>
        <time>2020-09-06T12:58:32Z</time>
      </trkpt>
      <trkpt lat="37.2805794887" lon="-3.2028393634">
        <ele>953.77</ele>
        <time>2020-09-06T12:58:33Z</time>
      </trkpt>
      <trkpt lat="37.2804585379" lon="-3.2024044264">
        <ele>955.21</ele>
        <time>2020-09-06T12:58:45Z</time>
      </trkpt>
      <trkpt lat="37.2803432867" lon="-3.2019403204">
        <ele>957.61</ele>
        <time>2020-09-06T12:58:59Z</time>
      </trkpt>
      <trkpt lat="37.2801646683" lon="-3.2014880329">
        <ele>960.49</ele>
        <time>2020-09-06T12:59:15Z</time>
      </trkpt>
      <trkpt lat="37.2800352518" lon="-3.2011499908">
        <ele>962.90</ele>
        <time>2020-09-06T12:59:30Z</time>
      </trkpt>
      <trkpt lat="37.2800282110" lon="-3.2011204865">
        <ele>962.90</ele>
        <time>2020-09-06T12:59:31Z</time>
      </trkpt>
      <trkpt lat="37.2800187394" lon="-3.2010920718">
        <ele>962.90</ele>
        <time>2020-09-06T12:59:32Z</time>
      </trkpt>
      <trkpt lat="37.2800107766" lon="-3.2010668423">
        <ele>963.38</ele>
        <time>2020-09-06T12:59:33Z</time>
      </trkpt>
      <trkpt lat="37.2800038196" lon="-3.2010406908">
        <ele>963.38</ele>
        <time>2020-09-06T12:59:34Z</time>
      </trkpt>
      <trkpt lat="37.2799971141" lon="-3.2010137010">
        <ele>963.38</ele>
        <time>2020-09-06T12:59:35Z</time>
      </trkpt>
      <trkpt lat="37.2799902409" lon="-3.2009867113">
        <ele>963.86</ele>
        <time>2020-09-06T12:59:36Z</time>
      </trkpt>
      <trkpt lat="37.2799458168" lon="-3.2006520219">
        <ele>967.22</ele>
        <time>2020-09-06T12:59:49Z</time>
      </trkpt>
      <trkpt lat="37.2799855471" lon="-3.2003630977">
        <ele>970.59</ele>
        <time>2020-09-06T13:00:04Z</time>
      </trkpt>
      <trkpt lat="37.2800712101" lon="-3.2002324238">
        <ele>973.47</ele>
        <time>2020-09-06T13:00:13Z</time>
      </trkpt>
      <trkpt lat="37.2800851241" lon="-3.2002235390">
        <ele>973.47</ele>
        <time>2020-09-06T13:00:14Z</time>
      </trkpt>
      <trkpt lat="37.2802162170" lon="-3.2001823001">
        <ele>976.84</ele>
        <time>2020-09-06T13:00:23Z</time>
      </trkpt>
      <trkpt lat="37.2803672589" lon="-3.2001313381">
        <ele>980.20</ele>
        <time>2020-09-06T13:00:33Z</time>
      </trkpt>
      <trkpt lat="37.2803945001" lon="-3.2001127303">
        <ele>980.68</ele>
        <time>2020-09-06T13:00:35Z</time>
      </trkpt>
      <trkpt lat="37.2804011218" lon="-3.2000978105">
        <ele>981.16</ele>
        <time>2020-09-06T13:00:36Z</time>
      </trkpt>
      <trkpt lat="37.2804058995" lon="-3.2000781968">
        <ele>981.16</ele>
        <time>2020-09-06T13:00:37Z</time>
      </trkpt>
      <trkpt lat="37.2804115154" lon="-3.2000594214">
        <ele>981.64</ele>
        <time>2020-09-06T13:00:38Z</time>
      </trkpt>
      <trkpt lat="37.2804162931" lon="-3.2000408135">
        <ele>982.12</ele>
        <time>2020-09-06T13:00:39Z</time>
      </trkpt>
      <trkpt lat="37.2804203164" lon="-3.2000230439">
        <ele>982.12</ele>
        <time>2020-09-06T13:00:40Z</time>
      </trkpt>
      <trkpt lat="37.2804247588" lon="-3.2000046875">
        <ele>982.60</ele>
        <time>2020-09-06T13:00:41Z</time>
      </trkpt>
      <trkpt lat="37.2804281954" lon="-3.1999870017">
        <ele>983.09</ele>
        <time>2020-09-06T13:00:42Z</time>
      </trkpt>
      <trkpt lat="37.2804329731" lon="-3.1999691483">
        <ele>983.09</ele>
        <time>2020-09-06T13:00:43Z</time>
      </trkpt>
      <trkpt lat="37.2804364935" lon="-3.1999503728">
        <ele>983.57</ele>
        <time>2020-09-06T13:00:44Z</time>
      </trkpt>
      <trkpt lat="37.2804352362" lon="-3.1997727603">
        <ele>986.45</ele>
        <time>2020-09-06T13:00:54Z</time>
      </trkpt>
      <trkpt lat="37.2804355714" lon="-3.1996772066">
        <ele>987.89</ele>
        <time>2020-09-06T13:00:59Z</time>
      </trkpt>
      <trkpt lat="37.2804419417" lon="-3.1996572576">
        <ele>988.37</ele>
        <time>2020-09-06T13:01:00Z</time>
      </trkpt>
      <trkpt lat="37.2804963402" lon="-3.1995052937">
        <ele>990.30</ele>
        <time>2020-09-06T13:01:09Z</time>
      </trkpt>
      <trkpt lat="37.2805447876" lon="-3.1992556807">
        <ele>993.18</ele>
        <time>2020-09-06T13:01:22Z</time>
      </trkpt>
      <trkpt lat="37.2805400100" lon="-3.1992373243">
        <ele>993.18</ele>
        <time>2020-09-06T13:01:23Z</time>
      </trkpt>
      <trkpt lat="37.2804664169" lon="-3.1991631445">
        <ele>995.10</ele>
        <time>2020-09-06T13:01:29Z</time>
      </trkpt>
      <trkpt lat="37.2804494854" lon="-3.1991695985">
        <ele>995.10</ele>
        <time>2020-09-06T13:01:30Z</time>
      </trkpt>
      <trkpt lat="37.2803073283" lon="-3.1992739532">
        <ele>998.47</ele>
        <time>2020-09-06T13:01:39Z</time>
      </trkpt>
      <trkpt lat="37.2801837791" lon="-3.1994621269">
        <ele>1001.83</ele>
        <time>2020-09-06T13:01:51Z</time>
      </trkpt>
      <trkpt lat="37.2801400255" lon="-3.1995102391">
        <ele>1002.79</ele>
        <time>2020-09-06T13:01:55Z</time>
      </trkpt>
      <trkpt lat="37.2801266145" lon="-3.1995128375">
        <ele>1003.27</ele>
        <time>2020-09-06T13:01:56Z</time>
      </trkpt>
      <trkpt lat="37.2801127844" lon="-3.1995104905">
        <ele>1003.27</ele>
        <time>2020-09-06T13:01:57Z</time>
      </trkpt>
      <trkpt lat="37.2801002953" lon="-3.1995021924">
        <ele>1002.79</ele>
        <time>2020-09-06T13:01:58Z</time>
      </trkpt>
      <trkpt lat="37.2800899856" lon="-3.1994908769">
        <ele>1003.75</ele>
        <time>2020-09-06T13:01:59Z</time>
      </trkpt>
      <trkpt lat="37.2800810169" lon="-3.1994812377">
        <ele>1003.75</ele>
        <time>2020-09-06T13:02:00Z</time>
      </trkpt>
      <trkpt lat="37.2800733894" lon="-3.1994683295">
        <ele>1004.23</ele>
        <time>2020-09-06T13:02:01Z</time>
      </trkpt>
      <trkpt lat="37.2800646722" lon="-3.1994525716">
        <ele>1004.72</ele>
        <time>2020-09-06T13:02:02Z</time>
      </trkpt>
      <trkpt lat="37.2801016364" lon="-3.1992658228">
        <ele>1007.60</ele>
        <time>2020-09-06T13:02:12Z</time>
      </trkpt>
      <trkpt lat="37.2801138740" lon="-3.1991840992">
        <ele>1008.08</ele>
        <time>2020-09-06T13:02:16Z</time>
      </trkpt>
      <trkpt lat="37.2801127005" lon="-3.1991618033">
        <ele>1009.04</ele>
        <time>2020-09-06T13:02:17Z</time>
      </trkpt>
      <trkpt lat="37.2801162209" lon="-3.1991374120">
        <ele>1009.04</ele>
        <time>2020-09-06T13:02:18Z</time>
      </trkpt>
      <trkpt lat="37.2801215854" lon="-3.1991143618">
        <ele>1009.52</ele>
        <time>2020-09-06T13:02:19Z</time>
      </trkpt>
      <trkpt lat="37.2801240999" lon="-3.1990903057">
        <ele>1009.52</ele>
        <time>2020-09-06T13:02:20Z</time>
      </trkpt>
      <trkpt lat="37.2801222559" lon="-3.1990702730">
        <ele>1010.00</ele>
        <time>2020-09-06T13:02:21Z</time>
      </trkpt>
      <trkpt lat="37.2801222559" lon="-3.1990501564">
        <ele>1010.48</ele>
        <time>2020-09-06T13:02:22Z</time>
      </trkpt>
      <trkpt lat="37.2801199090" lon="-3.1990309618">
        <ele>1010.48</ele>
        <time>2020-09-06T13:02:23Z</time>
      </trkpt>
      <trkpt lat="37.2801155504" lon="-3.1990124378">
        <ele>1010.48</ele>
        <time>2020-09-06T13:02:24Z</time>
      </trkpt>
      <trkpt lat="37.2799826972" lon="-3.1988715380">
        <ele>1013.85</ele>
        <time>2020-09-06T13:02:35Z</time>
      </trkpt>
      <trkpt lat="37.2799226828" lon="-3.1987702008">
        <ele>1014.81</ele>
        <time>2020-09-06T13:02:42Z</time>
      </trkpt>
      <trkpt lat="37.2799230181" lon="-3.1986365095">
        <ele>1016.73</ele>
        <time>2020-09-06T13:02:49Z</time>
      </trkpt>
      <trkpt lat="37.2799173184" lon="-3.1986172311">
        <ele>1016.73</ele>
        <time>2020-09-06T13:02:50Z</time>
      </trkpt>
      <trkpt lat="37.2799127921" lon="-3.1985992100">
        <ele>1017.69</ele>
        <time>2020-09-06T13:02:51Z</time>
      </trkpt>
      <trkpt lat="37.2799075954" lon="-3.1985817757">
        <ele>1017.69</ele>
        <time>2020-09-06T13:02:52Z</time>
      </trkpt>
      <trkpt lat="37.2799049132" lon="-3.1985634193">
        <ele>1017.69</ele>
        <time>2020-09-06T13:02:53Z</time>
      </trkpt>
      <trkpt lat="37.2799044102" lon="-3.1985432189">
        <ele>1017.69</ele>
        <time>2020-09-06T13:02:54Z</time>
      </trkpt>
      <trkpt lat="37.2798864730" lon="-3.1984304823">
        <ele>1019.13</ele>
        <time>2020-09-06T13:03:00Z</time>
      </trkpt>
      <trkpt lat="37.2798915859" lon="-3.1984094437">
        <ele>1019.62</ele>
        <time>2020-09-06T13:03:01Z</time>
      </trkpt>
      <trkpt lat="37.2798974533" lon="-3.1983884890">
        <ele>1020.10</ele>
        <time>2020-09-06T13:03:02Z</time>
      </trkpt>
      <trkpt lat="37.2799005546" lon="-3.1983682048">
        <ele>1020.10</ele>
        <time>2020-09-06T13:03:03Z</time>
      </trkpt>
      <trkpt lat="37.2799058352" lon="-3.1983492617">
        <ele>1020.58</ele>
        <time>2020-09-06T13:03:04Z</time>
      </trkpt>
      <trkpt lat="37.2799153067" lon="-3.1983319949">
        <ele>1020.58</ele>
        <time>2020-09-06T13:03:05Z</time>
      </trkpt>
      <trkpt lat="37.2799263708" lon="-3.1983178295">
        <ele>1020.58</ele>
        <time>2020-09-06T13:03:06Z</time>
      </trkpt>
      <trkpt lat="37.2800329048" lon="-3.1982325017">
        <ele>1023.94</ele>
        <time>2020-09-06T13:03:14Z</time>
      </trkpt>
      <trkpt lat="37.2801439650" lon="-3.1981052645">
        <ele>1026.83</ele>
        <time>2020-09-06T13:03:23Z</time>
      </trkpt>
      <trkpt lat="37.2801671829" lon="-3.1979591679">
        <ele>1028.27</ele>
        <time>2020-09-06T13:03:30Z</time>
      </trkpt>
      <trkpt lat="37.2801633272" lon="-3.1979401410">
        <ele>1028.27</ele>
        <time>2020-09-06T13:03:31Z</time>
      </trkpt>
      <trkpt lat="37.2801612318" lon="-3.1979222037">
        <ele>1028.75</ele>
        <time>2020-09-06T13:03:32Z</time>
      </trkpt>
      <trkpt lat="37.2800852917" lon="-3.1977694854">
        <ele>1030.19</ele>
        <time>2020-09-06T13:03:42Z</time>
      </trkpt>
      <trkpt lat="37.2800783347" lon="-3.1977531407">
        <ele>1030.67</ele>
        <time>2020-09-06T13:03:43Z</time>
      </trkpt>
      <trkpt lat="37.2800662648" lon="-3.1977398135">
        <ele>1031.15</ele>
        <time>2020-09-06T13:03:44Z</time>
      </trkpt>
      <trkpt lat="37.2800538596" lon="-3.1977300067">
        <ele>1031.15</ele>
        <time>2020-09-06T13:03:45Z</time>
      </trkpt>
      <trkpt lat="37.2800391074" lon="-3.1977218762">
        <ele>1031.15</ele>
        <time>2020-09-06T13:03:46Z</time>
      </trkpt>
      <trkpt lat="37.2800233494" lon="-3.1977140810">
        <ele>1031.15</ele>
        <time>2020-09-06T13:03:47Z</time>
      </trkpt>
      <trkpt lat="37.2797989659" lon="-3.1976312678">
        <ele>1034.52</ele>
        <time>2020-09-06T13:04:01Z</time>
      </trkpt>
      <trkpt lat="37.2796597425" lon="-3.1975989137">
        <ele>1037.88</ele>
        <time>2020-09-06T13:04:10Z</time>
      </trkpt>
      <trkpt lat="37.2796469182" lon="-3.1975893583">
        <ele>1037.88</ele>
        <time>2020-09-06T13:04:11Z</time>
      </trkpt>
      <trkpt lat="37.2796358541" lon="-3.1975760311">
        <ele>1037.88</ele>
        <time>2020-09-06T13:04:12Z</time>
      </trkpt>
      <trkpt lat="37.2796250414" lon="-3.1975624524">
        <ele>1038.36</ele>
        <time>2020-09-06T13:04:13Z</time>
      </trkpt>
      <trkpt lat="37.2796127200" lon="-3.1975497957">
        <ele>1038.84</ele>
        <time>2020-09-06T13:04:14Z</time>
      </trkpt>
      <trkpt lat="37.2795995604" lon="-3.1975382287">
        <ele>1038.84</ele>
        <time>2020-09-06T13:04:15Z</time>
      </trkpt>
      <trkpt lat="37.2795889154" lon="-3.1975245662">
        <ele>1039.80</ele>
        <time>2020-09-06T13:04:16Z</time>
      </trkpt>
      <trkpt lat="37.2795819584" lon="-3.1975073833">
        <ele>1039.80</ele>
        <time>2020-09-06T13:04:17Z</time>
      </trkpt>
      <trkpt lat="37.2795775160" lon="-3.1974889431">
        <ele>1040.28</ele>
        <time>2020-09-06T13:04:18Z</time>
      </trkpt>
      <trkpt lat="37.2795782704" lon="-3.1974694133">
        <ele>1040.76</ele>
        <time>2020-09-06T13:04:19Z</time>
      </trkpt>
      <trkpt lat="37.2795817070" lon="-3.1974482909">
        <ele>1040.76</ele>
        <time>2020-09-06T13:04:20Z</time>
      </trkpt>
      <trkpt lat="37.2795812041" lon="-3.1974278390">
        <ele>1041.73</ele>
        <time>2020-09-06T13:04:21Z</time>
      </trkpt>
      <trkpt lat="37.2795783542" lon="-3.1974099018">
        <ele>1041.73</ele>
        <time>2020-09-06T13:04:22Z</time>
      </trkpt>
      <trkpt lat="37.2795765940" lon="-3.1973923836">
        <ele>1041.25</ele>
        <time>2020-09-06T13:04:23Z</time>
      </trkpt>
      <trkpt lat="37.2795829643" lon="-3.1973751169">
        <ele>1042.21</ele>
        <time>2020-09-06T13:04:24Z</time>
      </trkpt>
      <trkpt lat="37.2795952018" lon="-3.1973625440">
        <ele>1042.21</ele>
        <time>2020-09-06T13:04:25Z</time>
      </trkpt>
      <trkpt lat="37.2796087805" lon="-3.1973521505">
        <ele>1043.17</ele>
        <time>2020-09-06T13:04:26Z</time>
      </trkpt>
      <trkpt lat="37.2796213534" lon="-3.1973415893">
        <ele>1043.17</ele>
        <time>2020-09-06T13:04:27Z</time>
      </trkpt>
      <trkpt lat="37.2796328366" lon="-3.1973292679">
        <ele>1043.65</ele>
        <time>2020-09-06T13:04:28Z</time>
      </trkpt>
      <trkpt lat="37.2796445712" lon="-3.1973159406">
        <ele>1043.65</ele>
        <time>2020-09-06T13:04:29Z</time>
      </trkpt>
      <trkpt lat="37.2796587367" lon="-3.1973031163">
        <ele>1044.13</ele>
        <time>2020-09-06T13:04:30Z</time>
      </trkpt>
      <trkpt lat="37.2796722315" lon="-3.1972954050">
        <ele>1044.61</ele>
        <time>2020-09-06T13:04:31Z</time>
      </trkpt>
      <trkpt lat="37.2796856426" lon="-3.1972866878">
        <ele>1044.61</ele>
        <time>2020-09-06T13:04:32Z</time>
      </trkpt>
      <trkpt lat="37.2797432262" lon="-3.1972430181">
        <ele>1045.57</ele>
        <time>2020-09-06T13:04:36Z</time>
      </trkpt>
      <trkpt lat="37.2797596548" lon="-3.1972352229">
        <ele>1046.05</ele>
        <time>2020-09-06T13:04:37Z</time>
      </trkpt>
      <trkpt lat="37.2797758318" lon="-3.1972268410">
        <ele>1046.05</ele>
        <time>2020-09-06T13:04:38Z</time>
      </trkpt>
      <trkpt lat="37.2797898296" lon="-3.1972130109">
        <ele>1047.01</ele>
        <time>2020-09-06T13:04:39Z</time>
      </trkpt>
      <trkpt lat="37.2797978763" lon="-3.1971939001">
        <ele>1047.01</ele>
        <time>2020-09-06T13:04:40Z</time>
      </trkpt>
      <trkpt lat="37.2798008099" lon="-3.1971746217">
        <ele>1047.01</ele>
        <time>2020-09-06T13:04:41Z</time>
      </trkpt>
      <trkpt lat="37.2797983792" lon="-3.1971573550">
        <ele>1047.49</ele>
        <time>2020-09-06T13:04:42Z</time>
      </trkpt>
      <trkpt lat="37.2797919251" lon="-3.1971409265">
        <ele>1047.49</ele>
        <time>2020-09-06T13:04:43Z</time>
      </trkpt>
      <trkpt lat="37.2797832917" lon="-3.1971242465">
        <ele>1048.45</ele>
        <time>2020-09-06T13:04:44Z</time>
      </trkpt>
      <trkpt lat="37.2797780950" lon="-3.1971058901">
        <ele>1048.45</ele>
        <time>2020-09-06T13:04:45Z</time>
      </trkpt>
      <trkpt lat="37.2797597386" lon="-3.1970498152">
        <ele>1049.42</ele>
        <time>2020-09-06T13:04:48Z</time>
      </trkpt>
      <trkpt lat="37.2797492612" lon="-3.1970347278">
        <ele>1049.42</ele>
        <time>2020-09-06T13:04:49Z</time>
      </trkpt>
      <trkpt lat="37.2797371913" lon="-3.1970210653">
        <ele>1049.42</ele>
        <time>2020-09-06T13:04:50Z</time>
      </trkpt>
      <trkpt lat="37.2797252890" lon="-3.1970080733">
        <ele>1049.90</ele>
        <time>2020-09-06T13:04:51Z</time>
      </trkpt>
      <trkpt lat="37.2797138058" lon="-3.1969980150">
        <ele>1049.90</ele>
        <time>2020-09-06T13:04:52Z</time>
      </trkpt>
      <trkpt lat="37.2795910109" lon="-3.1968654972">
        <ele>1053.26</ele>
        <time>2020-09-06T13:05:03Z</time>
      </trkpt>
      <trkpt lat="37.2795039229" lon="-3.1967154611">
        <ele>1055.18</ele>
        <time>2020-09-06T13:05:13Z</time>
      </trkpt>
      <trkpt lat="37.2794992290" lon="-3.1966971047">
        <ele>1055.18</ele>
        <time>2020-09-06T13:05:14Z</time>
      </trkpt>
      <trkpt lat="37.2794917691" lon="-3.1966804247">
        <ele>1055.67</ele>
        <time>2020-09-06T13:05:15Z</time>
      </trkpt>
      <trkpt lat="37.2794804536" lon="-3.1966658402">
        <ele>1055.67</ele>
        <time>2020-09-06T13:05:16Z</time>
      </trkpt>
      <trkpt lat="37.2794699762" lon="-3.1966525968">
        <ele>1055.67</ele>
        <time>2020-09-06T13:05:17Z</time>
      </trkpt>
      <trkpt lat="37.2793657891" lon="-3.1964870542">
        <ele>1059.03</ele>
        <time>2020-09-06T13:05:28Z</time>
      </trkpt>
      <trkpt lat="37.2793562338" lon="-3.1964733917">
        <ele>1059.51</ele>
        <time>2020-09-06T13:05:29Z</time>
      </trkpt>
      <trkpt lat="37.2793482710" lon="-3.1964565441">
        <ele>1059.51</ele>
        <time>2020-09-06T13:05:30Z</time>
      </trkpt>
      <trkpt lat="37.2793370392" lon="-3.1964392774">
        <ele>1059.99</ele>
        <time>2020-09-06T13:05:31Z</time>
      </trkpt>
      <trkpt lat="37.2793066967" lon="-3.1963765807">
        <ele>1060.95</ele>
        <time>2020-09-06T13:05:35Z</time>
      </trkpt>
      <trkpt lat="37.2793057747" lon="-3.1963590626">
        <ele>1060.95</ele>
        <time>2020-09-06T13:05:36Z</time>
      </trkpt>
      <trkpt lat="37.2793020867" lon="-3.1963420473">
        <ele>1061.43</ele>
        <time>2020-09-06T13:05:37Z</time>
      </trkpt>
      <trkpt lat="37.2792704031" lon="-3.1961324997">
        <ele>1064.80</ele>
        <time>2020-09-06T13:05:48Z</time>
      </trkpt>
      <trkpt lat="37.2792540584" lon="-3.1959561445">
        <ele>1068.16</ele>
        <time>2020-09-06T13:05:58Z</time>
      </trkpt>
      <trkpt lat="37.2792476881" lon="-3.1958841439">
        <ele>1069.60</ele>
        <time>2020-09-06T13:06:02Z</time>
      </trkpt>
      <trkpt lat="37.2792434134" lon="-3.1958680507">
        <ele>1069.60</ele>
        <time>2020-09-06T13:06:03Z</time>
      </trkpt>
      <trkpt lat="37.2792402282" lon="-3.1958517898">
        <ele>1070.08</ele>
        <time>2020-09-06T13:06:04Z</time>
      </trkpt>
      <trkpt lat="37.2792381328" lon="-3.1957472675">
        <ele>1072.01</ele>
        <time>2020-09-06T13:06:10Z</time>
      </trkpt>
      <trkpt lat="37.2792472690" lon="-3.1957268156">
        <ele>1072.01</ele>
        <time>2020-09-06T13:06:11Z</time>
      </trkpt>
      <trkpt lat="37.2792604286" lon="-3.1957078725">
        <ele>1073.45</ele>
        <time>2020-09-06T13:06:12Z</time>
      </trkpt>
      <trkpt lat="37.2792733368" lon="-3.1956870016">
        <ele>1073.45</ele>
        <time>2020-09-06T13:06:13Z</time>
      </trkpt>
      <trkpt lat="37.2792817187" lon="-3.1956662145">
        <ele>1073.45</ele>
        <time>2020-09-06T13:06:14Z</time>
      </trkpt>
      <trkpt lat="37.2793144081" lon="-3.1955538131">
        <ele>1074.41</ele>
        <time>2020-09-06T13:06:20Z</time>
      </trkpt>
      <trkpt lat="37.2793851513" lon="-3.1953958981">
        <ele>1075.85</ele>
        <time>2020-09-06T13:06:30Z</time>
      </trkpt>
      <trkpt lat="37.2793884203" lon="-3.1953795534">
        <ele>1075.85</ele>
        <time>2020-09-06T13:06:31Z</time>
      </trkpt>
      <trkpt lat="37.2793915216" lon="-3.1953641307">
        <ele>1075.85</ele>
        <time>2020-09-06T13:06:32Z</time>
      </trkpt>
      <trkpt lat="37.2793957125" lon="-3.1953164376">
        <ele>1076.81</ele>
        <time>2020-09-06T13:06:36Z</time>
      </trkpt>
      <trkpt lat="37.2794032563" lon="-3.1953062955">
        <ele>1076.33</ele>
        <time>2020-09-06T13:06:41Z</time>
      </trkpt>
      <trkpt lat="37.2794143204" lon="-3.1953043677">
        <ele>1076.33</ele>
        <time>2020-09-06T13:06:42Z</time>
      </trkpt>
      <trkpt lat="37.2794266418" lon="-3.1953132525">
        <ele>1076.33</ele>
        <time>2020-09-06T13:06:43Z</time>
      </trkpt>
      <trkpt lat="37.2794328444" lon="-3.1953357998">
        <ele>1076.33</ele>
        <time>2020-09-06T13:06:44Z</time>
      </trkpt>
      <trkpt lat="37.2794228699" lon="-3.1953887735">
        <ele>1076.33</ele>
        <time>2020-09-06T13:06:46Z</time>
      </trkpt>
      <trkpt lat="37.2794125602" lon="-3.1954145897">
        <ele>1076.33</ele>
        <time>2020-09-06T13:06:47Z</time>
      </trkpt>
      <trkpt lat="37.2794048488" lon="-3.1954347063">
        <ele>1076.33</ele>
        <time>2020-09-06T13:06:48Z</time>
      </trkpt>
      <trkpt lat="37.2793994006" lon="-3.1954631209">
        <ele>1076.33</ele>
        <time>2020-09-06T13:06:49Z</time>
      </trkpt>
      <trkpt lat="37.2793999873" lon="-3.1954918709">
        <ele>1076.33</ele>
        <time>2020-09-06T13:06:50Z</time>
      </trkpt>
      <trkpt lat="37.2794043459" lon="-3.1954915356">
        <ele>1076.33</ele>
        <time>2020-09-06T13:07:02Z</time>
      </trkpt>
      <trkpt lat="37.2794051841" lon="-3.1955039408">
        <ele>1075.85</ele>
        <time>2020-09-06T13:07:30Z</time>
      </trkpt>
      <trkpt lat="37.2794031724" lon="-3.1954991631">
        <ele>1075.85</ele>
        <time>2020-09-06T13:07:55Z</time>
      </trkpt>
      <trkpt lat="37.2793998197" lon="-3.1955139153">
        <ele>1075.37</ele>
        <time>2020-09-06T13:08:37Z</time>
      </trkpt>
      <trkpt lat="37.2794180084" lon="-3.1955070421">
        <ele>1075.37</ele>
        <time>2020-09-06T13:09:14Z</time>
      </trkpt>
      <trkpt lat="37.2794037592" lon="-3.1955009233">
        <ele>1074.89</ele>
        <time>2020-09-06T13:09:46Z</time>
      </trkpt>
      <trkpt lat="37.2793807089" lon="-3.1955001689">
        <ele>1074.89</ele>
        <time>2020-09-06T13:09:53Z</time>
      </trkpt>
      <trkpt lat="37.2793714050" lon="-3.1954823155">
        <ele>1074.89</ele>
        <time>2020-09-06T13:09:54Z</time>
      </trkpt>
      <trkpt lat="37.2793683037" lon="-3.1954628695">
        <ele>1074.89</ele>
        <time>2020-09-06T13:09:55Z</time>
      </trkpt>
      <trkpt lat="37.2793716565" lon="-3.1954473630">
        <ele>1074.89</ele>
        <time>2020-09-06T13:09:56Z</time>
      </trkpt>
      <trkpt lat="37.2793771047" lon="-3.1954274978">
        <ele>1074.89</ele>
        <time>2020-09-06T13:09:57Z</time>
      </trkpt>
      <trkpt lat="37.2793825530" lon="-3.1954081357">
        <ele>1074.89</ele>
        <time>2020-09-06T13:09:58Z</time>
      </trkpt>
      <trkpt lat="37.2793895099" lon="-3.1953896955">
        <ele>1074.89</ele>
        <time>2020-09-06T13:09:59Z</time>
      </trkpt>
      <trkpt lat="37.2793951258" lon="-3.1953702495">
        <ele>1074.89</ele>
        <time>2020-09-06T13:10:00Z</time>
      </trkpt>
      <trkpt lat="37.2793995682" lon="-3.1953485403">
        <ele>1074.89</ele>
        <time>2020-09-06T13:10:01Z</time>
      </trkpt>
      <trkpt lat="37.2794045974" lon="-3.1953282561">
        <ele>1074.89</ele>
        <time>2020-09-06T13:10:02Z</time>
      </trkpt>
      <trkpt lat="37.2794092074" lon="-3.1953070499">
        <ele>1074.89</ele>
        <time>2020-09-06T13:10:03Z</time>
      </trkpt>
      <trkpt lat="37.2794148233" lon="-3.1952856760">
        <ele>1074.89</ele>
        <time>2020-09-06T13:10:04Z</time>
      </trkpt>
      <trkpt lat="37.2794558108" lon="-3.1948659942">
        <ele>1072.97</ele>
        <time>2020-09-06T13:10:17Z</time>
      </trkpt>
      <trkpt lat="37.2794739157" lon="-3.1946639903">
        <ele>1072.01</ele>
        <time>2020-09-06T13:10:21Z</time>
      </trkpt>
      <trkpt lat="37.2795285657" lon="-3.1943826936">
        <ele>1071.53</ele>
        <time>2020-09-06T13:10:26Z</time>
      </trkpt>
      <trkpt lat="37.2795344330" lon="-3.1943338271">
        <ele>1071.53</ele>
        <time>2020-09-06T13:10:27Z</time>
      </trkpt>
      <trkpt lat="37.2795642726" lon="-3.1941792648">
        <ele>1071.05</ele>
        <time>2020-09-06T13:10:30Z</time>
      </trkpt>
      <trkpt lat="37.2796471696" lon="-3.1936444156">
        <ele>1069.60</ele>
        <time>2020-09-06T13:10:40Z</time>
      </trkpt>
      <trkpt lat="37.2796610836" lon="-3.1935962196">
        <ele>1069.60</ele>
        <time>2020-09-06T13:10:41Z</time>
      </trkpt>
      <trkpt lat="37.2796790209" lon="-3.1935368758">
        <ele>1069.60</ele>
        <time>2020-09-06T13:10:42Z</time>
      </trkpt>
      <trkpt lat="37.2799781710" lon="-3.1926299538">
        <ele>1069.12</ele>
        <time>2020-09-06T13:10:59Z</time>
      </trkpt>
      <trkpt lat="37.2802354954" lon="-3.1917904224">
        <ele>1068.16</ele>
        <time>2020-09-06T13:11:13Z</time>
      </trkpt>
      <trkpt lat="37.2802564502" lon="-3.1917292345">
        <ele>1068.16</ele>
        <time>2020-09-06T13:11:14Z</time>
      </trkpt>
      <trkpt lat="37.2806053888" lon="-3.1907208078">
        <ele>1067.68</ele>
        <time>2020-09-06T13:11:31Z</time>
      </trkpt>
      <trkpt lat="37.2809250746" lon="-3.1898031570">
        <ele>1067.20</ele>
        <time>2020-09-06T13:11:46Z</time>
      </trkpt>
      <trkpt lat="37.2813514620" lon="-3.1888599414">
        <ele>1067.20</ele>
        <time>2020-09-06T13:12:02Z</time>
      </trkpt>
      <trkpt lat="37.2818568069" lon="-3.1877619959">
        <ele>1066.72</ele>
        <time>2020-09-06T13:12:19Z</time>
      </trkpt>
      <trkpt lat="37.2820134647" lon="-3.1874632649">
        <ele>1066.72</ele>
        <time>2020-09-06T13:12:24Z</time>
      </trkpt>
      <trkpt lat="37.2821491677" lon="-3.1872528791">
        <ele>1065.28</ele>
        <time>2020-09-06T13:12:28Z</time>
      </trkpt>
      <trkpt lat="37.2821769118" lon="-3.1871853210">
        <ele>1064.80</ele>
        <time>2020-09-06T13:12:29Z</time>
      </trkpt>
      <trkpt lat="37.2823219188" lon="-3.1867452711">
        <ele>1061.43</ele>
        <time>2020-09-06T13:12:34Z</time>
      </trkpt>
      <trkpt lat="37.2823543567" lon="-3.1866482925">
        <ele>1061.43</ele>
        <time>2020-09-06T13:12:35Z</time>
      </trkpt>
      <trkpt lat="37.2824774031" lon="-3.1862569414">
        <ele>1060.47</ele>
        <time>2020-09-06T13:12:39Z</time>
      </trkpt>
      <trkpt lat="37.2825080808" lon="-3.1861760560">
        <ele>1060.47</ele>
        <time>2020-09-06T13:12:40Z</time>
      </trkpt>
      <trkpt lat="37.2828463744" lon="-3.1851506140">
        <ele>1059.51</ele>
        <time>2020-09-06T13:12:52Z</time>
      </trkpt>
      <trkpt lat="37.2834507935" lon="-3.1838742178">
        <ele>1059.03</ele>
        <time>2020-09-06T13:13:09Z</time>
      </trkpt>
      <trkpt lat="37.2839806974" lon="-3.1828637794">
        <ele>1057.11</ele>
        <time>2020-09-06T13:13:22Z</time>
      </trkpt>
      <trkpt lat="37.2839981318" lon="-3.1827875040">
        <ele>1056.63</ele>
        <time>2020-09-06T13:13:23Z</time>
      </trkpt>
      <trkpt lat="37.2840163205" lon="-3.1827041041">
        <ele>1056.63</ele>
        <time>2020-09-06T13:13:25Z</time>
      </trkpt>
      <trkpt lat="37.2840307374" lon="-3.1826797966">
        <ele>1056.63</ele>
        <time>2020-09-06T13:13:26Z</time>
      </trkpt>
      <trkpt lat="37.2840283066" lon="-3.1826628651">
        <ele>1056.63</ele>
        <time>2020-09-06T13:13:27Z</time>
      </trkpt>
      <trkpt lat="37.2840169910" lon="-3.1826626137">
        <ele>1056.63</ele>
        <time>2020-09-06T13:13:28Z</time>
      </trkpt>
      <trkpt lat="37.2840106208" lon="-3.1826810539">
        <ele>1056.63</ele>
        <time>2020-09-06T13:13:29Z</time>
      </trkpt>
      <trkpt lat="37.2840045858" lon="-3.1827403139">
        <ele>1056.63</ele>
        <time>2020-09-06T13:13:31Z</time>
      </trkpt>
      <trkpt lat="37.2839945275" lon="-3.1827776972">
        <ele>1056.63</ele>
        <time>2020-09-06T13:13:32Z</time>
      </trkpt>
      <trkpt lat="37.2839929350" lon="-3.1828963012">
        <ele>1056.63</ele>
        <time>2020-09-06T13:13:35Z</time>
      </trkpt>
      <trkpt lat="37.2840138897" lon="-3.1829348579">
        <ele>1056.15</ele>
        <time>2020-09-06T13:13:36Z</time>
      </trkpt>
      <trkpt lat="37.2840443999" lon="-3.1829630211">
        <ele>1056.15</ele>
        <time>2020-09-06T13:13:37Z</time>
      </trkpt>
      <trkpt lat="37.2840866446" lon="-3.1829906814">
        <ele>1056.15</ele>
        <time>2020-09-06T13:13:38Z</time>
      </trkpt>
      <trkpt lat="37.2841287218" lon="-3.1830209401">
        <ele>1056.15</ele>
        <time>2020-09-06T13:13:39Z</time>
      </trkpt>
      <trkpt lat="37.2841687035" lon="-3.1830494385">
        <ele>1056.15</ele>
        <time>2020-09-06T13:13:40Z</time>
      </trkpt>
      <trkpt lat="37.2844163049" lon="-3.1832453236">
        <ele>1054.70</ele>
        <time>2020-09-06T13:13:46Z</time>
      </trkpt>
      <trkpt lat="37.2844846174" lon="-3.1833020691">
        <ele>1054.70</ele>
        <time>2020-09-06T13:13:48Z</time>
      </trkpt>
      <trkpt lat="37.2845192347" lon="-3.1833481696">
        <ele>1054.22</ele>
        <time>2020-09-06T13:13:49Z</time>
      </trkpt>
      <trkpt lat="37.2845448833" lon="-3.1833932642">
        <ele>1053.74</ele>
        <time>2020-09-06T13:13:50Z</time>
      </trkpt>
      <trkpt lat="37.2845681850" lon="-3.1834474113">
        <ele>1052.78</ele>
        <time>2020-09-06T13:13:51Z</time>
      </trkpt>
      <trkpt lat="37.2845779918" lon="-3.1834935956">
        <ele>1052.30</ele>
        <time>2020-09-06T13:13:52Z</time>
      </trkpt>
      <trkpt lat="37.2845910676" lon="-3.1835483294">
        <ele>1052.30</ele>
        <time>2020-09-06T13:13:53Z</time>
      </trkpt>
      <trkpt lat="37.2846076638" lon="-3.1836016383">
        <ele>1051.34</ele>
        <time>2020-09-06T13:13:54Z</time>
      </trkpt>
      <trkpt lat="37.2846774012" lon="-3.1837841962">
        <ele>1048.94</ele>
        <time>2020-09-06T13:13:57Z</time>
      </trkpt>
      <trkpt lat="37.2846958414" lon="-3.1838391814">
        <ele>1048.45</ele>
        <time>2020-09-06T13:13:58Z</time>
      </trkpt>
      <trkpt lat="37.2847128566" lon="-3.1838957593">
        <ele>1047.97</ele>
        <time>2020-09-06T13:13:59Z</time>
      </trkpt>
      <trkpt lat="37.2847254295" lon="-3.1839525886">
        <ele>1047.01</ele>
        <time>2020-09-06T13:14:00Z</time>
      </trkpt>
      <trkpt lat="37.2847401816" lon="-3.1840260979">
        <ele>1047.01</ele>
        <time>2020-09-06T13:14:01Z</time>
      </trkpt>
      <trkpt lat="37.2847623937" lon="-3.1841134373">
        <ele>1045.09</ele>
        <time>2020-09-06T13:14:02Z</time>
      </trkpt>
      <trkpt lat="37.2847885452" lon="-3.1841861922">
        <ele>1044.61</ele>
        <time>2020-09-06T13:14:03Z</time>
      </trkpt>
      <trkpt lat="37.2848652396" lon="-3.1843376532">
        <ele>1043.17</ele>
        <time>2020-09-06T13:14:05Z</time>
      </trkpt>
      <trkpt lat="37.2849202249" lon="-3.1844034512">
        <ele>1042.69</ele>
        <time>2020-09-06T13:14:06Z</time>
      </trkpt>
      <trkpt lat="37.2849677503" lon="-3.1844447739">
        <ele>1042.21</ele>
        <time>2020-09-06T13:14:07Z</time>
      </trkpt>
      <trkpt lat="37.2850724403" lon="-3.1845239829">
        <ele>1041.25</ele>
        <time>2020-09-06T13:14:09Z</time>
      </trkpt>
      <trkpt lat="37.2852322832" lon="-3.1846140046">
        <ele>1040.28</ele>
        <time>2020-09-06T13:14:13Z</time>
      </trkpt>
      <trkpt lat="37.2853119113" lon="-3.1846266612">
        <ele>1039.80</ele>
        <time>2020-09-06T13:14:15Z</time>
      </trkpt>
      <trkpt lat="37.2856513783" lon="-3.1847663037">
        <ele>1037.40</ele>
        <time>2020-09-06T13:14:22Z</time>
      </trkpt>
      <trkpt lat="37.2856868338" lon="-3.1848031003">
        <ele>1037.40</ele>
        <time>2020-09-06T13:14:23Z</time>
      </trkpt>
      <trkpt lat="37.2858938668" lon="-3.1852283143">
        <ele>1033.55</ele>
        <time>2020-09-06T13:14:34Z</time>
      </trkpt>
      <trkpt lat="37.2859412245" lon="-3.1853157375">
        <ele>1033.55</ele>
        <time>2020-09-06T13:14:36Z</time>
      </trkpt>
      <trkpt lat="37.2859755903" lon="-3.1853531208">
        <ele>1032.59</ele>
        <time>2020-09-06T13:14:37Z</time>
      </trkpt>
      <trkpt lat="37.2860123869" lon="-3.1853838824">
        <ele>1032.59</ele>
        <time>2020-09-06T13:14:38Z</time>
      </trkpt>
      <trkpt lat="37.2860491835" lon="-3.1854144763">
        <ele>1032.11</ele>
        <time>2020-09-06T13:14:39Z</time>
      </trkpt>
      <trkpt lat="37.2860805318" lon="-3.1854503509">
        <ele>1032.11</ele>
        <time>2020-09-06T13:14:40Z</time>
      </trkpt>
      <trkpt lat="37.2861124668" lon="-3.1854842138">
        <ele>1031.63</ele>
        <time>2020-09-06T13:14:41Z</time>
      </trkpt>
      <trkpt lat="37.2861488443" lon="-3.1855252851">
        <ele>1031.63</ele>
        <time>2020-09-06T13:14:42Z</time>
      </trkpt>
      <trkpt lat="37.2861787677" lon="-3.1855668593">
        <ele>1031.15</ele>
        <time>2020-09-06T13:14:43Z</time>
      </trkpt>
      <trkpt lat="37.2862069309" lon="-3.1856151391">
        <ele>1030.67</ele>
        <time>2020-09-06T13:14:44Z</time>
      </trkpt>
      <trkpt lat="37.2862334177" lon="-3.1856627483">
        <ele>1030.67</ele>
        <time>2020-09-06T13:14:45Z</time>
      </trkpt>
      <trkpt lat="37.2862645146" lon="-3.1857050769">
        <ele>1030.67</ele>
        <time>2020-09-06T13:14:46Z</time>
      </trkpt>
      <trkpt lat="37.2864006367" lon="-3.1858555321">
        <ele>1029.23</ele>
        <time>2020-09-06T13:14:50Z</time>
      </trkpt>
      <trkpt lat="37.2864384390" lon="-3.1858857069">
        <ele>1028.27</ele>
        <time>2020-09-06T13:14:51Z</time>
      </trkpt>
      <trkpt lat="37.2865576297" lon="-3.1859734654">
        <ele>1027.31</ele>
        <time>2020-09-06T13:14:54Z</time>
      </trkpt>
      <trkpt lat="37.2866007965" lon="-3.1859919894">
        <ele>1027.31</ele>
        <time>2020-09-06T13:14:55Z</time>
      </trkpt>
      <trkpt lat="37.2866460588" lon="-3.1860024668">
        <ele>1027.31</ele>
        <time>2020-09-06T13:14:56Z</time>
      </trkpt>
      <trkpt lat="37.2867332306" lon="-3.1860046461">
        <ele>1026.83</ele>
        <time>2020-09-06T13:14:58Z</time>
      </trkpt>
      <trkpt lat="37.2867802531" lon="-3.1859914865">
        <ele>1026.83</ele>
        <time>2020-09-06T13:14:59Z</time>
      </trkpt>
      <trkpt lat="37.2868691012" lon="-3.1859599706">
        <ele>1025.86</ele>
        <time>2020-09-06T13:15:01Z</time>
      </trkpt>
      <trkpt lat="37.2869131062" lon="-3.1859432068">
        <ele>1024.90</ele>
        <time>2020-09-06T13:15:02Z</time>
      </trkpt>
      <trkpt lat="37.2869518306" lon="-3.1859343220">
        <ele>1024.90</ele>
        <time>2020-09-06T13:15:03Z</time>
      </trkpt>
      <trkpt lat="37.2869810835" lon="-3.1859335676">
        <ele>1024.42</ele>
        <time>2020-09-06T13:15:04Z</time>
      </trkpt>
      <trkpt lat="37.2869961709" lon="-3.1859350763">
        <ele>1023.94</ele>
        <time>2020-09-06T13:15:05Z</time>
      </trkpt>
      <trkpt lat="37.2870091628" lon="-3.1859136187">
        <ele>1023.46</ele>
        <time>2020-09-06T13:15:16Z</time>
      </trkpt>
      <trkpt lat="37.2870117612" lon="-3.1858826894">
        <ele>1023.46</ele>
        <time>2020-09-06T13:15:25Z</time>
      </trkpt>
      <trkpt lat="37.2870130185" lon="-3.1858560350">
        <ele>1023.46</ele>
        <time>2020-09-06T13:15:26Z</time>
      </trkpt>
      <trkpt lat="37.2870182153" lon="-3.1858252734">
        <ele>1023.46</ele>
        <time>2020-09-06T13:15:27Z</time>
      </trkpt>
      <trkpt lat="37.2872356419" lon="-3.1856002193">
        <ele>1025.86</ele>
        <time>2020-09-06T13:15:36Z</time>
      </trkpt>
      <trkpt lat="37.2873089835" lon="-3.1855826173">
        <ele>1026.34</ele>
        <time>2020-09-06T13:15:38Z</time>
      </trkpt>
      <trkpt lat="37.2873522341" lon="-3.1855765823">
        <ele>1026.34</ele>
        <time>2020-09-06T13:15:39Z</time>
      </trkpt>
      <trkpt lat="37.2874560859" lon="-3.1855723914">
        <ele>1026.34</ele>
        <time>2020-09-06T13:15:41Z</time>
      </trkpt>
      <trkpt lat="37.2875533160" lon="-3.1855762471">
        <ele>1026.34</ele>
        <time>2020-09-06T13:15:43Z</time>
      </trkpt>
      <trkpt lat="37.2876027692" lon="-3.1855811924">
        <ele>1026.34</ele>
        <time>2020-09-06T13:15:44Z</time>
      </trkpt>
      <trkpt lat="37.2876392305" lon="-3.1855736487">
        <ele>1026.34</ele>
        <time>2020-09-06T13:15:45Z</time>
      </trkpt>
      <trkpt lat="37.2876644600" lon="-3.1855557114">
        <ele>1026.34</ele>
        <time>2020-09-06T13:15:46Z</time>
      </trkpt>
      <trkpt lat="37.2876828164" lon="-3.1855312362">
        <ele>1026.34</ele>
        <time>2020-09-06T13:15:47Z</time>
      </trkpt>
      <trkpt lat="37.2876936290" lon="-3.1855068449">
        <ele>1026.83</ele>
        <time>2020-09-06T13:15:48Z</time>
      </trkpt>
      <trkpt lat="37.2877043579" lon="-3.1854784302">
        <ele>1026.83</ele>
        <time>2020-09-06T13:15:49Z</time>
      </trkpt>
      <trkpt lat="37.2877040226" lon="-3.1852184236">
        <ele>1029.23</ele>
        <time>2020-09-06T13:15:59Z</time>
      </trkpt>
      <trkpt lat="37.2877107281" lon="-3.1851981394">
        <ele>1029.71</ele>
        <time>2020-09-06T13:16:00Z</time>
      </trkpt>
      <trkpt lat="37.2877161764" lon="-3.1851807050">
        <ele>1030.19</ele>
        <time>2020-09-06T13:16:01Z</time>
      </trkpt>
      <trkpt lat="37.2877200320" lon="-3.1851606723">
        <ele>1030.19</ele>
        <time>2020-09-06T13:16:02Z</time>
      </trkpt>
      <trkpt lat="37.2877254803" lon="-3.1851410586">
        <ele>1030.19</ele>
        <time>2020-09-06T13:16:03Z</time>
      </trkpt>
      <trkpt lat="37.2878037672" lon="-3.1849289127">
        <ele>1034.04</ele>
        <time>2020-09-06T13:16:14Z</time>
      </trkpt>
      <trkpt lat="37.2878474370" lon="-3.1848398969">
        <ele>1035.00</ele>
        <time>2020-09-06T13:16:20Z</time>
      </trkpt>
      <trkpt lat="37.2878644522" lon="-3.1847930420">
        <ele>1036.44</ele>
        <time>2020-09-06T13:16:23Z</time>
      </trkpt>
      <trkpt lat="37.2878723312" lon="-3.1847796310">
        <ele>1036.44</ele>
        <time>2020-09-06T13:16:24Z</time>
      </trkpt>
      <trkpt lat="37.2878789529" lon="-3.1847627833">
        <ele>1036.44</ele>
        <time>2020-09-06T13:16:25Z</time>
      </trkpt>
      <trkpt lat="37.2878857423" lon="-3.1847451814">
        <ele>1036.92</ele>
        <time>2020-09-06T13:16:26Z</time>
      </trkpt>
      <trkpt lat="37.2878962196" lon="-3.1847267412">
        <ele>1036.92</ele>
        <time>2020-09-06T13:16:27Z</time>
      </trkpt>
      <trkpt lat="37.2879061941" lon="-3.1847111508">
        <ele>1037.40</ele>
        <time>2020-09-06T13:16:28Z</time>
      </trkpt>
      <trkpt lat="37.2879150789" lon="-3.1846958958">
        <ele>1037.40</ele>
        <time>2020-09-06T13:16:29Z</time>
      </trkpt>
      <trkpt lat="37.2879242990" lon="-3.1846787129">
        <ele>1037.88</ele>
        <time>2020-09-06T13:16:30Z</time>
      </trkpt>
      <trkpt lat="37.2879858222" lon="-3.1844951492">
        <ele>1041.73</ele>
        <time>2020-09-06T13:16:41Z</time>
      </trkpt>
      <trkpt lat="37.2880156618" lon="-3.1844236515">
        <ele>1043.17</ele>
        <time>2020-09-06T13:16:54Z</time>
      </trkpt>
      <trkpt lat="37.2880247142" lon="-3.1843143515">
        <ele>1045.09</ele>
        <time>2020-09-06T13:17:08Z</time>
      </trkpt>
      <trkpt lat="37.2880270611" lon="-3.1842831708">
        <ele>1045.57</ele>
        <time>2020-09-06T13:17:11Z</time>
      </trkpt>
      <trkpt lat="37.2880268935" lon="-3.1842690054">
        <ele>1045.57</ele>
        <time>2020-09-06T13:17:12Z</time>
      </trkpt>
      <trkpt lat="37.2880281508" lon="-3.1842550077">
        <ele>1045.57</ele>
        <time>2020-09-06T13:17:13Z</time>
      </trkpt>
      <trkpt lat="37.2880565654" lon="-3.1841431092">
        <ele>1047.01</ele>
        <time>2020-09-06T13:17:29Z</time>
      </trkpt>
      <trkpt lat="37.2880836390" lon="-3.1840001978">
        <ele>1047.49</ele>
        <time>2020-09-06T13:17:36Z</time>
      </trkpt>
      <trkpt lat="37.2880954575" lon="-3.1839769799">
        <ele>1048.45</ele>
        <time>2020-09-06T13:17:37Z</time>
      </trkpt>
      <trkpt lat="37.2881066892" lon="-3.1839528400">
        <ele>1048.45</ele>
        <time>2020-09-06T13:17:38Z</time>
      </trkpt>
      <trkpt lat="37.2881191783" lon="-3.1839332264">
        <ele>1048.45</ele>
        <time>2020-09-06T13:17:39Z</time>
      </trkpt>
      <trkpt lat="37.2881327569" lon="-3.1839165464">
        <ele>1048.45</ele>
        <time>2020-09-06T13:17:40Z</time>
      </trkpt>
      <trkpt lat="37.2881467547" lon="-3.1838978548">
        <ele>1048.94</ele>
        <time>2020-09-06T13:17:41Z</time>
      </trkpt>
      <trkpt lat="37.2882796917" lon="-3.1837155484">
        <ele>1049.90</ele>
        <time>2020-09-06T13:17:54Z</time>
      </trkpt>
      <trkpt lat="37.2882782668" lon="-3.1837019697">
        <ele>1049.90</ele>
        <time>2020-09-06T13:18:16Z</time>
      </trkpt>
      <trkpt lat="37.2882918455" lon="-3.1836842000">
        <ele>1049.90</ele>
        <time>2020-09-06T13:18:48Z</time>
      </trkpt>
      <trkpt lat="37.2882782668" lon="-3.1837078370">
        <ele>1049.90</ele>
        <time>2020-09-06T13:19:20Z</time>
      </trkpt>
      <trkpt lat="37.2883217689" lon="-3.1836306397">
        <ele>1049.42</ele>
        <time>2020-09-06T13:19:46Z</time>
      </trkpt>
      <trkpt lat="37.2885709628" lon="-3.1832004804">
        <ele>1049.42</ele>
        <time>2020-09-06T13:19:58Z</time>
      </trkpt>
      <trkpt lat="37.2886032332" lon="-3.1831637677">
        <ele>1049.42</ele>
        <time>2020-09-06T13:19:59Z</time>
      </trkpt>
      <trkpt lat="37.2887070850" lon="-3.1830626819">
        <ele>1049.42</ele>
        <time>2020-09-06T13:20:02Z</time>
      </trkpt>
      <trkpt lat="37.2888849489" lon="-3.1829539686">
        <ele>1047.49</ele>
        <time>2020-09-06T13:20:06Z</time>
      </trkpt>
      <trkpt lat="37.2889333125" lon="-3.1829367019">
        <ele>1047.49</ele>
        <time>2020-09-06T13:20:07Z</time>
      </trkpt>
      <trkpt lat="37.2890765592" lon="-3.1828889251">
        <ele>1047.01</ele>
        <time>2020-09-06T13:20:10Z</time>
      </trkpt>
      <trkpt lat="37.2891201451" lon="-3.1828633603">
        <ele>1047.01</ele>
        <time>2020-09-06T13:20:11Z</time>
      </trkpt>
      <trkpt lat="37.2891637310" lon="-3.1828397233">
        <ele>1047.01</ele>
        <time>2020-09-06T13:20:12Z</time>
      </trkpt>
      <trkpt lat="37.2893734463" lon="-3.1827148329">
        <ele>1046.53</ele>
        <time>2020-09-06T13:20:17Z</time>
      </trkpt>
      <trkpt lat="37.2896736860" lon="-3.1824729312">
        <ele>1046.05</ele>
        <time>2020-09-06T13:20:24Z</time>
      </trkpt>
      <trkpt lat="37.2899726685" lon="-3.1823430955">
        <ele>1045.57</ele>
        <time>2020-09-06T13:20:30Z</time>
      </trkpt>
      <trkpt lat="37.2900231276" lon="-3.1823232304">
        <ele>1045.57</ele>
        <time>2020-09-06T13:20:31Z</time>
      </trkpt>
      <trkpt lat="37.2903821245" lon="-3.1822384894">
        <ele>1045.57</ele>
        <time>2020-09-06T13:20:38Z</time>
      </trkpt>
      <trkpt lat="37.2904339246" lon="-3.1822198816">
        <ele>1045.57</ele>
        <time>2020-09-06T13:20:39Z</time>
      </trkpt>
      <trkpt lat="37.2905374411" lon="-3.1821657345">
        <ele>1045.09</ele>
        <time>2020-09-06T13:20:41Z</time>
      </trkpt>
      <trkpt lat="37.2906680312" lon="-3.1820468791">
        <ele>1045.09</ele>
        <time>2020-09-06T13:20:44Z</time>
      </trkpt>
      <trkpt lat="37.2907070909" lon="-3.1820025388">
        <ele>1045.09</ele>
        <time>2020-09-06T13:20:45Z</time>
      </trkpt>
      <trkpt lat="37.2907459829" lon="-3.1819620542">
        <ele>1045.09</ele>
        <time>2020-09-06T13:20:46Z</time>
      </trkpt>
      <trkpt lat="37.2914309520" lon="-3.1811516918">
        <ele>1044.13</ele>
        <time>2020-09-06T13:21:03Z</time>
      </trkpt>
      <trkpt lat="37.2914726101" lon="-3.1811079383">
        <ele>1044.13</ele>
        <time>2020-09-06T13:21:04Z</time>
      </trkpt>
      <trkpt lat="37.2915474605" lon="-3.1810147315">
        <ele>1044.13</ele>
        <time>2020-09-06T13:21:06Z</time>
      </trkpt>
      <trkpt lat="37.2915826645" lon="-3.1809663679">
        <ele>1044.13</ele>
        <time>2020-09-06T13:21:07Z</time>
      </trkpt>
      <trkpt lat="37.2916208860" lon="-3.1809191778">
        <ele>1043.65</ele>
        <time>2020-09-06T13:21:08Z</time>
      </trkpt>
      <trkpt lat="37.2922549769" lon="-3.1801960710">
        <ele>1043.17</ele>
        <time>2020-09-06T13:21:23Z</time>
      </trkpt>
      <trkpt lat="37.2928378545" lon="-3.1796108466">
        <ele>1042.21</ele>
        <time>2020-09-06T13:21:36Z</time>
      </trkpt>
      <trkpt lat="37.2929847054" lon="-3.1793703698">
        <ele>1042.21</ele>
        <time>2020-09-06T13:21:40Z</time>
      </trkpt>
      <trkpt lat="37.2930128686" lon="-3.1793043204">
        <ele>1042.21</ele>
        <time>2020-09-06T13:21:41Z</time>
      </trkpt>
      <trkpt lat="37.2930384334" lon="-3.1792268716">
        <ele>1042.21</ele>
        <time>2020-09-06T13:21:42Z</time>
      </trkpt>
      <trkpt lat="37.2930805944" lon="-3.1790764164">
        <ele>1042.21</ele>
        <time>2020-09-06T13:21:44Z</time>
      </trkpt>
      <trkpt lat="37.2930978611" lon="-3.1789956149">
        <ele>1041.73</ele>
        <time>2020-09-06T13:21:45Z</time>
      </trkpt>
      <trkpt lat="37.2934599593" lon="-3.1777581107">
        <ele>1040.76</ele>
        <time>2020-09-06T13:22:01Z</time>
      </trkpt>
      <trkpt lat="37.2936598677" lon="-3.1771916617">
        <ele>1039.32</ele>
        <time>2020-09-06T13:22:09Z</time>
      </trkpt>
      <trkpt lat="37.2943611816" lon="-3.1757972483">
        <ele>1038.36</ele>
        <time>2020-09-06T13:22:30Z</time>
      </trkpt>
      <trkpt lat="37.2944615129" lon="-3.1756121758">
        <ele>1038.36</ele>
        <time>2020-09-06T13:22:33Z</time>
      </trkpt>
      <trkpt lat="37.2945062723" lon="-3.1755694281">
        <ele>1038.36</ele>
        <time>2020-09-06T13:22:34Z</time>
      </trkpt>
      <trkpt lat="37.2945581563" lon="-3.1755466294">
        <ele>1037.88</ele>
        <time>2020-09-06T13:22:35Z</time>
      </trkpt>
      <trkpt lat="37.2946132254" lon="-3.1755472999">
        <ele>1037.88</ele>
        <time>2020-09-06T13:22:36Z</time>
      </trkpt>
      <trkpt lat="37.2946655285" lon="-3.1755626388">
        <ele>1037.88</ele>
        <time>2020-09-06T13:22:37Z</time>
      </trkpt>
      <trkpt lat="37.2947150655" lon="-3.1755882036">
        <ele>1037.88</ele>
        <time>2020-09-06T13:22:38Z</time>
      </trkpt>
      <trkpt lat="37.2947604954" lon="-3.1756257545">
        <ele>1037.88</ele>
        <time>2020-09-06T13:22:39Z</time>
      </trkpt>
      <trkpt lat="37.2947984654" lon="-3.1756744534">
        <ele>1037.88</ele>
        <time>2020-09-06T13:22:40Z</time>
      </trkpt>
      <trkpt lat="37.2948344238" lon="-3.1757270079">
        <ele>1036.92</ele>
        <time>2020-09-06T13:22:41Z</time>
      </trkpt>
      <trkpt lat="37.2949031554" lon="-3.1758361403">
        <ele>1036.92</ele>
        <time>2020-09-06T13:22:43Z</time>
      </trkpt>
      <trkpt lat="37.2949433047" lon="-3.1758848391">
        <ele>1036.92</ele>
        <time>2020-09-06T13:22:44Z</time>
      </trkpt>
      <trkpt lat="37.2954022139" lon="-3.1764634419">
        <ele>1036.44</ele>
        <time>2020-09-06T13:22:55Z</time>
      </trkpt>
      <trkpt lat="37.2956524137" lon="-3.1766983029">
        <ele>1036.44</ele>
        <time>2020-09-06T13:23:00Z</time>
      </trkpt>
      <trkpt lat="37.2957103327" lon="-3.1767315790">
        <ele>1036.44</ele>
        <time>2020-09-06T13:23:01Z</time>
      </trkpt>
      <trkpt lat="37.2957707662" lon="-3.1767592393">
        <ele>1036.44</ele>
        <time>2020-09-06T13:23:02Z</time>
      </trkpt>
      <trkpt lat="37.2962929588" lon="-3.1770024821">
        <ele>1036.44</ele>
        <time>2020-09-06T13:23:11Z</time>
      </trkpt>
      <trkpt lat="37.2963906080" lon="-3.1770566292">
        <ele>1037.88</ele>
        <time>2020-09-06T13:23:13Z</time>
      </trkpt>
      <trkpt lat="37.2964354511" lon="-3.1770788413">
        <ele>1038.36</ele>
        <time>2020-09-06T13:23:14Z</time>
      </trkpt>
      <trkpt lat="37.2967907600" lon="-3.1772873830">
        <ele>1039.80</ele>
        <time>2020-09-06T13:23:24Z</time>
      </trkpt>
      <trkpt lat="37.2968016565" lon="-3.1773389317">
        <ele>1039.80</ele>
        <time>2020-09-06T13:23:25Z</time>
      </trkpt>
      <trkpt lat="37.2968097031" lon="-3.1783872563">
        <ele>1040.28</ele>
        <time>2020-09-06T13:23:42Z</time>
      </trkpt>
      <trkpt lat="37.2967957053" lon="-3.1787890010">
        <ele>1040.28</ele>
        <time>2020-09-06T13:23:48Z</time>
      </trkpt>
      <trkpt lat="37.2968164086" lon="-3.1795687694">
        <ele>1040.76</ele>
        <time>2020-09-06T13:24:00Z</time>
      </trkpt>
      <trkpt lat="37.2968200129" lon="-3.1805595104">
        <ele>1041.25</ele>
        <time>2020-09-06T13:24:17Z</time>
      </trkpt>
      <trkpt lat="37.2968241200" lon="-3.1808603369">
        <ele>1041.25</ele>
        <time>2020-09-06T13:24:22Z</time>
      </trkpt>
      <trkpt lat="37.2968143132" lon="-3.1809163280">
        <ele>1041.25</ele>
        <time>2020-09-06T13:24:23Z</time>
      </trkpt>
      <trkpt lat="37.2967973817" lon="-3.1809683796">
        <ele>1041.25</ele>
        <time>2020-09-06T13:24:24Z</time>
      </trkpt>
      <trkpt lat="37.2967742477" lon="-3.1810131390">
        <ele>1041.25</ele>
        <time>2020-09-06T13:24:25Z</time>
      </trkpt>
      <trkpt lat="37.2967424802" lon="-3.1810530368">
        <ele>1041.25</ele>
        <time>2020-09-06T13:24:26Z</time>
      </trkpt>
      <trkpt lat="37.2967114672" lon="-3.1810836308">
        <ele>1041.25</ele>
        <time>2020-09-06T13:24:27Z</time>
      </trkpt>
      <trkpt lat="37.2966791131" lon="-3.1811091118">
        <ele>1041.25</ele>
        <time>2020-09-06T13:24:28Z</time>
      </trkpt>
      <trkpt lat="37.2966469266" lon="-3.1811299827">
        <ele>1041.25</ele>
        <time>2020-09-06T13:24:29Z</time>
      </trkpt>
      <trkpt lat="37.2965849005" lon="-3.1814550329">
        <ele>1041.25</ele>
        <time>2020-09-06T13:24:37Z</time>
      </trkpt>
      <trkpt lat="37.2967257164" lon="-3.1816456374">
        <ele>1037.88</ele>
        <time>2020-09-06T13:24:43Z</time>
      </trkpt>
      <trkpt lat="37.2968997248" lon="-3.1817285344">
        <ele>1034.52</ele>
        <time>2020-09-06T13:24:46Z</time>
      </trkpt>
      <trkpt lat="37.2969859745" lon="-3.1817489862">
        <ele>1032.59</ele>
        <time>2020-09-06T13:24:47Z</time>
      </trkpt>
      <trkpt lat="37.2971407883" lon="-3.1817752216">
        <ele>1032.11</ele>
        <time>2020-09-06T13:24:49Z</time>
      </trkpt>
      <trkpt lat="37.2972848732" lon="-3.1817968469">
        <ele>1031.15</ele>
        <time>2020-09-06T13:24:51Z</time>
      </trkpt>
      <trkpt lat="37.2973541915" lon="-3.1817764789">
        <ele>1030.19</ele>
        <time>2020-09-06T13:24:52Z</time>
      </trkpt>
      <trkpt lat="37.2974203248" lon="-3.1817364134">
        <ele>1029.71</ele>
        <time>2020-09-06T13:24:53Z</time>
      </trkpt>
      <trkpt lat="37.2974836081" lon="-3.1816938333">
        <ele>1029.71</ele>
        <time>2020-09-06T13:24:54Z</time>
      </trkpt>
      <trkpt lat="37.2975521721" lon="-3.1816681009">
        <ele>1029.23</ele>
        <time>2020-09-06T13:24:55Z</time>
      </trkpt>
      <trkpt lat="37.2976241726" lon="-3.1816643290">
        <ele>1028.75</ele>
        <time>2020-09-06T13:24:56Z</time>
      </trkpt>
      <trkpt lat="37.2977027949" lon="-3.1816706154">
        <ele>1028.75</ele>
        <time>2020-09-06T13:24:57Z</time>
      </trkpt>
      <trkpt lat="37.2977787349" lon="-3.1816630717">
        <ele>1028.75</ele>
        <time>2020-09-06T13:24:58Z</time>
      </trkpt>
      <trkpt lat="37.2978525795" lon="-3.1816402730">
        <ele>1027.79</ele>
        <time>2020-09-06T13:24:59Z</time>
      </trkpt>
      <trkpt lat="37.2979239095" lon="-3.1816028059">
        <ele>1027.31</ele>
        <time>2020-09-06T13:25:00Z</time>
      </trkpt>
      <trkpt lat="37.2979867738" lon="-3.1815490779">
        <ele>1027.31</ele>
        <time>2020-09-06T13:25:01Z</time>
      </trkpt>
      <trkpt lat="37.2980414238" lon="-3.1814845372">
        <ele>1027.31</ele>
        <time>2020-09-06T13:25:02Z</time>
      </trkpt>
      <trkpt lat="37.2980916314" lon="-3.1814153865">
        <ele>1026.83</ele>
        <time>2020-09-06T13:25:03Z</time>
      </trkpt>
      <trkpt lat="37.2981435992" lon="-3.1813491695">
        <ele>1026.83</ele>
        <time>2020-09-06T13:25:04Z</time>
      </trkpt>
      <trkpt lat="37.2982024401" lon="-3.1812899932">
        <ele>1026.83</ele>
        <time>2020-09-06T13:25:05Z</time>
      </trkpt>
      <trkpt lat="37.2982597724" lon="-3.1812429707">
        <ele>1026.83</ele>
        <time>2020-09-06T13:25:06Z</time>
      </trkpt>
      <trkpt lat="37.2983209603" lon="-3.1811982952">
        <ele>1025.86</ele>
        <time>2020-09-06T13:25:07Z</time>
      </trkpt>
      <trkpt lat="37.2983839083" lon="-3.1811563019">
        <ele>1025.86</ele>
        <time>2020-09-06T13:25:08Z</time>
      </trkpt>
      <trkpt lat="37.2985763568" lon="-3.1810023263">
        <ele>1024.42</ele>
        <time>2020-09-06T13:25:11Z</time>
      </trkpt>
      <trkpt lat="37.2987439111" lon="-3.1808051839">
        <ele>1024.42</ele>
        <time>2020-09-06T13:25:14Z</time>
      </trkpt>
      <trkpt lat="37.2988037579" lon="-3.1807527132">
        <ele>1024.42</ele>
        <time>2020-09-06T13:25:15Z</time>
      </trkpt>
      <trkpt lat="37.2988667060" lon="-3.1807117257">
        <ele>1024.42</ele>
        <time>2020-09-06T13:25:16Z</time>
      </trkpt>
      <trkpt lat="37.2989341803" lon="-3.1806796230">
        <ele>1024.42</ele>
        <time>2020-09-06T13:25:17Z</time>
      </trkpt>
      <trkpt lat="37.2990060132" lon="-3.1806562375">
        <ele>1023.46</ele>
        <time>2020-09-06T13:25:18Z</time>
      </trkpt>
      <trkpt lat="37.2990859766" lon="-3.1806360371">
        <ele>1023.46</ele>
        <time>2020-09-06T13:25:19Z</time>
      </trkpt>
      <trkpt lat="37.2993783373" lon="-3.1805792917">
        <ele>1022.02</ele>
        <time>2020-09-06T13:25:23Z</time>
      </trkpt>
      <trkpt lat="37.2995305527" lon="-3.1805766094">
        <ele>1021.54</ele>
        <time>2020-09-06T13:25:25Z</time>
      </trkpt>
      <trkpt lat="37.2996097617" lon="-3.1805538107">
        <ele>1021.54</ele>
        <time>2020-09-06T13:25:26Z</time>
      </trkpt>
      <trkpt lat="37.2996767331" lon="-3.1805142481">
        <ele>1021.54</ele>
        <time>2020-09-06T13:25:27Z</time>
      </trkpt>
      <trkpt lat="37.2997383401" lon="-3.1804544013">
        <ele>1020.58</ele>
        <time>2020-09-06T13:25:28Z</time>
      </trkpt>
      <trkpt lat="37.2997991089" lon="-3.1803920399">
        <ele>1020.10</ele>
        <time>2020-09-06T13:25:29Z</time>
      </trkpt>
      <trkpt lat="37.2998619732" lon="-3.1803358812">
        <ele>1020.10</ele>
        <time>2020-09-06T13:25:30Z</time>
      </trkpt>
      <trkpt lat="37.3001032881" lon="-3.1801334582">
        <ele>1018.65</ele>
        <time>2020-09-06T13:25:34Z</time>
      </trkpt>
      <trkpt lat="37.3001688346" lon="-3.1801131740">
        <ele>1018.17</ele>
        <time>2020-09-06T13:25:35Z</time>
      </trkpt>
      <trkpt lat="37.3002364766" lon="-3.1801012717">
        <ele>1017.69</ele>
        <time>2020-09-06T13:25:36Z</time>
      </trkpt>
      <trkpt lat="37.3010625970" lon="-3.1797785684">
        <ele>1015.77</ele>
        <time>2020-09-06T13:25:49Z</time>
      </trkpt>
      <trkpt lat="37.3013838753" lon="-3.1795971841">
        <ele>1014.81</ele>
        <time>2020-09-06T13:25:54Z</time>
      </trkpt>
      <trkpt lat="37.3014541157" lon="-3.1795792468">
        <ele>1014.81</ele>
        <time>2020-09-06T13:25:55Z</time>
      </trkpt>
      <trkpt lat="37.3015238531" lon="-3.1795836892">
        <ele>1014.81</ele>
        <time>2020-09-06T13:25:56Z</time>
      </trkpt>
      <trkpt lat="37.3015894834" lon="-3.1796100922">
        <ele>1014.81</ele>
        <time>2020-09-06T13:25:57Z</time>
      </trkpt>
      <trkpt lat="37.3016479053" lon="-3.1796591263">
        <ele>1013.85</ele>
        <time>2020-09-06T13:25:58Z</time>
      </trkpt>
      <trkpt lat="37.3016996216" lon="-3.1797220744">
        <ele>1013.85</ele>
        <time>2020-09-06T13:25:59Z</time>
      </trkpt>
      <trkpt lat="37.3017577920" lon="-3.1797737069">
        <ele>1012.89</ele>
        <time>2020-09-06T13:26:00Z</time>
      </trkpt>
      <trkpt lat="37.3018261883" lon="-3.1798003614">
        <ele>1012.89</ele>
        <time>2020-09-06T13:26:01Z</time>
      </trkpt>
      <trkpt lat="37.3018976022" lon="-3.1798012834">
        <ele>1012.41</ele>
        <time>2020-09-06T13:26:02Z</time>
      </trkpt>
      <trkpt lat="37.3019669205" lon="-3.1797866151">
        <ele>1012.41</ele>
        <time>2020-09-06T13:26:03Z</time>
      </trkpt>
      <trkpt lat="37.3020360712" lon="-3.1797766406">
        <ele>1012.41</ele>
        <time>2020-09-06T13:26:04Z</time>
      </trkpt>
      <trkpt lat="37.3021053057" lon="-3.1797795743">
        <ele>1011.93</ele>
        <time>2020-09-06T13:26:05Z</time>
      </trkpt>
      <trkpt lat="37.3021727800" lon="-3.1797974277">
        <ele>1011.93</ele>
        <time>2020-09-06T13:26:06Z</time>
      </trkpt>
      <trkpt lat="37.3022408411" lon="-3.1798110902">
        <ele>1010.96</ele>
        <time>2020-09-06T13:26:07Z</time>
      </trkpt>
      <trkpt lat="37.3023089860" lon="-3.1798011158">
        <ele>1010.96</ele>
        <time>2020-09-06T13:26:08Z</time>
      </trkpt>
      <trkpt lat="37.3023720179" lon="-3.1797694322">
        <ele>1010.96</ele>
        <time>2020-09-06T13:26:09Z</time>
      </trkpt>
      <trkpt lat="37.3024316132" lon="-3.1797269359">
        <ele>1010.96</ele>
        <time>2020-09-06T13:26:10Z</time>
      </trkpt>
      <trkpt lat="37.3025540728" lon="-3.1796449609">
        <ele>1009.52</ele>
        <time>2020-09-06T13:26:12Z</time>
      </trkpt>
      <trkpt lat="37.3026764486" lon="-3.1795564480">
        <ele>1009.52</ele>
        <time>2020-09-06T13:26:14Z</time>
      </trkpt>
      <trkpt lat="37.3027305119" lon="-3.1794965174">
        <ele>1009.04</ele>
        <time>2020-09-06T13:26:15Z</time>
      </trkpt>
      <trkpt lat="37.3027768638" lon="-3.1794266123">
        <ele>1009.04</ele>
        <time>2020-09-06T13:26:16Z</time>
      </trkpt>
      <trkpt lat="37.3028599285" lon="-3.1792909093">
        <ele>1008.08</ele>
        <time>2020-09-06T13:26:18Z</time>
      </trkpt>
      <trkpt lat="37.3029096331" lon="-3.1792359240">
        <ele>1008.08</ele>
        <time>2020-09-06T13:26:19Z</time>
      </trkpt>
      <trkpt lat="37.3029679712" lon="-3.1791941822">
        <ele>1008.08</ele>
        <time>2020-09-06T13:26:20Z</time>
      </trkpt>
      <trkpt lat="37.3030337691" lon="-3.1791740656">
        <ele>1007.12</ele>
        <time>2020-09-06T13:26:21Z</time>
      </trkpt>
      <trkpt lat="37.3031035066" lon="-3.1791789271">
        <ele>1007.60</ele>
        <time>2020-09-06T13:26:22Z</time>
      </trkpt>
      <trkpt lat="37.3031707294" lon="-3.1792039890">
        <ele>1007.12</ele>
        <time>2020-09-06T13:26:23Z</time>
      </trkpt>
      <trkpt lat="37.3032377008" lon="-3.1792303920">
        <ele>1007.12</ele>
        <time>2020-09-06T13:26:24Z</time>
      </trkpt>
      <trkpt lat="37.3033083603" lon="-3.1792422943">
        <ele>1006.16</ele>
        <time>2020-09-06T13:26:25Z</time>
      </trkpt>
      <trkpt lat="37.3033801094" lon="-3.1792388577">
        <ele>1005.68</ele>
        <time>2020-09-06T13:26:26Z</time>
      </trkpt>
      <trkpt lat="37.3034579773" lon="-3.1792256143">
        <ele>1005.68</ele>
        <time>2020-09-06T13:26:27Z</time>
      </trkpt>
      <trkpt lat="37.3035935964" lon="-3.1791937631">
        <ele>1005.68</ele>
        <time>2020-09-06T13:26:29Z</time>
      </trkpt>
      <trkpt lat="37.3036554549" lon="-3.1791551225">
        <ele>1005.20</ele>
        <time>2020-09-06T13:26:30Z</time>
      </trkpt>
      <trkpt lat="37.3037043214" lon="-3.1790956110">
        <ele>1005.20</ele>
        <time>2020-09-06T13:26:31Z</time>
      </trkpt>
      <trkpt lat="37.3037447222" lon="-3.1790237781">
        <ele>1004.23</ele>
        <time>2020-09-06T13:26:32Z</time>
      </trkpt>
      <trkpt lat="37.3037820216" lon="-3.1789480895">
        <ele>1004.23</ele>
        <time>2020-09-06T13:26:33Z</time>
      </trkpt>
      <trkpt lat="37.3039957602" lon="-3.1785888411">
        <ele>1002.31</ele>
        <time>2020-09-06T13:26:38Z</time>
      </trkpt>
      <trkpt lat="37.3040521704" lon="-3.1785318442">
        <ele>1002.31</ele>
        <time>2020-09-06T13:26:39Z</time>
      </trkpt>
      <trkpt lat="37.3041131068" lon="-3.1784829777">
        <ele>1001.35</ele>
        <time>2020-09-06T13:26:40Z</time>
      </trkpt>
      <trkpt lat="37.3041770607" lon="-3.1784391403">
        <ele>1001.35</ele>
        <time>2020-09-06T13:26:41Z</time>
      </trkpt>
      <trkpt lat="37.3042435292" lon="-3.1784010865">
        <ele>1001.35</ele>
        <time>2020-09-06T13:26:42Z</time>
      </trkpt>
      <trkpt lat="37.3046611995" lon="-3.1782522239">
        <ele>999.43</ele>
        <time>2020-09-06T13:26:48Z</time>
      </trkpt>
      <trkpt lat="37.3051771056" lon="-3.1782221328">
        <ele>997.99</ele>
        <time>2020-09-06T13:26:55Z</time>
      </trkpt>
      <trkpt lat="37.3052509502" lon="-3.1782031059">
        <ele>997.99</ele>
        <time>2020-09-06T13:26:56Z</time>
      </trkpt>
      <trkpt lat="37.3053279798" lon="-3.1781738531">
        <ele>996.54</ele>
        <time>2020-09-06T13:26:57Z</time>
      </trkpt>
      <trkpt lat="37.3053999804" lon="-3.1781363860">
        <ele>997.02</ele>
        <time>2020-09-06T13:26:58Z</time>
      </trkpt>
      <trkpt lat="37.3054711428" lon="-3.1780894473">
        <ele>997.02</ele>
        <time>2020-09-06T13:26:59Z</time>
      </trkpt>
      <trkpt lat="37.3055386171" lon="-3.1780345459">
        <ele>996.06</ele>
        <time>2020-09-06T13:27:00Z</time>
      </trkpt>
      <trkpt lat="37.3056027386" lon="-3.1779714301">
        <ele>996.06</ele>
        <time>2020-09-06T13:27:01Z</time>
      </trkpt>
      <trkpt lat="37.3056604899" lon="-3.1779006869">
        <ele>995.58</ele>
        <time>2020-09-06T13:27:02Z</time>
      </trkpt>
      <trkpt lat="37.3057112005" lon="-3.1778252497">
        <ele>995.58</ele>
        <time>2020-09-06T13:27:03Z</time>
      </trkpt>
      <trkpt lat="37.3057592288" lon="-3.1777446996">
        <ele>995.10</ele>
        <time>2020-09-06T13:27:04Z</time>
      </trkpt>
      <trkpt lat="37.3058636673" lon="-3.1775858626">
        <ele>994.14</ele>
        <time>2020-09-06T13:27:06Z</time>
      </trkpt>
      <trkpt lat="37.3059249390" lon="-3.1775224954">
        <ele>994.14</ele>
        <time>2020-09-06T13:27:07Z</time>
      </trkpt>
      <trkpt lat="37.3059904017" lon="-3.1774679292">
        <ele>993.18</ele>
        <time>2020-09-06T13:27:08Z</time>
      </trkpt>
      <trkpt lat="37.3061260208" lon="-3.1773824338">
        <ele>993.18</ele>
        <time>2020-09-06T13:27:10Z</time>
      </trkpt>
      <trkpt lat="37.3065362312" lon="-3.1771462318">
        <ele>991.26</ele>
        <time>2020-09-06T13:27:16Z</time>
      </trkpt>
      <trkpt lat="37.3065963294" lon="-3.1770885643">
        <ele>990.78</ele>
        <time>2020-09-06T13:27:17Z</time>
      </trkpt>
      <trkpt lat="37.3066557571" lon="-3.1770195812">
        <ele>990.30</ele>
        <time>2020-09-06T13:27:18Z</time>
      </trkpt>
      <trkpt lat="37.3068335373" lon="-3.1768251210">
        <ele>989.81</ele>
        <time>2020-09-06T13:27:21Z</time>
      </trkpt>
      <trkpt lat="37.3069041129" lon="-3.1767761707">
        <ele>988.85</ele>
        <time>2020-09-06T13:27:22Z</time>
      </trkpt>
      <trkpt lat="37.3069805559" lon="-3.1767371949">
        <ele>988.85</ele>
        <time>2020-09-06T13:27:23Z</time>
      </trkpt>
      <trkpt lat="37.3070652969" lon="-3.1767097861">
        <ele>988.37</ele>
        <time>2020-09-06T13:27:24Z</time>
      </trkpt>
      <trkpt lat="37.3071484454" lon="-3.1766893342">
        <ele>987.89</ele>
        <time>2020-09-06T13:27:25Z</time>
      </trkpt>
      <trkpt lat="37.3072340246" lon="-3.1766755879">
        <ele>987.89</ele>
        <time>2020-09-06T13:27:26Z</time>
      </trkpt>
      <trkpt lat="37.3073206097" lon="-3.1766691338">
        <ele>986.93</ele>
        <time>2020-09-06T13:27:27Z</time>
      </trkpt>
      <trkpt lat="37.3074076138" lon="-3.1766686309">
        <ele>986.93</ele>
        <time>2020-09-06T13:27:28Z</time>
      </trkpt>
      <trkpt lat="37.3080075905" lon="-3.1767639332">
        <ele>984.05</ele>
        <time>2020-09-06T13:27:35Z</time>
      </trkpt>
      <trkpt lat="37.3082411941" lon="-3.1768521946">
        <ele>983.09</ele>
        <time>2020-09-06T13:27:38Z</time>
      </trkpt>
      <trkpt lat="37.3085569404" lon="-3.1769531127">
        <ele>981.64</ele>
        <time>2020-09-06T13:27:42Z</time>
      </trkpt>
      <trkpt lat="37.3086339701" lon="-3.1769516878">
        <ele>980.20</ele>
        <time>2020-09-06T13:27:43Z</time>
      </trkpt>
      <trkpt lat="37.3087125923" lon="-3.1769388635">
        <ele>980.20</ele>
        <time>2020-09-06T13:27:44Z</time>
      </trkpt>
      <trkpt lat="37.3089589365" lon="-3.1768920925">
        <ele>979.24</ele>
        <time>2020-09-06T13:27:47Z</time>
      </trkpt>
      <trkpt lat="37.3090410791" lon="-3.1768929306">
        <ele>979.24</ele>
        <time>2020-09-06T13:27:48Z</time>
      </trkpt>
      <trkpt lat="37.3092087172" lon="-3.1768919248">
        <ele>978.28</ele>
        <time>2020-09-06T13:27:50Z</time>
      </trkpt>
      <trkpt lat="37.3092916980" lon="-3.1768700480">
        <ele>977.32</ele>
        <time>2020-09-06T13:27:51Z</time>
      </trkpt>
      <trkpt lat="37.3093777802" lon="-3.1768331677">
        <ele>977.32</ele>
        <time>2020-09-06T13:27:52Z</time>
      </trkpt>
      <trkpt lat="37.3094584141" lon="-3.1767891627">
        <ele>977.32</ele>
        <time>2020-09-06T13:27:53Z</time>
      </trkpt>
      <trkpt lat="37.3095358629" lon="-3.1767441519">
        <ele>975.88</ele>
        <time>2020-09-06T13:27:54Z</time>
      </trkpt>
      <trkpt lat="37.3101944290" lon="-3.1763739232">
        <ele>972.51</ele>
        <time>2020-09-06T13:28:02Z</time>
      </trkpt>
      <trkpt lat="37.3102834448" lon="-3.1763521302">
        <ele>972.51</ele>
        <time>2020-09-06T13:28:03Z</time>
      </trkpt>
      <trkpt lat="37.3103786632" lon="-3.1763450895">
        <ele>972.03</ele>
        <time>2020-09-06T13:28:04Z</time>
      </trkpt>
      <trkpt lat="37.3104656674" lon="-3.1763543095">
        <ele>972.03</ele>
        <time>2020-09-06T13:28:05Z</time>
      </trkpt>
      <trkpt lat="37.3105614726" lon="-3.1763846520">
        <ele>971.07</ele>
        <time>2020-09-06T13:28:06Z</time>
      </trkpt>
      <trkpt lat="37.3106505722" lon="-3.1764239632">
        <ele>970.59</ele>
        <time>2020-09-06T13:28:07Z</time>
      </trkpt>
      <trkpt lat="37.3112455197" lon="-3.1767137256">
        <ele>967.22</ele>
        <time>2020-09-06T13:28:14Z</time>
      </trkpt>
      <trkpt lat="37.3113306798" lon="-3.1767309923">
        <ele>967.22</ele>
        <time>2020-09-06T13:28:15Z</time>
      </trkpt>
      <trkpt lat="37.3114137445" lon="-3.1767330877">
        <ele>966.74</ele>
        <time>2020-09-06T13:28:16Z</time>
      </trkpt>
      <trkpt lat="37.3114964738" lon="-3.1767240353">
        <ele>966.26</ele>
        <time>2020-09-06T13:28:17Z</time>
      </trkpt>
      <trkpt lat="37.3115769401" lon="-3.1767030805">
        <ele>966.26</ele>
        <time>2020-09-06T13:28:18Z</time>
      </trkpt>
      <trkpt lat="37.3116569035" lon="-3.1766716484">
        <ele>965.30</ele>
        <time>2020-09-06T13:28:19Z</time>
      </trkpt>
      <trkpt lat="37.3117397167" lon="-3.1766340975">
        <ele>964.82</ele>
        <time>2020-09-06T13:28:20Z</time>
      </trkpt>
      <trkpt lat="37.3121479992" lon="-3.1764058582">
        <ele>962.42</ele>
        <time>2020-09-06T13:28:25Z</time>
      </trkpt>
      <trkpt lat="37.3122218437" lon="-3.1763396412">
        <ele>962.42</ele>
        <time>2020-09-06T13:28:26Z</time>
      </trkpt>
      <trkpt lat="37.3124390189" lon="-3.1761409063">
        <ele>960.98</ele>
        <time>2020-09-06T13:28:29Z</time>
      </trkpt>
      <trkpt lat="37.3125207424" lon="-3.1761051994">
        <ele>960.49</ele>
        <time>2020-09-06T13:28:30Z</time>
      </trkpt>
      <trkpt lat="37.3126064893" lon="-3.1760943029">
        <ele>960.49</ele>
        <time>2020-09-06T13:28:31Z</time>
      </trkpt>
      <trkpt lat="37.3126928229" lon="-3.1761006732">
        <ele>960.01</ele>
        <time>2020-09-06T13:28:32Z</time>
      </trkpt>
      <trkpt lat="37.3127778154" lon="-3.1761177722">
        <ele>959.05</ele>
        <time>2020-09-06T13:28:33Z</time>
      </trkpt>
      <trkpt lat="37.3128607124" lon="-3.1761414092">
        <ele>958.57</ele>
        <time>2020-09-06T13:28:34Z</time>
      </trkpt>
      <trkpt lat="37.3134352081" lon="-3.1762481108">
        <ele>955.69</ele>
        <time>2020-09-06T13:28:41Z</time>
      </trkpt>
      <trkpt lat="37.3137842305" lon="-3.1762314308">
        <ele>953.77</ele>
        <time>2020-09-06T13:28:45Z</time>
      </trkpt>
      <trkpt lat="37.3138776049" lon="-3.1762039382">
        <ele>952.80</ele>
        <time>2020-09-06T13:28:46Z</time>
      </trkpt>
      <trkpt lat="37.3139612563" lon="-3.1761699077">
        <ele>952.32</ele>
        <time>2020-09-06T13:28:47Z</time>
      </trkpt>
      <trkpt lat="37.3142998014" lon="-3.1760097295">
        <ele>951.36</ele>
        <time>2020-09-06T13:28:51Z</time>
      </trkpt>
      <trkpt lat="37.3143801838" lon="-3.1759539060">
        <ele>950.40</ele>
        <time>2020-09-06T13:28:52Z</time>
      </trkpt>
      <trkpt lat="37.3144551180" lon="-3.1758902036">
        <ele>949.92</ele>
        <time>2020-09-06T13:28:53Z</time>
      </trkpt>
      <trkpt lat="37.3145930003" lon="-3.1757439394">
        <ele>949.44</ele>
        <time>2020-09-06T13:28:55Z</time>
      </trkpt>
      <trkpt lat="37.3147716187" lon="-3.1755037140">
        <ele>947.52</ele>
        <time>2020-09-06T13:28:58Z</time>
      </trkpt>
      <trkpt lat="37.3148359917" lon="-3.1754359044">
        <ele>947.04</ele>
        <time>2020-09-06T13:28:59Z</time>
      </trkpt>
      <trkpt lat="37.3149057291" lon="-3.1753767282">
        <ele>947.04</ele>
        <time>2020-09-06T13:29:00Z</time>
      </trkpt>
      <trkpt lat="37.3149822559" lon="-3.1753281131">
        <ele>946.56</ele>
        <time>2020-09-06T13:29:01Z</time>
      </trkpt>
      <trkpt lat="37.3150615487" lon="-3.1752893049">
        <ele>946.07</ele>
        <time>2020-09-06T13:29:02Z</time>
      </trkpt>
      <trkpt lat="37.3151435237" lon="-3.1752603035">
        <ele>946.07</ele>
        <time>2020-09-06T13:29:03Z</time>
      </trkpt>
      <trkpt lat="37.3152287677" lon="-3.1752411090">
        <ele>945.59</ele>
        <time>2020-09-06T13:29:04Z</time>
      </trkpt>
      <trkpt lat="37.3153159395" lon="-3.1752272788">
        <ele>945.59</ele>
        <time>2020-09-06T13:29:05Z</time>
      </trkpt>
      <trkpt lat="37.3154009320" lon="-3.1752207410">
        <ele>944.63</ele>
        <time>2020-09-06T13:29:06Z</time>
      </trkpt>
      <trkpt lat="37.3160936963" lon="-3.1751812622">
        <ele>941.75</ele>
        <time>2020-09-06T13:29:14Z</time>
      </trkpt>
      <trkpt lat="37.3161697201" lon="-3.1751924101">
        <ele>941.75</ele>
        <time>2020-09-06T13:29:15Z</time>
      </trkpt>
      <trkpt lat="37.3162376974" lon="-3.1752204895">
        <ele>941.75</ele>
        <time>2020-09-06T13:29:16Z</time>
      </trkpt>
      <trkpt lat="37.3162967060" lon="-3.1752587110">
        <ele>941.75</ele>
        <time>2020-09-06T13:29:17Z</time>
      </trkpt>
      <trkpt lat="37.3163439799" lon="-3.1753048114">
        <ele>941.27</ele>
        <time>2020-09-06T13:29:18Z</time>
      </trkpt>
      <trkpt lat="37.3163713887" lon="-3.1753566116">
        <ele>941.27</ele>
        <time>2020-09-06T13:29:19Z</time>
      </trkpt>
      <trkpt lat="37.3163806088" lon="-3.1754169613">
        <ele>941.27</ele>
        <time>2020-09-06T13:29:20Z</time>
      </trkpt>
      <trkpt lat="37.3163716402" lon="-3.1754629780">
        <ele>941.75</ele>
        <time>2020-09-06T13:29:21Z</time>
      </trkpt>
      <trkpt lat="37.3163534515" lon="-3.1754836813">
        <ele>941.27</ele>
        <time>2020-09-06T13:29:22Z</time>
      </trkpt>
      <trkpt lat="37.3163263779" lon="-3.1755092461">
        <ele>941.27</ele>
        <time>2020-09-06T13:29:23Z</time>
      </trkpt>
      <trkpt lat="37.3162983824" lon="-3.1755348947">
        <ele>941.27</ele>
        <time>2020-09-06T13:29:24Z</time>
      </trkpt>
      <trkpt lat="37.3162716441" lon="-3.1755601242">
        <ele>941.27</ele>
        <time>2020-09-06T13:29:25Z</time>
      </trkpt>
      <trkpt lat="37.3162480909" lon="-3.1755835935">
        <ele>941.27</ele>
        <time>2020-09-06T13:29:26Z</time>
      </trkpt>
      <trkpt lat="37.3162225261" lon="-3.1756033748">
        <ele>941.27</ele>
        <time>2020-09-06T13:29:27Z</time>
      </trkpt>
      <trkpt lat="37.3161750846" lon="-3.1756503135">
        <ele>942.71</ele>
        <time>2020-09-06T13:29:29Z</time>
      </trkpt>
      <trkpt lat="37.3160530441" lon="-3.1758429296">
        <ele>943.67</ele>
        <time>2020-09-06T13:29:36Z</time>
      </trkpt>
      <trkpt lat="37.3160484340" lon="-3.1758757029">
        <ele>944.63</ele>
        <time>2020-09-06T13:29:37Z</time>
      </trkpt>
      <trkpt lat="37.3160445783" lon="-3.1759093143">
        <ele>944.63</ele>
        <time>2020-09-06T13:29:38Z</time>
      </trkpt>
      <trkpt lat="37.3160384595" lon="-3.1759461947">
        <ele>944.63</ele>
        <time>2020-09-06T13:29:39Z</time>
      </trkpt>
      <trkpt lat="37.3160346877" lon="-3.1759853382">
        <ele>944.63</ele>
        <time>2020-09-06T13:29:40Z</time>
      </trkpt>
      <trkpt lat="37.3160335980" lon="-3.1760223862">
        <ele>944.63</ele>
        <time>2020-09-06T13:29:41Z</time>
      </trkpt>
      <trkpt lat="37.3160058539" lon="-3.1765232049">
        <ele>947.04</ele>
        <time>2020-09-06T13:29:56Z</time>
      </trkpt>
      <trkpt lat="37.3160083685" lon="-3.1765575707">
        <ele>947.04</ele>
        <time>2020-09-06T13:29:59Z</time>
      </trkpt>
      <trkpt lat="37.3160136491" lon="-3.1765756756">
        <ele>946.56</ele>
        <time>2020-09-06T13:30:00Z</time>
      </trkpt>
      <trkpt lat="37.3160180915" lon="-3.1765974686">
        <ele>946.56</ele>
        <time>2020-09-06T13:30:01Z</time>
      </trkpt>
      <trkpt lat="37.3160207737" lon="-3.1766242068">
        <ele>946.56</ele>
        <time>2020-09-06T13:30:02Z</time>
      </trkpt>
      <trkpt lat="37.3160196003" lon="-3.1766538788">
        <ele>946.56</ele>
        <time>2020-09-06T13:30:03Z</time>
      </trkpt>
      <trkpt lat="37.3160114698" lon="-3.1766853947">
        <ele>947.04</ele>
        <time>2020-09-06T13:30:04Z</time>
      </trkpt>
      <trkpt lat="37.3159964662" lon="-3.1767169107">
        <ele>946.56</ele>
        <time>2020-09-06T13:30:05Z</time>
      </trkpt>
      <trkpt lat="37.3159777746" lon="-3.1767428946">
        <ele>946.56</ele>
        <time>2020-09-06T13:30:06Z</time>
      </trkpt>
      <trkpt lat="37.3159564007" lon="-3.1767625920">
        <ele>947.52</ele>
        <time>2020-09-06T13:30:07Z</time>
      </trkpt>
      <trkpt lat="37.3157680593" lon="-3.1770723034">
        <ele>948.48</ele>
        <time>2020-09-06T13:30:18Z</time>
      </trkpt>
      <trkpt lat="37.3157015070" lon="-3.1775180530">
        <ele>949.92</ele>
        <time>2020-09-06T13:30:30Z</time>
      </trkpt>
      <trkpt lat="37.3157435004" lon="-3.1778223161">
        <ele>951.36</ele>
        <time>2020-09-06T13:30:40Z</time>
      </trkpt>
      <trkpt lat="37.3159206100" lon="-3.1779819075">
        <ele>953.28</ele>
        <time>2020-09-06T13:30:48Z</time>
      </trkpt>
      <trkpt lat="37.3159242980" lon="-3.1780076399">
        <ele>953.28</ele>
        <time>2020-09-06T13:30:49Z</time>
      </trkpt>
      <trkpt lat="37.3159394693" lon="-3.1784458458">
        <ele>955.69</ele>
        <time>2020-09-06T13:31:02Z</time>
      </trkpt>
      <trkpt lat="37.3157581687" lon="-3.1788456626">
        <ele>958.09</ele>
        <time>2020-09-06T13:31:16Z</time>
      </trkpt>
      <trkpt lat="37.3156463541" lon="-3.1790853012">
        <ele>960.01</ele>
        <time>2020-09-06T13:31:28Z</time>
      </trkpt>
      <trkpt lat="37.3156754393" lon="-3.1792677753">
        <ele>962.90</ele>
        <time>2020-09-06T13:31:36Z</time>
      </trkpt>
      <trkpt lat="37.3156750202" lon="-3.1792897359">
        <ele>962.90</ele>
        <time>2020-09-06T13:31:37Z</time>
      </trkpt>
      <trkpt lat="37.3156709131" lon="-3.1793095171">
        <ele>963.38</ele>
        <time>2020-09-06T13:31:38Z</time>
      </trkpt>
      <trkpt lat="37.3156653810" lon="-3.1793279573">
        <ele>963.38</ele>
        <time>2020-09-06T13:31:39Z</time>
      </trkpt>
      <trkpt lat="37.3156688176" lon="-3.1794107705">
        <ele>964.34</ele>
        <time>2020-09-06T13:31:50Z</time>
      </trkpt>
      <trkpt lat="37.3156633694" lon="-3.1794925779">
        <ele>964.82</ele>
        <time>2020-09-06T13:32:03Z</time>
      </trkpt>
      <trkpt lat="37.3156699911" lon="-3.1795142870">
        <ele>964.82</ele>
        <time>2020-09-06T13:32:30Z</time>
      </trkpt>
      <trkpt lat="37.3156528920" lon="-3.1795411929">
        <ele>965.30</ele>
        <time>2020-09-06T13:32:50Z</time>
      </trkpt>
      <trkpt lat="37.3156720027" lon="-3.1795256026">
        <ele>965.30</ele>
        <time>2020-09-06T13:33:10Z</time>
      </trkpt>
      <trkpt lat="37.3156587593" lon="-3.1795297936">
        <ele>965.78</ele>
        <time>2020-09-06T13:33:34Z</time>
      </trkpt>
      <trkpt lat="37.3156555742" lon="-3.1795498263">
        <ele>965.78</ele>
        <time>2020-09-06T13:33:43Z</time>
      </trkpt>
      <trkpt lat="37.3156557418" lon="-3.1795699429">
        <ele>965.78</ele>
        <time>2020-09-06T13:33:44Z</time>
      </trkpt>
      <trkpt lat="37.3156538140" lon="-3.1796030514">
        <ele>965.78</ele>
        <time>2020-09-06T13:33:45Z</time>
      </trkpt>
      <trkpt lat="37.3156538140" lon="-3.1796415243">
        <ele>965.78</ele>
        <time>2020-09-06T13:33:46Z</time>
      </trkpt>
      <trkpt lat="37.3156517185" lon="-3.1796849426">
        <ele>965.78</ele>
        <time>2020-09-06T13:33:47Z</time>
      </trkpt>
      <trkpt lat="37.3156466056" lon="-3.1797256786">
        <ele>965.78</ele>
        <time>2020-09-06T13:33:48Z</time>
      </trkpt>
      <trkpt lat="37.3156391457" lon="-3.1797734555">
        <ele>963.86</ele>
        <time>2020-09-06T13:33:49Z</time>
      </trkpt>
      <trkpt lat="37.3156362120" lon="-3.1798273511">
        <ele>963.38</ele>
        <time>2020-09-06T13:33:50Z</time>
      </trkpt>
      <trkpt lat="37.3156404030" lon="-3.1798897125">
        <ele>962.90</ele>
        <time>2020-09-06T13:33:51Z</time>
      </trkpt>
      <trkpt lat="37.3156549875" lon="-3.1800389942">
        <ele>961.94</ele>
        <time>2020-09-06T13:33:53Z</time>
      </trkpt>
      <trkpt lat="37.3156668060" lon="-3.1801163591">
        <ele>960.01</ele>
        <time>2020-09-06T13:33:54Z</time>
      </trkpt>
      <trkpt lat="37.3156730086" lon="-3.1801943108">
        <ele>959.53</ele>
        <time>2020-09-06T13:33:55Z</time>
      </trkpt>
      <trkpt lat="37.3156751040" lon="-3.1802757829">
        <ele>959.53</ele>
        <time>2020-09-06T13:33:56Z</time>
      </trkpt>
      <trkpt lat="37.3156766128" lon="-3.1803554948">
        <ele>958.57</ele>
        <time>2020-09-06T13:33:57Z</time>
      </trkpt>
      <trkpt lat="37.3156845756" lon="-3.1804324407">
        <ele>958.09</ele>
        <time>2020-09-06T13:33:58Z</time>
      </trkpt>
      <trkpt lat="37.3157066200" lon="-3.1805924512">
        <ele>957.61</ele>
        <time>2020-09-06T13:34:00Z</time>
      </trkpt>
      <trkpt lat="37.3157316819" lon="-3.1806683075">
        <ele>957.13</ele>
        <time>2020-09-06T13:34:01Z</time>
      </trkpt>
      <trkpt lat="37.3157887626" lon="-3.1808205228">
        <ele>956.17</ele>
        <time>2020-09-06T13:34:03Z</time>
      </trkpt>
      <trkpt lat="37.3157965578" lon="-3.1808998995">
        <ele>955.69</ele>
        <time>2020-09-06T13:34:04Z</time>
      </trkpt>
      <trkpt lat="37.3157946300" lon="-3.1809784379">
        <ele>955.69</ele>
        <time>2020-09-06T13:34:05Z</time>
      </trkpt>
      <trkpt lat="37.3157818895" lon="-3.1810619216">
        <ele>955.21</ele>
        <time>2020-09-06T13:34:06Z</time>
      </trkpt>
      <trkpt lat="37.3157543968" lon="-3.1811445672">
        <ele>954.25</ele>
        <time>2020-09-06T13:34:07Z</time>
      </trkpt>
      <trkpt lat="37.3157146666" lon="-3.1812340859">
        <ele>953.77</ele>
        <time>2020-09-06T13:34:08Z</time>
      </trkpt>
      <trkpt lat="37.3155697435" lon="-3.1815572921">
        <ele>951.84</ele>
        <time>2020-09-06T13:34:12Z</time>
      </trkpt>
      <trkpt lat="37.3155186139" lon="-3.1816235930">
        <ele>951.84</ele>
        <time>2020-09-06T13:34:13Z</time>
      </trkpt>
      <trkpt lat="37.3154161870" lon="-3.1817639060">
        <ele>951.36</ele>
        <time>2020-09-06T13:34:15Z</time>
      </trkpt>
      <trkpt lat="37.3153856769" lon="-3.1818447076">
        <ele>950.40</ele>
        <time>2020-09-06T13:34:16Z</time>
      </trkpt>
      <trkpt lat="37.3153697513" lon="-3.1819333043">
        <ele>950.40</ele>
        <time>2020-09-06T13:34:17Z</time>
      </trkpt>
      <trkpt lat="37.3153653927" lon="-3.1820244994">
        <ele>950.40</ele>
        <time>2020-09-06T13:34:18Z</time>
      </trkpt>
      <trkpt lat="37.3153564241" lon="-3.1821106654">
        <ele>949.92</ele>
        <time>2020-09-06T13:34:19Z</time>
      </trkpt>
      <trkpt lat="37.3153357208" lon="-3.1821975019">
        <ele>949.44</ele>
        <time>2020-09-06T13:34:20Z</time>
      </trkpt>
      <trkpt lat="37.3153105751" lon="-3.1822816562">
        <ele>949.44</ele>
        <time>2020-09-06T13:34:21Z</time>
      </trkpt>
      <trkpt lat="37.3152851779" lon="-3.1823626254">
        <ele>949.44</ele>
        <time>2020-09-06T13:34:22Z</time>
      </trkpt>
      <trkpt lat="37.3152644746" lon="-3.1824487913">
        <ele>948.96</ele>
        <time>2020-09-06T13:34:23Z</time>
      </trkpt>
      <trkpt lat="37.3152528238" lon="-3.1825335324">
        <ele>948.96</ele>
        <time>2020-09-06T13:34:24Z</time>
      </trkpt>
      <trkpt lat="37.3152451124" lon="-3.1826884300">
        <ele>948.48</ele>
        <time>2020-09-06T13:34:26Z</time>
      </trkpt>
      <trkpt lat="37.3152577691" lon="-3.1827666331">
        <ele>948.48</ele>
        <time>2020-09-06T13:34:27Z</time>
      </trkpt>
      <trkpt lat="37.3153007682" lon="-3.1830074452">
        <ele>946.07</ele>
        <time>2020-09-06T13:34:30Z</time>
      </trkpt>
      <trkpt lat="37.3153018579" lon="-3.1830961257">
        <ele>945.59</ele>
        <time>2020-09-06T13:34:31Z</time>
      </trkpt>
      <trkpt lat="37.3153151851" lon="-3.1833601557">
        <ele>944.15</ele>
        <time>2020-09-06T13:34:34Z</time>
      </trkpt>
      <trkpt lat="37.3153228126" lon="-3.1834418792">
        <ele>943.67</ele>
        <time>2020-09-06T13:34:35Z</time>
      </trkpt>
      <trkpt lat="37.3153218906" lon="-3.1835164782">
        <ele>943.67</ele>
        <time>2020-09-06T13:34:36Z</time>
      </trkpt>
      <trkpt lat="37.3153125867" lon="-3.1835871376">
        <ele>943.19</ele>
        <time>2020-09-06T13:34:37Z</time>
      </trkpt>
      <trkpt lat="37.3152995948" lon="-3.1836410332">
        <ele>943.19</ele>
        <time>2020-09-06T13:34:38Z</time>
      </trkpt>
      <trkpt lat="37.3152848426" lon="-3.1836895645">
        <ele>942.23</ele>
        <time>2020-09-06T13:34:39Z</time>
      </trkpt>
      <trkpt lat="37.3152818251" lon="-3.1838280335">
        <ele>941.27</ele>
        <time>2020-09-06T13:34:42Z</time>
      </trkpt>
      <trkpt lat="37.3152819090" lon="-3.1838774867">
        <ele>941.27</ele>
        <time>2020-09-06T13:34:43Z</time>
      </trkpt>
      <trkpt lat="37.3152767122" lon="-3.1839281134">
        <ele>941.27</ele>
        <time>2020-09-06T13:34:44Z</time>
      </trkpt>
      <trkpt lat="37.3152682465" lon="-3.1840390898">
        <ele>941.27</ele>
        <time>2020-09-06T13:34:48Z</time>
      </trkpt>
      <trkpt lat="37.3152835015" lon="-3.1840559375">
        <ele>941.27</ele>
        <time>2020-09-06T13:34:49Z</time>
      </trkpt>
      <trkpt lat="37.3153015226" lon="-3.1840584520">
        <ele>941.27</ele>
        <time>2020-09-06T13:34:50Z</time>
      </trkpt>
      <trkpt lat="37.3153136764" lon="-3.1840540934">
        <ele>941.27</ele>
        <time>2020-09-06T13:34:51Z</time>
      </trkpt>
      <trkpt lat="37.3153290991" lon="-3.1840465497">
        <ele>941.27</ele>
        <time>2020-09-06T13:34:52Z</time>
      </trkpt>
      <trkpt lat="37.3153433483" lon="-3.1840327196">
        <ele>941.27</ele>
        <time>2020-09-06T13:34:53Z</time>
      </trkpt>
      <trkpt lat="37.3153577652" lon="-3.1840183865">
        <ele>941.27</ele>
        <time>2020-09-06T13:34:54Z</time>
      </trkpt>
      <trkpt lat="37.3153774627" lon="-3.1840122677">
        <ele>941.27</ele>
        <time>2020-09-06T13:34:55Z</time>
      </trkpt>
      <trkpt lat="37.3154002614" lon="-3.1840179674">
        <ele>942.71</ele>
        <time>2020-09-06T13:34:56Z</time>
      </trkpt>
      <trkpt lat="37.3154218029" lon="-3.1840266846">
        <ele>942.71</ele>
        <time>2020-09-06T13:34:57Z</time>
      </trkpt>
      <trkpt lat="37.3154440150" lon="-3.1840312108">
        <ele>943.19</ele>
        <time>2020-09-06T13:34:58Z</time>
      </trkpt>
      <trkpt lat="37.3154687416" lon="-3.1840359047">
        <ele>943.19</ele>
        <time>2020-09-06T13:34:59Z</time>
      </trkpt>
      <trkpt lat="37.3155878484" lon="-3.1840238348">
        <ele>945.11</ele>
        <time>2020-09-06T13:35:05Z</time>
      </trkpt>
      <trkpt lat="37.3160253000" lon="-3.1840220746">
        <ele>943.67</ele>
        <time>2020-09-06T13:35:20Z</time>
      </trkpt>
      <trkpt lat="37.3162028287" lon="-3.1840666663">
        <ele>941.75</ele>
        <time>2020-09-06T13:35:25Z</time>
      </trkpt>
      <trkpt lat="37.3162154015" lon="-3.1841197237">
        <ele>941.75</ele>
        <time>2020-09-06T13:35:26Z</time>
      </trkpt>
      <trkpt lat="37.3162218556" lon="-3.1841642316">
        <ele>941.27</ele>
        <time>2020-09-06T13:35:27Z</time>
      </trkpt>
      <trkpt lat="37.3162292317" lon="-3.1842825841">
        <ele>940.31</ele>
        <time>2020-09-06T13:35:29Z</time>
      </trkpt>
      <trkpt lat="37.3162363563" lon="-3.1844476238">
        <ele>939.35</ele>
        <time>2020-09-06T13:35:32Z</time>
      </trkpt>
      <trkpt lat="37.3162449058" lon="-3.1845004298">
        <ele>939.35</ele>
        <time>2020-09-06T13:35:33Z</time>
      </trkpt>
      <trkpt lat="37.3162573110" lon="-3.1845520623">
        <ele>938.86</ele>
        <time>2020-09-06T13:35:34Z</time>
      </trkpt>
      <trkpt lat="37.3162734043" lon="-3.1846066285">
        <ele>938.86</ele>
        <time>2020-09-06T13:35:35Z</time>
      </trkpt>
      <trkpt lat="37.3162948620" lon="-3.1846664753">
        <ele>937.90</ele>
        <time>2020-09-06T13:35:36Z</time>
      </trkpt>
      <trkpt lat="37.3163795192" lon="-3.1848839857">
        <ele>936.94</ele>
        <time>2020-09-06T13:35:39Z</time>
      </trkpt>
      <trkpt lat="37.3164741509" lon="-3.1851132307">
        <ele>933.58</ele>
        <time>2020-09-06T13:35:42Z</time>
      </trkpt>
      <trkpt lat="37.3165793438" lon="-3.1853273045">
        <ele>935.50</ele>
        <time>2020-09-06T13:35:45Z</time>
      </trkpt>
      <trkpt lat="37.3166199122" lon="-3.1853744946">
        <ele>933.58</ele>
        <time>2020-09-06T13:35:46Z</time>
      </trkpt>
      <trkpt lat="37.3166611511" lon="-3.1854056753">
        <ele>933.58</ele>
        <time>2020-09-06T13:35:47Z</time>
      </trkpt>
      <trkpt lat="37.3166960198" lon="-3.1854293123">
        <ele>933.10</ele>
        <time>2020-09-06T13:35:48Z</time>
      </trkpt>
      <trkpt lat="37.3167237639" lon="-3.1854605768">
        <ele>933.10</ele>
        <time>2020-09-06T13:35:49Z</time>
      </trkpt>
      <trkpt lat="37.3167447187" lon="-3.1855122931">
        <ele>932.14</ele>
        <time>2020-09-06T13:35:50Z</time>
      </trkpt>
      <trkpt lat="37.3167515919" lon="-3.1855720561">
        <ele>932.14</ele>
        <time>2020-09-06T13:35:51Z</time>
      </trkpt>
      <trkpt lat="37.3167544417" lon="-3.1856116187">
        <ele>932.14</ele>
        <time>2020-09-06T13:35:52Z</time>
      </trkpt>
      <trkpt lat="37.3167698644" lon="-3.1861716975">
        <ele>928.77</ele>
        <time>2020-09-06T13:36:01Z</time>
      </trkpt>
      <trkpt lat="37.3167929146" lon="-3.1865572650">
        <ele>926.85</ele>
        <time>2020-09-06T13:36:11Z</time>
      </trkpt>
      <trkpt lat="37.3168494925" lon="-3.1872875802">
        <ele>923.00</ele>
        <time>2020-09-06T13:36:24Z</time>
      </trkpt>
      <trkpt lat="37.3168788292" lon="-3.1877735630">
        <ele>921.08</ele>
        <time>2020-09-06T13:36:31Z</time>
      </trkpt>
      <trkpt lat="37.3168907315" lon="-3.1878262013">
        <ele>921.08</ele>
        <time>2020-09-06T13:36:32Z</time>
      </trkpt>
      <trkpt lat="37.3169156257" lon="-3.1878726371">
        <ele>921.08</ele>
        <time>2020-09-06T13:36:33Z</time>
      </trkpt>
      <trkpt lat="37.3169451300" lon="-3.1878992915">
        <ele>921.08</ele>
        <time>2020-09-06T13:36:34Z</time>
      </trkpt>
      <trkpt lat="37.3169716168" lon="-3.1879172288">
        <ele>920.60</ele>
        <time>2020-09-06T13:36:35Z</time>
      </trkpt>
      <trkpt lat="37.3170032166" lon="-3.1879545283">
        <ele>920.60</ele>
        <time>2020-09-06T13:36:37Z</time>
      </trkpt>
      <trkpt lat="37.3170003667" lon="-3.1879796740">
        <ele>920.12</ele>
        <time>2020-09-06T13:36:38Z</time>
      </trkpt>
      <trkpt lat="37.3169890512" lon="-3.1879940070">
        <ele>920.12</ele>
        <time>2020-09-06T13:36:39Z</time>
      </trkpt>
      <trkpt lat="37.3169722874" lon="-3.1879937556">
        <ele>920.12</ele>
        <time>2020-09-06T13:36:40Z</time>
      </trkpt>
      <trkpt lat="37.3169586249" lon="-3.1879738905">
        <ele>920.12</ele>
        <time>2020-09-06T13:36:41Z</time>
      </trkpt>
      <trkpt lat="37.3169620614" lon="-3.1879558694">
        <ele>920.12</ele>
        <time>2020-09-06T13:36:42Z</time>
      </trkpt>
      <trkpt lat="37.3169772327" lon="-3.1879420392">
        <ele>920.12</ele>
        <time>2020-09-06T13:36:43Z</time>
      </trkpt>
      <trkpt lat="37.3169992771" lon="-3.1879283767">
        <ele>920.60</ele>
        <time>2020-09-06T13:36:44Z</time>
      </trkpt>
      <trkpt lat="37.3170147836" lon="-3.1879203301">
        <ele>920.60</ele>
        <time>2020-09-06T13:36:45Z</time>
      </trkpt>
      <trkpt lat="37.3170424439" lon="-3.1879121996">
        <ele>920.60</ele>
        <time>2020-09-06T13:36:46Z</time>
      </trkpt>
      <trkpt lat="37.3170692660" lon="-3.1879062485">
        <ele>920.60</ele>
        <time>2020-09-06T13:36:47Z</time>
      </trkpt>
      <trkpt lat="37.3171559349" lon="-3.1878525205">
        <ele>921.56</ele>
        <time>2020-09-06T13:36:51Z</time>
      </trkpt>
      <trkpt lat="37.3171743751" lon="-3.1878505927">
        <ele>921.56</ele>
        <time>2020-09-06T13:36:52Z</time>
      </trkpt>
      <trkpt lat="37.3171852715" lon="-3.1878603995">
        <ele>921.56</ele>
        <time>2020-09-06T13:36:53Z</time>
      </trkpt>
      <trkpt lat="37.3171928991" lon="-3.1878818572">
        <ele>922.04</ele>
        <time>2020-09-06T13:36:54Z</time>
      </trkpt>
      <trkpt lat="37.3171958327" lon="-3.1878933404">
        <ele>922.04</ele>
        <time>2020-09-06T13:36:55Z</time>
      </trkpt>
      <trkpt lat="37.3171854392" lon="-3.1879282091">
        <ele>922.04</ele>
        <time>2020-09-06T13:37:07Z</time>
      </trkpt>
      <trkpt lat="37.3171588685" lon="-3.1879520137">
        <ele>922.04</ele>
        <time>2020-09-06T13:37:45Z</time>
      </trkpt>
      <trkpt lat="37.3172026221" lon="-3.1879475713">
        <ele>922.04</ele>
        <time>2020-09-06T13:38:24Z</time>
      </trkpt>
      <trkpt lat="37.3171624728" lon="-3.1879425421">
        <ele>922.04</ele>
        <time>2020-09-06T13:39:04Z</time>
      </trkpt>
      <trkpt lat="37.3171737045" lon="-3.1879347470">
        <ele>921.56</ele>
        <time>2020-09-06T13:39:47Z</time>
      </trkpt>
      <trkpt lat="37.3171652388" lon="-3.1879229285">
        <ele>922.04</ele>
        <time>2020-09-06T13:40:27Z</time>
      </trkpt>
      <trkpt lat="37.3171610478" lon="-3.1879384350">
        <ele>922.04</ele>
        <time>2020-09-06T13:41:07Z</time>
      </trkpt>
      <trkpt lat="37.3171633948" lon="-3.1879297178">
        <ele>922.04</ele>
        <time>2020-09-06T13:41:41Z</time>
      </trkpt>
      <trkpt lat="37.3171929829" lon="-3.1879308075">
        <ele>922.04</ele>
        <time>2020-09-06T13:42:17Z</time>
      </trkpt>
      <trkpt lat="37.3171834275" lon="-3.1879234314">
        <ele>921.56</ele>
        <time>2020-09-06T13:42:55Z</time>
      </trkpt>
      <trkpt lat="37.3171903845" lon="-3.1879028119">
        <ele>921.56</ele>
        <time>2020-09-06T13:43:28Z</time>
      </trkpt>
      <trkpt lat="37.3171815835" lon="-3.1879241858">
        <ele>921.08</ele>
        <time>2020-09-06T13:44:15Z</time>
      </trkpt>
      <trkpt lat="37.3171934858" lon="-3.1879425421">
        <ele>921.08</ele>
        <time>2020-09-06T13:44:50Z</time>
      </trkpt>
      <trkpt lat="37.3171902169" lon="-3.1879375130">
        <ele>921.56</ele>
        <time>2020-09-06T13:45:27Z</time>
      </trkpt>
      <trkpt lat="37.3171735369" lon="-3.1879352499">
        <ele>921.56</ele>
        <time>2020-09-06T13:45:52Z</time>
      </trkpt>
      <trkpt lat="37.3171870317" lon="-3.1878968608">
        <ele>921.56</ele>
        <time>2020-09-06T13:46:06Z</time>
      </trkpt>
      <trkpt lat="37.3171918932" lon="-3.1878681947">
        <ele>921.08</ele>
        <time>2020-09-06T13:46:08Z</time>
      </trkpt>
      <trkpt lat="37.3171972577" lon="-3.1878509279">
        <ele>921.08</ele>
        <time>2020-09-06T13:46:09Z</time>
      </trkpt>
      <trkpt lat="37.3172045499" lon="-3.1878375169">
        <ele>921.08</ele>
        <time>2020-09-06T13:46:10Z</time>
      </trkpt>
      <trkpt lat="37.3172147758" lon="-3.1878287159">
        <ele>921.08</ele>
        <time>2020-09-06T13:46:11Z</time>
      </trkpt>
      <trkpt lat="37.3172286060" lon="-3.1878277101">
        <ele>921.08</ele>
        <time>2020-09-06T13:46:12Z</time>
      </trkpt>
      <trkpt lat="37.3172429390" lon="-3.1878351700">
        <ele>921.08</ele>
        <time>2020-09-06T13:46:13Z</time>
      </trkpt>
      <trkpt lat="37.3172567692" lon="-3.1878394447">
        <ele>921.08</ele>
        <time>2020-09-06T13:46:14Z</time>
      </trkpt>
      <trkpt lat="37.3172685876" lon="-3.1878474075">
        <ele>921.08</ele>
        <time>2020-09-06T13:46:15Z</time>
      </trkpt>
      <trkpt lat="37.3172777239" lon="-3.1878658477">
        <ele>921.56</ele>
        <time>2020-09-06T13:46:16Z</time>
      </trkpt>
      <trkpt lat="37.3172814120" lon="-3.1878831983">
        <ele>921.08</ele>
        <time>2020-09-06T13:46:17Z</time>
      </trkpt>
      <trkpt lat="37.3172849324" lon="-3.1879106909">
        <ele>921.08</ele>
        <time>2020-09-06T13:46:18Z</time>
      </trkpt>
      <trkpt lat="37.3172819987" lon="-3.1879976951">
        <ele>921.08</ele>
        <time>2020-09-06T13:46:21Z</time>
      </trkpt>
      <trkpt lat="37.3172672465" lon="-3.1880246010">
        <ele>921.56</ele>
        <time>2020-09-06T13:46:22Z</time>
      </trkpt>
      <trkpt lat="37.3172387481" lon="-3.1880730484">
        <ele>921.08</ele>
        <time>2020-09-06T13:46:24Z</time>
      </trkpt>
      <trkpt lat="37.3172335513" lon="-3.1880912371">
        <ele>921.08</ele>
        <time>2020-09-06T13:46:25Z</time>
      </trkpt>
      <trkpt lat="37.3172602057" lon="-3.1880515907">
        <ele>921.08</ele>
        <time>2020-09-06T13:46:33Z</time>
      </trkpt>
      <trkpt lat="37.3172721080" lon="-3.1880308874">
        <ele>921.08</ele>
        <time>2020-09-06T13:46:34Z</time>
      </trkpt>
      <trkpt lat="37.3172883689" lon="-3.1880116090">
        <ele>921.08</ele>
        <time>2020-09-06T13:46:35Z</time>
      </trkpt>
      <trkpt lat="37.3173110839" lon="-3.1879869662">
        <ele>921.08</ele>
        <time>2020-09-06T13:46:36Z</time>
      </trkpt>
      <trkpt lat="37.3173305299" lon="-3.1879693642">
        <ele>921.08</ele>
        <time>2020-09-06T13:46:37Z</time>
      </trkpt>
      <trkpt lat="37.3175569251" lon="-3.1877205893">
        <ele>924.45</ele>
        <time>2020-09-06T13:46:49Z</time>
      </trkpt>
      <trkpt lat="37.3175676540" lon="-3.1877022330">
        <ele>924.45</ele>
        <time>2020-09-06T13:46:50Z</time>
      </trkpt>
      <trkpt lat="37.3175798915" lon="-3.1876832061">
        <ele>924.93</ele>
        <time>2020-09-06T13:46:51Z</time>
      </trkpt>
      <trkpt lat="37.3175927158" lon="-3.1876663584">
        <ele>924.93</ele>
        <time>2020-09-06T13:46:52Z</time>
      </trkpt>
      <trkpt lat="37.3178723361" lon="-3.1874039210">
        <ele>926.85</ele>
        <time>2020-09-06T13:47:09Z</time>
      </trkpt>
      <trkpt lat="37.3180848174" lon="-3.1872673798">
        <ele>929.25</ele>
        <time>2020-09-06T13:47:22Z</time>
      </trkpt>
      <trkpt lat="37.3180964682" lon="-3.1872828025">
        <ele>929.73</ele>
        <time>2020-09-06T13:47:31Z</time>
      </trkpt>
      <trkpt lat="37.3180907685" lon="-3.1873057690">
        <ele>929.73</ele>
        <time>2020-09-06T13:47:32Z</time>
      </trkpt>
      <trkpt lat="37.3181324266" lon="-3.1873822119">
        <ele>931.17</ele>
        <time>2020-09-06T13:47:37Z</time>
      </trkpt>
      <trkpt lat="37.3181167524" lon="-3.1875072699">
        <ele>932.14</ele>
        <time>2020-09-06T13:47:43Z</time>
      </trkpt>
      <trkpt lat="37.3181610089" lon="-3.1875800248">
        <ele>933.58</ele>
        <time>2020-09-06T13:47:48Z</time>
      </trkpt>
      <trkpt lat="37.3181621823" lon="-3.1875827909">
        <ele>934.06</ele>
        <time>2020-09-06T13:48:01Z</time>
      </trkpt>
      <trkpt lat="37.3181513697" lon="-3.1875717267">
        <ele>934.06</ele>
        <time>2020-09-06T13:48:04Z</time>
      </trkpt>
      <trkpt lat="37.3181094602" lon="-3.1875205133">
        <ele>934.06</ele>
        <time>2020-09-06T13:48:09Z</time>
      </trkpt>
      <trkpt lat="37.3181123938" lon="-3.1874625105">
        <ele>932.62</ele>
        <time>2020-09-06T13:48:12Z</time>
      </trkpt>
      <trkpt lat="37.3181142379" lon="-3.1874340959">
        <ele>932.62</ele>
        <time>2020-09-06T13:48:13Z</time>
      </trkpt>
      <trkpt lat="37.3180646170" lon="-3.1872933637">
        <ele>930.69</ele>
        <time>2020-09-06T13:48:18Z</time>
      </trkpt>
      <trkpt lat="37.3180378787" lon="-3.1872814614">
        <ele>929.25</ele>
        <time>2020-09-06T13:48:19Z</time>
      </trkpt>
      <trkpt lat="37.3180094641" lon="-3.1872970518">
        <ele>928.77</ele>
        <time>2020-09-06T13:48:20Z</time>
      </trkpt>
      <trkpt lat="37.3179901019" lon="-3.1873185933">
        <ele>928.77</ele>
        <time>2020-09-06T13:48:21Z</time>
      </trkpt>
      <trkpt lat="37.3179646209" lon="-3.1873452477">
        <ele>927.81</ele>
        <time>2020-09-06T13:48:22Z</time>
      </trkpt>
      <trkpt lat="37.3179376312" lon="-3.1873672083">
        <ele>927.33</ele>
        <time>2020-09-06T13:48:23Z</time>
      </trkpt>
      <trkpt lat="37.3176447675" lon="-3.1876470800">
        <ele>925.41</ele>
        <time>2020-09-06T13:48:34Z</time>
      </trkpt>
      <trkpt lat="37.3174624611" lon="-3.1878759898">
        <ele>922.52</ele>
        <time>2020-09-06T13:48:41Z</time>
      </trkpt>
      <trkpt lat="37.3173589446" lon="-3.1879589707">
        <ele>921.08</ele>
        <time>2020-09-06T13:48:44Z</time>
      </trkpt>
      <trkpt lat="37.3173138499" lon="-3.1879783329">
        <ele>921.08</ele>
        <time>2020-09-06T13:48:45Z</time>
      </trkpt>
      <trkpt lat="37.3172178771" lon="-3.1880085077">
        <ele>920.12</ele>
        <time>2020-09-06T13:48:47Z</time>
      </trkpt>
      <trkpt lat="37.3171676695" lon="-3.1880044844">
        <ele>920.12</ele>
        <time>2020-09-06T13:48:48Z</time>
      </trkpt>
      <trkpt lat="37.3171218205" lon="-3.1879843678">
        <ele>919.64</ele>
        <time>2020-09-06T13:48:49Z</time>
      </trkpt>
      <trkpt lat="37.3170354031" lon="-3.1879481580">
        <ele>919.16</ele>
        <time>2020-09-06T13:48:51Z</time>
      </trkpt>
      <trkpt lat="37.3169903085" lon="-3.1879582163">
        <ele>919.16</ele>
        <time>2020-09-06T13:48:52Z</time>
      </trkpt>
      <trkpt lat="37.3169542663" lon="-3.1879822724">
        <ele>918.68</ele>
        <time>2020-09-06T13:48:53Z</time>
      </trkpt>
      <trkpt lat="37.3169193976" lon="-3.1880182307">
        <ele>918.68</ele>
        <time>2020-09-06T13:48:55Z</time>
      </trkpt>
      <trkpt lat="37.3169109318" lon="-3.1880432088">
        <ele>918.20</ele>
        <time>2020-09-06T13:48:56Z</time>
      </trkpt>
      <trkpt lat="37.3169064894" lon="-3.1880760659">
        <ele>918.20</ele>
        <time>2020-09-06T13:48:57Z</time>
      </trkpt>
      <trkpt lat="37.3169049807" lon="-3.1880986970">
        <ele>918.20</ele>
        <time>2020-09-06T13:48:58Z</time>
      </trkpt>
      <trkpt lat="37.3169062380" lon="-3.1881296262">
        <ele>918.20</ele>
        <time>2020-09-06T13:48:59Z</time>
      </trkpt>
      <trkpt lat="37.3169066571" lon="-3.1881674286">
        <ele>918.20</ele>
        <time>2020-09-06T13:49:00Z</time>
      </trkpt>
      <trkpt lat="37.3169065733" lon="-3.1882133614">
        <ele>917.72</ele>
        <time>2020-09-06T13:49:01Z</time>
      </trkpt>
      <trkpt lat="37.3168854509" lon="-3.1889179442">
        <ele>915.31</ele>
        <time>2020-09-06T13:49:12Z</time>
      </trkpt>
      <trkpt lat="37.3169264384" lon="-3.1894443277">
        <ele>913.39</ele>
        <time>2020-09-06T13:49:21Z</time>
      </trkpt>
      <trkpt lat="37.3169714492" lon="-3.1894828845">
        <ele>913.39</ele>
        <time>2020-09-06T13:49:22Z</time>
      </trkpt>
      <trkpt lat="37.3170134425" lon="-3.1894899253">
        <ele>913.39</ele>
        <time>2020-09-06T13:49:23Z</time>
      </trkpt>
      <trkpt lat="37.3170431145" lon="-3.1894834712">
        <ele>913.39</ele>
        <time>2020-09-06T13:49:24Z</time>
      </trkpt>
      <trkpt lat="37.3170865327" lon="-3.1894724909">
        <ele>913.39</ele>
        <time>2020-09-06T13:49:25Z</time>
      </trkpt>
      <trkpt lat="37.3172369879" lon="-3.1894002389">
        <ele>914.83</ele>
        <time>2020-09-06T13:49:29Z</time>
      </trkpt>
      <trkpt lat="37.3176470306" lon="-3.1890409067">
        <ele>917.24</ele>
        <time>2020-09-06T13:49:42Z</time>
      </trkpt>
      <trkpt lat="37.3181175906" lon="-3.1886317022">
        <ele>918.20</ele>
        <time>2020-09-06T13:49:57Z</time>
      </trkpt>
      <trkpt lat="37.3181883339" lon="-3.1885884516">
        <ele>918.20</ele>
        <time>2020-09-06T13:49:59Z</time>
      </trkpt>
      <trkpt lat="37.3182263877" lon="-3.1885620486">
        <ele>918.20</ele>
        <time>2020-09-06T13:50:00Z</time>
      </trkpt>
      <trkpt lat="37.3188143782" lon="-3.1882012077">
        <ele>918.68</ele>
        <time>2020-09-06T13:50:15Z</time>
      </trkpt>
      <trkpt lat="37.3191113491" lon="-3.1881352421">
        <ele>919.16</ele>
        <time>2020-09-06T13:50:22Z</time>
      </trkpt>
      <trkpt lat="37.3193400912" lon="-3.1880423706">
        <ele>919.16</ele>
        <time>2020-09-06T13:50:27Z</time>
      </trkpt>
      <trkpt lat="37.3193889577" lon="-3.1880333181">
        <ele>919.16</ele>
        <time>2020-09-06T13:50:28Z</time>
      </trkpt>
      <trkpt lat="37.3194431886" lon="-3.1880299654">
        <ele>919.16</ele>
        <time>2020-09-06T13:50:29Z</time>
      </trkpt>
      <trkpt lat="37.3201403953" lon="-3.1882279459">
        <ele>916.27</ele>
        <time>2020-09-06T13:50:40Z</time>
      </trkpt>
      <trkpt lat="37.3207374383" lon="-3.1884288602">
        <ele>913.39</ele>
        <time>2020-09-06T13:50:48Z</time>
      </trkpt>
      <trkpt lat="37.3216866050" lon="-3.1885803211">
        <ele>910.99</ele>
        <time>2020-09-06T13:51:01Z</time>
      </trkpt>
      <trkpt lat="37.3217601143" lon="-3.1885594502">
        <ele>910.51</ele>
        <time>2020-09-06T13:51:02Z</time>
      </trkpt>
      <trkpt lat="37.3218324501" lon="-3.1885286048">
        <ele>910.51</ele>
        <time>2020-09-06T13:51:03Z</time>
      </trkpt>
      <trkpt lat="37.3226254620" lon="-3.1880740542">
        <ele>910.03</ele>
        <time>2020-09-06T13:51:14Z</time>
      </trkpt>
      <trkpt lat="37.3227071855" lon="-3.1880586315">
        <ele>910.03</ele>
        <time>2020-09-06T13:51:15Z</time>
      </trkpt>
      <trkpt lat="37.3227926809" lon="-3.1880536862">
        <ele>910.03</ele>
        <time>2020-09-06T13:51:16Z</time>
      </trkpt>
      <trkpt lat="37.3238518182" lon="-3.1878924184">
        <ele>908.58</ele>
        <time>2020-09-06T13:51:29Z</time>
      </trkpt>
      <trkpt lat="37.3241828196" lon="-3.1877567153">
        <ele>907.62</ele>
        <time>2020-09-06T13:51:33Z</time>
      </trkpt>
      <trkpt lat="37.3242562450" lon="-3.1876991317">
        <ele>907.62</ele>
        <time>2020-09-06T13:51:34Z</time>
      </trkpt>
      <trkpt lat="37.3247081973" lon="-3.1871266477">
        <ele>903.78</ele>
        <time>2020-09-06T13:51:41Z</time>
      </trkpt>
      <trkpt lat="37.3247755878" lon="-3.1870301720">
        <ele>902.33</ele>
        <time>2020-09-06T13:51:42Z</time>
      </trkpt>
      <trkpt lat="37.3248559702" lon="-3.1869461853">
        <ele>902.33</ele>
        <time>2020-09-06T13:51:43Z</time>
      </trkpt>
      <trkpt lat="37.3249509372" lon="-3.1868830696">
        <ele>901.37</ele>
        <time>2020-09-06T13:51:44Z</time>
      </trkpt>
      <trkpt lat="37.3250544537" lon="-3.1868442614">
        <ele>900.41</ele>
        <time>2020-09-06T13:51:45Z</time>
      </trkpt>
      <trkpt lat="37.3251650948" lon="-3.1868307665">
        <ele>899.93</ele>
        <time>2020-09-06T13:51:46Z</time>
      </trkpt>
      <trkpt lat="37.3252830282" lon="-3.1868317723">
        <ele>898.49</ele>
        <time>2020-09-06T13:51:47Z</time>
      </trkpt>
      <trkpt lat="37.3253975250" lon="-3.1868249830">
        <ele>898.01</ele>
        <time>2020-09-06T13:51:48Z</time>
      </trkpt>
      <trkpt lat="37.3255125247" lon="-3.1867964845">
        <ele>897.05</ele>
        <time>2020-09-06T13:51:49Z</time>
      </trkpt>
      <trkpt lat="37.3256260995" lon="-3.1867455225">
        <ele>896.09</ele>
        <time>2020-09-06T13:51:50Z</time>
      </trkpt>
      <trkpt lat="37.3257383332" lon="-3.1866783835">
        <ele>895.12</ele>
        <time>2020-09-06T13:51:51Z</time>
      </trkpt>
      <trkpt lat="37.3258525785" lon="-3.1866107415">
        <ele>894.16</ele>
        <time>2020-09-06T13:51:52Z</time>
      </trkpt>
      <trkpt lat="37.3259728588" lon="-3.1865669042">
        <ele>894.16</ele>
        <time>2020-09-06T13:51:53Z</time>
      </trkpt>
      <trkpt lat="37.3261036165" lon="-3.1865579356">
        <ele>893.20</ele>
        <time>2020-09-06T13:51:54Z</time>
      </trkpt>
      <trkpt lat="37.3262266628" lon="-3.1865876075">
        <ele>892.72</ele>
        <time>2020-09-06T13:51:55Z</time>
      </trkpt>
      <trkpt lat="37.3263420817" lon="-3.1866403297">
        <ele>891.76</ele>
        <time>2020-09-06T13:51:56Z</time>
      </trkpt>
      <trkpt lat="37.3264502920" lon="-3.1866959017">
        <ele>890.80</ele>
        <time>2020-09-06T13:51:57Z</time>
      </trkpt>
      <trkpt lat="37.3266515415" lon="-3.1868012622">
        <ele>890.32</ele>
        <time>2020-09-06T13:51:59Z</time>
      </trkpt>
      <trkpt lat="37.3267504480" lon="-3.1868472788">
        <ele>890.32</ele>
        <time>2020-09-06T13:52:00Z</time>
      </trkpt>
      <trkpt lat="37.3268539645" lon="-3.1868752744">
        <ele>890.32</ele>
        <time>2020-09-06T13:52:01Z</time>
      </trkpt>
      <trkpt lat="37.3269526195" lon="-3.1868787110">
        <ele>889.36</ele>
        <time>2020-09-06T13:52:02Z</time>
      </trkpt>
      <trkpt lat="37.3270508554" lon="-3.1868632883">
        <ele>888.88</ele>
        <time>2020-09-06T13:52:03Z</time>
      </trkpt>
      <trkpt lat="37.3271485884" lon="-3.1868415792">
        <ele>888.88</ele>
        <time>2020-09-06T13:52:04Z</time>
      </trkpt>
      <trkpt lat="37.3273365945" lon="-3.1867716741">
        <ele>888.40</ele>
        <time>2020-09-06T13:52:06Z</time>
      </trkpt>
      <trkpt lat="37.3274223413" lon="-3.1867140904">
        <ele>888.40</ele>
        <time>2020-09-06T13:52:07Z</time>
      </trkpt>
      <trkpt lat="37.3275042325" lon="-3.1866378151">
        <ele>887.91</ele>
        <time>2020-09-06T13:52:08Z</time>
      </trkpt>
      <trkpt lat="37.3278633133" lon="-3.1861777324">
        <ele>885.03</ele>
        <time>2020-09-06T13:52:13Z</time>
      </trkpt>
      <trkpt lat="37.3282934725" lon="-3.1855353434">
        <ele>882.15</ele>
        <time>2020-09-06T13:52:19Z</time>
      </trkpt>
      <trkpt lat="37.3284187820" lon="-3.1853334233">
        <ele>881.19</ele>
        <time>2020-09-06T13:52:21Z</time>
      </trkpt>
      <trkpt lat="37.3284850828" lon="-3.1852354389">
        <ele>881.19</ele>
        <time>2020-09-06T13:52:22Z</time>
      </trkpt>
      <trkpt lat="37.3286550678" lon="-3.1849556509">
        <ele>881.19</ele>
        <time>2020-09-06T13:52:25Z</time>
      </trkpt>
      <trkpt lat="37.3287177645" lon="-3.1848801300">
        <ele>881.19</ele>
        <time>2020-09-06T13:52:26Z</time>
      </trkpt>
      <trkpt lat="37.3287901841" lon="-3.1848140806">
        <ele>881.19</ele>
        <time>2020-09-06T13:52:27Z</time>
      </trkpt>
      <trkpt lat="37.3288793676" lon="-3.1847554073">
        <ele>881.19</ele>
        <time>2020-09-06T13:52:28Z</time>
      </trkpt>
      <trkpt lat="37.3289667908" lon="-3.1847103965">
        <ele>881.19</ele>
        <time>2020-09-06T13:52:29Z</time>
      </trkpt>
      <trkpt lat="37.3290417250" lon="-3.1846814789">
        <ele>880.71</ele>
        <time>2020-09-06T13:52:30Z</time>
      </trkpt>
      <trkpt lat="37.3291365243" lon="-3.1846501306">
        <ele>880.71</ele>
        <time>2020-09-06T13:52:31Z</time>
      </trkpt>
      <trkpt lat="37.3300516605" lon="-3.1843478791">
        <ele>876.86</ele>
        <time>2020-09-06T13:52:41Z</time>
      </trkpt>
      <trkpt lat="37.3301410116" lon="-3.1842970010">
        <ele>876.38</ele>
        <time>2020-09-06T13:52:42Z</time>
      </trkpt>
      <trkpt lat="37.3302283511" lon="-3.1842346396">
        <ele>876.38</ele>
        <time>2020-09-06T13:52:43Z</time>
      </trkpt>
      <trkpt lat="37.3303125892" lon="-3.1841602083">
        <ele>875.42</ele>
        <time>2020-09-06T13:52:44Z</time>
      </trkpt>
      <trkpt lat="37.3307486158" lon="-3.1837420352">
        <ele>872.53</ele>
        <time>2020-09-06T13:52:49Z</time>
      </trkpt>
      <trkpt lat="37.3308466841" lon="-3.1836883910">
        <ele>872.53</ele>
        <time>2020-09-06T13:52:50Z</time>
      </trkpt>
      <trkpt lat="37.3309507873" lon="-3.1836475711">
        <ele>872.05</ele>
        <time>2020-09-06T13:52:51Z</time>
      </trkpt>
      <trkpt lat="37.3320063204" lon="-3.1833384465">
        <ele>871.57</ele>
        <time>2020-09-06T13:53:02Z</time>
      </trkpt>
      <trkpt lat="37.3329105601" lon="-3.1828595884">
        <ele>871.57</ele>
        <time>2020-09-06T13:53:14Z</time>
      </trkpt>
      <trkpt lat="37.3336993810" lon="-3.1822481286">
        <ele>871.57</ele>
        <time>2020-09-06T13:53:26Z</time>
      </trkpt>
      <trkpt lat="37.3340235092" lon="-3.1819807459">
        <ele>871.57</ele>
        <time>2020-09-06T13:53:31Z</time>
      </trkpt>
      <trkpt lat="37.3340717051" lon="-3.1819032133">
        <ele>871.57</ele>
        <time>2020-09-06T13:53:32Z</time>
      </trkpt>
      <trkpt lat="37.3347923812" lon="-3.1808660366">
        <ele>870.13</ele>
        <time>2020-09-06T13:53:44Z</time>
      </trkpt>
      <trkpt lat="37.3350920342" lon="-3.1805777829">
        <ele>868.69</ele>
        <time>2020-09-06T13:53:48Z</time>
      </trkpt>
      <trkpt lat="37.3351839837" lon="-3.1805273239">
        <ele>868.21</ele>
        <time>2020-09-06T13:53:49Z</time>
      </trkpt>
      <trkpt lat="37.3352792859" lon="-3.1804868393">
        <ele>868.21</ele>
        <time>2020-09-06T13:53:50Z</time>
      </trkpt>
      <trkpt lat="37.3353793658" lon="-3.1804576702">
        <ele>867.25</ele>
        <time>2020-09-06T13:53:51Z</time>
      </trkpt>
      <trkpt lat="37.3354813736" lon="-3.1804411579">
        <ele>866.77</ele>
        <time>2020-09-06T13:53:52Z</time>
      </trkpt>
      <trkpt lat="37.3355863988" lon="-3.1804298423">
        <ele>866.77</ele>
        <time>2020-09-06T13:53:53Z</time>
      </trkpt>
      <trkpt lat="37.3367541656" lon="-3.1802545767">
        <ele>863.88</ele>
        <time>2020-09-06T13:54:05Z</time>
      </trkpt>
      <trkpt lat="37.3369922955" lon="-3.1802285090">
        <ele>865.32</ele>
        <time>2020-09-06T13:54:08Z</time>
      </trkpt>
      <trkpt lat="37.3370583449" lon="-3.1802336220">
        <ele>865.32</ele>
        <time>2020-09-06T13:54:09Z</time>
      </trkpt>
      <trkpt lat="37.3371233046" lon="-3.1802446023">
        <ele>865.32</ele>
        <time>2020-09-06T13:54:10Z</time>
      </trkpt>
      <trkpt lat="37.3371835705" lon="-3.1802627910">
        <ele>865.80</ele>
        <time>2020-09-06T13:54:11Z</time>
      </trkpt>
      <trkpt lat="37.3377982993" lon="-3.1804132462">
        <ele>869.17</ele>
        <time>2020-09-06T13:54:23Z</time>
      </trkpt>
      <trkpt lat="37.3383140378" lon="-3.1803004257">
        <ele>872.53</ele>
        <time>2020-09-06T13:54:37Z</time>
      </trkpt>
      <trkpt lat="37.3384082504" lon="-3.1802078895">
        <ele>872.53</ele>
        <time>2020-09-06T13:54:40Z</time>
      </trkpt>
      <trkpt lat="37.3384473100" lon="-3.1801720988">
        <ele>872.53</ele>
        <time>2020-09-06T13:54:41Z</time>
      </trkpt>
      <trkpt lat="37.3387822509" lon="-3.1798670813">
        <ele>869.65</ele>
        <time>2020-09-06T13:54:47Z</time>
      </trkpt>
      <trkpt lat="37.3391600233" lon="-3.1794698630">
        <ele>866.29</ele>
        <time>2020-09-06T13:54:53Z</time>
      </trkpt>
      <trkpt lat="37.3394069541" lon="-3.1791701261">
        <ele>864.36</ele>
        <time>2020-09-06T13:54:57Z</time>
      </trkpt>
      <trkpt lat="37.3394626100" lon="-3.1790770032">
        <ele>863.88</ele>
        <time>2020-09-06T13:54:58Z</time>
      </trkpt>
      <trkpt lat="37.3395102192" lon="-3.1789737381">
        <ele>862.92</ele>
        <time>2020-09-06T13:54:59Z</time>
      </trkpt>
      <trkpt lat="37.3395486083" lon="-3.1788621750">
        <ele>862.92</ele>
        <time>2020-09-06T13:55:00Z</time>
      </trkpt>
      <trkpt lat="37.3395761009" lon="-3.1787450798">
        <ele>861.96</ele>
        <time>2020-09-06T13:55:01Z</time>
      </trkpt>
      <trkpt lat="37.3395945411" lon="-3.1786235422">
        <ele>861.48</ele>
        <time>2020-09-06T13:55:02Z</time>
      </trkpt>
      <trkpt lat="37.3396103829" lon="-3.1784982327">
        <ele>860.52</ele>
        <time>2020-09-06T13:55:03Z</time>
      </trkpt>
      <trkpt lat="37.3396529630" lon="-3.1782360468">
        <ele>860.04</ele>
        <time>2020-09-06T13:55:05Z</time>
      </trkpt>
      <trkpt lat="37.3396881670" lon="-3.1780972425">
        <ele>859.08</ele>
        <time>2020-09-06T13:55:06Z</time>
      </trkpt>
      <trkpt lat="37.3397272266" lon="-3.1779853441">
        <ele>858.11</ele>
        <time>2020-09-06T13:55:07Z</time>
      </trkpt>
      <trkpt lat="37.3397769313" lon="-3.1778622139">
        <ele>858.11</ele>
        <time>2020-09-06T13:55:08Z</time>
      </trkpt>
      <trkpt lat="37.3398333415" lon="-3.1777389161">
        <ele>857.63</ele>
        <time>2020-09-06T13:55:09Z</time>
      </trkpt>
      <trkpt lat="37.3398953676" lon="-3.1776173785">
        <ele>857.15</ele>
        <time>2020-09-06T13:55:10Z</time>
      </trkpt>
      <trkpt lat="37.3405869585" lon="-3.1767056789">
        <ele>853.79</ele>
        <time>2020-09-06T13:55:18Z</time>
      </trkpt>
      <trkpt lat="37.3416662123" lon="-3.1756070629">
        <ele>850.90</ele>
        <time>2020-09-06T13:55:30Z</time>
      </trkpt>
      <trkpt lat="37.3428667523" lon="-3.1740363780">
        <ele>850.42</ele>
        <time>2020-09-06T13:55:46Z</time>
      </trkpt>
      <trkpt lat="37.3438313417" lon="-3.1728214212">
        <ele>851.87</ele>
        <time>2020-09-06T13:56:01Z</time>
      </trkpt>
      <trkpt lat="37.3447328154" lon="-3.1716721784">
        <ele>852.83</ele>
        <time>2020-09-06T13:56:17Z</time>
      </trkpt>
      <trkpt lat="37.3452752922" lon="-3.1706714630">
        <ele>853.31</ele>
        <time>2020-09-06T13:56:30Z</time>
      </trkpt>
      <trkpt lat="37.3452906311" lon="-3.1705831178">
        <ele>853.31</ele>
        <time>2020-09-06T13:56:31Z</time>
      </trkpt>
      <trkpt lat="37.3452929780" lon="-3.1705007236">
        <ele>853.31</ele>
        <time>2020-09-06T13:56:32Z</time>
      </trkpt>
      <trkpt lat="37.3452993482" lon="-3.1704140548">
        <ele>853.31</ele>
        <time>2020-09-06T13:56:33Z</time>
      </trkpt>
      <trkpt lat="37.3453187104" lon="-3.1703299843">
        <ele>853.31</ele>
        <time>2020-09-06T13:56:34Z</time>
      </trkpt>
      <trkpt lat="37.3453538306" lon="-3.1702520326">
        <ele>853.31</ele>
        <time>2020-09-06T13:56:35Z</time>
      </trkpt>
      <trkpt lat="37.3454057146" lon="-3.1701895874">
        <ele>853.31</ele>
        <time>2020-09-06T13:56:36Z</time>
      </trkpt>
      <trkpt lat="37.3454662319" lon="-3.1701454986">
        <ele>853.79</ele>
        <time>2020-09-06T13:56:37Z</time>
      </trkpt>
      <trkpt lat="37.3455285095" lon="-3.1701136474">
        <ele>853.79</ele>
        <time>2020-09-06T13:56:38Z</time>
      </trkpt>
      <trkpt lat="37.3455891944" lon="-3.1700840592">
        <ele>853.79</ele>
        <time>2020-09-06T13:56:39Z</time>
      </trkpt>
      <trkpt lat="37.3456467781" lon="-3.1700478494">
        <ele>854.27</ele>
        <time>2020-09-06T13:56:40Z</time>
      </trkpt>
      <trkpt lat="37.3457016796" lon="-3.1700062752">
        <ele>854.27</ele>
        <time>2020-09-06T13:56:41Z</time>
      </trkpt>
      <trkpt lat="37.3457536474" lon="-3.1699620187">
        <ele>854.27</ele>
        <time>2020-09-06T13:56:42Z</time>
      </trkpt>
      <trkpt lat="37.3458030168" lon="-3.1699168403">
        <ele>854.27</ele>
        <time>2020-09-06T13:56:43Z</time>
      </trkpt>
      <trkpt lat="37.3465823662" lon="-3.1694734376">
        <ele>856.19</ele>
        <time>2020-09-06T13:56:58Z</time>
      </trkpt>
      <trkpt lat="37.3469055723" lon="-3.1694321986">
        <ele>858.11</ele>
        <time>2020-09-06T13:57:04Z</time>
      </trkpt>
      <trkpt lat="37.3469542712" lon="-3.1694380660">
        <ele>858.11</ele>
        <time>2020-09-06T13:57:05Z</time>
      </trkpt>
      <trkpt lat="37.3477357998" lon="-3.1695689913">
        <ele>859.56</ele>
        <time>2020-09-06T13:57:21Z</time>
      </trkpt>
      <trkpt lat="37.3477801401" lon="-3.1695636269">
        <ele>859.56</ele>
        <time>2020-09-06T13:57:22Z</time>
      </trkpt>
      <trkpt lat="37.3478231393" lon="-3.1695515569">
        <ele>860.04</ele>
        <time>2020-09-06T13:57:23Z</time>
      </trkpt>
      <trkpt lat="37.3478647973" lon="-3.1695357990">
        <ele>860.04</ele>
        <time>2020-09-06T13:57:24Z</time>
      </trkpt>
      <trkpt lat="37.3479033541" lon="-3.1695170235">
        <ele>860.04</ele>
        <time>2020-09-06T13:57:25Z</time>
      </trkpt>
      <trkpt lat="37.3479381390" lon="-3.1694934703">
        <ele>860.04</ele>
        <time>2020-09-06T13:57:26Z</time>
      </trkpt>
      <trkpt lat="37.3479723372" lon="-3.1694667321">
        <ele>861.00</ele>
        <time>2020-09-06T13:57:27Z</time>
      </trkpt>
      <trkpt lat="37.3483912647" lon="-3.1691509020">
        <ele>863.40</ele>
        <time>2020-09-06T13:57:41Z</time>
      </trkpt>
      <trkpt lat="37.3487485852" lon="-3.1691722758">
        <ele>866.29</ele>
        <time>2020-09-06T13:57:53Z</time>
      </trkpt>
      <trkpt lat="37.3487745691" lon="-3.1691802386">
        <ele>866.29</ele>
        <time>2020-09-06T13:57:54Z</time>
      </trkpt>
      <trkpt lat="37.3488026485" lon="-3.1691899616">
        <ele>866.77</ele>
        <time>2020-09-06T13:57:55Z</time>
      </trkpt>
      <trkpt lat="37.3488376848" lon="-3.1692051329">
        <ele>866.77</ele>
        <time>2020-09-06T13:57:56Z</time>
      </trkpt>
      <trkpt lat="37.3488744814" lon="-3.1692244951">
        <ele>866.77</ele>
        <time>2020-09-06T13:57:57Z</time>
      </trkpt>
      <trkpt lat="37.3489123676" lon="-3.1692486349">
        <ele>866.77</ele>
        <time>2020-09-06T13:57:58Z</time>
      </trkpt>
      <trkpt lat="37.3489524331" lon="-3.1692788098">
        <ele>866.77</ele>
        <time>2020-09-06T13:57:59Z</time>
      </trkpt>
      <trkpt lat="37.3489909060" lon="-3.1693146843">
        <ele>866.77</ele>
        <time>2020-09-06T13:58:00Z</time>
      </trkpt>
      <trkpt lat="37.3490648344" lon="-3.1693936419">
        <ele>866.77</ele>
        <time>2020-09-06T13:58:02Z</time>
      </trkpt>
      <trkpt lat="37.3491377570" lon="-3.1694782991">
        <ele>865.32</ele>
        <time>2020-09-06T13:58:04Z</time>
      </trkpt>
      <trkpt lat="37.3495418485" lon="-3.1699778605">
        <ele>864.36</ele>
        <time>2020-09-06T13:58:15Z</time>
      </trkpt>
      <trkpt lat="37.3495847639" lon="-3.1700123101">
        <ele>864.36</ele>
        <time>2020-09-06T13:58:16Z</time>
      </trkpt>
      <trkpt lat="37.3496322054" lon="-3.1700395513">
        <ele>864.36</ele>
        <time>2020-09-06T13:58:17Z</time>
      </trkpt>
      <trkpt lat="37.3496856820" lon="-3.1700579077">
        <ele>864.36</ele>
        <time>2020-09-06T13:58:18Z</time>
      </trkpt>
      <trkpt lat="37.3497379851" lon="-3.1700640265">
        <ele>864.36</ele>
        <time>2020-09-06T13:58:19Z</time>
      </trkpt>
      <trkpt lat="37.3497919645" lon="-3.1700603385">
        <ele>864.36</ele>
        <time>2020-09-06T13:58:20Z</time>
      </trkpt>
      <trkpt lat="37.3498444352" lon="-3.1700497773">
        <ele>864.36</ele>
        <time>2020-09-06T13:58:21Z</time>
      </trkpt>
      <trkpt lat="37.3498938046" lon="-3.1700361986">
        <ele>864.36</ele>
        <time>2020-09-06T13:58:22Z</time>
      </trkpt>
      <trkpt lat="37.3499440961" lon="-3.1700191833">
        <ele>864.36</ele>
        <time>2020-09-06T13:58:23Z</time>
      </trkpt>
      <trkpt lat="37.3504782747" lon="-3.1698548142">
        <ele>865.80</ele>
        <time>2020-09-06T13:58:34Z</time>
      </trkpt>
      <trkpt lat="37.3512301315" lon="-3.1696238089">
        <ele>866.77</ele>
        <time>2020-09-06T13:58:49Z</time>
      </trkpt>
      <trkpt lat="37.3513680976" lon="-3.1695491262">
        <ele>866.77</ele>
        <time>2020-09-06T13:58:52Z</time>
      </trkpt>
      <trkpt lat="37.3514030501" lon="-3.1695104018">
        <ele>866.77</ele>
        <time>2020-09-06T13:58:53Z</time>
      </trkpt>
      <trkpt lat="37.3514295369" lon="-3.1694598589">
        <ele>867.25</ele>
        <time>2020-09-06T13:58:54Z</time>
      </trkpt>
      <trkpt lat="37.3514438700" lon="-3.1694071367">
        <ele>867.25</ele>
        <time>2020-09-06T13:58:55Z</time>
      </trkpt>
      <trkpt lat="37.3514519166" lon="-3.1693539955">
        <ele>867.25</ele>
        <time>2020-09-06T13:58:56Z</time>
      </trkpt>
      <trkpt lat="37.3514531739" lon="-3.1693028659">
        <ele>867.25</ele>
        <time>2020-09-06T13:58:57Z</time>
      </trkpt>
      <trkpt lat="37.3514505755" lon="-3.1692538317">
        <ele>867.73</ele>
        <time>2020-09-06T13:58:58Z</time>
      </trkpt>
      <trkpt lat="37.3513997812" lon="-3.1685492489">
        <ele>870.61</ele>
        <time>2020-09-06T13:59:13Z</time>
      </trkpt>
      <trkpt lat="37.3515393399" lon="-3.1679938640">
        <ele>873.01</ele>
        <time>2020-09-06T13:59:26Z</time>
      </trkpt>
      <trkpt lat="37.3517784756" lon="-3.1676602643">
        <ele>873.98</ele>
        <time>2020-09-06T13:59:35Z</time>
      </trkpt>
      <trkpt lat="37.3518032860" lon="-3.1676181033">
        <ele>873.98</ele>
        <time>2020-09-06T13:59:36Z</time>
      </trkpt>
      <trkpt lat="37.3519099038" lon="-3.1673973240">
        <ele>874.46</ele>
        <time>2020-09-06T13:59:41Z</time>
      </trkpt>
      <trkpt lat="37.3519169446" lon="-3.1673426740">
        <ele>874.46</ele>
        <time>2020-09-06T13:59:42Z</time>
      </trkpt>
      <trkpt lat="37.3519219737" lon="-3.1672897842">
        <ele>874.46</ele>
        <time>2020-09-06T13:59:43Z</time>
      </trkpt>
      <trkpt lat="37.3520050384" lon="-3.1666214950">
        <ele>874.46</ele>
        <time>2020-09-06T13:59:55Z</time>
      </trkpt>
      <trkpt lat="37.3520217184" lon="-3.1663311459">
        <ele>874.46</ele>
        <time>2020-09-06T14:00:01Z</time>
      </trkpt>
      <trkpt lat="37.3520238977" lon="-3.1662789267">
        <ele>874.46</ele>
        <time>2020-09-06T14:00:02Z</time>
      </trkpt>
      <trkpt lat="37.3520250712" lon="-3.1662272103">
        <ele>874.94</ele>
        <time>2020-09-06T14:00:03Z</time>
      </trkpt>
      <trkpt lat="37.3520239815" lon="-3.1661777571">
        <ele>874.94</ele>
        <time>2020-09-06T14:00:04Z</time>
      </trkpt>
      <trkpt lat="37.3520309385" lon="-3.1661295611">
        <ele>874.94</ele>
        <time>2020-09-06T14:00:05Z</time>
      </trkpt>
      <trkpt lat="37.3520350456" lon="-3.1660841312">
        <ele>874.94</ele>
        <time>2020-09-06T14:00:06Z</time>
      </trkpt>
      <trkpt lat="37.3520381469" lon="-3.1660345104">
        <ele>875.42</ele>
        <time>2020-09-06T14:00:07Z</time>
      </trkpt>
      <trkpt lat="37.3520418350" lon="-3.1659862306">
        <ele>875.42</ele>
        <time>2020-09-06T14:00:08Z</time>
      </trkpt>
      <trkpt lat="37.3520391528" lon="-3.1658268906">
        <ele>875.42</ele>
        <time>2020-09-06T14:00:11Z</time>
      </trkpt>
      <trkpt lat="37.3520329501" lon="-3.1657753419">
        <ele>875.42</ele>
        <time>2020-09-06T14:00:12Z</time>
      </trkpt>
      <trkpt lat="37.3520383146" lon="-3.1656305026">
        <ele>875.90</ele>
        <time>2020-09-06T14:00:15Z</time>
      </trkpt>
      <trkpt lat="37.3520656396" lon="-3.1656053569">
        <ele>875.90</ele>
        <time>2020-09-06T14:00:16Z</time>
      </trkpt>
      <trkpt lat="37.3520931322" lon="-3.1656072848">
        <ele>875.90</ele>
        <time>2020-09-06T14:00:17Z</time>
      </trkpt>
      <trkpt lat="37.3521163501" lon="-3.1656279881">
        <ele>875.90</ele>
        <time>2020-09-06T14:00:18Z</time>
      </trkpt>
      <trkpt lat="37.3521295935" lon="-3.1656570733">
        <ele>875.90</ele>
        <time>2020-09-06T14:00:19Z</time>
      </trkpt>
      <trkpt lat="37.3521465249" lon="-3.1656937022">
        <ele>875.90</ele>
        <time>2020-09-06T14:00:20Z</time>
      </trkpt>
      <trkpt lat="37.3521698266" lon="-3.1657228712">
        <ele>875.90</ele>
        <time>2020-09-06T14:00:21Z</time>
      </trkpt>
      <trkpt lat="37.3521866743" lon="-3.1657354441">
        <ele>875.90</ele>
        <time>2020-09-06T14:00:22Z</time>
      </trkpt>
      <trkpt lat="37.3522012588" lon="-3.1657481845">
        <ele>875.90</ele>
        <time>2020-09-06T14:00:23Z</time>
      </trkpt>
      <trkpt lat="37.3522222135" lon="-3.1657703966">
        <ele>875.90</ele>
        <time>2020-09-06T14:00:24Z</time>
      </trkpt>
      <trkpt lat="37.3522550706" lon="-3.1658019125">
        <ele>875.90</ele>
        <time>2020-09-06T14:00:33Z</time>
      </trkpt>
      <trkpt lat="37.3522446770" lon="-3.1658086181">
        <ele>875.90</ele>
        <time>2020-09-06T14:01:01Z</time>
      </trkpt>
      <trkpt lat="37.3522262368" lon="-3.1658016611">
        <ele>875.90</ele>
        <time>2020-09-06T14:01:22Z</time>
      </trkpt>
      <trkpt lat="37.3522409052" lon="-3.1658061873">
        <ele>875.90</ele>
        <time>2020-09-06T14:01:43Z</time>
      </trkpt>
      <trkpt lat="37.3522359598" lon="-3.1658260524">
        <ele>875.90</ele>
        <time>2020-09-06T14:02:11Z</time>
      </trkpt>
      <trkpt lat="37.3522373848" lon="-3.1658403855">
        <ele>875.90</ele>
        <time>2020-09-06T14:02:33Z</time>
      </trkpt>
      <trkpt lat="37.3522399832" lon="-3.1658563111">
        <ele>875.90</ele>
        <time>2020-09-06T14:02:50Z</time>
      </trkpt>
      <trkpt lat="37.3522541486" lon="-3.1658734102">
        <ele>875.90</ele>
        <time>2020-09-06T14:03:20Z</time>
      </trkpt>
      <trkpt lat="37.3522627819" lon="-3.1658834685">
        <ele>875.90</ele>
        <time>2020-09-06T14:03:47Z</time>
      </trkpt>
      <trkpt lat="37.3522655480" lon="-3.1658610888">
        <ele>875.90</ele>
        <time>2020-09-06T14:04:12Z</time>
      </trkpt>
      <trkpt lat="37.3522579204" lon="-3.1658199336">
        <ele>875.90</ele>
        <time>2020-09-06T14:04:51Z</time>
      </trkpt>
      <trkpt lat="37.3522303440" lon="-3.1657897588">
        <ele>875.90</ele>
        <time>2020-09-06T14:05:25Z</time>
      </trkpt>
      <trkpt lat="37.3522389773" lon="-3.1658033375">
        <ele>875.90</ele>
        <time>2020-09-06T14:05:40Z</time>
      </trkpt>
      <trkpt lat="37.3522404023" lon="-3.1657822151">
        <ele>875.90</ele>
        <time>2020-09-06T14:06:02Z</time>
      </trkpt>
      <trkpt lat="37.3522278294" lon="-3.1657755096">
        <ele>875.90</ele>
        <time>2020-09-06T14:06:03Z</time>
      </trkpt>
      <trkpt lat="37.3522167653" lon="-3.1657667924">
        <ele>875.90</ele>
        <time>2020-09-06T14:06:04Z</time>
      </trkpt>
      <trkpt lat="37.3522017617" lon="-3.1657560635">
        <ele>875.90</ele>
        <time>2020-09-06T14:06:05Z</time>
      </trkpt>
      <trkpt lat="37.3521826509" lon="-3.1657398026">
        <ele>875.90</ele>
        <time>2020-09-06T14:06:06Z</time>
      </trkpt>
      <trkpt lat="37.3521674797" lon="-3.1657223683">
        <ele>875.90</ele>
        <time>2020-09-06T14:06:07Z</time>
      </trkpt>
      <trkpt lat="37.3521548230" lon="-3.1656994857">
        <ele>875.90</ele>
        <time>2020-09-06T14:06:08Z</time>
      </trkpt>
      <trkpt lat="37.3521479499" lon="-3.1656654552">
        <ele>875.90</ele>
        <time>2020-09-06T14:06:09Z</time>
      </trkpt>
      <trkpt lat="37.3521527275" lon="-3.1656320114">
        <ele>875.90</ele>
        <time>2020-09-06T14:06:10Z</time>
      </trkpt>
      <trkpt lat="37.3521598522" lon="-3.1656045187">
        <ele>875.90</ele>
        <time>2020-09-06T14:06:11Z</time>
      </trkpt>
      <trkpt lat="37.3521721736" lon="-3.1655691471">
        <ele>875.90</ele>
        <time>2020-09-06T14:06:12Z</time>
      </trkpt>
      <trkpt lat="37.3521897756" lon="-3.1655398943">
        <ele>875.90</ele>
        <time>2020-09-06T14:06:13Z</time>
      </trkpt>
      <trkpt lat="37.3522085510" lon="-3.1655111443">
        <ele>875.90</ele>
        <time>2020-09-06T14:06:14Z</time>
      </trkpt>
      <trkpt lat="37.3522254825" lon="-3.1654848251">
        <ele>875.90</ele>
        <time>2020-09-06T14:06:15Z</time>
      </trkpt>
      <trkpt lat="37.3524380475" lon="-3.1652603578">
        <ele>876.38</ele>
        <time>2020-09-06T14:06:24Z</time>
      </trkpt>
      <trkpt lat="37.3524901830" lon="-3.1652482878">
        <ele>876.38</ele>
        <time>2020-09-06T14:06:25Z</time>
      </trkpt>
      <trkpt lat="37.3527484294" lon="-3.1652103178">
        <ele>876.38</ele>
        <time>2020-09-06T14:06:31Z</time>
      </trkpt>
      <trkpt lat="37.3529003933" lon="-3.1651901174">
        <ele>874.94</ele>
        <time>2020-09-06T14:06:34Z</time>
      </trkpt>
      <trkpt lat="37.3536031321" lon="-3.1650525704">
        <ele>874.46</ele>
        <time>2020-09-06T14:06:47Z</time>
      </trkpt>
      <trkpt lat="37.3537027929" lon="-3.1650065538">
        <ele>873.98</ele>
        <time>2020-09-06T14:06:49Z</time>
      </trkpt>
      <trkpt lat="37.3537506536" lon="-3.1649712659">
        <ele>873.98</ele>
        <time>2020-09-06T14:06:50Z</time>
      </trkpt>
      <trkpt lat="37.3537928145" lon="-3.1649284344">
        <ele>873.98</ele>
        <time>2020-09-06T14:06:51Z</time>
      </trkpt>
      <trkpt lat="37.3538333829" lon="-3.1648746226">
        <ele>873.98</ele>
        <time>2020-09-06T14:06:52Z</time>
      </trkpt>
      <trkpt lat="37.3538710177" lon="-3.1648135185">
        <ele>873.98</ele>
        <time>2020-09-06T14:06:53Z</time>
      </trkpt>
      <trkpt lat="37.3538992647" lon="-3.1647626404">
        <ele>873.98</ele>
        <time>2020-09-06T14:06:54Z</time>
      </trkpt>
      <trkpt lat="37.3540946469" lon="-3.1642846204">
        <ele>873.98</ele>
        <time>2020-09-06T14:07:02Z</time>
      </trkpt>
      <trkpt lat="37.3541171942" lon="-3.1642048247">
        <ele>873.98</ele>
        <time>2020-09-06T14:07:03Z</time>
      </trkpt>
      <trkpt lat="37.3541302700" lon="-3.1641400326">
        <ele>873.98</ele>
        <time>2020-09-06T14:07:04Z</time>
      </trkpt>
      <trkpt lat="37.3541989177" lon="-3.1633006688">
        <ele>871.09</ele>
        <time>2020-09-06T14:07:14Z</time>
      </trkpt>
      <trkpt lat="37.3542466108" lon="-3.1631729286">
        <ele>871.09</ele>
        <time>2020-09-06T14:07:16Z</time>
      </trkpt>
      <trkpt lat="37.3542885203" lon="-3.1631271634">
        <ele>871.09</ele>
        <time>2020-09-06T14:07:17Z</time>
      </trkpt>
      <trkpt lat="37.3543446790" lon="-3.1630922109">
        <ele>871.09</ele>
        <time>2020-09-06T14:07:18Z</time>
      </trkpt>
      <trkpt lat="37.3543967307" lon="-3.1630741898">
        <ele>871.09</ele>
        <time>2020-09-06T14:07:19Z</time>
      </trkpt>
      <trkpt lat="37.3544487823" lon="-3.1630596891">
        <ele>871.09</ele>
        <time>2020-09-06T14:07:20Z</time>
      </trkpt>
      <trkpt lat="37.3545995727" lon="-3.1630214676">
        <ele>872.53</ele>
        <time>2020-09-06T14:07:23Z</time>
      </trkpt>
      <trkpt lat="37.3547398858" lon="-3.1629901193">
        <ele>873.50</ele>
        <time>2020-09-06T14:07:26Z</time>
      </trkpt>
      <trkpt lat="37.3547934461" lon="-3.1629803963">
        <ele>873.50</ele>
        <time>2020-09-06T14:07:27Z</time>
      </trkpt>
      <trkpt lat="37.3549600784" lon="-3.1629342958">
        <ele>873.50</ele>
        <time>2020-09-06T14:07:30Z</time>
      </trkpt>
      <trkpt lat="37.3550177459" lon="-3.1629056297">
        <ele>873.50</ele>
        <time>2020-09-06T14:07:31Z</time>
      </trkpt>
      <trkpt lat="37.3550734017" lon="-3.1628656480">
        <ele>872.05</ele>
        <time>2020-09-06T14:07:32Z</time>
      </trkpt>
      <trkpt lat="37.3551253695" lon="-3.1628131773">
        <ele>872.05</ele>
        <time>2020-09-06T14:07:33Z</time>
      </trkpt>
      <trkpt lat="37.3551711347" lon="-3.1627508998">
        <ele>871.57</ele>
        <time>2020-09-06T14:07:34Z</time>
      </trkpt>
      <trkpt lat="37.3552122898" lon="-3.1626772229">
        <ele>871.57</ele>
        <time>2020-09-06T14:07:35Z</time>
      </trkpt>
      <trkpt lat="37.3552474938" lon="-3.1626032945">
        <ele>871.57</ele>
        <time>2020-09-06T14:07:36Z</time>
      </trkpt>
      <trkpt lat="37.3553581350" lon="-3.1623798329">
        <ele>871.57</ele>
        <time>2020-09-06T14:07:39Z</time>
      </trkpt>
      <trkpt lat="37.3556503281" lon="-3.1619760767">
        <ele>870.61</ele>
        <time>2020-09-06T14:07:46Z</time>
      </trkpt>
      <trkpt lat="37.3556986079" lon="-3.1619509310">
        <ele>870.61</ele>
        <time>2020-09-06T14:07:47Z</time>
      </trkpt>
      <trkpt lat="37.3557493184" lon="-3.1619490869">
        <ele>870.61</ele>
        <time>2020-09-06T14:07:48Z</time>
      </trkpt>
      <trkpt lat="37.3557957541" lon="-3.1619603187">
        <ele>870.61</ele>
        <time>2020-09-06T14:07:49Z</time>
      </trkpt>
      <trkpt lat="37.3558461294" lon="-3.1619799323">
        <ele>870.61</ele>
        <time>2020-09-06T14:07:50Z</time>
      </trkpt>
      <trkpt lat="37.3559913039" lon="-3.1620349176">
        <ele>870.61</ele>
        <time>2020-09-06T14:07:53Z</time>
      </trkpt>
      <trkpt lat="37.3560428526" lon="-3.1620411202">
        <ele>870.61</ele>
        <time>2020-09-06T14:07:54Z</time>
      </trkpt>
      <trkpt lat="37.3560933955" lon="-3.1620359235">
        <ele>870.61</ele>
        <time>2020-09-06T14:07:55Z</time>
      </trkpt>
      <trkpt lat="37.3561466206" lon="-3.1620148011">
        <ele>872.05</ele>
        <time>2020-09-06T14:07:56Z</time>
      </trkpt>
      <trkpt lat="37.3561936431" lon="-3.1619884819">
        <ele>872.05</ele>
        <time>2020-09-06T14:07:57Z</time>
      </trkpt>
      <trkpt lat="37.3562420066" lon="-3.1619605701">
        <ele>872.05</ele>
        <time>2020-09-06T14:07:58Z</time>
      </trkpt>
      <trkpt lat="37.3563396558" lon="-3.1619112007">
        <ele>872.05</ele>
        <time>2020-09-06T14:08:00Z</time>
      </trkpt>
      <trkpt lat="37.3563912883" lon="-3.1618976220">
        <ele>872.05</ele>
        <time>2020-09-06T14:08:01Z</time>
      </trkpt>
      <trkpt lat="37.3564431723" lon="-3.1618899945">
        <ele>872.05</ele>
        <time>2020-09-06T14:08:02Z</time>
      </trkpt>
      <trkpt lat="37.3566025961" lon="-3.1618685368">
        <ele>872.05</ele>
        <time>2020-09-06T14:08:05Z</time>
      </trkpt>
      <trkpt lat="37.3566552345" lon="-3.1618500128">
        <ele>872.05</ele>
        <time>2020-09-06T14:08:06Z</time>
      </trkpt>
      <trkpt lat="37.3567022569" lon="-3.1618283875">
        <ele>872.05</ele>
        <time>2020-09-06T14:08:07Z</time>
      </trkpt>
      <trkpt lat="37.3567489441" lon="-3.1618028227">
        <ele>872.53</ele>
        <time>2020-09-06T14:08:08Z</time>
      </trkpt>
      <trkpt lat="37.3567941226" lon="-3.1617714744">
        <ele>872.53</ele>
        <time>2020-09-06T14:08:09Z</time>
      </trkpt>
      <trkpt lat="37.3568333499" lon="-3.1617436465">
        <ele>872.53</ele>
        <time>2020-09-06T14:08:10Z</time>
      </trkpt>
      <trkpt lat="37.3572243657" lon="-3.1614988111">
        <ele>874.94</ele>
        <time>2020-09-06T14:08:21Z</time>
      </trkpt>
      <trkpt lat="37.3576538544" lon="-3.1611512136">
        <ele>877.82</ele>
        <time>2020-09-06T14:08:34Z</time>
      </trkpt>
      <trkpt lat="37.3576858733" lon="-3.1611220445">
        <ele>877.82</ele>
        <time>2020-09-06T14:08:35Z</time>
      </trkpt>
      <trkpt lat="37.3577214126" lon="-3.1611077953">
        <ele>877.82</ele>
        <time>2020-09-06T14:08:36Z</time>
      </trkpt>
      <trkpt lat="37.3577609751" lon="-3.1611083820">
        <ele>877.82</ele>
        <time>2020-09-06T14:08:37Z</time>
      </trkpt>
      <trkpt lat="37.3578033876" lon="-3.1611131597">
        <ele>877.82</ele>
        <time>2020-09-06T14:08:38Z</time>
      </trkpt>
      <trkpt lat="37.3578478117" lon="-3.1611191947">
        <ele>877.82</ele>
        <time>2020-09-06T14:08:39Z</time>
      </trkpt>
      <trkpt lat="37.3586736806" lon="-3.1611915305">
        <ele>877.34</ele>
        <time>2020-09-06T14:08:55Z</time>
      </trkpt>
      <trkpt lat="37.3588095512" lon="-3.1611465197">
        <ele>878.30</ele>
        <time>2020-09-06T14:08:58Z</time>
      </trkpt>
      <trkpt lat="37.3591798637" lon="-3.1608714256">
        <ele>881.19</ele>
        <time>2020-09-06T14:09:11Z</time>
      </trkpt>
      <trkpt lat="37.3594503477" lon="-3.1604102533">
        <ele>884.07</ele>
        <time>2020-09-06T14:09:26Z</time>
      </trkpt>
      <trkpt lat="37.3596671876" lon="-3.1601377577">
        <ele>883.11</ele>
        <time>2020-09-06T14:09:33Z</time>
      </trkpt>
      <trkpt lat="37.3598311376" lon="-3.1600085925">
        <ele>881.67</ele>
        <time>2020-09-06T14:09:36Z</time>
      </trkpt>
      <trkpt lat="37.3600900546" lon="-3.1598374341">
        <ele>879.26</ele>
        <time>2020-09-06T14:09:40Z</time>
      </trkpt>
      <trkpt lat="37.3601654079" lon="-3.1598133780">
        <ele>879.26</ele>
        <time>2020-09-06T14:09:41Z</time>
      </trkpt>
      <trkpt lat="37.3604021128" lon="-3.1597551238">
        <ele>877.82</ele>
        <time>2020-09-06T14:09:44Z</time>
      </trkpt>
      <trkpt lat="37.3604727723" lon="-3.1597217638">
        <ele>877.34</ele>
        <time>2020-09-06T14:09:45Z</time>
      </trkpt>
      <trkpt lat="37.3605388217" lon="-3.1596706342">
        <ele>877.34</ele>
        <time>2020-09-06T14:09:46Z</time>
      </trkpt>
      <trkpt lat="37.3605980817" lon="-3.1596062612">
        <ele>876.38</ele>
        <time>2020-09-06T14:09:47Z</time>
      </trkpt>
      <trkpt lat="37.3606513906" lon="-3.1595364399">
        <ele>875.90</ele>
        <time>2020-09-06T14:09:48Z</time>
      </trkpt>
      <trkpt lat="37.3607067950" lon="-3.1594679598">
        <ele>875.90</ele>
        <time>2020-09-06T14:09:49Z</time>
      </trkpt>
      <trkpt lat="37.3607712518" lon="-3.1594164949">
        <ele>875.90</ele>
        <time>2020-09-06T14:09:50Z</time>
      </trkpt>
      <trkpt lat="37.3608450126" lon="-3.1593856495">
        <ele>874.94</ele>
        <time>2020-09-06T14:09:51Z</time>
      </trkpt>
      <trkpt lat="37.3609284125" lon="-3.1593681313">
        <ele>874.94</ele>
        <time>2020-09-06T14:09:52Z</time>
      </trkpt>
      <trkpt lat="37.3610084597" lon="-3.1593569834">
        <ele>874.46</ele>
        <time>2020-09-06T14:09:53Z</time>
      </trkpt>
      <trkpt lat="37.3611631058" lon="-3.1593180913">
        <ele>873.98</ele>
        <time>2020-09-06T14:09:55Z</time>
      </trkpt>
      <trkpt lat="37.3612347711" lon="-3.1592773553">
        <ele>873.98</ele>
        <time>2020-09-06T14:09:56Z</time>
      </trkpt>
      <trkpt lat="37.3612962943" lon="-3.1592265610">
        <ele>873.98</ele>
        <time>2020-09-06T14:09:57Z</time>
      </trkpt>
      <trkpt lat="37.3613366950" lon="-3.1591839809">
        <ele>873.98</ele>
        <time>2020-09-06T14:09:58Z</time>
      </trkpt>
      <trkpt lat="37.3613858130" lon="-3.1591245532">
        <ele>873.50</ele>
        <time>2020-09-06T14:09:59Z</time>
      </trkpt>
      <trkpt lat="37.3614362720" lon="-3.1590734236">
        <ele>873.50</ele>
        <time>2020-09-06T14:10:00Z</time>
      </trkpt>
      <trkpt lat="37.3614924308" lon="-3.1590340286">
        <ele>873.50</ele>
        <time>2020-09-06T14:10:01Z</time>
      </trkpt>
      <trkpt lat="37.3615549598" lon="-3.1590129063">
        <ele>872.53</ele>
        <time>2020-09-06T14:10:02Z</time>
      </trkpt>
      <trkpt lat="37.3616189137" lon="-3.1590113975">
        <ele>872.53</ele>
        <time>2020-09-06T14:10:03Z</time>
      </trkpt>
      <trkpt lat="37.3616805207" lon="-3.1590264011">
        <ele>872.05</ele>
        <time>2020-09-06T14:10:04Z</time>
      </trkpt>
      <trkpt lat="37.3617401160" lon="-3.1590512954">
        <ele>872.05</ele>
        <time>2020-09-06T14:10:05Z</time>
      </trkpt>
      <trkpt lat="37.3617997114" lon="-3.1590787880">
        <ele>872.05</ele>
        <time>2020-09-06T14:10:06Z</time>
      </trkpt>
      <trkpt lat="37.3619733006" lon="-3.1591381319">
        <ele>871.57</ele>
        <time>2020-09-06T14:10:09Z</time>
      </trkpt>
      <trkpt lat="37.3620982748" lon="-3.1591667980">
        <ele>871.57</ele>
        <time>2020-09-06T14:10:11Z</time>
      </trkpt>
      <trkpt lat="37.3621556070" lon="-3.1591916084">
        <ele>871.09</ele>
        <time>2020-09-06T14:10:12Z</time>
      </trkpt>
      <trkpt lat="37.3622136097" lon="-3.1592264771">
        <ele>871.09</ele>
        <time>2020-09-06T14:10:13Z</time>
      </trkpt>
      <trkpt lat="37.3622635659" lon="-3.1592724100">
        <ele>871.09</ele>
        <time>2020-09-06T14:10:14Z</time>
      </trkpt>
      <trkpt lat="37.3623101693" lon="-3.1593237910">
        <ele>871.09</ele>
        <time>2020-09-06T14:10:15Z</time>
      </trkpt>
      <trkpt lat="37.3624038789" lon="-3.1594138965">
        <ele>870.61</ele>
        <time>2020-09-06T14:10:17Z</time>
      </trkpt>
      <trkpt lat="37.3624575231" lon="-3.1594392098">
        <ele>870.61</ele>
        <time>2020-09-06T14:10:18Z</time>
      </trkpt>
      <trkpt lat="37.3625115026" lon="-3.1594472565">
        <ele>870.61</ele>
        <time>2020-09-06T14:10:19Z</time>
      </trkpt>
      <trkpt lat="37.3626197968" lon="-3.1594470050">
        <ele>871.57</ele>
        <time>2020-09-06T14:10:21Z</time>
      </trkpt>
      <trkpt lat="37.3626752850" lon="-3.1594553031">
        <ele>871.57</ele>
        <time>2020-09-06T14:10:22Z</time>
      </trkpt>
      <trkpt lat="37.3627357185" lon="-3.1594725698">
        <ele>871.57</ele>
        <time>2020-09-06T14:10:23Z</time>
      </trkpt>
      <trkpt lat="37.3627992533" lon="-3.1594970450">
        <ele>871.57</ele>
        <time>2020-09-06T14:10:24Z</time>
      </trkpt>
      <trkpt lat="37.3628649674" lon="-3.1595281418">
        <ele>870.61</ele>
        <time>2020-09-06T14:10:25Z</time>
      </trkpt>
      <trkpt lat="37.3632301670" lon="-3.1596587319">
        <ele>867.73</ele>
        <time>2020-09-06T14:10:30Z</time>
      </trkpt>
      <trkpt lat="37.3632939532" lon="-3.1596993003">
        <ele>867.73</ele>
        <time>2020-09-06T14:10:31Z</time>
      </trkpt>
      <trkpt lat="37.3633536324" lon="-3.1597386952">
        <ele>867.73</ele>
        <time>2020-09-06T14:10:32Z</time>
      </trkpt>
      <trkpt lat="37.3634129763" lon="-3.1597678643">
        <ele>867.73</ele>
        <time>2020-09-06T14:10:33Z</time>
      </trkpt>
      <trkpt lat="37.3634708952" lon="-3.1597889867">
        <ele>867.73</ele>
        <time>2020-09-06T14:10:34Z</time>
      </trkpt>
      <trkpt lat="37.3635283113" lon="-3.1598040741">
        <ele>867.73</ele>
        <time>2020-09-06T14:10:35Z</time>
      </trkpt>
      <trkpt lat="37.3635843862" lon="-3.1598126236">
        <ele>869.17</ele>
        <time>2020-09-06T14:10:36Z</time>
      </trkpt>
      <trkpt lat="37.3636397906" lon="-3.1598160602">
        <ele>869.17</ele>
        <time>2020-09-06T14:10:37Z</time>
      </trkpt>
      <trkpt lat="37.3636938538" lon="-3.1598111987">
        <ele>870.13</ele>
        <time>2020-09-06T14:10:38Z</time>
      </trkpt>
      <trkpt lat="37.3637387808" lon="-3.1598022301">
        <ele>870.13</ele>
        <time>2020-09-06T14:10:39Z</time>
      </trkpt>
      <trkpt lat="37.3638231028" lon="-3.1597754918">
        <ele>870.61</ele>
        <time>2020-09-06T14:10:41Z</time>
      </trkpt>
      <trkpt lat="37.3638610728" lon="-3.1597518548">
        <ele>871.09</ele>
        <time>2020-09-06T14:10:42Z</time>
      </trkpt>
      <trkpt lat="37.3638947681" lon="-3.1597216800">
        <ele>871.09</ele>
        <time>2020-09-06T14:10:43Z</time>
      </trkpt>
      <trkpt lat="37.3639262002" lon="-3.1596843805">
        <ele>871.09</ele>
        <time>2020-09-06T14:10:44Z</time>
      </trkpt>
      <trkpt lat="37.3639578000" lon="-3.1596367713">
        <ele>871.57</ele>
        <time>2020-09-06T14:10:45Z</time>
      </trkpt>
      <trkpt lat="37.3639846221" lon="-3.1595844682">
        <ele>871.57</ele>
        <time>2020-09-06T14:10:46Z</time>
      </trkpt>
      <trkpt lat="37.3640093487" lon="-3.1595317461">
        <ele>871.57</ele>
        <time>2020-09-06T14:10:47Z</time>
      </trkpt>
      <trkpt lat="37.3641707841" lon="-3.1592040136">
        <ele>871.57</ele>
        <time>2020-09-06T14:10:53Z</time>
      </trkpt>
      <trkpt lat="37.3642288707" lon="-3.1591047719">
        <ele>871.57</ele>
        <time>2020-09-06T14:10:55Z</time>
      </trkpt>
      <trkpt lat="37.3642624822" lon="-3.1590596773">
        <ele>871.57</ele>
        <time>2020-09-06T14:10:56Z</time>
      </trkpt>
      <trkpt lat="37.3643003684" lon="-3.1590190250">
        <ele>871.57</ele>
        <time>2020-09-06T14:10:57Z</time>
      </trkpt>
      <trkpt lat="37.3643418588" lon="-3.1589836534">
        <ele>871.57</ele>
        <time>2020-09-06T14:10:58Z</time>
      </trkpt>
      <trkpt lat="37.3643832654" lon="-3.1589512993">
        <ele>872.05</ele>
        <time>2020-09-06T14:10:59Z</time>
      </trkpt>
      <trkpt lat="37.3644270189" lon="-3.1589240581">
        <ele>872.05</ele>
        <time>2020-09-06T14:11:00Z</time>
      </trkpt>
      <trkpt lat="37.3644667491" lon="-3.1589059532">
        <ele>872.05</ele>
        <time>2020-09-06T14:11:01Z</time>
      </trkpt>
      <trkpt lat="37.3645078205" lon="-3.1588941347">
        <ele>872.53</ele>
        <time>2020-09-06T14:11:02Z</time>
      </trkpt>
      <trkpt lat="37.3645462934" lon="-3.1588870101">
        <ele>873.01</ele>
        <time>2020-09-06T14:11:03Z</time>
      </trkpt>
      <trkpt lat="37.3645808268" lon="-3.1588875968">
        <ele>873.01</ele>
        <time>2020-09-06T14:11:04Z</time>
      </trkpt>
      <trkpt lat="37.3646145221" lon="-3.1588931289">
        <ele>873.01</ele>
        <time>2020-09-06T14:11:05Z</time>
      </trkpt>
      <trkpt lat="37.3648855928" lon="-3.1590505410">
        <ele>876.38</ele>
        <time>2020-09-06T14:11:17Z</time>
      </trkpt>
      <trkpt lat="37.3651164304" lon="-3.1589893531">
        <ele>878.30</ele>
        <time>2020-09-06T14:11:26Z</time>
      </trkpt>
      <trkpt lat="37.3652846552" lon="-3.1588310190">
        <ele>875.90</ele>
        <time>2020-09-06T14:11:30Z</time>
      </trkpt>
      <trkpt lat="37.3654614296" lon="-3.1586865988">
        <ele>873.98</ele>
        <time>2020-09-06T14:11:33Z</time>
      </trkpt>
      <trkpt lat="37.3655354418" lon="-3.1586530712">
        <ele>873.50</ele>
        <time>2020-09-06T14:11:34Z</time>
      </trkpt>
      <trkpt lat="37.3656887468" lon="-3.1585932244">
        <ele>872.05</ele>
        <time>2020-09-06T14:11:36Z</time>
      </trkpt>
      <trkpt lat="37.3663021345" lon="-3.1581457146">
        <ele>870.61</ele>
        <time>2020-09-06T14:11:45Z</time>
      </trkpt>
      <trkpt lat="37.3668737803" lon="-3.1574141420">
        <ele>868.21</ele>
        <time>2020-09-06T14:11:57Z</time>
      </trkpt>
      <trkpt lat="37.3674286623" lon="-3.1567761954">
        <ele>867.73</ele>
        <time>2020-09-06T14:12:08Z</time>
      </trkpt>
      <trkpt lat="37.3675162531" lon="-3.1566659734">
        <ele>867.25</ele>
        <time>2020-09-06T14:12:10Z</time>
      </trkpt>
      <trkpt lat="37.3678803630" lon="-3.1563441083">
        <ele>869.65</ele>
        <time>2020-09-06T14:12:20Z</time>
      </trkpt>
      <trkpt lat="37.3681762442" lon="-3.1559435371">
        <ele>870.13</ele>
        <time>2020-09-06T14:12:32Z</time>
      </trkpt>
      <trkpt lat="37.3685525917" lon="-3.1552200112">
        <ele>871.09</ele>
        <time>2020-09-06T14:12:49Z</time>
      </trkpt>
      <trkpt lat="37.3690716829" lon="-3.1544632930">
        <ele>872.05</ele>
        <time>2020-09-06T14:13:06Z</time>
      </trkpt>
      <trkpt lat="37.3691627942" lon="-3.1543399952">
        <ele>872.05</ele>
        <time>2020-09-06T14:13:09Z</time>
      </trkpt>
      <trkpt lat="37.3692518100" lon="-3.1542130932">
        <ele>872.53</ele>
        <time>2020-09-06T14:13:12Z</time>
      </trkpt>
      <trkpt lat="37.3695922829" lon="-3.1535685249">
        <ele>873.50</ele>
        <time>2020-09-06T14:13:26Z</time>
      </trkpt>
      <trkpt lat="37.3697652016" lon="-3.1528671272">
        <ele>874.46</ele>
        <time>2020-09-06T14:13:39Z</time>
      </trkpt>
      <trkpt lat="37.3698140681" lon="-3.1527599227">
        <ele>874.46</ele>
        <time>2020-09-06T14:13:41Z</time>
      </trkpt>
      <trkpt lat="37.3698335979" lon="-3.1526990701">
        <ele>874.46</ele>
        <time>2020-09-06T14:13:42Z</time>
      </trkpt>
      <trkpt lat="37.3698470090" lon="-3.1526407320">
        <ele>874.94</ele>
        <time>2020-09-06T14:13:43Z</time>
      </trkpt>
      <trkpt lat="37.3699206021" lon="-3.1521477085">
        <ele>875.90</ele>
        <time>2020-09-06T14:13:52Z</time>
      </trkpt>
      <trkpt lat="37.3699135613" lon="-3.1520400848">
        <ele>875.90</ele>
        <time>2020-09-06T14:13:54Z</time>
      </trkpt>
      <trkpt lat="37.3698988929" lon="-3.1519325450">
        <ele>875.90</ele>
        <time>2020-09-06T14:13:56Z</time>
      </trkpt>
      <trkpt lat="37.3699011561" lon="-3.1518830918">
        <ele>876.38</ele>
        <time>2020-09-06T14:13:57Z</time>
      </trkpt>
      <trkpt lat="37.3699130584" lon="-3.1518360693">
        <ele>876.38</ele>
        <time>2020-09-06T14:13:58Z</time>
      </trkpt>
      <trkpt lat="37.3699330073" lon="-3.1517933216">
        <ele>876.38</ele>
        <time>2020-09-06T14:13:59Z</time>
      </trkpt>
      <trkpt lat="37.3699604161" lon="-3.1517507415">
        <ele>876.38</ele>
        <time>2020-09-06T14:14:00Z</time>
      </trkpt>
      <trkpt lat="37.3699928541" lon="-3.1517096702">
        <ele>876.38</ele>
        <time>2020-09-06T14:14:01Z</time>
      </trkpt>
      <trkpt lat="37.3700262140" lon="-3.1516652461">
        <ele>876.38</ele>
        <time>2020-09-06T14:14:02Z</time>
      </trkpt>
      <trkpt lat="37.3700582329" lon="-3.1516110152">
        <ele>876.38</ele>
        <time>2020-09-06T14:14:03Z</time>
      </trkpt>
      <trkpt lat="37.3700794391" lon="-3.1515561976">
        <ele>876.38</ele>
        <time>2020-09-06T14:14:04Z</time>
      </trkpt>
      <trkpt lat="37.3700889945" lon="-3.1514996197">
        <ele>876.38</ele>
        <time>2020-09-06T14:14:05Z</time>
      </trkpt>
      <trkpt lat="37.3700915091" lon="-3.1514425389">
        <ele>876.38</ele>
        <time>2020-09-06T14:14:06Z</time>
      </trkpt>
      <trkpt lat="37.3700915091" lon="-3.1513840333">
        <ele>876.38</ele>
        <time>2020-09-06T14:14:07Z</time>
      </trkpt>
      <trkpt lat="37.3700868990" lon="-3.1512624118">
        <ele>876.38</ele>
        <time>2020-09-06T14:14:09Z</time>
      </trkpt>
      <trkpt lat="37.3700934369" lon="-3.1512063369">
        <ele>876.38</ele>
        <time>2020-09-06T14:14:10Z</time>
      </trkpt>
      <trkpt lat="37.3701143079" lon="-3.1511481665">
        <ele>876.38</ele>
        <time>2020-09-06T14:14:11Z</time>
      </trkpt>
      <trkpt lat="37.3701419681" lon="-3.1510968693">
        <ele>876.38</ele>
        <time>2020-09-06T14:14:12Z</time>
      </trkpt>
      <trkpt lat="37.3701716401" lon="-3.1510456558">
        <ele>876.38</ele>
        <time>2020-09-06T14:14:13Z</time>
      </trkpt>
      <trkpt lat="37.3702017311" lon="-3.1509915087">
        <ele>876.38</ele>
        <time>2020-09-06T14:14:14Z</time>
      </trkpt>
      <trkpt lat="37.3702323250" lon="-3.1509411335">
        <ele>876.38</ele>
        <time>2020-09-06T14:14:15Z</time>
      </trkpt>
      <trkpt lat="37.3704501707" lon="-3.1504281610">
        <ele>876.86</ele>
        <time>2020-09-06T14:14:25Z</time>
      </trkpt>
      <trkpt lat="37.3704724666" lon="-3.1503786240">
        <ele>876.86</ele>
        <time>2020-09-06T14:14:26Z</time>
      </trkpt>
      <trkpt lat="37.3704997916" lon="-3.1503316853">
        <ele>877.34</ele>
        <time>2020-09-06T14:14:27Z</time>
      </trkpt>
      <trkpt lat="37.3706246819" lon="-3.1501498818">
        <ele>877.34</ele>
        <time>2020-09-06T14:14:31Z</time>
      </trkpt>
      <trkpt lat="37.3712857626" lon="-3.1496398430">
        <ele>880.22</ele>
        <time>2020-09-06T14:14:48Z</time>
      </trkpt>
      <trkpt lat="37.3715197016" lon="-3.1494814251">
        <ele>880.71</ele>
        <time>2020-09-06T14:14:54Z</time>
      </trkpt>
      <trkpt lat="37.3715523910" lon="-3.1494544353">
        <ele>880.71</ele>
        <time>2020-09-06T14:14:55Z</time>
      </trkpt>
      <trkpt lat="37.3715861700" lon="-3.1494301278">
        <ele>880.71</ele>
        <time>2020-09-06T14:14:56Z</time>
      </trkpt>
      <trkpt lat="37.3716210388" lon="-3.1494054850">
        <ele>880.71</ele>
        <time>2020-09-06T14:14:57Z</time>
      </trkpt>
      <trkpt lat="37.3716561589" lon="-3.1493779086">
        <ele>880.71</ele>
        <time>2020-09-06T14:14:58Z</time>
      </trkpt>
      <trkpt lat="37.3716924526" lon="-3.1493458059">
        <ele>881.19</ele>
        <time>2020-09-06T14:14:59Z</time>
      </trkpt>
      <trkpt lat="37.3717253935" lon="-3.1493099313">
        <ele>881.19</ele>
        <time>2020-09-06T14:15:00Z</time>
      </trkpt>
      <trkpt lat="37.3717548978" lon="-3.1492717098">
        <ele>881.19</ele>
        <time>2020-09-06T14:15:01Z</time>
      </trkpt>
      <trkpt lat="37.3721283115" lon="-3.1486505270">
        <ele>884.07</ele>
        <time>2020-09-06T14:15:17Z</time>
      </trkpt>
      <trkpt lat="37.3723832890" lon="-3.1480566692">
        <ele>884.07</ele>
        <time>2020-09-06T14:15:28Z</time>
      </trkpt>
      <trkpt lat="37.3724093568" lon="-3.1480071321">
        <ele>884.07</ele>
        <time>2020-09-06T14:15:29Z</time>
      </trkpt>
      <trkpt lat="37.3724386934" lon="-3.1479596905">
        <ele>884.07</ele>
        <time>2020-09-06T14:15:30Z</time>
      </trkpt>
      <trkpt lat="37.3724721372" lon="-3.1479150988">
        <ele>884.07</ele>
        <time>2020-09-06T14:15:31Z</time>
      </trkpt>
      <trkpt lat="37.3725082632" lon="-3.1478740275">
        <ele>884.07</ele>
        <time>2020-09-06T14:15:32Z</time>
      </trkpt>
      <trkpt lat="37.3729126900" lon="-3.1472860370">
        <ele>885.99</ele>
        <time>2020-09-06T14:15:45Z</time>
      </trkpt>
      <trkpt lat="37.3729558568" lon="-3.1471909024">
        <ele>886.47</ele>
        <time>2020-09-06T14:15:47Z</time>
      </trkpt>
      <trkpt lat="37.3731632251" lon="-3.1465657800">
        <ele>889.36</ele>
        <time>2020-09-06T14:16:01Z</time>
      </trkpt>
      <trkpt lat="37.3734593578" lon="-3.1461999938">
        <ele>892.72</ele>
        <time>2020-09-06T14:16:14Z</time>
      </trkpt>
      <trkpt lat="37.3738295864" lon="-3.1459512189">
        <ele>893.68</ele>
        <time>2020-09-06T14:16:26Z</time>
      </trkpt>
      <trkpt lat="37.3740510363" lon="-3.1457426772">
        <ele>893.68</ele>
        <time>2020-09-06T14:16:32Z</time>
      </trkpt>
      <trkpt lat="37.3743205145" lon="-3.1452286988">
        <ele>897.53</ele>
        <time>2020-09-06T14:16:47Z</time>
      </trkpt>
      <trkpt lat="37.3744104523" lon="-3.1448628288">
        <ele>899.93</ele>
        <time>2020-09-06T14:17:02Z</time>
      </trkpt>
      <trkpt lat="37.3744397890" lon="-3.1445814483">
        <ele>903.30</ele>
        <time>2020-09-06T14:17:15Z</time>
      </trkpt>
      <trkpt lat="37.3744815309" lon="-3.1443838030">
        <ele>906.66</ele>
        <time>2020-09-06T14:17:26Z</time>
      </trkpt>
      <trkpt lat="37.3745125439" lon="-3.1440391392">
        <ele>910.03</ele>
        <time>2020-09-06T14:17:41Z</time>
      </trkpt>
      <trkpt lat="37.3745169025" lon="-3.1435186230">
        <ele>912.43</ele>
        <time>2020-09-06T14:17:58Z</time>
      </trkpt>
      <trkpt lat="37.3745888192" lon="-3.1432759669">
        <ele>915.79</ele>
        <time>2020-09-06T14:18:10Z</time>
      </trkpt>
      <trkpt lat="37.3747613188" lon="-3.1428670976">
        <ele>917.72</ele>
        <time>2020-09-06T14:18:25Z</time>
      </trkpt>
      <trkpt lat="37.3750802502" lon="-3.1427071709">
        <ele>919.16</ele>
        <time>2020-09-06T14:18:36Z</time>
      </trkpt>
      <trkpt lat="37.3753384966" lon="-3.1424379442">
        <ele>922.52</ele>
        <time>2020-09-06T14:18:51Z</time>
      </trkpt>
      <trkpt lat="37.3753649835" lon="-3.1423750799">
        <ele>923.48</ele>
        <time>2020-09-06T14:18:54Z</time>
      </trkpt>
      <trkpt lat="37.3753782269" lon="-3.1423582323">
        <ele>923.48</ele>
        <time>2020-09-06T14:18:55Z</time>
      </trkpt>
      <trkpt lat="37.3753929790" lon="-3.1423421390">
        <ele>923.48</ele>
        <time>2020-09-06T14:18:56Z</time>
      </trkpt>
      <trkpt lat="37.3754080664" lon="-3.1423278060">
        <ele>923.48</ele>
        <time>2020-09-06T14:18:57Z</time>
      </trkpt>
      <trkpt lat="37.3754229024" lon="-3.1423124671">
        <ele>924.45</ele>
        <time>2020-09-06T14:18:58Z</time>
      </trkpt>
      <trkpt lat="37.3754363135" lon="-3.1423000619">
        <ele>924.93</ele>
        <time>2020-09-06T14:18:59Z</time>
      </trkpt>
      <trkpt lat="37.3756435979" lon="-3.1422556378">
        <ele>928.29</ele>
        <time>2020-09-06T14:19:12Z</time>
      </trkpt>
      <trkpt lat="37.3757088929" lon="-3.1422473397">
        <ele>929.73</ele>
        <time>2020-09-06T14:19:16Z</time>
      </trkpt>
      <trkpt lat="37.3757243156" lon="-3.1422401313">
        <ele>929.73</ele>
        <time>2020-09-06T14:19:17Z</time>
      </trkpt>
      <trkpt lat="37.3757411633" lon="-3.1422320846">
        <ele>930.21</ele>
        <time>2020-09-06T14:19:18Z</time>
      </trkpt>
      <trkpt lat="37.3758507147" lon="-3.1421461701">
        <ele>931.17</ele>
        <time>2020-09-06T14:19:25Z</time>
      </trkpt>
      <trkpt lat="37.3758627009" lon="-3.1421247125">
        <ele>931.17</ele>
        <time>2020-09-06T14:19:26Z</time>
      </trkpt>
      <trkpt lat="37.3760748468" lon="-3.1417723373">
        <ele>932.14</ele>
        <time>2020-09-06T14:19:38Z</time>
      </trkpt>
      <trkpt lat="37.3763068579" lon="-3.1414113287">
        <ele>932.14</ele>
        <time>2020-09-06T14:19:48Z</time>
      </trkpt>
      <trkpt lat="37.3763211910" lon="-3.1413624622">
        <ele>932.14</ele>
        <time>2020-09-06T14:19:49Z</time>
      </trkpt>
      <trkpt lat="37.3763286509" lon="-3.1413079798">
        <ele>932.14</ele>
        <time>2020-09-06T14:19:50Z</time>
      </trkpt>
      <trkpt lat="37.3763299081" lon="-3.1412568502">
        <ele>932.14</ele>
        <time>2020-09-06T14:19:51Z</time>
      </trkpt>
      <trkpt lat="37.3763258010" lon="-3.1412058044">
        <ele>932.14</ele>
        <time>2020-09-06T14:19:52Z</time>
      </trkpt>
      <trkpt lat="37.3763165809" lon="-3.1411556806">
        <ele>932.62</ele>
        <time>2020-09-06T14:19:53Z</time>
      </trkpt>
      <trkpt lat="37.3763019126" lon="-3.1411063951">
        <ele>932.62</ele>
        <time>2020-09-06T14:19:54Z</time>
      </trkpt>
      <trkpt lat="37.3762850650" lon="-3.1410577800">
        <ele>932.62</ele>
        <time>2020-09-06T14:19:55Z</time>
      </trkpt>
      <trkpt lat="37.3762668762" lon="-3.1410119310">
        <ele>932.62</ele>
        <time>2020-09-06T14:19:56Z</time>
      </trkpt>
      <trkpt lat="37.3762475979" lon="-3.1409665849">
        <ele>932.62</ele>
        <time>2020-09-06T14:19:57Z</time>
      </trkpt>
      <trkpt lat="37.3761849012" lon="-3.1405006349">
        <ele>935.50</ele>
        <time>2020-09-06T14:20:09Z</time>
      </trkpt>
      <trkpt lat="37.3762185965" lon="-3.1400036719">
        <ele>936.46</ele>
        <time>2020-09-06T14:20:20Z</time>
      </trkpt>
      <trkpt lat="37.3762123100" lon="-3.1399315875">
        <ele>935.02</ele>
        <time>2020-09-06T14:20:21Z</time>
      </trkpt>
      <trkpt lat="37.3762020003" lon="-3.1398491096">
        <ele>933.58</ele>
        <time>2020-09-06T14:20:22Z</time>
      </trkpt>
      <trkpt lat="37.3761536367" lon="-3.1394351274">
        <ele>930.69</ele>
        <time>2020-09-06T14:20:26Z</time>
      </trkpt>
      <trkpt lat="37.3761298321" lon="-3.1388061494">
        <ele>930.21</ele>
        <time>2020-09-06T14:20:33Z</time>
      </trkpt>
      <trkpt lat="37.3761425726" lon="-3.1387285329">
        <ele>930.21</ele>
        <time>2020-09-06T14:20:34Z</time>
      </trkpt>
      <trkpt lat="37.3761647008" lon="-3.1386597175">
        <ele>930.21</ele>
        <time>2020-09-06T14:20:35Z</time>
      </trkpt>
      <trkpt lat="37.3761927802" lon="-3.1386005413">
        <ele>930.21</ele>
        <time>2020-09-06T14:20:36Z</time>
      </trkpt>
      <trkpt lat="37.3762239609" lon="-3.1385431252">
        <ele>930.21</ele>
        <time>2020-09-06T14:20:37Z</time>
      </trkpt>
      <trkpt lat="37.3763614241" lon="-3.1383354217">
        <ele>931.65</ele>
        <time>2020-09-06T14:20:41Z</time>
      </trkpt>
      <trkpt lat="37.3766141385" lon="-3.1379890814">
        <ele>933.10</ele>
        <time>2020-09-06T14:20:49Z</time>
      </trkpt>
      <trkpt lat="37.3766407091" lon="-3.1379392091">
        <ele>933.10</ele>
        <time>2020-09-06T14:20:50Z</time>
      </trkpt>
      <trkpt lat="37.3766950238" lon="-3.1378328428">
        <ele>933.10</ele>
        <time>2020-09-06T14:20:52Z</time>
      </trkpt>
      <trkpt lat="37.3769716267" lon="-3.1370948162">
        <ele>935.02</ele>
        <time>2020-09-06T14:21:07Z</time>
      </trkpt>
      <trkpt lat="37.3769958504" lon="-3.1369944848">
        <ele>935.02</ele>
        <time>2020-09-06T14:21:09Z</time>
      </trkpt>
      <trkpt lat="37.3770134524" lon="-3.1369477976">
        <ele>935.02</ele>
        <time>2020-09-06T14:21:10Z</time>
      </trkpt>
      <trkpt lat="37.3771153763" lon="-3.1367136072">
        <ele>935.98</ele>
        <time>2020-09-06T14:21:15Z</time>
      </trkpt>
      <trkpt lat="37.3771436233" lon="-3.1366701052">
        <ele>935.98</ele>
        <time>2020-09-06T14:21:16Z</time>
      </trkpt>
      <trkpt lat="37.3771743849" lon="-3.1366301235">
        <ele>935.98</ele>
        <time>2020-09-06T14:21:17Z</time>
      </trkpt>
      <trkpt lat="37.3772083316" lon="-3.1365929078">
        <ele>935.50</ele>
        <time>2020-09-06T14:21:18Z</time>
      </trkpt>
      <trkpt lat="37.3772463854" lon="-3.1365551893">
        <ele>935.98</ele>
        <time>2020-09-06T14:21:19Z</time>
      </trkpt>
      <trkpt lat="37.3773215711" lon="-3.1364906486">
        <ele>935.98</ele>
        <time>2020-09-06T14:21:21Z</time>
      </trkpt>
      <trkpt lat="37.3773652408" lon="-3.1364639942">
        <ele>935.98</ele>
        <time>2020-09-06T14:21:22Z</time>
      </trkpt>
      <trkpt lat="37.3775224015" lon="-3.1363977771">
        <ele>935.02</ele>
        <time>2020-09-06T14:21:25Z</time>
      </trkpt>
      <trkpt lat="37.3775826674" lon="-3.1363819353">
        <ele>935.02</ele>
        <time>2020-09-06T14:21:26Z</time>
      </trkpt>
      <trkpt lat="37.3776454479" lon="-3.1363719609">
        <ele>934.54</ele>
        <time>2020-09-06T14:21:27Z</time>
      </trkpt>
      <trkpt lat="37.3777070548" lon="-3.1363681052">
        <ele>934.54</ele>
        <time>2020-09-06T14:21:28Z</time>
      </trkpt>
      <trkpt lat="37.3785636015" lon="-3.1362922490">
        <ele>934.54</ele>
        <time>2020-09-06T14:21:43Z</time>
      </trkpt>
      <trkpt lat="37.3786184192" lon="-3.1362748146">
        <ele>934.54</ele>
        <time>2020-09-06T14:21:44Z</time>
      </trkpt>
      <trkpt lat="37.3794664163" lon="-3.1360005587">
        <ele>933.10</ele>
        <time>2020-09-06T14:21:59Z</time>
      </trkpt>
      <trkpt lat="37.3802024312" lon="-3.1360266265">
        <ele>930.21</ele>
        <time>2020-09-06T14:22:09Z</time>
      </trkpt>
      <trkpt lat="37.3803507071" lon="-3.1360153109">
        <ele>932.62</ele>
        <time>2020-09-06T14:22:12Z</time>
      </trkpt>
      <trkpt lat="37.3805212788" lon="-3.1360086892">
        <ele>934.06</ele>
        <time>2020-09-06T14:22:16Z</time>
      </trkpt>
      <trkpt lat="37.3806069419" lon="-3.1360137183">
        <ele>934.54</ele>
        <time>2020-09-06T14:22:18Z</time>
      </trkpt>
      <trkpt lat="37.3806511145" lon="-3.1360133830">
        <ele>934.54</ele>
        <time>2020-09-06T14:22:19Z</time>
      </trkpt>
      <trkpt lat="37.3807402141" lon="-3.1360216811">
        <ele>934.54</ele>
        <time>2020-09-06T14:22:21Z</time>
      </trkpt>
      <trkpt lat="37.3807869013" lon="-3.1360352598">
        <ele>934.54</ele>
        <time>2020-09-06T14:22:22Z</time>
      </trkpt>
      <trkpt lat="37.3809727281" lon="-3.1361133792">
        <ele>934.54</ele>
        <time>2020-09-06T14:22:26Z</time>
      </trkpt>
      <trkpt lat="37.3810263723" lon="-3.1361195818">
        <ele>934.54</ele>
        <time>2020-09-06T14:22:27Z</time>
      </trkpt>
      <trkpt lat="37.3816070706" lon="-3.1361453142">
        <ele>934.54</ele>
        <time>2020-09-06T14:22:36Z</time>
      </trkpt>
      <trkpt lat="37.3817451205" lon="-3.1361865532">
        <ele>933.10</ele>
        <time>2020-09-06T14:22:38Z</time>
      </trkpt>
      <trkpt lat="37.3818726093" lon="-3.1362376828">
        <ele>932.14</ele>
        <time>2020-09-06T14:22:40Z</time>
      </trkpt>
      <trkpt lat="37.3822198715" lon="-3.1364919059">
        <ele>931.65</ele>
        <time>2020-09-06T14:22:46Z</time>
      </trkpt>
      <trkpt lat="37.3823129945" lon="-3.1366227474">
        <ele>931.17</ele>
        <time>2020-09-06T14:22:48Z</time>
      </trkpt>
      <trkpt lat="37.3823523894" lon="-3.1366985198">
        <ele>931.17</ele>
        <time>2020-09-06T14:22:49Z</time>
      </trkpt>
      <trkpt lat="37.3825443350" lon="-3.1371381506">
        <ele>931.17</ele>
        <time>2020-09-06T14:22:55Z</time>
      </trkpt>
      <trkpt lat="37.3825872503" lon="-3.1372071337">
        <ele>931.17</ele>
        <time>2020-09-06T14:22:56Z</time>
      </trkpt>
      <trkpt lat="37.3826305009" lon="-3.1372653879">
        <ele>931.17</ele>
        <time>2020-09-06T14:22:57Z</time>
      </trkpt>
      <trkpt lat="37.3826834746" lon="-3.1373179425">
        <ele>931.17</ele>
        <time>2020-09-06T14:22:58Z</time>
      </trkpt>
      <trkpt lat="37.3827403039" lon="-3.1373623665">
        <ele>930.69</ele>
        <time>2020-09-06T14:22:59Z</time>
      </trkpt>
      <trkpt lat="37.3827985581" lon="-3.1374065392">
        <ele>930.69</ele>
        <time>2020-09-06T14:23:00Z</time>
      </trkpt>
      <trkpt lat="37.3829117976" lon="-3.1374727562">
        <ele>930.69</ele>
        <time>2020-09-06T14:23:02Z</time>
      </trkpt>
      <trkpt lat="37.3830173258" lon="-3.1375248078">
        <ele>930.69</ele>
        <time>2020-09-06T14:23:04Z</time>
      </trkpt>
      <trkpt lat="37.3830688745" lon="-3.1375549827">
        <ele>930.69</ele>
        <time>2020-09-06T14:23:05Z</time>
      </trkpt>
      <trkpt lat="37.3834297992" lon="-3.1377814617">
        <ele>930.69</ele>
        <time>2020-09-06T14:23:12Z</time>
      </trkpt>
      <trkpt lat="37.3837227467" lon="-3.1380304042">
        <ele>930.69</ele>
        <time>2020-09-06T14:23:18Z</time>
      </trkpt>
      <trkpt lat="37.3845089693" lon="-3.1383562926">
        <ele>930.69</ele>
        <time>2020-09-06T14:23:33Z</time>
      </trkpt>
      <trkpt lat="37.3852381948" lon="-3.1384958513">
        <ele>933.58</ele>
        <time>2020-09-06T14:23:49Z</time>
      </trkpt>
      <trkpt lat="37.3857958429" lon="-3.1386156287">
        <ele>935.50</ele>
        <time>2020-09-06T14:24:03Z</time>
      </trkpt>
      <trkpt lat="37.3862954881" lon="-3.1387613900">
        <ele>933.58</ele>
        <time>2020-09-06T14:24:13Z</time>
      </trkpt>
      <trkpt lat="37.3865119088" lon="-3.1388691813">
        <ele>931.65</ele>
        <time>2020-09-06T14:24:16Z</time>
      </trkpt>
      <trkpt lat="37.3871477600" lon="-3.1391760428">
        <ele>929.73</ele>
        <time>2020-09-06T14:24:26Z</time>
      </trkpt>
      <trkpt lat="37.3872008175" lon="-3.1391847599">
        <ele>931.17</ele>
        <time>2020-09-06T14:24:27Z</time>
      </trkpt>
      <trkpt lat="37.3872546293" lon="-3.1391856819">
        <ele>931.17</ele>
        <time>2020-09-06T14:24:28Z</time>
      </trkpt>
      <trkpt lat="37.3873094469" lon="-3.1391785573">
        <ele>931.17</ele>
        <time>2020-09-06T14:24:29Z</time>
      </trkpt>
      <trkpt lat="37.3873615824" lon="-3.1391624641">
        <ele>931.17</ele>
        <time>2020-09-06T14:24:30Z</time>
      </trkpt>
      <trkpt lat="37.3874105327" lon="-3.1391412579">
        <ele>931.17</ele>
        <time>2020-09-06T14:24:31Z</time>
      </trkpt>
      <trkpt lat="37.3874561302" lon="-3.1391151063">
        <ele>931.65</ele>
        <time>2020-09-06T14:24:32Z</time>
      </trkpt>
      <trkpt lat="37.3874999676" lon="-3.1390856020">
        <ele>931.65</ele>
        <time>2020-09-06T14:24:33Z</time>
      </trkpt>
      <trkpt lat="37.3878534324" lon="-3.1387895532">
        <ele>930.21</ele>
        <time>2020-09-06T14:24:40Z</time>
      </trkpt>
      <trkpt lat="37.3879987746" lon="-3.1385901477">
        <ele>929.25</ele>
        <time>2020-09-06T14:24:43Z</time>
      </trkpt>
      <trkpt lat="37.3880442046" lon="-3.1385200750">
        <ele>928.29</ele>
        <time>2020-09-06T14:24:44Z</time>
      </trkpt>
      <trkpt lat="37.3880958371" lon="-3.1384516787">
        <ele>928.29</ele>
        <time>2020-09-06T14:24:45Z</time>
      </trkpt>
      <trkpt lat="37.3881535884" lon="-3.1383866351">
        <ele>927.33</ele>
        <time>2020-09-06T14:24:46Z</time>
      </trkpt>
      <trkpt lat="37.3882236611" lon="-3.1383187417">
        <ele>927.33</ele>
        <time>2020-09-06T14:24:47Z</time>
      </trkpt>
      <trkpt lat="37.3886616156" lon="-3.1379882433">
        <ele>924.45</ele>
        <time>2020-09-06T14:24:53Z</time>
      </trkpt>
      <trkpt lat="37.3892960418" lon="-3.1377807073">
        <ele>923.96</ele>
        <time>2020-09-06T14:25:02Z</time>
      </trkpt>
      <trkpt lat="37.3893556371" lon="-3.1377762649">
        <ele>923.96</ele>
        <time>2020-09-06T14:25:03Z</time>
      </trkpt>
      <trkpt lat="37.3894124664" lon="-3.1377784442">
        <ele>924.45</ele>
        <time>2020-09-06T14:25:04Z</time>
      </trkpt>
      <trkpt lat="37.3894702177" lon="-3.1377896760">
        <ele>925.89</ele>
        <time>2020-09-06T14:25:05Z</time>
      </trkpt>
      <trkpt lat="37.3895247839" lon="-3.1378070265">
        <ele>925.89</ele>
        <time>2020-09-06T14:25:06Z</time>
      </trkpt>
      <trkpt lat="37.3895788472" lon="-3.1378294900">
        <ele>925.89</ele>
        <time>2020-09-06T14:25:07Z</time>
      </trkpt>
      <trkpt lat="37.3896334972" lon="-3.1378546357">
        <ele>925.89</ele>
        <time>2020-09-06T14:25:08Z</time>
      </trkpt>
      <trkpt lat="37.3900210764" lon="-3.1380355172">
        <ele>926.37</ele>
        <time>2020-09-06T14:25:17Z</time>
      </trkpt>
      <trkpt lat="37.3900573701" lon="-3.1380617525">
        <ele>926.37</ele>
        <time>2020-09-06T14:25:18Z</time>
      </trkpt>
      <trkpt lat="37.3906933051" lon="-3.1384756509">
        <ele>924.93</ele>
        <time>2020-09-06T14:25:31Z</time>
      </trkpt>
      <trkpt lat="37.3907425068" lon="-3.1385208294">
        <ele>924.93</ele>
        <time>2020-09-06T14:25:32Z</time>
      </trkpt>
      <trkpt lat="37.3909305967" lon="-3.1386983581">
        <ele>924.45</ele>
        <time>2020-09-06T14:25:36Z</time>
      </trkpt>
      <trkpt lat="37.3912287410" lon="-3.1388726179">
        <ele>924.45</ele>
        <time>2020-09-06T14:25:42Z</time>
      </trkpt>
      <trkpt lat="37.3912901804" lon="-3.1388881244">
        <ele>924.45</ele>
        <time>2020-09-06T14:25:43Z</time>
      </trkpt>
      <trkpt lat="37.3913541343" lon="-3.1388932373">
        <ele>924.45</ele>
        <time>2020-09-06T14:25:44Z</time>
      </trkpt>
      <trkpt lat="37.3914239556" lon="-3.1388893817">
        <ele>924.45</ele>
        <time>2020-09-06T14:25:45Z</time>
      </trkpt>
      <trkpt lat="37.3914878257" lon="-3.1388820056">
        <ele>924.45</ele>
        <time>2020-09-06T14:25:46Z</time>
      </trkpt>
      <trkpt lat="37.3915519472" lon="-3.1388812512">
        <ele>924.45</ele>
        <time>2020-09-06T14:25:47Z</time>
      </trkpt>
      <trkpt lat="37.3916178290" lon="-3.1388867833">
        <ele>924.45</ele>
        <time>2020-09-06T14:25:48Z</time>
      </trkpt>
      <trkpt lat="37.3916824535" lon="-3.1389025412">
        <ele>924.45</ele>
        <time>2020-09-06T14:25:49Z</time>
      </trkpt>
      <trkpt lat="37.3917430546" lon="-3.1389305368">
        <ele>924.45</ele>
        <time>2020-09-06T14:25:50Z</time>
      </trkpt>
      <trkpt lat="37.3918010574" lon="-3.1389673334">
        <ele>923.96</ele>
        <time>2020-09-06T14:25:51Z</time>
      </trkpt>
      <trkpt lat="37.3918572161" lon="-3.1390042976">
        <ele>923.96</ele>
        <time>2020-09-06T14:25:52Z</time>
      </trkpt>
      <trkpt lat="37.3919137102" lon="-3.1390413456">
        <ele>923.96</ele>
        <time>2020-09-06T14:25:53Z</time>
      </trkpt>
      <trkpt lat="37.3919649236" lon="-3.1390802376">
        <ele>923.96</ele>
        <time>2020-09-06T14:25:54Z</time>
      </trkpt>
      <trkpt lat="37.3921967670" lon="-3.1392212212">
        <ele>923.48</ele>
        <time>2020-09-06T14:25:58Z</time>
      </trkpt>
      <trkpt lat="37.3922695220" lon="-3.1392408349">
        <ele>923.48</ele>
        <time>2020-09-06T14:25:59Z</time>
      </trkpt>
      <trkpt lat="37.3923509102" lon="-3.1392461993">
        <ele>922.52</ele>
        <time>2020-09-06T14:26:00Z</time>
      </trkpt>
      <trkpt lat="37.3924296163" lon="-3.1392337941">
        <ele>921.56</ele>
        <time>2020-09-06T14:26:01Z</time>
      </trkpt>
      <trkpt lat="37.3925070651" lon="-3.1392140128">
        <ele>921.56</ele>
        <time>2020-09-06T14:26:02Z</time>
      </trkpt>
      <trkpt lat="37.3925869446" lon="-3.1392039545">
        <ele>921.56</ele>
        <time>2020-09-06T14:26:03Z</time>
      </trkpt>
      <trkpt lat="37.3926700093" lon="-3.1392079778">
        <ele>921.56</ele>
        <time>2020-09-06T14:26:04Z</time>
      </trkpt>
      <trkpt lat="37.3927501403" lon="-3.1392118335">
        <ele>921.08</ele>
        <time>2020-09-06T14:26:05Z</time>
      </trkpt>
      <trkpt lat="37.3931822274" lon="-3.1392171141">
        <ele>917.72</ele>
        <time>2020-09-06T14:26:10Z</time>
      </trkpt>
      <trkpt lat="37.3941027280" lon="-3.1391057186">
        <ele>915.79</ele>
        <time>2020-09-06T14:26:21Z</time>
      </trkpt>
      <trkpt lat="37.3941755667" lon="-3.1390726101">
        <ele>915.79</ele>
        <time>2020-09-06T14:26:22Z</time>
      </trkpt>
      <trkpt lat="37.3942428734" lon="-3.1390410941">
        <ele>915.79</ele>
        <time>2020-09-06T14:26:23Z</time>
      </trkpt>
      <trkpt lat="37.3943072464" lon="-3.1390084885">
        <ele>915.79</ele>
        <time>2020-09-06T14:26:24Z</time>
      </trkpt>
      <trkpt lat="37.3943674285" lon="-3.1389690936">
        <ele>915.79</ele>
        <time>2020-09-06T14:26:25Z</time>
      </trkpt>
      <trkpt lat="37.3944223300" lon="-3.1389246695">
        <ele>915.79</ele>
        <time>2020-09-06T14:26:26Z</time>
      </trkpt>
      <trkpt lat="37.3944738787" lon="-3.1388668343">
        <ele>915.79</ele>
        <time>2020-09-06T14:26:27Z</time>
      </trkpt>
      <trkpt lat="37.3945198115" lon="-3.1388205662">
        <ele>915.79</ele>
        <time>2020-09-06T14:26:28Z</time>
      </trkpt>
      <trkpt lat="37.3945759702" lon="-3.1387872901">
        <ele>916.27</ele>
        <time>2020-09-06T14:26:29Z</time>
      </trkpt>
      <trkpt lat="37.3946284410" lon="-3.1387670059">
        <ele>916.27</ele>
        <time>2020-09-06T14:26:30Z</time>
      </trkpt>
      <trkpt lat="37.3946789838" lon="-3.1387496553">
        <ele>915.79</ele>
        <time>2020-09-06T14:26:31Z</time>
      </trkpt>
      <trkpt lat="37.3947358970" lon="-3.1387372501">
        <ele>915.79</ele>
        <time>2020-09-06T14:26:32Z</time>
      </trkpt>
      <trkpt lat="37.3948011920" lon="-3.1387276109">
        <ele>915.79</ele>
        <time>2020-09-06T14:26:33Z</time>
      </trkpt>
      <trkpt lat="37.3949386552" lon="-3.1387094222">
        <ele>915.31</ele>
        <time>2020-09-06T14:26:35Z</time>
      </trkpt>
      <trkpt lat="37.3950100690" lon="-3.1387228332">
        <ele>914.35</ele>
        <time>2020-09-06T14:26:36Z</time>
      </trkpt>
      <trkpt lat="37.3950853385" lon="-3.1387504097">
        <ele>913.39</ele>
        <time>2020-09-06T14:26:37Z</time>
      </trkpt>
      <trkpt lat="37.3951604404" lon="-3.1387881283">
        <ele>911.95</ele>
        <time>2020-09-06T14:26:38Z</time>
      </trkpt>
      <trkpt lat="37.3952428345" lon="-3.1388335582">
        <ele>911.47</ele>
        <time>2020-09-06T14:26:39Z</time>
      </trkpt>
      <trkpt lat="37.3953322694" lon="-3.1388796587">
        <ele>910.03</ele>
        <time>2020-09-06T14:26:40Z</time>
      </trkpt>
      <trkpt lat="37.3956122249" lon="-3.1389772240">
        <ele>908.58</ele>
        <time>2020-09-06T14:26:43Z</time>
      </trkpt>
      <trkpt lat="37.3957140651" lon="-3.1389871147">
        <ele>908.58</ele>
        <time>2020-09-06T14:26:44Z</time>
      </trkpt>
      <trkpt lat="37.3958081938" lon="-3.1389732845">
        <ele>907.62</ele>
        <time>2020-09-06T14:26:45Z</time>
      </trkpt>
      <trkpt lat="37.3958978802" lon="-3.1389426906">
        <ele>907.62</ele>
        <time>2020-09-06T14:26:46Z</time>
      </trkpt>
      <trkpt lat="37.3959823698" lon="-3.1389038824">
        <ele>907.62</ele>
        <time>2020-09-06T14:26:47Z</time>
      </trkpt>
      <trkpt lat="37.3961413745" lon="-3.1388338096">
        <ele>907.14</ele>
        <time>2020-09-06T14:26:49Z</time>
      </trkpt>
      <trkpt lat="37.3962258641" lon="-3.1388213206">
        <ele>906.66</ele>
        <time>2020-09-06T14:26:50Z</time>
      </trkpt>
      <trkpt lat="37.3963132035" lon="-3.1388341449">
        <ele>906.66</ele>
        <time>2020-09-06T14:26:51Z</time>
      </trkpt>
      <trkpt lat="37.3963909037" lon="-3.1388753001">
        <ele>905.22</ele>
        <time>2020-09-06T14:26:52Z</time>
      </trkpt>
      <trkpt lat="37.3964577075" lon="-3.1389351469">
        <ele>904.74</ele>
        <time>2020-09-06T14:26:53Z</time>
      </trkpt>
      <trkpt lat="37.3965035565" lon="-3.1390068121">
        <ele>904.26</ele>
        <time>2020-09-06T14:26:54Z</time>
      </trkpt>
      <trkpt lat="37.3965313844" lon="-3.1390982587">
        <ele>903.30</ele>
        <time>2020-09-06T14:26:55Z</time>
      </trkpt>
      <trkpt lat="37.3965443764" lon="-3.1392082293">
        <ele>901.85</ele>
        <time>2020-09-06T14:26:56Z</time>
      </trkpt>
      <trkpt lat="37.3965458851" lon="-3.1393023580">
        <ele>900.41</ele>
        <time>2020-09-06T14:26:57Z</time>
      </trkpt>
      <trkpt lat="37.3965526745" lon="-3.1394047011">
        <ele>898.97</ele>
        <time>2020-09-06T14:26:58Z</time>
      </trkpt>
      <trkpt lat="37.3965873756" lon="-3.1394908670">
        <ele>898.01</ele>
        <time>2020-09-06T14:26:59Z</time>
      </trkpt>
      <trkpt lat="37.3966509942" lon="-3.1395541504">
        <ele>897.05</ele>
        <time>2020-09-06T14:27:00Z</time>
      </trkpt>
      <trkpt lat="37.3967286106" lon="-3.1395833194">
        <ele>895.61</ele>
        <time>2020-09-06T14:27:01Z</time>
      </trkpt>
      <trkpt lat="37.3968158662" lon="-3.1395938806">
        <ele>894.64</ele>
        <time>2020-09-06T14:27:02Z</time>
      </trkpt>
      <trkpt lat="37.3969003558" lon="-3.1396058667">
        <ele>893.68</ele>
        <time>2020-09-06T14:27:03Z</time>
      </trkpt>
      <trkpt lat="37.3969738651" lon="-3.1396321859">
        <ele>892.24</ele>
        <time>2020-09-06T14:27:04Z</time>
      </trkpt>
      <trkpt lat="37.3970373999" lon="-3.1396739278">
        <ele>890.80</ele>
        <time>2020-09-06T14:27:05Z</time>
      </trkpt>
      <trkpt lat="37.3971449398" lon="-3.1397637818">
        <ele>888.88</ele>
        <time>2020-09-06T14:27:07Z</time>
      </trkpt>
      <trkpt lat="37.3971868493" lon="-3.1398248859">
        <ele>887.43</ele>
        <time>2020-09-06T14:27:08Z</time>
      </trkpt>
      <trkpt lat="37.3972108215" lon="-3.1399051007">
        <ele>886.47</ele>
        <time>2020-09-06T14:27:09Z</time>
      </trkpt>
      <trkpt lat="37.3972147610" lon="-3.1399914343">
        <ele>885.51</ele>
        <time>2020-09-06T14:27:10Z</time>
      </trkpt>
      <trkpt lat="37.3971955664" lon="-3.1400757562">
        <ele>885.03</ele>
        <time>2020-09-06T14:27:11Z</time>
      </trkpt>
      <trkpt lat="37.3971523996" lon="-3.1401538756">
        <ele>883.11</ele>
        <time>2020-09-06T14:27:12Z</time>
      </trkpt>
      <trkpt lat="37.3970995937" lon="-3.1402102020">
        <ele>882.15</ele>
        <time>2020-09-06T14:27:13Z</time>
      </trkpt>
      <trkpt lat="37.3970428482" lon="-3.1402513571">
        <ele>881.19</ele>
        <time>2020-09-06T14:27:14Z</time>
      </trkpt>
      <trkpt lat="37.3969756253" lon="-3.1402894948">
        <ele>880.22</ele>
        <time>2020-09-06T14:27:15Z</time>
      </trkpt>
      <trkpt lat="37.3967700172" lon="-3.1404215097">
        <ele>878.30</ele>
        <time>2020-09-06T14:27:18Z</time>
      </trkpt>
      <trkpt lat="37.3967091646" lon="-3.1404856313">
        <ele>878.30</ele>
        <time>2020-09-06T14:27:19Z</time>
      </trkpt>
      <trkpt lat="37.3966606334" lon="-3.1405566260">
        <ele>878.30</ele>
        <time>2020-09-06T14:27:20Z</time>
      </trkpt>
      <trkpt lat="37.3966290336" lon="-3.1406323984">
        <ele>877.34</ele>
        <time>2020-09-06T14:27:21Z</time>
      </trkpt>
      <trkpt lat="37.3966136947" lon="-3.1407187320">
        <ele>877.34</ele>
        <time>2020-09-06T14:27:22Z</time>
      </trkpt>
      <trkpt lat="37.3966155387" lon="-3.1408085860">
        <ele>877.34</ele>
        <time>2020-09-06T14:27:23Z</time>
      </trkpt>
      <trkpt lat="37.3966302071" lon="-3.1409048103">
        <ele>877.34</ele>
        <time>2020-09-06T14:27:24Z</time>
      </trkpt>
      <trkpt lat="37.3966577835" lon="-3.1409891322">
        <ele>876.38</ele>
        <time>2020-09-06T14:27:25Z</time>
      </trkpt>
      <trkpt lat="37.3967116792" lon="-3.1410712749">
        <ele>875.90</ele>
        <time>2020-09-06T14:27:26Z</time>
      </trkpt>
      <trkpt lat="37.3967809975" lon="-3.1411325466">
        <ele>875.90</ele>
        <time>2020-09-06T14:27:27Z</time>
      </trkpt>
      <trkpt lat="37.3968568537" lon="-3.1411789823">
        <ele>874.46</ele>
        <time>2020-09-06T14:27:28Z</time>
      </trkpt>
      <trkpt lat="37.3969399184" lon="-3.1412182935">
        <ele>874.46</ele>
        <time>2020-09-06T14:27:29Z</time>
      </trkpt>
      <trkpt lat="37.3970299400" lon="-3.1412586104">
        <ele>873.50</ele>
        <time>2020-09-06T14:27:30Z</time>
      </trkpt>
      <trkpt lat="37.3971983325" lon="-3.1413352210">
        <ele>873.01</ele>
        <time>2020-09-06T14:27:32Z</time>
      </trkpt>
      <trkpt lat="37.3973004241" lon="-3.1413521525">
        <ele>872.05</ele>
        <time>2020-09-06T14:27:33Z</time>
      </trkpt>
      <trkpt lat="37.3974899389" lon="-3.1413833331">
        <ele>871.09</ele>
        <time>2020-09-06T14:27:35Z</time>
      </trkpt>
      <trkpt lat="37.3977605067" lon="-3.1414703373">
        <ele>867.73</ele>
        <time>2020-09-06T14:27:38Z</time>
      </trkpt>
      <trkpt lat="37.3978372850" lon="-3.1414957345">
        <ele>867.25</ele>
        <time>2020-09-06T14:27:39Z</time>
      </trkpt>
      <trkpt lat="37.3979268875" lon="-3.1415047031">
        <ele>866.29</ele>
        <time>2020-09-06T14:27:40Z</time>
      </trkpt>
      <trkpt lat="37.3980101198" lon="-3.1414983328">
        <ele>865.32</ele>
        <time>2020-09-06T14:27:41Z</time>
      </trkpt>
      <trkpt lat="37.3980914243" lon="-3.1415011827">
        <ele>864.84</ele>
        <time>2020-09-06T14:27:42Z</time>
      </trkpt>
      <trkpt lat="37.3981676158" lon="-3.1415314414">
        <ele>864.36</ele>
        <time>2020-09-06T14:27:43Z</time>
      </trkpt>
      <trkpt lat="37.3982443102" lon="-3.1415734347">
        <ele>863.40</ele>
        <time>2020-09-06T14:27:44Z</time>
      </trkpt>
      <trkpt lat="37.3983942624" lon="-3.1416400708">
        <ele>861.00</ele>
        <time>2020-09-06T14:27:46Z</time>
      </trkpt>
      <trkpt lat="37.3984634969" lon="-3.1416550744">
        <ele>859.56</ele>
        <time>2020-09-06T14:27:47Z</time>
      </trkpt>
      <trkpt lat="37.3985057417" lon="-3.1416544877">
        <ele>859.08</ele>
        <time>2020-09-06T14:27:48Z</time>
      </trkpt>
      <trkpt lat="37.3985313065" lon="-3.1416368857">
        <ele>858.11</ele>
        <time>2020-09-06T14:27:49Z</time>
      </trkpt>
      <trkpt lat="37.3985327315" lon="-3.1416126620">
        <ele>858.11</ele>
        <time>2020-09-06T14:27:50Z</time>
      </trkpt>
      <trkpt lat="37.3985164706" lon="-3.1415858399">
        <ele>857.63</ele>
        <time>2020-09-06T14:27:51Z</time>
      </trkpt>
      <trkpt lat="37.3985023052" lon="-3.1415736023">
        <ele>857.63</ele>
        <time>2020-09-06T14:27:52Z</time>
      </trkpt>
      <trkpt lat="37.3984865472" lon="-3.1415556651">
        <ele>857.63</ele>
        <time>2020-09-06T14:27:53Z</time>
      </trkpt>
      <trkpt lat="37.3984764051" lon="-3.1415366381">
        <ele>857.63</ele>
        <time>2020-09-06T14:27:54Z</time>
      </trkpt>
      <trkpt lat="37.3983878084" lon="-3.1413865183">
        <ele>858.11</ele>
        <time>2020-09-06T14:28:03Z</time>
      </trkpt>
      <trkpt lat="37.3983842041" lon="-3.1413648929">
        <ele>858.11</ele>
        <time>2020-09-06T14:28:04Z</time>
      </trkpt>
      <trkpt lat="37.3983801808" lon="-3.1413415074">
        <ele>858.11</ele>
        <time>2020-09-06T14:28:05Z</time>
      </trkpt>
      <trkpt lat="37.3983749002" lon="-3.1413141824">
        <ele>858.11</ele>
        <time>2020-09-06T14:28:06Z</time>
      </trkpt>
      <trkpt lat="37.3983690329" lon="-3.1412854325">
        <ele>858.11</ele>
        <time>2020-09-06T14:28:07Z</time>
      </trkpt>
      <trkpt lat="37.3983592261" lon="-3.1412532460">
        <ele>858.11</ele>
        <time>2020-09-06T14:28:08Z</time>
      </trkpt>
      <trkpt lat="37.3983442225" lon="-3.1412176229">
        <ele>858.11</ele>
        <time>2020-09-06T14:28:09Z</time>
      </trkpt>
      <trkpt lat="37.3981620837" lon="-3.1405940931">
        <ele>859.56</ele>
        <time>2020-09-06T14:28:23Z</time>
      </trkpt>
      <trkpt lat="37.3981544562" lon="-3.1405441370">
        <ele>859.56</ele>
        <time>2020-09-06T14:28:24Z</time>
      </trkpt>
      <trkpt lat="37.3980012350" lon="-3.1401148997">
        <ele>860.52</ele>
        <time>2020-09-06T14:28:34Z</time>
      </trkpt>
      <trkpt lat="37.3980198428" lon="-3.1399188470">
        <ele>861.00</ele>
        <time>2020-09-06T14:28:38Z</time>
      </trkpt>
      <trkpt lat="37.3981040809" lon="-3.1394274160">
        <ele>861.96</ele>
        <time>2020-09-06T14:28:48Z</time>
      </trkpt>
      <trkpt lat="37.3981096130" lon="-3.1390083209">
        <ele>862.92</ele>
        <time>2020-09-06T14:28:56Z</time>
      </trkpt>
      <trkpt lat="37.3980867304" lon="-3.1387497392">
        <ele>862.92</ele>
        <time>2020-09-06T14:29:01Z</time>
      </trkpt>
      <trkpt lat="37.3980752472" lon="-3.1386965141">
        <ele>863.40</ele>
        <time>2020-09-06T14:29:02Z</time>
      </trkpt>
      <trkpt lat="37.3980614170" lon="-3.1386468932">
        <ele>863.40</ele>
        <time>2020-09-06T14:29:03Z</time>
      </trkpt>
      <trkpt lat="37.3980442341" lon="-3.1385972723">
        <ele>863.40</ele>
        <time>2020-09-06T14:29:04Z</time>
      </trkpt>
      <trkpt lat="37.3980274703" lon="-3.1385482382">
        <ele>863.40</ele>
        <time>2020-09-06T14:29:05Z</time>
      </trkpt>
      <trkpt lat="37.3980099522" lon="-3.1384965219">
        <ele>863.40</ele>
        <time>2020-09-06T14:29:06Z</time>
      </trkpt>
      <trkpt lat="37.3978632689" lon="-3.1381459907">
        <ele>863.88</ele>
        <time>2020-09-06T14:29:13Z</time>
      </trkpt>
      <trkpt lat="37.3978153244" lon="-3.1380516104">
        <ele>863.88</ele>
        <time>2020-09-06T14:29:15Z</time>
      </trkpt>
      <trkpt lat="37.3974774498" lon="-3.1373511348">
        <ele>865.32</ele>
        <time>2020-09-06T14:29:29Z</time>
      </trkpt>
      <trkpt lat="37.3972725961" lon="-3.1368543394">
        <ele>866.29</ele>
        <time>2020-09-06T14:29:39Z</time>
      </trkpt>
      <trkpt lat="37.3972567543" lon="-3.1367991026">
        <ele>866.29</ele>
        <time>2020-09-06T14:29:40Z</time>
      </trkpt>
      <trkpt lat="37.3972372245" lon="-3.1367488950">
        <ele>866.29</ele>
        <time>2020-09-06T14:29:41Z</time>
      </trkpt>
      <trkpt lat="37.3972116597" lon="-3.1367058121">
        <ele>866.29</ele>
        <time>2020-09-06T14:29:42Z</time>
      </trkpt>
      <trkpt lat="37.3971822392" lon="-3.1366704404">
        <ele>866.29</ele>
        <time>2020-09-06T14:29:43Z</time>
      </trkpt>
      <trkpt lat="37.3971217219" lon="-3.1366066542">
        <ele>866.77</ele>
        <time>2020-09-06T14:29:45Z</time>
      </trkpt>
      <trkpt lat="37.3970855121" lon="-3.1365805864">
        <ele>866.77</ele>
        <time>2020-09-06T14:29:46Z</time>
      </trkpt>
      <trkpt lat="37.3970460333" lon="-3.1365613081">
        <ele>866.77</ele>
        <time>2020-09-06T14:29:47Z</time>
      </trkpt>
      <trkpt lat="37.3970044591" lon="-3.1365417782">
        <ele>866.77</ele>
        <time>2020-09-06T14:29:48Z</time>
      </trkpt>
      <trkpt lat="37.3969755415" lon="-3.1365066580">
        <ele>867.25</ele>
        <time>2020-09-06T14:29:49Z</time>
      </trkpt>
      <trkpt lat="37.3969591968" lon="-3.1364629883">
        <ele>867.25</ele>
        <time>2020-09-06T14:29:50Z</time>
      </trkpt>
      <trkpt lat="37.3969571851" lon="-3.1364168879">
        <ele>867.25</ele>
        <time>2020-09-06T14:29:51Z</time>
      </trkpt>
      <trkpt lat="37.3969641421" lon="-3.1363676023">
        <ele>867.25</ele>
        <time>2020-09-06T14:29:52Z</time>
      </trkpt>
      <trkpt lat="37.3969741166" lon="-3.1363163050">
        <ele>867.73</ele>
        <time>2020-09-06T14:29:53Z</time>
      </trkpt>
      <trkpt lat="37.3969855160" lon="-3.1362638343">
        <ele>867.73</ele>
        <time>2020-09-06T14:29:54Z</time>
      </trkpt>
      <trkpt lat="37.3969929758" lon="-3.1362115312">
        <ele>867.73</ele>
        <time>2020-09-06T14:29:55Z</time>
      </trkpt>
      <trkpt lat="37.3970313650" lon="-3.1358431466">
        <ele>869.17</ele>
        <time>2020-09-06T14:30:02Z</time>
      </trkpt>
      <trkpt lat="37.3970286828" lon="-3.1357926875">
        <ele>869.17</ele>
        <time>2020-09-06T14:30:03Z</time>
      </trkpt>
      <trkpt lat="37.3970203847" lon="-3.1357378699">
        <ele>869.17</ele>
        <time>2020-09-06T14:30:04Z</time>
      </trkpt>
      <trkpt lat="37.3970080633" lon="-3.1356835552">
        <ele>869.17</ele>
        <time>2020-09-06T14:30:05Z</time>
      </trkpt>
      <trkpt lat="37.3969950713" lon="-3.1356372032">
        <ele>869.17</ele>
        <time>2020-09-06T14:30:06Z</time>
      </trkpt>
      <trkpt lat="37.3969783913" lon="-3.1355880015">
        <ele>869.17</ele>
        <time>2020-09-06T14:30:07Z</time>
      </trkpt>
      <trkpt lat="37.3969596997" lon="-3.1355346087">
        <ele>869.17</ele>
        <time>2020-09-06T14:30:08Z</time>
      </trkpt>
      <trkpt lat="37.3969426006" lon="-3.1354869995">
        <ele>869.65</ele>
        <time>2020-09-06T14:30:09Z</time>
      </trkpt>
      <trkpt lat="37.3969252501" lon="-3.1354360376">
        <ele>869.65</ele>
        <time>2020-09-06T14:30:10Z</time>
      </trkpt>
      <trkpt lat="37.3969081510" lon="-3.1353831477">
        <ele>869.65</ele>
        <time>2020-09-06T14:30:11Z</time>
      </trkpt>
      <trkpt lat="37.3968952429" lon="-3.1353315152">
        <ele>869.65</ele>
        <time>2020-09-06T14:30:12Z</time>
      </trkpt>
      <trkpt lat="37.3968249187" lon="-3.1345977634">
        <ele>871.09</ele>
        <time>2020-09-06T14:30:26Z</time>
      </trkpt>
      <trkpt lat="37.3968752939" lon="-3.1342985295">
        <ele>871.57</ele>
        <time>2020-09-06T14:30:32Z</time>
      </trkpt>
      <trkpt lat="37.3968815804" lon="-3.1342462264">
        <ele>871.57</ele>
        <time>2020-09-06T14:30:33Z</time>
      </trkpt>
      <trkpt lat="37.3968873639" lon="-3.1341948453">
        <ele>871.57</ele>
        <time>2020-09-06T14:30:34Z</time>
      </trkpt>
      <trkpt lat="37.3969018646" lon="-3.1339879800">
        <ele>872.05</ele>
        <time>2020-09-06T14:30:38Z</time>
      </trkpt>
      <trkpt lat="37.3968924768" lon="-3.1338316575">
        <ele>872.53</ele>
        <time>2020-09-06T14:30:41Z</time>
      </trkpt>
      <trkpt lat="37.3968814965" lon="-3.1337835453">
        <ele>872.53</ele>
        <time>2020-09-06T14:30:42Z</time>
      </trkpt>
      <trkpt lat="37.3968705162" lon="-3.1337340921">
        <ele>872.53</ele>
        <time>2020-09-06T14:30:43Z</time>
      </trkpt>
      <trkpt lat="37.3968680017" lon="-3.1336832140">
        <ele>872.53</ele>
        <time>2020-09-06T14:30:44Z</time>
      </trkpt>
      <trkpt lat="37.3968688399" lon="-3.1336317491">
        <ele>872.53</ele>
        <time>2020-09-06T14:30:45Z</time>
      </trkpt>
      <trkpt lat="37.3968700133" lon="-3.1334154960">
        <ele>873.01</ele>
        <time>2020-09-06T14:30:49Z</time>
      </trkpt>
      <trkpt lat="37.3968595359" lon="-3.1333105545">
        <ele>873.50</ele>
        <time>2020-09-06T14:30:51Z</time>
      </trkpt>
      <trkpt lat="37.3969010264" lon="-3.1329159345">
        <ele>874.46</ele>
        <time>2020-09-06T14:30:59Z</time>
      </trkpt>
      <trkpt lat="37.3969209753" lon="-3.1328718457">
        <ele>874.46</ele>
        <time>2020-09-06T14:31:00Z</time>
      </trkpt>
      <trkpt lat="37.3969469592" lon="-3.1328293495">
        <ele>874.46</ele>
        <time>2020-09-06T14:31:01Z</time>
      </trkpt>
      <trkpt lat="37.3969733622" lon="-3.1327863503">
        <ele>874.46</ele>
        <time>2020-09-06T14:31:02Z</time>
      </trkpt>
      <trkpt lat="37.3969946522" lon="-3.1327403337">
        <ele>874.46</ele>
        <time>2020-09-06T14:31:03Z</time>
      </trkpt>
      <trkpt lat="37.3970098235" lon="-3.1326904614">
        <ele>874.94</ele>
        <time>2020-09-06T14:31:04Z</time>
      </trkpt>
      <trkpt lat="37.3970159423" lon="-3.1326369010">
        <ele>874.94</ele>
        <time>2020-09-06T14:31:05Z</time>
      </trkpt>
      <trkpt lat="37.3970148526" lon="-3.1325801555">
        <ele>874.94</ele>
        <time>2020-09-06T14:31:06Z</time>
      </trkpt>
      <trkpt lat="37.3970095720" lon="-3.1325235777">
        <ele>875.42</ele>
        <time>2020-09-06T14:31:07Z</time>
      </trkpt>
      <trkpt lat="37.3969056364" lon="-3.1315990537">
        <ele>877.34</ele>
        <time>2020-09-06T14:31:24Z</time>
      </trkpt>
      <trkpt lat="37.3968970031" lon="-3.1315455772">
        <ele>877.34</ele>
        <time>2020-09-06T14:31:25Z</time>
      </trkpt>
      <trkpt lat="37.3968835082" lon="-3.1314936932">
        <ele>877.34</ele>
        <time>2020-09-06T14:31:26Z</time>
      </trkpt>
      <trkpt lat="37.3968654033" lon="-3.1314447429">
        <ele>877.34</ele>
        <time>2020-09-06T14:31:27Z</time>
      </trkpt>
      <trkpt lat="37.3968439456" lon="-3.1313963793">
        <ele>877.34</ele>
        <time>2020-09-06T14:31:28Z</time>
      </trkpt>
      <trkpt lat="37.3968203925" lon="-3.1313489377">
        <ele>877.34</ele>
        <time>2020-09-06T14:31:29Z</time>
      </trkpt>
      <trkpt lat="37.3967953306" lon="-3.1313021667">
        <ele>877.82</ele>
        <time>2020-09-06T14:31:30Z</time>
      </trkpt>
      <trkpt lat="37.3967662454" lon="-3.1312553119">
        <ele>877.82</ele>
        <time>2020-09-06T14:31:31Z</time>
      </trkpt>
      <trkpt lat="37.3965814244" lon="-3.1310264859">
        <ele>878.30</ele>
        <time>2020-09-06T14:31:37Z</time>
      </trkpt>
      <trkpt lat="37.3965432029" lon="-3.1309932936">
        <ele>878.30</ele>
        <time>2020-09-06T14:31:38Z</time>
      </trkpt>
      <trkpt lat="37.3965047300" lon="-3.1309658848">
        <ele>878.30</ele>
        <time>2020-09-06T14:31:39Z</time>
      </trkpt>
      <trkpt lat="37.3961540312" lon="-3.1306495517">
        <ele>879.74</ele>
        <time>2020-09-06T14:31:49Z</time>
      </trkpt>
      <trkpt lat="37.3961173184" lon="-3.1306213886">
        <ele>879.74</ele>
        <time>2020-09-06T14:31:50Z</time>
      </trkpt>
      <trkpt lat="37.3959583137" lon="-3.1305415090">
        <ele>879.74</ele>
        <time>2020-09-06T14:31:54Z</time>
      </trkpt>
      <trkpt lat="37.3959126323" lon="-3.1305279303">
        <ele>880.22</ele>
        <time>2020-09-06T14:31:55Z</time>
      </trkpt>
      <trkpt lat="37.3957146518" lon="-3.1305451132">
        <ele>880.71</ele>
        <time>2020-09-06T14:32:00Z</time>
      </trkpt>
      <trkpt lat="37.3953088839" lon="-3.1306337100">
        <ele>882.15</ele>
        <time>2020-09-06T14:32:11Z</time>
      </trkpt>
      <trkpt lat="37.3952675611" lon="-3.1306217238">
        <ele>882.63</ele>
        <time>2020-09-06T14:32:12Z</time>
      </trkpt>
      <trkpt lat="37.3952285852" lon="-3.1306012720">
        <ele>882.63</ele>
        <time>2020-09-06T14:32:13Z</time>
      </trkpt>
      <trkpt lat="37.3951967340" lon="-3.1305708457">
        <ele>882.63</ele>
        <time>2020-09-06T14:32:14Z</time>
      </trkpt>
      <trkpt lat="37.3951720074" lon="-3.1305321213">
        <ele>882.63</ele>
        <time>2020-09-06T14:32:15Z</time>
      </trkpt>
      <trkpt lat="37.3951560818" lon="-3.1304829195">
        <ele>883.11</ele>
        <time>2020-09-06T14:32:16Z</time>
      </trkpt>
      <trkpt lat="37.3951486219" lon="-3.1304321252">
        <ele>883.11</ele>
        <time>2020-09-06T14:32:17Z</time>
      </trkpt>
      <trkpt lat="37.3951469455" lon="-3.1303818338">
        <ele>883.11</ele>
        <time>2020-09-06T14:32:18Z</time>
      </trkpt>
      <trkpt lat="37.3951508850" lon="-3.1303274352">
        <ele>883.59</ele>
        <time>2020-09-06T14:32:19Z</time>
      </trkpt>
      <trkpt lat="37.3951597698" lon="-3.1302767247">
        <ele>883.59</ele>
        <time>2020-09-06T14:32:20Z</time>
      </trkpt>
      <trkpt lat="37.3951747734" lon="-3.1302285288">
        <ele>883.59</ele>
        <time>2020-09-06T14:32:21Z</time>
      </trkpt>
      <trkpt lat="37.3951913696" lon="-3.1301825121">
        <ele>883.59</ele>
        <time>2020-09-06T14:32:22Z</time>
      </trkpt>
      <trkpt lat="37.3952663876" lon="-3.1300021335">
        <ele>884.07</ele>
        <time>2020-09-06T14:32:26Z</time>
      </trkpt>
      <trkpt lat="37.3952875938" lon="-3.1299609784">
        <ele>884.07</ele>
        <time>2020-09-06T14:32:27Z</time>
      </trkpt>
      <trkpt lat="37.3953044415" lon="-3.1299183983">
        <ele>884.07</ele>
        <time>2020-09-06T14:32:28Z</time>
      </trkpt>
      <trkpt lat="37.3955727462" lon="-3.1292769313">
        <ele>885.99</ele>
        <time>2020-09-06T14:32:43Z</time>
      </trkpt>
      <trkpt lat="37.3957418092" lon="-3.1289269030">
        <ele>886.95</ele>
        <time>2020-09-06T14:32:51Z</time>
      </trkpt>
      <trkpt lat="37.3958111275" lon="-3.1287376396">
        <ele>886.95</ele>
        <time>2020-09-06T14:32:55Z</time>
      </trkpt>
      <trkpt lat="37.3958372790" lon="-3.1286363024">
        <ele>887.43</ele>
        <time>2020-09-06T14:32:57Z</time>
      </trkpt>
      <trkpt lat="37.3958438169" lon="-3.1285860110">
        <ele>887.43</ele>
        <time>2020-09-06T14:32:58Z</time>
      </trkpt>
      <trkpt lat="37.3958442360" lon="-3.1285334565">
        <ele>887.43</ele>
        <time>2020-09-06T14:32:59Z</time>
      </trkpt>
      <trkpt lat="37.3958367761" lon="-3.1284790579">
        <ele>887.43</ele>
        <time>2020-09-06T14:33:00Z</time>
      </trkpt>
      <trkpt lat="37.3958183359" lon="-3.1284340471">
        <ele>887.43</ele>
        <time>2020-09-06T14:33:01Z</time>
      </trkpt>
      <trkpt lat="37.3957873229" lon="-3.1284018606">
        <ele>887.43</ele>
        <time>2020-09-06T14:33:02Z</time>
      </trkpt>
      <trkpt lat="37.3957439885" lon="-3.1283822469">
        <ele>887.43</ele>
        <time>2020-09-06T14:33:03Z</time>
      </trkpt>
      <trkpt lat="37.3957007378" lon="-3.1283756252">
        <ele>887.91</ele>
        <time>2020-09-06T14:33:04Z</time>
      </trkpt>
      <trkpt lat="37.3956587445" lon="-3.1283727754">
        <ele>887.91</ele>
        <time>2020-09-06T14:33:05Z</time>
      </trkpt>
      <trkpt lat="37.3956119735" lon="-3.1283721048">
        <ele>887.91</ele>
        <time>2020-09-06T14:33:06Z</time>
      </trkpt>
      <trkpt lat="37.3948524054" lon="-3.1285979133">
        <ele>889.36</ele>
        <time>2020-09-06T14:33:24Z</time>
      </trkpt>
      <trkpt lat="37.3945086636" lon="-3.1288107298">
        <ele>890.32</ele>
        <time>2020-09-06T14:33:33Z</time>
      </trkpt>
      <trkpt lat="37.3944642395" lon="-3.1288240571">
        <ele>890.80</ele>
        <time>2020-09-06T14:33:34Z</time>
      </trkpt>
      <trkpt lat="37.3944252636" lon="-3.1288312655">
        <ele>890.80</ele>
        <time>2020-09-06T14:33:35Z</time>
      </trkpt>
      <trkpt lat="37.3943833541" lon="-3.1288356241">
        <ele>890.80</ele>
        <time>2020-09-06T14:33:36Z</time>
      </trkpt>
      <trkpt lat="37.3943389300" lon="-3.1288351212">
        <ele>890.80</ele>
        <time>2020-09-06T14:33:37Z</time>
      </trkpt>
      <trkpt lat="37.3942966014" lon="-3.1288299244">
        <ele>890.80</ele>
        <time>2020-09-06T14:33:38Z</time>
      </trkpt>
      <trkpt lat="37.3942546081" lon="-3.1288201176">
        <ele>891.28</ele>
        <time>2020-09-06T14:33:39Z</time>
      </trkpt>
      <trkpt lat="37.3942153808" lon="-3.1288068742">
        <ele>891.28</ele>
        <time>2020-09-06T14:33:40Z</time>
      </trkpt>
      <trkpt lat="37.3941764049" lon="-3.1287906133">
        <ele>891.28</ele>
        <time>2020-09-06T14:33:41Z</time>
      </trkpt>
      <trkpt lat="37.3941386025" lon="-3.1287684012">
        <ele>891.28</ele>
        <time>2020-09-06T14:33:42Z</time>
      </trkpt>
      <trkpt lat="37.3941053264" lon="-3.1287446804">
        <ele>891.28</ele>
        <time>2020-09-06T14:33:43Z</time>
      </trkpt>
      <trkpt lat="37.3940681946" lon="-3.1287145894">
        <ele>891.28</ele>
        <time>2020-09-06T14:33:44Z</time>
      </trkpt>
      <trkpt lat="37.3940334097" lon="-3.1286787987">
        <ele>891.28</ele>
        <time>2020-09-06T14:33:45Z</time>
      </trkpt>
      <trkpt lat="37.3940044083" lon="-3.1286446843">
        <ele>891.28</ele>
        <time>2020-09-06T14:33:46Z</time>
      </trkpt>
      <trkpt lat="37.3939744849" lon="-3.1286045350">
        <ele>891.28</ele>
        <time>2020-09-06T14:33:47Z</time>
      </trkpt>
      <trkpt lat="37.3938506842" lon="-3.1283921376">
        <ele>892.72</ele>
        <time>2020-09-06T14:33:52Z</time>
      </trkpt>
      <trkpt lat="37.3937071860" lon="-3.1281266827">
        <ele>892.72</ele>
        <time>2020-09-06T14:33:58Z</time>
      </trkpt>
      <trkpt lat="37.3936203495" lon="-3.1280135270">
        <ele>892.72</ele>
        <time>2020-09-06T14:34:01Z</time>
      </trkpt>
      <trkpt lat="37.3931274936" lon="-3.1275099423">
        <ele>894.16</ele>
        <time>2020-09-06T14:34:16Z</time>
      </trkpt>
      <trkpt lat="37.3929114919" lon="-3.1271064375">
        <ele>895.61</ele>
        <time>2020-09-06T14:34:25Z</time>
      </trkpt>
      <trkpt lat="37.3926023673" lon="-3.1265294272">
        <ele>896.09</ele>
        <time>2020-09-06T14:34:38Z</time>
      </trkpt>
      <trkpt lat="37.3922805022" lon="-3.1260205619">
        <ele>896.57</ele>
        <time>2020-09-06T14:34:50Z</time>
      </trkpt>
      <trkpt lat="37.3922605533" lon="-3.1259731203">
        <ele>896.57</ele>
        <time>2020-09-06T14:34:51Z</time>
      </trkpt>
      <trkpt lat="37.3920983635" lon="-3.1256198231">
        <ele>897.05</ele>
        <time>2020-09-06T14:34:59Z</time>
      </trkpt>
      <trkpt lat="37.3920602258" lon="-3.1256108545">
        <ele>898.01</ele>
        <time>2020-09-06T14:35:00Z</time>
      </trkpt>
      <trkpt lat="37.3920204118" lon="-3.1256103516">
        <ele>898.01</ele>
        <time>2020-09-06T14:35:01Z</time>
      </trkpt>
      <trkpt lat="37.3919796757" lon="-3.1256044004">
        <ele>898.01</ele>
        <time>2020-09-06T14:35:02Z</time>
      </trkpt>
      <trkpt lat="37.3919424601" lon="-3.1255938392">
        <ele>898.01</ele>
        <time>2020-09-06T14:35:03Z</time>
      </trkpt>
      <trkpt lat="37.3919102736" lon="-3.1255804282">
        <ele>898.01</ele>
        <time>2020-09-06T14:35:04Z</time>
      </trkpt>
      <trkpt lat="37.3915211856" lon="-3.1253395323">
        <ele>901.37</ele>
        <time>2020-09-06T14:35:18Z</time>
      </trkpt>
      <trkpt lat="37.3913201038" lon="-3.1251008995">
        <ele>904.74</ele>
        <time>2020-09-06T14:35:30Z</time>
      </trkpt>
      <trkpt lat="37.3912165035" lon="-3.1247118954">
        <ele>906.66</ele>
        <time>2020-09-06T14:35:44Z</time>
      </trkpt>
      <trkpt lat="37.3910701554" lon="-3.1244691554">
        <ele>910.51</ele>
        <time>2020-09-06T14:35:56Z</time>
      </trkpt>
      <trkpt lat="37.3909393977" lon="-3.1241361424">
        <ele>912.43</ele>
        <time>2020-09-06T14:36:08Z</time>
      </trkpt>
      <trkpt lat="37.3907381482" lon="-3.1236322224">
        <ele>915.31</ele>
        <time>2020-09-06T14:36:25Z</time>
      </trkpt>
      <trkpt lat="37.3906565085" lon="-3.1235523429">
        <ele>916.27</ele>
        <time>2020-09-06T14:36:29Z</time>
      </trkpt>
      <trkpt lat="37.3902576976" lon="-3.1233531050">
        <ele>917.72</ele>
        <time>2020-09-06T14:36:42Z</time>
      </trkpt>
      <trkpt lat="37.3899874650" lon="-3.1228962075">
        <ele>919.16</ele>
        <time>2020-09-06T14:36:54Z</time>
      </trkpt>
      <trkpt lat="37.3895949405" lon="-3.1225061975">
        <ele>921.08</ele>
        <time>2020-09-06T14:37:07Z</time>
      </trkpt>
      <trkpt lat="37.3892443255" lon="-3.1219829153">
        <ele>923.96</ele>
        <time>2020-09-06T14:37:21Z</time>
      </trkpt>
      <trkpt lat="37.3888414074" lon="-3.1216716953">
        <ele>925.89</ele>
        <time>2020-09-06T14:37:34Z</time>
      </trkpt>
      <trkpt lat="37.3887422495" lon="-3.1215488166">
        <ele>927.33</ele>
        <time>2020-09-06T14:37:39Z</time>
      </trkpt>
      <trkpt lat="37.3887347896" lon="-3.1215168815">
        <ele>927.81</ele>
        <time>2020-09-06T14:37:40Z</time>
      </trkpt>
      <trkpt lat="37.3887346219" lon="-3.1214839406">
        <ele>927.81</ele>
        <time>2020-09-06T14:37:41Z</time>
      </trkpt>
      <trkpt lat="37.3887752742" lon="-3.1210909132">
        <ele>929.25</ele>
        <time>2020-09-06T14:37:52Z</time>
      </trkpt>
      <trkpt lat="37.3885339592" lon="-3.1210886501">
        <ele>932.14</ele>
        <time>2020-09-06T14:38:01Z</time>
      </trkpt>
      <trkpt lat="37.3884186242" lon="-3.1211228482">
        <ele>933.10</ele>
        <time>2020-09-06T14:38:06Z</time>
      </trkpt>
      <trkpt lat="37.3883959930" lon="-3.1211087666">
        <ele>933.58</ele>
        <time>2020-09-06T14:38:07Z</time>
      </trkpt>
      <trkpt lat="37.3883740325" lon="-3.1210904103">
        <ele>933.58</ele>
        <time>2020-09-06T14:38:08Z</time>
      </trkpt>
      <trkpt lat="37.3883493897" lon="-3.1210736465">
        <ele>933.58</ele>
        <time>2020-09-06T14:38:09Z</time>
      </trkpt>
      <trkpt lat="37.3883216456" lon="-3.1210589781">
        <ele>934.06</ele>
        <time>2020-09-06T14:38:10Z</time>
      </trkpt>
      <trkpt lat="37.3882913031" lon="-3.1210526917">
        <ele>934.06</ele>
        <time>2020-09-06T14:38:11Z</time>
      </trkpt>
      <trkpt lat="37.3882617988" lon="-3.1210521050">
        <ele>934.06</ele>
        <time>2020-09-06T14:38:12Z</time>
      </trkpt>
      <trkpt lat="37.3882334679" lon="-3.1210596487">
        <ele>934.54</ele>
        <time>2020-09-06T14:38:13Z</time>
      </trkpt>
      <trkpt lat="37.3882056400" lon="-3.1210707128">
        <ele>934.54</ele>
        <time>2020-09-06T14:38:14Z</time>
      </trkpt>
      <trkpt lat="37.3878753930" lon="-3.1210176554">
        <ele>935.98</ele>
        <time>2020-09-06T14:38:25Z</time>
      </trkpt>
      <trkpt lat="37.3878898099" lon="-3.1206651125">
        <ele>935.50</ele>
        <time>2020-09-06T14:38:33Z</time>
      </trkpt>
      <trkpt lat="37.3878483195" lon="-3.1203207839">
        <ele>935.50</ele>
        <time>2020-09-06T14:38:42Z</time>
      </trkpt>
      <trkpt lat="37.3878007103" lon="-3.1199849211">
        <ele>937.90</ele>
        <time>2020-09-06T14:38:54Z</time>
      </trkpt>
      <trkpt lat="37.3877341580" lon="-3.1197239924">
        <ele>941.27</ele>
        <time>2020-09-06T14:39:05Z</time>
      </trkpt>
      <trkpt lat="37.3876695335" lon="-3.1194190588">
        <ele>944.15</ele>
        <time>2020-09-06T14:39:18Z</time>
      </trkpt>
      <trkpt lat="37.3874666914" lon="-3.1192738842">
        <ele>946.07</ele>
        <time>2020-09-06T14:39:30Z</time>
      </trkpt>
      <trkpt lat="37.3874081019" lon="-3.1191221718">
        <ele>948.48</ele>
        <time>2020-09-06T14:39:37Z</time>
      </trkpt>
      <trkpt lat="37.3873488419" lon="-3.1188629195">
        <ele>951.36</ele>
        <time>2020-09-06T14:39:48Z</time>
      </trkpt>
      <trkpt lat="37.3874601535" lon="-3.1185463350">
        <ele>954.73</ele>
        <time>2020-09-06T14:40:02Z</time>
      </trkpt>
      <trkpt lat="37.3875422124" lon="-3.1184111349">
        <ele>955.69</ele>
        <time>2020-09-06T14:40:09Z</time>
      </trkpt>
      <trkpt lat="37.3875452299" lon="-3.1183895096">
        <ele>956.17</ele>
        <time>2020-09-06T14:40:10Z</time>
      </trkpt>
      <trkpt lat="37.3875454813" lon="-3.1183667947">
        <ele>956.17</ele>
        <time>2020-09-06T14:40:11Z</time>
      </trkpt>
      <trkpt lat="37.3875423800" lon="-3.1183458399">
        <ele>956.17</ele>
        <time>2020-09-06T14:40:12Z</time>
      </trkpt>
      <trkpt lat="37.3875355069" lon="-3.1183253042">
        <ele>956.65</ele>
        <time>2020-09-06T14:40:13Z</time>
      </trkpt>
      <trkpt lat="37.3873447347" lon="-3.1180657167">
        <ele>958.57</ele>
        <time>2020-09-06T14:40:27Z</time>
      </trkpt>
      <trkpt lat="37.3873283062" lon="-3.1180204544">
        <ele>959.05</ele>
        <time>2020-09-06T14:40:29Z</time>
      </trkpt>
      <trkpt lat="37.3873249535" lon="-3.1179952249">
        <ele>960.01</ele>
        <time>2020-09-06T14:40:30Z</time>
      </trkpt>
      <trkpt lat="37.3873247858" lon="-3.1179691572">
        <ele>960.01</ele>
        <time>2020-09-06T14:40:31Z</time>
      </trkpt>
      <trkpt lat="37.3873293959" lon="-3.1179450173">
        <ele>960.01</ele>
        <time>2020-09-06T14:40:32Z</time>
      </trkpt>
      <trkpt lat="37.3873381130" lon="-3.1179214641">
        <ele>960.49</ele>
        <time>2020-09-06T14:40:33Z</time>
      </trkpt>
      <trkpt lat="37.3875738122" lon="-3.1177829951">
        <ele>963.38</ele>
        <time>2020-09-06T14:40:46Z</time>
      </trkpt>
      <trkpt lat="37.3878623173" lon="-3.1176742818">
        <ele>966.26</ele>
        <time>2020-09-06T14:41:01Z</time>
      </trkpt>
      <trkpt lat="37.3879157100" lon="-3.1175280176">
        <ele>967.70</ele>
        <time>2020-09-06T14:41:08Z</time>
      </trkpt>
      <trkpt lat="37.3879125249" lon="-3.1175017823">
        <ele>968.67</ele>
        <time>2020-09-06T14:41:09Z</time>
      </trkpt>
      <trkpt lat="37.3878653347" lon="-3.1170890573">
        <ele>971.55</ele>
        <time>2020-09-06T14:41:25Z</time>
      </trkpt>
      <trkpt lat="37.3878770694" lon="-3.1168167293">
        <ele>973.95</ele>
        <time>2020-09-06T14:41:36Z</time>
      </trkpt>
      <trkpt lat="37.3878838588" lon="-3.1167936791">
        <ele>973.95</ele>
        <time>2020-09-06T14:41:37Z</time>
      </trkpt>
      <trkpt lat="37.3878872953" lon="-3.1167664379">
        <ele>974.43</ele>
        <time>2020-09-06T14:41:38Z</time>
      </trkpt>
      <trkpt lat="37.3878996167" lon="-3.1162273139">
        <ele>977.32</ele>
        <time>2020-09-06T14:41:57Z</time>
      </trkpt>
      <trkpt lat="37.3879199009" lon="-3.1157938018">
        <ele>979.72</ele>
        <time>2020-09-06T14:42:12Z</time>
      </trkpt>
      <trkpt lat="37.3879071604" lon="-3.1153092440">
        <ele>982.12</ele>
        <time>2020-09-06T14:42:28Z</time>
      </trkpt>
      <trkpt lat="37.3878935818" lon="-3.1152312923">
        <ele>982.60</ele>
        <time>2020-09-06T14:42:31Z</time>
      </trkpt>
      <trkpt lat="37.3878846131" lon="-3.1152097508">
        <ele>983.09</ele>
        <time>2020-09-06T14:42:32Z</time>
      </trkpt>
      <trkpt lat="37.3878732137" lon="-3.1151898019">
        <ele>983.09</ele>
        <time>2020-09-06T14:42:33Z</time>
      </trkpt>
      <trkpt lat="37.3878610600" lon="-3.1151684280">
        <ele>983.09</ele>
        <time>2020-09-06T14:42:34Z</time>
      </trkpt>
      <trkpt lat="37.3878502473" lon="-3.1151474733">
        <ele>983.09</ele>
        <time>2020-09-06T14:42:35Z</time>
      </trkpt>
      <trkpt lat="37.3878399376" lon="-3.1151250098">
        <ele>983.09</ele>
        <time>2020-09-06T14:42:36Z</time>
      </trkpt>
      <trkpt lat="37.3877852038" lon="-3.1148160528">
        <ele>985.01</ele>
        <time>2020-09-06T14:42:48Z</time>
      </trkpt>
      <trkpt lat="37.3878759798" lon="-3.1144199241">
        <ele>987.41</ele>
        <time>2020-09-06T14:43:02Z</time>
      </trkpt>
      <trkpt lat="37.3878857028" lon="-3.1140545569">
        <ele>990.78</ele>
        <time>2020-09-06T14:43:14Z</time>
      </trkpt>
      <trkpt lat="37.3879287019" lon="-3.1136502977">
        <ele>992.70</ele>
        <time>2020-09-06T14:43:28Z</time>
      </trkpt>
      <trkpt lat="37.3879726231" lon="-3.1132731121">
        <ele>996.06</ele>
        <time>2020-09-06T14:43:42Z</time>
      </trkpt>
      <trkpt lat="37.3882379103" lon="-3.1131064799">
        <ele>997.51</ele>
        <time>2020-09-06T14:43:55Z</time>
      </trkpt>
      <trkpt lat="37.3884906247" lon="-3.1127904821">
        <ele>998.47</ele>
        <time>2020-09-06T14:44:08Z</time>
      </trkpt>
      <trkpt lat="37.3885834124" lon="-3.1121928524">
        <ele>1000.39</ele>
        <time>2020-09-06T14:44:24Z</time>
      </trkpt>
      <trkpt lat="37.3887430038" lon="-3.1119330134">
        <ele>1000.87</ele>
        <time>2020-09-06T14:44:31Z</time>
      </trkpt>
      <trkpt lat="37.3887782916" lon="-3.1119102146">
        <ele>1000.87</ele>
        <time>2020-09-06T14:44:32Z</time>
      </trkpt>
      <trkpt lat="37.3891406413" lon="-3.1118300837">
        <ele>1002.31</ele>
        <time>2020-09-06T14:44:43Z</time>
      </trkpt>
      <trkpt lat="37.3895043321" lon="-3.1116160937">
        <ele>1005.68</ele>
        <time>2020-09-06T14:44:57Z</time>
      </trkpt>
      <trkpt lat="37.3897926696" lon="-3.1113637146">
        <ele>1003.75</ele>
        <time>2020-09-06T14:45:07Z</time>
      </trkpt>
      <trkpt lat="37.3898415361" lon="-3.1113285106">
        <ele>1003.75</ele>
        <time>2020-09-06T14:45:08Z</time>
      </trkpt>
      <trkpt lat="37.3898904026" lon="-3.1112849247">
        <ele>1003.27</ele>
        <time>2020-09-06T14:45:09Z</time>
      </trkpt>
      <trkpt lat="37.3899311386" lon="-3.1112341303">
        <ele>1003.27</ele>
        <time>2020-09-06T14:45:10Z</time>
      </trkpt>
      <trkpt lat="37.3899611458" lon="-3.1111802347">
        <ele>1003.27</ele>
        <time>2020-09-06T14:45:11Z</time>
      </trkpt>
      <trkpt lat="37.3899845313" lon="-3.1111259200">
        <ele>1003.27</ele>
        <time>2020-09-06T14:45:12Z</time>
      </trkpt>
      <trkpt lat="37.3900236748" lon="-3.1109756324">
        <ele>1005.20</ele>
        <time>2020-09-06T14:45:16Z</time>
      </trkpt>
      <trkpt lat="37.3901072424" lon="-3.1107666716">
        <ele>1008.56</ele>
        <time>2020-09-06T14:45:25Z</time>
      </trkpt>
      <trkpt lat="37.3901988566" lon="-3.1104982831">
        <ele>1011.44</ele>
        <time>2020-09-06T14:45:37Z</time>
      </trkpt>
      <trkpt lat="37.3902893811" lon="-3.1101948582">
        <ele>1014.33</ele>
        <time>2020-09-06T14:45:51Z</time>
      </trkpt>
      <trkpt lat="37.3903506529" lon="-3.1098724902">
        <ele>1017.21</ele>
        <time>2020-09-06T14:46:06Z</time>
      </trkpt>
      <trkpt lat="37.3903246690" lon="-3.1093479507">
        <ele>1019.62</ele>
        <time>2020-09-06T14:46:24Z</time>
      </trkpt>
      <trkpt lat="37.3903064802" lon="-3.1089327950">
        <ele>1022.98</ele>
        <time>2020-09-06T14:46:39Z</time>
      </trkpt>
      <trkpt lat="37.3904081527" lon="-3.1085398514">
        <ele>1026.83</ele>
        <time>2020-09-06T14:46:55Z</time>
      </trkpt>
      <trkpt lat="37.3904676642" lon="-3.1085196510">
        <ele>1026.83</ele>
        <time>2020-09-06T14:46:58Z</time>
      </trkpt>
      <trkpt lat="37.3904862721" lon="-3.1085294578">
        <ele>1026.83</ele>
        <time>2020-09-06T14:46:59Z</time>
      </trkpt>
      <trkpt lat="37.3905015271" lon="-3.1085455511">
        <ele>1026.83</ele>
        <time>2020-09-06T14:47:00Z</time>
      </trkpt>
      <trkpt lat="37.3905190453" lon="-3.1085598003">
        <ele>1027.31</ele>
        <time>2020-09-06T14:47:01Z</time>
      </trkpt>
      <trkpt lat="37.3905377369" lon="-3.1085706130">
        <ele>1027.79</ele>
        <time>2020-09-06T14:47:02Z</time>
      </trkpt>
      <trkpt lat="37.3905564286" lon="-3.1085774861">
        <ele>1027.79</ele>
        <time>2020-09-06T14:47:03Z</time>
      </trkpt>
      <trkpt lat="37.3908153456" lon="-3.1085121911">
        <ele>1030.19</ele>
        <time>2020-09-06T14:47:16Z</time>
      </trkpt>
      <trkpt lat="37.3908211291" lon="-3.1084867101">
        <ele>1030.67</ele>
        <time>2020-09-06T14:47:17Z</time>
      </trkpt>
      <trkpt lat="37.3908214644" lon="-3.1084592175">
        <ele>1030.67</ele>
        <time>2020-09-06T14:47:18Z</time>
      </trkpt>
      <trkpt lat="37.3908188660" lon="-3.1084316410">
        <ele>1030.67</ele>
        <time>2020-09-06T14:47:19Z</time>
      </trkpt>
      <trkpt lat="37.3906671535" lon="-3.1081177387">
        <ele>1031.63</ele>
        <time>2020-09-06T14:47:31Z</time>
      </trkpt>
      <trkpt lat="37.3903015349" lon="-3.1079703011">
        <ele>1031.63</ele>
        <time>2020-09-06T14:47:43Z</time>
      </trkpt>
      <trkpt lat="37.3900053184" lon="-3.1078838836">
        <ele>1031.63</ele>
        <time>2020-09-06T14:47:50Z</time>
      </trkpt>
      <trkpt lat="37.3899657559" lon="-3.1078876555">
        <ele>1031.63</ele>
        <time>2020-09-06T14:47:51Z</time>
      </trkpt>
      <trkpt lat="37.3899304681" lon="-3.1078884937">
        <ele>1031.15</ele>
        <time>2020-09-06T14:47:52Z</time>
      </trkpt>
      <trkpt lat="37.3898982815" lon="-3.1078855600">
        <ele>1031.63</ele>
        <time>2020-09-06T14:47:53Z</time>
      </trkpt>
      <trkpt lat="37.3898704536" lon="-3.1078835484">
        <ele>1031.63</ele>
        <time>2020-09-06T14:47:54Z</time>
      </trkpt>
      <trkpt lat="37.3898401111" lon="-3.1078790221">
        <ele>1031.63</ele>
        <time>2020-09-06T14:47:55Z</time>
      </trkpt>
      <trkpt lat="37.3898127023" lon="-3.1078682095">
        <ele>1031.63</ele>
        <time>2020-09-06T14:47:56Z</time>
      </trkpt>
      <trkpt lat="37.3897886463" lon="-3.1078526191">
        <ele>1031.63</ele>
        <time>2020-09-06T14:47:57Z</time>
      </trkpt>
      <trkpt lat="37.3897627462" lon="-3.1078278925">
        <ele>1031.63</ele>
        <time>2020-09-06T14:47:58Z</time>
      </trkpt>
      <trkpt lat="37.3897385225" lon="-3.1078009028">
        <ele>1031.63</ele>
        <time>2020-09-06T14:47:59Z</time>
      </trkpt>
      <trkpt lat="37.3897129577" lon="-3.1077693868">
        <ele>1031.63</ele>
        <time>2020-09-06T14:48:00Z</time>
      </trkpt>
      <trkpt lat="37.3894324992" lon="-3.1075125653">
        <ele>1031.63</ele>
        <time>2020-09-06T14:48:11Z</time>
      </trkpt>
      <trkpt lat="37.3893191759" lon="-3.1074497849">
        <ele>1032.11</ele>
        <time>2020-09-06T14:48:20Z</time>
      </trkpt>
      <trkpt lat="37.3893190920" lon="-3.1074469350">
        <ele>1032.11</ele>
        <time>2020-09-06T14:48:23Z</time>
      </trkpt>
      <trkpt lat="37.3893366102" lon="-3.1074569095">
        <ele>1032.11</ele>
        <time>2020-09-06T14:48:37Z</time>
      </trkpt>
      <trkpt lat="37.3893462494" lon="-3.1074575800">
        <ele>1032.59</ele>
        <time>2020-09-06T14:49:20Z</time>
      </trkpt>
      <trkpt lat="37.3893370293" lon="-3.1074618548">
        <ele>1032.59</ele>
        <time>2020-09-06T14:49:36Z</time>
      </trkpt>
      <trkpt lat="37.3893476743" lon="-3.1074664649">
        <ele>1024.90</ele>
        <time>2020-09-06T14:49:37Z</time>
      </trkpt>
      <trkpt lat="37.3893241212" lon="-3.1074747629">
        <ele>1032.59</ele>
        <time>2020-09-06T14:53:52Z</time>
      </trkpt>
      <trkpt lat="37.3893237021" lon="-3.1074761879">
        <ele>1034.04</ele>
        <time>2020-09-06T14:54:27Z</time>
      </trkpt>
      <trkpt lat="37.3893415555" lon="-3.1074701529">
        <ele>1034.04</ele>
        <time>2020-09-06T14:54:45Z</time>
      </trkpt>
      <trkpt lat="37.3893327545" lon="-3.1074684765">
        <ele>1034.04</ele>
        <time>2020-09-06T14:55:04Z</time>
      </trkpt>
      <trkpt lat="37.3893371969" lon="-3.1074654590">
        <ele>1034.04</ele>
        <time>2020-09-06T14:55:40Z</time>
      </trkpt>
      <trkpt lat="37.3893316649" lon="-3.1074626092">
        <ele>1034.04</ele>
        <time>2020-09-06T14:56:09Z</time>
      </trkpt>
      <trkpt lat="37.3893125542" lon="-3.1074787024">
        <ele>1032.59</ele>
        <time>2020-09-06T14:56:31Z</time>
      </trkpt>
      <trkpt lat="37.3893336765" lon="-3.1074678898">
        <ele>1032.59</ele>
        <time>2020-09-06T14:56:59Z</time>
      </trkpt>
      <trkpt lat="37.3893285636" lon="-3.1074623577">
        <ele>1034.04</ele>
        <time>2020-09-06T14:57:23Z</time>
      </trkpt>
      <trkpt lat="37.3893490154" lon="-3.1074615195">
        <ele>1034.04</ele>
        <time>2020-09-06T14:57:49Z</time>
      </trkpt>
      <trkpt lat="37.3893224448" lon="-3.1074691471">
        <ele>1034.52</ele>
        <time>2020-09-06T14:58:17Z</time>
      </trkpt>
      <trkpt lat="37.3893281445" lon="-3.1074666325">
        <ele>1034.52</ele>
        <time>2020-09-06T14:58:46Z</time>
      </trkpt>
      <trkpt lat="37.3893336765" lon="-3.1074595079">
        <ele>1034.52</ele>
        <time>2020-09-06T14:59:25Z</time>
      </trkpt>
      <trkpt lat="37.3893291503" lon="-3.1074683927">
        <ele>1033.07</ele>
        <time>2020-09-06T14:59:46Z</time>
      </trkpt>
      <trkpt lat="37.3893240374" lon="-3.1074637827">
        <ele>1033.07</ele>
        <time>2020-09-06T15:00:15Z</time>
      </trkpt>
      <trkpt lat="37.3893304076" lon="-3.1074480247">
        <ele>1033.07</ele>
        <time>2020-09-06T15:00:22Z</time>
      </trkpt>
      <trkpt lat="37.3894015700" lon="-3.1073439214">
        <ele>1033.07</ele>
        <time>2020-09-06T15:00:28Z</time>
      </trkpt>
      <trkpt lat="37.3895927612" lon="-3.1071662251">
        <ele>1033.07</ele>
        <time>2020-09-06T15:00:36Z</time>
      </trkpt>
      <trkpt lat="37.3896614090" lon="-3.1067566853">
        <ele>1033.07</ele>
        <time>2020-09-06T15:00:47Z</time>
      </trkpt>
      <trkpt lat="37.3897795938" lon="-3.1065748818">
        <ele>1033.07</ele>
        <time>2020-09-06T15:00:52Z</time>
      </trkpt>
      <trkpt lat="37.3898140434" lon="-3.1065433659">
        <ele>1033.07</ele>
        <time>2020-09-06T15:00:53Z</time>
      </trkpt>
      <trkpt lat="37.3898474872" lon="-3.1065183040">
        <ele>1033.07</ele>
        <time>2020-09-06T15:00:54Z</time>
      </trkpt>
      <trkpt lat="37.3898782488" lon="-3.1064874586">
        <ele>1033.07</ele>
        <time>2020-09-06T15:00:55Z</time>
      </trkpt>
      <trkpt lat="37.3899072502" lon="-3.1064535119">
        <ele>1033.07</ele>
        <time>2020-09-06T15:00:56Z</time>
      </trkpt>
      <trkpt lat="37.3899391852" lon="-3.1064244267">
        <ele>1033.07</ele>
        <time>2020-09-06T15:00:57Z</time>
      </trkpt>
      <trkpt lat="37.3903940711" lon="-3.1061433814">
        <ele>1033.07</ele>
        <time>2020-09-06T15:01:08Z</time>
      </trkpt>
      <trkpt lat="37.3904332146" lon="-3.1061066687">
        <ele>1032.59</ele>
        <time>2020-09-06T15:01:09Z</time>
      </trkpt>
      <trkpt lat="37.3904683348" lon="-3.1060618255">
        <ele>1032.59</ele>
        <time>2020-09-06T15:01:10Z</time>
      </trkpt>
      <trkpt lat="37.3904959951" lon="-3.1060091034">
        <ele>1032.59</ele>
        <time>2020-09-06T15:01:11Z</time>
      </trkpt>
      <trkpt lat="37.3905182909" lon="-3.1059528608">
        <ele>1032.59</ele>
        <time>2020-09-06T15:01:12Z</time>
      </trkpt>
      <trkpt lat="37.3905582726" lon="-3.1058367714">
        <ele>1032.59</ele>
        <time>2020-09-06T15:01:14Z</time>
      </trkpt>
      <trkpt lat="37.3905694205" lon="-3.1057754159">
        <ele>1032.59</ele>
        <time>2020-09-06T15:01:15Z</time>
      </trkpt>
      <trkpt lat="37.3905699234" lon="-3.1057123002">
        <ele>1032.59</ele>
        <time>2020-09-06T15:01:16Z</time>
      </trkpt>
      <trkpt lat="37.3905667383" lon="-3.1056502741">
        <ele>1032.59</ele>
        <time>2020-09-06T15:01:17Z</time>
      </trkpt>
      <trkpt lat="37.3905604519" lon="-3.1055885833">
        <ele>1032.59</ele>
        <time>2020-09-06T15:01:18Z</time>
      </trkpt>
      <trkpt lat="37.3905513994" lon="-3.1055242941">
        <ele>1032.59</ele>
        <time>2020-09-06T15:01:19Z</time>
      </trkpt>
      <trkpt lat="37.3905244097" lon="-3.1052858289">
        <ele>1032.59</ele>
        <time>2020-09-06T15:01:23Z</time>
      </trkpt>
      <trkpt lat="37.3905286845" lon="-3.1052314304">
        <ele>1032.59</ele>
        <time>2020-09-06T15:01:24Z</time>
      </trkpt>
      <trkpt lat="37.3905380722" lon="-3.1051815581">
        <ele>1032.59</ele>
        <time>2020-09-06T15:01:25Z</time>
      </trkpt>
      <trkpt lat="37.3905558418" lon="-3.1051316857">
        <ele>1032.59</ele>
        <time>2020-09-06T15:01:26Z</time>
      </trkpt>
      <trkpt lat="37.3905788921" lon="-3.1050875969">
        <ele>1032.59</ele>
        <time>2020-09-06T15:01:27Z</time>
      </trkpt>
      <trkpt lat="37.3906043731" lon="-3.1050474476">
        <ele>1032.59</ele>
        <time>2020-09-06T15:01:28Z</time>
      </trkpt>
      <trkpt lat="37.3906363081" lon="-3.1050088070">
        <ele>1032.59</ele>
        <time>2020-09-06T15:01:29Z</time>
      </trkpt>
      <trkpt lat="37.3906724341" lon="-3.1049736030">
        <ele>1032.59</ele>
        <time>2020-09-06T15:01:30Z</time>
      </trkpt>
      <trkpt lat="37.3907123320" lon="-3.1049438473">
        <ele>1032.59</ele>
        <time>2020-09-06T15:01:31Z</time>
      </trkpt>
      <trkpt lat="37.3907574266" lon="-3.1049189530">
        <ele>1032.59</ele>
        <time>2020-09-06T15:01:32Z</time>
      </trkpt>
      <trkpt lat="37.3909868393" lon="-3.1047971640">
        <ele>1023.94</ele>
        <time>2020-09-06T15:01:37Z</time>
      </trkpt>
      <trkpt lat="37.3910336941" lon="-3.1047687493">
        <ele>1038.84</ele>
        <time>2020-09-06T15:01:38Z</time>
      </trkpt>
      <trkpt lat="37.3910730891" lon="-3.1047426816">
        <ele>1035.48</ele>
        <time>2020-09-06T15:01:39Z</time>
      </trkpt>
      <trkpt lat="37.3911984824" lon="-3.1046363991">
        <ele>1033.07</ele>
        <time>2020-09-06T15:01:42Z</time>
      </trkpt>
      <trkpt lat="37.3912356142" lon="-3.1045909692">
        <ele>1033.07</ele>
        <time>2020-09-06T15:01:43Z</time>
      </trkpt>
      <trkpt lat="37.3912701476" lon="-3.1045425218">
        <ele>1033.07</ele>
        <time>2020-09-06T15:01:44Z</time>
      </trkpt>
      <trkpt lat="37.3915341776" lon="-3.1040578801">
        <ele>1033.07</ele>
        <time>2020-09-06T15:01:53Z</time>
      </trkpt>
      <trkpt lat="37.3915500194" lon="-3.1039998773">
        <ele>1033.55</ele>
        <time>2020-09-06T15:01:54Z</time>
      </trkpt>
      <trkpt lat="37.3915632628" lon="-3.1039422937">
        <ele>1033.55</ele>
        <time>2020-09-06T15:01:55Z</time>
      </trkpt>
      <trkpt lat="37.3915824573" lon="-3.1038862187">
        <ele>1033.55</ele>
        <time>2020-09-06T15:01:56Z</time>
      </trkpt>
      <trkpt lat="37.3916086927" lon="-3.1038344186">
        <ele>1033.55</ele>
        <time>2020-09-06T15:01:57Z</time>
      </trkpt>
      <trkpt lat="37.3916411307" lon="-3.1037876476">
        <ele>1033.55</ele>
        <time>2020-09-06T15:01:58Z</time>
      </trkpt>
      <trkpt lat="37.3916765861" lon="-3.1037429720">
        <ele>1033.55</ele>
        <time>2020-09-06T15:01:59Z</time>
      </trkpt>
      <trkpt lat="37.3917092755" lon="-3.1036953628">
        <ele>1033.55</ele>
        <time>2020-09-06T15:02:00Z</time>
      </trkpt>
      <trkpt lat="37.3922846932" lon="-3.1029033568">
        <ele>1033.55</ele>
        <time>2020-09-06T15:02:16Z</time>
      </trkpt>
      <trkpt lat="37.3931238893" lon="-3.1019426230">
        <ele>1033.55</ele>
        <time>2020-09-06T15:02:36Z</time>
      </trkpt>
      <trkpt lat="37.3937050905" lon="-3.1012823805">
        <ele>1034.52</ele>
        <time>2020-09-06T15:02:50Z</time>
      </trkpt>
      <trkpt lat="37.3943564482" lon="-3.1003980897">
        <ele>1034.52</ele>
        <time>2020-09-06T15:03:08Z</time>
      </trkpt>
      <trkpt lat="37.3949971609" lon="-3.0997945089">
        <ele>1034.52</ele>
        <time>2020-09-06T15:03:23Z</time>
      </trkpt>
      <trkpt lat="37.3954149988" lon="-3.0993433949">
        <ele>1034.52</ele>
        <time>2020-09-06T15:03:33Z</time>
      </trkpt>
      <trkpt lat="37.3954659607" lon="-3.0993019883">
        <ele>1034.52</ele>
        <time>2020-09-06T15:03:34Z</time>
      </trkpt>
      <trkpt lat="37.3955287412" lon="-3.0992721487">
        <ele>1033.07</ele>
        <time>2020-09-06T15:03:35Z</time>
      </trkpt>
      <trkpt lat="37.3955921084" lon="-3.0992578156">
        <ele>1033.07</ele>
        <time>2020-09-06T15:03:36Z</time>
      </trkpt>
      <trkpt lat="37.3956579063" lon="-3.0992484279">
        <ele>1032.59</ele>
        <time>2020-09-06T15:03:37Z</time>
      </trkpt>
      <trkpt lat="37.3959946912" lon="-3.0992248747">
        <ele>1031.15</ele>
        <time>2020-09-06T15:03:42Z</time>
      </trkpt>
      <trkpt lat="37.3960630037" lon="-3.0992009863">
        <ele>1031.15</ele>
        <time>2020-09-06T15:03:43Z</time>
      </trkpt>
      <trkpt lat="37.3961308971" lon="-3.0991614237">
        <ele>1030.67</ele>
        <time>2020-09-06T15:03:44Z</time>
      </trkpt>
      <trkpt lat="37.3961955216" lon="-3.0991123058">
        <ele>1029.71</ele>
        <time>2020-09-06T15:03:45Z</time>
      </trkpt>
      <trkpt lat="37.3962617386" lon="-3.0990606733">
        <ele>1029.71</ele>
        <time>2020-09-06T15:03:46Z</time>
      </trkpt>
      <trkpt lat="37.3963274527" lon="-3.0990171712">
        <ele>1029.23</ele>
        <time>2020-09-06T15:03:47Z</time>
      </trkpt>
      <trkpt lat="37.3964494094" lon="-3.0989511218">
        <ele>1029.23</ele>
        <time>2020-09-06T15:03:49Z</time>
      </trkpt>
      <trkpt lat="37.3965069093" lon="-3.0989277363">
        <ele>1029.23</ele>
        <time>2020-09-06T15:03:50Z</time>
      </trkpt>
      <trkpt lat="37.3965530936" lon="-3.0989132356">
        <ele>1029.23</ele>
        <time>2020-09-06T15:03:51Z</time>
      </trkpt>
      <trkpt lat="37.3966568615" lon="-3.0988928676">
        <ele>1030.67</ele>
        <time>2020-09-06T15:03:54Z</time>
      </trkpt>
      <trkpt lat="37.3968669120" lon="-3.0988504551">
        <ele>1033.07</ele>
        <time>2020-09-06T15:04:04Z</time>
      </trkpt>
      <trkpt lat="37.3971323669" lon="-3.0985499639">
        <ele>1034.04</ele>
        <time>2020-09-06T15:04:15Z</time>
      </trkpt>
      <trkpt lat="37.3977654520" lon="-3.0979923997">
        <ele>1034.04</ele>
        <time>2020-09-06T15:04:32Z</time>
      </trkpt>
      <trkpt lat="37.3985234275" lon="-3.0973495077">
        <ele>1035.48</ele>
        <time>2020-09-06T15:04:51Z</time>
      </trkpt>
      <trkpt lat="37.3992867675" lon="-3.0965945497">
        <ele>1035.48</ele>
        <time>2020-09-06T15:05:10Z</time>
      </trkpt>
      <trkpt lat="37.4002753291" lon="-3.0958381668">
        <ele>1035.48</ele>
        <time>2020-09-06T15:05:30Z</time>
      </trkpt>
      <trkpt lat="37.4006763194" lon="-3.0954574607">
        <ele>1034.04</ele>
        <time>2020-09-06T15:05:38Z</time>
      </trkpt>
      <trkpt lat="37.4009669200" lon="-3.0952070933">
        <ele>1032.59</ele>
        <time>2020-09-06T15:05:43Z</time>
      </trkpt>
      <trkpt lat="37.4011171237" lon="-3.0951101147">
        <ele>1032.59</ele>
        <time>2020-09-06T15:05:46Z</time>
      </trkpt>
      <trkpt lat="37.4011618830" lon="-3.0950806104">
        <ele>1034.52</ele>
        <time>2020-09-06T15:05:47Z</time>
      </trkpt>
      <trkpt lat="37.4012095761" lon="-3.0950538721">
        <ele>1034.52</ele>
        <time>2020-09-06T15:05:48Z</time>
      </trkpt>
      <trkpt lat="37.4020367023" lon="-3.0944596790">
        <ele>1034.52</ele>
        <time>2020-09-06T15:06:06Z</time>
      </trkpt>
      <trkpt lat="37.4020962976" lon="-3.0944342818">
        <ele>1034.52</ele>
        <time>2020-09-06T15:06:07Z</time>
      </trkpt>
      <trkpt lat="37.4022868183" lon="-3.0943768658">
        <ele>1031.15</ele>
        <time>2020-09-06T15:06:10Z</time>
      </trkpt>
      <trkpt lat="37.4027878884" lon="-3.0942554958">
        <ele>1028.75</ele>
        <time>2020-09-06T15:06:17Z</time>
      </trkpt>
      <trkpt lat="37.4028455559" lon="-3.0942275841">
        <ele>1028.75</ele>
        <time>2020-09-06T15:06:18Z</time>
      </trkpt>
      <trkpt lat="37.4028988648" lon="-3.0941848364">
        <ele>1028.75</ele>
        <time>2020-09-06T15:06:19Z</time>
      </trkpt>
      <trkpt lat="37.4029498268" lon="-3.0941298511">
        <ele>1028.75</ele>
        <time>2020-09-06T15:06:20Z</time>
      </trkpt>
      <trkpt lat="37.4029894732" lon="-3.0940800626">
        <ele>1028.75</ele>
        <time>2020-09-06T15:06:21Z</time>
      </trkpt>
      <trkpt lat="37.4030257668" lon="-3.0940265022">
        <ele>1028.75</ele>
        <time>2020-09-06T15:06:22Z</time>
      </trkpt>
      <trkpt lat="37.4030889664" lon="-3.0939311162">
        <ele>1030.67</ele>
        <time>2020-09-06T15:06:24Z</time>
      </trkpt>
      <trkpt lat="37.4031215720" lon="-3.0938927270">
        <ele>1030.67</ele>
        <time>2020-09-06T15:06:25Z</time>
      </trkpt>
      <trkpt lat="37.4033858534" lon="-3.0935625639">
        <ele>1034.04</ele>
        <time>2020-09-06T15:06:35Z</time>
      </trkpt>
      <trkpt lat="37.4035779666" lon="-3.0930588115">
        <ele>1035.00</ele>
        <time>2020-09-06T15:06:47Z</time>
      </trkpt>
      <trkpt lat="37.4036876857" lon="-3.0927273072">
        <ele>1035.96</ele>
        <time>2020-09-06T15:06:54Z</time>
      </trkpt>
      <trkpt lat="37.4037994165" lon="-3.0925139878">
        <ele>1036.92</ele>
        <time>2020-09-06T15:06:59Z</time>
      </trkpt>
      <trkpt lat="37.4042528775" lon="-3.0918689165">
        <ele>1038.84</ele>
        <time>2020-09-06T15:07:16Z</time>
      </trkpt>
      <trkpt lat="37.4046448153" lon="-3.0915512424">
        <ele>1039.32</ele>
        <time>2020-09-06T15:07:29Z</time>
      </trkpt>
      <trkpt lat="37.4049909040" lon="-3.0913888849">
        <ele>1039.32</ele>
        <time>2020-09-06T15:07:38Z</time>
      </trkpt>
      <trkpt lat="37.4050245155" lon="-3.0913474783">
        <ele>1039.32</ele>
        <time>2020-09-06T15:07:39Z</time>
      </trkpt>
      <trkpt lat="37.4050484877" lon="-3.0912946723">
        <ele>1039.32</ele>
        <time>2020-09-06T15:07:40Z</time>
      </trkpt>
      <trkpt lat="37.4050604738" lon="-3.0912374239">
        <ele>1039.32</ele>
        <time>2020-09-06T15:07:41Z</time>
      </trkpt>
      <trkpt lat="37.4050615635" lon="-3.0911792535">
        <ele>1039.32</ele>
        <time>2020-09-06T15:07:42Z</time>
      </trkpt>
      <trkpt lat="37.4050530978" lon="-3.0911230110">
        <ele>1039.32</ele>
        <time>2020-09-06T15:07:43Z</time>
      </trkpt>
      <trkpt lat="37.4050365016" lon="-3.0910702050">
        <ele>1039.32</ele>
        <time>2020-09-06T15:07:44Z</time>
      </trkpt>
      <trkpt lat="37.4050162174" lon="-3.0910189077">
        <ele>1039.32</ele>
        <time>2020-09-06T15:07:45Z</time>
      </trkpt>
      <trkpt lat="37.4049757328" lon="-3.0909194145">
        <ele>1039.32</ele>
        <time>2020-09-06T15:07:47Z</time>
      </trkpt>
      <trkpt lat="37.4049601424" lon="-3.0908693746">
        <ele>1039.32</ele>
        <time>2020-09-06T15:07:48Z</time>
      </trkpt>
      <trkpt lat="37.4047035724" lon="-3.0897676572">
        <ele>1041.25</ele>
        <time>2020-09-06T15:08:09Z</time>
      </trkpt>
      <trkpt lat="37.4047389440" lon="-3.0887063406">
        <ele>1042.69</ele>
        <time>2020-09-06T15:08:27Z</time>
      </trkpt>
      <trkpt lat="37.4047439732" lon="-3.0886500143">
        <ele>1042.69</ele>
        <time>2020-09-06T15:08:28Z</time>
      </trkpt>
      <trkpt lat="37.4046650156" lon="-3.0874949042">
        <ele>1044.13</ele>
        <time>2020-09-06T15:08:48Z</time>
      </trkpt>
      <trkpt lat="37.4046485033" lon="-3.0870360788">
        <ele>1045.57</ele>
        <time>2020-09-06T15:08:56Z</time>
      </trkpt>
      <trkpt lat="37.4046459049" lon="-3.0869783275">
        <ele>1045.57</ele>
        <time>2020-09-06T15:08:57Z</time>
      </trkpt>
      <trkpt lat="37.4046608247" lon="-3.0860068649">
        <ele>1047.49</ele>
        <time>2020-09-06T15:09:14Z</time>
      </trkpt>
      <trkpt lat="37.4047449790" lon="-3.0855379812">
        <ele>1047.49</ele>
        <time>2020-09-06T15:09:22Z</time>
      </trkpt>
      <trkpt lat="37.4048080947" lon="-3.0853793956">
        <ele>1047.49</ele>
        <time>2020-09-06T15:09:25Z</time>
      </trkpt>
      <trkpt lat="37.4050023034" lon="-3.0849596299">
        <ele>1047.49</ele>
        <time>2020-09-06T15:09:33Z</time>
      </trkpt>
      <trkpt lat="37.4051040597" lon="-3.0846843682">
        <ele>1047.49</ele>
        <time>2020-09-06T15:09:38Z</time>
      </trkpt>
      <trkpt lat="37.4051317200" lon="-3.0846320651">
        <ele>1047.49</ele>
        <time>2020-09-06T15:09:39Z</time>
      </trkpt>
      <trkpt lat="37.4053120986" lon="-3.0843624193">
        <ele>1047.49</ele>
        <time>2020-09-06T15:09:45Z</time>
      </trkpt>
      <trkpt lat="37.4053831771" lon="-3.0842951126">
        <ele>1047.49</ele>
        <time>2020-09-06T15:09:47Z</time>
      </trkpt>
      <trkpt lat="37.4056055490" lon="-3.0841830466">
        <ele>1047.49</ele>
        <time>2020-09-06T15:09:53Z</time>
      </trkpt>
      <trkpt lat="37.4056466203" lon="-3.0841775145">
        <ele>1047.49</ele>
        <time>2020-09-06T15:09:54Z</time>
      </trkpt>
      <trkpt lat="37.4056923017" lon="-3.0841713119">
        <ele>1047.49</ele>
        <time>2020-09-06T15:09:55Z</time>
      </trkpt>
      <trkpt lat="37.4057353847" lon="-3.0841596611">
        <ele>1047.49</ele>
        <time>2020-09-06T15:09:56Z</time>
      </trkpt>
      <trkpt lat="37.4057824910" lon="-3.0841378681">
        <ele>1046.05</ele>
        <time>2020-09-06T15:09:57Z</time>
      </trkpt>
      <trkpt lat="37.4058261607" lon="-3.0840990599">
        <ele>1046.05</ele>
        <time>2020-09-06T15:09:58Z</time>
      </trkpt>
      <trkpt lat="37.4058621190" lon="-3.0840486847">
        <ele>1046.05</ele>
        <time>2020-09-06T15:09:59Z</time>
      </trkpt>
      <trkpt lat="37.4058989156" lon="-3.0839870777">
        <ele>1045.09</ele>
        <time>2020-09-06T15:10:00Z</time>
      </trkpt>
      <trkpt lat="37.4059336167" lon="-3.0839230400">
        <ele>1044.61</ele>
        <time>2020-09-06T15:10:01Z</time>
      </trkpt>
      <trkpt lat="37.4059624504" lon="-3.0838540569">
        <ele>1044.13</ele>
        <time>2020-09-06T15:10:02Z</time>
      </trkpt>
      <trkpt lat="37.4059863389" lon="-3.0837751832">
        <ele>1043.65</ele>
        <time>2020-09-06T15:10:03Z</time>
      </trkpt>
      <trkpt lat="37.4060098082" lon="-3.0837003328">
        <ele>1043.17</ele>
        <time>2020-09-06T15:10:04Z</time>
      </trkpt>
      <trkpt lat="37.4060333613" lon="-3.0836328585">
        <ele>1043.17</ele>
        <time>2020-09-06T15:10:05Z</time>
      </trkpt>
      <trkpt lat="37.4060791265" lon="-3.0835199542">
        <ele>1043.17</ele>
        <time>2020-09-06T15:10:07Z</time>
      </trkpt>
      <trkpt lat="37.4061036017" lon="-3.0834764522">
        <ele>1043.17</ele>
        <time>2020-09-06T15:10:08Z</time>
      </trkpt>
      <trkpt lat="37.4061751831" lon="-3.0833487958">
        <ele>1044.61</ele>
        <time>2020-09-06T15:10:12Z</time>
      </trkpt>
      <trkpt lat="37.4062393885" lon="-3.0832015257">
        <ele>1047.97</ele>
        <time>2020-09-06T15:10:19Z</time>
      </trkpt>
      <trkpt lat="37.4065225292" lon="-3.0828248430">
        <ele>1049.42</ele>
        <time>2020-09-06T15:10:33Z</time>
      </trkpt>
      <trkpt lat="37.4069184903" lon="-3.0823408719">
        <ele>1049.42</ele>
        <time>2020-09-06T15:10:48Z</time>
      </trkpt>
      <trkpt lat="37.4069440551" lon="-3.0823015608">
        <ele>1049.90</ele>
        <time>2020-09-06T15:10:49Z</time>
      </trkpt>
      <trkpt lat="37.4069743138" lon="-3.0822634231">
        <ele>1049.90</ele>
        <time>2020-09-06T15:10:50Z</time>
      </trkpt>
      <trkpt lat="37.4070061650" lon="-3.0822317395">
        <ele>1049.90</ele>
        <time>2020-09-06T15:10:51Z</time>
      </trkpt>
      <trkpt lat="37.4075035471" lon="-3.0819014926">
        <ele>1049.90</ele>
        <time>2020-09-06T15:11:06Z</time>
      </trkpt>
      <trkpt lat="37.4075766373" lon="-3.0818550568">
        <ele>1049.90</ele>
        <time>2020-09-06T15:11:08Z</time>
      </trkpt>
      <trkpt lat="37.4076167867" lon="-3.0818281509">
        <ele>1049.90</ele>
        <time>2020-09-06T15:11:09Z</time>
      </trkpt>
      <trkpt lat="37.4077476282" lon="-3.0817557313">
        <ele>1048.94</ele>
        <time>2020-09-06T15:11:12Z</time>
      </trkpt>
      <trkpt lat="37.4084383808" lon="-3.0815135781">
        <ele>1047.49</ele>
        <time>2020-09-06T15:11:25Z</time>
      </trkpt>
      <trkpt lat="37.4085367844" lon="-3.0815241393">
        <ele>1047.49</ele>
        <time>2020-09-06T15:11:27Z</time>
      </trkpt>
      <trkpt lat="37.4085856508" lon="-3.0815324374">
        <ele>1047.49</ele>
        <time>2020-09-06T15:11:28Z</time>
      </trkpt>
      <trkpt lat="37.4086340144" lon="-3.0815358739">
        <ele>1047.49</ele>
        <time>2020-09-06T15:11:29Z</time>
      </trkpt>
      <trkpt lat="37.4086814560" lon="-3.0815418251">
        <ele>1047.49</ele>
        <time>2020-09-06T15:11:30Z</time>
      </trkpt>
      <trkpt lat="37.4087324180" lon="-3.0815617740">
        <ele>1047.49</ele>
        <time>2020-09-06T15:11:31Z</time>
      </trkpt>
      <trkpt lat="37.4087825418" lon="-3.0815973971">
        <ele>1047.49</ele>
        <time>2020-09-06T15:11:32Z</time>
      </trkpt>
      <trkpt lat="37.4088262115" lon="-3.0816419888">
        <ele>1047.49</ele>
        <time>2020-09-06T15:11:33Z</time>
      </trkpt>
      <trkpt lat="37.4088521115" lon="-3.0816802103">
        <ele>1047.49</ele>
        <time>2020-09-06T15:11:34Z</time>
      </trkpt>
      <trkpt lat="37.4088780116" lon="-3.0817342736">
        <ele>1047.49</ele>
        <time>2020-09-06T15:11:35Z</time>
      </trkpt>
      <trkpt lat="37.4088997208" lon="-3.0817916896">
        <ele>1047.49</ele>
        <time>2020-09-06T15:11:36Z</time>
      </trkpt>
      <trkpt lat="37.4089719728" lon="-3.0820243713">
        <ele>1047.49</ele>
        <time>2020-09-06T15:11:40Z</time>
      </trkpt>
      <trkpt lat="37.4089823663" lon="-3.0820875708">
        <ele>1047.49</ele>
        <time>2020-09-06T15:11:41Z</time>
      </trkpt>
      <trkpt lat="37.4090074282" lon="-3.0822837912">
        <ele>1047.49</ele>
        <time>2020-09-06T15:11:44Z</time>
      </trkpt>
      <trkpt lat="37.4090119544" lon="-3.0824212544">
        <ele>1047.49</ele>
        <time>2020-09-06T15:11:46Z</time>
      </trkpt>
      <trkpt lat="37.4088399578" lon="-3.0833275896">
        <ele>1046.53</ele>
        <time>2020-09-06T15:11:59Z</time>
      </trkpt>
      <trkpt lat="37.4085960444" lon="-3.0844293069">
        <ele>1045.57</ele>
        <time>2020-09-06T15:12:12Z</time>
      </trkpt>
      <trkpt lat="37.4088014010" lon="-3.0860017519">
        <ele>1043.65</ele>
        <time>2020-09-06T15:12:28Z</time>
      </trkpt>
      <trkpt lat="37.4089680333" lon="-3.0878326111">
        <ele>1041.73</ele>
        <time>2020-09-06T15:12:45Z</time>
      </trkpt>
      <trkpt lat="37.4091934226" lon="-3.0889197439">
        <ele>1039.80</ele>
        <time>2020-09-06T15:12:58Z</time>
      </trkpt>
      <trkpt lat="37.4092190713" lon="-3.0890288763">
        <ele>1039.32</ele>
        <time>2020-09-06T15:13:07Z</time>
      </trkpt>
      <trkpt lat="37.4092629924" lon="-3.0892608874">
        <ele>1039.32</ele>
        <time>2020-09-06T15:13:25Z</time>
      </trkpt>
      <trkpt lat="37.4092746433" lon="-3.0893074069">
        <ele>1039.32</ele>
        <time>2020-09-06T15:13:26Z</time>
      </trkpt>
      <trkpt lat="37.4093172234" lon="-3.0895253364">
        <ele>1038.84</ele>
        <time>2020-09-06T15:13:30Z</time>
      </trkpt>
      <trkpt lat="37.4095033016" lon="-3.0904042628">
        <ele>1038.36</ele>
        <time>2020-09-06T15:13:43Z</time>
      </trkpt>
      <trkpt lat="37.4096791539" lon="-3.0908628367">
        <ele>1037.40</ele>
        <time>2020-09-06T15:13:49Z</time>
      </trkpt>
      <trkpt lat="37.4097080715" lon="-3.0909459013">
        <ele>1036.92</ele>
        <time>2020-09-06T15:13:50Z</time>
      </trkpt>
      <trkpt lat="37.4100577645" lon="-3.0923655443">
        <ele>1035.00</ele>
        <time>2020-09-06T15:14:05Z</time>
      </trkpt>
      <trkpt lat="37.4104364589" lon="-3.0941442680">
        <ele>1032.11</ele>
        <time>2020-09-06T15:14:22Z</time>
      </trkpt>
      <trkpt lat="37.4104698189" lon="-3.0942513887">
        <ele>1032.11</ele>
        <time>2020-09-06T15:14:23Z</time>
      </trkpt>
      <trkpt lat="37.4105108064" lon="-3.0943503790">
        <ele>1031.63</ele>
        <time>2020-09-06T15:14:24Z</time>
      </trkpt>
      <trkpt lat="37.4105580803" lon="-3.0944427475">
        <ele>1031.15</ele>
        <time>2020-09-06T15:14:25Z</time>
      </trkpt>
      <trkpt lat="37.4106102157" lon="-3.0945322663">
        <ele>1031.15</ele>
        <time>2020-09-06T15:14:26Z</time>
      </trkpt>
      <trkpt lat="37.4106648657" lon="-3.0946185160">
        <ele>1030.67</ele>
        <time>2020-09-06T15:14:27Z</time>
      </trkpt>
      <trkpt lat="37.4115087558" lon="-3.0956107657">
        <ele>1029.23</ele>
        <time>2020-09-06T15:14:41Z</time>
      </trkpt>
      <trkpt lat="37.4117275234" lon="-3.0957322195">
        <ele>1029.23</ele>
        <time>2020-09-06T15:14:44Z</time>
      </trkpt>
      <trkpt lat="37.4128294084" lon="-3.0959826708">
        <ele>1026.83</ele>
        <time>2020-09-06T15:14:58Z</time>
      </trkpt>
      <trkpt lat="37.4129865691" lon="-3.0960086547">
        <ele>1028.75</ele>
        <time>2020-09-06T15:15:00Z</time>
      </trkpt>
      <trkpt lat="37.4131393712" lon="-3.0960410088">
        <ele>1028.27</ele>
        <time>2020-09-06T15:15:02Z</time>
      </trkpt>
      <trkpt lat="37.4143907893" lon="-3.0963795539">
        <ele>1026.34</ele>
        <time>2020-09-06T15:15:19Z</time>
      </trkpt>
      <trkpt lat="37.4148053583" lon="-3.0965210404">
        <ele>1025.38</ele>
        <time>2020-09-06T15:15:25Z</time>
      </trkpt>
      <trkpt lat="37.4148731679" lon="-3.0965406541">
        <ele>1025.38</ele>
        <time>2020-09-06T15:15:26Z</time>
      </trkpt>
      <trkpt lat="37.4155733082" lon="-3.0967677198">
        <ele>1024.42</ele>
        <time>2020-09-06T15:15:36Z</time>
      </trkpt>
      <trkpt lat="37.4164134264" lon="-3.0972432252">
        <ele>1023.94</ele>
        <time>2020-09-06T15:15:48Z</time>
      </trkpt>
      <trkpt lat="37.4171945360" lon="-3.0980055593">
        <ele>1022.02</ele>
        <time>2020-09-06T15:16:01Z</time>
      </trkpt>
      <trkpt lat="37.4180535134" lon="-3.0983125884">
        <ele>1021.06</ele>
        <time>2020-09-06T15:16:13Z</time>
      </trkpt>
      <trkpt lat="37.4186931364" lon="-3.0985244829">
        <ele>1020.10</ele>
        <time>2020-09-06T15:16:22Z</time>
      </trkpt>
      <trkpt lat="37.4196362682" lon="-3.0991916824">
        <ele>1019.62</ele>
        <time>2020-09-06T15:16:37Z</time>
      </trkpt>
      <trkpt lat="37.4206453655" lon="-3.0998536013">
        <ele>1018.17</ele>
        <time>2020-09-06T15:16:52Z</time>
      </trkpt>
      <trkpt lat="37.4217091966" lon="-3.1006507203">
        <ele>1016.73</ele>
        <time>2020-09-06T15:17:09Z</time>
      </trkpt>
      <trkpt lat="37.4226861913" lon="-3.1012719031">
        <ele>1016.25</ele>
        <time>2020-09-06T15:17:24Z</time>
      </trkpt>
      <trkpt lat="37.4241465703" lon="-3.1018318981">
        <ele>1014.33</ele>
        <time>2020-09-06T15:17:45Z</time>
      </trkpt>
      <trkpt lat="37.4249082338" lon="-3.1022648234">
        <ele>1013.85</ele>
        <time>2020-09-06T15:17:57Z</time>
      </trkpt>
      <trkpt lat="37.4258285668" lon="-3.1027963199">
        <ele>1013.37</ele>
        <time>2020-09-06T15:18:13Z</time>
      </trkpt>
      <trkpt lat="37.4260022398" lon="-3.1029196177">
        <ele>1012.89</ele>
        <time>2020-09-06T15:18:16Z</time>
      </trkpt>
      <trkpt lat="37.4260584824" lon="-3.1029615272">
        <ele>1012.89</ele>
        <time>2020-09-06T15:18:17Z</time>
      </trkpt>
      <trkpt lat="37.4268840160" lon="-3.1034764275">
        <ele>1011.93</ele>
        <time>2020-09-06T15:18:31Z</time>
      </trkpt>
      <trkpt lat="37.4271067232" lon="-3.1036618352">
        <ele>1011.44</ele>
        <time>2020-09-06T15:18:35Z</time>
      </trkpt>
      <trkpt lat="37.4274089746" lon="-3.1039686967">
        <ele>1010.96</ele>
        <time>2020-09-06T15:18:41Z</time>
      </trkpt>
      <trkpt lat="37.4274580088" lon="-3.1040010508">
        <ele>1010.96</ele>
        <time>2020-09-06T15:18:42Z</time>
      </trkpt>
      <trkpt lat="37.4275182746" lon="-3.1040305551">
        <ele>1010.96</ele>
        <time>2020-09-06T15:18:43Z</time>
      </trkpt>
      <trkpt lat="37.4275744334" lon="-3.1040540244">
        <ele>1010.96</ele>
        <time>2020-09-06T15:18:44Z</time>
      </trkpt>
      <trkpt lat="37.4276380520" lon="-3.1040791702">
        <ele>1010.96</ele>
        <time>2020-09-06T15:18:45Z</time>
      </trkpt>
      <trkpt lat="37.4287566170" lon="-3.1044593733">
        <ele>1010.48</ele>
        <time>2020-09-06T15:19:02Z</time>
      </trkpt>
      <trkpt lat="37.4299464282" lon="-3.1047145184">
        <ele>1009.52</ele>
        <time>2020-09-06T15:19:19Z</time>
      </trkpt>
      <trkpt lat="37.4308038130" lon="-3.1045037974">
        <ele>1008.08</ele>
        <time>2020-09-06T15:19:32Z</time>
      </trkpt>
      <trkpt lat="37.4308603071" lon="-3.1044978462">
        <ele>1008.08</ele>
        <time>2020-09-06T15:19:33Z</time>
      </trkpt>
      <trkpt lat="37.4309188966" lon="-3.1045016181">
        <ele>1008.08</ele>
        <time>2020-09-06T15:19:34Z</time>
      </trkpt>
      <trkpt lat="37.4309779890" lon="-3.1045041326">
        <ele>1008.08</ele>
        <time>2020-09-06T15:19:35Z</time>
      </trkpt>
      <trkpt lat="37.4314634688" lon="-3.1044836808">
        <ele>1008.08</ele>
        <time>2020-09-06T15:19:44Z</time>
      </trkpt>
      <trkpt lat="37.4321408942" lon="-3.1043996941">
        <ele>1007.12</ele>
        <time>2020-09-06T15:19:56Z</time>
      </trkpt>
      <trkpt lat="37.4323055148" lon="-3.1044023763">
        <ele>1007.12</ele>
        <time>2020-09-06T15:19:59Z</time>
      </trkpt>
      <trkpt lat="37.4323610868" lon="-3.1044096686">
        <ele>1007.12</ele>
        <time>2020-09-06T15:20:00Z</time>
      </trkpt>
      <trkpt lat="37.4331347365" lon="-3.1044742931">
        <ele>1005.20</ele>
        <time>2020-09-06T15:20:14Z</time>
      </trkpt>
      <trkpt lat="37.4332830124" lon="-3.1044986844">
        <ele>1005.20</ele>
        <time>2020-09-06T15:20:17Z</time>
      </trkpt>
      <trkpt lat="37.4333353154" lon="-3.1045043841">
        <ele>1005.20</ele>
        <time>2020-09-06T15:20:18Z</time>
      </trkpt>
      <trkpt lat="37.4333876185" lon="-3.1045082398">
        <ele>1005.20</ele>
        <time>2020-09-06T15:20:19Z</time>
      </trkpt>
      <trkpt lat="37.4337088969" lon="-3.1044974271">
        <ele>1005.20</ele>
        <time>2020-09-06T15:20:25Z</time>
      </trkpt>
      <trkpt lat="37.4337606132" lon="-3.1044790708">
        <ele>1005.20</ele>
        <time>2020-09-06T15:20:26Z</time>
      </trkpt>
      <trkpt lat="37.4340743478" lon="-3.1043550186">
        <ele>1005.20</ele>
        <time>2020-09-06T15:20:32Z</time>
      </trkpt>
      <trkpt lat="37.4341262318" lon="-3.1043525040">
        <ele>1005.20</ele>
        <time>2020-09-06T15:20:33Z</time>
      </trkpt>
      <trkpt lat="37.4341771100" lon="-3.1043581199">
        <ele>1004.72</ele>
        <time>2020-09-06T15:20:34Z</time>
      </trkpt>
      <trkpt lat="37.4352095928" lon="-3.1044732872">
        <ele>1003.75</ele>
        <time>2020-09-06T15:20:52Z</time>
      </trkpt>
      <trkpt lat="37.4360101484" lon="-3.1045063119">
        <ele>1003.27</ele>
        <time>2020-09-06T15:21:08Z</time>
      </trkpt>
      <trkpt lat="37.4360880163" lon="-3.1045094132">
        <ele>1003.27</ele>
        <time>2020-09-06T15:21:10Z</time>
      </trkpt>
      <trkpt lat="37.4361863360" lon="-3.1045187172">
        <ele>1003.27</ele>
        <time>2020-09-06T15:21:12Z</time>
      </trkpt>
      <trkpt lat="37.4370738119" lon="-3.1045642309">
        <ele>1002.79</ele>
        <time>2020-09-06T15:21:27Z</time>
      </trkpt>
      <trkpt lat="37.4375019595" lon="-3.1046557613">
        <ele>1002.31</ele>
        <time>2020-09-06T15:21:34Z</time>
      </trkpt>
      <trkpt lat="37.4375608843" lon="-3.1046815775">
        <ele>1001.83</ele>
        <time>2020-09-06T15:21:35Z</time>
      </trkpt>
      <trkpt lat="37.4382994138" lon="-3.1051293388">
        <ele>1001.83</ele>
        <time>2020-09-06T15:21:48Z</time>
      </trkpt>
      <trkpt lat="37.4389801081" lon="-3.1056107953">
        <ele>1001.83</ele>
        <time>2020-09-06T15:22:00Z</time>
      </trkpt>
      <trkpt lat="37.4398664944" lon="-3.1061802618">
        <ele>999.91</ele>
        <time>2020-09-06T15:22:14Z</time>
      </trkpt>
      <trkpt lat="37.4409953691" lon="-3.1067803223">
        <ele>998.47</ele>
        <time>2020-09-06T15:22:31Z</time>
      </trkpt>
      <trkpt lat="37.4413388595" lon="-3.1069684122">
        <ele>997.99</ele>
        <time>2020-09-06T15:22:36Z</time>
      </trkpt>
      <trkpt lat="37.4419261795" lon="-3.1074772775">
        <ele>996.06</ele>
        <time>2020-09-06T15:22:46Z</time>
      </trkpt>
      <trkpt lat="37.4419934861" lon="-3.1075156666">
        <ele>996.06</ele>
        <time>2020-09-06T15:22:47Z</time>
      </trkpt>
      <trkpt lat="37.4420667440" lon="-3.1075489428">
        <ele>995.58</ele>
        <time>2020-09-06T15:22:48Z</time>
      </trkpt>
      <trkpt lat="37.4421471264" lon="-3.1075732503">
        <ele>994.62</ele>
        <time>2020-09-06T15:22:49Z</time>
      </trkpt>
      <trkpt lat="37.4422430992" lon="-3.1075875834">
        <ele>993.66</ele>
        <time>2020-09-06T15:22:50Z</time>
      </trkpt>
      <trkpt lat="37.4423296005" lon="-3.1075947918">
        <ele>993.18</ele>
        <time>2020-09-06T15:22:51Z</time>
      </trkpt>
      <trkpt lat="37.4424052052" lon="-3.1076070294">
        <ele>993.18</ele>
        <time>2020-09-06T15:22:52Z</time>
      </trkpt>
      <trkpt lat="37.4424784631" lon="-3.1076273974">
        <ele>993.18</ele>
        <time>2020-09-06T15:22:53Z</time>
      </trkpt>
      <trkpt lat="37.4426108971" lon="-3.1076833885">
        <ele>994.62</ele>
        <time>2020-09-06T15:22:55Z</time>
      </trkpt>
      <trkpt lat="37.4426699057" lon="-3.1077245437">
        <ele>994.62</ele>
        <time>2020-09-06T15:22:56Z</time>
      </trkpt>
      <trkpt lat="37.4427787866" lon="-3.1078234501">
        <ele>996.06</ele>
        <time>2020-09-06T15:22:58Z</time>
      </trkpt>
      <trkpt lat="37.4435137957" lon="-3.1086586230">
        <ele>996.06</ele>
        <time>2020-09-06T15:23:13Z</time>
      </trkpt>
      <trkpt lat="37.4441751279" lon="-3.1094280817">
        <ele>994.62</ele>
        <time>2020-09-06T15:23:26Z</time>
      </trkpt>
      <trkpt lat="37.4446265772" lon="-3.1099356059">
        <ele>994.14</ele>
        <time>2020-09-06T15:23:35Z</time>
      </trkpt>
      <trkpt lat="37.4446731806" lon="-3.1099770963">
        <ele>994.14</ele>
        <time>2020-09-06T15:23:36Z</time>
      </trkpt>
      <trkpt lat="37.4451960437" lon="-3.1104888115">
        <ele>993.18</ele>
        <time>2020-09-06T15:23:46Z</time>
      </trkpt>
      <trkpt lat="37.4453679565" lon="-3.1106031407">
        <ele>993.18</ele>
        <time>2020-09-06T15:23:49Z</time>
      </trkpt>
      <trkpt lat="37.4454236124" lon="-3.1106366683">
        <ele>993.18</ele>
        <time>2020-09-06T15:23:50Z</time>
      </trkpt>
      <trkpt lat="37.4462878704" lon="-3.1111074798">
        <ele>993.18</ele>
        <time>2020-09-06T15:24:04Z</time>
      </trkpt>
      <trkpt lat="37.4465409201" lon="-3.1112466194">
        <ele>993.18</ele>
        <time>2020-09-06T15:24:08Z</time>
      </trkpt>
      <trkpt lat="37.4468441773" lon="-3.1115029380">
        <ele>991.26</ele>
        <time>2020-09-06T15:24:14Z</time>
      </trkpt>
      <trkpt lat="37.4468938820" lon="-3.1115373876">
        <ele>990.30</ele>
        <time>2020-09-06T15:24:15Z</time>
      </trkpt>
      <trkpt lat="37.4469451793" lon="-3.1115752738">
        <ele>989.81</ele>
        <time>2020-09-06T15:24:16Z</time>
      </trkpt>
      <trkpt lat="37.4470000807" lon="-3.1116241403">
        <ele>988.37</ele>
        <time>2020-09-06T15:24:17Z</time>
      </trkpt>
      <trkpt lat="37.4470586702" lon="-3.1116842385">
        <ele>987.89</ele>
        <time>2020-09-06T15:24:18Z</time>
      </trkpt>
      <trkpt lat="37.4471207801" lon="-3.1117596757">
        <ele>986.45</ele>
        <time>2020-09-06T15:24:19Z</time>
      </trkpt>
      <trkpt lat="37.4471698981" lon="-3.1118322629">
        <ele>985.97</ele>
        <time>2020-09-06T15:24:20Z</time>
      </trkpt>
      <trkpt lat="37.4472159985" lon="-3.1119144894">
        <ele>985.01</ele>
        <time>2020-09-06T15:24:21Z</time>
      </trkpt>
      <trkpt lat="37.4472462572" lon="-3.1119869091">
        <ele>984.53</ele>
        <time>2020-09-06T15:24:22Z</time>
      </trkpt>
      <trkpt lat="37.4472615961" lon="-3.1120650284">
        <ele>983.57</ele>
        <time>2020-09-06T15:24:23Z</time>
      </trkpt>
      <trkpt lat="37.4472667091" lon="-3.1121506076">
        <ele>983.57</ele>
        <time>2020-09-06T15:24:24Z</time>
      </trkpt>
      <trkpt lat="37.4472630210" lon="-3.1122368574">
        <ele>982.60</ele>
        <time>2020-09-06T15:24:25Z</time>
      </trkpt>
      <trkpt lat="37.4472595006" lon="-3.1123330817">
        <ele>981.16</ele>
        <time>2020-09-06T15:24:26Z</time>
      </trkpt>
      <trkpt lat="37.4472641945" lon="-3.1124150567">
        <ele>980.20</ele>
        <time>2020-09-06T15:24:27Z</time>
      </trkpt>
      <trkpt lat="37.4472828023" lon="-3.1125035696">
        <ele>979.72</ele>
        <time>2020-09-06T15:24:28Z</time>
      </trkpt>
      <trkpt lat="37.4473118037" lon="-3.1125957705">
        <ele>978.76</ele>
        <time>2020-09-06T15:24:29Z</time>
      </trkpt>
      <trkpt lat="37.4473664537" lon="-3.1127466448">
        <ele>978.28</ele>
        <time>2020-09-06T15:24:31Z</time>
      </trkpt>
      <trkpt lat="37.4474294018" lon="-3.1128605548">
        <ele>976.36</ele>
        <time>2020-09-06T15:24:33Z</time>
      </trkpt>
      <trkpt lat="37.4474780168" lon="-3.1128982734">
        <ele>974.91</ele>
        <time>2020-09-06T15:24:34Z</time>
      </trkpt>
      <trkpt lat="37.4475392047" lon="-3.1129161268">
        <ele>974.91</ele>
        <time>2020-09-06T15:24:35Z</time>
      </trkpt>
      <trkpt lat="37.4476122949" lon="-3.1129184738">
        <ele>973.95</ele>
        <time>2020-09-06T15:24:36Z</time>
      </trkpt>
      <trkpt lat="37.4476822838" lon="-3.1129194796">
        <ele>973.47</ele>
        <time>2020-09-06T15:24:37Z</time>
      </trkpt>
      <trkpt lat="37.4477475788" lon="-3.1129395962">
        <ele>973.47</ele>
        <time>2020-09-06T15:24:38Z</time>
      </trkpt>
      <trkpt lat="37.4478132091" lon="-3.1129867863">
        <ele>972.51</ele>
        <time>2020-09-06T15:24:39Z</time>
      </trkpt>
      <trkpt lat="37.4478714634" lon="-3.1130541768">
        <ele>971.07</ele>
        <time>2020-09-06T15:24:40Z</time>
      </trkpt>
      <trkpt lat="37.4479334056" lon="-3.1131256744">
        <ele>970.59</ele>
        <time>2020-09-06T15:24:41Z</time>
      </trkpt>
      <trkpt lat="37.4480058253" lon="-3.1132017821">
        <ele>969.15</ele>
        <time>2020-09-06T15:24:42Z</time>
      </trkpt>
      <trkpt lat="37.4481531791" lon="-3.1133658998">
        <ele>966.74</ele>
        <time>2020-09-06T15:24:44Z</time>
      </trkpt>
      <trkpt lat="37.4482251797" lon="-3.1134669855">
        <ele>966.74</ele>
        <time>2020-09-06T15:24:45Z</time>
      </trkpt>
      <trkpt lat="37.4482908100" lon="-3.1135534029">
        <ele>966.74</ele>
        <time>2020-09-06T15:24:46Z</time>
      </trkpt>
      <trkpt lat="37.4485013634" lon="-3.1138322689">
        <ele>967.70</ele>
        <time>2020-09-06T15:24:50Z</time>
      </trkpt>
      <trkpt lat="37.4485374894" lon="-3.1139036827">
        <ele>967.70</ele>
        <time>2020-09-06T15:24:51Z</time>
      </trkpt>
      <trkpt lat="37.4486284330" lon="-3.1140419841">
        <ele>967.70</ele>
        <time>2020-09-06T15:24:53Z</time>
      </trkpt>
      <trkpt lat="37.4486926384" lon="-3.1140840612">
        <ele>966.26</ele>
        <time>2020-09-06T15:24:54Z</time>
      </trkpt>
      <trkpt lat="37.4487715121" lon="-3.1141018309">
        <ele>965.78</ele>
        <time>2020-09-06T15:24:55Z</time>
      </trkpt>
      <trkpt lat="37.4488560855" lon="-3.1141109671">
        <ele>965.30</ele>
        <time>2020-09-06T15:24:56Z</time>
      </trkpt>
      <trkpt lat="37.4489329476" lon="-3.1141229533">
        <ele>965.30</ele>
        <time>2020-09-06T15:24:57Z</time>
      </trkpt>
      <trkpt lat="37.4491802137" lon="-3.1141893379">
        <ele>962.42</ele>
        <time>2020-09-06T15:25:00Z</time>
      </trkpt>
      <trkpt lat="37.4495409708" lon="-3.1143150665">
        <ele>960.49</ele>
        <time>2020-09-06T15:25:04Z</time>
      </trkpt>
      <trkpt lat="37.4496138934" lon="-3.1143540423">
        <ele>960.49</ele>
        <time>2020-09-06T15:25:05Z</time>
      </trkpt>
      <trkpt lat="37.4498263747" lon="-3.1145003065">
        <ele>959.53</ele>
        <time>2020-09-06T15:25:08Z</time>
      </trkpt>
      <trkpt lat="37.4498953577" lon="-3.1145705469">
        <ele>959.53</ele>
        <time>2020-09-06T15:25:09Z</time>
      </trkpt>
      <trkpt lat="37.4500230141" lon="-3.1147114467">
        <ele>958.57</ele>
        <time>2020-09-06T15:25:11Z</time>
      </trkpt>
      <trkpt lat="37.4503380898" lon="-3.1150852796">
        <ele>956.17</ele>
        <time>2020-09-06T15:25:16Z</time>
      </trkpt>
      <trkpt lat="37.4504058156" lon="-3.1151156221">
        <ele>956.17</ele>
        <time>2020-09-06T15:25:17Z</time>
      </trkpt>
      <trkpt lat="37.4504788220" lon="-3.1151235010">
        <ele>957.13</ele>
        <time>2020-09-06T15:25:18Z</time>
      </trkpt>
      <trkpt lat="37.4505366571" lon="-3.1151330564">
        <ele>957.13</ele>
        <time>2020-09-06T15:25:19Z</time>
      </trkpt>
      <trkpt lat="37.4505833443" lon="-3.1151585374">
        <ele>958.09</ele>
        <time>2020-09-06T15:25:20Z</time>
      </trkpt>
      <trkpt lat="37.4506291095" lon="-3.1152049731">
        <ele>958.09</ele>
        <time>2020-09-06T15:25:21Z</time>
      </trkpt>
      <trkpt lat="37.4506665766" lon="-3.1152647361">
        <ele>958.09</ele>
        <time>2020-09-06T15:25:22Z</time>
      </trkpt>
      <trkpt lat="37.4507042952" lon="-3.1153372396">
        <ele>956.65</ele>
        <time>2020-09-06T15:25:23Z</time>
      </trkpt>
      <trkpt lat="37.4507515691" lon="-3.1154082343">
        <ele>954.73</ele>
        <time>2020-09-06T15:25:24Z</time>
      </trkpt>
      <trkpt lat="37.4508156907" lon="-3.1154791452">
        <ele>954.73</ele>
        <time>2020-09-06T15:25:25Z</time>
      </trkpt>
      <trkpt lat="37.4508756213" lon="-3.1155290175">
        <ele>954.73</ele>
        <time>2020-09-06T15:25:26Z</time>
      </trkpt>
      <trkpt lat="37.4509544950" lon="-3.1155777164">
        <ele>953.77</ele>
        <time>2020-09-06T15:25:27Z</time>
      </trkpt>
      <trkpt lat="37.4510223884" lon="-3.1156197097">
        <ele>953.77</ele>
        <time>2020-09-06T15:25:28Z</time>
      </trkpt>
      <trkpt lat="37.4510914553" lon="-3.1156674866">
        <ele>953.28</ele>
        <time>2020-09-06T15:25:29Z</time>
      </trkpt>
      <trkpt lat="37.4512407370" lon="-3.1157542393">
        <ele>952.32</ele>
        <time>2020-09-06T15:25:31Z</time>
      </trkpt>
      <trkpt lat="37.4513314292" lon="-3.1157817319">
        <ele>952.32</ele>
        <time>2020-09-06T15:25:32Z</time>
      </trkpt>
      <trkpt lat="37.4519491754" lon="-3.1159132440">
        <ele>948.96</ele>
        <time>2020-09-06T15:25:39Z</time>
      </trkpt>
      <trkpt lat="37.4522996228" lon="-3.1159857474">
        <ele>948.48</ele>
        <time>2020-09-06T15:25:43Z</time>
      </trkpt>
      <trkpt lat="37.4523953442" lon="-3.1159771979">
        <ele>948.48</ele>
        <time>2020-09-06T15:25:44Z</time>
      </trkpt>
      <trkpt lat="37.4524727929" lon="-3.1159587577">
        <ele>948.00</ele>
        <time>2020-09-06T15:25:45Z</time>
      </trkpt>
      <trkpt lat="37.4525690172" lon="-3.1159396470">
        <ele>947.04</ele>
        <time>2020-09-06T15:25:46Z</time>
      </trkpt>
      <trkpt lat="37.4526498187" lon="-3.1159316842">
        <ele>947.52</ele>
        <time>2020-09-06T15:25:47Z</time>
      </trkpt>
      <trkpt lat="37.4527282733" lon="-3.1159341987">
        <ele>946.56</ele>
        <time>2020-09-06T15:25:48Z</time>
      </trkpt>
      <trkpt lat="37.4528026208" lon="-3.1159502082">
        <ele>946.56</ele>
        <time>2020-09-06T15:25:49Z</time>
      </trkpt>
      <trkpt lat="37.4528751243" lon="-3.1159774493">
        <ele>946.56</ele>
        <time>2020-09-06T15:25:50Z</time>
      </trkpt>
      <trkpt lat="37.4529526569" lon="-3.1160181016">
        <ele>946.56</ele>
        <time>2020-09-06T15:25:51Z</time>
      </trkpt>
      <trkpt lat="37.4531708378" lon="-3.1161262281">
        <ele>946.07</ele>
        <time>2020-09-06T15:25:54Z</time>
      </trkpt>
      <trkpt lat="37.4534220435" lon="-3.1162174232">
        <ele>946.07</ele>
        <time>2020-09-06T15:25:58Z</time>
      </trkpt>
      <trkpt lat="37.4534717482" lon="-3.1162259728">
        <ele>946.07</ele>
        <time>2020-09-06T15:25:59Z</time>
      </trkpt>
      <trkpt lat="37.4535805453" lon="-3.1162273977">
        <ele>946.07</ele>
        <time>2020-09-06T15:26:01Z</time>
      </trkpt>
      <trkpt lat="37.4536271486" lon="-3.1162253022">
        <ele>946.07</ele>
        <time>2020-09-06T15:26:02Z</time>
      </trkpt>
      <trkpt lat="37.4537190981" lon="-3.1162384618">
        <ele>946.07</ele>
        <time>2020-09-06T15:26:04Z</time>
      </trkpt>
      <trkpt lat="37.4537620135" lon="-3.1162659544">
        <ele>946.07</ele>
        <time>2020-09-06T15:26:05Z</time>
      </trkpt>
      <trkpt lat="37.4538056832" lon="-3.1163126417">
        <ele>945.59</ele>
        <time>2020-09-06T15:26:06Z</time>
      </trkpt>
      <trkpt lat="37.4539501872" lon="-3.1164788548">
        <ele>943.67</ele>
        <time>2020-09-06T15:26:09Z</time>
      </trkpt>
      <trkpt lat="37.4540010653" lon="-3.1165191717">
        <ele>943.67</ele>
        <time>2020-09-06T15:26:10Z</time>
      </trkpt>
      <trkpt lat="37.4540580623" lon="-3.1165521964">
        <ele>943.67</ele>
        <time>2020-09-06T15:26:11Z</time>
      </trkpt>
      <trkpt lat="37.4541562144" lon="-3.1165987998">
        <ele>943.67</ele>
        <time>2020-09-06T15:26:13Z</time>
      </trkpt>
      <trkpt lat="37.4543227628" lon="-3.1166500971">
        <ele>945.11</ele>
        <time>2020-09-06T15:26:16Z</time>
      </trkpt>
      <trkpt lat="37.4546325579" lon="-3.1167363469">
        <ele>943.67</ele>
        <time>2020-09-06T15:26:21Z</time>
      </trkpt>
      <trkpt lat="37.4546925724" lon="-3.1167350896">
        <ele>943.67</ele>
        <time>2020-09-06T15:26:22Z</time>
      </trkpt>
      <trkpt lat="37.4549056403" lon="-3.1167102791">
        <ele>943.19</ele>
        <time>2020-09-06T15:26:26Z</time>
      </trkpt>
      <trkpt lat="37.4550091568" lon="-3.1167287193">
        <ele>943.19</ele>
        <time>2020-09-06T15:26:28Z</time>
      </trkpt>
      <trkpt lat="37.4551187921" lon="-3.1167728920">
        <ele>941.75</ele>
        <time>2020-09-06T15:26:30Z</time>
      </trkpt>
      <trkpt lat="37.4551667366" lon="-3.1168085150">
        <ele>941.75</ele>
        <time>2020-09-06T15:26:31Z</time>
      </trkpt>
      <trkpt lat="37.4552097358" lon="-3.1168558728">
        <ele>941.75</ele>
        <time>2020-09-06T15:26:32Z</time>
      </trkpt>
      <trkpt lat="37.4552829098" lon="-3.1169435475">
        <ele>941.75</ele>
        <time>2020-09-06T15:26:34Z</time>
      </trkpt>
      <trkpt lat="37.4554033577" lon="-3.1171448808">
        <ele>940.79</ele>
        <time>2020-09-06T15:26:38Z</time>
      </trkpt>
      <trkpt lat="37.4554244801" lon="-3.1172156241">
        <ele>940.31</ele>
        <time>2020-09-06T15:26:39Z</time>
      </trkpt>
      <trkpt lat="37.4554385617" lon="-3.1172794104">
        <ele>939.83</ele>
        <time>2020-09-06T15:26:40Z</time>
      </trkpt>
      <trkpt lat="37.4554491229" lon="-3.1173419394">
        <ele>939.35</ele>
        <time>2020-09-06T15:26:41Z</time>
      </trkpt>
      <trkpt lat="37.4554558285" lon="-3.1173970923">
        <ele>938.86</ele>
        <time>2020-09-06T15:26:42Z</time>
      </trkpt>
      <trkpt lat="37.4554566666" lon="-3.1175915524">
        <ele>938.38</ele>
        <time>2020-09-06T15:26:46Z</time>
      </trkpt>
      <trkpt lat="37.4554488715" lon="-3.1176408380">
        <ele>937.90</ele>
        <time>2020-09-06T15:26:47Z</time>
      </trkpt>
      <trkpt lat="37.4554347061" lon="-3.1176942308">
        <ele>937.42</ele>
        <time>2020-09-06T15:26:48Z</time>
      </trkpt>
      <trkpt lat="37.4554162659" lon="-3.1177424267">
        <ele>937.42</ele>
        <time>2020-09-06T15:26:49Z</time>
      </trkpt>
      <trkpt lat="37.4553929642" lon="-3.1177901197">
        <ele>936.46</ele>
        <time>2020-09-06T15:26:50Z</time>
      </trkpt>
      <trkpt lat="37.4553717580" lon="-3.1178409141">
        <ele>935.98</ele>
        <time>2020-09-06T15:26:51Z</time>
      </trkpt>
      <trkpt lat="37.4553611130" lon="-3.1178819016">
        <ele>935.98</ele>
        <time>2020-09-06T15:26:52Z</time>
      </trkpt>
      <trkpt lat="37.4553560838" lon="-3.1179228052">
        <ele>935.50</ele>
        <time>2020-09-06T15:26:53Z</time>
      </trkpt>
      <trkpt lat="37.4553469475" lon="-3.1179959793">
        <ele>934.54</ele>
        <time>2020-09-06T15:26:55Z</time>
      </trkpt>
      <trkpt lat="37.4553439301" lon="-3.1180108152">
        <ele>934.54</ele>
        <time>2020-09-06T15:27:04Z</time>
      </trkpt>
      <trkpt lat="37.4553440977" lon="-3.1180195324">
        <ele>934.54</ele>
        <time>2020-09-06T15:27:15Z</time>
      </trkpt>
      <trkpt lat="37.4553528149" lon="-3.1180428341">
        <ele>934.54</ele>
        <time>2020-09-06T15:27:16Z</time>
      </trkpt>
      <trkpt lat="37.4553670641" lon="-3.1180717517">
        <ele>933.58</ele>
        <time>2020-09-06T15:27:17Z</time>
      </trkpt>
      <trkpt lat="37.4553881865" lon="-3.1181082968">
        <ele>933.58</ele>
        <time>2020-09-06T15:27:18Z</time>
      </trkpt>
      <trkpt lat="37.4554145895" lon="-3.1181511283">
        <ele>933.10</ele>
        <time>2020-09-06T15:27:19Z</time>
      </trkpt>
      <trkpt lat="37.4554456025" lon="-3.1181970611">
        <ele>932.62</ele>
        <time>2020-09-06T15:27:20Z</time>
      </trkpt>
      <trkpt lat="37.4554807227" lon="-3.1182389706">
        <ele>932.62</ele>
        <time>2020-09-06T15:27:21Z</time>
      </trkpt>
      <trkpt lat="37.4555182736" lon="-3.1182725821">
        <ele>932.62</ele>
        <time>2020-09-06T15:27:22Z</time>
      </trkpt>
      <trkpt lat="37.4555511307" lon="-3.1182994880">
        <ele>932.14</ele>
        <time>2020-09-06T15:27:23Z</time>
      </trkpt>
      <trkpt lat="37.4555774499" lon="-3.1183193531">
        <ele>932.14</ele>
        <time>2020-09-06T15:27:24Z</time>
      </trkpt>
      <trkpt lat="37.4555984885" lon="-3.1183321774">
        <ele>931.65</ele>
        <time>2020-09-06T15:27:25Z</time>
      </trkpt>
      <trkpt lat="37.4556393921" lon="-3.1183466781">
        <ele>931.65</ele>
        <time>2020-09-06T15:27:27Z</time>
      </trkpt>
      <trkpt lat="37.4556464329" lon="-3.1183476001">
        <ele>930.69</ele>
        <time>2020-09-06T15:27:38Z</time>
      </trkpt>
      <trkpt lat="37.4557543080" lon="-3.1184004899">
        <ele>929.73</ele>
        <time>2020-09-06T15:27:54Z</time>
      </trkpt>
      <trkpt lat="37.4557683058" lon="-3.1184081174">
        <ele>929.25</ele>
        <time>2020-09-06T15:28:23Z</time>
      </trkpt>
      <trkpt lat="37.4561666138" lon="-3.1185845565">
        <ele>927.81</ele>
        <time>2020-09-06T15:28:32Z</time>
      </trkpt>
      <trkpt lat="37.4563554581" lon="-3.1186613347">
        <ele>929.25</ele>
        <time>2020-09-06T15:28:36Z</time>
      </trkpt>
      <trkpt lat="37.4565390218" lon="-3.1186931022">
        <ele>930.69</ele>
        <time>2020-09-06T15:28:45Z</time>
      </trkpt>
      <trkpt lat="37.4567056540" lon="-3.1187542900">
        <ele>927.33</ele>
        <time>2020-09-06T15:29:03Z</time>
      </trkpt>
      <trkpt lat="37.4567453843" lon="-3.1187640969">
        <ele>928.77</ele>
        <time>2020-09-06T15:29:04Z</time>
      </trkpt>
      <trkpt lat="37.4567877129" lon="-3.1187735684">
        <ele>930.21</ele>
        <time>2020-09-06T15:29:05Z</time>
      </trkpt>
      <trkpt lat="37.4568333942" lon="-3.1187769212">
        <ele>929.25</ele>
        <time>2020-09-06T15:29:06Z</time>
      </trkpt>
      <trkpt lat="37.4568809196" lon="-3.1187749095">
        <ele>929.25</ele>
        <time>2020-09-06T15:29:07Z</time>
      </trkpt>
      <trkpt lat="37.4569339771" lon="-3.1187679525">
        <ele>928.77</ele>
        <time>2020-09-06T15:29:08Z</time>
      </trkpt>
      <trkpt lat="37.4569918122" lon="-3.1187548768">
        <ele>928.77</ele>
        <time>2020-09-06T15:29:09Z</time>
      </trkpt>
      <trkpt lat="37.4576184433" lon="-3.1185708940">
        <ele>926.37</ele>
        <time>2020-09-06T15:29:21Z</time>
      </trkpt>
      <trkpt lat="37.4576731771" lon="-3.1185422279">
        <ele>925.89</ele>
        <time>2020-09-06T15:29:22Z</time>
      </trkpt>
      <trkpt lat="37.4578952137" lon="-3.1184204388">
        <ele>925.89</ele>
        <time>2020-09-06T15:29:26Z</time>
      </trkpt>
      <trkpt lat="37.4579518754" lon="-3.1184106320">
        <ele>925.89</ele>
        <time>2020-09-06T15:29:27Z</time>
      </trkpt>
      <trkpt lat="37.4580159970" lon="-3.1184112187">
        <ele>925.41</ele>
        <time>2020-09-06T15:29:28Z</time>
      </trkpt>
      <trkpt lat="37.4580895063" lon="-3.1184294075">
        <ele>924.93</ele>
        <time>2020-09-06T15:29:29Z</time>
      </trkpt>
      <trkpt lat="37.4581559747" lon="-3.1184605043">
        <ele>923.96</ele>
        <time>2020-09-06T15:29:30Z</time>
      </trkpt>
      <trkpt lat="37.4582154024" lon="-3.1184952054">
        <ele>923.96</ele>
        <time>2020-09-06T15:29:31Z</time>
      </trkpt>
      <trkpt lat="37.4584249500" lon="-3.1185896695">
        <ele>923.00</ele>
        <time>2020-09-06T15:29:34Z</time>
      </trkpt>
      <trkpt lat="37.4589361623" lon="-3.1186402123">
        <ele>919.64</ele>
        <time>2020-09-06T15:29:40Z</time>
      </trkpt>
      <trkpt lat="37.4590240885" lon="-3.1186250411">
        <ele>918.20</ele>
        <time>2020-09-06T15:29:41Z</time>
      </trkpt>
      <trkpt lat="37.4591059797" lon="-3.1185992248">
        <ele>917.72</ele>
        <time>2020-09-06T15:29:42Z</time>
      </trkpt>
      <trkpt lat="37.4591900501" lon="-3.1185630988">
        <ele>917.72</ele>
        <time>2020-09-06T15:29:43Z</time>
      </trkpt>
      <trkpt lat="37.4592700973" lon="-3.1185195968">
        <ele>917.72</ele>
        <time>2020-09-06T15:29:44Z</time>
      </trkpt>
      <trkpt lat="37.4593457859" lon="-3.1184743345">
        <ele>917.24</ele>
        <time>2020-09-06T15:29:45Z</time>
      </trkpt>
      <trkpt lat="37.4598074611" lon="-3.1181355380">
        <ele>914.35</ele>
        <time>2020-09-06T15:29:51Z</time>
      </trkpt>
      <trkpt lat="37.4601977225" lon="-3.1178005971">
        <ele>910.99</ele>
        <time>2020-09-06T15:29:56Z</time>
      </trkpt>
      <trkpt lat="37.4602708127" lon="-3.1177327875">
        <ele>910.99</ele>
        <time>2020-09-06T15:29:57Z</time>
      </trkpt>
      <trkpt lat="37.4611520022" lon="-3.1170010474">
        <ele>910.03</ele>
        <time>2020-09-06T15:30:10Z</time>
      </trkpt>
      <trkpt lat="37.4619087204" lon="-3.1161890924">
        <ele>906.66</ele>
        <time>2020-09-06T15:30:22Z</time>
      </trkpt>
      <trkpt lat="37.4619541503" lon="-3.1161102187">
        <ele>906.66</ele>
        <time>2020-09-06T15:30:23Z</time>
      </trkpt>
      <trkpt lat="37.4619835708" lon="-3.1160269026">
        <ele>906.18</ele>
        <time>2020-09-06T15:30:24Z</time>
      </trkpt>
      <trkpt lat="37.4619901925" lon="-3.1159393955">
        <ele>906.18</ele>
        <time>2020-09-06T15:30:25Z</time>
      </trkpt>
      <trkpt lat="37.4619808048" lon="-3.1158543192">
        <ele>904.74</ele>
        <time>2020-09-06T15:30:26Z</time>
      </trkpt>
      <trkpt lat="37.4619687349" lon="-3.1157694105">
        <ele>904.26</ele>
        <time>2020-09-06T15:30:27Z</time>
      </trkpt>
      <trkpt lat="37.4619687349" lon="-3.1156845856">
        <ele>903.78</ele>
        <time>2020-09-06T15:30:28Z</time>
      </trkpt>
      <trkpt lat="37.4619874265" lon="-3.1155999284">
        <ele>903.78</ele>
        <time>2020-09-06T15:30:29Z</time>
      </trkpt>
      <trkpt lat="37.4620238040" lon="-3.1155128404">
        <ele>902.82</ele>
        <time>2020-09-06T15:30:30Z</time>
      </trkpt>
      <trkpt lat="37.4620696530" lon="-3.1154294405">
        <ele>902.33</ele>
        <time>2020-09-06T15:30:31Z</time>
      </trkpt>
      <trkpt lat="37.4621180166" lon="-3.1153440289">
        <ele>901.85</ele>
        <time>2020-09-06T15:30:32Z</time>
      </trkpt>
      <trkpt lat="37.4623302463" lon="-3.1149916537">
        <ele>900.89</ele>
        <time>2020-09-06T15:30:36Z</time>
      </trkpt>
      <trkpt lat="37.4623994809" lon="-3.1149203237">
        <ele>899.93</ele>
        <time>2020-09-06T15:30:37Z</time>
      </trkpt>
      <trkpt lat="37.4624722358" lon="-3.1148606446">
        <ele>898.97</ele>
        <time>2020-09-06T15:30:38Z</time>
      </trkpt>
      <trkpt lat="37.4626050051" lon="-3.1147516798">
        <ele>898.01</ele>
        <time>2020-09-06T15:30:40Z</time>
      </trkpt>
      <trkpt lat="37.4626544584" lon="-3.1146867201">
        <ele>897.53</ele>
        <time>2020-09-06T15:30:41Z</time>
      </trkpt>
      <trkpt lat="37.4626930989" lon="-3.1146122888">
        <ele>897.53</ele>
        <time>2020-09-06T15:30:42Z</time>
      </trkpt>
      <trkpt lat="37.4627241958" lon="-3.1145507656">
        <ele>897.53</ele>
        <time>2020-09-06T15:30:43Z</time>
      </trkpt>
      <trkpt lat="37.4627590645" lon="-3.1144879013">
        <ele>897.05</ele>
        <time>2020-09-06T15:30:44Z</time>
      </trkpt>
      <trkpt lat="37.4632566981" lon="-3.1135646347">
        <ele>895.12</ele>
        <time>2020-09-06T15:30:56Z</time>
      </trkpt>
      <trkpt lat="37.4633224122" lon="-3.1135010161">
        <ele>894.64</ele>
        <time>2020-09-06T15:30:57Z</time>
      </trkpt>
      <trkpt lat="37.4635174591" lon="-3.1133380719">
        <ele>894.16</ele>
        <time>2020-09-06T15:31:00Z</time>
      </trkpt>
      <trkpt lat="37.4635628052" lon="-3.1132596172">
        <ele>894.16</ele>
        <time>2020-09-06T15:31:01Z</time>
      </trkpt>
      <trkpt lat="37.4635915551" lon="-3.1131688412">
        <ele>893.68</ele>
        <time>2020-09-06T15:31:02Z</time>
      </trkpt>
      <trkpt lat="37.4636087380" lon="-3.1130677555">
        <ele>893.68</ele>
        <time>2020-09-06T15:31:03Z</time>
      </trkpt>
      <trkpt lat="37.4636244960" lon="-3.1129649095">
        <ele>893.68</ele>
        <time>2020-09-06T15:31:04Z</time>
      </trkpt>
      <trkpt lat="37.4636467081" lon="-3.1128594652">
        <ele>893.68</ele>
        <time>2020-09-06T15:31:05Z</time>
      </trkpt>
      <trkpt lat="37.4636840075" lon="-3.1127682701">
        <ele>892.72</ele>
        <time>2020-09-06T15:31:06Z</time>
      </trkpt>
      <trkpt lat="37.4637358915" lon="-3.1126895640">
        <ele>892.72</ele>
        <time>2020-09-06T15:31:07Z</time>
      </trkpt>
      <trkpt lat="37.4637904577" lon="-3.1126217544">
        <ele>892.72</ele>
        <time>2020-09-06T15:31:08Z</time>
      </trkpt>
      <trkpt lat="37.4638422579" lon="-3.1125599798">
        <ele>892.72</ele>
        <time>2020-09-06T15:31:09Z</time>
      </trkpt>
      <trkpt lat="37.4638881907" lon="-3.1124970317">
        <ele>892.72</ele>
        <time>2020-09-06T15:31:10Z</time>
      </trkpt>
      <trkpt lat="37.4639327824" lon="-3.1124270428">
        <ele>892.72</ele>
        <time>2020-09-06T15:31:11Z</time>
      </trkpt>
      <trkpt lat="37.4644310866" lon="-3.1114740204">
        <ele>891.76</ele>
        <time>2020-09-06T15:31:23Z</time>
      </trkpt>
      <trkpt lat="37.4645510316" lon="-3.1112326216">
        <ele>891.28</ele>
        <time>2020-09-06T15:31:26Z</time>
      </trkpt>
      <trkpt lat="37.4646066036" lon="-3.1111623812">
        <ele>891.28</ele>
        <time>2020-09-06T15:31:27Z</time>
      </trkpt>
      <trkpt lat="37.4646661989" lon="-3.1111084856">
        <ele>891.28</ele>
        <time>2020-09-06T15:31:28Z</time>
      </trkpt>
      <trkpt lat="37.4647315778" lon="-3.1110658217">
        <ele>890.80</ele>
        <time>2020-09-06T15:31:29Z</time>
      </trkpt>
      <trkpt lat="37.4648008961" lon="-3.1110357307">
        <ele>890.80</ele>
        <time>2020-09-06T15:31:30Z</time>
      </trkpt>
      <trkpt lat="37.4648707174" lon="-3.1110182963">
        <ele>890.80</ele>
        <time>2020-09-06T15:31:31Z</time>
      </trkpt>
      <trkpt lat="37.4649407063" lon="-3.1110123452">
        <ele>889.84</ele>
        <time>2020-09-06T15:31:32Z</time>
      </trkpt>
      <trkpt lat="37.4650101922" lon="-3.1110172067">
        <ele>889.84</ele>
        <time>2020-09-06T15:31:33Z</time>
      </trkpt>
      <trkpt lat="37.4650806002" lon="-3.1110303663">
        <ele>889.84</ele>
        <time>2020-09-06T15:31:34Z</time>
      </trkpt>
      <trkpt lat="37.4651507568" lon="-3.1110530812">
        <ele>889.84</ele>
        <time>2020-09-06T15:31:35Z</time>
      </trkpt>
      <trkpt lat="37.4652236793" lon="-3.1110833399">
        <ele>889.36</ele>
        <time>2020-09-06T15:31:36Z</time>
      </trkpt>
      <trkpt lat="37.4652937520" lon="-3.1111130118">
        <ele>888.88</ele>
        <time>2020-09-06T15:31:37Z</time>
      </trkpt>
      <trkpt lat="37.4655813351" lon="-3.1111723557">
        <ele>888.88</ele>
        <time>2020-09-06T15:31:41Z</time>
      </trkpt>
      <trkpt lat="37.4656490609" lon="-3.1111583579">
        <ele>887.91</ele>
        <time>2020-09-06T15:31:42Z</time>
      </trkpt>
      <trkpt lat="37.4657882005" lon="-3.1110402569">
        <ele>887.91</ele>
        <time>2020-09-06T15:31:45Z</time>
      </trkpt>
      <trkpt lat="37.4658248294" lon="-3.1110235769">
        <ele>887.43</ele>
        <time>2020-09-06T15:31:46Z</time>
      </trkpt>
      <trkpt lat="37.4658627994" lon="-3.1110193860">
        <ele>886.95</ele>
        <time>2020-09-06T15:31:47Z</time>
      </trkpt>
      <trkpt lat="37.4658921361" lon="-3.1110314559">
        <ele>886.95</ele>
        <time>2020-09-06T15:31:48Z</time>
      </trkpt>
      <trkpt lat="37.4659228139" lon="-3.1110521592">
        <ele>886.95</ele>
        <time>2020-09-06T15:31:49Z</time>
      </trkpt>
      <trkpt lat="37.4659581855" lon="-3.1110757124">
        <ele>886.95</ele>
        <time>2020-09-06T15:31:50Z</time>
      </trkpt>
      <trkpt lat="37.4665362854" lon="-3.1113752816">
        <ele>885.99</ele>
        <time>2020-09-06T15:32:01Z</time>
      </trkpt>
      <trkpt lat="37.4666013289" lon="-3.1113822386">
        <ele>885.99</ele>
        <time>2020-09-06T15:32:02Z</time>
      </trkpt>
      <trkpt lat="37.4666631036" lon="-3.1113797240">
        <ele>885.99</ele>
        <time>2020-09-06T15:32:03Z</time>
      </trkpt>
      <trkpt lat="37.4670966994" lon="-3.1113101542">
        <ele>885.51</ele>
        <time>2020-09-06T15:32:10Z</time>
      </trkpt>
      <trkpt lat="37.4671564624" lon="-3.1112809014">
        <ele>885.51</ele>
        <time>2020-09-06T15:32:11Z</time>
      </trkpt>
      <trkpt lat="37.4672108609" lon="-3.1112395786">
        <ele>885.51</ele>
        <time>2020-09-06T15:32:12Z</time>
      </trkpt>
      <trkpt lat="37.4673124496" lon="-3.1111571845">
        <ele>885.03</ele>
        <time>2020-09-06T15:32:14Z</time>
      </trkpt>
      <trkpt lat="37.4673696142" lon="-3.1111259200">
        <ele>885.03</ele>
        <time>2020-09-06T15:32:15Z</time>
      </trkpt>
      <trkpt lat="37.4674302153" lon="-3.1111044623">
        <ele>882.15</ele>
        <time>2020-09-06T15:32:16Z</time>
      </trkpt>
      <trkpt lat="37.4674925767" lon="-3.1110928953">
        <ele>886.95</ele>
        <time>2020-09-06T15:32:17Z</time>
      </trkpt>
      <trkpt lat="37.4675574526" lon="-3.1110879499">
        <ele>886.95</ele>
        <time>2020-09-06T15:32:18Z</time>
      </trkpt>
      <trkpt lat="37.4677584507" lon="-3.1110799871">
        <ele>885.03</ele>
        <time>2020-09-06T15:32:21Z</time>
      </trkpt>
      <trkpt lat="37.4681015220" lon="-3.1110953260">
        <ele>885.03</ele>
        <time>2020-09-06T15:32:26Z</time>
      </trkpt>
      <trkpt lat="37.4691760819" lon="-3.1110959966">
        <ele>883.59</ele>
        <time>2020-09-06T15:32:40Z</time>
      </trkpt>
      <trkpt lat="37.4700582772" lon="-3.1110480521">
        <ele>882.15</ele>
        <time>2020-09-06T15:32:53Z</time>
      </trkpt>
      <trkpt lat="37.4705623649" lon="-3.1110549252">
        <ele>881.19</ele>
        <time>2020-09-06T15:33:02Z</time>
      </trkpt>
      <trkpt lat="37.4706181884" lon="-3.1110628881">
        <ele>881.19</ele>
        <time>2020-09-06T15:33:03Z</time>
      </trkpt>
      <trkpt lat="37.4710755888" lon="-3.1111767981">
        <ele>879.74</ele>
        <time>2020-09-06T15:33:10Z</time>
      </trkpt>
      <trkpt lat="37.4711429793" lon="-3.1111779716">
        <ele>879.74</ele>
        <time>2020-09-06T15:33:11Z</time>
      </trkpt>
      <trkpt lat="37.4721721094" lon="-3.1112131756">
        <ele>878.78</ele>
        <time>2020-09-06T15:33:25Z</time>
      </trkpt>
      <trkpt lat="37.4722473789" lon="-3.1111897901">
        <ele>878.78</ele>
        <time>2020-09-06T15:33:26Z</time>
      </trkpt>
      <trkpt lat="37.4729120638" lon="-3.1108293682">
        <ele>876.38</ele>
        <time>2020-09-06T15:33:35Z</time>
      </trkpt>
      <trkpt lat="37.4729725812" lon="-3.1107642408">
        <ele>876.38</ele>
        <time>2020-09-06T15:33:36Z</time>
      </trkpt>
      <trkpt lat="37.4730266444" lon="-3.1106895581">
        <ele>876.38</ele>
        <time>2020-09-06T15:33:37Z</time>
      </trkpt>
      <trkpt lat="37.4736537784" lon="-3.1095553190">
        <ele>874.46</ele>
        <time>2020-09-06T15:33:51Z</time>
      </trkpt>
      <trkpt lat="37.4744207226" lon="-3.1085991953">
        <ele>873.01</ele>
        <time>2020-09-06T15:34:05Z</time>
      </trkpt>
      <trkpt lat="37.4746710062" lon="-3.1083544437">
        <ele>873.01</ele>
        <time>2020-09-06T15:34:09Z</time>
      </trkpt>
      <trkpt lat="37.4747415818" lon="-3.1083137915">
        <ele>872.53</ele>
        <time>2020-09-06T15:34:10Z</time>
      </trkpt>
      <trkpt lat="37.4748155940" lon="-3.1082854606">
        <ele>872.53</ele>
        <time>2020-09-06T15:34:11Z</time>
      </trkpt>
      <trkpt lat="37.4748897739" lon="-3.1082651764">
        <ele>872.53</ele>
        <time>2020-09-06T15:34:12Z</time>
      </trkpt>
      <trkpt lat="37.4749630317" lon="-3.1082449760">
        <ele>872.53</ele>
        <time>2020-09-06T15:34:13Z</time>
      </trkpt>
      <trkpt lat="37.4754131399" lon="-3.1080517732">
        <ele>872.05</ele>
        <time>2020-09-06T15:34:19Z</time>
      </trkpt>
      <trkpt lat="37.4754931033" lon="-3.1080366857">
        <ele>872.05</ele>
        <time>2020-09-06T15:34:20Z</time>
      </trkpt>
      <trkpt lat="37.4755786825" lon="-3.1080309022">
        <ele>872.05</ele>
        <time>2020-09-06T15:34:21Z</time>
      </trkpt>
      <trkpt lat="37.4756607413" lon="-3.1080335844">
        <ele>872.05</ele>
        <time>2020-09-06T15:34:22Z</time>
      </trkpt>
      <trkpt lat="37.4757444765" lon="-3.1080413796">
        <ele>871.09</ele>
        <time>2020-09-06T15:34:23Z</time>
      </trkpt>
      <trkpt lat="37.4758289661" lon="-3.1080542877">
        <ele>871.09</ele>
        <time>2020-09-06T15:34:24Z</time>
      </trkpt>
      <trkpt lat="37.4759133719" lon="-3.1080768351">
        <ele>871.09</ele>
        <time>2020-09-06T15:34:25Z</time>
      </trkpt>
      <trkpt lat="37.4759976100" lon="-3.1081086025">
        <ele>870.61</ele>
        <time>2020-09-06T15:34:26Z</time>
      </trkpt>
      <trkpt lat="37.4760793336" lon="-3.1081558764">
        <ele>870.13</ele>
        <time>2020-09-06T15:34:27Z</time>
      </trkpt>
      <trkpt lat="37.4761584587" lon="-3.1082213391">
        <ele>870.13</ele>
        <time>2020-09-06T15:34:28Z</time>
      </trkpt>
      <trkpt lat="37.4762310460" lon="-3.1083085109">
        <ele>869.65</ele>
        <time>2020-09-06T15:34:29Z</time>
      </trkpt>
      <trkpt lat="37.4762807507" lon="-3.1084065791">
        <ele>869.65</ele>
        <time>2020-09-06T15:34:30Z</time>
      </trkpt>
      <trkpt lat="37.4763136916" lon="-3.1085122749">
        <ele>869.65</ele>
        <time>2020-09-06T15:34:31Z</time>
      </trkpt>
      <trkpt lat="37.4763389211" lon="-3.1086212397">
        <ele>869.17</ele>
        <time>2020-09-06T15:34:32Z</time>
      </trkpt>
      <trkpt lat="37.4764011987" lon="-3.1088213995">
        <ele>869.65</ele>
        <time>2020-09-06T15:34:34Z</time>
      </trkpt>
      <trkpt lat="37.4764529988" lon="-3.1088970043">
        <ele>869.17</ele>
        <time>2020-09-06T15:34:35Z</time>
      </trkpt>
      <trkpt lat="37.4765233230" lon="-3.1089508161">
        <ele>869.17</ele>
        <time>2020-09-06T15:34:36Z</time>
      </trkpt>
      <trkpt lat="37.4766733591" lon="-3.1090045441">
        <ele>869.65</ele>
        <time>2020-09-06T15:34:38Z</time>
      </trkpt>
      <trkpt lat="37.4775983021" lon="-3.1090638041">
        <ele>867.25</ele>
        <time>2020-09-06T15:34:49Z</time>
      </trkpt>
      <trkpt lat="37.4780642521" lon="-3.1089644786">
        <ele>866.29</ele>
        <time>2020-09-06T15:34:55Z</time>
      </trkpt>
      <trkpt lat="37.4781431258" lon="-3.1089782249">
        <ele>866.29</ele>
        <time>2020-09-06T15:34:56Z</time>
      </trkpt>
      <trkpt lat="37.4783361610" lon="-3.1091282610">
        <ele>864.84</ele>
        <time>2020-09-06T15:34:59Z</time>
      </trkpt>
      <trkpt lat="37.4783898890" lon="-3.1091993395">
        <ele>864.84</ele>
        <time>2020-09-06T15:35:00Z</time>
      </trkpt>
      <trkpt lat="37.4791660532" lon="-3.1102863885">
        <ele>862.44</ele>
        <time>2020-09-06T15:35:14Z</time>
      </trkpt>
      <trkpt lat="37.4796711467" lon="-3.1105285417">
        <ele>861.48</ele>
        <time>2020-09-06T15:35:21Z</time>
      </trkpt>
      <trkpt lat="37.4805314653" lon="-3.1103413738">
        <ele>860.52</ele>
        <time>2020-09-06T15:35:32Z</time>
      </trkpt>
      <trkpt lat="37.4808138516" lon="-3.1101443153">
        <ele>860.04</ele>
        <time>2020-09-06T15:35:36Z</time>
      </trkpt>
      <trkpt lat="37.4810753670" lon="-3.1099001504">
        <ele>859.08</ele>
        <time>2020-09-06T15:35:40Z</time>
      </trkpt>
      <trkpt lat="37.4811551627" lon="-3.1098515354">
        <ele>859.08</ele>
        <time>2020-09-06T15:35:41Z</time>
      </trkpt>
      <trkpt lat="37.4818763416" lon="-3.1095927861">
        <ele>858.11</ele>
        <time>2020-09-06T15:35:52Z</time>
      </trkpt>
      <trkpt lat="37.4819382839" lon="-3.1095697358">
        <ele>858.11</ele>
        <time>2020-09-06T15:35:53Z</time>
      </trkpt>
      <trkpt lat="37.4829323776" lon="-3.1092551630">
        <ele>856.67</ele>
        <time>2020-09-06T15:36:09Z</time>
      </trkpt>
      <trkpt lat="37.4829745386" lon="-3.1092380639">
        <ele>856.67</ele>
        <time>2020-09-06T15:36:15Z</time>
      </trkpt>
      <trkpt lat="37.4831639696" lon="-3.1092023570">
        <ele>855.71</ele>
        <time>2020-09-06T15:36:26Z</time>
      </trkpt>
      <trkpt lat="37.4833554123" lon="-3.1091313623">
        <ele>855.71</ele>
        <time>2020-09-06T15:36:29Z</time>
      </trkpt>
      <trkpt lat="37.4839047622" lon="-3.1091072224">
        <ele>855.23</ele>
        <time>2020-09-06T15:36:36Z</time>
      </trkpt>
      <trkpt lat="37.4839707278" lon="-3.1091290992">
        <ele>855.23</ele>
        <time>2020-09-06T15:36:37Z</time>
      </trkpt>
      <trkpt lat="37.4842920061" lon="-3.1092307717">
        <ele>853.79</ele>
        <time>2020-09-06T15:36:41Z</time>
      </trkpt>
      <trkpt lat="37.4843752384" lon="-3.1092400756">
        <ele>853.79</ele>
        <time>2020-09-06T15:36:42Z</time>
      </trkpt>
      <trkpt lat="37.4844562914" lon="-3.1092396565">
        <ele>853.79</ele>
        <time>2020-09-06T15:36:43Z</time>
      </trkpt>
      <trkpt lat="37.4845339917" lon="-3.1092318613">
        <ele>853.79</ele>
        <time>2020-09-06T15:36:44Z</time>
      </trkpt>
      <trkpt lat="37.4846109375" lon="-3.1092204619">
        <ele>853.79</ele>
        <time>2020-09-06T15:36:45Z</time>
      </trkpt>
      <trkpt lat="37.4853887782" lon="-3.1089786440">
        <ele>852.35</ele>
        <time>2020-09-06T15:36:57Z</time>
      </trkpt>
      <trkpt lat="37.4862061813" lon="-3.1084008794">
        <ele>851.38</ele>
        <time>2020-09-06T15:37:11Z</time>
      </trkpt>
      <trkpt lat="37.4863937683" lon="-3.1082976982">
        <ele>850.90</ele>
        <time>2020-09-06T15:37:14Z</time>
      </trkpt>
      <trkpt lat="37.4865164794" lon="-3.1082509272">
        <ele>850.90</ele>
        <time>2020-09-06T15:37:16Z</time>
      </trkpt>
      <trkpt lat="37.4865780026" lon="-3.1082389411">
        <ele>850.90</ele>
        <time>2020-09-06T15:37:17Z</time>
      </trkpt>
      <trkpt lat="37.4866373464" lon="-3.1082378514">
        <ele>850.90</ele>
        <time>2020-09-06T15:37:18Z</time>
      </trkpt>
      <trkpt lat="37.4866948463" lon="-3.1082533579">
        <ele>850.42</ele>
        <time>2020-09-06T15:37:19Z</time>
      </trkpt>
      <trkpt lat="37.4867499154" lon="-3.1082871370">
        <ele>850.42</ele>
        <time>2020-09-06T15:37:20Z</time>
      </trkpt>
      <trkpt lat="37.4867951777" lon="-3.1083312258">
        <ele>850.42</ele>
        <time>2020-09-06T15:37:21Z</time>
      </trkpt>
      <trkpt lat="37.4868330639" lon="-3.1083834451">
        <ele>849.46</ele>
        <time>2020-09-06T15:37:22Z</time>
      </trkpt>
      <trkpt lat="37.4868669268" lon="-3.1084431242">
        <ele>849.46</ele>
        <time>2020-09-06T15:37:23Z</time>
      </trkpt>
      <trkpt lat="37.4868984427" lon="-3.1085072458">
        <ele>849.46</ele>
        <time>2020-09-06T15:37:24Z</time>
      </trkpt>
      <trkpt lat="37.4869270250" lon="-3.1085781567">
        <ele>849.46</ele>
        <time>2020-09-06T15:37:25Z</time>
      </trkpt>
      <trkpt lat="37.4869493209" lon="-3.1086556893">
        <ele>849.46</ele>
        <time>2020-09-06T15:37:26Z</time>
      </trkpt>
      <trkpt lat="37.4870475568" lon="-3.1089692563">
        <ele>848.98</ele>
        <time>2020-09-06T15:37:30Z</time>
      </trkpt>
      <trkpt lat="37.4870882928" lon="-3.1090306956">
        <ele>848.98</ele>
        <time>2020-09-06T15:37:31Z</time>
      </trkpt>
      <trkpt lat="37.4871336389" lon="-3.1090801489">
        <ele>848.98</ele>
        <time>2020-09-06T15:37:32Z</time>
      </trkpt>
      <trkpt lat="37.4871805776" lon="-3.1091210525">
        <ele>848.98</ele>
        <time>2020-09-06T15:37:33Z</time>
      </trkpt>
      <trkpt lat="37.4872309528" lon="-3.1091588549">
        <ele>848.98</ele>
        <time>2020-09-06T15:37:34Z</time>
      </trkpt>
      <trkpt lat="37.4873355590" lon="-3.1092295144">
        <ele>848.98</ele>
        <time>2020-09-06T15:37:36Z</time>
      </trkpt>
      <trkpt lat="37.4874413386" lon="-3.1092715077">
        <ele>848.98</ele>
        <time>2020-09-06T15:37:38Z</time>
      </trkpt>
      <trkpt lat="37.4878947996" lon="-3.1091936398">
        <ele>848.50</ele>
        <time>2020-09-06T15:37:46Z</time>
      </trkpt>
      <trkpt lat="37.4882169161" lon="-3.1089501455">
        <ele>846.10</ele>
        <time>2020-09-06T15:37:51Z</time>
      </trkpt>
      <trkpt lat="37.4887577165" lon="-3.1085292902">
        <ele>845.62</ele>
        <time>2020-09-06T15:38:01Z</time>
      </trkpt>
      <trkpt lat="37.4891510792" lon="-3.1085405219">
        <ele>844.66</ele>
        <time>2020-09-06T15:38:07Z</time>
      </trkpt>
      <trkpt lat="37.4892300367" lon="-3.1085881311">
        <ele>844.66</ele>
        <time>2020-09-06T15:38:08Z</time>
      </trkpt>
      <trkpt lat="37.4900227971" lon="-3.1089669093">
        <ele>843.21</ele>
        <time>2020-09-06T15:38:20Z</time>
      </trkpt>
      <trkpt lat="37.4911224190" lon="-3.1093964819">
        <ele>841.77</ele>
        <time>2020-09-06T15:38:36Z</time>
      </trkpt>
      <trkpt lat="37.4911920726" lon="-3.1094109826">
        <ele>841.77</ele>
        <time>2020-09-06T15:38:37Z</time>
      </trkpt>
      <trkpt lat="37.4921998288" lon="-3.1093997508">
        <ele>841.29</ele>
        <time>2020-09-06T15:38:52Z</time>
      </trkpt>
      <trkpt lat="37.4922665488" lon="-3.1093808077">
        <ele>841.29</ele>
        <time>2020-09-06T15:38:53Z</time>
      </trkpt>
      <trkpt lat="37.4929904938" lon="-3.1091458630">
        <ele>839.85</ele>
        <time>2020-09-06T15:39:04Z</time>
      </trkpt>
      <trkpt lat="37.4930486642" lon="-3.1091078930">
        <ele>839.85</ele>
        <time>2020-09-06T15:39:05Z</time>
      </trkpt>
      <trkpt lat="37.4932256062" lon="-3.1089828350">
        <ele>839.85</ele>
        <time>2020-09-06T15:39:08Z</time>
      </trkpt>
      <trkpt lat="37.4932795018" lon="-3.1089279335">
        <ele>839.85</ele>
        <time>2020-09-06T15:39:09Z</time>
      </trkpt>
      <trkpt lat="37.4933255184" lon="-3.1088628899">
        <ele>839.85</ele>
        <time>2020-09-06T15:39:10Z</time>
      </trkpt>
      <trkpt lat="37.4933633208" lon="-3.1087908894">
        <ele>839.85</ele>
        <time>2020-09-06T15:39:11Z</time>
      </trkpt>
      <trkpt lat="37.4933934957" lon="-3.1087065674">
        <ele>839.85</ele>
        <time>2020-09-06T15:39:12Z</time>
      </trkpt>
      <trkpt lat="37.4934140313" lon="-3.1086279452">
        <ele>839.85</ele>
        <time>2020-09-06T15:39:13Z</time>
      </trkpt>
      <trkpt lat="37.4934295379" lon="-3.1085446291">
        <ele>839.85</ele>
        <time>2020-09-06T15:39:14Z</time>
      </trkpt>
      <trkpt lat="37.4934405182" lon="-3.1084629055">
        <ele>839.85</ele>
        <time>2020-09-06T15:39:15Z</time>
      </trkpt>
      <trkpt lat="37.4934654124" lon="-3.1082998775">
        <ele>839.85</ele>
        <time>2020-09-06T15:39:17Z</time>
      </trkpt>
      <trkpt lat="37.4934909772" lon="-3.1082220096">
        <ele>838.89</ele>
        <time>2020-09-06T15:39:18Z</time>
      </trkpt>
      <trkpt lat="37.4935324676" lon="-3.1081523560">
        <ele>838.41</ele>
        <time>2020-09-06T15:39:19Z</time>
      </trkpt>
      <trkpt lat="37.4936557654" lon="-3.1080423854">
        <ele>837.45</ele>
        <time>2020-09-06T15:39:21Z</time>
      </trkpt>
      <trkpt lat="37.4942870066" lon="-3.1077227835">
        <ele>837.45</ele>
        <time>2020-09-06T15:39:32Z</time>
      </trkpt>
      <trkpt lat="37.4945676327" lon="-3.1076900940">
        <ele>837.45</ele>
        <time>2020-09-06T15:39:36Z</time>
      </trkpt>
      <trkpt lat="37.4946461711" lon="-3.1077023316">
        <ele>836.96</ele>
        <time>2020-09-06T15:39:37Z</time>
      </trkpt>
      <trkpt lat="37.4947076105" lon="-3.1077146530">
        <ele>836.48</ele>
        <time>2020-09-06T15:39:38Z</time>
      </trkpt>
      <trkpt lat="37.4954896420" lon="-3.1080889888">
        <ele>832.64</ele>
        <time>2020-09-06T15:39:49Z</time>
      </trkpt>
      <trkpt lat="37.4957333039" lon="-3.1082525197">
        <ele>832.64</ele>
        <time>2020-09-06T15:39:53Z</time>
      </trkpt>
      <trkpt lat="37.4957883731" lon="-3.1082733907">
        <ele>832.64</ele>
        <time>2020-09-06T15:39:54Z</time>
      </trkpt>
      <trkpt lat="37.4958513211" lon="-3.1082889810">
        <ele>832.64</ele>
        <time>2020-09-06T15:39:55Z</time>
      </trkpt>
      <trkpt lat="37.4959156942" lon="-3.1082965247">
        <ele>832.64</ele>
        <time>2020-09-06T15:39:56Z</time>
      </trkpt>
      <trkpt lat="37.4959804025" lon="-3.1082950998">
        <ele>832.64</ele>
        <time>2020-09-06T15:39:57Z</time>
      </trkpt>
      <trkpt lat="37.4960449431" lon="-3.1082844548">
        <ele>832.64</ele>
        <time>2020-09-06T15:39:58Z</time>
      </trkpt>
      <trkpt lat="37.4961087294" lon="-3.1082665175">
        <ele>832.64</ele>
        <time>2020-09-06T15:39:59Z</time>
      </trkpt>
      <trkpt lat="37.4961737730" lon="-3.1082458142">
        <ele>832.64</ele>
        <time>2020-09-06T15:40:00Z</time>
      </trkpt>
      <trkpt lat="37.4962985795" lon="-3.1081930920">
        <ele>833.12</ele>
        <time>2020-09-06T15:40:02Z</time>
      </trkpt>
      <trkpt lat="37.4970414676" lon="-3.1074696500">
        <ele>831.20</ele>
        <time>2020-09-06T15:40:16Z</time>
      </trkpt>
      <trkpt lat="37.4973566271" lon="-3.1070709229">
        <ele>830.24</ele>
        <time>2020-09-06T15:40:22Z</time>
      </trkpt>
      <trkpt lat="37.4974248558" lon="-3.1070310250">
        <ele>830.24</ele>
        <time>2020-09-06T15:40:23Z</time>
      </trkpt>
      <trkpt lat="37.4974954315" lon="-3.1070040353">
        <ele>830.24</ele>
        <time>2020-09-06T15:40:24Z</time>
      </trkpt>
      <trkpt lat="37.4975650012" lon="-3.1069877744">
        <ele>829.76</ele>
        <time>2020-09-06T15:40:25Z</time>
      </trkpt>
      <trkpt lat="37.4976371694" lon="-3.1069763750">
        <ele>829.76</ele>
        <time>2020-09-06T15:40:26Z</time>
      </trkpt>
      <trkpt lat="37.4977068231" lon="-3.1069738604">
        <ele>829.76</ele>
        <time>2020-09-06T15:40:27Z</time>
      </trkpt>
      <trkpt lat="37.4977734592" lon="-3.1069751177">
        <ele>829.76</ele>
        <time>2020-09-06T15:40:28Z</time>
      </trkpt>
      <trkpt lat="37.4978400953" lon="-3.1069819070">
        <ele>829.76</ele>
        <time>2020-09-06T15:40:29Z</time>
      </trkpt>
      <trkpt lat="37.4985981546" lon="-3.1073110644">
        <ele>829.27</ele>
        <time>2020-09-06T15:40:41Z</time>
      </trkpt>
      <trkpt lat="37.4989500269" lon="-3.1074370444">
        <ele>827.83</ele>
        <time>2020-09-06T15:40:46Z</time>
      </trkpt>
      <trkpt lat="37.4990183394" lon="-3.1074448396">
        <ele>827.83</ele>
        <time>2020-09-06T15:40:47Z</time>
      </trkpt>
      <trkpt lat="37.4992179126" lon="-3.1074303389">
        <ele>827.83</ele>
        <time>2020-09-06T15:40:50Z</time>
      </trkpt>
      <trkpt lat="37.4992883205" lon="-3.1074039359">
        <ele>827.83</ele>
        <time>2020-09-06T15:40:51Z</time>
      </trkpt>
      <trkpt lat="37.4993497599" lon="-3.1073640380">
        <ele>827.83</ele>
        <time>2020-09-06T15:40:52Z</time>
      </trkpt>
      <trkpt lat="37.4994049966" lon="-3.1073061191">
        <ele>827.83</ele>
        <time>2020-09-06T15:40:53Z</time>
      </trkpt>
      <trkpt lat="37.4994510971" lon="-3.1072335318">
        <ele>827.35</ele>
        <time>2020-09-06T15:40:54Z</time>
      </trkpt>
      <trkpt lat="37.4994907435" lon="-3.1071514729">
        <ele>827.35</ele>
        <time>2020-09-06T15:40:55Z</time>
      </trkpt>
      <trkpt lat="37.4995329883" lon="-3.1070731860">
        <ele>826.87</ele>
        <time>2020-09-06T15:40:56Z</time>
      </trkpt>
      <trkpt lat="37.4995865487" lon="-3.1069972459">
        <ele>826.87</ele>
        <time>2020-09-06T15:40:57Z</time>
      </trkpt>
      <trkpt lat="37.4996432103" lon="-3.1069375668">
        <ele>826.87</ele>
        <time>2020-09-06T15:40:58Z</time>
      </trkpt>
      <trkpt lat="37.4997085053" lon="-3.1068914663">
        <ele>825.43</ele>
        <time>2020-09-06T15:40:59Z</time>
      </trkpt>
      <trkpt lat="37.4997786619" lon="-3.1068555079">
        <ele>825.43</ele>
        <time>2020-09-06T15:41:00Z</time>
      </trkpt>
      <trkpt lat="37.4998452142" lon="-3.1068206392">
        <ele>825.43</ele>
        <time>2020-09-06T15:41:01Z</time>
      </trkpt>
      <trkpt lat="37.5001640618" lon="-3.1067054719">
        <ele>826.87</ele>
        <time>2020-09-06T15:41:06Z</time>
      </trkpt>
      <trkpt lat="37.5002944842" lon="-3.1066337228">
        <ele>826.87</ele>
        <time>2020-09-06T15:41:08Z</time>
      </trkpt>
      <trkpt lat="37.5004471187" lon="-3.1065802462">
        <ele>826.87</ele>
        <time>2020-09-06T15:41:10Z</time>
      </trkpt>
      <trkpt lat="37.5005254056" lon="-3.1065603811">
        <ele>824.95</ele>
        <time>2020-09-06T15:41:11Z</time>
      </trkpt>
      <trkpt lat="37.5005964004" lon="-3.1065412704">
        <ele>824.95</ele>
        <time>2020-09-06T15:41:12Z</time>
      </trkpt>
      <trkpt lat="37.5011263043" lon="-3.1064962596">
        <ele>824.95</ele>
        <time>2020-09-06T15:41:20Z</time>
      </trkpt>
      <trkpt lat="37.5011771824" lon="-3.1065083295">
        <ele>824.95</ele>
        <time>2020-09-06T15:41:21Z</time>
      </trkpt>
      <trkpt lat="37.5012781844" lon="-3.1065328047">
        <ele>824.95</ele>
        <time>2020-09-06T15:41:23Z</time>
      </trkpt>
      <trkpt lat="37.5016740616" lon="-3.1065609679">
        <ele>824.47</ele>
        <time>2020-09-06T15:41:30Z</time>
      </trkpt>
      <trkpt lat="37.5017381832" lon="-3.1065484788">
        <ele>824.47</ele>
        <time>2020-09-06T15:41:31Z</time>
      </trkpt>
      <trkpt lat="37.5018707849" lon="-3.1065067369">
        <ele>823.51</ele>
        <time>2020-09-06T15:41:33Z</time>
      </trkpt>
      <trkpt lat="37.5019362476" lon="-3.1064765621">
        <ele>823.51</ele>
        <time>2020-09-06T15:41:34Z</time>
      </trkpt>
      <trkpt lat="37.5023322925" lon="-3.1062572077">
        <ele>823.03</ele>
        <time>2020-09-06T15:41:40Z</time>
      </trkpt>
      <trkpt lat="37.5023950730" lon="-3.1062325649">
        <ele>822.55</ele>
        <time>2020-09-06T15:41:41Z</time>
      </trkpt>
      <trkpt lat="37.5024603680" lon="-3.1062187348">
        <ele>822.55</ele>
        <time>2020-09-06T15:41:42Z</time>
      </trkpt>
      <trkpt lat="37.5025278423" lon="-3.1062165555">
        <ele>822.06</ele>
        <time>2020-09-06T15:41:43Z</time>
      </trkpt>
      <trkpt lat="37.5025943946" lon="-3.1062209979">
        <ele>822.06</ele>
        <time>2020-09-06T15:41:44Z</time>
      </trkpt>
      <trkpt lat="37.5026628748" lon="-3.1062301341">
        <ele>822.06</ele>
        <time>2020-09-06T15:41:45Z</time>
      </trkpt>
      <trkpt lat="37.5035538711" lon="-3.1062123645">
        <ele>821.58</ele>
        <time>2020-09-06T15:41:59Z</time>
      </trkpt>
      <trkpt lat="37.5036041625" lon="-3.1061966904">
        <ele>821.10</ele>
        <time>2020-09-06T15:42:00Z</time>
      </trkpt>
      <trkpt lat="37.5036593154" lon="-3.1061707903">
        <ele>821.10</ele>
        <time>2020-09-06T15:42:01Z</time>
      </trkpt>
      <trkpt lat="37.5037050806" lon="-3.1061391067">
        <ele>821.10</ele>
        <time>2020-09-06T15:42:02Z</time>
      </trkpt>
      <trkpt lat="37.5037452299" lon="-3.1061004661">
        <ele>821.10</ele>
        <time>2020-09-06T15:42:03Z</time>
      </trkpt>
      <trkpt lat="37.5037803501" lon="-3.1060613226">
        <ele>822.55</ele>
        <time>2020-09-06T15:42:04Z</time>
      </trkpt>
      <trkpt lat="37.5038118660" lon="-3.1060264539">
        <ele>822.55</ele>
        <time>2020-09-06T15:42:05Z</time>
      </trkpt>
      <trkpt lat="37.5038961042" lon="-3.1059775874">
        <ele>823.51</ele>
        <time>2020-09-06T15:42:08Z</time>
      </trkpt>
      <trkpt lat="37.5039261114" lon="-3.1059831195">
        <ele>823.51</ele>
        <time>2020-09-06T15:42:09Z</time>
      </trkpt>
      <trkpt lat="37.5039666798" lon="-3.1059923396">
        <ele>823.51</ele>
        <time>2020-09-06T15:42:10Z</time>
      </trkpt>
      <trkpt lat="37.5043467991" lon="-3.1061302219">
        <ele>822.55</ele>
        <time>2020-09-06T15:42:18Z</time>
      </trkpt>
      <trkpt lat="37.5043941569" lon="-3.1061501708">
        <ele>822.06</ele>
        <time>2020-09-06T15:42:19Z</time>
      </trkpt>
      <trkpt lat="37.5044960808" lon="-3.1061792560">
        <ele>822.06</ele>
        <time>2020-09-06T15:42:21Z</time>
      </trkpt>
      <trkpt lat="37.5045985915" lon="-3.1062191539">
        <ele>822.06</ele>
        <time>2020-09-06T15:42:23Z</time>
      </trkpt>
      <trkpt lat="37.5053174235" lon="-3.1064718682">
        <ele>822.06</ele>
        <time>2020-09-06T15:42:36Z</time>
      </trkpt>
      <trkpt lat="37.5062297937" lon="-3.1065115146">
        <ele>823.03</ele>
        <time>2020-09-06T15:42:51Z</time>
      </trkpt>
      <trkpt lat="37.5067771319" lon="-3.1063826848">
        <ele>822.06</ele>
        <time>2020-09-06T15:42:59Z</time>
      </trkpt>
      <trkpt lat="37.5071069598" lon="-3.1062867958">
        <ele>818.70</ele>
        <time>2020-09-06T15:43:03Z</time>
      </trkpt>
      <trkpt lat="37.5074920245" lon="-3.1061143801">
        <ele>815.34</ele>
        <time>2020-09-06T15:43:07Z</time>
      </trkpt>
      <trkpt lat="37.5079284701" lon="-3.1059114542">
        <ele>811.97</ele>
        <time>2020-09-06T15:43:11Z</time>
      </trkpt>
      <trkpt lat="37.5081533566" lon="-3.1058117095">
        <ele>811.01</ele>
        <time>2020-09-06T15:43:13Z</time>
      </trkpt>
      <trkpt lat="37.5091670640" lon="-3.1052958034">
        <ele>808.61</ele>
        <time>2020-09-06T15:43:24Z</time>
      </trkpt>
      <trkpt lat="37.5093281642" lon="-3.1052051950">
        <ele>808.61</ele>
        <time>2020-09-06T15:43:27Z</time>
      </trkpt>
      <trkpt lat="37.5093699060" lon="-3.1051564962">
        <ele>808.61</ele>
        <time>2020-09-06T15:43:28Z</time>
      </trkpt>
      <trkpt lat="37.5094055291" lon="-3.1050798856">
        <ele>808.61</ele>
        <time>2020-09-06T15:43:29Z</time>
      </trkpt>
      <trkpt lat="37.5095750112" lon="-3.1045128498">
        <ele>811.97</ele>
        <time>2020-09-06T15:43:40Z</time>
      </trkpt>
      <trkpt lat="37.5097206887" lon="-3.1040565390">
        <ele>814.85</ele>
        <time>2020-09-06T15:43:51Z</time>
      </trkpt>
      <trkpt lat="37.5099102873" lon="-3.1034306623">
        <ele>818.22</ele>
        <time>2020-09-06T15:44:07Z</time>
      </trkpt>
      <trkpt lat="37.5100701302" lon="-3.1029321905">
        <ele>821.58</ele>
        <time>2020-09-06T15:44:21Z</time>
      </trkpt>
      <trkpt lat="37.5100903306" lon="-3.1028617825">
        <ele>822.55</ele>
        <time>2020-09-06T15:44:23Z</time>
      </trkpt>
      <trkpt lat="37.5101020653" lon="-3.1024229899">
        <ele>826.39</ele>
        <time>2020-09-06T15:44:35Z</time>
      </trkpt>
      <trkpt lat="37.5100992154" lon="-3.1023867801">
        <ele>824.95</ele>
        <time>2020-09-06T15:44:36Z</time>
      </trkpt>
      <trkpt lat="37.5100919232" lon="-3.1023196410">
        <ele>824.47</ele>
        <time>2020-09-06T15:44:38Z</time>
      </trkpt>
      <trkpt lat="37.5099732354" lon="-3.1017655972">
        <ele>826.87</ele>
        <time>2020-09-06T15:44:55Z</time>
      </trkpt>
      <trkpt lat="37.5098854769" lon="-3.1012874935">
        <ele>829.76</ele>
        <time>2020-09-06T15:45:08Z</time>
      </trkpt>
      <trkpt lat="37.5097752549" lon="-3.1007388141">
        <ele>830.72</ele>
        <time>2020-09-06T15:45:22Z</time>
      </trkpt>
      <trkpt lat="37.5097582396" lon="-3.1006928813">
        <ele>831.20</ele>
        <time>2020-09-06T15:45:23Z</time>
      </trkpt>
      <trkpt lat="37.5096315052" lon="-3.1004613731">
        <ele>831.68</ele>
        <time>2020-09-06T15:45:28Z</time>
      </trkpt>
      <trkpt lat="37.5095616002" lon="-3.1003861036">
        <ele>831.68</ele>
        <time>2020-09-06T15:45:30Z</time>
      </trkpt>
      <trkpt lat="37.5094848219" lon="-3.1003218144">
        <ele>831.68</ele>
        <time>2020-09-06T15:45:32Z</time>
      </trkpt>
      <trkpt lat="37.5094449241" lon="-3.1002894603">
        <ele>831.68</ele>
        <time>2020-09-06T15:45:33Z</time>
      </trkpt>
      <trkpt lat="37.5094041042" lon="-3.1002584472">
        <ele>832.16</ele>
        <time>2020-09-06T15:45:34Z</time>
      </trkpt>
      <trkpt lat="37.5093042757" lon="-3.1001986004">
        <ele>832.16</ele>
        <time>2020-09-06T15:45:36Z</time>
      </trkpt>
      <trkpt lat="37.5091622863" lon="-3.1001187209">
        <ele>832.64</ele>
        <time>2020-09-06T15:45:39Z</time>
      </trkpt>
      <trkpt lat="37.5083755609" lon="-3.0996327382">
        <ele>832.64</ele>
        <time>2020-09-06T15:45:55Z</time>
      </trkpt>
      <trkpt lat="37.5082296319" lon="-3.0995097756">
        <ele>833.12</ele>
        <time>2020-09-06T15:45:58Z</time>
      </trkpt>
      <trkpt lat="37.5081852917" lon="-3.0994587298">
        <ele>833.12</ele>
        <time>2020-09-06T15:45:59Z</time>
      </trkpt>
      <trkpt lat="37.5081049930" lon="-3.0993347615">
        <ele>833.12</ele>
        <time>2020-09-06T15:46:01Z</time>
      </trkpt>
      <trkpt lat="37.5080571324" lon="-3.0992275570">
        <ele>833.12</ele>
        <time>2020-09-06T15:46:03Z</time>
      </trkpt>
      <trkpt lat="37.5080262031" lon="-3.0991256330">
        <ele>833.12</ele>
        <time>2020-09-06T15:46:04Z</time>
      </trkpt>
      <trkpt lat="37.5080095232" lon="-3.0990652833">
        <ele>833.12</ele>
        <time>2020-09-06T15:46:05Z</time>
      </trkpt>
      <trkpt lat="37.5076183397" lon="-3.0976399407">
        <ele>830.24</ele>
        <time>2020-09-06T15:46:23Z</time>
      </trkpt>
      <trkpt lat="37.5072516315" lon="-3.0964619480">
        <ele>828.79</ele>
        <time>2020-09-06T15:46:38Z</time>
      </trkpt>
      <trkpt lat="37.5072060339" lon="-3.0963941384">
        <ele>828.79</ele>
        <time>2020-09-06T15:46:39Z</time>
      </trkpt>
      <trkpt lat="37.5066477992" lon="-3.0957287829">
        <ele>830.24</ele>
        <time>2020-09-06T15:46:51Z</time>
      </trkpt>
      <trkpt lat="37.5060678553" lon="-3.0950512737">
        <ele>833.12</ele>
        <time>2020-09-06T15:47:05Z</time>
      </trkpt>
      <trkpt lat="37.5059992075" lon="-3.0949510261">
        <ele>834.08</ele>
        <time>2020-09-06T15:47:07Z</time>
      </trkpt>
      <trkpt lat="37.5059707090" lon="-3.0948947836">
        <ele>834.08</ele>
        <time>2020-09-06T15:47:08Z</time>
      </trkpt>
      <trkpt lat="37.5059204176" lon="-3.0947776046">
        <ele>834.56</ele>
        <time>2020-09-06T15:47:10Z</time>
      </trkpt>
      <trkpt lat="37.5058849622" lon="-3.0946503673">
        <ele>834.56</ele>
        <time>2020-09-06T15:47:12Z</time>
      </trkpt>
      <trkpt lat="37.5057576410" lon="-3.0936378334">
        <ele>837.93</ele>
        <time>2020-09-06T15:47:28Z</time>
      </trkpt>
      <trkpt lat="37.5056588184" lon="-3.0929780100">
        <ele>840.33</ele>
        <time>2020-09-06T15:47:39Z</time>
      </trkpt>
      <trkpt lat="37.5053096283" lon="-3.0919135921">
        <ele>837.93</ele>
        <time>2020-09-06T15:47:53Z</time>
      </trkpt>
      <trkpt lat="37.5050996616" lon="-3.0913162977">
        <ele>837.45</ele>
        <time>2020-09-06T15:48:01Z</time>
      </trkpt>
      <trkpt lat="37.5050561596" lon="-3.0912472308">
        <ele>837.45</ele>
        <time>2020-09-06T15:48:02Z</time>
      </trkpt>
      <trkpt lat="37.5049954746" lon="-3.0911817681">
        <ele>836.96</ele>
        <time>2020-09-06T15:48:03Z</time>
      </trkpt>
      <trkpt lat="37.5049254019" lon="-3.0911329854">
        <ele>836.00</ele>
        <time>2020-09-06T15:48:04Z</time>
      </trkpt>
      <trkpt lat="37.5048500486" lon="-3.0910988711">
        <ele>835.52</ele>
        <time>2020-09-06T15:48:05Z</time>
      </trkpt>
      <trkpt lat="37.5047592726" lon="-3.0910662655">
        <ele>835.52</ele>
        <time>2020-09-06T15:48:06Z</time>
      </trkpt>
      <trkpt lat="37.5044880342" lon="-3.0909515172">
        <ele>833.12</ele>
        <time>2020-09-06T15:48:09Z</time>
      </trkpt>
      <trkpt lat="37.5044033770" lon="-3.0908821989">
        <ele>832.64</ele>
        <time>2020-09-06T15:48:10Z</time>
      </trkpt>
      <trkpt lat="37.5043286942" lon="-3.0907795206">
        <ele>832.16</ele>
        <time>2020-09-06T15:48:11Z</time>
      </trkpt>
      <trkpt lat="37.5042762235" lon="-3.0906627607">
        <ele>831.20</ele>
        <time>2020-09-06T15:48:12Z</time>
      </trkpt>
      <trkpt lat="37.5042426959" lon="-3.0905355234">
        <ele>830.72</ele>
        <time>2020-09-06T15:48:13Z</time>
      </trkpt>
      <trkpt lat="37.5042204000" lon="-3.0903974734">
        <ele>829.76</ele>
        <time>2020-09-06T15:48:14Z</time>
      </trkpt>
      <trkpt lat="37.5042093359" lon="-3.0902765226">
        <ele>829.27</ele>
        <time>2020-09-06T15:48:15Z</time>
      </trkpt>
      <trkpt lat="37.5042157061" lon="-3.0901440047">
        <ele>827.83</ele>
        <time>2020-09-06T15:48:16Z</time>
      </trkpt>
      <trkpt lat="37.5042419415" lon="-3.0900169350">
        <ele>827.83</ele>
        <time>2020-09-06T15:48:17Z</time>
      </trkpt>
      <trkpt lat="37.5042834319" lon="-3.0898991693">
        <ele>827.35</ele>
        <time>2020-09-06T15:48:18Z</time>
      </trkpt>
      <trkpt lat="37.5043306220" lon="-3.0897809006">
        <ele>826.39</ele>
        <time>2020-09-06T15:48:19Z</time>
      </trkpt>
      <trkpt lat="37.5043647364" lon="-3.0896727741">
        <ele>825.43</ele>
        <time>2020-09-06T15:48:20Z</time>
      </trkpt>
      <trkpt lat="37.5043856911" lon="-3.0895496439">
        <ele>824.95</ele>
        <time>2020-09-06T15:48:21Z</time>
      </trkpt>
      <trkpt lat="37.5043841824" lon="-3.0894214008">
        <ele>824.47</ele>
        <time>2020-09-06T15:48:22Z</time>
      </trkpt>
      <trkpt lat="37.5043628085" lon="-3.0892942473">
        <ele>823.51</ele>
        <time>2020-09-06T15:48:23Z</time>
      </trkpt>
      <trkpt lat="37.5043338072" lon="-3.0891739670">
        <ele>822.55</ele>
        <time>2020-09-06T15:48:24Z</time>
      </trkpt>
      <trkpt lat="37.5042952504" lon="-3.0890515074">
        <ele>821.58</ele>
        <time>2020-09-06T15:48:25Z</time>
      </trkpt>
      <trkpt lat="37.5042471383" lon="-3.0889472365">
        <ele>820.62</ele>
        <time>2020-09-06T15:48:26Z</time>
      </trkpt>
      <trkpt lat="37.5041766465" lon="-3.0888362601">
        <ele>820.14</ele>
        <time>2020-09-06T15:48:27Z</time>
      </trkpt>
      <trkpt lat="37.5041032210" lon="-3.0887443107">
        <ele>820.14</ele>
        <time>2020-09-06T15:48:28Z</time>
      </trkpt>
      <trkpt lat="37.5040204078" lon="-3.0886495113">
        <ele>818.70</ele>
        <time>2020-09-06T15:48:29Z</time>
      </trkpt>
      <trkpt lat="37.5038585532" lon="-3.0884672049">
        <ele>817.26</ele>
        <time>2020-09-06T15:48:31Z</time>
      </trkpt>
      <trkpt lat="37.5037755724" lon="-3.0883981381">
        <ele>816.30</ele>
        <time>2020-09-06T15:48:32Z</time>
      </trkpt>
      <trkpt lat="37.5036842935" lon="-3.0883431528">
        <ele>815.34</ele>
        <time>2020-09-06T15:48:33Z</time>
      </trkpt>
      <trkpt lat="37.5035852194" lon="-3.0883010756">
        <ele>814.85</ele>
        <time>2020-09-06T15:48:34Z</time>
      </trkpt>
      <trkpt lat="37.5034818705" lon="-3.0882684700">
        <ele>813.89</ele>
        <time>2020-09-06T15:48:35Z</time>
      </trkpt>
      <trkpt lat="37.5033760071" lon="-3.0882392172">
        <ele>813.89</ele>
        <time>2020-09-06T15:48:36Z</time>
      </trkpt>
      <trkpt lat="37.5032722391" lon="-3.0881999061">
        <ele>812.45</ele>
        <time>2020-09-06T15:48:37Z</time>
      </trkpt>
      <trkpt lat="37.5031770207" lon="-3.0881437473">
        <ele>811.97</ele>
        <time>2020-09-06T15:48:38Z</time>
      </trkpt>
      <trkpt lat="37.5030919444" lon="-3.0880685616">
        <ele>811.01</ele>
        <time>2020-09-06T15:48:39Z</time>
      </trkpt>
      <trkpt lat="37.5030132383" lon="-3.0879792944">
        <ele>810.53</ele>
        <time>2020-09-06T15:48:40Z</time>
      </trkpt>
      <trkpt lat="37.5029379688" lon="-3.0878855009">
        <ele>809.57</ele>
        <time>2020-09-06T15:48:41Z</time>
      </trkpt>
      <trkpt lat="37.5026628748" lon="-3.0875282642">
        <ele>806.68</ele>
        <time>2020-09-06T15:48:45Z</time>
      </trkpt>
      <trkpt lat="37.5025840010" lon="-3.0874591973">
        <ele>805.72</ele>
        <time>2020-09-06T15:48:46Z</time>
      </trkpt>
      <trkpt lat="37.5025122520" lon="-3.0874188803">
        <ele>804.76</ele>
        <time>2020-09-06T15:48:47Z</time>
      </trkpt>
      <trkpt lat="37.5024306960" lon="-3.0873984285">
        <ele>804.28</ele>
        <time>2020-09-06T15:48:48Z</time>
      </trkpt>
      <trkpt lat="37.5023489725" lon="-3.0873984285">
        <ele>804.28</ele>
        <time>2020-09-06T15:48:49Z</time>
      </trkpt>
      <trkpt lat="37.5022637285" lon="-3.0874108337">
        <ele>803.32</ele>
        <time>2020-09-06T15:48:50Z</time>
      </trkpt>
      <trkpt lat="37.5021754671" lon="-3.0874234065">
        <ele>802.36</ele>
        <time>2020-09-06T15:48:51Z</time>
      </trkpt>
      <trkpt lat="37.5019891374" lon="-3.0874291062">
        <ele>801.40</ele>
        <time>2020-09-06T15:48:53Z</time>
      </trkpt>
      <trkpt lat="37.5018978585" lon="-3.0874000210">
        <ele>801.40</ele>
        <time>2020-09-06T15:48:54Z</time>
      </trkpt>
      <trkpt lat="37.5018185657" lon="-3.0873405933">
        <ele>800.44</ele>
        <time>2020-09-06T15:48:55Z</time>
      </trkpt>
      <trkpt lat="37.5017519295" lon="-3.0872575287">
        <ele>799.47</ele>
        <time>2020-09-06T15:48:56Z</time>
      </trkpt>
      <trkpt lat="37.5016983692" lon="-3.0871556047">
        <ele>798.99</ele>
        <time>2020-09-06T15:48:57Z</time>
      </trkpt>
      <trkpt lat="37.5016564596" lon="-3.0870446283">
        <ele>798.51</ele>
        <time>2020-09-06T15:48:58Z</time>
      </trkpt>
      <trkpt lat="37.5016223453" lon="-3.0869298801">
        <ele>797.55</ele>
        <time>2020-09-06T15:48:59Z</time>
      </trkpt>
      <trkpt lat="37.5016022287" lon="-3.0868056603">
        <ele>796.59</ele>
        <time>2020-09-06T15:49:00Z</time>
      </trkpt>
      <trkpt lat="37.5016065873" lon="-3.0866746511">
        <ele>796.11</ele>
        <time>2020-09-06T15:49:01Z</time>
      </trkpt>
      <trkpt lat="37.5016359240" lon="-3.0865529459">
        <ele>795.15</ele>
        <time>2020-09-06T15:49:02Z</time>
      </trkpt>
      <trkpt lat="37.5016870536" lon="-3.0864427239">
        <ele>794.19</ele>
        <time>2020-09-06T15:49:03Z</time>
      </trkpt>
      <trkpt lat="37.5017635804" lon="-3.0863424763">
        <ele>793.71</ele>
        <time>2020-09-06T15:49:04Z</time>
      </trkpt>
      <trkpt lat="37.5019428693" lon="-3.0860291608">
        <ele>791.30</ele>
        <time>2020-09-06T15:49:07Z</time>
      </trkpt>
      <trkpt lat="37.5019712839" lon="-3.0859087966">
        <ele>791.30</ele>
        <time>2020-09-06T15:49:08Z</time>
      </trkpt>
      <trkpt lat="37.5019817613" lon="-3.0857846607">
        <ele>790.82</ele>
        <time>2020-09-06T15:49:09Z</time>
      </trkpt>
      <trkpt lat="37.5019798335" lon="-3.0855265819">
        <ele>789.38</ele>
        <time>2020-09-06T15:49:11Z</time>
      </trkpt>
      <trkpt lat="37.5019783247" lon="-3.0851394217">
        <ele>786.02</ele>
        <time>2020-09-06T15:49:14Z</time>
      </trkpt>
      <trkpt lat="37.5020152051" lon="-3.0846225936">
        <ele>783.61</ele>
        <time>2020-09-06T15:49:18Z</time>
      </trkpt>
      <trkpt lat="37.5020019617" lon="-3.0844917521">
        <ele>782.65</ele>
        <time>2020-09-06T15:49:19Z</time>
      </trkpt>
      <trkpt lat="37.5019732118" lon="-3.0843615811">
        <ele>782.17</ele>
        <time>2020-09-06T15:49:20Z</time>
      </trkpt>
      <trkpt lat="37.5019339845" lon="-3.0842343438">
        <ele>781.21</ele>
        <time>2020-09-06T15:49:21Z</time>
      </trkpt>
      <trkpt lat="37.5018810946" lon="-3.0841076095">
        <ele>780.73</ele>
        <time>2020-09-06T15:49:22Z</time>
      </trkpt>
      <trkpt lat="37.5018168893" lon="-3.0839960463">
        <ele>780.25</ele>
        <time>2020-09-06T15:49:23Z</time>
      </trkpt>
      <trkpt lat="37.5017419551" lon="-3.0838962179">
        <ele>779.29</ele>
        <time>2020-09-06T15:49:24Z</time>
      </trkpt>
      <trkpt lat="37.5016617402" lon="-3.0838041008">
        <ele>778.81</ele>
        <time>2020-09-06T15:49:25Z</time>
      </trkpt>
      <trkpt lat="37.5014310703" lon="-3.0835245643">
        <ele>776.40</ele>
        <time>2020-09-06T15:49:28Z</time>
      </trkpt>
      <trkpt lat="37.5013780966" lon="-3.0834004283">
        <ele>775.44</ele>
        <time>2020-09-06T15:49:29Z</time>
      </trkpt>
      <trkpt lat="37.5013501011" lon="-3.0832686648">
        <ele>775.44</ele>
        <time>2020-09-06T15:49:30Z</time>
      </trkpt>
      <trkpt lat="37.5013446528" lon="-3.0831329618">
        <ele>774.48</ele>
        <time>2020-09-06T15:49:31Z</time>
      </trkpt>
      <trkpt lat="37.5013583992" lon="-3.0829997733">
        <ele>774.48</ele>
        <time>2020-09-06T15:49:32Z</time>
      </trkpt>
      <trkpt lat="37.5013828743" lon="-3.0828697700">
        <ele>773.52</ele>
        <time>2020-09-06T15:49:33Z</time>
      </trkpt>
      <trkpt lat="37.5014107022" lon="-3.0827395152">
        <ele>773.52</ele>
        <time>2020-09-06T15:49:34Z</time>
      </trkpt>
      <trkpt lat="37.5014344230" lon="-3.0826104339">
        <ele>773.04</ele>
        <time>2020-09-06T15:49:35Z</time>
      </trkpt>
      <trkpt lat="37.5014445651" lon="-3.0824805144">
        <ele>772.56</ele>
        <time>2020-09-06T15:49:36Z</time>
      </trkpt>
      <trkpt lat="37.5014365185" lon="-3.0823616590">
        <ele>772.08</ele>
        <time>2020-09-06T15:49:37Z</time>
      </trkpt>
      <trkpt lat="37.5014074333" lon="-3.0822499283">
        <ele>771.11</ele>
        <time>2020-09-06T15:49:38Z</time>
      </trkpt>
      <trkpt lat="37.5013635959" lon="-3.0821429752">
        <ele>771.11</ele>
        <time>2020-09-06T15:49:39Z</time>
      </trkpt>
      <trkpt lat="37.5013128854" lon="-3.0820403807">
        <ele>770.63</ele>
        <time>2020-09-06T15:49:40Z</time>
      </trkpt>
      <trkpt lat="37.5012578163" lon="-3.0819427315">
        <ele>769.67</ele>
        <time>2020-09-06T15:49:41Z</time>
      </trkpt>
      <trkpt lat="37.5011441577" lon="-3.0817489419">
        <ele>768.71</ele>
        <time>2020-09-06T15:49:43Z</time>
      </trkpt>
      <trkpt lat="37.5009697303" lon="-3.0814641248">
        <ele>767.75</ele>
        <time>2020-09-06T15:49:46Z</time>
      </trkpt>
      <trkpt lat="37.5009004120" lon="-3.0813860893">
        <ele>767.75</ele>
        <time>2020-09-06T15:49:47Z</time>
      </trkpt>
      <trkpt lat="37.5008207839" lon="-3.0813235603">
        <ele>767.27</ele>
        <time>2020-09-06T15:49:48Z</time>
      </trkpt>
      <trkpt lat="37.5007276610" lon="-3.0812788010">
        <ele>766.31</ele>
        <time>2020-09-06T15:49:49Z</time>
      </trkpt>
      <trkpt lat="37.5006321911" lon="-3.0812598579">
        <ele>766.31</ele>
        <time>2020-09-06T15:49:50Z</time>
      </trkpt>
      <trkpt lat="37.5005342066" lon="-3.0812505540">
        <ele>766.31</ele>
        <time>2020-09-06T15:49:51Z</time>
      </trkpt>
      <trkpt lat="37.5004340429" lon="-3.0812314432">
        <ele>765.83</ele>
        <time>2020-09-06T15:49:52Z</time>
      </trkpt>
      <trkpt lat="37.5003400818" lon="-3.0811847560">
        <ele>764.87</ele>
        <time>2020-09-06T15:49:53Z</time>
      </trkpt>
      <trkpt lat="37.5002604537" lon="-3.0811068881">
        <ele>764.87</ele>
        <time>2020-09-06T15:49:54Z</time>
      </trkpt>
      <trkpt lat="37.5002007745" lon="-3.0810021982">
        <ele>763.90</ele>
        <time>2020-09-06T15:49:55Z</time>
      </trkpt>
      <trkpt lat="37.5001587812" lon="-3.0808757152">
        <ele>763.90</ele>
        <time>2020-09-06T15:49:56Z</time>
      </trkpt>
      <trkpt lat="37.5001354795" lon="-3.0807481427">
        <ele>763.42</ele>
        <time>2020-09-06T15:49:57Z</time>
      </trkpt>
      <trkpt lat="37.5001218170" lon="-3.0806186423">
        <ele>763.42</ele>
        <time>2020-09-06T15:49:58Z</time>
      </trkpt>
      <trkpt lat="37.5000426918" lon="-3.0796804558">
        <ele>762.46</ele>
        <time>2020-09-06T15:50:06Z</time>
      </trkpt>
      <trkpt lat="37.5000148639" lon="-3.0795825552">
        <ele>762.46</ele>
        <time>2020-09-06T15:50:07Z</time>
      </trkpt>
      <trkpt lat="37.4997108523" lon="-3.0786710232">
        <ele>764.87</ele>
        <time>2020-09-06T15:50:19Z</time>
      </trkpt>
      <trkpt lat="37.4994498398" lon="-3.0778858904">
        <ele>765.83</ele>
        <time>2020-09-06T15:50:32Z</time>
      </trkpt>
      <trkpt lat="37.4991124682" lon="-3.0768843368">
        <ele>767.75</ele>
        <time>2020-09-06T15:50:50Z</time>
      </trkpt>
      <trkpt lat="37.4987606797" lon="-3.0759544484">
        <ele>769.67</ele>
        <time>2020-09-06T15:51:06Z</time>
      </trkpt>
      <trkpt lat="37.4987237155" lon="-3.0759049114">
        <ele>769.67</ele>
        <time>2020-09-06T15:51:07Z</time>
      </trkpt>
      <trkpt lat="37.4986865837" lon="-3.0758622475">
        <ele>769.67</ele>
        <time>2020-09-06T15:51:08Z</time>
      </trkpt>
      <trkpt lat="37.4986447580" lon="-3.0758208409">
        <ele>769.67</ele>
        <time>2020-09-06T15:51:09Z</time>
      </trkpt>
      <trkpt lat="37.4985987414" lon="-3.0757750757">
        <ele>769.67</ele>
        <time>2020-09-06T15:51:10Z</time>
      </trkpt>
      <trkpt lat="37.4977368303" lon="-3.0749521405">
        <ele>770.15</ele>
        <time>2020-09-06T15:51:28Z</time>
      </trkpt>
      <trkpt lat="37.4971721414" lon="-3.0744131841">
        <ele>771.11</ele>
        <time>2020-09-06T15:51:40Z</time>
      </trkpt>
      <trkpt lat="37.4964913633" lon="-3.0737608206">
        <ele>773.52</ele>
        <time>2020-09-06T15:51:56Z</time>
      </trkpt>
      <trkpt lat="37.4957072362" lon="-3.0730035156">
        <ele>775.44</ele>
        <time>2020-09-06T15:52:15Z</time>
      </trkpt>
      <trkpt lat="37.4948884919" lon="-3.0724140164">
        <ele>776.40</ele>
        <time>2020-09-06T15:52:32Z</time>
      </trkpt>
      <trkpt lat="37.4940825719" lon="-3.0718304683">
        <ele>777.36</ele>
        <time>2020-09-06T15:52:49Z</time>
      </trkpt>
      <trkpt lat="37.4940413330" lon="-3.0717873853">
        <ele>777.36</ele>
        <time>2020-09-06T15:52:50Z</time>
      </trkpt>
      <trkpt lat="37.4940004293" lon="-3.0717386864">
        <ele>777.84</ele>
        <time>2020-09-06T15:52:51Z</time>
      </trkpt>
      <trkpt lat="37.4931861274" lon="-3.0706985760">
        <ele>779.29</ele>
        <time>2020-09-06T15:53:10Z</time>
      </trkpt>
      <trkpt lat="37.4924942013" lon="-3.0698140338">
        <ele>781.21</ele>
        <time>2020-09-06T15:53:26Z</time>
      </trkpt>
      <trkpt lat="37.4917741958" lon="-3.0688889232">
        <ele>781.21</ele>
        <time>2020-09-06T15:53:41Z</time>
      </trkpt>
      <trkpt lat="37.4910166394" lon="-3.0679336376">
        <ele>781.69</ele>
        <time>2020-09-06T15:53:57Z</time>
      </trkpt>
      <trkpt lat="37.4902787805" lon="-3.0670018215">
        <ele>782.65</ele>
        <time>2020-09-06T15:54:13Z</time>
      </trkpt>
      <trkpt lat="37.4895068910" lon="-3.0660292692">
        <ele>785.53</ele>
        <time>2020-09-06T15:54:31Z</time>
      </trkpt>
      <trkpt lat="37.4888919946" lon="-3.0653922446">
        <ele>787.46</ele>
        <time>2020-09-06T15:54:45Z</time>
      </trkpt>
      <trkpt lat="37.4879025947" lon="-3.0644914415">
        <ele>789.38</ele>
        <time>2020-09-06T15:55:06Z</time>
      </trkpt>
      <trkpt lat="37.4869792443" lon="-3.0636554305">
        <ele>792.26</ele>
        <time>2020-09-06T15:55:24Z</time>
      </trkpt>
      <trkpt lat="37.4861648586" lon="-3.0629057530">
        <ele>794.19</ele>
        <time>2020-09-06T15:55:41Z</time>
      </trkpt>
      <trkpt lat="37.4860796984" lon="-3.0627943575">
        <ele>795.63</ele>
        <time>2020-09-06T15:55:43Z</time>
      </trkpt>
      <trkpt lat="37.4859759305" lon="-3.0626041722">
        <ele>795.63</ele>
        <time>2020-09-06T15:55:46Z</time>
      </trkpt>
      <trkpt lat="37.4858617689" lon="-3.0623413995">
        <ele>796.59</ele>
        <time>2020-09-06T15:55:50Z</time>
      </trkpt>
      <trkpt lat="37.4858030118" lon="-3.0622044392">
        <ele>795.63</ele>
        <time>2020-09-06T15:55:52Z</time>
      </trkpt>
      <trkpt lat="37.4852971639" lon="-3.0611827690">
        <ele>797.07</ele>
        <time>2020-09-06T15:56:08Z</time>
      </trkpt>
      <trkpt lat="37.4846565351" lon="-3.0604006536">
        <ele>799.47</ele>
        <time>2020-09-06T15:56:23Z</time>
      </trkpt>
      <trkpt lat="37.4839457497" lon="-3.0595637206">
        <ele>801.40</ele>
        <time>2020-09-06T15:56:39Z</time>
      </trkpt>
      <trkpt lat="37.4837210309" lon="-3.0592875369">
        <ele>799.95</ele>
        <time>2020-09-06T15:56:44Z</time>
      </trkpt>
      <trkpt lat="37.4836837314" lon="-3.0592413526">
        <ele>803.80</ele>
        <time>2020-09-06T15:56:45Z</time>
      </trkpt>
      <trkpt lat="37.4836426601" lon="-3.0591875408">
        <ele>802.36</ele>
        <time>2020-09-06T15:56:46Z</time>
      </trkpt>
      <trkpt lat="37.4833184481" lon="-3.0587307271">
        <ele>803.80</ele>
        <time>2020-09-06T15:56:54Z</time>
      </trkpt>
      <trkpt lat="37.4827885441" lon="-3.0578433350">
        <ele>804.76</ele>
        <time>2020-09-06T15:57:09Z</time>
      </trkpt>
      <trkpt lat="37.4823015556" lon="-3.0569882132">
        <ele>806.20</ele>
        <time>2020-09-06T15:57:25Z</time>
      </trkpt>
      <trkpt lat="37.4817604199" lon="-3.0560563970">
        <ele>807.64</ele>
        <time>2020-09-06T15:57:42Z</time>
      </trkpt>
      <trkpt lat="37.4813978188" lon="-3.0554668140">
        <ele>809.09</ele>
        <time>2020-09-06T15:57:53Z</time>
      </trkpt>
      <trkpt lat="37.4808683340" lon="-3.0545797572">
        <ele>811.01</ele>
        <time>2020-09-06T15:58:11Z</time>
      </trkpt>
      <trkpt lat="37.4804323073" lon="-3.0538443290">
        <ele>812.45</ele>
        <time>2020-09-06T15:58:27Z</time>
      </trkpt>
      <trkpt lat="37.4804073293" lon="-3.0537988152">
        <ele>812.45</ele>
        <time>2020-09-06T15:58:28Z</time>
      </trkpt>
      <trkpt lat="37.4799853843" lon="-3.0530915502">
        <ele>814.37</ele>
        <time>2020-09-06T15:58:44Z</time>
      </trkpt>
      <trkpt lat="37.4795878306" lon="-3.0524314754">
        <ele>817.26</ele>
        <time>2020-09-06T15:58:59Z</time>
      </trkpt>
      <trkpt lat="37.4795674626" lon="-3.0523833632">
        <ele>816.78</ele>
        <time>2020-09-06T15:59:00Z</time>
      </trkpt>
      <trkpt lat="37.4794459250" lon="-3.0519686267">
        <ele>818.22</ele>
        <time>2020-09-06T15:59:08Z</time>
      </trkpt>
      <trkpt lat="37.4793139100" lon="-3.0510542449">
        <ele>819.66</ele>
        <time>2020-09-06T15:59:24Z</time>
      </trkpt>
      <trkpt lat="37.4791795481" lon="-3.0501482449">
        <ele>822.55</ele>
        <time>2020-09-06T15:59:40Z</time>
      </trkpt>
      <trkpt lat="37.4790388998" lon="-3.0492092203">
        <ele>824.47</ele>
        <time>2020-09-06T15:59:57Z</time>
      </trkpt>
      <trkpt lat="37.4789767060" lon="-3.0487829167">
        <ele>825.91</ele>
        <time>2020-09-06T16:00:05Z</time>
      </trkpt>
      <trkpt lat="37.4788567610" lon="-3.0480366759">
        <ele>828.79</ele>
        <time>2020-09-06T16:00:20Z</time>
      </trkpt>
      <trkpt lat="37.4787508138" lon="-3.0473279860">
        <ele>830.72</ele>
        <time>2020-09-06T16:00:36Z</time>
      </trkpt>
      <trkpt lat="37.4786849320" lon="-3.0468725134">
        <ele>833.60</ele>
        <time>2020-09-06T16:00:46Z</time>
      </trkpt>
      <trkpt lat="37.4785708543" lon="-3.0461552739">
        <ele>836.00</ele>
        <time>2020-09-06T16:01:02Z</time>
      </trkpt>
      <trkpt lat="37.4784691818" lon="-3.0454848893">
        <ele>839.37</ele>
        <time>2020-09-06T16:01:17Z</time>
      </trkpt>
      <trkpt lat="37.4785210658" lon="-3.0448310170">
        <ele>842.73</ele>
        <time>2020-09-06T16:01:32Z</time>
      </trkpt>
      <trkpt lat="37.4786725268" lon="-3.0442985985">
        <ele>845.14</ele>
        <time>2020-09-06T16:01:45Z</time>
      </trkpt>
      <trkpt lat="37.4789985828" lon="-3.0439302139">
        <ele>847.06</ele>
        <time>2020-09-06T16:01:58Z</time>
      </trkpt>
      <trkpt lat="37.4791712500" lon="-3.0434123799">
        <ele>848.98</ele>
        <time>2020-09-06T16:02:11Z</time>
      </trkpt>
      <trkpt lat="37.4791193660" lon="-3.0428483617">
        <ele>850.90</ele>
        <time>2020-09-06T16:02:24Z</time>
      </trkpt>
      <trkpt lat="37.4790527299" lon="-3.0425277539">
        <ele>851.87</ele>
        <time>2020-09-06T16:02:32Z</time>
      </trkpt>
      <trkpt lat="37.4790100660" lon="-3.0424090661">
        <ele>851.87</ele>
        <time>2020-09-06T16:02:38Z</time>
      </trkpt>
      <trkpt lat="37.4790145084" lon="-3.0423909612">
        <ele>851.87</ele>
        <time>2020-09-06T16:02:39Z</time>
      </trkpt>
      <trkpt lat="37.4790436774" lon="-3.0423937272">
        <ele>851.87</ele>
        <time>2020-09-06T16:02:49Z</time>
      </trkpt>
      <trkpt lat="37.4790419172" lon="-3.0423928890">
        <ele>847.54</ele>
        <time>2020-09-06T16:02:50Z</time>
      </trkpt>
      <trkpt lat="37.4790256564" lon="-3.0423688330">
        <ele>852.83</ele>
        <time>2020-09-06T16:43:47Z</time>
      </trkpt>
      <trkpt lat="37.4788626283" lon="-3.0421953276">
        <ele>851.87</ele>
        <time>2020-09-06T16:44:01Z</time>
      </trkpt>
      <trkpt lat="37.4787902087" lon="-3.0421380792">
        <ele>851.87</ele>
        <time>2020-09-06T16:44:04Z</time>
      </trkpt>
      <trkpt lat="37.4787669908" lon="-3.0421355646">
        <ele>851.87</ele>
        <time>2020-09-06T16:44:05Z</time>
      </trkpt>
      <trkpt lat="37.4787474610" lon="-3.0421418510">
        <ele>851.87</ele>
        <time>2020-09-06T16:44:06Z</time>
      </trkpt>
      <trkpt lat="37.4787281826" lon="-3.0421581119">
        <ele>851.87</ele>
        <time>2020-09-06T16:44:07Z</time>
      </trkpt>
      <trkpt lat="37.4787100777" lon="-3.0421778094">
        <ele>851.38</ele>
        <time>2020-09-06T16:44:08Z</time>
      </trkpt>
      <trkpt lat="37.4783750530" lon="-3.0423037894">
        <ele>852.35</ele>
        <time>2020-09-06T16:44:21Z</time>
      </trkpt>
      <trkpt lat="37.4783608038" lon="-3.0423237383">
        <ele>852.35</ele>
        <time>2020-09-06T16:44:22Z</time>
      </trkpt>
      <trkpt lat="37.4781884719" lon="-3.0426787119">
        <ele>855.23</ele>
        <time>2020-09-06T16:44:38Z</time>
      </trkpt>
      <trkpt lat="37.4779902399" lon="-3.0428373814">
        <ele>858.11</ele>
        <time>2020-09-06T16:44:53Z</time>
      </trkpt>
      <trkpt lat="37.4776644353" lon="-3.0428585038">
        <ele>859.08</ele>
        <time>2020-09-06T16:45:09Z</time>
      </trkpt>
      <trkpt lat="37.4774365313" lon="-3.0428007524">
        <ele>857.63</ele>
        <time>2020-09-06T16:45:17Z</time>
      </trkpt>
      <trkpt lat="37.4773863237" lon="-3.0427312665">
        <ele>856.67</ele>
        <time>2020-09-06T16:45:19Z</time>
      </trkpt>
      <trkpt lat="37.4773627706" lon="-3.0426834058">
        <ele>856.19</ele>
        <time>2020-09-06T16:45:20Z</time>
      </trkpt>
      <trkpt lat="37.4773421511" lon="-3.0426269956">
        <ele>856.19</ele>
        <time>2020-09-06T16:45:21Z</time>
      </trkpt>
      <trkpt lat="37.4773200229" lon="-3.0425679870">
        <ele>856.19</ele>
        <time>2020-09-06T16:45:22Z</time>
      </trkpt>
      <trkpt lat="37.4772957154" lon="-3.0425114091">
        <ele>855.23</ele>
        <time>2020-09-06T16:45:23Z</time>
      </trkpt>
      <trkpt lat="37.4772736710" lon="-3.0424495507">
        <ele>855.23</ele>
        <time>2020-09-06T16:45:24Z</time>
      </trkpt>
      <trkpt lat="37.4772505369" lon="-3.0423842557">
        <ele>854.75</ele>
        <time>2020-09-06T16:45:25Z</time>
      </trkpt>
      <trkpt lat="37.4771086313" lon="-3.0419967603">
        <ele>853.79</ele>
        <time>2020-09-06T16:45:31Z</time>
      </trkpt>
      <trkpt lat="37.4770391453" lon="-3.0416272860">
        <ele>853.79</ele>
        <time>2020-09-06T16:45:37Z</time>
      </trkpt>
      <trkpt lat="37.4770165980" lon="-3.0415667687">
        <ele>853.79</ele>
        <time>2020-09-06T16:45:38Z</time>
      </trkpt>
      <trkpt lat="37.4769408256" lon="-3.0414391123">
        <ele>853.79</ele>
        <time>2020-09-06T16:45:41Z</time>
      </trkpt>
      <trkpt lat="37.4769060407" lon="-3.0413956940">
        <ele>853.79</ele>
        <time>2020-09-06T16:45:42Z</time>
      </trkpt>
      <trkpt lat="37.4768655561" lon="-3.0413551256">
        <ele>853.79</ele>
        <time>2020-09-06T16:45:43Z</time>
      </trkpt>
      <trkpt lat="37.4768214673" lon="-3.0413257889">
        <ele>853.79</ele>
        <time>2020-09-06T16:45:44Z</time>
      </trkpt>
      <trkpt lat="37.4767762050" lon="-3.0413018167">
        <ele>853.79</ele>
        <time>2020-09-06T16:45:45Z</time>
      </trkpt>
      <trkpt lat="37.4767312780" lon="-3.0412834603">
        <ele>853.79</ele>
        <time>2020-09-06T16:45:46Z</time>
      </trkpt>
      <trkpt lat="37.4766872730" lon="-3.0412693787">
        <ele>853.79</ele>
        <time>2020-09-06T16:45:47Z</time>
      </trkpt>
      <trkpt lat="37.4765079841" lon="-3.0412133038">
        <ele>855.71</ele>
        <time>2020-09-06T16:45:53Z</time>
      </trkpt>
      <trkpt lat="37.4764961656" lon="-3.0412217695">
        <ele>855.71</ele>
        <time>2020-09-06T16:45:54Z</time>
      </trkpt>
      <trkpt lat="37.4764851015" lon="-3.0412315764">
        <ele>855.71</ele>
        <time>2020-09-06T16:45:55Z</time>
      </trkpt>
      <trkpt lat="37.4764724448" lon="-3.0412391201">
        <ele>855.71</ele>
        <time>2020-09-06T16:45:56Z</time>
      </trkpt>
      <trkpt lat="37.4763110094" lon="-3.0412803590">
        <ele>857.63</ele>
        <time>2020-09-06T16:46:07Z</time>
      </trkpt>
      <trkpt lat="37.4761213269" lon="-3.0412140582">
        <ele>861.00</ele>
        <time>2020-09-06T16:46:18Z</time>
      </trkpt>
      <trkpt lat="37.4759473186" lon="-3.0409960449">
        <ele>862.92</ele>
        <time>2020-09-06T16:46:32Z</time>
      </trkpt>
      <trkpt lat="37.4757822789" lon="-3.0406684801">
        <ele>865.32</ele>
        <time>2020-09-06T16:46:50Z</time>
      </trkpt>
      <trkpt lat="37.4757635035" lon="-3.0404341221">
        <ele>867.73</ele>
        <time>2020-09-06T16:47:02Z</time>
      </trkpt>
      <trkpt lat="37.4758011382" lon="-3.0402134266">
        <ele>871.09</ele>
        <time>2020-09-06T16:47:14Z</time>
      </trkpt>
      <trkpt lat="37.4758580513" lon="-3.0400039628">
        <ele>873.50</ele>
        <time>2020-09-06T16:47:26Z</time>
      </trkpt>
      <trkpt lat="37.4758572970" lon="-3.0399877857">
        <ele>873.50</ele>
        <time>2020-09-06T16:47:27Z</time>
      </trkpt>
      <trkpt lat="37.4758567102" lon="-3.0399708543">
        <ele>873.98</ele>
        <time>2020-09-06T16:47:28Z</time>
      </trkpt>
      <trkpt lat="37.4758562911" lon="-3.0399509054">
        <ele>873.98</ele>
        <time>2020-09-06T16:47:29Z</time>
      </trkpt>
      <trkpt lat="37.4758531898" lon="-3.0399332196">
        <ele>874.46</ele>
        <time>2020-09-06T16:47:30Z</time>
      </trkpt>
      <trkpt lat="37.4758464005" lon="-3.0399161205">
        <ele>874.46</ele>
        <time>2020-09-06T16:47:31Z</time>
      </trkpt>
      <trkpt lat="37.4758344982" lon="-3.0399019551">
        <ele>874.46</ele>
        <time>2020-09-06T16:47:32Z</time>
      </trkpt>
      <trkpt lat="37.4758196622" lon="-3.0398929864">
        <ele>874.94</ele>
        <time>2020-09-06T16:47:33Z</time>
      </trkpt>
      <trkpt lat="37.4758043233" lon="-3.0398851912">
        <ele>874.94</ele>
        <time>2020-09-06T16:47:34Z</time>
      </trkpt>
      <trkpt lat="37.4757874757" lon="-3.0398796592">
        <ele>875.42</ele>
        <time>2020-09-06T16:47:35Z</time>
      </trkpt>
      <trkpt lat="37.4757722206" lon="-3.0398825090">
        <ele>875.90</ele>
        <time>2020-09-06T16:47:36Z</time>
      </trkpt>
      <trkpt lat="37.4757550377" lon="-3.0398841854">
        <ele>875.90</ele>
        <time>2020-09-06T16:47:37Z</time>
      </trkpt>
      <trkpt lat="37.4757405370" lon="-3.0398877058">
        <ele>876.38</ele>
        <time>2020-09-06T16:47:38Z</time>
      </trkpt>
      <trkpt lat="37.4757257849" lon="-3.0398965906">
        <ele>876.38</ele>
        <time>2020-09-06T16:47:39Z</time>
      </trkpt>
      <trkpt lat="37.4756792653" lon="-3.0399130192">
        <ele>876.86</ele>
        <time>2020-09-06T16:47:42Z</time>
      </trkpt>
      <trkpt lat="37.4756634235" lon="-3.0399229936">
        <ele>877.82</ele>
        <time>2020-09-06T16:47:43Z</time>
      </trkpt>
      <trkpt lat="37.4754257966" lon="-3.0401882809">
        <ele>879.26</ele>
        <time>2020-09-06T16:47:59Z</time>
      </trkpt>
      <trkpt lat="37.4753026664" lon="-3.0402877741">
        <ele>880.71</ele>
        <time>2020-09-06T16:48:07Z</time>
      </trkpt>
      <trkpt lat="37.4752769340" lon="-3.0402678251">
        <ele>880.71</ele>
        <time>2020-09-06T16:48:09Z</time>
      </trkpt>
      <trkpt lat="37.4752691388" lon="-3.0402285140">
        <ele>881.67</ele>
        <time>2020-09-06T16:48:11Z</time>
      </trkpt>
      <trkpt lat="37.4752643611" lon="-3.0400309525">
        <ele>884.55</ele>
        <time>2020-09-06T16:48:22Z</time>
      </trkpt>
      <trkpt lat="37.4752870761" lon="-3.0397968460">
        <ele>887.91</ele>
        <time>2020-09-06T16:48:36Z</time>
      </trkpt>
      <trkpt lat="37.4754475057" lon="-3.0396509171">
        <ele>891.28</ele>
        <time>2020-09-06T16:48:50Z</time>
      </trkpt>
      <trkpt lat="37.4756400380" lon="-3.0395171419">
        <ele>894.16</ele>
        <time>2020-09-06T16:49:05Z</time>
      </trkpt>
      <trkpt lat="37.4756858870" lon="-3.0394752324">
        <ele>895.12</ele>
        <time>2020-09-06T16:49:09Z</time>
      </trkpt>
      <trkpt lat="37.4756987952" lon="-3.0394658446">
        <ele>895.12</ele>
        <time>2020-09-06T16:49:10Z</time>
      </trkpt>
      <trkpt lat="37.4757116195" lon="-3.0394587200">
        <ele>895.12</ele>
        <time>2020-09-06T16:49:11Z</time>
      </trkpt>
      <trkpt lat="37.4757244438" lon="-3.0394538585">
        <ele>895.61</ele>
        <time>2020-09-06T16:49:12Z</time>
      </trkpt>
      <trkpt lat="37.4757371005" lon="-3.0394471530">
        <ele>895.61</ele>
        <time>2020-09-06T16:49:13Z</time>
      </trkpt>
      <trkpt lat="37.4757484160" lon="-3.0394376814">
        <ele>896.09</ele>
        <time>2020-09-06T16:49:14Z</time>
      </trkpt>
      <trkpt lat="37.4757588934" lon="-3.0394280422">
        <ele>896.09</ele>
        <time>2020-09-06T16:49:15Z</time>
      </trkpt>
      <trkpt lat="37.4757699575" lon="-3.0394199956">
        <ele>896.57</ele>
        <time>2020-09-06T16:49:16Z</time>
      </trkpt>
      <trkpt lat="37.4757820275" lon="-3.0394101050">
        <ele>896.57</ele>
        <time>2020-09-06T16:49:17Z</time>
      </trkpt>
      <trkpt lat="37.4757923372" lon="-3.0393971968">
        <ele>896.57</ele>
        <time>2020-09-06T16:49:18Z</time>
      </trkpt>
      <trkpt lat="37.4758012220" lon="-3.0393831152">
        <ele>897.05</ele>
        <time>2020-09-06T16:49:19Z</time>
      </trkpt>
      <trkpt lat="37.4758124538" lon="-3.0393743142">
        <ele>897.53</ele>
        <time>2020-09-06T16:49:20Z</time>
      </trkpt>
      <trkpt lat="37.4758235179" lon="-3.0393637531">
        <ele>897.53</ele>
        <time>2020-09-06T16:49:21Z</time>
      </trkpt>
      <trkpt lat="37.4758325703" lon="-3.0393508449">
        <ele>897.53</ele>
        <time>2020-09-06T16:49:22Z</time>
      </trkpt>
      <trkpt lat="37.4758401979" lon="-3.0393355899">
        <ele>898.01</ele>
        <time>2020-09-06T16:49:23Z</time>
      </trkpt>
      <trkpt lat="37.4758480769" lon="-3.0393192451">
        <ele>898.01</ele>
        <time>2020-09-06T16:49:24Z</time>
      </trkpt>
      <trkpt lat="37.4758549500" lon="-3.0393024813">
        <ele>898.49</ele>
        <time>2020-09-06T16:49:25Z</time>
      </trkpt>
      <trkpt lat="37.4758652598" lon="-3.0392890703">
        <ele>898.49</ele>
        <time>2020-09-06T16:49:26Z</time>
      </trkpt>
      <trkpt lat="37.4758759886" lon="-3.0392759945">
        <ele>898.97</ele>
        <time>2020-09-06T16:49:27Z</time>
      </trkpt>
      <trkpt lat="37.4758832809" lon="-3.0392603204">
        <ele>898.97</ele>
        <time>2020-09-06T16:49:28Z</time>
      </trkpt>
      <trkpt lat="37.4758888967" lon="-3.0392424669">
        <ele>899.45</ele>
        <time>2020-09-06T16:49:29Z</time>
      </trkpt>
      <trkpt lat="37.4758914951" lon="-3.0392244458">
        <ele>899.45</ele>
        <time>2020-09-06T16:49:30Z</time>
      </trkpt>
      <trkpt lat="37.4758935068" lon="-3.0392059218">
        <ele>899.93</ele>
        <time>2020-09-06T16:49:31Z</time>
      </trkpt>
      <trkpt lat="37.4758963566" lon="-3.0391874816">
        <ele>900.41</ele>
        <time>2020-09-06T16:49:32Z</time>
      </trkpt>
      <trkpt lat="37.4758736417" lon="-3.0391135532">
        <ele>900.89</ele>
        <time>2020-09-06T16:49:36Z</time>
      </trkpt>
      <trkpt lat="37.4758583028" lon="-3.0391079374">
        <ele>900.89</ele>
        <time>2020-09-06T16:49:37Z</time>
      </trkpt>
      <trkpt lat="37.4758418743" lon="-3.0391090270">
        <ele>901.85</ele>
        <time>2020-09-06T16:49:38Z</time>
      </trkpt>
      <trkpt lat="37.4758275412" lon="-3.0391195044">
        <ele>901.85</ele>
        <time>2020-09-06T16:49:39Z</time>
      </trkpt>
      <trkpt lat="37.4758163095" lon="-3.0391366035">
        <ele>901.85</ele>
        <time>2020-09-06T16:49:40Z</time>
      </trkpt>
      <trkpt lat="37.4758071732" lon="-3.0391526129">
        <ele>901.85</ele>
        <time>2020-09-06T16:49:41Z</time>
      </trkpt>
      <trkpt lat="37.4757894874" lon="-3.0391901638">
        <ele>902.33</ele>
        <time>2020-09-06T16:49:43Z</time>
      </trkpt>
      <trkpt lat="37.4757785071" lon="-3.0392040778">
        <ele>902.33</ele>
        <time>2020-09-06T16:49:44Z</time>
      </trkpt>
      <trkpt lat="37.4757681135" lon="-3.0392175727">
        <ele>902.33</ele>
        <time>2020-09-06T16:49:45Z</time>
      </trkpt>
      <trkpt lat="37.4757564627" lon="-3.0392302293">
        <ele>903.30</ele>
        <time>2020-09-06T16:49:46Z</time>
      </trkpt>
      <trkpt lat="37.4757446442" lon="-3.0392417964">
        <ele>903.30</ele>
        <time>2020-09-06T16:49:47Z</time>
      </trkpt>
      <trkpt lat="37.4755894952" lon="-3.0392737314">
        <ele>904.74</ele>
        <time>2020-09-06T16:49:57Z</time>
      </trkpt>
      <trkpt lat="37.4755744077" lon="-3.0392702110">
        <ele>904.74</ele>
        <time>2020-09-06T16:49:58Z</time>
      </trkpt>
      <trkpt lat="37.4755598232" lon="-3.0392698757">
        <ele>905.22</ele>
        <time>2020-09-06T16:49:59Z</time>
      </trkpt>
      <trkpt lat="37.4755453225" lon="-3.0392697081">
        <ele>905.22</ele>
        <time>2020-09-06T16:50:00Z</time>
      </trkpt>
      <trkpt lat="37.4755302351" lon="-3.0392641760">
        <ele>905.70</ele>
        <time>2020-09-06T16:50:01Z</time>
      </trkpt>
      <trkpt lat="37.4755180813" lon="-3.0392532796">
        <ele>905.70</ele>
        <time>2020-09-06T16:50:02Z</time>
      </trkpt>
      <trkpt lat="37.4755105376" lon="-3.0392403714">
        <ele>905.70</ele>
        <time>2020-09-06T16:50:03Z</time>
      </trkpt>
      <trkpt lat="37.4755028263" lon="-3.0392276309">
        <ele>906.66</ele>
        <time>2020-09-06T16:50:04Z</time>
      </trkpt>
      <trkpt lat="37.4754945282" lon="-3.0392147228">
        <ele>906.66</ele>
        <time>2020-09-06T16:50:05Z</time>
      </trkpt>
      <trkpt lat="37.4754311610" lon="-3.0390405469">
        <ele>909.06</ele>
        <time>2020-09-06T16:50:16Z</time>
      </trkpt>
      <trkpt lat="37.4753989745" lon="-3.0389503576">
        <ele>910.51</ele>
        <time>2020-09-06T16:50:22Z</time>
      </trkpt>
      <trkpt lat="37.4753893353" lon="-3.0389384553">
        <ele>910.99</ele>
        <time>2020-09-06T16:50:23Z</time>
      </trkpt>
      <trkpt lat="37.4753822107" lon="-3.0389246251">
        <ele>910.99</ele>
        <time>2020-09-06T16:50:24Z</time>
      </trkpt>
      <trkpt lat="37.4753774330" lon="-3.0389074422">
        <ele>910.99</ele>
        <time>2020-09-06T16:50:25Z</time>
      </trkpt>
      <trkpt lat="37.4753747508" lon="-3.0388920195">
        <ele>911.47</ele>
        <time>2020-09-06T16:50:26Z</time>
      </trkpt>
      <trkpt lat="37.4753731582" lon="-3.0388767645">
        <ele>911.47</ele>
        <time>2020-09-06T16:50:27Z</time>
      </trkpt>
      <trkpt lat="37.4753700569" lon="-3.0388609227">
        <ele>911.95</ele>
        <time>2020-09-06T16:50:28Z</time>
      </trkpt>
      <trkpt lat="37.4753703922" lon="-3.0388438236">
        <ele>911.95</ele>
        <time>2020-09-06T16:50:29Z</time>
      </trkpt>
      <trkpt lat="37.4753694702" lon="-3.0388278142">
        <ele>911.95</ele>
        <time>2020-09-06T16:50:30Z</time>
      </trkpt>
      <trkpt lat="37.4753688835" lon="-3.0388110504">
        <ele>912.91</ele>
        <time>2020-09-06T16:50:31Z</time>
      </trkpt>
      <trkpt lat="37.4753698055" lon="-3.0387960467">
        <ele>912.91</ele>
        <time>2020-09-06T16:50:32Z</time>
      </trkpt>
      <trkpt lat="37.4753733259" lon="-3.0387818813">
        <ele>913.39</ele>
        <time>2020-09-06T16:50:33Z</time>
      </trkpt>
      <trkpt lat="37.4753755890" lon="-3.0387672968">
        <ele>913.87</ele>
        <time>2020-09-06T16:50:34Z</time>
      </trkpt>
      <trkpt lat="37.4753851444" lon="-3.0385808833">
        <ele>916.75</ele>
        <time>2020-09-06T16:50:45Z</time>
      </trkpt>
      <trkpt lat="37.4753835518" lon="-3.0385650415">
        <ele>916.75</ele>
        <time>2020-09-06T16:50:46Z</time>
      </trkpt>
      <trkpt lat="37.4753831327" lon="-3.0385505408">
        <ele>917.24</ele>
        <time>2020-09-06T16:50:47Z</time>
      </trkpt>
      <trkpt lat="37.4753829651" lon="-3.0383689050">
        <ele>919.64</ele>
        <time>2020-09-06T16:50:58Z</time>
      </trkpt>
      <trkpt lat="37.4753784388" lon="-3.0383350421">
        <ele>920.12</ele>
        <time>2020-09-06T16:51:00Z</time>
      </trkpt>
      <trkpt lat="37.4753860664" lon="-3.0382737704">
        <ele>921.08</ele>
        <time>2020-09-06T16:51:04Z</time>
      </trkpt>
      <trkpt lat="37.4753834680" lon="-3.0382572580">
        <ele>921.08</ele>
        <time>2020-09-06T16:51:05Z</time>
      </trkpt>
      <trkpt lat="37.4753776845" lon="-3.0382409971">
        <ele>921.56</ele>
        <time>2020-09-06T16:51:06Z</time>
      </trkpt>
      <trkpt lat="37.4753759243" lon="-3.0382244010">
        <ele>921.56</ele>
        <time>2020-09-06T16:51:07Z</time>
      </trkpt>
      <trkpt lat="37.4753791094" lon="-3.0382089783">
        <ele>921.56</ele>
        <time>2020-09-06T16:51:08Z</time>
      </trkpt>
      <trkpt lat="37.4753851444" lon="-3.0381921306">
        <ele>922.04</ele>
        <time>2020-09-06T16:51:09Z</time>
      </trkpt>
      <trkpt lat="37.4753914308" lon="-3.0381781328">
        <ele>922.04</ele>
        <time>2020-09-06T16:51:10Z</time>
      </trkpt>
      <trkpt lat="37.4753926042" lon="-3.0381631292">
        <ele>922.52</ele>
        <time>2020-09-06T16:51:11Z</time>
      </trkpt>
      <trkpt lat="37.4753890838" lon="-3.0381458625">
        <ele>922.52</ele>
        <time>2020-09-06T16:51:12Z</time>
      </trkpt>
      <trkpt lat="37.4753870722" lon="-3.0381291825">
        <ele>923.00</ele>
        <time>2020-09-06T16:51:13Z</time>
      </trkpt>
      <trkpt lat="37.4753898382" lon="-3.0381135084">
        <ele>923.00</ele>
        <time>2020-09-06T16:51:14Z</time>
      </trkpt>
      <trkpt lat="37.4753941130" lon="-3.0380975828">
        <ele>923.96</ele>
        <time>2020-09-06T16:51:15Z</time>
      </trkpt>
      <trkpt lat="37.4754159059" lon="-3.0378841795">
        <ele>926.85</ele>
        <time>2020-09-06T16:51:28Z</time>
      </trkpt>
      <trkpt lat="37.4754172470" lon="-3.0378504843">
        <ele>926.85</ele>
        <time>2020-09-06T16:51:30Z</time>
      </trkpt>
      <trkpt lat="37.4754444882" lon="-3.0376875401">
        <ele>929.73</ele>
        <time>2020-09-06T16:51:40Z</time>
      </trkpt>
      <trkpt lat="37.4754495174" lon="-3.0376731232">
        <ele>929.73</ele>
        <time>2020-09-06T16:51:41Z</time>
      </trkpt>
      <trkpt lat="37.4755005632" lon="-3.0375044793">
        <ele>933.10</ele>
        <time>2020-09-06T16:51:52Z</time>
      </trkpt>
      <trkpt lat="37.4755258765" lon="-3.0372697022">
        <ele>935.98</ele>
        <time>2020-09-06T16:52:06Z</time>
      </trkpt>
      <trkpt lat="37.4755235296" lon="-3.0372141302">
        <ele>936.46</ele>
        <time>2020-09-06T16:52:09Z</time>
      </trkpt>
      <trkpt lat="37.4755304027" lon="-3.0371977855">
        <ele>936.94</ele>
        <time>2020-09-06T16:52:10Z</time>
      </trkpt>
      <trkpt lat="37.4755389523" lon="-3.0371856317">
        <ele>936.94</ele>
        <time>2020-09-06T16:52:11Z</time>
      </trkpt>
      <trkpt lat="37.4755504355" lon="-3.0371743161">
        <ele>936.94</ele>
        <time>2020-09-06T16:52:12Z</time>
      </trkpt>
      <trkpt lat="37.4755633436" lon="-3.0371614918">
        <ele>937.42</ele>
        <time>2020-09-06T16:52:13Z</time>
      </trkpt>
      <trkpt lat="37.4755761679" lon="-3.0371484999">
        <ele>937.42</ele>
        <time>2020-09-06T16:52:14Z</time>
      </trkpt>
      <trkpt lat="37.4755890761" lon="-3.0371354241">
        <ele>937.90</ele>
        <time>2020-09-06T16:52:15Z</time>
      </trkpt>
      <trkpt lat="37.4756011460" lon="-3.0371241085">
        <ele>937.90</ele>
        <time>2020-09-06T16:52:16Z</time>
      </trkpt>
      <trkpt lat="37.4756109528" lon="-3.0371103622">
        <ele>937.90</ele>
        <time>2020-09-06T16:52:17Z</time>
      </trkpt>
      <trkpt lat="37.4756238610" lon="-3.0370966159">
        <ele>937.90</ele>
        <time>2020-09-06T16:52:18Z</time>
      </trkpt>
      <trkpt lat="37.4756366014" lon="-3.0370838754">
        <ele>937.90</ele>
        <time>2020-09-06T16:52:19Z</time>
      </trkpt>
      <trkpt lat="37.4757706281" lon="-3.0369814485">
        <ele>941.27</ele>
        <time>2020-09-06T16:52:30Z</time>
      </trkpt>
      <trkpt lat="37.4758511782" lon="-3.0369283911">
        <ele>942.71</ele>
        <time>2020-09-06T16:52:36Z</time>
      </trkpt>
      <trkpt lat="37.4758657627" lon="-3.0369249545">
        <ele>942.71</ele>
        <time>2020-09-06T16:52:37Z</time>
      </trkpt>
      <trkpt lat="37.4760933314" lon="-3.0370417144">
        <ele>946.07</ele>
        <time>2020-09-06T16:52:51Z</time>
      </trkpt>
      <trkpt lat="37.4763288628" lon="-3.0371515173">
        <ele>948.96</ele>
        <time>2020-09-06T16:53:06Z</time>
      </trkpt>
      <trkpt lat="37.4765214790" lon="-3.0370742362">
        <ele>951.84</ele>
        <time>2020-09-06T16:53:20Z</time>
      </trkpt>
      <trkpt lat="37.4765253346" lon="-3.0370359309">
        <ele>952.32</ele>
        <time>2020-09-06T16:53:22Z</time>
      </trkpt>
      <trkpt lat="37.4765170366" lon="-3.0370164011">
        <ele>952.32</ele>
        <time>2020-09-06T16:53:23Z</time>
      </trkpt>
      <trkpt lat="37.4765048828" lon="-3.0369972903">
        <ele>952.32</ele>
        <time>2020-09-06T16:53:24Z</time>
      </trkpt>
      <trkpt lat="37.4763610493" lon="-3.0368069373">
        <ele>955.69</ele>
        <time>2020-09-06T16:53:36Z</time>
      </trkpt>
      <trkpt lat="37.4761913996" lon="-3.0366428196">
        <ele>959.05</ele>
        <time>2020-09-06T16:53:49Z</time>
      </trkpt>
      <trkpt lat="37.4761566147" lon="-3.0366028380">
        <ele>959.05</ele>
        <time>2020-09-06T16:53:52Z</time>
      </trkpt>
      <trkpt lat="37.4761488196" lon="-3.0365833919">
        <ele>959.53</ele>
        <time>2020-09-06T16:53:53Z</time>
      </trkpt>
      <trkpt lat="37.4760410283" lon="-3.0362713337">
        <ele>961.94</ele>
        <time>2020-09-06T16:54:09Z</time>
      </trkpt>
      <trkpt lat="37.4758576322" lon="-3.0361088086">
        <ele>965.30</ele>
        <time>2020-09-06T16:54:22Z</time>
      </trkpt>
      <trkpt lat="37.4757022317" lon="-3.0358515680">
        <ele>968.18</ele>
        <time>2020-09-06T16:54:38Z</time>
      </trkpt>
      <trkpt lat="37.4755140580" lon="-3.0356915575">
        <ele>970.59</ele>
        <time>2020-09-06T16:54:52Z</time>
      </trkpt>
      <trkpt lat="37.4754056800" lon="-3.0356562696">
        <ele>972.51</ele>
        <time>2020-09-06T16:54:59Z</time>
      </trkpt>
      <trkpt lat="37.4753531255" lon="-3.0356136896">
        <ele>973.47</ele>
        <time>2020-09-06T16:55:03Z</time>
      </trkpt>
      <trkpt lat="37.4753460847" lon="-3.0355960038">
        <ele>973.47</ele>
        <time>2020-09-06T16:55:04Z</time>
      </trkpt>
      <trkpt lat="37.4753435701" lon="-3.0355770607">
        <ele>973.47</ele>
        <time>2020-09-06T16:55:05Z</time>
      </trkpt>
      <trkpt lat="37.4753462523" lon="-3.0355578661">
        <ele>973.47</ele>
        <time>2020-09-06T16:55:06Z</time>
      </trkpt>
      <trkpt lat="37.4753523711" lon="-3.0355391745">
        <ele>973.47</ele>
        <time>2020-09-06T16:55:07Z</time>
      </trkpt>
      <trkpt lat="37.4753612559" lon="-3.0355240870">
        <ele>973.95</ele>
        <time>2020-09-06T16:55:08Z</time>
      </trkpt>
      <trkpt lat="37.4753760919" lon="-3.0355145317">
        <ele>973.95</ele>
        <time>2020-09-06T16:55:09Z</time>
      </trkpt>
      <trkpt lat="37.4753936939" lon="-3.0355106760">
        <ele>974.43</ele>
        <time>2020-09-06T16:55:10Z</time>
      </trkpt>
      <trkpt lat="37.4754125532" lon="-3.0355130229">
        <ele>974.43</ele>
        <time>2020-09-06T16:55:11Z</time>
      </trkpt>
      <trkpt lat="37.4754315801" lon="-3.0355196446">
        <ele>974.91</ele>
        <time>2020-09-06T16:55:12Z</time>
      </trkpt>
      <trkpt lat="37.4754491821" lon="-3.0355276074">
        <ele>974.91</ele>
        <time>2020-09-06T16:55:13Z</time>
      </trkpt>
      <trkpt lat="37.4754656944" lon="-3.0355374981">
        <ele>974.91</ele>
        <time>2020-09-06T16:55:14Z</time>
      </trkpt>
      <trkpt lat="37.4754826259" lon="-3.0355461314">
        <ele>975.39</ele>
        <time>2020-09-06T16:55:15Z</time>
      </trkpt>
      <trkpt lat="37.4754996412" lon="-3.0355521664">
        <ele>975.39</ele>
        <time>2020-09-06T16:55:16Z</time>
      </trkpt>
      <trkpt lat="37.4758087657" lon="-3.0356219877">
        <ele>977.80</ele>
        <time>2020-09-06T16:55:32Z</time>
      </trkpt>
      <trkpt lat="37.4761378393" lon="-3.0358193815">
        <ele>980.68</ele>
        <time>2020-09-06T16:55:48Z</time>
      </trkpt>
      <trkpt lat="37.4764778931" lon="-3.0360081419">
        <ele>984.05</ele>
        <time>2020-09-06T16:56:06Z</time>
      </trkpt>
      <trkpt lat="37.4767227285" lon="-3.0358985905">
        <ele>987.41</ele>
        <time>2020-09-06T16:56:21Z</time>
      </trkpt>
      <trkpt lat="37.4769605231" lon="-3.0358571000">
        <ele>989.81</ele>
        <time>2020-09-06T16:56:35Z</time>
      </trkpt>
      <trkpt lat="37.4770546518" lon="-3.0359044578">
        <ele>990.78</ele>
        <time>2020-09-06T16:56:47Z</time>
      </trkpt>
      <trkpt lat="37.4770433363" lon="-3.0358941481">
        <ele>991.26</ele>
        <time>2020-09-06T16:57:15Z</time>
      </trkpt>
      <trkpt lat="37.4770691525" lon="-3.0359037034">
        <ele>991.26</ele>
        <time>2020-09-06T16:57:42Z</time>
      </trkpt>
      <trkpt lat="37.4773303326" lon="-3.0358806532">
        <ele>992.70</ele>
        <time>2020-09-06T16:57:54Z</time>
      </trkpt>
      <trkpt lat="37.4776613340" lon="-3.0359499715">
        <ele>995.58</ele>
        <time>2020-09-06T16:58:08Z</time>
      </trkpt>
      <trkpt lat="37.4779850431" lon="-3.0360705033">
        <ele>998.47</ele>
        <time>2020-09-06T16:58:24Z</time>
      </trkpt>
      <trkpt lat="37.4782481510" lon="-3.0361419171">
        <ele>1001.83</ele>
        <time>2020-09-06T16:58:37Z</time>
      </trkpt>
      <trkpt lat="37.4783851113" lon="-3.0361264106">
        <ele>1002.79</ele>
        <time>2020-09-06T16:58:44Z</time>
      </trkpt>
      <trkpt lat="37.4784036353" lon="-3.0361179449">
        <ele>1002.79</ele>
        <time>2020-09-06T16:58:45Z</time>
      </trkpt>
      <trkpt lat="37.4784210697" lon="-3.0361033604">
        <ele>1002.79</ele>
        <time>2020-09-06T16:58:46Z</time>
      </trkpt>
      <trkpt lat="37.4784381688" lon="-3.0360887758">
        <ele>1003.27</ele>
        <time>2020-09-06T16:58:47Z</time>
      </trkpt>
      <trkpt lat="37.4784508254" lon="-3.0360757839">
        <ele>1003.27</ele>
        <time>2020-09-06T16:58:48Z</time>
      </trkpt>
      <trkpt lat="37.4784609675" lon="-3.0360626243">
        <ele>1003.27</ele>
        <time>2020-09-06T16:58:49Z</time>
      </trkpt>
      <trkpt lat="37.4784795754" lon="-3.0360529851">
        <ele>1003.27</ele>
        <time>2020-09-06T16:59:03Z</time>
      </trkpt>
      <trkpt lat="37.4784799106" lon="-3.0360312760">
        <ele>1003.75</ele>
        <time>2020-09-06T16:59:32Z</time>
      </trkpt>
      <trkpt lat="37.4784519151" lon="-3.0360328685">
        <ele>1003.75</ele>
        <time>2020-09-06T16:59:42Z</time>
      </trkpt>
      <trkpt lat="37.4784481432" lon="-3.0360324495">
        <ele>1004.23</ele>
        <time>2020-09-06T17:00:10Z</time>
      </trkpt>
      <trkpt lat="37.4784572795" lon="-3.0360182002">
        <ele>1004.23</ele>
        <time>2020-09-06T17:00:37Z</time>
      </trkpt>
      <trkpt lat="37.4784693494" lon="-3.0360453576">
        <ele>1004.23</ele>
        <time>2020-09-06T17:01:11Z</time>
      </trkpt>
      <trkpt lat="37.4784706067" lon="-3.0360435136">
        <ele>1004.23</ele>
        <time>2020-09-06T17:01:47Z</time>
      </trkpt>
      <trkpt lat="37.4784654938" lon="-3.0360560026">
        <ele>1004.23</ele>
        <time>2020-09-06T17:02:12Z</time>
      </trkpt>
      <trkpt lat="37.4784534238" lon="-3.0360316113">
        <ele>1004.72</ele>
        <time>2020-09-06T17:02:51Z</time>
      </trkpt>
      <trkpt lat="37.4784613866" lon="-3.0360363889">
        <ele>1004.72</ele>
        <time>2020-09-06T17:03:24Z</time>
      </trkpt>
      <trkpt lat="37.4784392584" lon="-3.0360173620">
        <ele>1004.72</ele>
        <time>2020-09-06T17:04:05Z</time>
      </trkpt>
      <trkpt lat="37.4784517474" lon="-3.0360236485">
        <ele>1004.72</ele>
        <time>2020-09-06T17:04:37Z</time>
      </trkpt>
      <trkpt lat="37.4784715287" lon="-3.0360391550">
        <ele>1004.72</ele>
        <time>2020-09-06T17:04:57Z</time>
      </trkpt>
      <trkpt lat="37.4784630630" lon="-3.0360348802">
        <ele>1004.72</ele>
        <time>2020-09-06T17:05:24Z</time>
      </trkpt>
      <trkpt lat="37.4785052240" lon="-3.0359879415">
        <ele>1004.72</ele>
        <time>2020-09-06T17:05:47Z</time>
      </trkpt>
      <trkpt lat="37.4785373267" lon="-3.0359701719">
        <ele>1004.72</ele>
        <time>2020-09-06T17:05:49Z</time>
      </trkpt>
      <trkpt lat="37.4785573594" lon="-3.0359643046">
        <ele>1004.72</ele>
        <time>2020-09-06T17:05:50Z</time>
      </trkpt>
      <trkpt lat="37.4785799906" lon="-3.0359581020">
        <ele>1004.72</ele>
        <time>2020-09-06T17:05:51Z</time>
      </trkpt>
      <trkpt lat="37.4786050525" lon="-3.0359562580">
        <ele>1004.72</ele>
        <time>2020-09-06T17:05:52Z</time>
      </trkpt>
      <trkpt lat="37.4786323775" lon="-3.0359583534">
        <ele>1004.72</ele>
        <time>2020-09-06T17:05:53Z</time>
      </trkpt>
      <trkpt lat="37.4791031890" lon="-3.0361083057">
        <ele>1002.79</ele>
        <time>2020-09-06T17:06:07Z</time>
      </trkpt>
      <trkpt lat="37.4796681292" lon="-3.0364062823">
        <ele>1002.31</ele>
        <time>2020-09-06T17:06:19Z</time>
      </trkpt>
      <trkpt lat="37.4803486560" lon="-3.0368174147">
        <ele>1002.31</ele>
        <time>2020-09-06T17:06:33Z</time>
      </trkpt>
      <trkpt lat="37.4810010195" lon="-3.0376375839">
        <ele>1000.87</ele>
        <time>2020-09-06T17:06:47Z</time>
      </trkpt>
      <trkpt lat="37.4817196839" lon="-3.0382843316">
        <ele>997.51</ele>
        <time>2020-09-06T17:06:59Z</time>
      </trkpt>
      <trkpt lat="37.4819151498" lon="-3.0384155083">
        <ele>997.02</ele>
        <time>2020-09-06T17:07:02Z</time>
      </trkpt>
      <trkpt lat="37.4822256155" lon="-3.0386268161">
        <ele>996.54</ele>
        <time>2020-09-06T17:07:07Z</time>
      </trkpt>
      <trkpt lat="37.4823610671" lon="-3.0386760179">
        <ele>995.58</ele>
        <time>2020-09-06T17:07:09Z</time>
      </trkpt>
      <trkpt lat="37.4827095866" lon="-3.0387855694">
        <ele>995.10</ele>
        <time>2020-09-06T17:07:14Z</time>
      </trkpt>
      <trkpt lat="37.4827712774" lon="-3.0388228688">
        <ele>995.10</ele>
        <time>2020-09-06T17:07:15Z</time>
      </trkpt>
      <trkpt lat="37.4834342021" lon="-3.0393624119">
        <ele>993.66</ele>
        <time>2020-09-06T17:07:27Z</time>
      </trkpt>
      <trkpt lat="37.4834733456" lon="-3.0394091830">
        <ele>993.18</ele>
        <time>2020-09-06T17:07:28Z</time>
      </trkpt>
      <trkpt lat="37.4835002515" lon="-3.0394691136">
        <ele>993.18</ele>
        <time>2020-09-06T17:07:29Z</time>
      </trkpt>
      <trkpt lat="37.4835156742" lon="-3.0395381805">
        <ele>993.18</ele>
        <time>2020-09-06T17:07:30Z</time>
      </trkpt>
      <trkpt lat="37.4835327733" lon="-3.0396054033">
        <ele>992.70</ele>
        <time>2020-09-06T17:07:31Z</time>
      </trkpt>
      <trkpt lat="37.4835611042" lon="-3.0396665074">
        <ele>992.70</ele>
        <time>2020-09-06T17:07:32Z</time>
      </trkpt>
      <trkpt lat="37.4836026784" lon="-3.0397175532">
        <ele>992.70</ele>
        <time>2020-09-06T17:07:33Z</time>
      </trkpt>
      <trkpt lat="37.4836476054" lon="-3.0397556908">
        <ele>992.22</ele>
        <time>2020-09-06T17:07:34Z</time>
      </trkpt>
      <trkpt lat="37.4836944602" lon="-3.0397889670">
        <ele>992.22</ele>
        <time>2020-09-06T17:07:35Z</time>
      </trkpt>
      <trkpt lat="37.4837437458" lon="-3.0398190580">
        <ele>992.22</ele>
        <time>2020-09-06T17:07:36Z</time>
      </trkpt>
      <trkpt lat="37.4844054133" lon="-3.0402506422">
        <ele>991.26</ele>
        <time>2020-09-06T17:07:48Z</time>
      </trkpt>
      <trkpt lat="37.4852174520" lon="-3.0412075203">
        <ele>989.33</ele>
        <time>2020-09-06T17:08:04Z</time>
      </trkpt>
      <trkpt lat="37.4861006532" lon="-3.0418329779">
        <ele>987.89</ele>
        <time>2020-09-06T17:08:18Z</time>
      </trkpt>
      <trkpt lat="37.4871621374" lon="-3.0427587591">
        <ele>985.97</ele>
        <time>2020-09-06T17:08:35Z</time>
      </trkpt>
      <trkpt lat="37.4882646091" lon="-3.0440254323">
        <ele>983.57</ele>
        <time>2020-09-06T17:08:54Z</time>
      </trkpt>
      <trkpt lat="37.4883165769" lon="-3.0440898053">
        <ele>983.57</ele>
        <time>2020-09-06T17:08:55Z</time>
      </trkpt>
      <trkpt lat="37.4883710593" lon="-3.0441560224">
        <ele>983.57</ele>
        <time>2020-09-06T17:08:56Z</time>
      </trkpt>
      <trkpt lat="37.4886004720" lon="-3.0443991814">
        <ele>983.57</ele>
        <time>2020-09-06T17:09:00Z</time>
      </trkpt>
      <trkpt lat="37.4888254423" lon="-3.0446311086">
        <ele>983.09</ele>
        <time>2020-09-06T17:09:04Z</time>
      </trkpt>
      <trkpt lat="37.4888814334" lon="-3.0446923804">
        <ele>983.09</ele>
        <time>2020-09-06T17:09:05Z</time>
      </trkpt>
      <trkpt lat="37.4897052068" lon="-3.0452362821">
        <ele>983.09</ele>
        <time>2020-09-06T17:09:18Z</time>
      </trkpt>
      <trkpt lat="37.4907782581" lon="-3.0458625779">
        <ele>981.16</ele>
        <time>2020-09-06T17:09:34Z</time>
      </trkpt>
      <trkpt lat="37.4916940648" lon="-3.0464131013">
        <ele>980.20</ele>
        <time>2020-09-06T17:09:47Z</time>
      </trkpt>
      <trkpt lat="37.4923950434" lon="-3.0467760377">
        <ele>979.72</ele>
        <time>2020-09-06T17:09:57Z</time>
      </trkpt>
      <trkpt lat="37.4924584106" lon="-3.0468261614">
        <ele>979.24</ele>
        <time>2020-09-06T17:09:58Z</time>
      </trkpt>
      <trkpt lat="37.4931704532" lon="-3.0476421397">
        <ele>978.76</ele>
        <time>2020-09-06T17:10:12Z</time>
      </trkpt>
      <trkpt lat="37.4932989478" lon="-3.0477700476">
        <ele>978.76</ele>
        <time>2020-09-06T17:10:16Z</time>
      </trkpt>
      <trkpt lat="37.4933437910" lon="-3.0477677844">
        <ele>978.28</ele>
        <time>2020-09-06T17:10:17Z</time>
      </trkpt>
      <trkpt lat="37.4935578648" lon="-3.0477427226">
        <ele>974.91</ele>
        <time>2020-09-06T17:10:21Z</time>
      </trkpt>
      <trkpt lat="37.4938386586" lon="-3.0477418844">
        <ele>971.07</ele>
        <time>2020-09-06T17:10:26Z</time>
      </trkpt>
      <trkpt lat="37.4939461146" lon="-3.0477694608">
        <ele>970.11</ele>
        <time>2020-09-06T17:10:28Z</time>
      </trkpt>
      <trkpt lat="37.4941299297" lon="-3.0478472449">
        <ele>968.18</ele>
        <time>2020-09-06T17:10:31Z</time>
      </trkpt>
      <trkpt lat="37.4947030004" lon="-3.0479863007">
        <ele>964.82</ele>
        <time>2020-09-06T17:10:39Z</time>
      </trkpt>
      <trkpt lat="37.4949871469" lon="-3.0480213370">
        <ele>961.94</ele>
        <time>2020-09-06T17:10:43Z</time>
      </trkpt>
      <trkpt lat="37.4950625002" lon="-3.0480337422">
        <ele>960.98</ele>
        <time>2020-09-06T17:10:44Z</time>
      </trkpt>
      <trkpt lat="37.4951439723" lon="-3.0480588879">
        <ele>960.01</ele>
        <time>2020-09-06T17:10:45Z</time>
      </trkpt>
      <trkpt lat="37.4952240195" lon="-3.0480958521">
        <ele>958.57</ele>
        <time>2020-09-06T17:10:46Z</time>
      </trkpt>
      <trkpt lat="37.4955413584" lon="-3.0482178926">
        <ele>956.65</ele>
        <time>2020-09-06T17:10:50Z</time>
      </trkpt>
      <trkpt lat="37.4956167955" lon="-3.0482240953">
        <ele>955.69</ele>
        <time>2020-09-06T17:10:51Z</time>
      </trkpt>
      <trkpt lat="37.4956933223" lon="-3.0482140370">
        <ele>956.17</ele>
        <time>2020-09-06T17:10:52Z</time>
      </trkpt>
      <trkpt lat="37.4957655743" lon="-3.0481901485">
        <ele>955.21</ele>
        <time>2020-09-06T17:10:53Z</time>
      </trkpt>
      <trkpt lat="37.4958360661" lon="-3.0481499992">
        <ele>954.25</ele>
        <time>2020-09-06T17:10:54Z</time>
      </trkpt>
      <trkpt lat="37.4958973378" lon="-3.0481022224">
        <ele>954.25</ele>
        <time>2020-09-06T17:10:55Z</time>
      </trkpt>
      <trkpt lat="37.4959444441" lon="-3.0480546132">
        <ele>953.28</ele>
        <time>2020-09-06T17:10:56Z</time>
      </trkpt>
      <trkpt lat="37.4959891196" lon="-3.0480143800">
        <ele>952.32</ele>
        <time>2020-09-06T17:10:57Z</time>
      </trkpt>
      <trkpt lat="37.4960408360" lon="-3.0479881447">
        <ele>952.32</ele>
        <time>2020-09-06T17:10:58Z</time>
      </trkpt>
      <trkpt lat="37.4961021915" lon="-3.0479828641">
        <ele>951.84</ele>
        <time>2020-09-06T17:10:59Z</time>
      </trkpt>
      <trkpt lat="37.4961639661" lon="-3.0479950178">
        <ele>950.40</ele>
        <time>2020-09-06T17:11:00Z</time>
      </trkpt>
      <trkpt lat="37.4962233100" lon="-3.0480122007">
        <ele>949.92</ele>
        <time>2020-09-06T17:11:01Z</time>
      </trkpt>
      <trkpt lat="37.4962746911" lon="-3.0480331555">
        <ele>949.92</ele>
        <time>2020-09-06T17:11:02Z</time>
      </trkpt>
      <trkpt lat="37.4963145889" lon="-3.0480673537">
        <ele>949.92</ele>
        <time>2020-09-06T17:11:03Z</time>
      </trkpt>
      <trkpt lat="37.4963415787" lon="-3.0481173936">
        <ele>948.96</ele>
        <time>2020-09-06T17:11:04Z</time>
      </trkpt>
      <trkpt lat="37.4963504635" lon="-3.0481793359">
        <ele>948.48</ele>
        <time>2020-09-06T17:11:05Z</time>
      </trkpt>
      <trkpt lat="37.4963372201" lon="-3.0482478160">
        <ele>948.48</ele>
        <time>2020-09-06T17:11:06Z</time>
      </trkpt>
      <trkpt lat="37.4963028543" lon="-3.0483058188">
        <ele>947.52</ele>
        <time>2020-09-06T17:11:07Z</time>
      </trkpt>
      <trkpt lat="37.4962514732" lon="-3.0483524222">
        <ele>947.52</ele>
        <time>2020-09-06T17:11:08Z</time>
      </trkpt>
      <trkpt lat="37.4961891957" lon="-3.0483941641">
        <ele>947.52</ele>
        <time>2020-09-06T17:11:09Z</time>
      </trkpt>
      <trkpt lat="37.4961214699" lon="-3.0484375823">
        <ele>946.56</ele>
        <time>2020-09-06T17:11:10Z</time>
      </trkpt>
      <trkpt lat="37.4959307816" lon="-3.0485786498">
        <ele>944.15</ele>
        <time>2020-09-06T17:11:13Z</time>
      </trkpt>
      <trkpt lat="37.4958956614" lon="-3.0486312881">
        <ele>943.19</ele>
        <time>2020-09-06T17:11:14Z</time>
      </trkpt>
      <trkpt lat="37.4958828371" lon="-3.0486949068">
        <ele>942.23</ele>
        <time>2020-09-06T17:11:15Z</time>
      </trkpt>
      <trkpt lat="37.4959011097" lon="-3.0487555079">
        <ele>941.75</ele>
        <time>2020-09-06T17:11:16Z</time>
      </trkpt>
      <trkpt lat="37.4959424324" lon="-3.0488120019">
        <ele>940.79</ele>
        <time>2020-09-06T17:11:17Z</time>
      </trkpt>
      <trkpt lat="37.4960002676" lon="-3.0488617066">
        <ele>939.83</ele>
        <time>2020-09-06T17:11:18Z</time>
      </trkpt>
      <trkpt lat="37.4960704241" lon="-3.0489068851">
        <ele>938.86</ele>
        <time>2020-09-06T17:11:19Z</time>
      </trkpt>
      <trkpt lat="37.4961464480" lon="-3.0489496328">
        <ele>937.42</ele>
        <time>2020-09-06T17:11:20Z</time>
      </trkpt>
      <trkpt lat="37.4962337036" lon="-3.0489840824">
        <ele>936.46</ele>
        <time>2020-09-06T17:11:21Z</time>
      </trkpt>
      <trkpt lat="37.4963362981" lon="-3.0490145925">
        <ele>935.02</ele>
        <time>2020-09-06T17:11:22Z</time>
      </trkpt>
      <trkpt lat="37.4964304268" lon="-3.0490482878">
        <ele>933.58</ele>
        <time>2020-09-06T17:11:23Z</time>
      </trkpt>
      <trkpt lat="37.4965327699" lon="-3.0490886047">
        <ele>932.62</ele>
        <time>2020-09-06T17:11:24Z</time>
      </trkpt>
      <trkpt lat="37.4966317602" lon="-3.0491122417">
        <ele>932.14</ele>
        <time>2020-09-06T17:11:25Z</time>
      </trkpt>
      <trkpt lat="37.4967312533" lon="-3.0491137505">
        <ele>932.14</ele>
        <time>2020-09-06T17:11:26Z</time>
      </trkpt>
      <trkpt lat="37.4968277290" lon="-3.0490996689">
        <ele>931.17</ele>
        <time>2020-09-06T17:11:27Z</time>
      </trkpt>
      <trkpt lat="37.4969260488" lon="-3.0490812287">
        <ele>930.69</ele>
        <time>2020-09-06T17:11:28Z</time>
      </trkpt>
      <trkpt lat="37.4970251229" lon="-3.0490662251">
        <ele>930.69</ele>
        <time>2020-09-06T17:11:29Z</time>
      </trkpt>
      <trkpt lat="37.4973925855" lon="-3.0490558315">
        <ele>926.37</ele>
        <time>2020-09-06T17:11:33Z</time>
      </trkpt>
      <trkpt lat="37.4976655003" lon="-3.0490972381">
        <ele>921.56</ele>
        <time>2020-09-06T17:11:36Z</time>
      </trkpt>
      <trkpt lat="37.4979561847" lon="-3.0491572525">
        <ele>917.72</ele>
        <time>2020-09-06T17:11:39Z</time>
      </trkpt>
      <trkpt lat="37.4980505649" lon="-3.0491438415">
        <ele>916.75</ele>
        <time>2020-09-06T17:11:40Z</time>
      </trkpt>
      <trkpt lat="37.4981467053" lon="-3.0491103139">
        <ele>916.27</ele>
        <time>2020-09-06T17:11:41Z</time>
      </trkpt>
      <trkpt lat="37.4982399959" lon="-3.0490732659">
        <ele>915.79</ele>
        <time>2020-09-06T17:11:42Z</time>
      </trkpt>
      <trkpt lat="37.4983298499" lon="-3.0490408279">
        <ele>915.31</ele>
        <time>2020-09-06T17:11:43Z</time>
      </trkpt>
      <trkpt lat="37.4986062851" lon="-3.0489125848">
        <ele>913.87</ele>
        <time>2020-09-06T17:11:46Z</time>
      </trkpt>
      <trkpt lat="37.4988662079" lon="-3.0487873591">
        <ele>913.39</ele>
        <time>2020-09-06T17:11:49Z</time>
      </trkpt>
      <trkpt lat="37.4989523739" lon="-3.0487785581">
        <ele>913.39</ele>
        <time>2020-09-06T17:11:50Z</time>
      </trkpt>
      <trkpt lat="37.4990418088" lon="-3.0487921368">
        <ele>913.39</ele>
        <time>2020-09-06T17:11:51Z</time>
      </trkpt>
      <trkpt lat="37.4991311599" lon="-3.0488215573">
        <ele>912.91</ele>
        <time>2020-09-06T17:11:52Z</time>
      </trkpt>
      <trkpt lat="37.4992241152" lon="-3.0488530733">
        <ele>911.47</ele>
        <time>2020-09-06T17:11:53Z</time>
      </trkpt>
      <trkpt lat="37.4993164837" lon="-3.0488759559">
        <ele>910.99</ele>
        <time>2020-09-06T17:11:54Z</time>
      </trkpt>
      <trkpt lat="37.4994005542" lon="-3.0488890316">
        <ele>908.58</ele>
        <time>2020-09-06T17:11:55Z</time>
      </trkpt>
      <trkpt lat="37.4994860496" lon="-3.0489067174">
        <ele>907.62</ele>
        <time>2020-09-06T17:11:56Z</time>
      </trkpt>
      <trkpt lat="37.4995505065" lon="-3.0489404127">
        <ele>906.18</ele>
        <time>2020-09-06T17:11:57Z</time>
      </trkpt>
      <trkpt lat="37.4996083416" lon="-3.0490062106">
        <ele>905.70</ele>
        <time>2020-09-06T17:11:58Z</time>
      </trkpt>
      <trkpt lat="37.4996499997" lon="-3.0490948912">
        <ele>904.74</ele>
        <time>2020-09-06T17:11:59Z</time>
      </trkpt>
      <trkpt lat="37.4996896461" lon="-3.0491943005">
        <ele>903.30</ele>
        <time>2020-09-06T17:12:00Z</time>
      </trkpt>
      <trkpt lat="37.4997358304" lon="-3.0492848251">
        <ele>901.37</ele>
        <time>2020-09-06T17:12:01Z</time>
      </trkpt>
      <trkpt lat="37.4997991137" lon="-3.0493714102">
        <ele>899.93</ele>
        <time>2020-09-06T17:12:02Z</time>
      </trkpt>
      <trkpt lat="37.4998619780" lon="-3.0494411476">
        <ele>898.49</ele>
        <time>2020-09-06T17:12:03Z</time>
      </trkpt>
      <trkpt lat="37.4999286141" lon="-3.0494965520">
        <ele>897.53</ele>
        <time>2020-09-06T17:12:04Z</time>
      </trkpt>
      <trkpt lat="37.5000150315" lon="-3.0495400541">
        <ele>896.57</ele>
        <time>2020-09-06T17:12:05Z</time>
      </trkpt>
      <trkpt lat="37.5001040474" lon="-3.0495622661">
        <ele>895.61</ele>
        <time>2020-09-06T17:12:06Z</time>
      </trkpt>
      <trkpt lat="37.5002925564" lon="-3.0495764315">
        <ele>892.24</ele>
        <time>2020-09-06T17:12:08Z</time>
      </trkpt>
      <trkpt lat="37.5005948078" lon="-3.0496052653">
        <ele>888.88</ele>
        <time>2020-09-06T17:12:11Z</time>
      </trkpt>
      <trkpt lat="37.5008100551" lon="-3.0496608373">
        <ele>885.51</ele>
        <time>2020-09-06T17:12:13Z</time>
      </trkpt>
      <trkpt lat="37.5009240489" lon="-3.0496665370">
        <ele>884.07</ele>
        <time>2020-09-06T17:12:14Z</time>
      </trkpt>
      <trkpt lat="37.5010367855" lon="-3.0496511143">
        <ele>883.59</ele>
        <time>2020-09-06T17:12:15Z</time>
      </trkpt>
      <trkpt lat="37.5011428166" lon="-3.0496409722">
        <ele>883.59</ele>
        <time>2020-09-06T17:12:16Z</time>
      </trkpt>
      <trkpt lat="37.5012461655" lon="-3.0496539641">
        <ele>883.59</ele>
        <time>2020-09-06T17:12:17Z</time>
      </trkpt>
      <trkpt lat="37.5013330858" lon="-3.0496886652">
        <ele>883.11</ele>
        <time>2020-09-06T17:12:18Z</time>
      </trkpt>
      <trkpt lat="37.5014030747" lon="-3.0497474223">
        <ele>883.59</ele>
        <time>2020-09-06T17:12:19Z</time>
      </trkpt>
      <trkpt lat="37.5014561322" lon="-3.0498168245">
        <ele>883.59</ele>
        <time>2020-09-06T17:12:20Z</time>
      </trkpt>
      <trkpt lat="37.5015063398" lon="-3.0498904176">
        <ele>884.55</ele>
        <time>2020-09-06T17:12:21Z</time>
      </trkpt>
      <trkpt lat="37.5015550386" lon="-3.0499573052">
        <ele>884.55</ele>
        <time>2020-09-06T17:12:22Z</time>
      </trkpt>
      <trkpt lat="37.5016070064" lon="-3.0500172358">
        <ele>885.03</ele>
        <time>2020-09-06T17:12:23Z</time>
      </trkpt>
      <trkpt lat="37.5016638357" lon="-3.0500671919">
        <ele>885.03</ele>
        <time>2020-09-06T17:12:24Z</time>
      </trkpt>
      <trkpt lat="37.5017292984" lon="-3.0501059163">
        <ele>885.03</ele>
        <time>2020-09-06T17:12:25Z</time>
      </trkpt>
      <trkpt lat="37.5017931685" lon="-3.0501396954">
        <ele>885.03</ele>
        <time>2020-09-06T17:12:26Z</time>
      </trkpt>
      <trkpt lat="37.5018532667" lon="-3.0501737259">
        <ele>885.03</ele>
        <time>2020-09-06T17:12:27Z</time>
      </trkpt>
      <trkpt lat="37.5019712001" lon="-3.0502639990">
        <ele>885.51</ele>
        <time>2020-09-06T17:12:29Z</time>
      </trkpt>
      <trkpt lat="37.5020292029" lon="-3.0503233429">
        <ele>885.51</ele>
        <time>2020-09-06T17:12:30Z</time>
      </trkpt>
      <trkpt lat="37.5020806678" lon="-3.0503762327">
        <ele>885.51</ele>
        <time>2020-09-06T17:12:31Z</time>
      </trkpt>
      <trkpt lat="37.5021392573" lon="-3.0504260212">
        <ele>884.07</ele>
        <time>2020-09-06T17:12:32Z</time>
      </trkpt>
      <trkpt lat="37.5021986850" lon="-3.0504711997">
        <ele>884.07</ele>
        <time>2020-09-06T17:12:33Z</time>
      </trkpt>
      <trkpt lat="37.5023110863" lon="-3.0505618919">
        <ele>884.07</ele>
        <time>2020-09-06T17:12:35Z</time>
      </trkpt>
      <trkpt lat="37.5023660716" lon="-3.0505944975">
        <ele>884.07</ele>
        <time>2020-09-06T17:12:36Z</time>
      </trkpt>
      <trkpt lat="37.5024197157" lon="-3.0506167095">
        <ele>884.07</ele>
        <time>2020-09-06T17:12:37Z</time>
      </trkpt>
      <trkpt lat="37.5024700910" lon="-3.0506374128">
        <ele>884.07</ele>
        <time>2020-09-06T17:12:38Z</time>
      </trkpt>
      <trkpt lat="37.5025171135" lon="-3.0506585352">
        <ele>884.07</ele>
        <time>2020-09-06T17:12:39Z</time>
      </trkpt>
      <trkpt lat="37.5026115775" lon="-3.0506991036">
        <ele>884.07</ele>
        <time>2020-09-06T17:12:41Z</time>
      </trkpt>
      <trkpt lat="37.5026537385" lon="-3.0507340562">
        <ele>884.07</ele>
        <time>2020-09-06T17:12:42Z</time>
      </trkpt>
      <trkpt lat="37.5026935525" lon="-3.0507853534">
        <ele>884.07</ele>
        <time>2020-09-06T17:12:43Z</time>
      </trkpt>
      <trkpt lat="37.5027239788" lon="-3.0508347228">
        <ele>884.07</ele>
        <time>2020-09-06T17:12:44Z</time>
      </trkpt>
      <trkpt lat="37.5027536508" lon="-3.0508999340">
        <ele>884.07</ele>
        <time>2020-09-06T17:12:45Z</time>
      </trkpt>
      <trkpt lat="37.5027772039" lon="-3.0509637203">
        <ele>884.07</ele>
        <time>2020-09-06T17:12:46Z</time>
      </trkpt>
      <trkpt lat="37.5028015114" lon="-3.0510359723">
        <ele>884.07</ele>
        <time>2020-09-06T17:12:47Z</time>
      </trkpt>
      <trkpt lat="37.5028549042" lon="-3.0511781294">
        <ele>884.07</ele>
        <time>2020-09-06T17:12:49Z</time>
      </trkpt>
      <trkpt lat="37.5028912816" lon="-3.0512406584">
        <ele>884.07</ele>
        <time>2020-09-06T17:12:50Z</time>
      </trkpt>
      <trkpt lat="37.5032397173" lon="-3.0517226178">
        <ele>881.67</ele>
        <time>2020-09-06T17:12:58Z</time>
      </trkpt>
      <trkpt lat="37.5033532083" lon="-3.0518206023">
        <ele>881.67</ele>
        <time>2020-09-06T17:13:00Z</time>
      </trkpt>
      <trkpt lat="37.5034177490" lon="-3.0518551357">
        <ele>880.71</ele>
        <time>2020-09-06T17:13:01Z</time>
      </trkpt>
      <trkpt lat="37.5034918450" lon="-3.0518747494">
        <ele>880.71</ele>
        <time>2020-09-06T17:13:02Z</time>
      </trkpt>
      <trkpt lat="37.5035567209" lon="-3.0518741626">
        <ele>880.71</ele>
        <time>2020-09-06T17:13:03Z</time>
      </trkpt>
      <trkpt lat="37.5036100298" lon="-3.0518649425">
        <ele>880.71</ele>
        <time>2020-09-06T17:13:04Z</time>
      </trkpt>
      <trkpt lat="37.5036644284" lon="-3.0518542137">
        <ele>880.71</ele>
        <time>2020-09-06T17:13:05Z</time>
      </trkpt>
      <trkpt lat="37.5037128758" lon="-3.0518497713">
        <ele>880.71</ele>
        <time>2020-09-06T17:13:06Z</time>
      </trkpt>
      <trkpt lat="37.5037578866" lon="-3.0518529564">
        <ele>880.71</ele>
        <time>2020-09-06T17:13:07Z</time>
      </trkpt>
      <trkpt lat="37.5038008858" lon="-3.0518593267">
        <ele>880.71</ele>
        <time>2020-09-06T17:13:08Z</time>
      </trkpt>
      <trkpt lat="37.5038432144" lon="-3.0518630147">
        <ele>882.15</ele>
        <time>2020-09-06T17:13:09Z</time>
      </trkpt>
      <trkpt lat="37.5038866326" lon="-3.0518621765">
        <ele>882.15</ele>
        <time>2020-09-06T17:13:10Z</time>
      </trkpt>
      <trkpt lat="37.5039322302" lon="-3.0518549681">
        <ele>882.15</ele>
        <time>2020-09-06T17:13:11Z</time>
      </trkpt>
      <trkpt lat="37.5040955935" lon="-3.0518279783">
        <ele>882.15</ele>
        <time>2020-09-06T17:13:15Z</time>
      </trkpt>
      <trkpt lat="37.5041375868" lon="-3.0518378690">
        <ele>882.15</ele>
        <time>2020-09-06T17:13:16Z</time>
      </trkpt>
      <trkpt lat="37.5041832682" lon="-3.0518573150">
        <ele>882.15</ele>
        <time>2020-09-06T17:13:17Z</time>
      </trkpt>
      <trkpt lat="37.5045126770" lon="-3.0520751607">
        <ele>880.71</ele>
        <time>2020-09-06T17:13:25Z</time>
      </trkpt>
      <trkpt lat="37.5045721047" lon="-3.0520960316">
        <ele>880.71</ele>
        <time>2020-09-06T17:13:26Z</time>
      </trkpt>
      <trkpt lat="37.5046349689" lon="-3.0521029886">
        <ele>880.22</ele>
        <time>2020-09-06T17:13:27Z</time>
      </trkpt>
      <trkpt lat="37.5046987552" lon="-3.0520894099">
        <ele>879.26</ele>
        <time>2020-09-06T17:13:28Z</time>
      </trkpt>
      <trkpt lat="37.5047608651" lon="-3.0520564690">
        <ele>878.78</ele>
        <time>2020-09-06T17:13:29Z</time>
      </trkpt>
      <trkpt lat="37.5048205443" lon="-3.0520138890">
        <ele>878.78</ele>
        <time>2020-09-06T17:13:30Z</time>
      </trkpt>
      <trkpt lat="37.5048826542" lon="-3.0519595742">
        <ele>877.82</ele>
        <time>2020-09-06T17:13:31Z</time>
      </trkpt>
      <trkpt lat="37.5049333647" lon="-3.0519133899">
        <ele>877.82</ele>
        <time>2020-09-06T17:13:32Z</time>
      </trkpt>
      <trkpt lat="37.5049915351" lon="-3.0518664513">
        <ele>877.34</ele>
        <time>2020-09-06T17:13:33Z</time>
      </trkpt>
      <trkpt lat="37.5050506275" lon="-3.0518372823">
        <ele>877.34</ele>
        <time>2020-09-06T17:13:34Z</time>
      </trkpt>
      <trkpt lat="37.5051126536" lon="-3.0518263020">
        <ele>877.34</ele>
        <time>2020-09-06T17:13:35Z</time>
      </trkpt>
      <trkpt lat="37.5051767752" lon="-3.0518318340">
        <ele>876.38</ele>
        <time>2020-09-06T17:13:36Z</time>
      </trkpt>
      <trkpt lat="37.5052433275" lon="-3.0518397130">
        <ele>876.38</ele>
        <time>2020-09-06T17:13:37Z</time>
      </trkpt>
      <trkpt lat="37.5053141546" lon="-3.0518361926">
        <ele>875.90</ele>
        <time>2020-09-06T17:13:38Z</time>
      </trkpt>
      <trkpt lat="37.5053919386" lon="-3.0518154893">
        <ele>875.42</ele>
        <time>2020-09-06T17:13:39Z</time>
      </trkpt>
      <trkpt lat="37.5054522045" lon="-3.0517821293">
        <ele>874.94</ele>
        <time>2020-09-06T17:13:40Z</time>
      </trkpt>
      <trkpt lat="37.5055127218" lon="-3.0517398007">
        <ele>874.94</ele>
        <time>2020-09-06T17:13:41Z</time>
      </trkpt>
      <trkpt lat="37.5056796893" lon="-3.0516149942">
        <ele>874.94</ele>
        <time>2020-09-06T17:13:44Z</time>
      </trkpt>
      <trkpt lat="37.5057811942" lon="-3.0515570752">
        <ele>874.94</ele>
        <time>2020-09-06T17:13:46Z</time>
      </trkpt>
      <trkpt lat="37.5058253668" lon="-3.0515500344">
        <ele>876.38</ele>
        <time>2020-09-06T17:13:47Z</time>
      </trkpt>
      <trkpt lat="37.5058681984" lon="-3.0515564885">
        <ele>876.38</ele>
        <time>2020-09-06T17:13:48Z</time>
      </trkpt>
      <trkpt lat="37.5059025642" lon="-3.0515776947">
        <ele>876.86</ele>
        <time>2020-09-06T17:13:49Z</time>
      </trkpt>
      <trkpt lat="37.5059307273" lon="-3.0516066123">
        <ele>877.34</ele>
        <time>2020-09-06T17:13:50Z</time>
      </trkpt>
      <trkpt lat="37.5059583876" lon="-3.0516439956">
        <ele>877.34</ele>
        <time>2020-09-06T17:13:51Z</time>
      </trkpt>
      <trkpt lat="37.5059782527" lon="-3.0516920239">
        <ele>877.34</ele>
        <time>2020-09-06T17:13:52Z</time>
      </trkpt>
      <trkpt lat="37.5059903227" lon="-3.0517439079">
        <ele>877.34</ele>
        <time>2020-09-06T17:13:53Z</time>
      </trkpt>
      <trkpt lat="37.5060019735" lon="-3.0517981388">
        <ele>877.34</ele>
        <time>2020-09-06T17:13:54Z</time>
      </trkpt>
      <trkpt lat="37.5061964337" lon="-3.0522256158">
        <ele>879.74</ele>
        <time>2020-09-06T17:14:06Z</time>
      </trkpt>
      <trkpt lat="37.5065879524" lon="-3.0523780826">
        <ele>878.30</ele>
        <time>2020-09-06T17:14:15Z</time>
      </trkpt>
      <trkpt lat="37.5066360645" lon="-3.0524028931">
        <ele>878.30</ele>
        <time>2020-09-06T17:14:16Z</time>
      </trkpt>
      <trkpt lat="37.5069823209" lon="-3.0526989419">
        <ele>877.34</ele>
        <time>2020-09-06T17:14:24Z</time>
      </trkpt>
      <trkpt lat="37.5072398130" lon="-3.0530946516">
        <ele>877.34</ele>
        <time>2020-09-06T17:14:31Z</time>
      </trkpt>
      <trkpt lat="37.5072898529" lon="-3.0531424284">
        <ele>876.86</ele>
        <time>2020-09-06T17:14:32Z</time>
      </trkpt>
      <trkpt lat="37.5073455926" lon="-3.0531751178">
        <ele>876.86</ele>
        <time>2020-09-06T17:14:33Z</time>
      </trkpt>
      <trkpt lat="37.5074072834" lon="-3.0531981681">
        <ele>876.38</ele>
        <time>2020-09-06T17:14:34Z</time>
      </trkpt>
      <trkpt lat="37.5074743386" lon="-3.0532117467">
        <ele>876.38</ele>
        <time>2020-09-06T17:14:35Z</time>
      </trkpt>
      <trkpt lat="37.5075441599" lon="-3.0532187875">
        <ele>875.90</ele>
        <time>2020-09-06T17:14:36Z</time>
      </trkpt>
      <trkpt lat="37.5076155737" lon="-3.0532163568">
        <ele>874.94</ele>
        <time>2020-09-06T17:14:37Z</time>
      </trkpt>
      <trkpt lat="37.5076874066" lon="-3.0532067176">
        <ele>874.94</ele>
        <time>2020-09-06T17:14:38Z</time>
      </trkpt>
      <trkpt lat="37.5080910791" lon="-3.0532168597">
        <ele>876.86</ele>
        <time>2020-09-06T17:14:44Z</time>
      </trkpt>
      <trkpt lat="37.5081360061" lon="-3.0532292649">
        <ele>876.38</ele>
        <time>2020-09-06T17:14:45Z</time>
      </trkpt>
      <trkpt lat="37.5081757363" lon="-3.0532463640">
        <ele>877.82</ele>
        <time>2020-09-06T17:14:46Z</time>
      </trkpt>
      <trkpt lat="37.5082080904" lon="-3.0532683246">
        <ele>878.30</ele>
        <time>2020-09-06T17:14:47Z</time>
      </trkpt>
      <trkpt lat="37.5082414504" lon="-3.0532922130">
        <ele>878.30</ele>
        <time>2020-09-06T17:14:48Z</time>
      </trkpt>
      <trkpt lat="37.5082750618" lon="-3.0533053726">
        <ele>878.30</ele>
        <time>2020-09-06T17:14:49Z</time>
      </trkpt>
      <trkpt lat="37.5083090086" lon="-3.0533178616">
        <ele>878.30</ele>
        <time>2020-09-06T17:14:50Z</time>
      </trkpt>
      <trkpt lat="37.5083428714" lon="-3.0533324461">
        <ele>879.26</ele>
        <time>2020-09-06T17:14:51Z</time>
      </trkpt>
      <trkpt lat="37.5087841786" lon="-3.0535492860">
        <ele>881.19</ele>
        <time>2020-09-06T17:15:04Z</time>
      </trkpt>
      <trkpt lat="37.5088218972" lon="-3.0535720009">
        <ele>881.19</ele>
        <time>2020-09-06T17:15:05Z</time>
      </trkpt>
      <trkpt lat="37.5088621303" lon="-3.0535863340">
        <ele>881.19</ele>
        <time>2020-09-06T17:15:06Z</time>
      </trkpt>
      <trkpt lat="37.5089079794" lon="-3.0535925366">
        <ele>881.19</ele>
        <time>2020-09-06T17:15:07Z</time>
      </trkpt>
      <trkpt lat="37.5089557562" lon="-3.0535927881">
        <ele>881.19</ele>
        <time>2020-09-06T17:15:08Z</time>
      </trkpt>
      <trkpt lat="37.5091046188" lon="-3.0536061153">
        <ele>881.19</ele>
        <time>2020-09-06T17:15:11Z</time>
      </trkpt>
      <trkpt lat="37.5091478694" lon="-3.0536282435">
        <ele>881.19</ele>
        <time>2020-09-06T17:15:12Z</time>
      </trkpt>
      <trkpt lat="37.5091834925" lon="-3.0536585860">
        <ele>881.67</ele>
        <time>2020-09-06T17:15:13Z</time>
      </trkpt>
      <trkpt lat="37.5092145056" lon="-3.0536962207">
        <ele>881.67</ele>
        <time>2020-09-06T17:15:14Z</time>
      </trkpt>
      <trkpt lat="37.5092393160" lon="-3.0537382141">
        <ele>881.67</ele>
        <time>2020-09-06T17:15:15Z</time>
      </trkpt>
      <trkpt lat="37.5092606060" lon="-3.0537781119">
        <ele>882.15</ele>
        <time>2020-09-06T17:15:16Z</time>
      </trkpt>
      <trkpt lat="37.5092823151" lon="-3.0538152438">
        <ele>882.15</ele>
        <time>2020-09-06T17:15:17Z</time>
      </trkpt>
      <trkpt lat="37.5095471833" lon="-3.0540761724">
        <ele>885.03</ele>
        <time>2020-09-06T17:15:29Z</time>
      </trkpt>
      <trkpt lat="37.5099362712" lon="-3.0542063434">
        <ele>887.91</ele>
        <time>2020-09-06T17:15:44Z</time>
      </trkpt>
      <trkpt lat="37.5100379437" lon="-3.0541884061">
        <ele>888.40</ele>
        <time>2020-09-06T17:15:48Z</time>
      </trkpt>
      <trkpt lat="37.5100629218" lon="-3.0541916750">
        <ele>888.88</ele>
        <time>2020-09-06T17:15:49Z</time>
      </trkpt>
      <trkpt lat="37.5104294624" lon="-3.0543600675">
        <ele>890.80</ele>
        <time>2020-09-06T17:16:03Z</time>
      </trkpt>
      <trkpt lat="37.5105385948" lon="-3.0544714630">
        <ele>890.80</ele>
        <time>2020-09-06T17:16:06Z</time>
      </trkpt>
      <trkpt lat="37.5105948374" lon="-3.0545032304">
        <ele>890.80</ele>
        <time>2020-09-06T17:16:07Z</time>
      </trkpt>
      <trkpt lat="37.5106566120" lon="-3.0545282084">
        <ele>889.36</ele>
        <time>2020-09-06T17:16:08Z</time>
      </trkpt>
      <trkpt lat="37.5107181352" lon="-3.0545514263">
        <ele>888.88</ele>
        <time>2020-09-06T17:16:09Z</time>
      </trkpt>
      <trkpt lat="37.5111726858" lon="-3.0547991116">
        <ele>887.91</ele>
        <time>2020-09-06T17:16:16Z</time>
      </trkpt>
      <trkpt lat="37.5112277549" lon="-3.0548165459">
        <ele>889.36</ele>
        <time>2020-09-06T17:16:17Z</time>
      </trkpt>
      <trkpt lat="37.5112729333" lon="-3.0548275262">
        <ele>889.36</ele>
        <time>2020-09-06T17:16:18Z</time>
      </trkpt>
      <trkpt lat="37.5114888512" lon="-3.0549597088">
        <ele>892.24</ele>
        <time>2020-09-06T17:16:27Z</time>
      </trkpt>
      <trkpt lat="37.5116797909" lon="-3.0552238226">
        <ele>895.61</ele>
        <time>2020-09-06T17:16:38Z</time>
      </trkpt>
      <trkpt lat="37.5120407995" lon="-3.0555078015">
        <ele>897.05</ele>
        <time>2020-09-06T17:16:53Z</time>
      </trkpt>
      <trkpt lat="37.5121036638" lon="-3.0556260701">
        <ele>897.05</ele>
        <time>2020-09-06T17:16:56Z</time>
      </trkpt>
      <trkpt lat="37.5121123809" lon="-3.0556801334">
        <ele>897.05</ele>
        <time>2020-09-06T17:16:57Z</time>
      </trkpt>
      <trkpt lat="37.5121128000" lon="-3.0557364598">
        <ele>897.05</ele>
        <time>2020-09-06T17:16:58Z</time>
      </trkpt>
      <trkpt lat="37.5121129677" lon="-3.0557988212">
        <ele>896.57</ele>
        <time>2020-09-06T17:16:59Z</time>
      </trkpt>
      <trkpt lat="37.5121225230" lon="-3.0558650382">
        <ele>895.61</ele>
        <time>2020-09-06T17:17:00Z</time>
      </trkpt>
      <trkpt lat="37.5121427234" lon="-3.0559308361">
        <ele>895.61</ele>
        <time>2020-09-06T17:17:01Z</time>
      </trkpt>
      <trkpt lat="37.5121689588" lon="-3.0559942033">
        <ele>895.12</ele>
        <time>2020-09-06T17:17:02Z</time>
      </trkpt>
      <trkpt lat="37.5121989660" lon="-3.0560578220">
        <ele>895.12</ele>
        <time>2020-09-06T17:17:03Z</time>
      </trkpt>
      <trkpt lat="37.5123254489" lon="-3.0563612469">
        <ele>894.64</ele>
        <time>2020-09-06T17:17:07Z</time>
      </trkpt>
      <trkpt lat="37.5123457331" lon="-3.0564461555">
        <ele>893.68</ele>
        <time>2020-09-06T17:17:08Z</time>
      </trkpt>
      <trkpt lat="37.5123653468" lon="-3.0565293040">
        <ele>893.68</ele>
        <time>2020-09-06T17:17:09Z</time>
      </trkpt>
      <trkpt lat="37.5123929232" lon="-3.0566052441">
        <ele>893.68</ele>
        <time>2020-09-06T17:17:10Z</time>
      </trkpt>
      <trkpt lat="37.5124331564" lon="-3.0566735566">
        <ele>893.68</ele>
        <time>2020-09-06T17:17:11Z</time>
      </trkpt>
      <trkpt lat="37.5124805979" lon="-3.0567239318">
        <ele>893.68</ele>
        <time>2020-09-06T17:17:12Z</time>
      </trkpt>
      <trkpt lat="37.5125322305" lon="-3.0567597225">
        <ele>893.68</ele>
        <time>2020-09-06T17:17:13Z</time>
      </trkpt>
      <trkpt lat="37.5125831086" lon="-3.0567826051">
        <ele>893.68</ele>
        <time>2020-09-06T17:17:14Z</time>
      </trkpt>
      <trkpt lat="37.5126315560" lon="-3.0567971058">
        <ele>893.68</ele>
        <time>2020-09-06T17:17:15Z</time>
      </trkpt>
      <trkpt lat="37.5126784947" lon="-3.0568061583">
        <ele>895.61</ele>
        <time>2020-09-06T17:17:16Z</time>
      </trkpt>
      <trkpt lat="37.5127219129" lon="-3.0568113551">
        <ele>895.61</ele>
        <time>2020-09-06T17:17:17Z</time>
      </trkpt>
      <trkpt lat="37.5128048938" lon="-3.0568265263">
        <ele>895.61</ele>
        <time>2020-09-06T17:17:19Z</time>
      </trkpt>
      <trkpt lat="37.5131996814" lon="-3.0569490697">
        <ele>897.05</ele>
        <time>2020-09-06T17:17:29Z</time>
      </trkpt>
      <trkpt lat="37.5132423453" lon="-3.0569458008">
        <ele>897.53</ele>
        <time>2020-09-06T17:17:30Z</time>
      </trkpt>
      <trkpt lat="37.5132807344" lon="-3.0569392629">
        <ele>898.01</ele>
        <time>2020-09-06T17:17:31Z</time>
      </trkpt>
      <trkpt lat="37.5133153517" lon="-3.0569288693">
        <ele>898.01</ele>
        <time>2020-09-06T17:17:32Z</time>
      </trkpt>
      <trkpt lat="37.5133478735" lon="-3.0569155421">
        <ele>898.49</ele>
        <time>2020-09-06T17:17:33Z</time>
      </trkpt>
      <trkpt lat="37.5135199539" lon="-3.0568541028">
        <ele>900.41</ele>
        <time>2020-09-06T17:17:39Z</time>
      </trkpt>
      <trkpt lat="37.5138959661" lon="-3.0565936770">
        <ele>901.85</ele>
        <time>2020-09-06T17:17:52Z</time>
      </trkpt>
      <trkpt lat="37.5139838085" lon="-3.0564906634">
        <ele>901.85</ele>
        <time>2020-09-06T17:17:55Z</time>
      </trkpt>
      <trkpt lat="37.5140170008" lon="-3.0564510170">
        <ele>901.85</ele>
        <time>2020-09-06T17:17:56Z</time>
      </trkpt>
      <trkpt lat="37.5141345151" lon="-3.0563366041">
        <ele>899.93</ele>
        <time>2020-09-06T17:17:59Z</time>
      </trkpt>
      <trkpt lat="37.5141816214" lon="-3.0563060939">
        <ele>899.93</ele>
        <time>2020-09-06T17:18:00Z</time>
      </trkpt>
      <trkpt lat="37.5142376963" lon="-3.0562843848">
        <ele>898.01</ele>
        <time>2020-09-06T17:18:01Z</time>
      </trkpt>
      <trkpt lat="37.5143024046" lon="-3.0562756676">
        <ele>900.41</ele>
        <time>2020-09-06T17:18:02Z</time>
      </trkpt>
      <trkpt lat="37.5143735670" lon="-3.0562853068">
        <ele>898.49</ele>
        <time>2020-09-06T17:18:03Z</time>
      </trkpt>
      <trkpt lat="37.5144464057" lon="-3.0563105363">
        <ele>898.01</ele>
        <time>2020-09-06T17:18:04Z</time>
      </trkpt>
      <trkpt lat="37.5145218428" lon="-3.0563460756">
        <ele>897.05</ele>
        <time>2020-09-06T17:18:05Z</time>
      </trkpt>
      <trkpt lat="37.5145920832" lon="-3.0563866440">
        <ele>896.57</ele>
        <time>2020-09-06T17:18:06Z</time>
      </trkpt>
      <trkpt lat="37.5146606471" lon="-3.0564351752">
        <ele>896.57</ele>
        <time>2020-09-06T17:18:07Z</time>
      </trkpt>
      <trkpt lat="37.5147258583" lon="-3.0564894900">
        <ele>896.09</ele>
        <time>2020-09-06T17:18:08Z</time>
      </trkpt>
      <trkpt lat="37.5147956796" lon="-3.0565418769">
        <ele>896.09</ele>
        <time>2020-09-06T17:18:09Z</time>
      </trkpt>
      <trkpt lat="37.5148710329" lon="-3.0565868039">
        <ele>894.64</ele>
        <time>2020-09-06T17:18:10Z</time>
      </trkpt>
      <trkpt lat="37.5155125838" lon="-3.0568802543">
        <ele>891.28</ele>
        <time>2020-09-06T17:18:18Z</time>
      </trkpt>
      <trkpt lat="37.5155994203" lon="-3.0569271930">
        <ele>890.80</ele>
        <time>2020-09-06T17:18:19Z</time>
      </trkpt>
      <trkpt lat="37.5156756118" lon="-3.0569851957">
        <ele>889.84</ele>
        <time>2020-09-06T17:18:20Z</time>
      </trkpt>
      <trkpt lat="37.5157419965" lon="-3.0570536759">
        <ele>889.84</ele>
        <time>2020-09-06T17:18:21Z</time>
      </trkpt>
      <trkpt lat="37.5157992449" lon="-3.0571374949">
        <ele>889.84</ele>
        <time>2020-09-06T17:18:22Z</time>
      </trkpt>
      <trkpt lat="37.5158456806" lon="-3.0572281033">
        <ele>889.36</ele>
        <time>2020-09-06T17:18:23Z</time>
      </trkpt>
      <trkpt lat="37.5158881769" lon="-3.0573127605">
        <ele>888.88</ele>
        <time>2020-09-06T17:18:24Z</time>
      </trkpt>
      <trkpt lat="37.5159337744" lon="-3.0573855154">
        <ele>888.88</ele>
        <time>2020-09-06T17:18:25Z</time>
      </trkpt>
      <trkpt lat="37.5159873348" lon="-3.0574445240">
        <ele>888.88</ele>
        <time>2020-09-06T17:18:26Z</time>
      </trkpt>
      <trkpt lat="37.5160528813" lon="-3.0574926361">
        <ele>888.40</ele>
        <time>2020-09-06T17:18:27Z</time>
      </trkpt>
      <trkpt lat="37.5161214452" lon="-3.0575275887">
        <ele>888.40</ele>
        <time>2020-09-06T17:18:28Z</time>
      </trkpt>
      <trkpt lat="37.5161921047" lon="-3.0575501360">
        <ele>887.91</ele>
        <time>2020-09-06T17:18:29Z</time>
      </trkpt>
      <trkpt lat="37.5162692182" lon="-3.0575637147">
        <ele>886.95</ele>
        <time>2020-09-06T17:18:30Z</time>
      </trkpt>
      <trkpt lat="37.5164334197" lon="-3.0575802270">
        <ele>886.47</ele>
        <time>2020-09-06T17:18:32Z</time>
      </trkpt>
      <trkpt lat="37.5165986270" lon="-3.0575898662">
        <ele>885.03</ele>
        <time>2020-09-06T17:18:34Z</time>
      </trkpt>
      <trkpt lat="37.5166762434" lon="-3.0576128326">
        <ele>885.03</ele>
        <time>2020-09-06T17:18:35Z</time>
      </trkpt>
      <trkpt lat="37.5167527702" lon="-3.0576463602">
        <ele>884.55</ele>
        <time>2020-09-06T17:18:36Z</time>
      </trkpt>
      <trkpt lat="37.5168224238" lon="-3.0576891918">
        <ele>883.59</ele>
        <time>2020-09-06T17:18:37Z</time>
      </trkpt>
      <trkpt lat="37.5168909878" lon="-3.0577318557">
        <ele>883.59</ele>
        <time>2020-09-06T17:18:38Z</time>
      </trkpt>
      <trkpt lat="37.5169646647" lon="-3.0577539001">
        <ele>883.11</ele>
        <time>2020-09-06T17:18:39Z</time>
      </trkpt>
      <trkpt lat="37.5170447119" lon="-3.0577524751">
        <ele>882.63</ele>
        <time>2020-09-06T17:18:40Z</time>
      </trkpt>
      <trkpt lat="37.5171310455" lon="-3.0577466078">
        <ele>881.67</ele>
        <time>2020-09-06T17:18:41Z</time>
      </trkpt>
      <trkpt lat="37.5172110926" lon="-3.0577570852">
        <ele>881.19</ele>
        <time>2020-09-06T17:18:42Z</time>
      </trkpt>
      <trkpt lat="37.5172879547" lon="-3.0577835720">
        <ele>880.22</ele>
        <time>2020-09-06T17:18:43Z</time>
      </trkpt>
      <trkpt lat="37.5173677504" lon="-3.0578253139">
        <ele>879.74</ele>
        <time>2020-09-06T17:18:44Z</time>
      </trkpt>
      <trkpt lat="37.5174451154" lon="-3.0578802992">
        <ele>878.78</ele>
        <time>2020-09-06T17:18:45Z</time>
      </trkpt>
      <trkpt lat="37.5175254978" lon="-3.0579324346">
        <ele>878.78</ele>
        <time>2020-09-06T17:18:46Z</time>
      </trkpt>
      <trkpt lat="37.5176109094" lon="-3.0579636991">
        <ele>877.82</ele>
        <time>2020-09-06T17:18:47Z</time>
      </trkpt>
      <trkpt lat="37.5176988356" lon="-3.0579927005">
        <ele>877.82</ele>
        <time>2020-09-06T17:18:48Z</time>
      </trkpt>
      <trkpt lat="37.5177848339" lon="-3.0580456741">
        <ele>876.38</ele>
        <time>2020-09-06T17:18:49Z</time>
      </trkpt>
      <trkpt lat="37.5178611930" lon="-3.0580895115">
        <ele>876.86</ele>
        <time>2020-09-06T17:18:50Z</time>
      </trkpt>
      <trkpt lat="37.5179481972" lon="-3.0581119750">
        <ele>876.86</ele>
        <time>2020-09-06T17:18:51Z</time>
      </trkpt>
      <trkpt lat="37.5180388894" lon="-3.0581139866">
        <ele>875.42</ele>
        <time>2020-09-06T17:18:52Z</time>
      </trkpt>
      <trkpt lat="37.5181298330" lon="-3.0580977257">
        <ele>875.42</ele>
        <time>2020-09-06T17:18:53Z</time>
      </trkpt>
      <trkpt lat="37.5182169210" lon="-3.0580700655">
        <ele>874.46</ele>
        <time>2020-09-06T17:18:54Z</time>
      </trkpt>
      <trkpt lat="37.5182991475" lon="-3.0580522120">
        <ele>873.98</ele>
        <time>2020-09-06T17:18:55Z</time>
      </trkpt>
      <trkpt lat="37.5183764286" lon="-3.0580610968">
        <ele>873.50</ele>
        <time>2020-09-06T17:18:56Z</time>
      </trkpt>
      <trkpt lat="37.5184491836" lon="-3.0580923613">
        <ele>872.53</ele>
        <time>2020-09-06T17:18:57Z</time>
      </trkpt>
      <trkpt lat="37.5185224414" lon="-3.0581346899">
        <ele>872.53</ele>
        <time>2020-09-06T17:18:58Z</time>
      </trkpt>
      <trkpt lat="37.5186001416" lon="-3.0581721570">
        <ele>871.57</ele>
        <time>2020-09-06T17:18:59Z</time>
      </trkpt>
      <trkpt lat="37.5186724775" lon="-3.0581905134">
        <ele>871.57</ele>
        <time>2020-09-06T17:19:00Z</time>
      </trkpt>
      <trkpt lat="37.5187408738" lon="-3.0581844784">
        <ele>871.09</ele>
        <time>2020-09-06T17:19:01Z</time>
      </trkpt>
      <trkpt lat="37.5188086834" lon="-3.0581458379">
        <ele>870.61</ele>
        <time>2020-09-06T17:19:02Z</time>
      </trkpt>
      <trkpt lat="37.5188703742" lon="-3.0581046827">
        <ele>870.13</ele>
        <time>2020-09-06T17:19:03Z</time>
      </trkpt>
      <trkpt lat="37.5189401116" lon="-3.0580811296">
        <ele>869.65</ele>
        <time>2020-09-06T17:19:04Z</time>
      </trkpt>
      <trkpt lat="37.5190095976" lon="-3.0580600910">
        <ele>869.65</ele>
        <time>2020-09-06T17:19:05Z</time>
      </trkpt>
      <trkpt lat="37.5190741383" lon="-3.0580173433">
        <ele>869.17</ele>
        <time>2020-09-06T17:19:06Z</time>
      </trkpt>
      <trkpt lat="37.5191305485" lon="-3.0579536408">
        <ele>869.17</ele>
        <time>2020-09-06T17:19:07Z</time>
      </trkpt>
      <trkpt lat="37.5191973522" lon="-3.0578924529">
        <ele>869.17</ele>
        <time>2020-09-06T17:19:08Z</time>
      </trkpt>
      <trkpt lat="37.5192644075" lon="-3.0578670558">
        <ele>869.17</ele>
        <time>2020-09-06T17:19:09Z</time>
      </trkpt>
      <trkpt lat="37.5193377491" lon="-3.0578757729">
        <ele>868.69</ele>
        <time>2020-09-06T17:19:10Z</time>
      </trkpt>
      <trkpt lat="37.5194069836" lon="-3.0579000805">
        <ele>868.69</ele>
        <time>2020-09-06T17:19:11Z</time>
      </trkpt>
      <trkpt lat="37.5194695964" lon="-3.0579056125">
        <ele>869.17</ele>
        <time>2020-09-06T17:19:12Z</time>
      </trkpt>
      <trkpt lat="37.5195294432" lon="-3.0578887649">
        <ele>869.17</ele>
        <time>2020-09-06T17:19:13Z</time>
      </trkpt>
      <trkpt lat="37.5195868593" lon="-3.0578599311">
        <ele>869.17</ele>
        <time>2020-09-06T17:19:14Z</time>
      </trkpt>
      <trkpt lat="37.5196442753" lon="-3.0578328576">
        <ele>869.17</ele>
        <time>2020-09-06T17:19:15Z</time>
      </trkpt>
      <trkpt lat="37.5197021104" lon="-3.0578079633">
        <ele>869.17</ele>
        <time>2020-09-06T17:19:16Z</time>
      </trkpt>
      <trkpt lat="37.5197542459" lon="-3.0577695742">
        <ele>868.21</ele>
        <time>2020-09-06T17:19:17Z</time>
      </trkpt>
      <trkpt lat="37.5197901204" lon="-3.0577145889">
        <ele>868.21</ele>
        <time>2020-09-06T17:19:18Z</time>
      </trkpt>
      <trkpt lat="37.5198064651" lon="-3.0576460250">
        <ele>868.21</ele>
        <time>2020-09-06T17:19:19Z</time>
      </trkpt>
      <trkpt lat="37.5198061299" lon="-3.0575701687">
        <ele>867.73</ele>
        <time>2020-09-06T17:19:20Z</time>
      </trkpt>
      <trkpt lat="37.5197927188" lon="-3.0574938934">
        <ele>867.25</ele>
        <time>2020-09-06T17:19:21Z</time>
      </trkpt>
      <trkpt lat="37.5197663158" lon="-3.0574189592">
        <ele>867.25</ele>
        <time>2020-09-06T17:19:22Z</time>
      </trkpt>
      <trkpt lat="37.5197310280" lon="-3.0573461205">
        <ele>867.25</ele>
        <time>2020-09-06T17:19:23Z</time>
      </trkpt>
      <trkpt lat="37.5196582731" lon="-3.0571966711">
        <ele>866.29</ele>
        <time>2020-09-06T17:19:25Z</time>
      </trkpt>
      <trkpt lat="37.5196333788" lon="-3.0571153667">
        <ele>865.80</ele>
        <time>2020-09-06T17:19:26Z</time>
      </trkpt>
      <trkpt lat="37.5195691735" lon="-3.0568631552">
        <ele>865.80</ele>
        <time>2020-09-06T17:19:29Z</time>
      </trkpt>
      <trkpt lat="37.5195312034" lon="-3.0567871314">
        <ele>865.32</ele>
        <time>2020-09-06T17:19:30Z</time>
      </trkpt>
      <trkpt lat="37.5194846839" lon="-3.0567123648">
        <ele>865.32</ele>
        <time>2020-09-06T17:19:31Z</time>
      </trkpt>
      <trkpt lat="37.5193887949" lon="-3.0565624963">
        <ele>863.88</ele>
        <time>2020-09-06T17:19:33Z</time>
      </trkpt>
      <trkpt lat="37.5193559378" lon="-3.0564806890">
        <ele>863.88</ele>
        <time>2020-09-06T17:19:34Z</time>
      </trkpt>
      <trkpt lat="37.5193437003" lon="-3.0563917570">
        <ele>863.88</ele>
        <time>2020-09-06T17:19:35Z</time>
      </trkpt>
      <trkpt lat="37.5193556026" lon="-3.0563050881">
        <ele>863.40</ele>
        <time>2020-09-06T17:19:36Z</time>
      </trkpt>
      <trkpt lat="37.5193939917" lon="-3.0562283099">
        <ele>862.92</ele>
        <time>2020-09-06T17:19:37Z</time>
      </trkpt>
      <trkpt lat="37.5194458757" lon="-3.0561929382">
        <ele>862.92</ele>
        <time>2020-09-06T17:19:38Z</time>
      </trkpt>
      <trkpt lat="37.5195074826" lon="-3.0561886635">
        <ele>862.44</ele>
        <time>2020-09-06T17:19:39Z</time>
      </trkpt>
      <trkpt lat="37.5195663236" lon="-3.0562126357">
        <ele>862.44</ele>
        <time>2020-09-06T17:19:40Z</time>
      </trkpt>
      <trkpt lat="37.5196187105" lon="-3.0562566407">
        <ele>862.44</ele>
        <time>2020-09-06T17:19:41Z</time>
      </trkpt>
      <trkpt lat="37.5196653977" lon="-3.0563137215">
        <ele>862.44</ele>
        <time>2020-09-06T17:19:42Z</time>
      </trkpt>
      <trkpt lat="37.5197104923" lon="-3.0563820340">
        <ele>862.44</ele>
        <time>2020-09-06T17:19:43Z</time>
      </trkpt>
      <trkpt lat="37.5197547488" lon="-3.0564479996">
        <ele>861.96</ele>
        <time>2020-09-06T17:19:44Z</time>
      </trkpt>
      <trkpt lat="37.5198054593" lon="-3.0565045774">
        <ele>861.96</ele>
        <time>2020-09-06T17:19:45Z</time>
      </trkpt>
      <trkpt lat="37.5198631268" lon="-3.0565570481">
        <ele>861.96</ele>
        <time>2020-09-06T17:19:46Z</time>
      </trkpt>
      <trkpt lat="37.5202281587" lon="-3.0568883009">
        <ele>859.56</ele>
        <time>2020-09-06T17:19:52Z</time>
      </trkpt>
      <trkpt lat="37.5204947870" lon="-3.0570678413">
        <ele>859.56</ele>
        <time>2020-09-06T17:19:56Z</time>
      </trkpt>
      <trkpt lat="37.5205532089" lon="-3.0571296159">
        <ele>859.56</ele>
        <time>2020-09-06T17:19:57Z</time>
      </trkpt>
      <trkpt lat="37.5208839588" lon="-3.0573862698">
        <ele>861.00</ele>
        <time>2020-09-06T17:20:04Z</time>
      </trkpt>
      <trkpt lat="37.5211732183" lon="-3.0574681610">
        <ele>861.00</ele>
        <time>2020-09-06T17:20:09Z</time>
      </trkpt>
      <trkpt lat="37.5212354958" lon="-3.0574558396">
        <ele>861.00</ele>
        <time>2020-09-06T17:20:10Z</time>
      </trkpt>
      <trkpt lat="37.5213040598" lon="-3.0574243236">
        <ele>861.00</ele>
        <time>2020-09-06T17:20:11Z</time>
      </trkpt>
      <trkpt lat="37.5213717856" lon="-3.0573788099">
        <ele>859.56</ele>
        <time>2020-09-06T17:20:12Z</time>
      </trkpt>
      <trkpt lat="37.5214414392" lon="-3.0573252495">
        <ele>859.08</ele>
        <time>2020-09-06T17:20:13Z</time>
      </trkpt>
      <trkpt lat="37.5215916429" lon="-3.0572229065">
        <ele>858.11</ele>
        <time>2020-09-06T17:20:15Z</time>
      </trkpt>
      <trkpt lat="37.5217451155" lon="-3.0571519956">
        <ele>856.67</ele>
        <time>2020-09-06T17:20:17Z</time>
      </trkpt>
      <trkpt lat="37.5218967441" lon="-3.0571043864">
        <ele>856.67</ele>
        <time>2020-09-06T17:20:19Z</time>
      </trkpt>
      <trkpt lat="37.5219715107" lon="-3.0570945796">
        <ele>856.67</ele>
        <time>2020-09-06T17:20:20Z</time>
      </trkpt>
      <trkpt lat="37.5224329345" lon="-3.0570581183">
        <ele>854.27</ele>
        <time>2020-09-06T17:20:26Z</time>
      </trkpt>
      <trkpt lat="37.5225077011" lon="-3.0570325535">
        <ele>853.79</ele>
        <time>2020-09-06T17:20:27Z</time>
      </trkpt>
      <trkpt lat="37.5225910172" lon="-3.0569934100">
        <ele>852.83</ele>
        <time>2020-09-06T17:20:28Z</time>
      </trkpt>
      <trkpt lat="37.5227702223" lon="-3.0569149554">
        <ele>851.38</ele>
        <time>2020-09-06T17:20:30Z</time>
      </trkpt>
      <trkpt lat="37.5231862999" lon="-3.0568309687">
        <ele>850.42</ele>
        <time>2020-09-06T17:20:35Z</time>
      </trkpt>
      <trkpt lat="37.5232608151" lon="-3.0568020511">
        <ele>850.42</ele>
        <time>2020-09-06T17:20:36Z</time>
      </trkpt>
      <trkpt lat="37.5236894656" lon="-3.0566639174">
        <ele>848.50</ele>
        <time>2020-09-06T17:20:42Z</time>
      </trkpt>
      <trkpt lat="37.5237679202" lon="-3.0566695333">
        <ele>848.50</ele>
        <time>2020-09-06T17:20:43Z</time>
      </trkpt>
      <trkpt lat="37.5238368195" lon="-3.0566896498">
        <ele>848.02</ele>
        <time>2020-09-06T17:20:44Z</time>
      </trkpt>
      <trkpt lat="37.5238974206" lon="-3.0567225069">
        <ele>848.02</ele>
        <time>2020-09-06T17:20:45Z</time>
      </trkpt>
      <trkpt lat="37.5239530765" lon="-3.0567610636">
        <ele>848.02</ele>
        <time>2020-09-06T17:20:46Z</time>
      </trkpt>
      <trkpt lat="37.5242210459" lon="-3.0569262709">
        <ele>849.46</ele>
        <time>2020-09-06T17:20:51Z</time>
      </trkpt>
      <trkpt lat="37.5243885163" lon="-3.0569760595">
        <ele>849.46</ele>
        <time>2020-09-06T17:20:54Z</time>
      </trkpt>
      <trkpt lat="37.5244429987" lon="-3.0569797475">
        <ele>849.46</ele>
        <time>2020-09-06T17:20:55Z</time>
      </trkpt>
      <trkpt lat="37.5249944441" lon="-3.0570900533">
        <ele>851.87</ele>
        <time>2020-09-06T17:21:07Z</time>
      </trkpt>
      <trkpt lat="37.5256274454" lon="-3.0569642410">
        <ele>854.27</ele>
        <time>2020-09-06T17:21:24Z</time>
      </trkpt>
      <trkpt lat="37.5263017695" lon="-3.0568128638">
        <ele>856.67</ele>
        <time>2020-09-06T17:21:42Z</time>
      </trkpt>
      <trkpt lat="37.5268645305" lon="-3.0565500073">
        <ele>857.15</ele>
        <time>2020-09-06T17:21:55Z</time>
      </trkpt>
      <trkpt lat="37.5273667742" lon="-3.0567027256">
        <ele>860.04</ele>
        <time>2020-09-06T17:22:09Z</time>
      </trkpt>
      <trkpt lat="37.5276958477" lon="-3.0568846967">
        <ele>861.00</ele>
        <time>2020-09-06T17:22:17Z</time>
      </trkpt>
      <trkpt lat="37.5277898926" lon="-3.0569242593">
        <ele>859.56</ele>
        <time>2020-09-06T17:22:19Z</time>
      </trkpt>
      <trkpt lat="37.5278423633" lon="-3.0569323059">
        <ele>859.56</ele>
        <time>2020-09-06T17:22:20Z</time>
      </trkpt>
      <trkpt lat="37.5278982706" lon="-3.0569270253">
        <ele>859.08</ele>
        <time>2020-09-06T17:22:21Z</time>
      </trkpt>
      <trkpt lat="37.5279484782" lon="-3.0568980239">
        <ele>858.59</ele>
        <time>2020-09-06T17:22:22Z</time>
      </trkpt>
      <trkpt lat="37.5279930700" lon="-3.0568463914">
        <ele>858.59</ele>
        <time>2020-09-06T17:22:23Z</time>
      </trkpt>
      <trkpt lat="37.5280235801" lon="-3.0567852873">
        <ele>857.63</ele>
        <time>2020-09-06T17:22:24Z</time>
      </trkpt>
      <trkpt lat="37.5280452892" lon="-3.0567091797">
        <ele>857.63</ele>
        <time>2020-09-06T17:22:25Z</time>
      </trkpt>
      <trkpt lat="37.5280589517" lon="-3.0566260312">
        <ele>856.67</ele>
        <time>2020-09-06T17:22:26Z</time>
      </trkpt>
      <trkpt lat="37.5280675013" lon="-3.0565357581">
        <ele>856.19</ele>
        <time>2020-09-06T17:22:27Z</time>
      </trkpt>
      <trkpt lat="37.5280994363" lon="-3.0563486740">
        <ele>854.27</ele>
        <time>2020-09-06T17:22:29Z</time>
      </trkpt>
      <trkpt lat="37.5281328801" lon="-3.0562541261">
        <ele>854.27</ele>
        <time>2020-09-06T17:22:30Z</time>
      </trkpt>
      <trkpt lat="37.5281775557" lon="-3.0561838020">
        <ele>852.83</ele>
        <time>2020-09-06T17:22:31Z</time>
      </trkpt>
      <trkpt lat="37.5282394141" lon="-3.0561263021">
        <ele>852.83</ele>
        <time>2020-09-06T17:22:32Z</time>
      </trkpt>
      <trkpt lat="37.5283148512" lon="-3.0560880806">
        <ele>851.87</ele>
        <time>2020-09-06T17:22:33Z</time>
      </trkpt>
      <trkpt lat="37.5283978321" lon="-3.0560681317">
        <ele>851.87</ele>
        <time>2020-09-06T17:22:34Z</time>
      </trkpt>
      <trkpt lat="37.5284818187" lon="-3.0560548883">
        <ele>850.90</ele>
        <time>2020-09-06T17:22:35Z</time>
      </trkpt>
      <trkpt lat="37.5287805498" lon="-3.0559723265">
        <ele>850.42</ele>
        <time>2020-09-06T17:22:39Z</time>
      </trkpt>
      <trkpt lat="37.5288442522" lon="-3.0559359491">
        <ele>850.42</ele>
        <time>2020-09-06T17:22:40Z</time>
      </trkpt>
      <trkpt lat="37.5293471664" lon="-3.0555882677">
        <ele>848.50</ele>
        <time>2020-09-06T17:22:48Z</time>
      </trkpt>
      <trkpt lat="37.5294205081" lon="-3.0555678997">
        <ele>848.50</ele>
        <time>2020-09-06T17:22:49Z</time>
      </trkpt>
      <trkpt lat="37.5294964481" lon="-3.0555555783">
        <ele>847.54</ele>
        <time>2020-09-06T17:22:50Z</time>
      </trkpt>
      <trkpt lat="37.5295760762" lon="-3.0555451848">
        <ele>847.06</ele>
        <time>2020-09-06T17:22:51Z</time>
      </trkpt>
      <trkpt lat="37.5296572130" lon="-3.0555197038">
        <ele>847.06</ele>
        <time>2020-09-06T17:22:52Z</time>
      </trkpt>
      <trkpt lat="37.5297314767" lon="-3.0554785486">
        <ele>846.10</ele>
        <time>2020-09-06T17:22:53Z</time>
      </trkpt>
      <trkpt lat="37.5297984481" lon="-3.0554253235">
        <ele>845.62</ele>
        <time>2020-09-06T17:22:54Z</time>
      </trkpt>
      <trkpt lat="37.5298630726" lon="-3.0553667340">
        <ele>845.62</ele>
        <time>2020-09-06T17:22:55Z</time>
      </trkpt>
      <trkpt lat="37.5299272779" lon="-3.0553146824">
        <ele>845.62</ele>
        <time>2020-09-06T17:22:56Z</time>
      </trkpt>
      <trkpt lat="37.5303448644" lon="-3.0551059730">
        <ele>848.50</ele>
        <time>2020-09-06T17:23:04Z</time>
      </trkpt>
      <trkpt lat="37.5305173639" lon="-3.0551260058">
        <ele>850.42</ele>
        <time>2020-09-06T17:23:09Z</time>
      </trkpt>
      <trkpt lat="37.5308018457" lon="-3.0552778021">
        <ele>852.83</ele>
        <time>2020-09-06T17:23:21Z</time>
      </trkpt>
      <trkpt lat="37.5308780372" lon="-3.0552531593">
        <ele>852.83</ele>
        <time>2020-09-06T17:23:23Z</time>
      </trkpt>
      <trkpt lat="37.5310003292" lon="-3.0552425142">
        <ele>852.83</ele>
        <time>2020-09-06T17:23:26Z</time>
      </trkpt>
      <trkpt lat="37.5310408138" lon="-3.0552465376">
        <ele>852.83</ele>
        <time>2020-09-06T17:23:27Z</time>
      </trkpt>
      <trkpt lat="37.5314358529" lon="-3.0551915523">
        <ele>853.79</ele>
        <time>2020-09-06T17:23:37Z</time>
      </trkpt>
      <trkpt lat="37.5316665228" lon="-3.0550701823">
        <ele>854.27</ele>
        <time>2020-09-06T17:23:43Z</time>
      </trkpt>
      <trkpt lat="37.5316994637" lon="-3.0550378282">
        <ele>854.27</ele>
        <time>2020-09-06T17:23:44Z</time>
      </trkpt>
      <trkpt lat="37.5317287166" lon="-3.0549999420">
        <ele>854.27</ele>
        <time>2020-09-06T17:23:45Z</time>
      </trkpt>
      <trkpt lat="37.5317841209" lon="-3.0549136084">
        <ele>854.27</ele>
        <time>2020-09-06T17:23:47Z</time>
      </trkpt>
      <trkpt lat="37.5318114460" lon="-3.0548619758">
        <ele>854.27</ele>
        <time>2020-09-06T17:23:48Z</time>
      </trkpt>
      <trkpt lat="37.5318366755" lon="-3.0548105109">
        <ele>854.27</ele>
        <time>2020-09-06T17:23:49Z</time>
      </trkpt>
      <trkpt lat="37.5319126155" lon="-3.0546385143">
        <ele>852.83</ele>
        <time>2020-09-06T17:23:52Z</time>
      </trkpt>
      <trkpt lat="37.5321081653" lon="-3.0542444810">
        <ele>850.42</ele>
        <time>2020-09-06T17:23:58Z</time>
      </trkpt>
      <trkpt lat="37.5321359932" lon="-3.0541679543">
        <ele>850.42</ele>
        <time>2020-09-06T17:23:59Z</time>
      </trkpt>
      <trkpt lat="37.5321872067" lon="-3.0540017411">
        <ele>848.98</ele>
        <time>2020-09-06T17:24:01Z</time>
      </trkpt>
      <trkpt lat="37.5322085805" lon="-3.0539092049">
        <ele>848.98</ele>
        <time>2020-09-06T17:24:02Z</time>
      </trkpt>
      <trkpt lat="37.5323129352" lon="-3.0535355397">
        <ele>847.06</ele>
        <time>2020-09-06T17:24:06Z</time>
      </trkpt>
      <trkpt lat="37.5324200559" lon="-3.0533106532">
        <ele>847.06</ele>
        <time>2020-09-06T17:24:09Z</time>
      </trkpt>
      <trkpt lat="37.5326118339" lon="-3.0530771334">
        <ele>848.98</ele>
        <time>2020-09-06T17:24:14Z</time>
      </trkpt>
      <trkpt lat="37.5328720082" lon="-3.0528359860">
        <ele>851.87</ele>
        <time>2020-09-06T17:24:22Z</time>
      </trkpt>
      <trkpt lat="37.5332020875" lon="-3.0526321381">
        <ele>855.23</ele>
        <time>2020-09-06T17:24:35Z</time>
      </trkpt>
      <trkpt lat="37.5335866492" lon="-3.0525135342">
        <ele>856.19</ele>
        <time>2020-09-06T17:24:48Z</time>
      </trkpt>
      <trkpt lat="37.5338696223" lon="-3.0526209902">
        <ele>858.11</ele>
        <time>2020-09-06T17:24:58Z</time>
      </trkpt>
      <trkpt lat="37.5342300441" lon="-3.0527741276">
        <ele>858.11</ele>
        <time>2020-09-06T17:25:09Z</time>
      </trkpt>
      <trkpt lat="37.5342819281" lon="-3.0527919810">
        <ele>858.11</ele>
        <time>2020-09-06T17:25:10Z</time>
      </trkpt>
      <trkpt lat="37.5344364904" lon="-3.0528446194">
        <ele>857.63</ele>
        <time>2020-09-06T17:25:13Z</time>
      </trkpt>
      <trkpt lat="37.5345746242" lon="-3.0528955813">
        <ele>857.63</ele>
        <time>2020-09-06T17:25:16Z</time>
      </trkpt>
      <trkpt lat="37.5346186291" lon="-3.0529010296">
        <ele>857.63</ele>
        <time>2020-09-06T17:25:17Z</time>
      </trkpt>
      <trkpt lat="37.5350354612" lon="-3.0530195497">
        <ele>859.56</ele>
        <time>2020-09-06T17:25:28Z</time>
      </trkpt>
      <trkpt lat="37.5350815617" lon="-3.0530076474">
        <ele>859.56</ele>
        <time>2020-09-06T17:25:29Z</time>
      </trkpt>
      <trkpt lat="37.5351300091" lon="-3.0529846810">
        <ele>859.56</ele>
        <time>2020-09-06T17:25:30Z</time>
      </trkpt>
      <trkpt lat="37.5351803843" lon="-3.0529554281">
        <ele>859.56</ele>
        <time>2020-09-06T17:25:31Z</time>
      </trkpt>
      <trkpt lat="37.5352280773" lon="-3.0529171228">
        <ele>858.11</ele>
        <time>2020-09-06T17:25:32Z</time>
      </trkpt>
      <trkpt lat="37.5352704059" lon="-3.0528685078">
        <ele>858.11</ele>
        <time>2020-09-06T17:25:33Z</time>
      </trkpt>
      <trkpt lat="37.5353079569" lon="-3.0528138578">
        <ele>858.11</ele>
        <time>2020-09-06T17:25:34Z</time>
      </trkpt>
      <trkpt lat="37.5353419036" lon="-3.0527586211">
        <ele>858.11</ele>
        <time>2020-09-06T17:25:35Z</time>
      </trkpt>
      <trkpt lat="37.5355810393" lon="-3.0524541903">
        <ele>857.63</ele>
        <time>2020-09-06T17:25:42Z</time>
      </trkpt>
      <trkpt lat="37.5356155727" lon="-3.0524214171">
        <ele>859.08</ele>
        <time>2020-09-06T17:25:43Z</time>
      </trkpt>
      <trkpt lat="37.5356506929" lon="-3.0523907393">
        <ele>859.08</ele>
        <time>2020-09-06T17:25:44Z</time>
      </trkpt>
      <trkpt lat="37.5357182510" lon="-3.0523322336">
        <ele>859.08</ele>
        <time>2020-09-06T17:25:46Z</time>
      </trkpt>
      <trkpt lat="37.5360117853" lon="-3.0517263059">
        <ele>860.04</ele>
        <time>2020-09-06T17:26:00Z</time>
      </trkpt>
      <trkpt lat="37.5360425469" lon="-3.0513904430">
        <ele>860.52</ele>
        <time>2020-09-06T17:26:06Z</time>
      </trkpt>
      <trkpt lat="37.5360521860" lon="-3.0513306800">
        <ele>860.52</ele>
        <time>2020-09-06T17:26:07Z</time>
      </trkpt>
      <trkpt lat="37.5360703748" lon="-3.0512774549">
        <ele>860.52</ele>
        <time>2020-09-06T17:26:08Z</time>
      </trkpt>
      <trkpt lat="37.5360955205" lon="-3.0512291752">
        <ele>860.52</ele>
        <time>2020-09-06T17:26:09Z</time>
      </trkpt>
      <trkpt lat="37.5361206662" lon="-3.0511823203">
        <ele>860.52</ele>
        <time>2020-09-06T17:26:10Z</time>
      </trkpt>
      <trkpt lat="37.5362121966" lon="-3.0509987567">
        <ele>860.52</ele>
        <time>2020-09-06T17:26:14Z</time>
      </trkpt>
      <trkpt lat="37.5362471491" lon="-3.0509641394">
        <ele>860.52</ele>
        <time>2020-09-06T17:26:15Z</time>
      </trkpt>
      <trkpt lat="37.5362873822" lon="-3.0509352218">
        <ele>860.52</ele>
        <time>2020-09-06T17:26:16Z</time>
      </trkpt>
      <trkpt lat="37.5363287888" lon="-3.0509118363">
        <ele>860.52</ele>
        <time>2020-09-06T17:26:17Z</time>
      </trkpt>
      <trkpt lat="37.5363718718" lon="-3.0508920550">
        <ele>860.52</ele>
        <time>2020-09-06T17:26:18Z</time>
      </trkpt>
      <trkpt lat="37.5364167988" lon="-3.0508688372">
        <ele>860.52</ele>
        <time>2020-09-06T17:26:19Z</time>
      </trkpt>
      <trkpt lat="37.5366682559" lon="-3.0507522449">
        <ele>860.52</ele>
        <time>2020-09-06T17:26:25Z</time>
      </trkpt>
      <trkpt lat="37.5372710824" lon="-3.0505017936">
        <ele>861.00</ele>
        <time>2020-09-06T17:26:39Z</time>
      </trkpt>
      <trkpt lat="37.5374099705" lon="-3.0504182260">
        <ele>861.00</ele>
        <time>2020-09-06T17:26:42Z</time>
      </trkpt>
      <trkpt lat="37.5374512095" lon="-3.0503816810">
        <ele>861.00</ele>
        <time>2020-09-06T17:26:43Z</time>
      </trkpt>
      <trkpt lat="37.5378010701" lon="-3.0501199979">
        <ele>861.00</ele>
        <time>2020-09-06T17:26:54Z</time>
      </trkpt>
      <trkpt lat="37.5379425567" lon="-3.0500710476">
        <ele>859.56</ele>
        <time>2020-09-06T17:26:57Z</time>
      </trkpt>
      <trkpt lat="37.5379919261" lon="-3.0500369333">
        <ele>859.56</ele>
        <time>2020-09-06T17:26:58Z</time>
      </trkpt>
      <trkpt lat="37.5380417146" lon="-3.0500032380">
        <ele>858.59</ele>
        <time>2020-09-06T17:26:59Z</time>
      </trkpt>
      <trkpt lat="37.5380941015" lon="-3.0499661900">
        <ele>858.59</ele>
        <time>2020-09-06T17:27:00Z</time>
      </trkpt>
      <trkpt lat="37.5381448120" lon="-3.0499221012">
        <ele>858.59</ele>
        <time>2020-09-06T17:27:01Z</time>
      </trkpt>
      <trkpt lat="37.5381976180" lon="-3.0498744920">
        <ele>858.11</ele>
        <time>2020-09-06T17:27:02Z</time>
      </trkpt>
      <trkpt lat="37.5383125339" lon="-3.0497621745">
        <ele>857.15</ele>
        <time>2020-09-06T17:27:04Z</time>
      </trkpt>
      <trkpt lat="37.5383641664" lon="-3.0496923532">
        <ele>856.19</ele>
        <time>2020-09-06T17:27:05Z</time>
      </trkpt>
      <trkpt lat="37.5384082552" lon="-3.0496195145">
        <ele>856.19</ele>
        <time>2020-09-06T17:27:06Z</time>
      </trkpt>
      <trkpt lat="37.5384971872" lon="-3.0494854879">
        <ele>855.71</ele>
        <time>2020-09-06T17:27:08Z</time>
      </trkpt>
      <trkpt lat="37.5385473948" lon="-3.0494475178">
        <ele>855.23</ele>
        <time>2020-09-06T17:27:09Z</time>
      </trkpt>
      <trkpt lat="37.5385945011" lon="-3.0494386330">
        <ele>855.23</ele>
        <time>2020-09-06T17:27:10Z</time>
      </trkpt>
      <trkpt lat="37.5386322197" lon="-3.0494558997">
        <ele>855.23</ele>
        <time>2020-09-06T17:27:11Z</time>
      </trkpt>
      <trkpt lat="37.5386637356" lon="-3.0494906846">
        <ele>855.23</ele>
        <time>2020-09-06T17:27:12Z</time>
      </trkpt>
      <trkpt lat="37.5386856962" lon="-3.0495398864">
        <ele>854.75</ele>
        <time>2020-09-06T17:27:13Z</time>
      </trkpt>
      <trkpt lat="37.5386985205" lon="-3.0496026669">
        <ele>854.75</ele>
        <time>2020-09-06T17:27:14Z</time>
      </trkpt>
      <trkpt lat="37.5387037173" lon="-3.0496701412">
        <ele>854.27</ele>
        <time>2020-09-06T17:27:15Z</time>
      </trkpt>
      <trkpt lat="37.5387060642" lon="-3.0497421417">
        <ele>853.79</ele>
        <time>2020-09-06T17:27:16Z</time>
      </trkpt>
      <trkpt lat="37.5387046393" lon="-3.0498195067">
        <ele>853.31</ele>
        <time>2020-09-06T17:27:17Z</time>
      </trkpt>
      <trkpt lat="37.5387020409" lon="-3.0499030743">
        <ele>853.31</ele>
        <time>2020-09-06T17:27:18Z</time>
      </trkpt>
      <trkpt lat="37.5387121830" lon="-3.0499766674">
        <ele>852.35</ele>
        <time>2020-09-06T17:27:19Z</time>
      </trkpt>
      <trkpt lat="37.5387406815" lon="-3.0500439741">
        <ele>852.35</ele>
        <time>2020-09-06T17:27:20Z</time>
      </trkpt>
      <trkpt lat="37.5387908053" lon="-3.0500909127">
        <ele>851.87</ele>
        <time>2020-09-06T17:27:21Z</time>
      </trkpt>
      <trkpt lat="37.5388510711" lon="-3.0501008034">
        <ele>851.87</ele>
        <time>2020-09-06T17:27:22Z</time>
      </trkpt>
      <trkpt lat="37.5389079005" lon="-3.0500767473">
        <ele>850.42</ele>
        <time>2020-09-06T17:27:23Z</time>
      </trkpt>
      <trkpt lat="37.5389565155" lon="-3.0500268750">
        <ele>849.94</ele>
        <time>2020-09-06T17:27:24Z</time>
      </trkpt>
      <trkpt lat="37.5389911328" lon="-3.0499623343">
        <ele>849.94</ele>
        <time>2020-09-06T17:27:25Z</time>
      </trkpt>
      <trkpt lat="37.5390130933" lon="-3.0498924293">
        <ele>849.94</ele>
        <time>2020-09-06T17:27:26Z</time>
      </trkpt>
      <trkpt lat="37.5390317850" lon="-3.0498219375">
        <ele>849.46</ele>
        <time>2020-09-06T17:27:27Z</time>
      </trkpt>
      <trkpt lat="37.5390938949" lon="-3.0496114679">
        <ele>849.46</ele>
        <time>2020-09-06T17:27:30Z</time>
      </trkpt>
      <trkpt lat="37.5391233992" lon="-3.0495410599">
        <ele>848.50</ele>
        <time>2020-09-06T17:27:31Z</time>
      </trkpt>
      <trkpt lat="37.5391620398" lon="-3.0494744238">
        <ele>848.50</ele>
        <time>2020-09-06T17:27:32Z</time>
      </trkpt>
      <trkpt lat="37.5392627902" lon="-3.0493481085">
        <ele>847.06</ele>
        <time>2020-09-06T17:27:34Z</time>
      </trkpt>
      <trkpt lat="37.5393249840" lon="-3.0492931232">
        <ele>847.06</ele>
        <time>2020-09-06T17:27:35Z</time>
      </trkpt>
      <trkpt lat="37.5394580886" lon="-3.0492005032">
        <ele>845.62</ele>
        <time>2020-09-06T17:27:37Z</time>
      </trkpt>
      <trkpt lat="37.5395283289" lon="-3.0491657183">
        <ele>844.18</ele>
        <time>2020-09-06T17:27:38Z</time>
      </trkpt>
      <trkpt lat="37.5396766886" lon="-3.0491116550">
        <ele>843.69</ele>
        <time>2020-09-06T17:27:40Z</time>
      </trkpt>
      <trkpt lat="37.5399076939" lon="-3.0490342900">
        <ele>841.77</ele>
        <time>2020-09-06T17:27:43Z</time>
      </trkpt>
      <trkpt lat="37.5402355101" lon="-3.0489130039">
        <ele>839.37</ele>
        <time>2020-09-06T17:27:47Z</time>
      </trkpt>
      <trkpt lat="37.5406685192" lon="-3.0486801546">
        <ele>836.48</ele>
        <time>2020-09-06T17:27:52Z</time>
      </trkpt>
      <trkpt lat="37.5407412741" lon="-3.0486115906">
        <ele>836.00</ele>
        <time>2020-09-06T17:27:53Z</time>
      </trkpt>
      <trkpt lat="37.5408050604" lon="-3.0485347286">
        <ele>835.52</ele>
        <time>2020-09-06T17:27:54Z</time>
      </trkpt>
      <trkpt lat="37.5411682483" lon="-3.0480788369">
        <ele>833.60</ele>
        <time>2020-09-06T17:28:00Z</time>
      </trkpt>
      <trkpt lat="37.5412328728" lon="-3.0480247736">
        <ele>832.64</ele>
        <time>2020-09-06T17:28:01Z</time>
      </trkpt>
      <trkpt lat="37.5413002633" lon="-3.0479887314">
        <ele>832.64</ele>
        <time>2020-09-06T17:28:02Z</time>
      </trkpt>
      <trkpt lat="37.5413743593" lon="-3.0479694530">
        <ele>831.68</ele>
        <time>2020-09-06T17:28:03Z</time>
      </trkpt>
      <trkpt lat="37.5414562505" lon="-3.0479572155">
        <ele>830.72</ele>
        <time>2020-09-06T17:28:04Z</time>
      </trkpt>
      <trkpt lat="37.5417748466" lon="-3.0479401164">
        <ele>827.83</ele>
        <time>2020-09-06T17:28:08Z</time>
      </trkpt>
      <trkpt lat="37.5418211985" lon="-3.0479534436">
        <ele>827.83</ele>
        <time>2020-09-06T17:28:09Z</time>
      </trkpt>
      <trkpt lat="37.5418550614" lon="-3.0479638372">
        <ele>826.87</ele>
        <time>2020-09-06T17:28:10Z</time>
      </trkpt>
      <trkpt lat="37.5418812968" lon="-3.0479643401">
        <ele>825.91</ele>
        <time>2020-09-06T17:28:11Z</time>
      </trkpt>
      <trkpt lat="37.5418934505" lon="-3.0479604006">
        <ele>825.91</ele>
        <time>2020-09-06T17:28:12Z</time>
      </trkpt>
      <trkpt lat="37.5418882538" lon="-3.0479630828">
        <ele>825.91</ele>
        <time>2020-09-06T17:28:31Z</time>
      </trkpt>
      <trkpt lat="37.5418879185" lon="-3.0479691178">
        <ele>826.39</ele>
        <time>2020-09-06T17:29:07Z</time>
      </trkpt>
      <trkpt lat="37.5418965518" lon="-3.0479764100">
        <ele>825.43</ele>
        <time>2020-09-06T17:29:28Z</time>
      </trkpt>
      <trkpt lat="37.5419417303" lon="-3.0480012204">
        <ele>825.43</ele>
        <time>2020-09-06T17:29:30Z</time>
      </trkpt>
      <trkpt lat="37.5419848133" lon="-3.0480228458">
        <ele>824.47</ele>
        <time>2020-09-06T17:29:31Z</time>
      </trkpt>
      <trkpt lat="37.5420630164" lon="-3.0480708741">
        <ele>823.99</ele>
        <time>2020-09-06T17:29:33Z</time>
      </trkpt>
      <trkpt lat="37.5421030819" lon="-3.0481097661">
        <ele>823.03</ele>
        <time>2020-09-06T17:29:34Z</time>
      </trkpt>
      <trkpt lat="37.5421287306" lon="-3.0481626559">
        <ele>822.06</ele>
        <time>2020-09-06T17:29:35Z</time>
      </trkpt>
      <trkpt lat="37.5421370286" lon="-3.0482229218">
        <ele>822.06</ele>
        <time>2020-09-06T17:29:36Z</time>
      </trkpt>
      <trkpt lat="37.5421258807" lon="-3.0482861213">
        <ele>820.62</ele>
        <time>2020-09-06T17:29:37Z</time>
      </trkpt>
      <trkpt lat="37.5420967955" lon="-3.0483526736">
        <ele>820.62</ele>
        <time>2020-09-06T17:29:38Z</time>
      </trkpt>
      <trkpt lat="37.5420689676" lon="-3.0484177172">
        <ele>820.14</ele>
        <time>2020-09-06T17:29:39Z</time>
      </trkpt>
      <trkpt lat="37.5420586579" lon="-3.0484898016">
        <ele>819.18</ele>
        <time>2020-09-06T17:29:40Z</time>
      </trkpt>
      <trkpt lat="37.5420708954" lon="-3.0485667475">
        <ele>819.18</ele>
        <time>2020-09-06T17:29:41Z</time>
      </trkpt>
      <trkpt lat="37.5420968793" lon="-3.0486525781">
        <ele>818.70</ele>
        <time>2020-09-06T17:29:42Z</time>
      </trkpt>
      <trkpt lat="37.5421203487" lon="-3.0487303622">
        <ele>818.22</ele>
        <time>2020-09-06T17:29:43Z</time>
      </trkpt>
      <trkpt lat="37.5421358552" lon="-3.0488042906">
        <ele>818.22</ele>
        <time>2020-09-06T17:29:44Z</time>
      </trkpt>
      <trkpt lat="37.5421586540" lon="-3.0489560869">
        <ele>816.78</ele>
        <time>2020-09-06T17:29:46Z</time>
      </trkpt>
      <trkpt lat="37.5421721488" lon="-3.0490243156">
        <ele>816.30</ele>
        <time>2020-09-06T17:29:47Z</time>
      </trkpt>
      <trkpt lat="37.5422030780" lon="-3.0490646325">
        <ele>816.30</ele>
        <time>2020-09-06T17:29:48Z</time>
      </trkpt>
      <trkpt lat="37.5422428083" lon="-3.0490613636">
        <ele>815.34</ele>
        <time>2020-09-06T17:29:49Z</time>
      </trkpt>
      <trkpt lat="37.5422690436" lon="-3.0490219686">
        <ele>814.85</ele>
        <time>2020-09-06T17:29:50Z</time>
      </trkpt>
      <trkpt lat="37.5422722287" lon="-3.0489622895">
        <ele>814.85</ele>
        <time>2020-09-06T17:29:51Z</time>
      </trkpt>
      <trkpt lat="37.5422584824" lon="-3.0488891993">
        <ele>813.89</ele>
        <time>2020-09-06T17:29:52Z</time>
      </trkpt>
      <trkpt lat="37.5422423892" lon="-3.0488113314">
        <ele>813.41</ele>
        <time>2020-09-06T17:29:53Z</time>
      </trkpt>
      <trkpt lat="37.5422198419" lon="-3.0487315357">
        <ele>812.45</ele>
        <time>2020-09-06T17:29:54Z</time>
      </trkpt>
      <trkpt lat="37.5421967916" lon="-3.0486562662">
        <ele>811.97</ele>
        <time>2020-09-06T17:29:55Z</time>
      </trkpt>
      <trkpt lat="37.5421852246" lon="-3.0485777277">
        <ele>811.49</ele>
        <time>2020-09-06T17:29:56Z</time>
      </trkpt>
      <trkpt lat="37.5421932712" lon="-3.0485022068">
        <ele>811.49</ele>
        <time>2020-09-06T17:29:57Z</time>
      </trkpt>
      <trkpt lat="37.5422198419" lon="-3.0484385043">
        <ele>811.01</ele>
        <time>2020-09-06T17:29:58Z</time>
      </trkpt>
      <trkpt lat="37.5422526989" lon="-3.0483920686">
        <ele>810.05</ele>
        <time>2020-09-06T17:29:59Z</time>
      </trkpt>
      <trkpt lat="37.5422858912" lon="-3.0483615585">
        <ele>809.57</ele>
        <time>2020-09-06T17:30:00Z</time>
      </trkpt>
      <trkpt lat="37.5423228554" lon="-3.0483408552">
        <ele>809.09</ele>
        <time>2020-09-06T17:30:01Z</time>
      </trkpt>
      <trkpt lat="37.5423621666" lon="-3.0483276118">
        <ele>809.09</ele>
        <time>2020-09-06T17:30:02Z</time>
      </trkpt>
      <trkpt lat="37.5424036570" lon="-3.0483137816">
        <ele>808.13</ele>
        <time>2020-09-06T17:30:03Z</time>
      </trkpt>
      <trkpt lat="37.5424485002" lon="-3.0483026337">
        <ele>808.13</ele>
        <time>2020-09-06T17:30:04Z</time>
      </trkpt>
      <trkpt lat="37.5424987078" lon="-3.0482964311">
        <ele>808.13</ele>
        <time>2020-09-06T17:30:05Z</time>
      </trkpt>
      <trkpt lat="37.5428094249" lon="-3.0482276157">
        <ele>806.20</ele>
        <time>2020-09-06T17:30:10Z</time>
      </trkpt>
      <trkpt lat="37.5428746361" lon="-3.0481966026">
        <ele>805.24</ele>
        <time>2020-09-06T17:30:11Z</time>
      </trkpt>
      <trkpt lat="37.5429378357" lon="-3.0481530167">
        <ele>804.76</ele>
        <time>2020-09-06T17:30:12Z</time>
      </trkpt>
      <trkpt lat="37.5429918151" lon="-3.0480937567">
        <ele>804.28</ele>
        <time>2020-09-06T17:30:13Z</time>
      </trkpt>
      <trkpt lat="37.5430442858" lon="-3.0480189063">
        <ele>803.80</ele>
        <time>2020-09-06T17:30:14Z</time>
      </trkpt>
      <trkpt lat="37.5431347266" lon="-3.0478552077">
        <ele>802.84</ele>
        <time>2020-09-06T17:30:16Z</time>
      </trkpt>
      <trkpt lat="37.5432214793" lon="-3.0476647709">
        <ele>800.92</ele>
        <time>2020-09-06T17:30:18Z</time>
      </trkpt>
      <trkpt lat="37.5432778057" lon="-3.0475761741">
        <ele>800.44</ele>
        <time>2020-09-06T17:30:19Z</time>
      </trkpt>
      <trkpt lat="37.5434119161" lon="-3.0474083684">
        <ele>798.51</ele>
        <time>2020-09-06T17:30:21Z</time>
      </trkpt>
      <trkpt lat="37.5434897840" lon="-3.0473255552">
        <ele>797.55</ele>
        <time>2020-09-06T17:30:22Z</time>
      </trkpt>
      <trkpt lat="37.5435572583" lon="-3.0472380482">
        <ele>797.07</ele>
        <time>2020-09-06T17:30:23Z</time>
      </trkpt>
      <trkpt lat="37.5438200310" lon="-3.0468893610">
        <ele>793.71</ele>
        <time>2020-09-06T17:30:27Z</time>
      </trkpt>
      <trkpt lat="37.5438714121" lon="-3.0467917118">
        <ele>792.26</ele>
        <time>2020-09-06T17:30:28Z</time>
      </trkpt>
      <trkpt lat="37.5439093821" lon="-3.0466775503">
        <ele>791.78</ele>
        <time>2020-09-06T17:30:29Z</time>
      </trkpt>
      <trkpt lat="37.5439336896" lon="-3.0465641432">
        <ele>791.30</ele>
        <time>2020-09-06T17:30:30Z</time>
      </trkpt>
      <trkpt lat="37.5439508725" lon="-3.0464478023">
        <ele>790.82</ele>
        <time>2020-09-06T17:30:31Z</time>
      </trkpt>
      <trkpt lat="37.5439788681" lon="-3.0459848698">
        <ele>786.98</ele>
        <time>2020-09-06T17:30:35Z</time>
      </trkpt>
      <trkpt lat="37.5439767726" lon="-3.0457214266">
        <ele>784.57</ele>
        <time>2020-09-06T17:30:38Z</time>
      </trkpt>
      <trkpt lat="37.5440071151" lon="-3.0456523597">
        <ele>784.09</ele>
        <time>2020-09-06T17:30:39Z</time>
      </trkpt>
      <trkpt lat="37.5440618489" lon="-3.0456060916">
        <ele>782.65</ele>
        <time>2020-09-06T17:30:40Z</time>
      </trkpt>
      <trkpt lat="37.5441375375" lon="-3.0455915071">
        <ele>782.17</ele>
        <time>2020-09-06T17:30:41Z</time>
      </trkpt>
      <trkpt lat="37.5442263018" lon="-3.0455842987">
        <ele>781.21</ele>
        <time>2020-09-06T17:30:42Z</time>
      </trkpt>
      <trkpt lat="37.5443154015" lon="-3.0455673672">
        <ele>780.25</ele>
        <time>2020-09-06T17:30:43Z</time>
      </trkpt>
      <trkpt lat="37.5444026571" lon="-3.0455321632">
        <ele>779.29</ele>
        <time>2020-09-06T17:30:44Z</time>
      </trkpt>
      <trkpt lat="37.5444912538" lon="-3.0454749148">
        <ele>778.32</ele>
        <time>2020-09-06T17:30:45Z</time>
      </trkpt>
      <trkpt lat="37.5445590634" lon="-3.0454197619">
        <ele>778.32</ele>
        <time>2020-09-06T17:30:46Z</time>
      </trkpt>
      <trkpt lat="37.5446277112" lon="-3.0453542154">
        <ele>777.84</ele>
        <time>2020-09-06T17:30:47Z</time>
      </trkpt>
      <trkpt lat="37.5447005499" lon="-3.0452769343">
        <ele>777.84</ele>
        <time>2020-09-06T17:30:48Z</time>
      </trkpt>
      <trkpt lat="37.5455102418" lon="-3.0445607845">
        <ele>775.92</ele>
        <time>2020-09-06T17:31:00Z</time>
      </trkpt>
      <trkpt lat="37.5455561746" lon="-3.0444890354">
        <ele>775.92</ele>
        <time>2020-09-06T17:31:01Z</time>
      </trkpt>
      <trkpt lat="37.5455877744" lon="-3.0443958286">
        <ele>775.44</ele>
        <time>2020-09-06T17:31:02Z</time>
      </trkpt>
      <trkpt lat="37.5456010178" lon="-3.0442877859">
        <ele>774.00</ele>
        <time>2020-09-06T17:31:03Z</time>
      </trkpt>
      <trkpt lat="37.5456135906" lon="-3.0441678409">
        <ele>773.52</ele>
        <time>2020-09-06T17:31:04Z</time>
      </trkpt>
      <trkpt lat="37.5456451904" lon="-3.0440633185">
        <ele>772.08</ele>
        <time>2020-09-06T17:31:05Z</time>
      </trkpt>
      <trkpt lat="37.5456927996" lon="-3.0439707823">
        <ele>772.08</ele>
        <time>2020-09-06T17:31:06Z</time>
      </trkpt>
      <trkpt lat="37.5457406603" lon="-3.0438839458">
        <ele>772.08</ele>
        <time>2020-09-06T17:31:07Z</time>
      </trkpt>
      <trkpt lat="37.5457746908" lon="-3.0437998753">
        <ele>772.08</ele>
        <time>2020-09-06T17:31:08Z</time>
      </trkpt>
      <trkpt lat="37.5457870122" lon="-3.0437094346">
        <ele>772.08</ele>
        <time>2020-09-06T17:31:09Z</time>
      </trkpt>
      <trkpt lat="37.5457730982" lon="-3.0436252803">
        <ele>772.08</ele>
        <time>2020-09-06T17:31:10Z</time>
      </trkpt>
      <trkpt lat="37.5457446836" lon="-3.0435447302">
        <ele>772.08</ele>
        <time>2020-09-06T17:31:11Z</time>
      </trkpt>
      <trkpt lat="37.5457264110" lon="-3.0434729811">
        <ele>772.08</ele>
        <time>2020-09-06T17:31:12Z</time>
      </trkpt>
      <trkpt lat="37.5457191188" lon="-3.0433934368">
        <ele>772.08</ele>
        <time>2020-09-06T17:31:13Z</time>
      </trkpt>
      <trkpt lat="37.5457222201" lon="-3.0433089472">
        <ele>772.08</ele>
        <time>2020-09-06T17:31:14Z</time>
      </trkpt>
      <trkpt lat="37.5457632076" lon="-3.0429735035">
        <ele>771.60</ele>
        <time>2020-09-06T17:31:18Z</time>
      </trkpt>
      <trkpt lat="37.5457906164" lon="-3.0428907741">
        <ele>771.11</ele>
        <time>2020-09-06T17:31:19Z</time>
      </trkpt>
      <trkpt lat="37.5458344538" lon="-3.0428132415">
        <ele>771.11</ele>
        <time>2020-09-06T17:31:20Z</time>
      </trkpt>
      <trkpt lat="37.5459378865" lon="-3.0426443461">
        <ele>769.67</ele>
        <time>2020-09-06T17:31:22Z</time>
      </trkpt>
      <trkpt lat="37.5459778681" lon="-3.0425604433">
        <ele>769.67</ele>
        <time>2020-09-06T17:31:23Z</time>
      </trkpt>
      <trkpt lat="37.5461261440" lon="-3.0421767198">
        <ele>767.75</ele>
        <time>2020-09-06T17:31:27Z</time>
      </trkpt>
      <trkpt lat="37.5461522117" lon="-3.0420664977">
        <ele>767.27</ele>
        <time>2020-09-06T17:31:28Z</time>
      </trkpt>
      <trkpt lat="37.5461672153" lon="-3.0419606343">
        <ele>766.79</ele>
        <time>2020-09-06T17:31:29Z</time>
      </trkpt>
      <trkpt lat="37.5462165009" lon="-3.0416548625">
        <ele>766.31</ele>
        <time>2020-09-06T17:31:32Z</time>
      </trkpt>
      <trkpt lat="37.5462491065" lon="-3.0415503401">
        <ele>766.31</ele>
        <time>2020-09-06T17:31:33Z</time>
      </trkpt>
      <trkpt lat="37.5462876633" lon="-3.0414681137">
        <ele>766.31</ele>
        <time>2020-09-06T17:31:34Z</time>
      </trkpt>
      <trkpt lat="37.5463421457" lon="-3.0413980410">
        <ele>765.83</ele>
        <time>2020-09-06T17:31:35Z</time>
      </trkpt>
      <trkpt lat="37.5464079436" lon="-3.0413469113">
        <ele>765.35</ele>
        <time>2020-09-06T17:31:36Z</time>
      </trkpt>
      <trkpt lat="37.5464810338" lon="-3.0413105339">
        <ele>764.87</ele>
        <time>2020-09-06T17:31:37Z</time>
      </trkpt>
      <trkpt lat="37.5465575606" lon="-3.0412810296">
        <ele>764.87</ele>
        <time>2020-09-06T17:31:38Z</time>
      </trkpt>
      <trkpt lat="37.5467659347" lon="-3.0411703885">
        <ele>762.94</ele>
        <time>2020-09-06T17:31:41Z</time>
      </trkpt>
      <trkpt lat="37.5468070898" lon="-3.0411107093">
        <ele>762.46</ele>
        <time>2020-09-06T17:31:42Z</time>
      </trkpt>
      <trkpt lat="37.5468308944" lon="-3.0410351045">
        <ele>762.46</ele>
        <time>2020-09-06T17:31:43Z</time>
      </trkpt>
      <trkpt lat="37.5468287151" lon="-3.0409563147">
        <ele>762.46</ele>
        <time>2020-09-06T17:31:44Z</time>
      </trkpt>
      <trkpt lat="37.5468081795" lon="-3.0408832245">
        <ele>762.46</ele>
        <time>2020-09-06T17:31:45Z</time>
      </trkpt>
      <trkpt lat="37.5467802677" lon="-3.0408154987">
        <ele>762.46</ele>
        <time>2020-09-06T17:31:46Z</time>
      </trkpt>
      <trkpt lat="37.5467361789" lon="-3.0406795442">
        <ele>762.94</ele>
        <time>2020-09-06T17:31:48Z</time>
      </trkpt>
      <trkpt lat="37.5467397831" lon="-3.0406070407">
        <ele>762.94</ele>
        <time>2020-09-06T17:31:49Z</time>
      </trkpt>
      <trkpt lat="37.5467627496" lon="-3.0405384768">
        <ele>762.94</ele>
        <time>2020-09-06T17:31:50Z</time>
      </trkpt>
      <trkpt lat="37.5468065031" lon="-3.0404867604">
        <ele>762.94</ele>
        <time>2020-09-06T17:31:51Z</time>
      </trkpt>
      <trkpt lat="37.5468670204" lon="-3.0404558312">
        <ele>762.94</ele>
        <time>2020-09-06T17:31:52Z</time>
      </trkpt>
      <trkpt lat="37.5469367579" lon="-3.0404357985">
        <ele>762.94</ele>
        <time>2020-09-06T17:31:53Z</time>
      </trkpt>
      <trkpt lat="37.5470166374" lon="-3.0404150113">
        <ele>761.98</ele>
        <time>2020-09-06T17:31:54Z</time>
      </trkpt>
      <trkpt lat="37.5473372452" lon="-3.0403409991">
        <ele>761.98</ele>
        <time>2020-09-06T17:31:59Z</time>
      </trkpt>
      <trkpt lat="37.5474473834" lon="-3.0403066333">
        <ele>763.42</ele>
        <time>2020-09-06T17:32:01Z</time>
      </trkpt>
      <trkpt lat="37.5475520734" lon="-3.0402712617">
        <ele>763.90</ele>
        <time>2020-09-06T17:32:03Z</time>
      </trkpt>
      <trkpt lat="37.5475925580" lon="-3.0402279273">
        <ele>763.90</ele>
        <time>2020-09-06T17:32:04Z</time>
      </trkpt>
      <trkpt lat="37.5476046279" lon="-3.0401657335">
        <ele>763.90</ele>
        <time>2020-09-06T17:32:05Z</time>
      </trkpt>
      <trkpt lat="37.5475925580" lon="-3.0401018634">
        <ele>763.90</ele>
        <time>2020-09-06T17:32:06Z</time>
      </trkpt>
      <trkpt lat="37.5475702621" lon="-3.0400413461">
        <ele>763.90</ele>
        <time>2020-09-06T17:32:07Z</time>
      </trkpt>
      <trkpt lat="37.5475539174" lon="-3.0399790686">
        <ele>763.90</ele>
        <time>2020-09-06T17:32:08Z</time>
      </trkpt>
      <trkpt lat="37.5475521572" lon="-3.0399100017">
        <ele>763.90</ele>
        <time>2020-09-06T17:32:09Z</time>
      </trkpt>
      <trkpt lat="37.5475669093" lon="-3.0398353189">
        <ele>763.90</ele>
        <time>2020-09-06T17:32:10Z</time>
      </trkpt>
      <trkpt lat="37.5475835893" lon="-3.0397694372">
        <ele>763.90</ele>
        <time>2020-09-06T17:32:11Z</time>
      </trkpt>
      <trkpt lat="37.5476401672" lon="-3.0395613145">
        <ele>763.90</ele>
        <time>2020-09-06T17:32:14Z</time>
      </trkpt>
      <trkpt lat="37.5476648100" lon="-3.0394974444">
        <ele>763.90</ele>
        <time>2020-09-06T17:32:15Z</time>
      </trkpt>
      <trkpt lat="37.5476980023" lon="-3.0394280422">
        <ele>763.90</ele>
        <time>2020-09-06T17:32:16Z</time>
      </trkpt>
      <trkpt lat="37.5477292668" lon="-3.0393623281">
        <ele>762.46</ele>
        <time>2020-09-06T17:32:17Z</time>
      </trkpt>
      <trkpt lat="37.5477553345" lon="-3.0392986257">
        <ele>762.46</ele>
        <time>2020-09-06T17:32:18Z</time>
      </trkpt>
      <trkpt lat="37.5477858447" lon="-3.0392330792">
        <ele>762.46</ele>
        <time>2020-09-06T17:32:19Z</time>
      </trkpt>
      <trkpt lat="37.5478285924" lon="-3.0391796865">
        <ele>762.46</ele>
        <time>2020-09-06T17:32:20Z</time>
      </trkpt>
      <trkpt lat="37.5478817336" lon="-3.0391413812">
        <ele>761.98</ele>
        <time>2020-09-06T17:32:21Z</time>
      </trkpt>
      <trkpt lat="37.5479399879" lon="-3.0391095299">
        <ele>761.02</ele>
        <time>2020-09-06T17:32:22Z</time>
      </trkpt>
      <trkpt lat="37.5480082165" lon="-3.0390754156">
        <ele>761.02</ele>
        <time>2020-09-06T17:32:23Z</time>
      </trkpt>
      <trkpt lat="37.5480694883" lon="-3.0390402116">
        <ele>760.54</ele>
        <time>2020-09-06T17:32:24Z</time>
      </trkpt>
      <trkpt lat="37.5481362082" lon="-3.0389865674">
        <ele>760.06</ele>
        <time>2020-09-06T17:32:25Z</time>
      </trkpt>
      <trkpt lat="37.5481937919" lon="-3.0389136449">
        <ele>759.10</ele>
        <time>2020-09-06T17:32:26Z</time>
      </trkpt>
      <trkpt lat="37.5482361205" lon="-3.0388217792">
        <ele>759.10</ele>
        <time>2020-09-06T17:32:27Z</time>
      </trkpt>
      <trkpt lat="37.5482568238" lon="-3.0387216993">
        <ele>758.14</ele>
        <time>2020-09-06T17:32:28Z</time>
      </trkpt>
      <trkpt lat="37.5482638646" lon="-3.0386188533">
        <ele>758.14</ele>
        <time>2020-09-06T17:32:29Z</time>
      </trkpt>
      <trkpt lat="37.5482724141" lon="-3.0385160912">
        <ele>758.14</ele>
        <time>2020-09-06T17:32:30Z</time>
      </trkpt>
      <trkpt lat="37.5482898485" lon="-3.0384178553">
        <ele>757.18</ele>
        <time>2020-09-06T17:32:31Z</time>
      </trkpt>
      <trkpt lat="37.5483166706" lon="-3.0383207928">
        <ele>757.18</ele>
        <time>2020-09-06T17:32:32Z</time>
      </trkpt>
      <trkpt lat="37.5483455881" lon="-3.0382126663">
        <ele>756.21</ele>
        <time>2020-09-06T17:32:33Z</time>
      </trkpt>
      <trkpt lat="37.5483558979" lon="-3.0381129216">
        <ele>755.73</ele>
        <time>2020-09-06T17:32:34Z</time>
      </trkpt>
      <trkpt lat="37.5483539701" lon="-3.0380041245">
        <ele>754.77</ele>
        <time>2020-09-06T17:32:35Z</time>
      </trkpt>
      <trkpt lat="37.5483499467" lon="-3.0378929805">
        <ele>754.29</ele>
        <time>2020-09-06T17:32:36Z</time>
      </trkpt>
      <trkpt lat="37.5483562332" lon="-3.0376736261">
        <ele>753.33</ele>
        <time>2020-09-06T17:32:38Z</time>
      </trkpt>
      <trkpt lat="37.5483719911" lon="-3.0375732947">
        <ele>752.85</ele>
        <time>2020-09-06T17:32:39Z</time>
      </trkpt>
      <trkpt lat="37.5483978074" lon="-3.0374867097">
        <ele>752.37</ele>
        <time>2020-09-06T17:32:40Z</time>
      </trkpt>
      <trkpt lat="37.5484409742" lon="-3.0374204088">
        <ele>751.89</ele>
        <time>2020-09-06T17:32:41Z</time>
      </trkpt>
      <trkpt lat="37.5484926905" lon="-3.0373908207">
        <ele>750.93</ele>
        <time>2020-09-06T17:32:42Z</time>
      </trkpt>
      <trkpt lat="37.5485470891" lon="-3.0373969395">
        <ele>750.45</ele>
        <time>2020-09-06T17:32:43Z</time>
      </trkpt>
      <trkpt lat="37.5485972129" lon="-3.0374394357">
        <ele>749.49</ele>
        <time>2020-09-06T17:32:44Z</time>
      </trkpt>
      <trkpt lat="37.5486359373" lon="-3.0375092570">
        <ele>749.00</ele>
        <time>2020-09-06T17:32:45Z</time>
      </trkpt>
      <trkpt lat="37.5486663636" lon="-3.0375887174">
        <ele>749.00</ele>
        <time>2020-09-06T17:32:46Z</time>
      </trkpt>
      <trkpt lat="37.5487934332" lon="-3.0380366463">
        <ele>747.08</ele>
        <time>2020-09-06T17:32:51Z</time>
      </trkpt>
      <trkpt lat="37.5488341693" lon="-3.0381223094">
        <ele>747.08</ele>
        <time>2020-09-06T17:32:52Z</time>
      </trkpt>
      <trkpt lat="37.5488862209" lon="-3.0382014345">
        <ele>746.12</ele>
        <time>2020-09-06T17:32:53Z</time>
      </trkpt>
      <trkpt lat="37.5489480793" lon="-3.0382695794">
        <ele>745.64</ele>
        <time>2020-09-06T17:32:54Z</time>
      </trkpt>
      <trkpt lat="37.5490197446" lon="-3.0383345392">
        <ele>745.64</ele>
        <time>2020-09-06T17:32:55Z</time>
      </trkpt>
      <trkpt lat="37.5494319666" lon="-3.0386096332">
        <ele>742.28</ele>
        <time>2020-09-06T17:33:00Z</time>
      </trkpt>
      <trkpt lat="37.5495295320" lon="-3.0386435799">
        <ele>741.79</ele>
        <time>2020-09-06T17:33:01Z</time>
      </trkpt>
      <trkpt lat="37.5496306177" lon="-3.0386585835">
        <ele>740.35</ele>
        <time>2020-09-06T17:33:02Z</time>
      </trkpt>
      <trkpt lat="37.5497414265" lon="-3.0386572424">
        <ele>739.39</ele>
        <time>2020-09-06T17:33:03Z</time>
      </trkpt>
      <trkpt lat="37.5501700770" lon="-3.0385964736">
        <ele>735.55</ele>
        <time>2020-09-06T17:33:07Z</time>
      </trkpt>
      <trkpt lat="37.5502746832" lon="-3.0385657120">
        <ele>735.07</ele>
        <time>2020-09-06T17:33:08Z</time>
      </trkpt>
      <trkpt lat="37.5503779482" lon="-3.0385175999">
        <ele>734.10</ele>
        <time>2020-09-06T17:33:09Z</time>
      </trkpt>
      <trkpt lat="37.5504670478" lon="-3.0384570826">
        <ele>734.10</ele>
        <time>2020-09-06T17:33:10Z</time>
      </trkpt>
      <trkpt lat="37.5505464245" lon="-3.0383860040">
        <ele>734.10</ele>
        <time>2020-09-06T17:33:11Z</time>
      </trkpt>
      <trkpt lat="37.5506189279" lon="-3.0383129138">
        <ele>734.10</ele>
        <time>2020-09-06T17:33:12Z</time>
      </trkpt>
      <trkpt lat="37.5512258615" lon="-3.0378125142">
        <ele>731.22</ele>
        <time>2020-09-06T17:33:20Z</time>
      </trkpt>
      <trkpt lat="37.5514914840" lon="-3.0376402661">
        <ele>728.82</ele>
        <time>2020-09-06T17:33:23Z</time>
      </trkpt>
      <trkpt lat="37.5515698548" lon="-3.0375613924">
        <ele>728.82</ele>
        <time>2020-09-06T17:33:24Z</time>
      </trkpt>
      <trkpt lat="37.5520813186" lon="-3.0369080231">
        <ele>725.93</ele>
        <time>2020-09-06T17:33:32Z</time>
      </trkpt>
      <trkpt lat="37.5522231404" lon="-3.0367563944">
        <ele>724.97</ele>
        <time>2020-09-06T17:33:34Z</time>
      </trkpt>
      <trkpt lat="37.5523017626" lon="-3.0366993975">
        <ele>724.49</ele>
        <time>2020-09-06T17:33:35Z</time>
      </trkpt>
      <trkpt lat="37.5523835700" lon="-3.0366601702">
        <ele>724.49</ele>
        <time>2020-09-06T17:33:36Z</time>
      </trkpt>
      <trkpt lat="37.5524631981" lon="-3.0366396345">
        <ele>724.49</ele>
        <time>2020-09-06T17:33:37Z</time>
      </trkpt>
      <trkpt lat="37.5526810437" lon="-3.0365928635">
        <ele>724.49</ele>
        <time>2020-09-06T17:33:40Z</time>
      </trkpt>
      <trkpt lat="37.5527351908" lon="-3.0365657900">
        <ele>725.93</ele>
        <time>2020-09-06T17:33:41Z</time>
      </trkpt>
      <trkpt lat="37.5527838059" lon="-3.0365320109">
        <ele>726.41</ele>
        <time>2020-09-06T17:33:42Z</time>
      </trkpt>
      <trkpt lat="37.5528255478" lon="-3.0364916939">
        <ele>726.41</ele>
        <time>2020-09-06T17:33:43Z</time>
      </trkpt>
      <trkpt lat="37.5528641883" lon="-3.0364484433">
        <ele>726.89</ele>
        <time>2020-09-06T17:33:44Z</time>
      </trkpt>
      <trkpt lat="37.5528993085" lon="-3.0364020076">
        <ele>726.89</ele>
        <time>2020-09-06T17:33:45Z</time>
      </trkpt>
      <trkpt lat="37.5529321656" lon="-3.0363474414">
        <ele>727.37</ele>
        <time>2020-09-06T17:33:46Z</time>
      </trkpt>
      <trkpt lat="37.5529629271" lon="-3.0362837389">
        <ele>727.37</ele>
        <time>2020-09-06T17:33:47Z</time>
      </trkpt>
      <trkpt lat="37.5531170703" lon="-3.0359285139">
        <ele>725.93</ele>
        <time>2020-09-06T17:33:52Z</time>
      </trkpt>
      <trkpt lat="37.5533273723" lon="-3.0355606321">
        <ele>724.49</ele>
        <time>2020-09-06T17:33:57Z</time>
      </trkpt>
      <trkpt lat="37.5533779152" lon="-3.0355153698">
        <ele>723.53</ele>
        <time>2020-09-06T17:33:58Z</time>
      </trkpt>
      <trkpt lat="37.5534203276" lon="-3.0354886316">
        <ele>723.05</ele>
        <time>2020-09-06T17:33:59Z</time>
      </trkpt>
      <trkpt lat="37.5534585491" lon="-3.0354829319">
        <ele>723.05</ele>
        <time>2020-09-06T17:34:00Z</time>
      </trkpt>
      <trkpt lat="37.5534923282" lon="-3.0354964267">
        <ele>723.53</ele>
        <time>2020-09-06T17:34:01Z</time>
      </trkpt>
      <trkpt lat="37.5534988660" lon="-3.0355018750">
        <ele>723.53</ele>
        <time>2020-09-06T17:34:10Z</time>
      </trkpt>
      <trkpt lat="37.5535464752" lon="-3.0355955008">
        <ele>723.05</ele>
        <time>2020-09-06T17:34:29Z</time>
      </trkpt>
      <trkpt lat="37.5535487384" lon="-3.0356229097">
        <ele>723.05</ele>
        <time>2020-09-06T17:34:30Z</time>
      </trkpt>
      <trkpt lat="37.5535519235" lon="-3.0356471334">
        <ele>723.05</ele>
        <time>2020-09-06T17:34:31Z</time>
      </trkpt>
      <trkpt lat="37.5535572879" lon="-3.0356640648">
        <ele>723.05</ele>
        <time>2020-09-06T17:34:42Z</time>
      </trkpt>
      <trkpt lat="37.5535625685" lon="-3.0356861930">
        <ele>723.05</ele>
        <time>2020-09-06T17:34:43Z</time>
      </trkpt>
      <trkpt lat="37.5535684358" lon="-3.0357189663">
        <ele>723.05</ele>
        <time>2020-09-06T17:34:44Z</time>
      </trkpt>
      <trkpt lat="37.5536540989" lon="-3.0361286737">
        <ele>720.16</ele>
        <time>2020-09-06T17:34:50Z</time>
      </trkpt>
      <trkpt lat="37.5537091680" lon="-3.0364616029">
        <ele>717.28</ele>
        <time>2020-09-06T17:34:54Z</time>
      </trkpt>
      <trkpt lat="37.5537323859" lon="-3.0365446676">
        <ele>716.32</ele>
        <time>2020-09-06T17:34:55Z</time>
      </trkpt>
      <trkpt lat="37.5537610520" lon="-3.0366267264">
        <ele>715.36</ele>
        <time>2020-09-06T17:34:56Z</time>
      </trkpt>
      <trkpt lat="37.5537944958" lon="-3.0367087852">
        <ele>714.88</ele>
        <time>2020-09-06T17:34:57Z</time>
      </trkpt>
      <trkpt lat="37.5538342260" lon="-3.0367895868">
        <ele>713.92</ele>
        <time>2020-09-06T17:34:58Z</time>
      </trkpt>
      <trkpt lat="37.5538764708" lon="-3.0368687119">
        <ele>713.92</ele>
        <time>2020-09-06T17:34:59Z</time>
      </trkpt>
      <trkpt lat="37.5540567655" lon="-3.0371994618">
        <ele>710.55</ele>
        <time>2020-09-06T17:35:03Z</time>
      </trkpt>
      <trkpt lat="37.5542122498" lon="-3.0374727957">
        <ele>708.63</ele>
        <time>2020-09-06T17:35:06Z</time>
      </trkpt>
      <trkpt lat="37.5545908604" lon="-3.0381913763">
        <ele>704.78</ele>
        <time>2020-09-06T17:35:15Z</time>
      </trkpt>
      <trkpt lat="37.5546322670" lon="-3.0382352136">
        <ele>704.30</ele>
        <time>2020-09-06T17:35:16Z</time>
      </trkpt>
      <trkpt lat="37.5546776969" lon="-3.0382484570">
        <ele>703.82</ele>
        <time>2020-09-06T17:35:17Z</time>
      </trkpt>
      <trkpt lat="37.5547154993" lon="-3.0382217187">
        <ele>702.86</ele>
        <time>2020-09-06T17:35:18Z</time>
      </trkpt>
      <trkpt lat="37.5547331851" lon="-3.0381647218">
        <ele>701.90</ele>
        <time>2020-09-06T17:35:19Z</time>
      </trkpt>
      <trkpt lat="37.5547307543" lon="-3.0380992591">
        <ele>701.90</ele>
        <time>2020-09-06T17:35:20Z</time>
      </trkpt>
      <trkpt lat="37.5547172595" lon="-3.0380308628">
        <ele>700.94</ele>
        <time>2020-09-06T17:35:21Z</time>
      </trkpt>
      <trkpt lat="37.5547058601" lon="-3.0379589461">
        <ele>700.46</ele>
        <time>2020-09-06T17:35:22Z</time>
      </trkpt>
      <trkpt lat="37.5547030941" lon="-3.0378882866">
        <ele>699.50</ele>
        <time>2020-09-06T17:35:23Z</time>
      </trkpt>
      <trkpt lat="37.5547097158" lon="-3.0378277693">
        <ele>698.53</ele>
        <time>2020-09-06T17:35:24Z</time>
      </trkpt>
      <trkpt lat="37.5547272339" lon="-3.0377711076">
        <ele>697.09</ele>
        <time>2020-09-06T17:35:25Z</time>
      </trkpt>
      <trkpt lat="37.5547496136" lon="-3.0377174634">
        <ele>695.65</ele>
        <time>2020-09-06T17:35:26Z</time>
      </trkpt>
      <trkpt lat="37.5547704007" lon="-3.0376630649">
        <ele>694.69</ele>
        <time>2020-09-06T17:35:27Z</time>
      </trkpt>
      <trkpt lat="37.5547827221" lon="-3.0376074091">
        <ele>693.25</ele>
        <time>2020-09-06T17:35:28Z</time>
      </trkpt>
      <trkpt lat="37.5547876675" lon="-3.0375533458">
        <ele>692.29</ele>
        <time>2020-09-06T17:35:29Z</time>
      </trkpt>
      <trkpt lat="37.5547998212" lon="-3.0374466442">
        <ele>689.40</ele>
        <time>2020-09-06T17:35:31Z</time>
      </trkpt>
      <trkpt lat="37.5548201893" lon="-3.0374067463">
        <ele>688.92</ele>
        <time>2020-09-06T17:35:32Z</time>
      </trkpt>
      <trkpt lat="37.5548408926" lon="-3.0374011304">
        <ele>687.96</ele>
        <time>2020-09-06T17:35:33Z</time>
      </trkpt>
      <trkpt lat="37.5548566505" lon="-3.0374173075">
        <ele>687.96</ele>
        <time>2020-09-06T17:35:34Z</time>
      </trkpt>
      <trkpt lat="37.5548745040" lon="-3.0374495778">
        <ele>687.48</ele>
        <time>2020-09-06T17:35:35Z</time>
      </trkpt>
      <trkpt lat="37.5548791979" lon="-3.0374942534">
        <ele>687.48</ele>
        <time>2020-09-06T17:35:36Z</time>
      </trkpt>
      <trkpt lat="37.5548714027" lon="-3.0375416111">
        <ele>687.00</ele>
        <time>2020-09-06T17:35:37Z</time>
      </trkpt>
      <trkpt lat="37.5548627693" lon="-3.0375924055">
        <ele>687.00</ele>
        <time>2020-09-06T17:35:38Z</time>
      </trkpt>
      <trkpt lat="37.5548566505" lon="-3.0376522522">
        <ele>687.00</ele>
        <time>2020-09-06T17:35:39Z</time>
      </trkpt>
      <trkpt lat="37.5548573211" lon="-3.0377229955">
        <ele>685.56</ele>
        <time>2020-09-06T17:35:40Z</time>
      </trkpt>
      <trkpt lat="37.5548657030" lon="-3.0377986841">
        <ele>684.60</ele>
        <time>2020-09-06T17:35:41Z</time>
      </trkpt>
      <trkpt lat="37.5548801199" lon="-3.0378684215">
        <ele>683.63</ele>
        <time>2020-09-06T17:35:42Z</time>
      </trkpt>
      <trkpt lat="37.5549010746" lon="-3.0379260052">
        <ele>682.19</ele>
        <time>2020-09-06T17:35:43Z</time>
      </trkpt>
      <trkpt lat="37.5549240410" lon="-3.0379641429">
        <ele>681.71</ele>
        <time>2020-09-06T17:35:44Z</time>
      </trkpt>
      <trkpt lat="37.5549448282" lon="-3.0379930604">
        <ele>680.27</ele>
        <time>2020-09-06T17:35:45Z</time>
      </trkpt>
      <trkpt lat="37.5549632683" lon="-3.0380234029">
        <ele>679.79</ele>
        <time>2020-09-06T17:35:46Z</time>
      </trkpt>
      <trkpt lat="37.5549782719" lon="-3.0380553380">
        <ele>679.31</ele>
        <time>2020-09-06T17:35:47Z</time>
      </trkpt>
      <trkpt lat="37.5549886655" lon="-3.0380862672">
        <ele>678.35</ele>
        <time>2020-09-06T17:35:48Z</time>
      </trkpt>
      <trkpt lat="37.5550004840" lon="-3.0381223094">
        <ele>677.87</ele>
        <time>2020-09-06T17:35:49Z</time>
      </trkpt>
      <trkpt lat="37.5550156552" lon="-3.0381560046">
        <ele>676.91</ele>
        <time>2020-09-06T17:35:50Z</time>
      </trkpt>
      <trkpt lat="37.5550406333" lon="-3.0382428411">
        <ele>675.46</ele>
        <time>2020-09-06T17:35:53Z</time>
      </trkpt>
      <trkpt lat="37.5550064351" lon="-3.0383795500">
        <ele>672.58</ele>
        <time>2020-09-06T17:35:58Z</time>
      </trkpt>
      <trkpt lat="37.5549869891" lon="-3.0384310987">
        <ele>671.62</ele>
        <time>2020-09-06T17:35:59Z</time>
      </trkpt>
      <trkpt lat="37.5549120549" lon="-3.0385930371">
        <ele>669.22</ele>
        <time>2020-09-06T17:36:02Z</time>
      </trkpt>
      <trkpt lat="37.5547569897" lon="-3.0388162471">
        <ele>664.41</ele>
        <time>2020-09-06T17:36:06Z</time>
      </trkpt>
      <trkpt lat="37.5546731707" lon="-3.0389438197">
        <ele>661.52</ele>
        <time>2020-09-06T17:36:08Z</time>
      </trkpt>
      <trkpt lat="37.5546429120" lon="-3.0390091985">
        <ele>660.08</ele>
        <time>2020-09-06T17:36:09Z</time>
      </trkpt>
      <trkpt lat="37.5546269026" lon="-3.0390782654">
        <ele>659.12</ele>
        <time>2020-09-06T17:36:10Z</time>
      </trkpt>
      <trkpt lat="37.5546310097" lon="-3.0391472485">
        <ele>657.20</ele>
        <time>2020-09-06T17:36:11Z</time>
      </trkpt>
      <trkpt lat="37.5546538085" lon="-3.0392038263">
        <ele>656.72</ele>
        <time>2020-09-06T17:36:12Z</time>
      </trkpt>
      <trkpt lat="37.5546890963" lon="-3.0392410420">
        <ele>655.28</ele>
        <time>2020-09-06T17:36:13Z</time>
      </trkpt>
      <trkpt lat="37.5547377951" lon="-3.0392523576">
        <ele>653.83</ele>
        <time>2020-09-06T17:36:14Z</time>
      </trkpt>
      <trkpt lat="37.5547920261" lon="-3.0392523576">
        <ele>653.35</ele>
        <time>2020-09-06T17:36:15Z</time>
      </trkpt>
      <trkpt lat="37.5548465084" lon="-3.0392440595">
        <ele>653.35</ele>
        <time>2020-09-06T17:36:16Z</time>
      </trkpt>
      <trkpt lat="37.5551634282" lon="-3.0391418003">
        <ele>650.95</ele>
        <time>2020-09-06T17:36:21Z</time>
      </trkpt>
      <trkpt lat="37.5552162342" lon="-3.0390943587">
        <ele>650.47</ele>
        <time>2020-09-06T17:36:22Z</time>
      </trkpt>
      <trkpt lat="37.5552531984" lon="-3.0390391219">
        <ele>650.47</ele>
        <time>2020-09-06T17:36:23Z</time>
      </trkpt>
      <trkpt lat="37.5552775897" lon="-3.0389783531">
        <ele>649.99</ele>
        <time>2020-09-06T17:36:24Z</time>
      </trkpt>
      <trkpt lat="37.5552924257" lon="-3.0389144830">
        <ele>649.03</ele>
        <time>2020-09-06T17:36:25Z</time>
      </trkpt>
      <trkpt lat="37.5553032383" lon="-3.0388576537">
        <ele>649.03</ele>
        <time>2020-09-06T17:36:26Z</time>
      </trkpt>
      <trkpt lat="37.5553779211" lon="-3.0385709088">
        <ele>648.07</ele>
        <time>2020-09-06T17:36:31Z</time>
      </trkpt>
      <trkpt lat="37.5556322280" lon="-3.0379338004">
        <ele>646.14</ele>
        <time>2020-09-06T17:36:43Z</time>
      </trkpt>
      <trkpt lat="37.5556536857" lon="-3.0378913879">
        <ele>646.14</ele>
        <time>2020-09-06T17:36:44Z</time>
      </trkpt>
      <trkpt lat="37.5556775741" lon="-3.0378586147">
        <ele>646.14</ele>
        <time>2020-09-06T17:36:45Z</time>
      </trkpt>
      <trkpt lat="37.5557017978" lon="-3.0378283560">
        <ele>646.14</ele>
        <time>2020-09-06T17:36:46Z</time>
      </trkpt>
      <trkpt lat="37.5557253510" lon="-3.0378011987">
        <ele>647.59</ele>
        <time>2020-09-06T17:36:47Z</time>
      </trkpt>
      <trkpt lat="37.5557508320" lon="-3.0377745442">
        <ele>647.59</ele>
        <time>2020-09-06T17:36:48Z</time>
      </trkpt>
      <trkpt lat="37.5561549235" lon="-3.0375490710">
        <ele>647.10</ele>
        <time>2020-09-06T17:37:00Z</time>
      </trkpt>
      <trkpt lat="37.5561916362" lon="-3.0375282839">
        <ele>647.10</ele>
        <time>2020-09-06T17:37:01Z</time>
      </trkpt>
      <trkpt lat="37.5562278461" lon="-3.0375030544">
        <ele>646.14</ele>
        <time>2020-09-06T17:37:02Z</time>
      </trkpt>
      <trkpt lat="37.5562622119" lon="-3.0374716222">
        <ele>646.14</ele>
        <time>2020-09-06T17:37:03Z</time>
      </trkpt>
      <trkpt lat="37.5562991761" lon="-3.0374301318">
        <ele>645.18</ele>
        <time>2020-09-06T17:37:04Z</time>
      </trkpt>
      <trkpt lat="37.5563322008" lon="-3.0373795889">
        <ele>644.70</ele>
        <time>2020-09-06T17:37:05Z</time>
      </trkpt>
      <trkpt lat="37.5563634653" lon="-3.0373168085">
        <ele>644.22</ele>
        <time>2020-09-06T17:37:06Z</time>
      </trkpt>
      <trkpt lat="37.5563955680" lon="-3.0372503400">
        <ele>644.22</ele>
        <time>2020-09-06T17:37:07Z</time>
      </trkpt>
      <trkpt lat="37.5564337056" lon="-3.0371947680">
        <ele>643.74</ele>
        <time>2020-09-06T17:37:08Z</time>
      </trkpt>
      <trkpt lat="37.5564815663" lon="-3.0371464882">
        <ele>642.78</ele>
        <time>2020-09-06T17:37:09Z</time>
      </trkpt>
      <trkpt lat="37.5565435924" lon="-3.0371094402">
        <ele>641.82</ele>
        <time>2020-09-06T17:37:10Z</time>
      </trkpt>
      <trkpt lat="37.5566115696" lon="-3.0370837916">
        <ele>641.82</ele>
        <time>2020-09-06T17:37:11Z</time>
      </trkpt>
      <trkpt lat="37.5566796307" lon="-3.0370619148">
        <ele>641.82</ele>
        <time>2020-09-06T17:37:12Z</time>
      </trkpt>
      <trkpt lat="37.5568486098" lon="-3.0369869806">
        <ele>641.82</ele>
        <time>2020-09-06T17:37:15Z</time>
      </trkpt>
      <trkpt lat="37.5568939559" lon="-3.0369562190">
        <ele>641.82</ele>
        <time>2020-09-06T17:37:16Z</time>
      </trkpt>
      <trkpt lat="37.5573060103" lon="-3.0364966393">
        <ele>644.22</ele>
        <time>2020-09-06T17:37:29Z</time>
      </trkpt>
      <trkpt lat="37.5576137938" lon="-3.0359511450">
        <ele>642.78</ele>
        <time>2020-09-06T17:37:39Z</time>
      </trkpt>
      <trkpt lat="37.5577158015" lon="-3.0356267653">
        <ele>640.86</ele>
        <time>2020-09-06T17:37:43Z</time>
      </trkpt>
      <trkpt lat="37.5579473935" lon="-3.0349634215">
        <ele>638.93</ele>
        <time>2020-09-06T17:37:51Z</time>
      </trkpt>
      <trkpt lat="37.5583726913" lon="-3.0341205373">
        <ele>638.45</ele>
        <time>2020-09-06T17:38:03Z</time>
      </trkpt>
      <trkpt lat="37.5586694106" lon="-3.0329891481">
        <ele>637.49</ele>
        <time>2020-09-06T17:38:17Z</time>
      </trkpt>
      <trkpt lat="37.5590178464" lon="-3.0318001751">
        <ele>635.57</ele>
        <time>2020-09-06T17:38:31Z</time>
      </trkpt>
      <trkpt lat="37.5591609254" lon="-3.0313458759">
        <ele>633.65</ele>
        <time>2020-09-06T17:38:38Z</time>
      </trkpt>
      <trkpt lat="37.5591364503" lon="-3.0313083250">
        <ele>633.65</ele>
        <time>2020-09-06T17:38:39Z</time>
      </trkpt>
      <trkpt lat="37.5591131486" lon="-3.0312732048">
        <ele>632.68</ele>
        <time>2020-09-06T17:38:40Z</time>
      </trkpt>
      <trkpt lat="37.5590928644" lon="-3.0312157888">
        <ele>632.20</ele>
        <time>2020-09-06T17:38:41Z</time>
      </trkpt>
      <trkpt lat="37.5590880029" lon="-3.0311477277">
        <ele>631.24</ele>
        <time>2020-09-06T17:38:42Z</time>
      </trkpt>
      <trkpt lat="37.5590950437" lon="-3.0310762301">
        <ele>630.76</ele>
        <time>2020-09-06T17:38:43Z</time>
      </trkpt>
      <trkpt lat="37.5591034256" lon="-3.0310002062">
        <ele>630.76</ele>
        <time>2020-09-06T17:38:44Z</time>
      </trkpt>
      <trkpt lat="37.5591071974" lon="-3.0309224222">
        <ele>629.80</ele>
        <time>2020-09-06T17:38:45Z</time>
      </trkpt>
      <trkpt lat="37.5591032580" lon="-3.0308443028">
        <ele>629.80</ele>
        <time>2020-09-06T17:38:46Z</time>
      </trkpt>
      <trkpt lat="37.5590892602" lon="-3.0307733081">
        <ele>629.32</ele>
        <time>2020-09-06T17:38:47Z</time>
      </trkpt>
      <trkpt lat="37.5590656232" lon="-3.0307055824">
        <ele>629.32</ele>
        <time>2020-09-06T17:38:48Z</time>
      </trkpt>
      <trkpt lat="37.5590371247" lon="-3.0306442268">
        <ele>629.32</ele>
        <time>2020-09-06T17:38:49Z</time>
      </trkpt>
      <trkpt lat="37.5590064470" lon="-3.0305928458">
        <ele>628.84</ele>
        <time>2020-09-06T17:38:50Z</time>
      </trkpt>
      <trkpt lat="37.5589782000" lon="-3.0305472482">
        <ele>628.84</ele>
        <time>2020-09-06T17:38:51Z</time>
      </trkpt>
      <trkpt lat="37.5589571614" lon="-3.0305052549">
        <ele>628.84</ele>
        <time>2020-09-06T17:38:52Z</time>
      </trkpt>
      <trkpt lat="37.5589387212" lon="-3.0304648541">
        <ele>627.40</ele>
        <time>2020-09-06T17:38:53Z</time>
      </trkpt>
      <trkpt lat="37.5589166768" lon="-3.0303957872">
        <ele>626.44</ele>
        <time>2020-09-06T17:38:55Z</time>
      </trkpt>
      <trkpt lat="37.5589187723" lon="-3.0303658638">
        <ele>625.96</ele>
        <time>2020-09-06T17:38:56Z</time>
      </trkpt>
      <trkpt lat="37.5589295849" lon="-3.0303423107">
        <ele>624.99</ele>
        <time>2020-09-06T17:38:57Z</time>
      </trkpt>
      <trkpt lat="37.5589929521" lon="-3.0302792788">
        <ele>623.55</ele>
        <time>2020-09-06T17:39:00Z</time>
      </trkpt>
      <trkpt lat="37.5590195227" lon="-3.0302808713">
        <ele>623.07</ele>
        <time>2020-09-06T17:39:01Z</time>
      </trkpt>
      <trkpt lat="37.5590481050" lon="-3.0302905105">
        <ele>623.07</ele>
        <time>2020-09-06T17:39:02Z</time>
      </trkpt>
      <trkpt lat="37.5592556410" lon="-3.0302527919">
        <ele>622.59</ele>
        <time>2020-09-06T17:39:08Z</time>
      </trkpt>
      <trkpt lat="37.5592674594" lon="-3.0302128941">
        <ele>622.59</ele>
        <time>2020-09-06T17:39:09Z</time>
      </trkpt>
      <trkpt lat="37.5592653640" lon="-3.0301692244">
        <ele>622.59</ele>
        <time>2020-09-06T17:39:10Z</time>
      </trkpt>
      <trkpt lat="37.5592548866" lon="-3.0301237945">
        <ele>622.59</ele>
        <time>2020-09-06T17:39:11Z</time>
      </trkpt>
      <trkpt lat="37.5592408888" lon="-3.0300759338">
        <ele>622.59</ele>
        <time>2020-09-06T17:39:12Z</time>
      </trkpt>
      <trkpt lat="37.5592232868" lon="-3.0300259776">
        <ele>622.59</ele>
        <time>2020-09-06T17:39:13Z</time>
      </trkpt>
      <trkpt lat="37.5591230392" lon="-3.0297466926">
        <ele>622.11</ele>
        <time>2020-09-06T17:39:18Z</time>
      </trkpt>
      <trkpt lat="37.5591130648" lon="-3.0296860076">
        <ele>622.11</ele>
        <time>2020-09-06T17:39:19Z</time>
      </trkpt>
      <trkpt lat="37.5591092929" lon="-3.0296199583">
        <ele>622.11</ele>
        <time>2020-09-06T17:39:20Z</time>
      </trkpt>
      <trkpt lat="37.5591177586" lon="-3.0294870213">
        <ele>621.63</ele>
        <time>2020-09-06T17:39:22Z</time>
      </trkpt>
      <trkpt lat="37.5591503642" lon="-3.0292999372">
        <ele>621.63</ele>
        <time>2020-09-06T17:39:25Z</time>
      </trkpt>
      <trkpt lat="37.5591557287" lon="-3.0292371567">
        <ele>621.63</ele>
        <time>2020-09-06T17:39:26Z</time>
      </trkpt>
      <trkpt lat="37.5591566507" lon="-3.0291722808">
        <ele>621.63</ele>
        <time>2020-09-06T17:39:27Z</time>
      </trkpt>
      <trkpt lat="37.5591536332" lon="-3.0289717857">
        <ele>620.67</ele>
        <time>2020-09-06T17:39:30Z</time>
      </trkpt>
      <trkpt lat="37.5591640268" lon="-3.0288393516">
        <ele>620.67</ele>
        <time>2020-09-06T17:39:32Z</time>
      </trkpt>
      <trkpt lat="37.5591895916" lon="-3.0287149642">
        <ele>620.67</ele>
        <time>2020-09-06T17:39:34Z</time>
      </trkpt>
      <trkpt lat="37.5592470076" lon="-3.0285414588">
        <ele>620.67</ele>
        <time>2020-09-06T17:39:37Z</time>
      </trkpt>
      <trkpt lat="37.5592698064" lon="-3.0284941848">
        <ele>620.67</ele>
        <time>2020-09-06T17:39:38Z</time>
      </trkpt>
      <trkpt lat="37.5593444053" lon="-3.0282801110">
        <ele>620.19</ele>
        <time>2020-09-06T17:39:44Z</time>
      </trkpt>
      <trkpt lat="37.5593360234" lon="-3.0282566417">
        <ele>620.19</ele>
        <time>2020-09-06T17:39:45Z</time>
      </trkpt>
      <trkpt lat="37.5593247078" lon="-3.0282313284">
        <ele>620.19</ele>
        <time>2020-09-06T17:39:46Z</time>
      </trkpt>
      <trkpt lat="37.5593117997" lon="-3.0281945318">
        <ele>620.19</ele>
        <time>2020-09-06T17:39:47Z</time>
      </trkpt>
      <trkpt lat="37.5592940301" lon="-3.0281532090">
        <ele>620.19</ele>
        <time>2020-09-06T17:39:48Z</time>
      </trkpt>
      <trkpt lat="37.5592727400" lon="-3.0281119701">
        <ele>619.71</ele>
        <time>2020-09-06T17:39:49Z</time>
      </trkpt>
      <trkpt lat="37.5592430681" lon="-3.0279469304">
        <ele>619.23</ele>
        <time>2020-09-06T17:39:53Z</time>
      </trkpt>
      <trkpt lat="37.5592618436" lon="-3.0279168393">
        <ele>619.23</ele>
        <time>2020-09-06T17:39:54Z</time>
      </trkpt>
      <trkpt lat="37.5592766795" lon="-3.0278810486">
        <ele>619.23</ele>
        <time>2020-09-06T17:39:55Z</time>
      </trkpt>
      <trkpt lat="37.5592951197" lon="-3.0278436653">
        <ele>619.23</ele>
        <time>2020-09-06T17:39:56Z</time>
      </trkpt>
      <trkpt lat="37.5593257975" lon="-3.0278148316">
        <ele>619.23</ele>
        <time>2020-09-06T17:39:57Z</time>
      </trkpt>
      <trkpt lat="37.5593661144" lon="-3.0277924519">
        <ele>619.23</ele>
        <time>2020-09-06T17:39:58Z</time>
      </trkpt>
      <trkpt lat="37.5594096165" lon="-3.0277769454">
        <ele>619.23</ele>
        <time>2020-09-06T17:39:59Z</time>
      </trkpt>
      <trkpt lat="37.5595500134" lon="-3.0277196970">
        <ele>619.23</ele>
        <time>2020-09-06T17:40:02Z</time>
      </trkpt>
      <trkpt lat="37.5597748999" lon="-3.0275508855">
        <ele>618.75</ele>
        <time>2020-09-06T17:40:07Z</time>
      </trkpt>
      <trkpt lat="37.5598023087" lon="-3.0275104847">
        <ele>618.75</ele>
        <time>2020-09-06T17:40:08Z</time>
      </trkpt>
      <trkpt lat="37.5598215032" lon="-3.0274810642">
        <ele>618.75</ele>
        <time>2020-09-06T17:40:09Z</time>
      </trkpt>
      <trkpt lat="37.5598245207" lon="-3.0274632107">
        <ele>617.78</ele>
        <time>2020-09-06T17:40:14Z</time>
      </trkpt>
      <trkpt lat="37.5598287117" lon="-3.0274415854">
        <ele>617.78</ele>
        <time>2020-09-06T17:40:15Z</time>
      </trkpt>
      <trkpt lat="37.5598313939" lon="-3.0274170265">
        <ele>617.78</ele>
        <time>2020-09-06T17:40:16Z</time>
      </trkpt>
      <trkpt lat="37.5598322321" lon="-3.0273865163">
        <ele>617.78</ele>
        <time>2020-09-06T17:40:17Z</time>
      </trkpt>
      <trkpt lat="37.5598308910" lon="-3.0273550004">
        <ele>617.78</ele>
        <time>2020-09-06T17:40:18Z</time>
      </trkpt>
      <trkpt lat="37.5598280411" lon="-3.0273206346">
        <ele>617.78</ele>
        <time>2020-09-06T17:40:19Z</time>
      </trkpt>
      <trkpt lat="37.5598203298" lon="-3.0272817425">
        <ele>617.78</ele>
        <time>2020-09-06T17:40:20Z</time>
      </trkpt>
      <trkpt lat="37.5598076731" lon="-3.0272381566">
        <ele>617.78</ele>
        <time>2020-09-06T17:40:21Z</time>
      </trkpt>
      <trkpt lat="37.5597942621" lon="-3.0271945707">
        <ele>617.78</ele>
        <time>2020-09-06T17:40:22Z</time>
      </trkpt>
      <trkpt lat="37.5597684458" lon="-3.0271042138">
        <ele>617.78</ele>
        <time>2020-09-06T17:40:24Z</time>
      </trkpt>
      <trkpt lat="37.5597466528" lon="-3.0270604603">
        <ele>617.78</ele>
        <time>2020-09-06T17:40:25Z</time>
      </trkpt>
      <trkpt lat="37.5596515182" lon="-3.0269011203">
        <ele>617.30</ele>
        <time>2020-09-06T17:40:29Z</time>
      </trkpt>
      <trkpt lat="37.5596313179" lon="-3.0268541817">
        <ele>617.30</ele>
        <time>2020-09-06T17:40:30Z</time>
      </trkpt>
      <trkpt lat="37.5596161466" lon="-3.0268104281">
        <ele>617.30</ele>
        <time>2020-09-06T17:40:31Z</time>
      </trkpt>
      <trkpt lat="37.5596098602" lon="-3.0267669261">
        <ele>617.30</ele>
        <time>2020-09-06T17:40:32Z</time>
      </trkpt>
      <trkpt lat="37.5596188288" lon="-3.0267250165">
        <ele>617.30</ele>
        <time>2020-09-06T17:40:33Z</time>
      </trkpt>
      <trkpt lat="37.5596386101" lon="-3.0266863760">
        <ele>617.30</ele>
        <time>2020-09-06T17:40:34Z</time>
      </trkpt>
      <trkpt lat="37.5596689526" lon="-3.0266518425">
        <ele>617.30</ele>
        <time>2020-09-06T17:40:35Z</time>
      </trkpt>
      <trkpt lat="37.5597098563" lon="-3.0266247690">
        <ele>616.82</ele>
        <time>2020-09-06T17:40:36Z</time>
      </trkpt>
      <trkpt lat="37.5597580522" lon="-3.0266057421">
        <ele>616.82</ele>
        <time>2020-09-06T17:40:37Z</time>
      </trkpt>
      <trkpt lat="37.5598094333" lon="-3.0265920796">
        <ele>616.82</ele>
        <time>2020-09-06T17:40:38Z</time>
      </trkpt>
      <trkpt lat="37.5599093456" lon="-3.0265666824">
        <ele>616.82</ele>
        <time>2020-09-06T17:40:40Z</time>
      </trkpt>
      <trkpt lat="37.5599950925" lon="-3.0265313108">
        <ele>616.82</ele>
        <time>2020-09-06T17:40:43Z</time>
      </trkpt>
      <trkpt lat="37.5600483175" lon="-3.0263391975">
        <ele>616.82</ele>
        <time>2020-09-06T17:40:52Z</time>
      </trkpt>
      <trkpt lat="37.5600385945" lon="-3.0262593180">
        <ele>616.82</ele>
        <time>2020-09-06T17:40:54Z</time>
      </trkpt>
      <trkpt lat="37.5600162987" lon="-3.0262250360">
        <ele>615.38</ele>
        <time>2020-09-06T17:40:55Z</time>
      </trkpt>
      <trkpt lat="37.5599819329" lon="-3.0262028240">
        <ele>615.38</ele>
        <time>2020-09-06T17:40:56Z</time>
      </trkpt>
      <trkpt lat="37.5599450525" lon="-3.0261842161">
        <ele>615.38</ele>
        <time>2020-09-06T17:40:57Z</time>
      </trkpt>
      <trkpt lat="37.5599170569" lon="-3.0261532031">
        <ele>614.90</ele>
        <time>2020-09-06T17:40:58Z</time>
      </trkpt>
      <trkpt lat="37.5598996226" lon="-3.0261102878">
        <ele>614.42</ele>
        <time>2020-09-06T17:40:59Z</time>
      </trkpt>
      <trkpt lat="37.5598877203" lon="-3.0260658637">
        <ele>614.42</ele>
        <time>2020-09-06T17:41:00Z</time>
      </trkpt>
      <trkpt lat="37.5598808471" lon="-3.0260226130">
        <ele>614.42</ele>
        <time>2020-09-06T17:41:01Z</time>
      </trkpt>
      <trkpt lat="37.5598776620" lon="-3.0259786919">
        <ele>614.42</ele>
        <time>2020-09-06T17:41:02Z</time>
      </trkpt>
      <trkpt lat="37.5598795060" lon="-3.0259358604">
        <ele>614.42</ele>
        <time>2020-09-06T17:41:03Z</time>
      </trkpt>
      <trkpt lat="37.5598913245" lon="-3.0258901790">
        <ele>614.42</ele>
        <time>2020-09-06T17:41:04Z</time>
      </trkpt>
      <trkpt lat="37.5599116087" lon="-3.0258444138">
        <ele>614.42</ele>
        <time>2020-09-06T17:41:05Z</time>
      </trkpt>
      <trkpt lat="37.5599643309" lon="-3.0257462617">
        <ele>614.42</ele>
        <time>2020-09-06T17:41:07Z</time>
      </trkpt>
      <trkpt lat="37.5600026362" lon="-3.0257181823">
        <ele>614.42</ele>
        <time>2020-09-06T17:41:08Z</time>
      </trkpt>
      <trkpt lat="37.5600378402" lon="-3.0256937910">
        <ele>614.42</ele>
        <time>2020-09-06T17:41:09Z</time>
      </trkpt>
      <trkpt lat="37.5600717869" lon="-3.0256564915">
        <ele>614.42</ele>
        <time>2020-09-06T17:41:10Z</time>
      </trkpt>
      <trkpt lat="37.5601049792" lon="-3.0256087147">
        <ele>614.42</ele>
        <time>2020-09-06T17:41:11Z</time>
      </trkpt>
      <trkpt lat="37.5601323042" lon="-3.0255536456">
        <ele>614.42</ele>
        <time>2020-09-06T17:41:12Z</time>
      </trkpt>
      <trkpt lat="37.5601520855" lon="-3.0254969839">
        <ele>613.46</ele>
        <time>2020-09-06T17:41:13Z</time>
      </trkpt>
      <trkpt lat="37.5601936597" lon="-3.0253892764">
        <ele>613.46</ele>
        <time>2020-09-06T17:41:15Z</time>
      </trkpt>
      <trkpt lat="37.5602029637" lon="-3.0253440142">
        <ele>613.46</ele>
        <time>2020-09-06T17:41:16Z</time>
      </trkpt>
      <trkpt lat="37.5601937436" lon="-3.0252930522">
        <ele>613.46</ele>
        <time>2020-09-06T17:41:17Z</time>
      </trkpt>
      <trkpt lat="37.5601651613" lon="-3.0251803156">
        <ele>612.98</ele>
        <time>2020-09-06T17:41:19Z</time>
      </trkpt>
      <trkpt lat="37.5601564441" lon="-3.0251153558">
        <ele>612.98</ele>
        <time>2020-09-06T17:41:20Z</time>
      </trkpt>
      <trkpt lat="37.5601463858" lon="-3.0249936506">
        <ele>612.98</ele>
        <time>2020-09-06T17:41:22Z</time>
      </trkpt>
      <trkpt lat="37.5601535942" lon="-3.0249368213">
        <ele>612.98</ele>
        <time>2020-09-06T17:41:23Z</time>
      </trkpt>
      <trkpt lat="37.5601758063" lon="-3.0248837639">
        <ele>612.50</ele>
        <time>2020-09-06T17:41:24Z</time>
      </trkpt>
      <trkpt lat="37.5602059811" lon="-3.0248385016">
        <ele>612.50</ele>
        <time>2020-09-06T17:41:25Z</time>
      </trkpt>
      <trkpt lat="37.5602378324" lon="-3.0247944128">
        <ele>612.02</ele>
        <time>2020-09-06T17:41:26Z</time>
      </trkpt>
      <trkpt lat="37.5603294466" lon="-3.0246487353">
        <ele>612.02</ele>
        <time>2020-09-06T17:41:29Z</time>
      </trkpt>
      <trkpt lat="37.5603339728" lon="-3.0245960969">
        <ele>612.02</ele>
        <time>2020-09-06T17:41:30Z</time>
      </trkpt>
      <trkpt lat="37.5603172928" lon="-3.0245393515">
        <ele>612.02</ele>
        <time>2020-09-06T17:41:31Z</time>
      </trkpt>
      <trkpt lat="37.5602960866" lon="-3.0244798400">
        <ele>612.02</ele>
        <time>2020-09-06T17:41:32Z</time>
      </trkpt>
      <trkpt lat="37.5602765568" lon="-3.0244152993">
        <ele>612.02</ele>
        <time>2020-09-06T17:41:33Z</time>
      </trkpt>
      <trkpt lat="37.5602521654" lon="-3.0243001319">
        <ele>611.54</ele>
        <time>2020-09-06T17:41:35Z</time>
      </trkpt>
      <trkpt lat="37.5602701027" lon="-3.0242589768">
        <ele>611.54</ele>
        <time>2020-09-06T17:41:36Z</time>
      </trkpt>
      <trkpt lat="37.5603010319" lon="-3.0242394470">
        <ele>611.54</ele>
        <time>2020-09-06T17:41:37Z</time>
      </trkpt>
      <trkpt lat="37.5603375770" lon="-3.0242368486">
        <ele>611.54</ele>
        <time>2020-09-06T17:41:38Z</time>
      </trkpt>
      <trkpt lat="37.5603787322" lon="-3.0242485832">
        <ele>611.54</ele>
        <time>2020-09-06T17:41:39Z</time>
      </trkpt>
      <trkpt lat="37.5604166184" lon="-3.0242644250">
        <ele>611.54</ele>
        <time>2020-09-06T17:41:40Z</time>
      </trkpt>
      <trkpt lat="37.5604524929" lon="-3.0242880620">
        <ele>611.54</ele>
        <time>2020-09-06T17:41:41Z</time>
      </trkpt>
      <trkpt lat="37.5604866911" lon="-3.0243173148">
        <ele>611.54</ele>
        <time>2020-09-06T17:41:42Z</time>
      </trkpt>
      <trkpt lat="37.5605169497" lon="-3.0243507586">
        <ele>611.54</ele>
        <time>2020-09-06T17:41:43Z</time>
      </trkpt>
      <trkpt lat="37.5605439395" lon="-3.0243860465">
        <ele>611.54</ele>
        <time>2020-09-06T17:41:44Z</time>
      </trkpt>
      <trkpt lat="37.5605695881" lon="-3.0244246870">
        <ele>611.54</ele>
        <time>2020-09-06T17:41:45Z</time>
      </trkpt>
      <trkpt lat="37.5606656447" lon="-3.0245374236">
        <ele>610.09</ele>
        <time>2020-09-06T17:41:48Z</time>
      </trkpt>
      <trkpt lat="37.5607133377" lon="-3.0245567858">
        <ele>610.09</ele>
        <time>2020-09-06T17:41:49Z</time>
      </trkpt>
      <trkpt lat="37.5607626233" lon="-3.0245468114">
        <ele>610.09</ele>
        <time>2020-09-06T17:41:50Z</time>
      </trkpt>
      <trkpt lat="37.5608057901" lon="-3.0245131161">
        <ele>610.09</ele>
        <time>2020-09-06T17:41:51Z</time>
      </trkpt>
      <trkpt lat="37.5608417485" lon="-3.0244608130">
        <ele>610.09</ele>
        <time>2020-09-06T17:41:52Z</time>
      </trkpt>
      <trkpt lat="37.5608720910" lon="-3.0244054925">
        <ele>610.09</ele>
        <time>2020-09-06T17:41:53Z</time>
      </trkpt>
      <trkpt lat="37.5608963147" lon="-3.0243505910">
        <ele>610.09</ele>
        <time>2020-09-06T17:41:54Z</time>
      </trkpt>
      <trkpt lat="37.5609168503" lon="-3.0242960248">
        <ele>610.09</ele>
        <time>2020-09-06T17:41:55Z</time>
      </trkpt>
      <trkpt lat="37.5609337818" lon="-3.0242404528">
        <ele>610.09</ele>
        <time>2020-09-06T17:41:56Z</time>
      </trkpt>
      <trkpt lat="37.5609510485" lon="-3.0241802707">
        <ele>610.09</ele>
        <time>2020-09-06T17:41:57Z</time>
      </trkpt>
      <trkpt lat="37.5610492006" lon="-3.0237858184">
        <ele>609.61</ele>
        <time>2020-09-06T17:42:03Z</time>
      </trkpt>
      <trkpt lat="37.5610581692" lon="-3.0237152427">
        <ele>609.61</ele>
        <time>2020-09-06T17:42:04Z</time>
      </trkpt>
      <trkpt lat="37.5610720832" lon="-3.0234186072">
        <ele>609.61</ele>
        <time>2020-09-06T17:42:08Z</time>
      </trkpt>
      <trkpt lat="37.5610854942" lon="-3.0233600177">
        <ele>609.13</ele>
        <time>2020-09-06T17:42:09Z</time>
      </trkpt>
      <trkpt lat="37.5611069519" lon="-3.0233256519">
        <ele>609.13</ele>
        <time>2020-09-06T17:42:10Z</time>
      </trkpt>
      <trkpt lat="37.5611344445" lon="-3.0233056191">
        <ele>609.13</ele>
        <time>2020-09-06T17:42:11Z</time>
      </trkpt>
      <trkpt lat="37.5611647032" lon="-3.0233010929">
        <ele>609.13</ele>
        <time>2020-09-06T17:42:12Z</time>
      </trkpt>
      <trkpt lat="37.5611975603" lon="-3.0233067088">
        <ele>609.13</ele>
        <time>2020-09-06T17:42:13Z</time>
      </trkpt>
      <trkpt lat="37.5614780188" lon="-3.0232428387">
        <ele>608.17</ele>
        <time>2020-09-06T17:42:21Z</time>
      </trkpt>
      <trkpt lat="37.5614926871" lon="-3.0232084729">
        <ele>608.17</ele>
        <time>2020-09-06T17:42:22Z</time>
      </trkpt>
      <trkpt lat="37.5614911783" lon="-3.0231674016">
        <ele>608.17</ele>
        <time>2020-09-06T17:42:23Z</time>
      </trkpt>
      <trkpt lat="37.5614872389" lon="-3.0231270846">
        <ele>608.17</ele>
        <time>2020-09-06T17:42:24Z</time>
      </trkpt>
      <trkpt lat="37.5614812039" lon="-3.0230840016">
        <ele>608.17</ele>
        <time>2020-09-06T17:42:25Z</time>
      </trkpt>
      <trkpt lat="37.5614722352" lon="-3.0230442714">
        <ele>608.17</ele>
        <time>2020-09-06T17:42:26Z</time>
      </trkpt>
      <trkpt lat="37.5612792000" lon="-3.0227285251">
        <ele>607.21</ele>
        <time>2020-09-06T17:42:36Z</time>
      </trkpt>
      <trkpt lat="37.5611999910" lon="-3.0226191413">
        <ele>606.73</ele>
        <time>2020-09-06T17:42:45Z</time>
      </trkpt>
      <trkpt lat="37.5611978117" lon="-3.0226183869">
        <ele>606.73</ele>
        <time>2020-09-06T17:43:06Z</time>
      </trkpt>
      <trkpt lat="37.5611531362" lon="-3.0225473922">
        <ele>606.73</ele>
        <time>2020-09-06T17:43:11Z</time>
      </trkpt>
      <trkpt lat="37.5611441676" lon="-3.0225090031">
        <ele>606.73</ele>
        <time>2020-09-06T17:43:12Z</time>
      </trkpt>
      <trkpt lat="37.5611356180" lon="-3.0224699434">
        <ele>606.73</ele>
        <time>2020-09-06T17:43:13Z</time>
      </trkpt>
      <trkpt lat="37.5611347798" lon="-3.0222484097">
        <ele>606.73</ele>
        <time>2020-09-06T17:43:18Z</time>
      </trkpt>
      <trkpt lat="37.5611576624" lon="-3.0221976154">
        <ele>606.73</ele>
        <time>2020-09-06T17:43:19Z</time>
      </trkpt>
      <trkpt lat="37.5611847360" lon="-3.0221479945">
        <ele>606.73</ele>
        <time>2020-09-06T17:43:20Z</time>
      </trkpt>
      <trkpt lat="37.5612431578" lon="-3.0220473278">
        <ele>605.77</ele>
        <time>2020-09-06T17:43:22Z</time>
      </trkpt>
      <trkpt lat="37.5612750929" lon="-3.0220004730">
        <ele>605.77</ele>
        <time>2020-09-06T17:43:23Z</time>
      </trkpt>
      <trkpt lat="37.5613117218" lon="-3.0219635926">
        <ele>605.77</ele>
        <time>2020-09-06T17:43:24Z</time>
      </trkpt>
      <trkpt lat="37.5613776874" lon="-3.0218887422">
        <ele>605.77</ele>
        <time>2020-09-06T17:43:26Z</time>
      </trkpt>
      <trkpt lat="37.5614047609" lon="-3.0218460783">
        <ele>605.77</ele>
        <time>2020-09-06T17:43:27Z</time>
      </trkpt>
      <trkpt lat="37.5614216924" lon="-3.0218040850">
        <ele>605.77</ele>
        <time>2020-09-06T17:43:28Z</time>
      </trkpt>
      <trkpt lat="37.5614305772" lon="-3.0217640195">
        <ele>605.77</ele>
        <time>2020-09-06T17:43:29Z</time>
      </trkpt>
      <trkpt lat="37.5614351872" lon="-3.0217242055">
        <ele>605.77</ele>
        <time>2020-09-06T17:43:30Z</time>
      </trkpt>
      <trkpt lat="37.5614234526" lon="-3.0216413923">
        <ele>605.29</ele>
        <time>2020-09-06T17:43:32Z</time>
      </trkpt>
      <trkpt lat="37.5613984745" lon="-3.0216170847">
        <ele>604.81</ele>
        <time>2020-09-06T17:43:33Z</time>
      </trkpt>
      <trkpt lat="37.5613006577" lon="-3.0215434916">
        <ele>604.81</ele>
        <time>2020-09-06T17:43:36Z</time>
      </trkpt>
      <trkpt lat="37.5612702314" lon="-3.0215024203">
        <ele>604.81</ele>
        <time>2020-09-06T17:43:37Z</time>
      </trkpt>
      <trkpt lat="37.5612393022" lon="-3.0214623548">
        <ele>604.81</ele>
        <time>2020-09-06T17:43:38Z</time>
      </trkpt>
      <trkpt lat="37.5611724146" lon="-3.0213861633">
        <ele>604.81</ele>
        <time>2020-09-06T17:43:40Z</time>
      </trkpt>
      <trkpt lat="37.5611476041" lon="-3.0213465169">
        <ele>604.81</ele>
        <time>2020-09-06T17:43:41Z</time>
      </trkpt>
      <trkpt lat="37.5611294154" lon="-3.0213093851">
        <ele>604.81</ele>
        <time>2020-09-06T17:43:42Z</time>
      </trkpt>
      <trkpt lat="37.5611097179" lon="-3.0212738458">
        <ele>604.81</ele>
        <time>2020-09-06T17:43:43Z</time>
      </trkpt>
      <trkpt lat="37.5610866677" lon="-3.0212362111">
        <ele>604.33</ele>
        <time>2020-09-06T17:43:44Z</time>
      </trkpt>
      <trkpt lat="37.5610669702" lon="-3.0211971514">
        <ele>604.33</ele>
        <time>2020-09-06T17:43:45Z</time>
      </trkpt>
      <trkpt lat="37.5610546488" lon="-3.0211497936">
        <ele>604.33</ele>
        <time>2020-09-06T17:43:46Z</time>
      </trkpt>
      <trkpt lat="37.5610419083" lon="-3.0211036094">
        <ele>604.33</ele>
        <time>2020-09-06T17:43:47Z</time>
      </trkpt>
      <trkpt lat="37.5610320177" lon="-3.0210560001">
        <ele>604.33</ele>
        <time>2020-09-06T17:43:48Z</time>
      </trkpt>
      <trkpt lat="37.5610284973" lon="-3.0210066307">
        <ele>604.33</ele>
        <time>2020-09-06T17:43:49Z</time>
      </trkpt>
      <trkpt lat="37.5610379688" lon="-3.0209606141">
        <ele>604.33</ele>
        <time>2020-09-06T17:43:50Z</time>
      </trkpt>
      <trkpt lat="37.5610557385" lon="-3.0209125020">
        <ele>603.85</ele>
        <time>2020-09-06T17:43:51Z</time>
      </trkpt>
      <trkpt lat="37.5610750169" lon="-3.0208673235">
        <ele>603.85</ele>
        <time>2020-09-06T17:43:52Z</time>
      </trkpt>
      <trkpt lat="37.5611020066" lon="-3.0208328739">
        <ele>603.85</ele>
        <time>2020-09-06T17:43:53Z</time>
      </trkpt>
      <trkpt lat="37.5611360371" lon="-3.0208158586">
        <ele>603.36</ele>
        <time>2020-09-06T17:43:54Z</time>
      </trkpt>
      <trkpt lat="37.5611666311" lon="-3.0208032019">
        <ele>602.88</ele>
        <time>2020-09-06T17:43:55Z</time>
      </trkpt>
      <trkpt lat="37.5611972250" lon="-3.0207894556">
        <ele>602.88</ele>
        <time>2020-09-06T17:43:56Z</time>
      </trkpt>
      <trkpt lat="37.5612290762" lon="-3.0207793973">
        <ele>602.88</ele>
        <time>2020-09-06T17:43:57Z</time>
      </trkpt>
      <trkpt lat="37.5612630229" lon="-3.0207659025">
        <ele>602.88</ele>
        <time>2020-09-06T17:43:58Z</time>
      </trkpt>
      <trkpt lat="37.5612945389" lon="-3.0207577720">
        <ele>602.88</ele>
        <time>2020-09-06T17:43:59Z</time>
      </trkpt>
      <trkpt lat="37.5613272283" lon="-3.0207584426">
        <ele>602.40</ele>
        <time>2020-09-06T17:44:00Z</time>
      </trkpt>
      <trkpt lat="37.5613651983" lon="-3.0207620468">
        <ele>602.40</ele>
        <time>2020-09-06T17:44:01Z</time>
      </trkpt>
      <trkpt lat="37.5614454970" lon="-3.0207617115">
        <ele>602.40</ele>
        <time>2020-09-06T17:44:03Z</time>
      </trkpt>
      <trkpt lat="37.5615383685" lon="-3.0207417626">
        <ele>602.40</ele>
        <time>2020-09-06T17:44:05Z</time>
      </trkpt>
      <trkpt lat="37.5615781825" lon="-3.0207185447">
        <ele>602.40</ele>
        <time>2020-09-06T17:44:06Z</time>
      </trkpt>
      <trkpt lat="37.5616049208" lon="-3.0206840951">
        <ele>602.40</ele>
        <time>2020-09-06T17:44:07Z</time>
      </trkpt>
      <trkpt lat="37.5616119616" lon="-3.0206430238">
        <ele>602.40</ele>
        <time>2020-09-06T17:44:08Z</time>
      </trkpt>
      <trkpt lat="37.5616039149" lon="-3.0205974262">
        <ele>602.40</ele>
        <time>2020-09-06T17:44:09Z</time>
      </trkpt>
      <trkpt lat="37.5615895819" lon="-3.0205527507">
        <ele>602.40</ele>
        <time>2020-09-06T17:44:10Z</time>
      </trkpt>
      <trkpt lat="37.5615744945" lon="-3.0205086619">
        <ele>602.40</ele>
        <time>2020-09-06T17:44:11Z</time>
      </trkpt>
      <trkpt lat="37.5615585689" lon="-3.0204597954">
        <ele>601.92</ele>
        <time>2020-09-06T17:44:12Z</time>
      </trkpt>
      <trkpt lat="37.5615385361" lon="-3.0204128567">
        <ele>601.92</ele>
        <time>2020-09-06T17:44:13Z</time>
      </trkpt>
      <trkpt lat="37.5614926871" lon="-3.0203051493">
        <ele>601.92</ele>
        <time>2020-09-06T17:44:15Z</time>
      </trkpt>
      <trkpt lat="37.5614459161" lon="-3.0201322306">
        <ele>601.92</ele>
        <time>2020-09-06T17:44:18Z</time>
      </trkpt>
      <trkpt lat="37.5614513643" lon="-3.0200779997">
        <ele>601.92</ele>
        <time>2020-09-06T17:44:19Z</time>
      </trkpt>
      <trkpt lat="37.5614659488" lon="-3.0200285465">
        <ele>601.44</ele>
        <time>2020-09-06T17:44:20Z</time>
      </trkpt>
      <trkpt lat="37.5614884961" lon="-3.0199779198">
        <ele>601.44</ele>
        <time>2020-09-06T17:44:21Z</time>
      </trkpt>
      <trkpt lat="37.5615175813" lon="-3.0199285503">
        <ele>601.44</ele>
        <time>2020-09-06T17:44:22Z</time>
      </trkpt>
      <trkpt lat="37.5615542103" lon="-3.0198787618">
        <ele>601.44</ele>
        <time>2020-09-06T17:44:23Z</time>
      </trkpt>
      <trkpt lat="37.5615925156" lon="-3.0198350921">
        <ele>601.44</ele>
        <time>2020-09-06T17:44:24Z</time>
      </trkpt>
      <trkpt lat="37.5616252050" lon="-3.0197859742">
        <ele>600.96</ele>
        <time>2020-09-06T17:44:25Z</time>
      </trkpt>
      <trkpt lat="37.5616506021" lon="-3.0197351798">
        <ele>600.96</ele>
        <time>2020-09-06T17:44:26Z</time>
      </trkpt>
      <trkpt lat="37.5616684556" lon="-3.0196786020">
        <ele>600.96</ele>
        <time>2020-09-06T17:44:27Z</time>
      </trkpt>
      <trkpt lat="37.5616732333" lon="-3.0196190067">
        <ele>600.96</ele>
        <time>2020-09-06T17:44:28Z</time>
      </trkpt>
      <trkpt lat="37.5616552960" lon="-3.0195617583">
        <ele>600.48</ele>
        <time>2020-09-06T17:44:29Z</time>
      </trkpt>
      <trkpt lat="37.5616247021" lon="-3.0195111316">
        <ele>600.48</ele>
        <time>2020-09-06T17:44:30Z</time>
      </trkpt>
      <trkpt lat="37.5615944434" lon="-3.0194625165">
        <ele>600.48</ele>
        <time>2020-09-06T17:44:31Z</time>
      </trkpt>
      <trkpt lat="37.5615591556" lon="-3.0194154941">
        <ele>600.48</ele>
        <time>2020-09-06T17:44:32Z</time>
      </trkpt>
      <trkpt lat="37.5615201797" lon="-3.0193789490">
        <ele>600.48</ele>
        <time>2020-09-06T17:44:33Z</time>
      </trkpt>
      <trkpt lat="37.5614767615" lon="-3.0193501990">
        <ele>600.00</ele>
        <time>2020-09-06T17:44:34Z</time>
      </trkpt>
      <trkpt lat="37.5614376180" lon="-3.0193159170">
        <ele>600.00</ele>
        <time>2020-09-06T17:44:35Z</time>
      </trkpt>
      <trkpt lat="37.5612807926" lon="-3.0191697367">
        <ele>600.00</ele>
        <time>2020-09-06T17:44:39Z</time>
      </trkpt>
      <trkpt lat="37.5612458400" lon="-3.0191420764">
        <ele>600.00</ele>
        <time>2020-09-06T17:44:40Z</time>
      </trkpt>
      <trkpt lat="37.5612139888" lon="-3.0191023462">
        <ele>599.52</ele>
        <time>2020-09-06T17:44:41Z</time>
      </trkpt>
      <trkpt lat="37.5611895975" lon="-3.0190538149">
        <ele>599.52</ele>
        <time>2020-09-06T17:44:42Z</time>
      </trkpt>
      <trkpt lat="37.5611713249" lon="-3.0189997517">
        <ele>599.52</ele>
        <time>2020-09-06T17:44:43Z</time>
      </trkpt>
      <trkpt lat="37.5611646194" lon="-3.0189429224">
        <ele>599.04</ele>
        <time>2020-09-06T17:44:44Z</time>
      </trkpt>
      <trkpt lat="37.5611748453" lon="-3.0188846681">
        <ele>599.04</ele>
        <time>2020-09-06T17:44:45Z</time>
      </trkpt>
      <trkpt lat="37.5612011645" lon="-3.0188361369">
        <ele>599.04</ele>
        <time>2020-09-06T17:44:46Z</time>
      </trkpt>
      <trkpt lat="37.5612334348" lon="-3.0187920481">
        <ele>599.04</ele>
        <time>2020-09-06T17:44:47Z</time>
      </trkpt>
      <trkpt lat="37.5612645317" lon="-3.0187403318">
        <ele>599.04</ele>
        <time>2020-09-06T17:44:48Z</time>
      </trkpt>
      <trkpt lat="37.5612874143" lon="-3.0186886154">
        <ele>599.04</ele>
        <time>2020-09-06T17:44:49Z</time>
      </trkpt>
      <trkpt lat="37.5613050163" lon="-3.0186324567">
        <ele>599.04</ele>
        <time>2020-09-06T17:44:50Z</time>
      </trkpt>
      <trkpt lat="37.5613109674" lon="-3.0185747053">
        <ele>599.04</ele>
        <time>2020-09-06T17:44:51Z</time>
      </trkpt>
      <trkpt lat="37.5613034237" lon="-3.0185118411">
        <ele>598.56</ele>
        <time>2020-09-06T17:44:52Z</time>
      </trkpt>
      <trkpt lat="37.5612952095" lon="-3.0184579454">
        <ele>598.56</ele>
        <time>2020-09-06T17:44:53Z</time>
      </trkpt>
      <trkpt lat="37.5612885039" lon="-3.0183973443">
        <ele>598.56</ele>
        <time>2020-09-06T17:44:54Z</time>
      </trkpt>
      <trkpt lat="37.5612851512" lon="-3.0183301214">
        <ele>598.56</ele>
        <time>2020-09-06T17:44:55Z</time>
      </trkpt>
      <trkpt lat="37.5613278989" lon="-3.0182106793">
        <ele>598.08</ele>
        <time>2020-09-06T17:44:57Z</time>
      </trkpt>
      <trkpt lat="37.5613649469" lon="-3.0181854498">
        <ele>598.08</ele>
        <time>2020-09-06T17:44:58Z</time>
      </trkpt>
      <trkpt lat="37.5614154898" lon="-3.0181679316">
        <ele>598.08</ele>
        <time>2020-09-06T17:44:59Z</time>
      </trkpt>
      <trkpt lat="37.5614667870" lon="-3.0181568675">
        <ele>597.60</ele>
        <time>2020-09-06T17:45:00Z</time>
      </trkpt>
      <trkpt lat="37.5615192577" lon="-3.0181466416">
        <ele>597.60</ele>
        <time>2020-09-06T17:45:01Z</time>
      </trkpt>
      <trkpt lat="37.5615705550" lon="-3.0181343202">
        <ele>597.60</ele>
        <time>2020-09-06T17:45:02Z</time>
      </trkpt>
      <trkpt lat="37.5616233610" lon="-3.0181136169">
        <ele>597.60</ele>
        <time>2020-09-06T17:45:03Z</time>
      </trkpt>
      <trkpt lat="37.5616697967" lon="-3.0180865433">
        <ele>597.60</ele>
        <time>2020-09-06T17:45:04Z</time>
      </trkpt>
      <trkpt lat="37.5617095269" lon="-3.0180530995">
        <ele>597.60</ele>
        <time>2020-09-06T17:45:05Z</time>
      </trkpt>
      <trkpt lat="37.5617372710" lon="-3.0180060770">
        <ele>597.12</ele>
        <time>2020-09-06T17:45:06Z</time>
      </trkpt>
      <trkpt lat="37.5617428031" lon="-3.0179521814">
        <ele>597.12</ele>
        <time>2020-09-06T17:45:07Z</time>
      </trkpt>
      <trkpt lat="37.5617237762" lon="-3.0179019738">
        <ele>597.12</ele>
        <time>2020-09-06T17:45:08Z</time>
      </trkpt>
      <trkpt lat="37.5616906676" lon="-3.0178622436">
        <ele>597.12</ele>
        <time>2020-09-06T17:45:09Z</time>
      </trkpt>
      <trkpt lat="37.5616468303" lon="-3.0178313982">
        <ele>597.12</ele>
        <time>2020-09-06T17:45:10Z</time>
      </trkpt>
      <trkpt lat="37.5615999755" lon="-3.0178128742">
        <ele>597.12</ele>
        <time>2020-09-06T17:45:11Z</time>
      </trkpt>
      <trkpt lat="37.5615488458" lon="-3.0177982058">
        <ele>597.12</ele>
        <time>2020-09-06T17:45:12Z</time>
      </trkpt>
      <trkpt lat="37.5614970457" lon="-3.0177880637">
        <ele>597.12</ele>
        <time>2020-09-06T17:45:13Z</time>
      </trkpt>
      <trkpt lat="37.5614439882" lon="-3.0177852139">
        <ele>597.12</ele>
        <time>2020-09-06T17:45:14Z</time>
      </trkpt>
      <trkpt lat="37.5613926072" lon="-3.0177750718">
        <ele>596.64</ele>
        <time>2020-09-06T17:45:15Z</time>
      </trkpt>
      <trkpt lat="37.5613455009" lon="-3.0177524406">
        <ele>596.64</ele>
        <time>2020-09-06T17:45:16Z</time>
      </trkpt>
      <trkpt lat="37.5613123924" lon="-3.0177215114">
        <ele>596.64</ele>
        <time>2020-09-06T17:45:17Z</time>
      </trkpt>
      <trkpt lat="37.5612897612" lon="-3.0176805239">
        <ele>596.64</ele>
        <time>2020-09-06T17:45:18Z</time>
      </trkpt>
      <trkpt lat="37.5612824690" lon="-3.0176306516">
        <ele>596.64</ele>
        <time>2020-09-06T17:45:19Z</time>
      </trkpt>
      <trkpt lat="37.5612859894" lon="-3.0175777618">
        <ele>596.15</ele>
        <time>2020-09-06T17:45:20Z</time>
      </trkpt>
      <trkpt lat="37.5612888392" lon="-3.0175199267">
        <ele>596.15</ele>
        <time>2020-09-06T17:45:21Z</time>
      </trkpt>
      <trkpt lat="37.5612902641" lon="-3.0174561404">
        <ele>596.15</ele>
        <time>2020-09-06T17:45:22Z</time>
      </trkpt>
      <trkpt lat="37.5612919405" lon="-3.0173170846">
        <ele>596.15</ele>
        <time>2020-09-06T17:45:24Z</time>
      </trkpt>
      <trkpt lat="37.5613086205" lon="-3.0172469281">
        <ele>596.15</ele>
        <time>2020-09-06T17:45:25Z</time>
      </trkpt>
      <trkpt lat="37.5613626838" lon="-3.0171159189">
        <ele>595.19</ele>
        <time>2020-09-06T17:45:27Z</time>
      </trkpt>
      <trkpt lat="37.5614009891" lon="-3.0170704052">
        <ele>595.19</ele>
        <time>2020-09-06T17:45:28Z</time>
      </trkpt>
      <trkpt lat="37.5614446588" lon="-3.0170491152">
        <ele>595.19</ele>
        <time>2020-09-06T17:45:29Z</time>
      </trkpt>
      <trkpt lat="37.5614808686" lon="-3.0170512944">
        <ele>595.19</ele>
        <time>2020-09-06T17:45:30Z</time>
      </trkpt>
      <trkpt lat="37.5615079422" lon="-3.0170650408">
        <ele>595.19</ele>
        <time>2020-09-06T17:45:31Z</time>
      </trkpt>
      <trkpt lat="37.5615275558" lon="-3.0170887616">
        <ele>594.71</ele>
        <time>2020-09-06T17:45:32Z</time>
      </trkpt>
      <trkpt lat="37.5615443196" lon="-3.0171165895">
        <ele>594.71</ele>
        <time>2020-09-06T17:45:33Z</time>
      </trkpt>
      <trkpt lat="37.5615692139" lon="-3.0171397235">
        <ele>594.71</ele>
        <time>2020-09-06T17:45:34Z</time>
      </trkpt>
      <trkpt lat="37.5617526099" lon="-3.0172289070">
        <ele>594.23</ele>
        <time>2020-09-06T17:45:39Z</time>
      </trkpt>
      <trkpt lat="37.5617959443" lon="-3.0172253866">
        <ele>594.23</ele>
        <time>2020-09-06T17:45:40Z</time>
      </trkpt>
      <trkpt lat="37.5619233493" lon="-3.0171838123">
        <ele>594.23</ele>
        <time>2020-09-06T17:45:43Z</time>
      </trkpt>
      <trkpt lat="37.5619682763" lon="-3.0171581637">
        <ele>593.75</ele>
        <time>2020-09-06T17:45:44Z</time>
      </trkpt>
      <trkpt lat="37.5620061625" lon="-3.0171154998">
        <ele>593.75</ele>
        <time>2020-09-06T17:45:45Z</time>
      </trkpt>
      <trkpt lat="37.5620323978" lon="-3.0170584191">
        <ele>593.75</ele>
        <time>2020-09-06T17:45:46Z</time>
      </trkpt>
      <trkpt lat="37.5620443840" lon="-3.0169927888">
        <ele>593.75</ele>
        <time>2020-09-06T17:45:47Z</time>
      </trkpt>
      <trkpt lat="37.5620448031" lon="-3.0169274099">
        <ele>593.75</ele>
        <time>2020-09-06T17:45:48Z</time>
      </trkpt>
      <trkpt lat="37.5620431267" lon="-3.0168611091">
        <ele>593.75</ele>
        <time>2020-09-06T17:45:49Z</time>
      </trkpt>
      <trkpt lat="37.5620418694" lon="-3.0167347100">
        <ele>593.27</ele>
        <time>2020-09-06T17:45:51Z</time>
      </trkpt>
      <trkpt lat="37.5620151311" lon="-3.0164943170">
        <ele>593.27</ele>
        <time>2020-09-06T17:45:55Z</time>
      </trkpt>
      <trkpt lat="37.5619988702" lon="-3.0164351407">
        <ele>592.79</ele>
        <time>2020-09-06T17:45:56Z</time>
      </trkpt>
      <trkpt lat="37.5619778316" lon="-3.0163765512">
        <ele>592.79</ele>
        <time>2020-09-06T17:45:57Z</time>
      </trkpt>
      <trkpt lat="37.5619513448" lon="-3.0163191352">
        <ele>592.79</ele>
        <time>2020-09-06T17:45:58Z</time>
      </trkpt>
      <trkpt lat="37.5619198289" lon="-3.0162626412">
        <ele>592.79</ele>
        <time>2020-09-06T17:45:59Z</time>
      </trkpt>
      <trkpt lat="37.5618874747" lon="-3.0162084941">
        <ele>592.79</ele>
        <time>2020-09-06T17:46:00Z</time>
      </trkpt>
      <trkpt lat="37.5617816951" lon="-3.0159933306">
        <ele>592.31</ele>
        <time>2020-09-06T17:46:04Z</time>
      </trkpt>
      <trkpt lat="37.5617803540" lon="-3.0159357470">
        <ele>592.31</ele>
        <time>2020-09-06T17:46:05Z</time>
      </trkpt>
      <trkpt lat="37.5617927592" lon="-3.0158782471">
        <ele>592.31</ele>
        <time>2020-09-06T17:46:06Z</time>
      </trkpt>
      <trkpt lat="37.5618182402" lon="-3.0157642532">
        <ele>591.35</ele>
        <time>2020-09-06T17:46:08Z</time>
      </trkpt>
      <trkpt lat="37.5618278794" lon="-3.0157035682">
        <ele>591.35</ele>
        <time>2020-09-06T17:46:09Z</time>
      </trkpt>
      <trkpt lat="37.5618450623" lon="-3.0156473257">
        <ele>591.35</ele>
        <time>2020-09-06T17:46:10Z</time>
      </trkpt>
      <trkpt lat="37.5618649274" lon="-3.0155918375">
        <ele>591.35</ele>
        <time>2020-09-06T17:46:11Z</time>
      </trkpt>
      <trkpt lat="37.5618798472" lon="-3.0155342538">
        <ele>591.35</ele>
        <time>2020-09-06T17:46:12Z</time>
      </trkpt>
      <trkpt lat="37.5618930906" lon="-3.0154785980">
        <ele>591.35</ele>
        <time>2020-09-06T17:46:13Z</time>
      </trkpt>
      <trkpt lat="37.5619123690" lon="-3.0154293124">
        <ele>591.35</ele>
        <time>2020-09-06T17:46:14Z</time>
      </trkpt>
      <trkpt lat="37.5619290490" lon="-3.0153774284">
        <ele>591.35</ele>
        <time>2020-09-06T17:46:15Z</time>
      </trkpt>
      <trkpt lat="37.5619427953" lon="-3.0153189227">
        <ele>590.87</ele>
        <time>2020-09-06T17:46:16Z</time>
      </trkpt>
      <trkpt lat="37.5619593915" lon="-3.0152608361">
        <ele>590.39</ele>
        <time>2020-09-06T17:46:17Z</time>
      </trkpt>
      <trkpt lat="37.5620085094" lon="-3.0151550565">
        <ele>590.39</ele>
        <time>2020-09-06T17:46:19Z</time>
      </trkpt>
      <trkpt lat="37.5620395225" lon="-3.0151099619">
        <ele>590.39</ele>
        <time>2020-09-06T17:46:20Z</time>
      </trkpt>
      <trkpt lat="37.5620718766" lon="-3.0150671303">
        <ele>590.39</ele>
        <time>2020-09-06T17:46:21Z</time>
      </trkpt>
      <trkpt lat="37.5621048175" lon="-3.0150287412">
        <ele>590.39</ele>
        <time>2020-09-06T17:46:22Z</time>
      </trkpt>
      <trkpt lat="37.5621380936" lon="-3.0149923638">
        <ele>590.39</ele>
        <time>2020-09-06T17:46:23Z</time>
      </trkpt>
      <trkpt lat="37.5621683523" lon="-3.0149547290">
        <ele>590.39</ele>
        <time>2020-09-06T17:46:24Z</time>
      </trkpt>
      <trkpt lat="37.5622558594" lon="-3.0148398131">
        <ele>590.39</ele>
        <time>2020-09-06T17:46:27Z</time>
      </trkpt>
      <trkpt lat="37.5622896384" lon="-3.0148056149">
        <ele>589.91</ele>
        <time>2020-09-06T17:46:28Z</time>
      </trkpt>
      <trkpt lat="37.5623174664" lon="-3.0147751886">
        <ele>589.91</ele>
        <time>2020-09-06T17:46:29Z</time>
      </trkpt>
      <trkpt lat="37.5623311289" lon="-3.0147468578">
        <ele>589.91</ele>
        <time>2020-09-06T17:46:30Z</time>
      </trkpt>
      <trkpt lat="37.5623280276" lon="-3.0147279985">
        <ele>589.91</ele>
        <time>2020-09-06T17:46:31Z</time>
      </trkpt>
      <trkpt lat="37.5623164605" lon="-3.0147207901">
        <ele>589.91</ele>
        <time>2020-09-06T17:46:32Z</time>
      </trkpt>
      <trkpt lat="37.5623036362" lon="-3.0147267412">
        <ele>589.91</ele>
        <time>2020-09-06T17:46:33Z</time>
      </trkpt>
      <trkpt lat="37.5622923207" lon="-3.0147319380">
        <ele>589.91</ele>
        <time>2020-09-06T17:46:34Z</time>
      </trkpt>
      <trkpt lat="37.5622767303" lon="-3.0147378054">
        <ele>589.91</ele>
        <time>2020-09-06T17:46:35Z</time>
      </trkpt>
      <trkpt lat="37.5622597151" lon="-3.0147450976">
        <ele>589.91</ele>
        <time>2020-09-06T17:46:36Z</time>
      </trkpt>
      <trkpt lat="37.5621660054" lon="-3.0147967301">
        <ele>589.91</ele>
        <time>2020-09-06T17:46:48Z</time>
      </trkpt>
      <trkpt lat="37.5621601380" lon="-3.0147901922">
        <ele>589.43</ele>
        <time>2020-09-06T17:47:17Z</time>
      </trkpt>
      <trkpt lat="37.5621358305" lon="-3.0148032680">
        <ele>589.91</ele>
        <time>2020-09-06T17:47:30Z</time>
      </trkpt>
      <trkpt lat="37.5621243473" lon="-3.0148090515">
        <ele>589.91</ele>
        <time>2020-09-06T17:47:31Z</time>
      </trkpt>
      <trkpt lat="37.5621139538" lon="-3.0148171820">
        <ele>589.91</ele>
        <time>2020-09-06T17:47:32Z</time>
      </trkpt>
      <trkpt lat="37.5621037278" lon="-3.0148240551">
        <ele>589.91</ele>
        <time>2020-09-06T17:47:46Z</time>
      </trkpt>
      <trkpt lat="37.5620659254" lon="-3.0148549844">
        <ele>589.43</ele>
        <time>2020-09-06T17:48:10Z</time>
      </trkpt>
      <trkpt lat="37.5617562141" lon="-3.0150606763">
        <ele>589.91</ele>
        <time>2020-09-06T17:48:23Z</time>
      </trkpt>
      <trkpt lat="37.5614518672" lon="-3.0152762588">
        <ele>590.39</ele>
        <time>2020-09-06T17:48:34Z</time>
      </trkpt>
      <trkpt lat="37.5611124840" lon="-3.0153023265">
        <ele>590.87</ele>
        <time>2020-09-06T17:48:44Z</time>
      </trkpt>
      <trkpt lat="37.5610435009" lon="-3.0151796155">
        <ele>590.87</ele>
        <time>2020-09-06T17:48:47Z</time>
      </trkpt>
      <trkpt lat="37.5610286649" lon="-3.0151315033">
        <ele>590.87</ele>
        <time>2020-09-06T17:48:48Z</time>
      </trkpt>
      <trkpt lat="37.5610163435" lon="-3.0150843970">
        <ele>590.87</ele>
        <time>2020-09-06T17:48:49Z</time>
      </trkpt>
      <trkpt lat="37.5610068720" lon="-3.0150351953">
        <ele>591.35</ele>
        <time>2020-09-06T17:48:50Z</time>
      </trkpt>
      <trkpt lat="37.5610031839" lon="-3.0149903521">
        <ele>591.35</ele>
        <time>2020-09-06T17:48:51Z</time>
      </trkpt>
      <trkpt lat="37.5609934609" lon="-3.0149456766">
        <ele>591.35</ele>
        <time>2020-09-06T17:48:52Z</time>
      </trkpt>
      <trkpt lat="37.5609761942" lon="-3.0149037670">
        <ele>591.35</ele>
        <time>2020-09-06T17:48:53Z</time>
      </trkpt>
      <trkpt lat="37.5609503780" lon="-3.0148648750">
        <ele>591.35</ele>
        <time>2020-09-06T17:48:54Z</time>
      </trkpt>
      <trkpt lat="37.5609186105" lon="-3.0148323532">
        <ele>591.35</ele>
        <time>2020-09-06T17:48:55Z</time>
      </trkpt>
      <trkpt lat="37.5608803891" lon="-3.0148125719">
        <ele>591.35</ele>
        <time>2020-09-06T17:48:56Z</time>
      </trkpt>
      <trkpt lat="37.5608417485" lon="-3.0148084648">
        <ele>591.35</ele>
        <time>2020-09-06T17:48:57Z</time>
      </trkpt>
      <trkpt lat="37.5608031079" lon="-3.0148169305">
        <ele>591.83</ele>
        <time>2020-09-06T17:48:58Z</time>
      </trkpt>
      <trkpt lat="37.5607669819" lon="-3.0148353707">
        <ele>591.83</ele>
        <time>2020-09-06T17:48:59Z</time>
      </trkpt>
      <trkpt lat="37.5607349630" lon="-3.0148627795">
        <ele>591.83</ele>
        <time>2020-09-06T17:49:00Z</time>
      </trkpt>
      <trkpt lat="37.5607054587" lon="-3.0148951337">
        <ele>591.83</ele>
        <time>2020-09-06T17:49:01Z</time>
      </trkpt>
      <trkpt lat="37.5606779661" lon="-3.0149313435">
        <ele>591.83</ele>
        <time>2020-09-06T17:49:02Z</time>
      </trkpt>
      <trkpt lat="37.5606498867" lon="-3.0149704032">
        <ele>591.83</ele>
        <time>2020-09-06T17:49:03Z</time>
      </trkpt>
      <trkpt lat="37.5601533428" lon="-3.0156868882">
        <ele>592.79</ele>
        <time>2020-09-06T17:49:20Z</time>
      </trkpt>
      <trkpt lat="37.5601208210" lon="-3.0157216731">
        <ele>592.79</ele>
        <time>2020-09-06T17:49:21Z</time>
      </trkpt>
      <trkpt lat="37.5600841083" lon="-3.0157515965">
        <ele>592.79</ele>
        <time>2020-09-06T17:49:22Z</time>
      </trkpt>
      <trkpt lat="37.5600453001" lon="-3.0157738924">
        <ele>592.79</ele>
        <time>2020-09-06T17:49:23Z</time>
      </trkpt>
      <trkpt lat="37.5600028038" lon="-3.0157875549">
        <ele>592.79</ele>
        <time>2020-09-06T17:49:24Z</time>
      </trkpt>
      <trkpt lat="37.5599618163" lon="-3.0157932546">
        <ele>593.27</ele>
        <time>2020-09-06T17:49:25Z</time>
      </trkpt>
      <trkpt lat="37.5599187333" lon="-3.0157935061">
        <ele>593.27</ele>
        <time>2020-09-06T17:49:26Z</time>
      </trkpt>
      <trkpt lat="37.5598752312" lon="-3.0157907400">
        <ele>593.27</ele>
        <time>2020-09-06T17:49:27Z</time>
      </trkpt>
      <trkpt lat="37.5598305557" lon="-3.0157831125">
        <ele>593.27</ele>
        <time>2020-09-06T17:49:28Z</time>
      </trkpt>
      <trkpt lat="37.5597860478" lon="-3.0157751497">
        <ele>593.27</ele>
        <time>2020-09-06T17:49:29Z</time>
      </trkpt>
      <trkpt lat="37.5597419590" lon="-3.0157629959">
        <ele>593.27</ele>
        <time>2020-09-06T17:49:30Z</time>
      </trkpt>
      <trkpt lat="37.5594262127" lon="-3.0156541150">
        <ele>593.75</ele>
        <time>2020-09-06T17:49:37Z</time>
      </trkpt>
      <trkpt lat="37.5592494383" lon="-3.0156255327">
        <ele>594.23</ele>
        <time>2020-09-06T17:49:41Z</time>
      </trkpt>
      <trkpt lat="37.5589058641" lon="-3.0155294761">
        <ele>594.71</ele>
        <time>2020-09-06T17:49:49Z</time>
      </trkpt>
      <trkpt lat="37.5588248111" lon="-3.0154766701">
        <ele>594.71</ele>
        <time>2020-09-06T17:49:51Z</time>
      </trkpt>
      <trkpt lat="37.5587886851" lon="-3.0154415499">
        <ele>594.71</ele>
        <time>2020-09-06T17:49:52Z</time>
      </trkpt>
      <trkpt lat="37.5587217137" lon="-3.0153632630">
        <ele>594.71</ele>
        <time>2020-09-06T17:49:54Z</time>
      </trkpt>
      <trkpt lat="37.5586931314" lon="-3.0153206829">
        <ele>594.71</ele>
        <time>2020-09-06T17:49:55Z</time>
      </trkpt>
      <trkpt lat="37.5586383138" lon="-3.0152359419">
        <ele>594.23</ele>
        <time>2020-09-06T17:49:57Z</time>
      </trkpt>
      <trkpt lat="37.5586054567" lon="-3.0152057670">
        <ele>594.71</ele>
        <time>2020-09-06T17:49:58Z</time>
      </trkpt>
      <trkpt lat="37.5585736893" lon="-3.0151880812">
        <ele>595.19</ele>
        <time>2020-09-06T17:49:59Z</time>
      </trkpt>
      <trkpt lat="37.5585409161" lon="-3.0151778553">
        <ele>595.67</ele>
        <time>2020-09-06T17:50:00Z</time>
      </trkpt>
      <trkpt lat="37.5585044548" lon="-3.0151725747">
        <ele>595.67</ele>
        <time>2020-09-06T17:50:01Z</time>
      </trkpt>
      <trkpt lat="37.5584689993" lon="-3.0151771009">
        <ele>595.67</ele>
        <time>2020-09-06T17:50:02Z</time>
      </trkpt>
      <trkpt lat="37.5584357232" lon="-3.0151871592">
        <ele>595.67</ele>
        <time>2020-09-06T17:50:03Z</time>
      </trkpt>
      <trkpt lat="37.5584038720" lon="-3.0152002349">
        <ele>595.67</ele>
        <time>2020-09-06T17:50:04Z</time>
      </trkpt>
      <trkpt lat="37.5583750382" lon="-3.0152216926">
        <ele>595.67</ele>
        <time>2020-09-06T17:50:05Z</time>
      </trkpt>
      <trkpt lat="37.5583501440" lon="-3.0152481794">
        <ele>595.67</ele>
        <time>2020-09-06T17:50:06Z</time>
      </trkpt>
      <trkpt lat="37.5582602061" lon="-3.0155184958">
        <ele>595.67</ele>
        <time>2020-09-06T17:50:12Z</time>
      </trkpt>
      <trkpt lat="37.5582623854" lon="-3.0155702122">
        <ele>595.67</ele>
        <time>2020-09-06T17:50:13Z</time>
      </trkpt>
      <trkpt lat="37.5582710188" lon="-3.0156197492">
        <ele>595.67</ele>
        <time>2020-09-06T17:50:14Z</time>
      </trkpt>
      <trkpt lat="37.5582791492" lon="-3.0156679451">
        <ele>595.67</ele>
        <time>2020-09-06T17:50:15Z</time>
      </trkpt>
      <trkpt lat="37.5582904648" lon="-3.0157138780">
        <ele>595.67</ele>
        <time>2020-09-06T17:50:16Z</time>
      </trkpt>
      <trkpt lat="37.5583068095" lon="-3.0157581344">
        <ele>595.67</ele>
        <time>2020-09-06T17:50:17Z</time>
      </trkpt>
      <trkpt lat="37.5583265908" lon="-3.0158028938">
        <ele>596.15</ele>
        <time>2020-09-06T17:50:18Z</time>
      </trkpt>
      <trkpt lat="37.5583509821" lon="-3.0158464797">
        <ele>596.15</ele>
        <time>2020-09-06T17:50:19Z</time>
      </trkpt>
      <trkpt lat="37.5583778042" lon="-3.0158867966">
        <ele>596.15</ele>
        <time>2020-09-06T17:50:20Z</time>
      </trkpt>
      <trkpt lat="37.5585328694" lon="-3.0161449593">
        <ele>596.64</ele>
        <time>2020-09-06T17:50:26Z</time>
      </trkpt>
      <trkpt lat="37.5585474540" lon="-3.0161939934">
        <ele>596.64</ele>
        <time>2020-09-06T17:50:27Z</time>
      </trkpt>
      <trkpt lat="37.5585508905" lon="-3.0162443686">
        <ele>596.64</ele>
        <time>2020-09-06T17:50:28Z</time>
      </trkpt>
      <trkpt lat="37.5585394911" lon="-3.0162979290">
        <ele>596.64</ele>
        <time>2020-09-06T17:50:29Z</time>
      </trkpt>
      <trkpt lat="37.5585184526" lon="-3.0163453706">
        <ele>596.64</ele>
        <time>2020-09-06T17:50:30Z</time>
      </trkpt>
      <trkpt lat="37.5584909599" lon="-3.0163862742">
        <ele>596.64</ele>
        <time>2020-09-06T17:50:31Z</time>
      </trkpt>
      <trkpt lat="37.5584586058" lon="-3.0164245795">
        <ele>596.64</ele>
        <time>2020-09-06T17:50:32Z</time>
      </trkpt>
      <trkpt lat="37.5584254134" lon="-3.0164581072">
        <ele>596.64</ele>
        <time>2020-09-06T17:50:33Z</time>
      </trkpt>
      <trkpt lat="37.5583895389" lon="-3.0164886173">
        <ele>597.12</ele>
        <time>2020-09-06T17:50:34Z</time>
      </trkpt>
      <trkpt lat="37.5583154429" lon="-3.0165472906">
        <ele>597.12</ele>
        <time>2020-09-06T17:50:36Z</time>
      </trkpt>
      <trkpt lat="37.5582764670" lon="-3.0165716819">
        <ele>597.12</ele>
        <time>2020-09-06T17:50:37Z</time>
      </trkpt>
      <trkpt lat="37.5582369044" lon="-3.0165934749">
        <ele>597.12</ele>
        <time>2020-09-06T17:50:38Z</time>
      </trkpt>
      <trkpt lat="37.5581942406" lon="-3.0166126695">
        <ele>597.12</ele>
        <time>2020-09-06T17:50:39Z</time>
      </trkpt>
      <trkpt lat="37.5581537560" lon="-3.0166233983">
        <ele>597.12</ele>
        <time>2020-09-06T17:50:40Z</time>
      </trkpt>
      <trkpt lat="37.5581180491" lon="-3.0166264158">
        <ele>597.12</ele>
        <time>2020-09-06T17:50:41Z</time>
      </trkpt>
      <trkpt lat="37.5579043105" lon="-3.0165906250">
        <ele>597.60</ele>
        <time>2020-09-06T17:50:47Z</time>
      </trkpt>
      <trkpt lat="37.5578661729" lon="-3.0165643059">
        <ele>597.60</ele>
        <time>2020-09-06T17:50:48Z</time>
      </trkpt>
      <trkpt lat="37.5578284543" lon="-3.0165345501">
        <ele>597.60</ele>
        <time>2020-09-06T17:50:49Z</time>
      </trkpt>
      <trkpt lat="37.5577928312" lon="-3.0164967477">
        <ele>597.60</ele>
        <time>2020-09-06T17:50:50Z</time>
      </trkpt>
      <trkpt lat="37.5577600580" lon="-3.0164638069">
        <ele>597.60</ele>
        <time>2020-09-06T17:50:51Z</time>
      </trkpt>
      <trkpt lat="37.5577280391" lon="-3.0164293572">
        <ele>598.08</ele>
        <time>2020-09-06T17:50:52Z</time>
      </trkpt>
      <trkpt lat="37.5576991215" lon="-3.0163897108">
        <ele>598.08</ele>
        <time>2020-09-06T17:50:53Z</time>
      </trkpt>
      <trkpt lat="37.5576716289" lon="-3.0163448676">
        <ele>597.60</ele>
        <time>2020-09-06T17:50:54Z</time>
      </trkpt>
      <trkpt lat="37.5576434657" lon="-3.0162996892">
        <ele>597.60</ele>
        <time>2020-09-06T17:50:55Z</time>
      </trkpt>
      <trkpt lat="37.5576156378" lon="-3.0162558518">
        <ele>597.60</ele>
        <time>2020-09-06T17:50:56Z</time>
      </trkpt>
      <trkpt lat="37.5575906597" lon="-3.0162115116">
        <ele>598.56</ele>
        <time>2020-09-06T17:50:57Z</time>
      </trkpt>
      <trkpt lat="37.5573485065" lon="-3.0158088449">
        <ele>598.56</ele>
        <time>2020-09-06T17:51:07Z</time>
      </trkpt>
      <trkpt lat="37.5573205110" lon="-3.0157721322">
        <ele>599.04</ele>
        <time>2020-09-06T17:51:08Z</time>
      </trkpt>
      <trkpt lat="37.5572866481" lon="-3.0157505907">
        <ele>599.04</ele>
        <time>2020-09-06T17:51:09Z</time>
      </trkpt>
      <trkpt lat="37.5572486781" lon="-3.0157423764">
        <ele>599.04</ele>
        <time>2020-09-06T17:51:10Z</time>
      </trkpt>
      <trkpt lat="37.5572079420" lon="-3.0157486629">
        <ele>599.04</ele>
        <time>2020-09-06T17:51:11Z</time>
      </trkpt>
      <trkpt lat="37.5571698043" lon="-3.0157640018">
        <ele>599.04</ele>
        <time>2020-09-06T17:51:12Z</time>
      </trkpt>
      <trkpt lat="37.5571307447" lon="-3.0157831963">
        <ele>599.04</ele>
        <time>2020-09-06T17:51:13Z</time>
      </trkpt>
      <trkpt lat="37.5570960436" lon="-3.0158059113">
        <ele>599.04</ele>
        <time>2020-09-06T17:51:14Z</time>
      </trkpt>
      <trkpt lat="37.5570651144" lon="-3.0158402771">
        <ele>599.04</ele>
        <time>2020-09-06T17:51:15Z</time>
      </trkpt>
      <trkpt lat="37.5570450816" lon="-3.0158812646">
        <ele>599.04</ele>
        <time>2020-09-06T17:51:16Z</time>
      </trkpt>
      <trkpt lat="37.5570370350" lon="-3.0159234256">
        <ele>599.52</ele>
        <time>2020-09-06T17:51:17Z</time>
      </trkpt>
      <trkpt lat="37.5570400525" lon="-3.0159679335">
        <ele>599.52</ele>
        <time>2020-09-06T17:51:18Z</time>
      </trkpt>
      <trkpt lat="37.5570444111" lon="-3.0160123575">
        <ele>599.52</ele>
        <time>2020-09-06T17:51:19Z</time>
      </trkpt>
      <trkpt lat="37.5570482668" lon="-3.0160582066">
        <ele>599.52</ele>
        <time>2020-09-06T17:51:20Z</time>
      </trkpt>
      <trkpt lat="37.5570580736" lon="-3.0161055643">
        <ele>599.52</ele>
        <time>2020-09-06T17:51:21Z</time>
      </trkpt>
      <trkpt lat="37.5570731610" lon="-3.0161515810">
        <ele>599.52</ele>
        <time>2020-09-06T17:51:22Z</time>
      </trkpt>
      <trkpt lat="37.5570916850" lon="-3.0161973462">
        <ele>599.52</ele>
        <time>2020-09-06T17:51:23Z</time>
      </trkpt>
      <trkpt lat="37.5571840536" lon="-3.0164453667">
        <ele>600.00</ele>
        <time>2020-09-06T17:51:28Z</time>
      </trkpt>
      <trkpt lat="37.5572207663" lon="-3.0166104902">
        <ele>600.48</ele>
        <time>2020-09-06T17:51:31Z</time>
      </trkpt>
      <trkpt lat="37.5572243705" lon="-3.0166685767">
        <ele>600.48</ele>
        <time>2020-09-06T17:51:32Z</time>
      </trkpt>
      <trkpt lat="37.5572209340" lon="-3.0167273339">
        <ele>600.48</ele>
        <time>2020-09-06T17:51:33Z</time>
      </trkpt>
      <trkpt lat="37.5572122168" lon="-3.0167850014">
        <ele>600.48</ele>
        <time>2020-09-06T17:51:34Z</time>
      </trkpt>
      <trkpt lat="37.5571982190" lon="-3.0168414954">
        <ele>600.48</ele>
        <time>2020-09-06T17:51:35Z</time>
      </trkpt>
      <trkpt lat="37.5571812876" lon="-3.0168963131">
        <ele>600.48</ele>
        <time>2020-09-06T17:51:36Z</time>
      </trkpt>
      <trkpt lat="37.5571632665" lon="-3.0169498734">
        <ele>600.48</ele>
        <time>2020-09-06T17:51:37Z</time>
      </trkpt>
      <trkpt lat="37.5571222790" lon="-3.0170525517">
        <ele>600.48</ele>
        <time>2020-09-06T17:51:39Z</time>
      </trkpt>
      <trkpt lat="37.5570924394" lon="-3.0170959700">
        <ele>600.48</ele>
        <time>2020-09-06T17:51:40Z</time>
      </trkpt>
      <trkpt lat="37.5570563134" lon="-3.0171258934">
        <ele>600.48</ele>
        <time>2020-09-06T17:51:41Z</time>
      </trkpt>
      <trkpt lat="37.5570125598" lon="-3.0171381310">
        <ele>600.48</ele>
        <time>2020-09-06T17:51:42Z</time>
      </trkpt>
      <trkpt lat="37.5569684710" lon="-3.0171365384">
        <ele>600.96</ele>
        <time>2020-09-06T17:51:43Z</time>
      </trkpt>
      <trkpt lat="37.5569284894" lon="-3.0171278212">
        <ele>600.96</ele>
        <time>2020-09-06T17:51:44Z</time>
      </trkpt>
      <trkpt lat="37.5568901841" lon="-3.0171183497">
        <ele>600.96</ele>
        <time>2020-09-06T17:51:45Z</time>
      </trkpt>
      <trkpt lat="37.5568511244" lon="-3.0171079561">
        <ele>601.44</ele>
        <time>2020-09-06T17:51:46Z</time>
      </trkpt>
      <trkpt lat="37.5565509684" lon="-3.0170846544">
        <ele>601.44</ele>
        <time>2020-09-06T17:51:54Z</time>
      </trkpt>
      <trkpt lat="37.5565186143" lon="-3.0171228759">
        <ele>601.44</ele>
        <time>2020-09-06T17:51:55Z</time>
      </trkpt>
      <trkpt lat="37.5564940553" lon="-3.0171659589">
        <ele>601.44</ele>
        <time>2020-09-06T17:51:56Z</time>
      </trkpt>
      <trkpt lat="37.5564517267" lon="-3.0172593333">
        <ele>601.92</ele>
        <time>2020-09-06T17:51:58Z</time>
      </trkpt>
      <trkpt lat="37.5564179476" lon="-3.0173620954">
        <ele>601.92</ele>
        <time>2020-09-06T17:52:00Z</time>
      </trkpt>
      <trkpt lat="37.5563496351" lon="-3.0175699666">
        <ele>601.92</ele>
        <time>2020-09-06T17:52:04Z</time>
      </trkpt>
      <trkpt lat="37.5563347153" lon="-3.0176226888">
        <ele>601.92</ele>
        <time>2020-09-06T17:52:05Z</time>
      </trkpt>
      <trkpt lat="37.5563163590" lon="-3.0176753271">
        <ele>602.40</ele>
        <time>2020-09-06T17:52:06Z</time>
      </trkpt>
      <trkpt lat="37.5562705100" lon="-3.0177750718">
        <ele>602.40</ele>
        <time>2020-09-06T17:52:08Z</time>
      </trkpt>
      <trkpt lat="37.5562146865" lon="-3.0178749841">
        <ele>602.40</ele>
        <time>2020-09-06T17:52:10Z</time>
      </trkpt>
      <trkpt lat="37.5561198872" lon="-3.0180095974">
        <ele>602.88</ele>
        <time>2020-09-06T17:52:13Z</time>
      </trkpt>
      <trkpt lat="37.5560813304" lon="-3.0180463940">
        <ele>602.88</ele>
        <time>2020-09-06T17:52:14Z</time>
      </trkpt>
      <trkpt lat="37.5560397562" lon="-3.0180783290">
        <ele>602.88</ele>
        <time>2020-09-06T17:52:15Z</time>
      </trkpt>
      <trkpt lat="37.5559954159" lon="-3.0181091744">
        <ele>602.88</ele>
        <time>2020-09-06T17:52:16Z</time>
      </trkpt>
      <trkpt lat="37.5559524167" lon="-3.0181337334">
        <ele>602.88</ele>
        <time>2020-09-06T17:52:17Z</time>
      </trkpt>
      <trkpt lat="37.5559083279" lon="-3.0181543529">
        <ele>602.88</ele>
        <time>2020-09-06T17:52:18Z</time>
      </trkpt>
      <trkpt lat="37.5558644067" lon="-3.0181682669">
        <ele>602.88</ele>
        <time>2020-09-06T17:52:19Z</time>
      </trkpt>
      <trkpt lat="37.5558229163" lon="-3.0181753077">
        <ele>602.88</ele>
        <time>2020-09-06T17:52:20Z</time>
      </trkpt>
      <trkpt lat="37.5556515902" lon="-3.0181854498">
        <ele>603.36</ele>
        <time>2020-09-06T17:52:24Z</time>
      </trkpt>
      <trkpt lat="37.5556095969" lon="-3.0181955080">
        <ele>603.36</ele>
        <time>2020-09-06T17:52:25Z</time>
      </trkpt>
      <trkpt lat="37.5555692799" lon="-3.0182178877">
        <ele>603.36</ele>
        <time>2020-09-06T17:52:26Z</time>
      </trkpt>
      <trkpt lat="37.5555333216" lon="-3.0182520021">
        <ele>603.85</ele>
        <time>2020-09-06T17:52:27Z</time>
      </trkpt>
      <trkpt lat="37.5555013027" lon="-3.0182917323">
        <ele>603.85</ele>
        <time>2020-09-06T17:52:28Z</time>
      </trkpt>
      <trkpt lat="37.5554717146" lon="-3.0183341447">
        <ele>603.85</ele>
        <time>2020-09-06T17:52:29Z</time>
      </trkpt>
      <trkpt lat="37.5554454792" lon="-3.0183789879">
        <ele>603.85</ele>
        <time>2020-09-06T17:52:30Z</time>
      </trkpt>
      <trkpt lat="37.5554192439" lon="-3.0184281897">
        <ele>603.85</ele>
        <time>2020-09-06T17:52:31Z</time>
      </trkpt>
      <trkpt lat="37.5553174037" lon="-3.0186208058">
        <ele>604.33</ele>
        <time>2020-09-06T17:52:35Z</time>
      </trkpt>
      <trkpt lat="37.5552919228" lon="-3.0186718516">
        <ele>604.33</ele>
        <time>2020-09-06T17:52:36Z</time>
      </trkpt>
      <trkpt lat="37.5552629214" lon="-3.0187208019">
        <ele>604.33</ele>
        <time>2020-09-06T17:52:37Z</time>
      </trkpt>
      <trkpt lat="37.5552249514" lon="-3.0187644716">
        <ele>604.33</ele>
        <time>2020-09-06T17:52:38Z</time>
      </trkpt>
      <trkpt lat="37.5551877357" lon="-3.0188016035">
        <ele>604.33</ele>
        <time>2020-09-06T17:52:39Z</time>
      </trkpt>
      <trkpt lat="37.5551479217" lon="-3.0188345443">
        <ele>604.33</ele>
        <time>2020-09-06T17:52:40Z</time>
      </trkpt>
      <trkpt lat="37.5551048387" lon="-3.0188621208">
        <ele>604.33</ele>
        <time>2020-09-06T17:52:41Z</time>
      </trkpt>
      <trkpt lat="37.5550594926" lon="-3.0188857578">
        <ele>604.33</ele>
        <time>2020-09-06T17:52:42Z</time>
      </trkpt>
      <trkpt lat="37.5550133921" lon="-3.0189026892">
        <ele>604.81</ele>
        <time>2020-09-06T17:52:43Z</time>
      </trkpt>
      <trkpt lat="37.5549687166" lon="-3.0189081375">
        <ele>604.81</ele>
        <time>2020-09-06T17:52:44Z</time>
      </trkpt>
      <trkpt lat="37.5549230352" lon="-3.0189022701">
        <ele>604.81</ele>
        <time>2020-09-06T17:52:45Z</time>
      </trkpt>
      <trkpt lat="37.5548801199" lon="-3.0188975763">
        <ele>604.81</ele>
        <time>2020-09-06T17:52:46Z</time>
      </trkpt>
      <trkpt lat="37.5548377912" lon="-3.0189007614">
        <ele>605.29</ele>
        <time>2020-09-06T17:52:47Z</time>
      </trkpt>
      <trkpt lat="37.5547434110" lon="-3.0189803895">
        <ele>605.77</ele>
        <time>2020-09-06T17:52:50Z</time>
      </trkpt>
      <trkpt lat="37.5547224563" lon="-3.0190269090">
        <ele>605.77</ele>
        <time>2020-09-06T17:52:51Z</time>
      </trkpt>
      <trkpt lat="37.5547113083" lon="-3.0190795474">
        <ele>605.77</ele>
        <time>2020-09-06T17:52:52Z</time>
      </trkpt>
      <trkpt lat="37.5547108892" lon="-3.0191958044">
        <ele>605.77</ele>
        <time>2020-09-06T17:52:54Z</time>
      </trkpt>
      <trkpt lat="37.5547090452" lon="-3.0194231216">
        <ele>605.77</ele>
        <time>2020-09-06T17:52:58Z</time>
      </trkpt>
      <trkpt lat="37.5546942931" lon="-3.0194751732">
        <ele>606.25</ele>
        <time>2020-09-06T17:52:59Z</time>
      </trkpt>
      <trkpt lat="37.5546718296" lon="-3.0195273086">
        <ele>606.25</ele>
        <time>2020-09-06T17:53:00Z</time>
      </trkpt>
      <trkpt lat="37.5545832328" lon="-3.0197283067">
        <ele>606.25</ele>
        <time>2020-09-06T17:53:04Z</time>
      </trkpt>
      <trkpt lat="37.5544326939" lon="-3.0200591404">
        <ele>606.25</ele>
        <time>2020-09-06T17:53:11Z</time>
      </trkpt>
      <trkpt lat="37.5544191990" lon="-3.0201091804">
        <ele>606.25</ele>
        <time>2020-09-06T17:53:12Z</time>
      </trkpt>
      <trkpt lat="37.5544050336" lon="-3.0201593880">
        <ele>606.25</ele>
        <time>2020-09-06T17:53:13Z</time>
      </trkpt>
      <trkpt lat="37.5543846656" lon="-3.0202102661">
        <ele>606.25</ele>
        <time>2020-09-06T17:53:14Z</time>
      </trkpt>
      <trkpt lat="37.5543656386" lon="-3.0202585459">
        <ele>606.25</ele>
        <time>2020-09-06T17:53:15Z</time>
      </trkpt>
      <trkpt lat="37.5543550774" lon="-3.0203094240">
        <ele>606.25</ele>
        <time>2020-09-06T17:53:16Z</time>
      </trkpt>
      <trkpt lat="37.5543565024" lon="-3.0203613080">
        <ele>606.73</ele>
        <time>2020-09-06T17:53:17Z</time>
      </trkpt>
      <trkpt lat="37.5543682370" lon="-3.0204106774">
        <ele>606.73</ele>
        <time>2020-09-06T17:53:18Z</time>
      </trkpt>
      <trkpt lat="37.5543897785" lon="-3.0204548500">
        <ele>606.73</ele>
        <time>2020-09-06T17:53:19Z</time>
      </trkpt>
      <trkpt lat="37.5544184446" lon="-3.0204908922">
        <ele>606.73</ele>
        <time>2020-09-06T17:53:20Z</time>
      </trkpt>
      <trkpt lat="37.5544550736" lon="-3.0205222405">
        <ele>606.73</ele>
        <time>2020-09-06T17:53:21Z</time>
      </trkpt>
      <trkpt lat="37.5544922054" lon="-3.0205443688">
        <ele>606.73</ele>
        <time>2020-09-06T17:53:22Z</time>
      </trkpt>
      <trkpt lat="37.5545302592" lon="-3.0205651559">
        <ele>606.73</ele>
        <time>2020-09-06T17:53:23Z</time>
      </trkpt>
      <trkpt lat="37.5545676425" lon="-3.0205899663">
        <ele>606.73</ele>
        <time>2020-09-06T17:53:24Z</time>
      </trkpt>
      <trkpt lat="37.5546351168" lon="-3.0206458736">
        <ele>607.21</ele>
        <time>2020-09-06T17:53:26Z</time>
      </trkpt>
      <trkpt lat="37.5546627771" lon="-3.0206874479">
        <ele>607.21</ele>
        <time>2020-09-06T17:53:27Z</time>
      </trkpt>
      <trkpt lat="37.5546842348" lon="-3.0207340512">
        <ele>607.21</ele>
        <time>2020-09-06T17:53:28Z</time>
      </trkpt>
      <trkpt lat="37.5547014177" lon="-3.0207852647">
        <ele>607.21</ele>
        <time>2020-09-06T17:53:29Z</time>
      </trkpt>
      <trkpt lat="37.5547126494" lon="-3.0208373163">
        <ele>607.21</ele>
        <time>2020-09-06T17:53:30Z</time>
      </trkpt>
      <trkpt lat="37.5547197741" lon="-3.0208919663">
        <ele>607.21</ele>
        <time>2020-09-06T17:53:31Z</time>
      </trkpt>
      <trkpt lat="37.5547236297" lon="-3.0209442694">
        <ele>607.21</ele>
        <time>2020-09-06T17:53:32Z</time>
      </trkpt>
      <trkpt lat="37.5547234621" lon="-3.0209979136">
        <ele>607.21</ele>
        <time>2020-09-06T17:53:33Z</time>
      </trkpt>
      <trkpt lat="37.5547213666" lon="-3.0210556649">
        <ele>607.69</ele>
        <time>2020-09-06T17:53:34Z</time>
      </trkpt>
      <trkpt lat="37.5547175948" lon="-3.0211067107">
        <ele>607.69</ele>
        <time>2020-09-06T17:53:35Z</time>
      </trkpt>
      <trkpt lat="37.5547124818" lon="-3.0211633723">
        <ele>607.69</ele>
        <time>2020-09-06T17:53:36Z</time>
      </trkpt>
      <trkpt lat="37.5547125656" lon="-3.0218371097">
        <ele>608.65</ele>
        <time>2020-09-06T17:53:48Z</time>
      </trkpt>
      <trkpt lat="37.5547112245" lon="-3.0218897481">
        <ele>608.65</ele>
        <time>2020-09-06T17:53:49Z</time>
      </trkpt>
      <trkpt lat="37.5547140744" lon="-3.0219472479">
        <ele>608.65</ele>
        <time>2020-09-06T17:53:50Z</time>
      </trkpt>
      <trkpt lat="37.5547241326" lon="-3.0219988804">
        <ele>608.65</ele>
        <time>2020-09-06T17:53:51Z</time>
      </trkpt>
      <trkpt lat="37.5547419861" lon="-3.0220454838">
        <ele>608.65</ele>
        <time>2020-09-06T17:53:52Z</time>
      </trkpt>
      <trkpt lat="37.5547703169" lon="-3.0220892373">
        <ele>608.65</ele>
        <time>2020-09-06T17:53:53Z</time>
      </trkpt>
      <trkpt lat="37.5548040122" lon="-3.0221263692">
        <ele>608.65</ele>
        <time>2020-09-06T17:53:54Z</time>
      </trkpt>
      <trkpt lat="37.5548396353" lon="-3.0221607350">
        <ele>608.65</ele>
        <time>2020-09-06T17:53:55Z</time>
      </trkpt>
      <trkpt lat="37.5548760965" lon="-3.0221919995">
        <ele>608.65</ele>
        <time>2020-09-06T17:53:56Z</time>
      </trkpt>
      <trkpt lat="37.5549166650" lon="-3.0222175643">
        <ele>608.65</ele>
        <time>2020-09-06T17:53:57Z</time>
      </trkpt>
      <trkpt lat="37.5549580716" lon="-3.0222341605">
        <ele>609.13</ele>
        <time>2020-09-06T17:53:58Z</time>
      </trkpt>
      <trkpt lat="37.5549991429" lon="-3.0222460628">
        <ele>609.13</ele>
        <time>2020-09-06T17:53:59Z</time>
      </trkpt>
      <trkpt lat="37.5550419744" lon="-3.0222581327">
        <ele>609.13</ele>
        <time>2020-09-06T17:54:00Z</time>
      </trkpt>
      <trkpt lat="37.5552132167" lon="-3.0223189015">
        <ele>609.61</ele>
        <time>2020-09-06T17:54:04Z</time>
      </trkpt>
      <trkpt lat="37.5553578045" lon="-3.0224259384">
        <ele>609.61</ele>
        <time>2020-09-06T17:54:08Z</time>
      </trkpt>
      <trkpt lat="37.5553884823" lon="-3.0224620644">
        <ele>609.61</ele>
        <time>2020-09-06T17:54:09Z</time>
      </trkpt>
      <trkpt lat="37.5554184057" lon="-3.0225005373">
        <ele>609.61</ele>
        <time>2020-09-06T17:54:10Z</time>
      </trkpt>
      <trkpt lat="37.5555230118" lon="-3.0226673372">
        <ele>609.61</ele>
        <time>2020-09-06T17:54:14Z</time>
      </trkpt>
      <trkpt lat="37.5555725489" lon="-3.0228175409">
        <ele>609.61</ele>
        <time>2020-09-06T17:54:17Z</time>
      </trkpt>
      <trkpt lat="37.5555819366" lon="-3.0228694249">
        <ele>609.61</ele>
        <time>2020-09-06T17:54:18Z</time>
      </trkpt>
      <trkpt lat="37.5555784162" lon="-3.0229234044">
        <ele>610.09</ele>
        <time>2020-09-06T17:54:19Z</time>
      </trkpt>
      <trkpt lat="37.5555642508" lon="-3.0229709297">
        <ele>610.09</ele>
        <time>2020-09-06T17:54:20Z</time>
      </trkpt>
      <trkpt lat="37.5555428769" lon="-3.0230196286">
        <ele>610.09</ele>
        <time>2020-09-06T17:54:21Z</time>
      </trkpt>
      <trkpt lat="37.5555204973" lon="-3.0230663158">
        <ele>610.09</ele>
        <time>2020-09-06T17:54:22Z</time>
      </trkpt>
      <trkpt lat="37.5554954354" lon="-3.0230988376">
        <ele>610.09</ele>
        <time>2020-09-06T17:54:23Z</time>
      </trkpt>
      <trkpt lat="37.5554762408" lon="-3.0231198762">
        <ele>610.09</ele>
        <time>2020-09-06T17:54:24Z</time>
      </trkpt>
      <trkpt lat="37.5554595608" lon="-3.0231321976">
        <ele>610.57</ele>
        <time>2020-09-06T17:54:25Z</time>
      </trkpt>
      <trkpt lat="37.5554381032" lon="-3.0231420044">
        <ele>610.57</ele>
        <time>2020-09-06T17:54:26Z</time>
      </trkpt>
      <trkpt lat="37.5554102752" lon="-3.0231552478">
        <ele>610.57</ele>
        <time>2020-09-06T17:54:27Z</time>
      </trkpt>
      <trkpt lat="37.5553792622" lon="-3.0231760349">
        <ele>610.57</ele>
        <time>2020-09-06T17:54:28Z</time>
      </trkpt>
      <trkpt lat="37.5551627576" lon="-3.0232906155">
        <ele>611.06</ele>
        <time>2020-09-06T17:54:34Z</time>
      </trkpt>
      <trkpt lat="37.5550400466" lon="-3.0233254004">
        <ele>611.06</ele>
        <time>2020-09-06T17:54:37Z</time>
      </trkpt>
      <trkpt lat="37.5549964607" lon="-3.0233335309">
        <ele>611.06</ele>
        <time>2020-09-06T17:54:38Z</time>
      </trkpt>
      <trkpt lat="37.5549577363" lon="-3.0233544018">
        <ele>611.54</ele>
        <time>2020-09-06T17:54:39Z</time>
      </trkpt>
      <trkpt lat="37.5549262203" lon="-3.0233910307">
        <ele>611.54</ele>
        <time>2020-09-06T17:54:40Z</time>
      </trkpt>
      <trkpt lat="37.5549025834" lon="-3.0234365445">
        <ele>611.54</ele>
        <time>2020-09-06T17:54:41Z</time>
      </trkpt>
      <trkpt lat="37.5548864901" lon="-3.0234860815">
        <ele>611.54</ele>
        <time>2020-09-06T17:54:42Z</time>
      </trkpt>
      <trkpt lat="37.5548776053" lon="-3.0235381331">
        <ele>611.54</ele>
        <time>2020-09-06T17:54:43Z</time>
      </trkpt>
      <trkpt lat="37.5548689719" lon="-3.0235912744">
        <ele>612.02</ele>
        <time>2020-09-06T17:54:44Z</time>
      </trkpt>
      <trkpt lat="37.5548565667" lon="-3.0236447509">
        <ele>612.02</ele>
        <time>2020-09-06T17:54:45Z</time>
      </trkpt>
      <trkpt lat="37.5548421498" lon="-3.0236905999">
        <ele>612.02</ele>
        <time>2020-09-06T17:54:46Z</time>
      </trkpt>
      <trkpt lat="37.5548172556" lon="-3.0237325933">
        <ele>612.02</ele>
        <time>2020-09-06T17:54:47Z</time>
      </trkpt>
      <trkpt lat="37.5547837280" lon="-3.0237673782">
        <ele>612.02</ele>
        <time>2020-09-06T17:54:48Z</time>
      </trkpt>
      <trkpt lat="37.5547456741" lon="-3.0237927753">
        <ele>612.02</ele>
        <time>2020-09-06T17:54:49Z</time>
      </trkpt>
      <trkpt lat="37.5547030941" lon="-3.0238115508">
        <ele>612.02</ele>
        <time>2020-09-06T17:54:50Z</time>
      </trkpt>
      <trkpt lat="37.5546590053" lon="-3.0238254648">
        <ele>612.02</ele>
        <time>2020-09-06T17:54:51Z</time>
      </trkpt>
      <trkpt lat="37.5546143297" lon="-3.0238310806">
        <ele>612.02</ele>
        <time>2020-09-06T17:54:52Z</time>
      </trkpt>
      <trkpt lat="37.5545682292" lon="-3.0238307454">
        <ele>612.02</ele>
        <time>2020-09-06T17:54:53Z</time>
      </trkpt>
      <trkpt lat="37.5544300117" lon="-3.0238196813">
        <ele>612.50</ele>
        <time>2020-09-06T17:54:56Z</time>
      </trkpt>
      <trkpt lat="37.5543839112" lon="-3.0238171667">
        <ele>612.50</ele>
        <time>2020-09-06T17:54:57Z</time>
      </trkpt>
      <trkpt lat="37.5539479684" lon="-3.0237058550">
        <ele>613.46</ele>
        <time>2020-09-06T17:55:07Z</time>
      </trkpt>
      <trkpt lat="37.5539127644" lon="-3.0236735847">
        <ele>613.46</ele>
        <time>2020-09-06T17:55:08Z</time>
      </trkpt>
      <trkpt lat="37.5538794883" lon="-3.0236294121">
        <ele>611.06</ele>
        <time>2020-09-06T17:55:09Z</time>
      </trkpt>
      <trkpt lat="37.5538635626" lon="-3.0235973932">
        <ele>611.06</ele>
        <time>2020-09-06T17:55:10Z</time>
      </trkpt>
      <trkpt lat="37.5538420212" lon="-3.0235512089">
        <ele>614.90</ele>
        <time>2020-09-06T17:55:11Z</time>
      </trkpt>
      <trkpt lat="37.5538196415" lon="-3.0235069524">
        <ele>613.94</ele>
        <time>2020-09-06T17:55:12Z</time>
      </trkpt>
      <trkpt lat="37.5537947472" lon="-3.0234651268">
        <ele>612.02</ele>
        <time>2020-09-06T17:55:13Z</time>
      </trkpt>
      <trkpt lat="37.5537654106" lon="-3.0234251451">
        <ele>614.90</ele>
        <time>2020-09-06T17:55:14Z</time>
      </trkpt>
      <trkpt lat="37.5537312962" lon="-3.0233948864">
        <ele>614.90</ele>
        <time>2020-09-06T17:55:15Z</time>
      </trkpt>
      <trkpt lat="37.5536923204" lon="-3.0233766139">
        <ele>613.46</ele>
        <time>2020-09-06T17:55:16Z</time>
      </trkpt>
      <trkpt lat="37.5536533445" lon="-3.0233709142">
        <ele>613.46</ele>
        <time>2020-09-06T17:55:17Z</time>
      </trkpt>
      <trkpt lat="37.5536161289" lon="-3.0233858339">
        <ele>613.46</ele>
        <time>2020-09-06T17:55:18Z</time>
      </trkpt>
      <trkpt lat="37.5535878818" lon="-3.0234154221">
        <ele>613.46</ele>
        <time>2020-09-06T17:55:19Z</time>
      </trkpt>
      <trkpt lat="37.5535722915" lon="-3.0234594271">
        <ele>613.46</ele>
        <time>2020-09-06T17:55:20Z</time>
      </trkpt>
      <trkpt lat="37.5535659213" lon="-3.0235090479">
        <ele>613.46</ele>
        <time>2020-09-06T17:55:21Z</time>
      </trkpt>
      <trkpt lat="37.5535635743" lon="-3.0235620216">
        <ele>613.46</ele>
        <time>2020-09-06T17:55:22Z</time>
      </trkpt>
      <trkpt lat="37.5535625685" lon="-3.0236163363">
        <ele>613.46</ele>
        <time>2020-09-06T17:55:23Z</time>
      </trkpt>
      <trkpt lat="37.5535676815" lon="-3.0237873271">
        <ele>613.46</ele>
        <time>2020-09-06T17:55:26Z</time>
      </trkpt>
      <trkpt lat="37.5535622332" lon="-3.0241858028">
        <ele>614.90</ele>
        <time>2020-09-06T17:55:33Z</time>
      </trkpt>
      <trkpt lat="37.5534536038" lon="-3.0245744716">
        <ele>614.90</ele>
        <time>2020-09-06T17:55:40Z</time>
      </trkpt>
      <trkpt lat="37.5534298830" lon="-3.0246841908">
        <ele>614.90</ele>
        <time>2020-09-06T17:55:42Z</time>
      </trkpt>
      <trkpt lat="37.5534073357" lon="-3.0247289501">
        <ele>614.90</ele>
        <time>2020-09-06T17:55:43Z</time>
      </trkpt>
      <trkpt lat="37.5533726346" lon="-3.0247650761">
        <ele>614.90</ele>
        <time>2020-09-06T17:55:44Z</time>
      </trkpt>
      <trkpt lat="37.5533320662" lon="-3.0247859471">
        <ele>615.38</ele>
        <time>2020-09-06T17:55:45Z</time>
      </trkpt>
      <trkpt lat="37.5532875583" lon="-3.0247932393">
        <ele>615.38</ele>
        <time>2020-09-06T17:55:46Z</time>
      </trkpt>
      <trkpt lat="37.5532459002" lon="-3.0247905571">
        <ele>615.38</ele>
        <time>2020-09-06T17:55:47Z</time>
      </trkpt>
      <trkpt lat="37.5532043260" lon="-3.0247833487">
        <ele>615.38</ele>
        <time>2020-09-06T17:55:48Z</time>
      </trkpt>
      <trkpt lat="37.5530754961" lon="-3.0247507431">
        <ele>615.38</ele>
        <time>2020-09-06T17:55:51Z</time>
      </trkpt>
      <trkpt lat="37.5530322455" lon="-3.0247359909">
        <ele>615.38</ele>
        <time>2020-09-06T17:55:52Z</time>
      </trkpt>
      <trkpt lat="37.5529903360" lon="-3.0247213226">
        <ele>615.86</ele>
        <time>2020-09-06T17:55:53Z</time>
      </trkpt>
      <trkpt lat="37.5529475883" lon="-3.0247068219">
        <ele>615.86</ele>
        <time>2020-09-06T17:55:54Z</time>
      </trkpt>
      <trkpt lat="37.5529023260" lon="-3.0246970151">
        <ele>615.86</ele>
        <time>2020-09-06T17:55:55Z</time>
      </trkpt>
      <trkpt lat="37.5528604165" lon="-3.0246920697">
        <ele>615.86</ele>
        <time>2020-09-06T17:55:56Z</time>
      </trkpt>
      <trkpt lat="37.5528149866" lon="-3.0246923212">
        <ele>615.86</ele>
        <time>2020-09-06T17:55:57Z</time>
      </trkpt>
      <trkpt lat="37.5527736638" lon="-3.0246996973">
        <ele>616.34</ele>
        <time>2020-09-06T17:55:58Z</time>
      </trkpt>
      <trkpt lat="37.5527353585" lon="-3.0247100908">
        <ele>616.34</ele>
        <time>2020-09-06T17:55:59Z</time>
      </trkpt>
      <trkpt lat="37.5523822289" lon="-3.0248752143">
        <ele>617.78</ele>
        <time>2020-09-06T17:56:09Z</time>
      </trkpt>
      <trkpt lat="37.5523478631" lon="-3.0249094963">
        <ele>617.78</ele>
        <time>2020-09-06T17:56:10Z</time>
      </trkpt>
      <trkpt lat="37.5523158442" lon="-3.0249333009">
        <ele>617.78</ele>
        <time>2020-09-06T17:56:11Z</time>
      </trkpt>
      <trkpt lat="37.5522817299" lon="-3.0249395873">
        <ele>617.78</ele>
        <time>2020-09-06T17:56:12Z</time>
      </trkpt>
      <trkpt lat="37.5522451010" lon="-3.0249310378">
        <ele>617.78</ele>
        <time>2020-09-06T17:56:13Z</time>
      </trkpt>
      <trkpt lat="37.5522081368" lon="-3.0249142740">
        <ele>617.78</ele>
        <time>2020-09-06T17:56:14Z</time>
      </trkpt>
      <trkpt lat="37.5521690771" lon="-3.0248995218">
        <ele>617.78</ele>
        <time>2020-09-06T17:56:15Z</time>
      </trkpt>
      <trkpt lat="37.5521283410" lon="-3.0248888768">
        <ele>617.78</ele>
        <time>2020-09-06T17:56:16Z</time>
      </trkpt>
      <trkpt lat="37.5519719347" lon="-3.0248512421">
        <ele>617.78</ele>
        <time>2020-09-06T17:56:20Z</time>
      </trkpt>
      <trkpt lat="37.5519372337" lon="-3.0248683412">
        <ele>617.78</ele>
        <time>2020-09-06T17:56:21Z</time>
      </trkpt>
      <trkpt lat="37.5519066397" lon="-3.0248962529">
        <ele>618.26</ele>
        <time>2020-09-06T17:56:22Z</time>
      </trkpt>
      <trkpt lat="37.5518822484" lon="-3.0249328818">
        <ele>618.26</ele>
        <time>2020-09-06T17:56:23Z</time>
      </trkpt>
      <trkpt lat="37.5518642273" lon="-3.0249770544">
        <ele>618.26</ele>
        <time>2020-09-06T17:56:24Z</time>
      </trkpt>
      <trkpt lat="37.5518516544" lon="-3.0250290222">
        <ele>618.26</ele>
        <time>2020-09-06T17:56:25Z</time>
      </trkpt>
      <trkpt lat="37.5518457033" lon="-3.0250784755">
        <ele>618.26</ele>
        <time>2020-09-06T17:56:26Z</time>
      </trkpt>
      <trkpt lat="37.5518424343" lon="-3.0251112487">
        <ele>618.26</ele>
        <time>2020-09-06T17:56:27Z</time>
      </trkpt>
      <trkpt lat="37.5518495589" lon="-3.0252283439">
        <ele>618.26</ele>
        <time>2020-09-06T17:56:29Z</time>
      </trkpt>
      <trkpt lat="37.5519288518" lon="-3.0256331898">
        <ele>618.75</ele>
        <time>2020-09-06T17:56:37Z</time>
      </trkpt>
      <trkpt lat="37.5519460347" lon="-3.0256885104">
        <ele>618.75</ele>
        <time>2020-09-06T17:56:38Z</time>
      </trkpt>
      <trkpt lat="37.5519665703" lon="-3.0257324316">
        <ele>618.75</ele>
        <time>2020-09-06T17:56:39Z</time>
      </trkpt>
      <trkpt lat="37.5519989245" lon="-3.0257732514">
        <ele>618.75</ele>
        <time>2020-09-06T17:56:40Z</time>
      </trkpt>
      <trkpt lat="37.5520364754" lon="-3.0257961340">
        <ele>619.23</ele>
        <time>2020-09-06T17:56:41Z</time>
      </trkpt>
      <trkpt lat="37.5520753674" lon="-3.0258101318">
        <ele>619.23</ele>
        <time>2020-09-06T17:56:42Z</time>
      </trkpt>
      <trkpt lat="37.5521150138" lon="-3.0258181784">
        <ele>619.23</ele>
        <time>2020-09-06T17:56:43Z</time>
      </trkpt>
      <trkpt lat="37.5522001740" lon="-3.0258207768">
        <ele>619.23</ele>
        <time>2020-09-06T17:56:45Z</time>
      </trkpt>
      <trkpt lat="37.5522413291" lon="-3.0258122273">
        <ele>619.23</ele>
        <time>2020-09-06T17:56:46Z</time>
      </trkpt>
      <trkpt lat="37.5522833224" lon="-3.0258021690">
        <ele>619.71</ele>
        <time>2020-09-06T17:56:47Z</time>
      </trkpt>
      <trkpt lat="37.5523231365" lon="-3.0257980619">
        <ele>619.71</ele>
        <time>2020-09-06T17:56:48Z</time>
      </trkpt>
      <trkpt lat="37.5523635373" lon="-3.0258095451">
        <ele>619.71</ele>
        <time>2020-09-06T17:56:49Z</time>
      </trkpt>
      <trkpt lat="37.5523920357" lon="-3.0258367863">
        <ele>619.71</ele>
        <time>2020-09-06T17:56:50Z</time>
      </trkpt>
      <trkpt lat="37.5524074584" lon="-3.0258770194">
        <ele>619.71</ele>
        <time>2020-09-06T17:56:51Z</time>
      </trkpt>
      <trkpt lat="37.5524071231" lon="-3.0259250477">
        <ele>620.19</ele>
        <time>2020-09-06T17:56:52Z</time>
      </trkpt>
      <trkpt lat="37.5523940474" lon="-3.0259669572">
        <ele>620.19</ele>
        <time>2020-09-06T17:56:53Z</time>
      </trkpt>
      <trkpt lat="37.5523694046" lon="-3.0260037538">
        <ele>620.19</ele>
        <time>2020-09-06T17:56:54Z</time>
      </trkpt>
      <trkpt lat="37.5523393974" lon="-3.0260377843">
        <ele>620.19</ele>
        <time>2020-09-06T17:56:55Z</time>
      </trkpt>
      <trkpt lat="37.5523051154" lon="-3.0260698032">
        <ele>620.19</ele>
        <time>2020-09-06T17:56:56Z</time>
      </trkpt>
      <trkpt lat="37.5522671454" lon="-3.0261002295">
        <ele>620.19</ele>
        <time>2020-09-06T17:56:57Z</time>
      </trkpt>
      <trkpt lat="37.5518527441" lon="-3.0264098570">
        <ele>620.67</ele>
        <time>2020-09-06T17:57:08Z</time>
      </trkpt>
      <trkpt lat="37.5518153608" lon="-3.0264315661">
        <ele>620.67</ele>
        <time>2020-09-06T17:57:09Z</time>
      </trkpt>
      <trkpt lat="37.5517756306" lon="-3.0264487490">
        <ele>620.67</ele>
        <time>2020-09-06T17:57:10Z</time>
      </trkpt>
      <trkpt lat="37.5517341401" lon="-3.0264564604">
        <ele>620.67</ele>
        <time>2020-09-06T17:57:11Z</time>
      </trkpt>
      <trkpt lat="37.5516891293" lon="-3.0264483299">
        <ele>620.67</ele>
        <time>2020-09-06T17:57:12Z</time>
      </trkpt>
      <trkpt lat="37.5516499020" lon="-3.0264315661">
        <ele>621.15</ele>
        <time>2020-09-06T17:57:13Z</time>
      </trkpt>
      <trkpt lat="37.5516100042" lon="-3.0264175683">
        <ele>621.15</ele>
        <time>2020-09-06T17:57:14Z</time>
      </trkpt>
      <trkpt lat="37.5513943378" lon="-3.0263505969">
        <ele>621.15</ele>
        <time>2020-09-06T17:57:19Z</time>
      </trkpt>
      <trkpt lat="37.5510863028" lon="-3.0262081046">
        <ele>621.63</ele>
        <time>2020-09-06T17:57:26Z</time>
      </trkpt>
      <trkpt lat="37.5510446448" lon="-3.0262015667">
        <ele>621.63</ele>
        <time>2020-09-06T17:57:27Z</time>
      </trkpt>
      <trkpt lat="37.5510069262" lon="-3.0262095295">
        <ele>622.11</ele>
        <time>2020-09-06T17:57:28Z</time>
      </trkpt>
      <trkpt lat="37.5509801041" lon="-3.0262371060">
        <ele>622.11</ele>
        <time>2020-09-06T17:57:29Z</time>
      </trkpt>
      <trkpt lat="37.5509637594" lon="-3.0262811948">
        <ele>622.11</ele>
        <time>2020-09-06T17:57:30Z</time>
      </trkpt>
      <trkpt lat="37.5509552099" lon="-3.0263319891">
        <ele>622.11</ele>
        <time>2020-09-06T17:57:31Z</time>
      </trkpt>
      <trkpt lat="37.5508820359" lon="-3.0268974323">
        <ele>623.55</ele>
        <time>2020-09-06T17:57:41Z</time>
      </trkpt>
      <trkpt lat="37.5508671999" lon="-3.0269499030">
        <ele>623.55</ele>
        <time>2020-09-06T17:57:42Z</time>
      </trkpt>
      <trkpt lat="37.5508428924" lon="-3.0269925669">
        <ele>623.55</ele>
        <time>2020-09-06T17:57:43Z</time>
      </trkpt>
      <trkpt lat="37.5508084428" lon="-3.0270281900">
        <ele>623.55</ele>
        <time>2020-09-06T17:57:44Z</time>
      </trkpt>
      <trkpt lat="37.5507689640" lon="-3.0270507373">
        <ele>623.55</ele>
        <time>2020-09-06T17:57:45Z</time>
      </trkpt>
      <trkpt lat="37.5507243723" lon="-3.0270556826">
        <ele>623.55</ele>
        <time>2020-09-06T17:57:46Z</time>
      </trkpt>
      <trkpt lat="37.5506801996" lon="-3.0270456243">
        <ele>623.55</ele>
        <time>2020-09-06T17:57:47Z</time>
      </trkpt>
      <trkpt lat="37.5506395474" lon="-3.0270214844">
        <ele>623.55</ele>
        <time>2020-09-06T17:57:48Z</time>
      </trkpt>
      <trkpt lat="37.5506029185" lon="-3.0269877054">
        <ele>623.55</ele>
        <time>2020-09-06T17:57:49Z</time>
      </trkpt>
      <trkpt lat="37.5505696423" lon="-3.0269524176">
        <ele>623.55</ele>
        <time>2020-09-06T17:57:50Z</time>
      </trkpt>
      <trkpt lat="37.5505399704" lon="-3.0269095860">
        <ele>623.55</ele>
        <time>2020-09-06T17:57:51Z</time>
      </trkpt>
      <trkpt lat="37.5505156629" lon="-3.0268603843">
        <ele>624.03</ele>
        <time>2020-09-06T17:57:52Z</time>
      </trkpt>
      <trkpt lat="37.5504454225" lon="-3.0267152935">
        <ele>624.03</ele>
        <time>2020-09-06T17:57:55Z</time>
      </trkpt>
      <trkpt lat="37.5504130684" lon="-3.0266829394">
        <ele>624.03</ele>
        <time>2020-09-06T17:57:56Z</time>
      </trkpt>
      <trkpt lat="37.5503785349" lon="-3.0266672652">
        <ele>624.99</ele>
        <time>2020-09-06T17:57:57Z</time>
      </trkpt>
      <trkpt lat="37.5503442530" lon="-3.0266693607">
        <ele>624.99</ele>
        <time>2020-09-06T17:57:58Z</time>
      </trkpt>
      <trkpt lat="37.5503162574" lon="-3.0266930815">
        <ele>624.99</ele>
        <time>2020-09-06T17:57:59Z</time>
      </trkpt>
      <trkpt lat="37.5503025949" lon="-3.0267360806">
        <ele>624.99</ele>
        <time>2020-09-06T17:58:00Z</time>
      </trkpt>
      <trkpt lat="37.5502959732" lon="-3.0267856177">
        <ele>624.99</ele>
        <time>2020-09-06T17:58:01Z</time>
      </trkpt>
      <trkpt lat="37.5502830651" lon="-3.0268320534">
        <ele>624.99</ele>
        <time>2020-09-06T17:58:02Z</time>
      </trkpt>
      <trkpt lat="37.5502663013" lon="-3.0268748850">
        <ele>624.99</ele>
        <time>2020-09-06T17:58:03Z</time>
      </trkpt>
      <trkpt lat="37.5502471905" lon="-3.0269172136">
        <ele>625.47</ele>
        <time>2020-09-06T17:58:04Z</time>
      </trkpt>
      <trkpt lat="37.5502282474" lon="-3.0269619729">
        <ele>625.47</ele>
        <time>2020-09-06T17:58:05Z</time>
      </trkpt>
      <trkpt lat="37.5502147526" lon="-3.0270120967">
        <ele>625.47</ele>
        <time>2020-09-06T17:58:06Z</time>
      </trkpt>
      <trkpt lat="37.5502076279" lon="-3.0270663276">
        <ele>625.47</ele>
        <time>2020-09-06T17:58:07Z</time>
      </trkpt>
      <trkpt lat="37.5502048619" lon="-3.0271223187">
        <ele>625.47</ele>
        <time>2020-09-06T17:58:08Z</time>
      </trkpt>
      <trkpt lat="37.5502043590" lon="-3.0271787290">
        <ele>625.47</ele>
        <time>2020-09-06T17:58:09Z</time>
      </trkpt>
      <trkpt lat="37.5501756929" lon="-3.0276803020">
        <ele>625.47</ele>
        <time>2020-09-06T17:58:18Z</time>
      </trkpt>
      <trkpt lat="37.5501595158" lon="-3.0277236365">
        <ele>625.47</ele>
        <time>2020-09-06T17:58:19Z</time>
      </trkpt>
      <trkpt lat="37.5501351245" lon="-3.0277520511">
        <ele>625.47</ele>
        <time>2020-09-06T17:58:20Z</time>
      </trkpt>
      <trkpt lat="37.5501060393" lon="-3.0277691502">
        <ele>625.47</ele>
        <time>2020-09-06T17:58:21Z</time>
      </trkpt>
      <trkpt lat="37.5500710867" lon="-3.0277766939">
        <ele>625.47</ele>
        <time>2020-09-06T17:58:22Z</time>
      </trkpt>
      <trkpt lat="37.5500315242" lon="-3.0277676415">
        <ele>625.47</ele>
        <time>2020-09-06T17:58:23Z</time>
      </trkpt>
      <trkpt lat="37.5499943085" lon="-3.0277455971">
        <ele>625.47</ele>
        <time>2020-09-06T17:58:24Z</time>
      </trkpt>
      <trkpt lat="37.5499579310" lon="-3.0277151708">
        <ele>625.47</ele>
        <time>2020-09-06T17:58:25Z</time>
      </trkpt>
      <trkpt lat="37.5499227270" lon="-3.0276830681">
        <ele>625.96</ele>
        <time>2020-09-06T17:58:26Z</time>
      </trkpt>
      <trkpt lat="37.5496432744" lon="-3.0274145119">
        <ele>626.44</ele>
        <time>2020-09-06T17:58:34Z</time>
      </trkpt>
      <trkpt lat="37.5495625567" lon="-3.0273674894">
        <ele>626.92</ele>
        <time>2020-09-06T17:58:36Z</time>
      </trkpt>
      <trkpt lat="37.5495208148" lon="-3.0273579340">
        <ele>626.92</ele>
        <time>2020-09-06T17:58:37Z</time>
      </trkpt>
      <trkpt lat="37.5494402647" lon="-3.0273514800">
        <ele>627.40</ele>
        <time>2020-09-06T17:58:39Z</time>
      </trkpt>
      <trkpt lat="37.5493973494" lon="-3.0273561738">
        <ele>627.40</ele>
        <time>2020-09-06T17:58:40Z</time>
      </trkpt>
      <trkpt lat="37.5493555237" lon="-3.0273689982">
        <ele>627.40</ele>
        <time>2020-09-06T17:58:41Z</time>
      </trkpt>
      <trkpt lat="37.5493136980" lon="-3.0273899529">
        <ele>627.40</ele>
        <time>2020-09-06T17:58:42Z</time>
      </trkpt>
      <trkpt lat="37.5492717884" lon="-3.0274178647">
        <ele>627.40</ele>
        <time>2020-09-06T17:58:43Z</time>
      </trkpt>
      <trkpt lat="37.5492360815" lon="-3.0274526495">
        <ele>627.40</ele>
        <time>2020-09-06T17:58:44Z</time>
      </trkpt>
      <trkpt lat="37.5492036436" lon="-3.0274993367">
        <ele>627.40</ele>
        <time>2020-09-06T17:58:45Z</time>
      </trkpt>
      <trkpt lat="37.5491781626" lon="-3.0275497958">
        <ele>627.40</ele>
        <time>2020-09-06T17:58:46Z</time>
      </trkpt>
      <trkpt lat="37.5491551124" lon="-3.0276019312">
        <ele>627.40</ele>
        <time>2020-09-06T17:58:47Z</time>
      </trkpt>
      <trkpt lat="37.5491115265" lon="-3.0277059507">
        <ele>627.40</ele>
        <time>2020-09-06T17:58:49Z</time>
      </trkpt>
      <trkpt lat="37.5490777474" lon="-3.0278199445">
        <ele>627.40</ele>
        <time>2020-09-06T17:58:51Z</time>
      </trkpt>
      <trkpt lat="37.5490677729" lon="-3.0278781988">
        <ele>627.40</ele>
        <time>2020-09-06T17:58:52Z</time>
      </trkpt>
      <trkpt lat="37.5490616541" lon="-3.0280017480">
        <ele>627.88</ele>
        <time>2020-09-06T17:58:54Z</time>
      </trkpt>
      <trkpt lat="37.5490675215" lon="-3.0280622654">
        <ele>627.88</ele>
        <time>2020-09-06T17:58:55Z</time>
      </trkpt>
      <trkpt lat="37.5490808487" lon="-3.0281221122">
        <ele>627.88</ele>
        <time>2020-09-06T17:58:56Z</time>
      </trkpt>
      <trkpt lat="37.5491149630" lon="-3.0282396264">
        <ele>627.88</ele>
        <time>2020-09-06T17:58:58Z</time>
      </trkpt>
      <trkpt lat="37.5491271168" lon="-3.0282958690">
        <ele>627.88</ele>
        <time>2020-09-06T17:58:59Z</time>
      </trkpt>
      <trkpt lat="37.5491758995" lon="-3.0284669437">
        <ele>628.36</ele>
        <time>2020-09-06T17:59:02Z</time>
      </trkpt>
      <trkpt lat="37.5491957646" lon="-3.0285114516">
        <ele>628.36</ele>
        <time>2020-09-06T17:59:03Z</time>
      </trkpt>
      <trkpt lat="37.5492064934" lon="-3.0285620783">
        <ele>628.36</ele>
        <time>2020-09-06T17:59:04Z</time>
      </trkpt>
      <trkpt lat="37.5491993688" lon="-3.0286049936">
        <ele>628.84</ele>
        <time>2020-09-06T17:59:05Z</time>
      </trkpt>
      <trkpt lat="37.5491858739" lon="-3.0286242720">
        <ele>628.84</ele>
        <time>2020-09-06T17:59:06Z</time>
      </trkpt>
      <trkpt lat="37.5491739716" lon="-3.0286314804">
        <ele>628.84</ele>
        <time>2020-09-06T17:59:07Z</time>
      </trkpt>
      <trkpt lat="37.5491615664" lon="-3.0286405329">
        <ele>628.84</ele>
        <time>2020-09-06T17:59:08Z</time>
      </trkpt>
      <trkpt lat="37.5491094310" lon="-3.0286878906">
        <ele>629.32</ele>
        <time>2020-09-06T17:59:12Z</time>
      </trkpt>
      <trkpt lat="37.5489830319" lon="-3.0289247632">
        <ele>631.72</ele>
        <time>2020-09-06T17:59:25Z</time>
      </trkpt>
      <trkpt lat="37.5489215925" lon="-3.0290394276">
        <ele>633.65</ele>
        <time>2020-09-06T17:59:32Z</time>
      </trkpt>
      <trkpt lat="37.5488960277" lon="-3.0291631445">
        <ele>635.09</ele>
        <time>2020-09-06T17:59:38Z</time>
      </trkpt>
      <trkpt lat="37.5488706306" lon="-3.0294603668">
        <ele>637.97</ele>
        <time>2020-09-06T17:59:52Z</time>
      </trkpt>
      <trkpt lat="37.5486863963" lon="-3.0296423379">
        <ele>641.34</ele>
        <time>2020-09-06T18:00:05Z</time>
      </trkpt>
      <trkpt lat="37.5485200156" lon="-3.0296791345">
        <ele>644.22</ele>
        <time>2020-09-06T18:00:16Z</time>
      </trkpt>
      <trkpt lat="37.5485014915" lon="-3.0296502169">
        <ele>644.22</ele>
        <time>2020-09-06T18:00:18Z</time>
      </trkpt>
      <trkpt lat="37.5484960433" lon="-3.0296267476">
        <ele>644.70</ele>
        <time>2020-09-06T18:00:19Z</time>
      </trkpt>
      <trkpt lat="37.5484955404" lon="-3.0296000931">
        <ele>644.70</ele>
        <time>2020-09-06T18:00:20Z</time>
      </trkpt>
      <trkpt lat="37.5484977197" lon="-3.0295727681">
        <ele>645.18</ele>
        <time>2020-09-06T18:00:21Z</time>
      </trkpt>
      <trkpt lat="37.5485014077" lon="-3.0295479577">
        <ele>645.18</ele>
        <time>2020-09-06T18:00:22Z</time>
      </trkpt>
      <trkpt lat="37.5485090353" lon="-3.0295234825">
        <ele>645.18</ele>
        <time>2020-09-06T18:00:23Z</time>
      </trkpt>
      <trkpt lat="37.5485188421" lon="-3.0294995103">
        <ele>645.66</ele>
        <time>2020-09-06T18:00:24Z</time>
      </trkpt>
      <trkpt lat="37.5485968776" lon="-3.0293835886">
        <ele>647.10</ele>
        <time>2020-09-06T18:00:31Z</time>
      </trkpt>
      <trkpt lat="37.5486102886" lon="-3.0293716025">
        <ele>647.10</ele>
        <time>2020-09-06T18:00:32Z</time>
      </trkpt>
      <trkpt lat="37.5486224424" lon="-3.0293583591">
        <ele>647.59</ele>
        <time>2020-09-06T18:00:33Z</time>
      </trkpt>
      <trkpt lat="37.5486840494" lon="-3.0291455425">
        <ele>650.47</ele>
        <time>2020-09-06T18:00:44Z</time>
      </trkpt>
      <trkpt lat="37.5486818701" lon="-3.0288573727">
        <ele>653.83</ele>
        <time>2020-09-06T18:00:58Z</time>
      </trkpt>
      <trkpt lat="37.5486440677" lon="-3.0284801871">
        <ele>657.20</ele>
        <time>2020-09-06T18:01:16Z</time>
      </trkpt>
      <trkpt lat="37.5485298224" lon="-3.0281703919">
        <ele>659.60</ele>
        <time>2020-09-06T18:01:31Z</time>
      </trkpt>
      <trkpt lat="37.5485124718" lon="-3.0281735770">
        <ele>659.60</ele>
        <time>2020-09-06T18:01:32Z</time>
      </trkpt>
      <trkpt lat="37.5484996475" lon="-3.0281869043">
        <ele>659.60</ele>
        <time>2020-09-06T18:01:33Z</time>
      </trkpt>
      <trkpt lat="37.5484853983" lon="-3.0282052606">
        <ele>660.56</ele>
        <time>2020-09-06T18:01:34Z</time>
      </trkpt>
      <trkpt lat="37.5484772678" lon="-3.0282268859">
        <ele>660.56</ele>
        <time>2020-09-06T18:01:35Z</time>
      </trkpt>
      <trkpt lat="37.5484753400" lon="-3.0282521155">
        <ele>660.56</ele>
        <time>2020-09-06T18:01:36Z</time>
      </trkpt>
      <trkpt lat="37.5484741665" lon="-3.0282768421">
        <ele>660.56</ele>
        <time>2020-09-06T18:01:37Z</time>
      </trkpt>
      <trkpt lat="37.5483807083" lon="-3.0287056603">
        <ele>663.45</ele>
        <time>2020-09-06T18:01:54Z</time>
      </trkpt>
      <trkpt lat="37.5482103042" lon="-3.0289262719">
        <ele>666.81</ele>
        <time>2020-09-06T18:02:07Z</time>
      </trkpt>
      <trkpt lat="37.5481291674" lon="-3.0290397629">
        <ele>667.77</ele>
        <time>2020-09-06T18:02:14Z</time>
      </trkpt>
      <trkpt lat="37.5481113978" lon="-3.0290360749">
        <ele>667.77</ele>
        <time>2020-09-06T18:02:15Z</time>
      </trkpt>
      <trkpt lat="37.5480973162" lon="-3.0290235858">
        <ele>668.25</ele>
        <time>2020-09-06T18:02:16Z</time>
      </trkpt>
      <trkpt lat="37.5480866712" lon="-3.0290038045">
        <ele>668.25</ele>
        <time>2020-09-06T18:02:17Z</time>
      </trkpt>
      <trkpt lat="37.5480796304" lon="-3.0289818440">
        <ele>668.73</ele>
        <time>2020-09-06T18:02:18Z</time>
      </trkpt>
      <trkpt lat="37.5480737630" lon="-3.0289613083">
        <ele>668.73</ele>
        <time>2020-09-06T18:02:19Z</time>
      </trkpt>
      <trkpt lat="37.5480697397" lon="-3.0289399344">
        <ele>668.73</ele>
        <time>2020-09-06T18:02:20Z</time>
      </trkpt>
      <trkpt lat="37.5480691530" lon="-3.0289158784">
        <ele>668.73</ele>
        <time>2020-09-06T18:02:21Z</time>
      </trkpt>
      <trkpt lat="37.5480674766" lon="-3.0288922414">
        <ele>669.22</ele>
        <time>2020-09-06T18:02:22Z</time>
      </trkpt>
      <trkpt lat="37.5480651297" lon="-3.0285975337">
        <ele>671.62</ele>
        <time>2020-09-06T18:02:35Z</time>
      </trkpt>
      <trkpt lat="37.5480764452" lon="-3.0283817835">
        <ele>674.50</ele>
        <time>2020-09-06T18:02:46Z</time>
      </trkpt>
      <trkpt lat="37.5480805524" lon="-3.0283625051">
        <ele>674.98</ele>
        <time>2020-09-06T18:02:47Z</time>
      </trkpt>
      <trkpt lat="37.5481058657" lon="-3.0281962920">
        <ele>677.39</ele>
        <time>2020-09-06T18:02:55Z</time>
      </trkpt>
      <trkpt lat="37.5480818097" lon="-3.0279605091">
        <ele>680.75</ele>
        <time>2020-09-06T18:03:07Z</time>
      </trkpt>
      <trkpt lat="37.5479612779" lon="-3.0277277436">
        <ele>684.12</ele>
        <time>2020-09-06T18:03:21Z</time>
      </trkpt>
      <trkpt lat="37.5479135010" lon="-3.0275427550">
        <ele>687.00</ele>
        <time>2020-09-06T18:03:31Z</time>
      </trkpt>
      <trkpt lat="37.5479045324" lon="-3.0275239795">
        <ele>687.00</ele>
        <time>2020-09-06T18:03:32Z</time>
      </trkpt>
      <trkpt lat="37.5478877686" lon="-3.0274937209">
        <ele>687.48</ele>
        <time>2020-09-06T18:03:34Z</time>
      </trkpt>
      <trkpt lat="37.5478756987" lon="-3.0274844170">
        <ele>687.96</ele>
        <time>2020-09-06T18:03:35Z</time>
      </trkpt>
      <trkpt lat="37.5478619523" lon="-3.0274718441">
        <ele>687.96</ele>
        <time>2020-09-06T18:03:36Z</time>
      </trkpt>
      <trkpt lat="37.5478476193" lon="-3.0274577625">
        <ele>688.44</ele>
        <time>2020-09-06T18:03:37Z</time>
      </trkpt>
      <trkpt lat="37.5478328671" lon="-3.0274480395">
        <ele>688.44</ele>
        <time>2020-09-06T18:03:38Z</time>
      </trkpt>
      <trkpt lat="37.5478181150" lon="-3.0274439324">
        <ele>688.92</ele>
        <time>2020-09-06T18:03:39Z</time>
      </trkpt>
      <trkpt lat="37.5478023570" lon="-3.0274471175">
        <ele>688.92</ele>
        <time>2020-09-06T18:03:40Z</time>
      </trkpt>
      <trkpt lat="37.5477866828" lon="-3.0274558347">
        <ele>688.92</ele>
        <time>2020-09-06T18:03:41Z</time>
      </trkpt>
      <trkpt lat="37.5477718469" lon="-3.0274685752">
        <ele>689.40</ele>
        <time>2020-09-06T18:03:42Z</time>
      </trkpt>
      <trkpt lat="37.5477601960" lon="-3.0274823215">
        <ele>689.40</ele>
        <time>2020-09-06T18:03:43Z</time>
      </trkpt>
      <trkpt lat="37.5477011036" lon="-3.0277192779">
        <ele>691.81</ele>
        <time>2020-09-06T18:03:55Z</time>
      </trkpt>
      <trkpt lat="37.5477083959" lon="-3.0277397297">
        <ele>692.29</ele>
        <time>2020-09-06T18:03:56Z</time>
      </trkpt>
      <trkpt lat="37.5477166101" lon="-3.0277595948">
        <ele>692.29</ele>
        <time>2020-09-06T18:03:57Z</time>
      </trkpt>
      <trkpt lat="37.5478674844" lon="-3.0280649476">
        <ele>695.17</ele>
        <time>2020-09-06T18:04:11Z</time>
      </trkpt>
      <trkpt lat="37.5477404147" lon="-3.0283967033">
        <ele>695.65</ele>
        <time>2020-09-06T18:04:23Z</time>
      </trkpt>
      <trkpt lat="37.5475549232" lon="-3.0287720449">
        <ele>698.53</ele>
        <time>2020-09-06T18:04:37Z</time>
      </trkpt>
      <trkpt lat="37.5474686734" lon="-3.0287391879">
        <ele>699.50</ele>
        <time>2020-09-06T18:04:42Z</time>
      </trkpt>
      <trkpt lat="37.5474604592" lon="-3.0287168920">
        <ele>699.98</ele>
        <time>2020-09-06T18:04:43Z</time>
      </trkpt>
      <trkpt lat="37.5474562682" lon="-3.0286914110">
        <ele>699.98</ele>
        <time>2020-09-06T18:04:44Z</time>
      </trkpt>
      <trkpt lat="37.5474583637" lon="-3.0286670197">
        <ele>699.98</ele>
        <time>2020-09-06T18:04:45Z</time>
      </trkpt>
      <trkpt lat="37.5474621356" lon="-3.0286436342">
        <ele>700.46</ele>
        <time>2020-09-06T18:04:46Z</time>
      </trkpt>
      <trkpt lat="37.5474616326" lon="-3.0286191590">
        <ele>700.46</ele>
        <time>2020-09-06T18:04:47Z</time>
      </trkpt>
      <trkpt lat="37.5474627223" lon="-3.0285953544">
        <ele>700.46</ele>
        <time>2020-09-06T18:04:48Z</time>
      </trkpt>
      <trkpt lat="37.5474695954" lon="-3.0285730585">
        <ele>701.42</ele>
        <time>2020-09-06T18:04:49Z</time>
      </trkpt>
      <trkpt lat="37.5474825874" lon="-3.0285531934">
        <ele>701.42</ele>
        <time>2020-09-06T18:04:50Z</time>
      </trkpt>
      <trkpt lat="37.5474971719" lon="-3.0285329092">
        <ele>701.42</ele>
        <time>2020-09-06T18:04:51Z</time>
      </trkpt>
      <trkpt lat="37.5475069787" lon="-3.0285115354">
        <ele>701.42</ele>
        <time>2020-09-06T18:04:52Z</time>
      </trkpt>
      <trkpt lat="37.5475130137" lon="-3.0284888204">
        <ele>701.90</ele>
        <time>2020-09-06T18:04:53Z</time>
      </trkpt>
      <trkpt lat="37.5475149415" lon="-3.0284641776">
        <ele>701.90</ele>
        <time>2020-09-06T18:04:54Z</time>
      </trkpt>
      <trkpt lat="37.5475174561" lon="-3.0284381099">
        <ele>702.38</ele>
        <time>2020-09-06T18:04:55Z</time>
      </trkpt>
      <trkpt lat="37.5475220662" lon="-3.0284138862">
        <ele>702.38</ele>
        <time>2020-09-06T18:04:56Z</time>
      </trkpt>
      <trkpt lat="37.5475468766" lon="-3.0281647760">
        <ele>705.75</ele>
        <time>2020-09-06T18:05:07Z</time>
      </trkpt>
      <trkpt lat="37.5474934001" lon="-3.0279737525">
        <ele>708.15</ele>
        <time>2020-09-06T18:05:16Z</time>
      </trkpt>
      <trkpt lat="37.5474770553" lon="-3.0279678013">
        <ele>708.15</ele>
        <time>2020-09-06T18:05:17Z</time>
      </trkpt>
      <trkpt lat="37.5474591181" lon="-3.0279660411">
        <ele>708.15</ele>
        <time>2020-09-06T18:05:18Z</time>
      </trkpt>
      <trkpt lat="37.5474415161" lon="-3.0279664602">
        <ele>708.63</ele>
        <time>2020-09-06T18:05:19Z</time>
      </trkpt>
      <trkpt lat="37.5474239979" lon="-3.0279704835">
        <ele>708.63</ele>
        <time>2020-09-06T18:05:20Z</time>
      </trkpt>
      <trkpt lat="37.5474063959" lon="-3.0279777758">
        <ele>708.63</ele>
        <time>2020-09-06T18:05:21Z</time>
      </trkpt>
      <trkpt lat="37.5473907217" lon="-3.0279889237">
        <ele>709.59</ele>
        <time>2020-09-06T18:05:22Z</time>
      </trkpt>
      <trkpt lat="37.5473753829" lon="-3.0280067772">
        <ele>709.59</ele>
        <time>2020-09-06T18:05:23Z</time>
      </trkpt>
      <trkpt lat="37.5473618042" lon="-3.0280263070">
        <ele>709.59</ele>
        <time>2020-09-06T18:05:24Z</time>
      </trkpt>
      <trkpt lat="37.5472170487" lon="-3.0283279717">
        <ele>711.99</ele>
        <time>2020-09-06T18:05:37Z</time>
      </trkpt>
      <trkpt lat="37.5469947606" lon="-3.0285418779">
        <ele>715.36</ele>
        <time>2020-09-06T18:05:51Z</time>
      </trkpt>
      <trkpt lat="37.5467288867" lon="-3.0286992062">
        <ele>718.72</ele>
        <time>2020-09-06T18:06:05Z</time>
      </trkpt>
      <trkpt lat="37.5464975461" lon="-3.0289515853">
        <ele>721.61</ele>
        <time>2020-09-06T18:06:19Z</time>
      </trkpt>
      <trkpt lat="37.5462978054" lon="-3.0292301159">
        <ele>724.49</ele>
        <time>2020-09-06T18:06:32Z</time>
      </trkpt>
      <trkpt lat="37.5460958853" lon="-3.0290952511">
        <ele>726.41</ele>
        <time>2020-09-06T18:06:42Z</time>
      </trkpt>
      <trkpt lat="37.5461416505" lon="-3.0286771618">
        <ele>726.89</ele>
        <time>2020-09-06T18:06:54Z</time>
      </trkpt>
      <trkpt lat="37.5462697260" lon="-3.0281813722">
        <ele>728.34</ele>
        <time>2020-09-06T18:07:08Z</time>
      </trkpt>
      <trkpt lat="37.5464257970" lon="-3.0276432540">
        <ele>731.70</ele>
        <time>2020-09-06T18:07:25Z</time>
      </trkpt>
      <trkpt lat="37.5465004798" lon="-3.0271991808">
        <ele>733.62</ele>
        <time>2020-09-06T18:07:39Z</time>
      </trkpt>
      <trkpt lat="37.5464668684" lon="-3.0269062333">
        <ele>735.55</ele>
        <time>2020-09-06T18:07:48Z</time>
      </trkpt>
      <trkpt lat="37.5464365259" lon="-3.0268919840">
        <ele>735.55</ele>
        <time>2020-09-06T18:07:49Z</time>
      </trkpt>
      <trkpt lat="37.5464044232" lon="-3.0268850271">
        <ele>735.55</ele>
        <time>2020-09-06T18:07:50Z</time>
      </trkpt>
      <trkpt lat="37.5463714823" lon="-3.0268840212">
        <ele>735.55</ele>
        <time>2020-09-06T18:07:51Z</time>
      </trkpt>
      <trkpt lat="37.5463380385" lon="-3.0268878769">
        <ele>735.55</ele>
        <time>2020-09-06T18:07:52Z</time>
      </trkpt>
      <trkpt lat="37.5463050138" lon="-3.0268941633">
        <ele>735.55</ele>
        <time>2020-09-06T18:07:53Z</time>
      </trkpt>
      <trkpt lat="37.5460047740" lon="-3.0269497354">
        <ele>737.95</ele>
        <time>2020-09-06T18:08:05Z</time>
      </trkpt>
      <trkpt lat="37.5458944682" lon="-3.0270599574">
        <ele>739.87</ele>
        <time>2020-09-06T18:08:12Z</time>
      </trkpt>
      <trkpt lat="37.5456893630" lon="-3.0273078103">
        <ele>743.24</ele>
        <time>2020-09-06T18:08:25Z</time>
      </trkpt>
      <trkpt lat="37.5453378260" lon="-3.0274644680">
        <ele>745.16</ele>
        <time>2020-09-06T18:08:40Z</time>
      </trkpt>
      <trkpt lat="37.5451285299" lon="-3.0273611192">
        <ele>748.04</ele>
        <time>2020-09-06T18:08:52Z</time>
      </trkpt>
      <trkpt lat="37.5449585449" lon="-3.0271588638">
        <ele>751.41</ele>
        <time>2020-09-06T18:09:06Z</time>
      </trkpt>
      <trkpt lat="37.5451115984" lon="-3.0268667545">
        <ele>754.29</ele>
        <time>2020-09-06T18:09:21Z</time>
      </trkpt>
      <trkpt lat="37.5452296995" lon="-3.0267256033">
        <ele>756.21</ele>
        <time>2020-09-06T18:09:30Z</time>
      </trkpt>
      <trkpt lat="37.5452396739" lon="-3.0267067440">
        <ele>756.21</ele>
        <time>2020-09-06T18:09:31Z</time>
      </trkpt>
      <trkpt lat="37.5452537555" lon="-3.0266902316">
        <ele>756.69</ele>
        <time>2020-09-06T18:09:32Z</time>
      </trkpt>
      <trkpt lat="37.5452659093" lon="-3.0266755633">
        <ele>756.69</ele>
        <time>2020-09-06T18:09:33Z</time>
      </trkpt>
      <trkpt lat="37.5452749617" lon="-3.0266610626">
        <ele>757.66</ele>
        <time>2020-09-06T18:09:34Z</time>
      </trkpt>
      <trkpt lat="37.5453980081" lon="-3.0264430493">
        <ele>760.54</ele>
        <time>2020-09-06T18:09:47Z</time>
      </trkpt>
      <trkpt lat="37.5454008579" lon="-3.0264193285">
        <ele>761.02</ele>
        <time>2020-09-06T18:09:48Z</time>
      </trkpt>
      <trkpt lat="37.5454062223" lon="-3.0263983738">
        <ele>761.02</ele>
        <time>2020-09-06T18:09:49Z</time>
      </trkpt>
      <trkpt lat="37.5455308612" lon="-3.0261894129">
        <ele>763.90</ele>
        <time>2020-09-06T18:10:02Z</time>
      </trkpt>
      <trkpt lat="37.5455896184" lon="-3.0260737427">
        <ele>765.35</ele>
        <time>2020-09-06T18:10:09Z</time>
      </trkpt>
      <trkpt lat="37.5455365609" lon="-3.0257925298">
        <ele>767.75</ele>
        <time>2020-09-06T18:10:21Z</time>
      </trkpt>
      <trkpt lat="37.5455515645" lon="-3.0255325232">
        <ele>770.63</ele>
        <time>2020-09-06T18:10:34Z</time>
      </trkpt>
      <trkpt lat="37.5453235768" lon="-3.0251927208">
        <ele>773.52</ele>
        <time>2020-09-06T18:10:51Z</time>
      </trkpt>
      <trkpt lat="37.5452670828" lon="-3.0251383223">
        <ele>776.88</ele>
        <time>2020-09-06T18:10:55Z</time>
      </trkpt>
      <trkpt lat="37.5452287775" lon="-3.0251172837">
        <ele>773.52</ele>
        <time>2020-09-06T18:10:57Z</time>
      </trkpt>
      <trkpt lat="37.5452118460" lon="-3.0251059681">
        <ele>773.52</ele>
        <time>2020-09-06T18:10:58Z</time>
      </trkpt>
      <trkpt lat="37.5451920647" lon="-3.0250951555">
        <ele>777.84</ele>
        <time>2020-09-06T18:10:59Z</time>
      </trkpt>
      <trkpt lat="37.5451712776" lon="-3.0250855163">
        <ele>776.40</ele>
        <time>2020-09-06T18:11:00Z</time>
      </trkpt>
      <trkpt lat="37.5449805893" lon="-3.0249190517">
        <ele>777.36</ele>
        <time>2020-09-06T18:11:09Z</time>
      </trkpt>
      <trkpt lat="37.5447383523" lon="-3.0246653315">
        <ele>780.73</ele>
        <time>2020-09-06T18:11:22Z</time>
      </trkpt>
      <trkpt lat="37.5445298105" lon="-3.0243919976">
        <ele>785.05</ele>
        <time>2020-09-06T18:11:36Z</time>
      </trkpt>
      <trkpt lat="37.5445228536" lon="-3.0243811011">
        <ele>785.05</ele>
        <time>2020-09-06T18:11:37Z</time>
      </trkpt>
      <trkpt lat="37.5444838777" lon="-3.0243198294">
        <ele>781.69</ele>
        <time>2020-09-06T18:11:40Z</time>
      </trkpt>
      <trkpt lat="37.5444548763" lon="-3.0242836196">
        <ele>785.53</ele>
        <time>2020-09-06T18:11:42Z</time>
      </trkpt>
      <trkpt lat="37.5444418844" lon="-3.0242654309">
        <ele>785.53</ele>
        <time>2020-09-06T18:11:43Z</time>
      </trkpt>
      <trkpt lat="37.5441946182" lon="-3.0239630956">
        <ele>788.42</ele>
        <time>2020-09-06T18:11:59Z</time>
      </trkpt>
      <trkpt lat="37.5439140759" lon="-3.0239617545">
        <ele>791.30</ele>
        <time>2020-09-06T18:12:14Z</time>
      </trkpt>
      <trkpt lat="37.5436943863" lon="-3.0242550373">
        <ele>793.22</ele>
        <time>2020-09-06T18:12:28Z</time>
      </trkpt>
      <trkpt lat="37.5434575137" lon="-3.0245710351">
        <ele>793.22</ele>
        <time>2020-09-06T18:12:36Z</time>
      </trkpt>
      <trkpt lat="37.5434170291" lon="-3.0246034730">
        <ele>793.22</ele>
        <time>2020-09-06T18:12:37Z</time>
      </trkpt>
      <trkpt lat="37.5433745328" lon="-3.0246258527">
        <ele>793.22</ele>
        <time>2020-09-06T18:12:38Z</time>
      </trkpt>
      <trkpt lat="37.5433340482" lon="-3.0246453825">
        <ele>793.22</ele>
        <time>2020-09-06T18:12:39Z</time>
      </trkpt>
      <trkpt lat="37.5432954915" lon="-3.0246646609">
        <ele>793.22</ele>
        <time>2020-09-06T18:12:40Z</time>
      </trkpt>
      <trkpt lat="37.5432583597" lon="-3.0246921536">
        <ele>793.22</ele>
        <time>2020-09-06T18:12:41Z</time>
      </trkpt>
      <trkpt lat="37.5431553461" lon="-3.0248112604">
        <ele>792.26</ele>
        <time>2020-09-06T18:12:44Z</time>
      </trkpt>
      <trkpt lat="37.5430810824" lon="-3.0249019526">
        <ele>791.78</ele>
        <time>2020-09-06T18:12:46Z</time>
      </trkpt>
      <trkpt lat="37.5430369098" lon="-3.0249345582">
        <ele>791.78</ele>
        <time>2020-09-06T18:12:47Z</time>
      </trkpt>
      <trkpt lat="37.5429896358" lon="-3.0249558482">
        <ele>791.78</ele>
        <time>2020-09-06T18:12:48Z</time>
      </trkpt>
      <trkpt lat="37.5429405179" lon="-3.0249642301">
        <ele>791.30</ele>
        <time>2020-09-06T18:12:49Z</time>
      </trkpt>
      <trkpt lat="37.5428899750" lon="-3.0249602068">
        <ele>791.30</ele>
        <time>2020-09-06T18:12:50Z</time>
      </trkpt>
      <trkpt lat="37.5428401027" lon="-3.0249525793">
        <ele>791.30</ele>
        <time>2020-09-06T18:12:51Z</time>
      </trkpt>
      <trkpt lat="37.5427929126" lon="-3.0249511544">
        <ele>791.30</ele>
        <time>2020-09-06T18:12:52Z</time>
      </trkpt>
      <trkpt lat="37.5427479856" lon="-3.0249596201">
        <ele>791.30</ele>
        <time>2020-09-06T18:12:53Z</time>
      </trkpt>
      <trkpt lat="37.5426593889" lon="-3.0249896273">
        <ele>790.82</ele>
        <time>2020-09-06T18:12:55Z</time>
      </trkpt>
      <trkpt lat="37.5425662659" lon="-3.0250370689">
        <ele>790.34</ele>
        <time>2020-09-06T18:12:57Z</time>
      </trkpt>
      <trkpt lat="37.5420878269" lon="-3.0252739415">
        <ele>791.30</ele>
        <time>2020-09-06T18:13:09Z</time>
      </trkpt>
      <trkpt lat="37.5416114833" lon="-3.0252812337">
        <ele>793.71</ele>
        <time>2020-09-06T18:13:24Z</time>
      </trkpt>
      <trkpt lat="37.5412106607" lon="-3.0252804793">
        <ele>795.63</ele>
        <time>2020-09-06T18:13:38Z</time>
      </trkpt>
      <trkpt lat="37.5408696849" lon="-3.0252472032">
        <ele>798.99</ele>
        <time>2020-09-06T18:13:53Z</time>
      </trkpt>
      <trkpt lat="37.5406489894" lon="-3.0251824949">
        <ele>800.44</ele>
        <time>2020-09-06T18:14:05Z</time>
      </trkpt>
      <trkpt lat="37.5403122045" lon="-3.0251109973">
        <ele>800.92</ele>
        <time>2020-09-06T18:14:17Z</time>
      </trkpt>
      <trkpt lat="37.5401411299" lon="-3.0251383223">
        <ele>799.47</ele>
        <time>2020-09-06T18:14:20Z</time>
      </trkpt>
      <trkpt lat="37.5397006609" lon="-3.0251151044">
        <ele>798.03</ele>
        <time>2020-09-06T18:14:27Z</time>
      </trkpt>
      <trkpt lat="37.5396607630" lon="-3.0250932276">
        <ele>798.03</ele>
        <time>2020-09-06T18:14:28Z</time>
      </trkpt>
      <trkpt lat="37.5396257266" lon="-3.0250741169">
        <ele>798.03</ele>
        <time>2020-09-06T18:14:29Z</time>
      </trkpt>
      <trkpt lat="37.5395603478" lon="-3.0250463728">
        <ele>799.47</ele>
        <time>2020-09-06T18:14:31Z</time>
      </trkpt>
      <trkpt lat="37.5392330345" lon="-3.0248250905">
        <ele>801.40</ele>
        <time>2020-09-06T18:14:43Z</time>
      </trkpt>
      <trkpt lat="37.5391511433" lon="-3.0248587858">
        <ele>802.36</ele>
        <time>2020-09-06T18:14:47Z</time>
      </trkpt>
      <trkpt lat="37.5391374808" lon="-3.0248830933">
        <ele>802.84</ele>
        <time>2020-09-06T18:14:48Z</time>
      </trkpt>
      <trkpt lat="37.5391253270" lon="-3.0249104183">
        <ele>802.84</ele>
        <time>2020-09-06T18:14:49Z</time>
      </trkpt>
      <trkpt lat="37.5391115807" lon="-3.0249392521">
        <ele>803.32</ele>
        <time>2020-09-06T18:14:50Z</time>
      </trkpt>
      <trkpt lat="37.5390976667" lon="-3.0249675829">
        <ele>803.32</ele>
        <time>2020-09-06T18:14:51Z</time>
      </trkpt>
      <trkpt lat="37.5390840042" lon="-3.0249922257">
        <ele>803.80</ele>
        <time>2020-09-06T18:14:52Z</time>
      </trkpt>
      <trkpt lat="37.5388395041" lon="-3.0253501330">
        <ele>805.72</ele>
        <time>2020-09-06T18:15:05Z</time>
      </trkpt>
      <trkpt lat="37.5385656673" lon="-3.0255278293">
        <ele>808.13</ele>
        <time>2020-09-06T18:15:19Z</time>
      </trkpt>
      <trkpt lat="37.5385501608" lon="-3.0252813175">
        <ele>811.49</ele>
        <time>2020-09-06T18:15:30Z</time>
      </trkpt>
      <trkpt lat="37.5386645738" lon="-3.0249223206">
        <ele>812.93</ele>
        <time>2020-09-06T18:15:44Z</time>
      </trkpt>
      <trkpt lat="37.5386782363" lon="-3.0245183967">
        <ele>814.37</ele>
        <time>2020-09-06T18:15:57Z</time>
      </trkpt>
      <trkpt lat="37.5386323873" lon="-3.0240076873">
        <ele>816.30</ele>
        <time>2020-09-06T18:16:13Z</time>
      </trkpt>
      <trkpt lat="37.5385746360" lon="-3.0237600021">
        <ele>819.18</ele>
        <time>2020-09-06T18:16:23Z</time>
      </trkpt>
      <trkpt lat="37.5383958500" lon="-3.0237335991">
        <ele>820.14</ele>
        <time>2020-09-06T18:16:35Z</time>
      </trkpt>
      <trkpt lat="37.5383992027" lon="-3.0237265583">
        <ele>820.14</ele>
        <time>2020-09-06T18:17:04Z</time>
      </trkpt>
      <trkpt lat="37.5383873843" lon="-3.0237408075">
        <ele>820.14</ele>
        <time>2020-09-06T18:17:09Z</time>
      </trkpt>
      <trkpt lat="37.5383759011" lon="-3.0237529613">
        <ele>820.14</ele>
        <time>2020-09-06T18:17:10Z</time>
      </trkpt>
      <trkpt lat="37.5383611489" lon="-3.0237622652">
        <ele>820.14</ele>
        <time>2020-09-06T18:17:11Z</time>
      </trkpt>
      <trkpt lat="37.5383440498" lon="-3.0237731617">
        <ele>820.14</ele>
        <time>2020-09-06T18:17:12Z</time>
      </trkpt>
      <trkpt lat="37.5383251905" lon="-3.0237857345">
        <ele>820.62</ele>
        <time>2020-09-06T18:17:13Z</time>
      </trkpt>
      <trkpt lat="37.5383035652" lon="-3.0237967148">
        <ele>820.62</ele>
        <time>2020-09-06T18:17:14Z</time>
      </trkpt>
      <trkpt lat="37.5378769264" lon="-3.0239857268">
        <ele>822.06</ele>
        <time>2020-09-06T18:17:29Z</time>
      </trkpt>
      <trkpt lat="37.5376532134" lon="-3.0243825261">
        <ele>823.03</ele>
        <time>2020-09-06T18:17:41Z</time>
      </trkpt>
      <trkpt lat="37.5376329292" lon="-3.0244291294">
        <ele>823.03</ele>
        <time>2020-09-06T18:17:42Z</time>
      </trkpt>
      <trkpt lat="37.5375794526" lon="-3.0245245155">
        <ele>823.03</ele>
        <time>2020-09-06T18:17:44Z</time>
      </trkpt>
      <trkpt lat="37.5375445001" lon="-3.0245643295">
        <ele>822.06</ele>
        <time>2020-09-06T18:17:45Z</time>
      </trkpt>
      <trkpt lat="37.5372756086" lon="-3.0248515774">
        <ele>822.06</ele>
        <time>2020-09-06T18:17:53Z</time>
      </trkpt>
      <trkpt lat="37.5372440089" lon="-3.0248961691">
        <ele>822.06</ele>
        <time>2020-09-06T18:17:54Z</time>
      </trkpt>
      <trkpt lat="37.5371609442" lon="-3.0249931477">
        <ele>821.10</ele>
        <time>2020-09-06T18:17:56Z</time>
      </trkpt>
      <trkpt lat="37.5371129997" lon="-3.0250301119">
        <ele>820.62</ele>
        <time>2020-09-06T18:17:57Z</time>
      </trkpt>
      <trkpt lat="37.5370545778" lon="-3.0250648130">
        <ele>820.62</ele>
        <time>2020-09-06T18:17:58Z</time>
      </trkpt>
      <trkpt lat="37.5369986705" lon="-3.0250915512">
        <ele>820.14</ele>
        <time>2020-09-06T18:17:59Z</time>
      </trkpt>
      <trkpt lat="37.5369443558" lon="-3.0251093209">
        <ele>820.14</ele>
        <time>2020-09-06T18:18:00Z</time>
      </trkpt>
      <trkpt lat="37.5368887838" lon="-3.0251237378">
        <ele>820.14</ele>
        <time>2020-09-06T18:18:01Z</time>
      </trkpt>
      <trkpt lat="37.5366294477" lon="-3.0251807347">
        <ele>820.14</ele>
        <time>2020-09-06T18:18:06Z</time>
      </trkpt>
      <trkpt lat="37.5362810958" lon="-3.0250089895">
        <ele>823.03</ele>
        <time>2020-09-06T18:18:17Z</time>
      </trkpt>
      <trkpt lat="37.5361976121" lon="-3.0249854364">
        <ele>823.51</ele>
        <time>2020-09-06T18:18:20Z</time>
      </trkpt>
      <trkpt lat="37.5361689460" lon="-3.0249986798">
        <ele>823.99</ele>
        <time>2020-09-06T18:18:21Z</time>
      </trkpt>
      <trkpt lat="37.5361396931" lon="-3.0250161141">
        <ele>823.99</ele>
        <time>2020-09-06T18:18:22Z</time>
      </trkpt>
      <trkpt lat="37.5361091830" lon="-3.0250399187">
        <ele>823.99</ele>
        <time>2020-09-06T18:18:23Z</time>
      </trkpt>
      <trkpt lat="37.5360766612" lon="-3.0250672437">
        <ele>823.99</ele>
        <time>2020-09-06T18:18:24Z</time>
      </trkpt>
      <trkpt lat="37.5360015593" lon="-3.0251249950">
        <ele>823.51</ele>
        <time>2020-09-06T18:18:26Z</time>
      </trkpt>
      <trkpt lat="37.5359067600" lon="-3.0251671560">
        <ele>823.51</ele>
        <time>2020-09-06T18:18:28Z</time>
      </trkpt>
      <trkpt lat="37.5358048361" lon="-3.0251805671">
        <ele>822.55</ele>
        <time>2020-09-06T18:18:30Z</time>
      </trkpt>
      <trkpt lat="37.5357545447" lon="-3.0251720175">
        <ele>822.55</ele>
        <time>2020-09-06T18:18:31Z</time>
      </trkpt>
      <trkpt lat="37.5357112940" lon="-3.0251575168">
        <ele>822.55</ele>
        <time>2020-09-06T18:18:32Z</time>
      </trkpt>
      <trkpt lat="37.5356677920" lon="-3.0251350533">
        <ele>822.55</ele>
        <time>2020-09-06T18:18:33Z</time>
      </trkpt>
      <trkpt lat="37.5356278103" lon="-3.0251063034">
        <ele>822.55</ele>
        <time>2020-09-06T18:18:34Z</time>
      </trkpt>
      <trkpt lat="37.5355924387" lon="-3.0250762962">
        <ele>822.55</ele>
        <time>2020-09-06T18:18:35Z</time>
      </trkpt>
      <trkpt lat="37.5354486052" lon="-3.0249648169">
        <ele>823.99</ele>
        <time>2020-09-06T18:18:40Z</time>
      </trkpt>
      <trkpt lat="37.5352117326" lon="-3.0249530822">
        <ele>824.47</ele>
        <time>2020-09-06T18:18:48Z</time>
      </trkpt>
      <trkpt lat="37.5351733435" lon="-3.0249742884">
        <ele>824.95</ele>
        <time>2020-09-06T18:18:49Z</time>
      </trkpt>
      <trkpt lat="37.5351318531" lon="-3.0249902140">
        <ele>824.47</ele>
        <time>2020-09-06T18:18:50Z</time>
      </trkpt>
      <trkpt lat="37.5350860879" lon="-3.0250006076">
        <ele>824.47</ele>
        <time>2020-09-06T18:18:51Z</time>
      </trkpt>
      <trkpt lat="37.5350379758" lon="-3.0250040442">
        <ele>824.47</ele>
        <time>2020-09-06T18:18:52Z</time>
      </trkpt>
      <trkpt lat="37.5349923782" lon="-3.0249931477">
        <ele>823.03</ele>
        <time>2020-09-06T18:18:53Z</time>
      </trkpt>
      <trkpt lat="37.5349531509" lon="-3.0249698460">
        <ele>823.03</ele>
        <time>2020-09-06T18:18:54Z</time>
      </trkpt>
      <trkpt lat="37.5349286757" lon="-3.0249335524">
        <ele>822.55</ele>
        <time>2020-09-06T18:18:55Z</time>
      </trkpt>
      <trkpt lat="37.5349134207" lon="-3.0248903856">
        <ele>822.06</ele>
        <time>2020-09-06T18:18:56Z</time>
      </trkpt>
      <trkpt lat="37.5348920468" lon="-3.0248473026">
        <ele>822.06</ele>
        <time>2020-09-06T18:18:57Z</time>
      </trkpt>
      <trkpt lat="37.5348577648" lon="-3.0248094164">
        <ele>821.58</ele>
        <time>2020-09-06T18:18:58Z</time>
      </trkpt>
      <trkpt lat="37.5348139275" lon="-3.0247881263">
        <ele>821.10</ele>
        <time>2020-09-06T18:18:59Z</time>
      </trkpt>
      <trkpt lat="37.5347611215" lon="-3.0247799959">
        <ele>821.10</ele>
        <time>2020-09-06T18:19:00Z</time>
      </trkpt>
      <trkpt lat="37.5347021129" lon="-3.0247737933">
        <ele>819.66</ele>
        <time>2020-09-06T18:19:01Z</time>
      </trkpt>
      <trkpt lat="37.5346400030" lon="-3.0247594602">
        <ele>819.18</ele>
        <time>2020-09-06T18:19:02Z</time>
      </trkpt>
      <trkpt lat="37.5345767196" lon="-3.0247385893">
        <ele>818.22</ele>
        <time>2020-09-06T18:19:03Z</time>
      </trkpt>
      <trkpt lat="37.5344466325" lon="-3.0246984400">
        <ele>817.26</ele>
        <time>2020-09-06T18:19:05Z</time>
      </trkpt>
      <trkpt lat="37.5343799125" lon="-3.0246987753">
        <ele>816.30</ele>
        <time>2020-09-06T18:19:06Z</time>
      </trkpt>
      <trkpt lat="37.5343156233" lon="-3.0247136950">
        <ele>816.30</ele>
        <time>2020-09-06T18:19:07Z</time>
      </trkpt>
      <trkpt lat="37.5342553575" lon="-3.0247441214">
        <ele>816.30</ele>
        <time>2020-09-06T18:19:08Z</time>
      </trkpt>
      <trkpt lat="37.5341995340" lon="-3.0247876234">
        <ele>815.82</ele>
        <time>2020-09-06T18:19:09Z</time>
      </trkpt>
      <trkpt lat="37.5341479015" lon="-3.0248356517">
        <ele>815.82</ele>
        <time>2020-09-06T18:19:10Z</time>
      </trkpt>
      <trkpt lat="37.5336573925" lon="-3.0252974108">
        <ele>814.85</ele>
        <time>2020-09-06T18:19:20Z</time>
      </trkpt>
      <trkpt lat="37.5336022396" lon="-3.0253326986">
        <ele>813.89</ele>
        <time>2020-09-06T18:19:21Z</time>
      </trkpt>
      <trkpt lat="37.5335482601" lon="-3.0253666453">
        <ele>813.89</ele>
        <time>2020-09-06T18:19:22Z</time>
      </trkpt>
      <trkpt lat="37.5334385410" lon="-3.0254387297">
        <ele>813.41</ele>
        <time>2020-09-06T18:19:24Z</time>
      </trkpt>
      <trkpt lat="37.5333875790" lon="-3.0254930444">
        <ele>813.41</ele>
        <time>2020-09-06T18:19:25Z</time>
      </trkpt>
      <trkpt lat="37.5333377067" lon="-3.0255479459">
        <ele>812.93</ele>
        <time>2020-09-06T18:19:26Z</time>
      </trkpt>
      <trkpt lat="37.5332848169" lon="-3.0255944654">
        <ele>812.93</ele>
        <time>2020-09-06T18:19:27Z</time>
      </trkpt>
      <trkpt lat="37.5332356151" lon="-3.0256399792">
        <ele>812.93</ele>
        <time>2020-09-06T18:19:28Z</time>
      </trkpt>
      <trkpt lat="37.5331914425" lon="-3.0256846547">
        <ele>812.93</ele>
        <time>2020-09-06T18:19:29Z</time>
      </trkpt>
      <trkpt lat="37.5331446715" lon="-3.0257221218">
        <ele>812.93</ele>
        <time>2020-09-06T18:19:30Z</time>
      </trkpt>
      <trkpt lat="37.5330942124" lon="-3.0257574935">
        <ele>812.93</ele>
        <time>2020-09-06T18:19:31Z</time>
      </trkpt>
      <trkpt lat="37.5329885166" lon="-3.0258293264">
        <ele>811.97</ele>
        <time>2020-09-06T18:19:33Z</time>
      </trkpt>
      <trkpt lat="37.5328915380" lon="-3.0259126425">
        <ele>811.01</ele>
        <time>2020-09-06T18:19:35Z</time>
      </trkpt>
      <trkpt lat="37.5328402407" lon="-3.0259505287">
        <ele>811.01</ele>
        <time>2020-09-06T18:19:36Z</time>
      </trkpt>
      <trkpt lat="37.5327855069" lon="-3.0259866547">
        <ele>811.01</ele>
        <time>2020-09-06T18:19:37Z</time>
      </trkpt>
      <trkpt lat="37.5324369874" lon="-3.0261535384">
        <ele>810.53</ele>
        <time>2020-09-06T18:19:43Z</time>
      </trkpt>
      <trkpt lat="37.5322640687" lon="-3.0261956993">
        <ele>809.09</ele>
        <time>2020-09-06T18:19:46Z</time>
      </trkpt>
      <trkpt lat="37.5322111789" lon="-3.0262023211">
        <ele>809.09</ele>
        <time>2020-09-06T18:19:47Z</time>
      </trkpt>
      <trkpt lat="37.5321595464" lon="-3.0262144748">
        <ele>809.09</ele>
        <time>2020-09-06T18:19:48Z</time>
      </trkpt>
      <trkpt lat="37.5314954482" lon="-3.0264321528">
        <ele>808.61</ele>
        <time>2020-09-06T18:19:59Z</time>
      </trkpt>
      <trkpt lat="37.5314296503" lon="-3.0264403671">
        <ele>808.61</ele>
        <time>2020-09-06T18:20:00Z</time>
      </trkpt>
      <trkpt lat="37.5313707255" lon="-3.0264462344">
        <ele>808.61</ele>
        <time>2020-09-06T18:20:01Z</time>
      </trkpt>
      <trkpt lat="37.5309376325" lon="-3.0265125353">
        <ele>808.61</ele>
        <time>2020-09-06T18:20:08Z</time>
      </trkpt>
      <trkpt lat="37.5308756903" lon="-3.0265418720">
        <ele>808.61</ele>
        <time>2020-09-06T18:20:09Z</time>
      </trkpt>
      <trkpt lat="37.5308207050" lon="-3.0265882239">
        <ele>808.13</ele>
        <time>2020-09-06T18:20:10Z</time>
      </trkpt>
      <trkpt lat="37.5307782926" lon="-3.0266521778">
        <ele>808.13</ele>
        <time>2020-09-06T18:20:11Z</time>
      </trkpt>
      <trkpt lat="37.5307511352" lon="-3.0267251842">
        <ele>807.64</ele>
        <time>2020-09-06T18:20:12Z</time>
      </trkpt>
      <trkpt lat="37.5307213794" lon="-3.0267939158">
        <ele>807.64</ele>
        <time>2020-09-06T18:20:13Z</time>
      </trkpt>
      <trkpt lat="37.5306691602" lon="-3.0268429499">
        <ele>807.64</ele>
        <time>2020-09-06T18:20:14Z</time>
      </trkpt>
      <trkpt lat="37.5306083914" lon="-3.0268696882">
        <ele>807.16</ele>
        <time>2020-09-06T18:20:15Z</time>
      </trkpt>
      <trkpt lat="37.5305428449" lon="-3.0268884636">
        <ele>806.68</ele>
        <time>2020-09-06T18:20:16Z</time>
      </trkpt>
      <trkpt lat="37.5304758735" lon="-3.0269011203">
        <ele>806.68</ele>
        <time>2020-09-06T18:20:17Z</time>
      </trkpt>
      <trkpt lat="37.5304089859" lon="-3.0269074906">
        <ele>806.68</ele>
        <time>2020-09-06T18:20:18Z</time>
      </trkpt>
      <trkpt lat="37.5303430203" lon="-3.0269174650">
        <ele>806.68</ele>
        <time>2020-09-06T18:20:19Z</time>
      </trkpt>
      <trkpt lat="37.5302799884" lon="-3.0269366596">
        <ele>806.68</ele>
        <time>2020-09-06T18:20:20Z</time>
      </trkpt>
      <trkpt lat="37.5302243326" lon="-3.0269657448">
        <ele>806.68</ele>
        <time>2020-09-06T18:20:21Z</time>
      </trkpt>
      <trkpt lat="37.5301788189" lon="-3.0270021223">
        <ele>806.68</ele>
        <time>2020-09-06T18:20:22Z</time>
      </trkpt>
      <trkpt lat="37.5301401783" lon="-3.0270402599">
        <ele>806.68</ele>
        <time>2020-09-06T18:20:23Z</time>
      </trkpt>
      <trkpt lat="37.5300816726" lon="-3.0271136854">
        <ele>808.61</ele>
        <time>2020-09-06T18:20:25Z</time>
      </trkpt>
      <trkpt lat="37.5297707878" lon="-3.0275271647">
        <ele>811.49</ele>
        <time>2020-09-06T18:20:39Z</time>
      </trkpt>
      <trkpt lat="37.5297082588" lon="-3.0276585929">
        <ele>812.93</ele>
        <time>2020-09-06T18:20:45Z</time>
      </trkpt>
      <trkpt lat="37.5296649244" lon="-3.0277334433">
        <ele>814.37</ele>
        <time>2020-09-06T18:20:49Z</time>
      </trkpt>
      <trkpt lat="37.5295197498" lon="-3.0278960522">
        <ele>818.22</ele>
        <time>2020-09-06T18:21:00Z</time>
      </trkpt>
      <trkpt lat="37.5294743199" lon="-3.0282235332">
        <ele>818.22</ele>
        <time>2020-09-06T18:21:10Z</time>
      </trkpt>
      <trkpt lat="37.5292284787" lon="-3.0286477413">
        <ele>818.22</ele>
        <time>2020-09-06T18:21:22Z</time>
      </trkpt>
      <trkpt lat="37.5288608484" lon="-3.0285941809">
        <ele>820.14</ele>
        <time>2020-09-06T18:21:33Z</time>
      </trkpt>
      <trkpt lat="37.5286732614" lon="-3.0286210030">
        <ele>820.62</ele>
        <time>2020-09-06T18:21:38Z</time>
      </trkpt>
      <trkpt lat="37.5285698287" lon="-3.0286625773">
        <ele>819.66</ele>
        <time>2020-09-06T18:21:40Z</time>
      </trkpt>
      <trkpt lat="37.5285223033" lon="-3.0286964402">
        <ele>819.18</ele>
        <time>2020-09-06T18:21:41Z</time>
      </trkpt>
      <trkpt lat="37.5284788851" lon="-3.0287440494">
        <ele>818.22</ele>
        <time>2020-09-06T18:21:42Z</time>
      </trkpt>
      <trkpt lat="37.5284316950" lon="-3.0287886411">
        <ele>817.26</ele>
        <time>2020-09-06T18:21:43Z</time>
      </trkpt>
      <trkpt lat="37.5283777155" lon="-3.0288198218">
        <ele>817.26</ele>
        <time>2020-09-06T18:21:44Z</time>
      </trkpt>
      <trkpt lat="37.5283154380" lon="-3.0288386811">
        <ele>816.30</ele>
        <time>2020-09-06T18:21:45Z</time>
      </trkpt>
      <trkpt lat="37.5282575190" lon="-3.0288445484">
        <ele>815.34</ele>
        <time>2020-09-06T18:21:46Z</time>
      </trkpt>
      <trkpt lat="37.5281900447" lon="-3.0288370047">
        <ele>815.34</ele>
        <time>2020-09-06T18:21:47Z</time>
      </trkpt>
      <trkpt lat="37.5281246658" lon="-3.0288272817">
        <ele>814.37</ele>
        <time>2020-09-06T18:21:48Z</time>
      </trkpt>
      <trkpt lat="37.5280508213" lon="-3.0288202409">
        <ele>813.41</ele>
        <time>2020-09-06T18:21:49Z</time>
      </trkpt>
      <trkpt lat="37.5278892182" lon="-3.0287981965">
        <ele>811.97</ele>
        <time>2020-09-06T18:21:51Z</time>
      </trkpt>
      <trkpt lat="37.5278159603" lon="-3.0287847854">
        <ele>811.97</ele>
        <time>2020-09-06T18:21:52Z</time>
      </trkpt>
      <trkpt lat="37.5277355779" lon="-3.0287766550">
        <ele>811.49</ele>
        <time>2020-09-06T18:21:53Z</time>
      </trkpt>
      <trkpt lat="37.5276516750" lon="-3.0287807621">
        <ele>811.49</ele>
        <time>2020-09-06T18:21:54Z</time>
      </trkpt>
      <trkpt lat="37.5275791716" lon="-3.0287991185">
        <ele>811.49</ele>
        <time>2020-09-06T18:21:55Z</time>
      </trkpt>
      <trkpt lat="37.5275084283" lon="-3.0288330652">
        <ele>811.49</ele>
        <time>2020-09-06T18:21:56Z</time>
      </trkpt>
      <trkpt lat="37.5274460670" lon="-3.0288783275">
        <ele>811.49</ele>
        <time>2020-09-06T18:21:57Z</time>
      </trkpt>
      <trkpt lat="37.5273920037" lon="-3.0289272778">
        <ele>811.49</ele>
        <time>2020-09-06T18:21:58Z</time>
      </trkpt>
      <trkpt lat="37.5271690451" lon="-3.0291569419">
        <ele>811.49</ele>
        <time>2020-09-06T18:22:03Z</time>
      </trkpt>
      <trkpt lat="37.5270188414" lon="-3.0292650685">
        <ele>811.49</ele>
        <time>2020-09-06T18:22:06Z</time>
      </trkpt>
      <trkpt lat="37.5269128103" lon="-3.0293064751">
        <ele>811.01</ele>
        <time>2020-09-06T18:22:08Z</time>
      </trkpt>
      <trkpt lat="37.5268579926" lon="-3.0293106660">
        <ele>811.01</ele>
        <time>2020-09-06T18:22:09Z</time>
      </trkpt>
      <trkpt lat="37.5268053543" lon="-3.0293030385">
        <ele>810.53</ele>
        <time>2020-09-06T18:22:10Z</time>
      </trkpt>
      <trkpt lat="37.5267573260" lon="-3.0292841792">
        <ele>810.53</ele>
        <time>2020-09-06T18:22:11Z</time>
      </trkpt>
      <trkpt lat="37.5267131533" lon="-3.0292565189">
        <ele>810.53</ele>
        <time>2020-09-06T18:22:12Z</time>
      </trkpt>
      <trkpt lat="37.5266726688" lon="-3.0292234104">
        <ele>810.53</ele>
        <time>2020-09-06T18:22:13Z</time>
      </trkpt>
      <trkpt lat="37.5266341958" lon="-3.0291858595">
        <ele>810.53</ele>
        <time>2020-09-06T18:22:14Z</time>
      </trkpt>
      <trkpt lat="37.5265963934" lon="-3.0291519128">
        <ele>810.53</ele>
        <time>2020-09-06T18:22:15Z</time>
      </trkpt>
      <trkpt lat="37.5265564118" lon="-3.0291224085">
        <ele>810.53</ele>
        <time>2020-09-06T18:22:16Z</time>
      </trkpt>
      <trkpt lat="37.5265081320" lon="-3.0290943291">
        <ele>810.53</ele>
        <time>2020-09-06T18:22:17Z</time>
      </trkpt>
      <trkpt lat="37.5264626183" lon="-3.0290758051">
        <ele>810.53</ele>
        <time>2020-09-06T18:22:18Z</time>
      </trkpt>
      <trkpt lat="37.5264098123" lon="-3.0290546827">
        <ele>810.53</ele>
        <time>2020-09-06T18:22:19Z</time>
      </trkpt>
      <trkpt lat="37.5263582636" lon="-3.0290266033">
        <ele>810.05</ele>
        <time>2020-09-06T18:22:20Z</time>
      </trkpt>
      <trkpt lat="37.5263047032" lon="-3.0289955065">
        <ele>809.57</ele>
        <time>2020-09-06T18:22:21Z</time>
      </trkpt>
      <trkpt lat="37.5262503047" lon="-3.0289680138">
        <ele>808.61</ele>
        <time>2020-09-06T18:22:22Z</time>
      </trkpt>
      <trkpt lat="37.5261970796" lon="-3.0289489031">
        <ele>808.61</ele>
        <time>2020-09-06T18:22:23Z</time>
      </trkpt>
      <trkpt lat="37.5261431001" lon="-3.0289271101">
        <ele>808.13</ele>
        <time>2020-09-06T18:22:24Z</time>
      </trkpt>
      <trkpt lat="37.5260931440" lon="-3.0288893916">
        <ele>807.64</ele>
        <time>2020-09-06T18:22:25Z</time>
      </trkpt>
      <trkpt lat="37.5260512345" lon="-3.0288412794">
        <ele>807.64</ele>
        <time>2020-09-06T18:22:26Z</time>
      </trkpt>
      <trkpt lat="37.5260169525" lon="-3.0287917424">
        <ele>806.68</ele>
        <time>2020-09-06T18:22:27Z</time>
      </trkpt>
      <trkpt lat="37.5259809103" lon="-3.0287419539">
        <ele>806.68</ele>
        <time>2020-09-06T18:22:28Z</time>
      </trkpt>
      <trkpt lat="37.5259401742" lon="-3.0286886450">
        <ele>806.20</ele>
        <time>2020-09-06T18:22:29Z</time>
      </trkpt>
      <trkpt lat="37.5258947443" lon="-3.0286314804">
        <ele>806.20</ele>
        <time>2020-09-06T18:22:30Z</time>
      </trkpt>
      <trkpt lat="37.5258401781" lon="-3.0285800993">
        <ele>804.76</ele>
        <time>2020-09-06T18:22:31Z</time>
      </trkpt>
      <trkpt lat="37.5257732905" lon="-3.0285424646">
        <ele>805.24</ele>
        <time>2020-09-06T18:22:32Z</time>
      </trkpt>
      <trkpt lat="37.5257045589" lon="-3.0285316519">
        <ele>803.80</ele>
        <time>2020-09-06T18:22:33Z</time>
      </trkpt>
      <trkpt lat="37.5256368332" lon="-3.0285444763">
        <ele>803.80</ele>
        <time>2020-09-06T18:22:34Z</time>
      </trkpt>
      <trkpt lat="37.5255732983" lon="-3.0285687838">
        <ele>803.80</ele>
        <time>2020-09-06T18:22:35Z</time>
      </trkpt>
      <trkpt lat="37.5255113561" lon="-3.0285917502">
        <ele>803.80</ele>
        <time>2020-09-06T18:22:36Z</time>
      </trkpt>
      <trkpt lat="37.5254505035" lon="-3.0286028981">
        <ele>803.80</ele>
        <time>2020-09-06T18:22:37Z</time>
      </trkpt>
      <trkpt lat="37.5253907405" lon="-3.0285996292">
        <ele>803.80</ele>
        <time>2020-09-06T18:22:38Z</time>
      </trkpt>
      <trkpt lat="37.5253319833" lon="-3.0285832006">
        <ele>803.80</ele>
        <time>2020-09-06T18:22:39Z</time>
      </trkpt>
      <trkpt lat="37.5252748188" lon="-3.0285584740">
        <ele>803.80</ele>
        <time>2020-09-06T18:22:40Z</time>
      </trkpt>
      <trkpt lat="37.5252221804" lon="-3.0285288859">
        <ele>803.80</ele>
        <time>2020-09-06T18:22:41Z</time>
      </trkpt>
      <trkpt lat="37.5251718052" lon="-3.0284986272">
        <ele>803.80</ele>
        <time>2020-09-06T18:22:42Z</time>
      </trkpt>
      <trkpt lat="37.5251212623" lon="-3.0284707993">
        <ele>803.80</ele>
        <time>2020-09-06T18:22:43Z</time>
      </trkpt>
      <trkpt lat="37.5250701327" lon="-3.0284471624">
        <ele>803.80</ele>
        <time>2020-09-06T18:22:44Z</time>
      </trkpt>
      <trkpt lat="37.5249668676" lon="-3.0284148920">
        <ele>803.80</ele>
        <time>2020-09-06T18:22:46Z</time>
      </trkpt>
      <trkpt lat="37.5247799512" lon="-3.0283628404">
        <ele>804.28</ele>
        <time>2020-09-06T18:22:50Z</time>
      </trkpt>
      <trkpt lat="37.5247366168" lon="-3.0283358507">
        <ele>805.24</ele>
        <time>2020-09-06T18:22:51Z</time>
      </trkpt>
      <trkpt lat="37.5246946234" lon="-3.0283039995">
        <ele>805.24</ele>
        <time>2020-09-06T18:22:52Z</time>
      </trkpt>
      <trkpt lat="37.5242369715" lon="-3.0279994849">
        <ele>806.68</ele>
        <time>2020-09-06T18:23:03Z</time>
      </trkpt>
      <trkpt lat="37.5237980112" lon="-3.0277526379">
        <ele>809.57</ele>
        <time>2020-09-06T18:23:17Z</time>
      </trkpt>
      <trkpt lat="37.5236623082" lon="-3.0276621133">
        <ele>809.57</ele>
        <time>2020-09-06T18:23:21Z</time>
      </trkpt>
      <trkpt lat="37.5236223266" lon="-3.0276457686">
        <ele>809.57</ele>
        <time>2020-09-06T18:23:22Z</time>
      </trkpt>
      <trkpt lat="37.5235802494" lon="-3.0276402365">
        <ele>809.57</ele>
        <time>2020-09-06T18:23:23Z</time>
      </trkpt>
      <trkpt lat="37.5235357415" lon="-3.0276388954">
        <ele>809.57</ele>
        <time>2020-09-06T18:23:24Z</time>
      </trkpt>
      <trkpt lat="37.5234920718" lon="-3.0276383087">
        <ele>809.57</ele>
        <time>2020-09-06T18:23:25Z</time>
      </trkpt>
      <trkpt lat="37.5234484859" lon="-3.0276330281">
        <ele>809.57</ele>
        <time>2020-09-06T18:23:26Z</time>
      </trkpt>
      <trkpt lat="37.5234069116" lon="-3.0276176892">
        <ele>809.57</ele>
        <time>2020-09-06T18:23:27Z</time>
      </trkpt>
      <trkpt lat="37.5233665947" lon="-3.0275973212">
        <ele>809.57</ele>
        <time>2020-09-06T18:23:28Z</time>
      </trkpt>
      <trkpt lat="37.5232801773" lon="-3.0275679007">
        <ele>809.57</ele>
        <time>2020-09-06T18:23:30Z</time>
      </trkpt>
      <trkpt lat="37.5232341606" lon="-3.0275668111">
        <ele>809.57</ele>
        <time>2020-09-06T18:23:31Z</time>
      </trkpt>
      <trkpt lat="37.5231859647" lon="-3.0275718402">
        <ele>809.57</ele>
        <time>2020-09-06T18:23:32Z</time>
      </trkpt>
      <trkpt lat="37.5231350865" lon="-3.0275857542">
        <ele>809.57</ele>
        <time>2020-09-06T18:23:33Z</time>
      </trkpt>
      <trkpt lat="37.5230821967" lon="-3.0276068766">
        <ele>809.57</ele>
        <time>2020-09-06T18:23:34Z</time>
      </trkpt>
      <trkpt lat="37.5230300613" lon="-3.0276335310">
        <ele>809.57</ele>
        <time>2020-09-06T18:23:35Z</time>
      </trkpt>
      <trkpt lat="37.5228913408" lon="-3.0277306773">
        <ele>809.57</ele>
        <time>2020-09-06T18:23:38Z</time>
      </trkpt>
      <trkpt lat="37.5226170849" lon="-3.0279224552">
        <ele>811.01</ele>
        <time>2020-09-06T18:23:48Z</time>
      </trkpt>
      <trkpt lat="37.5223434996" lon="-3.0280835554">
        <ele>813.89</ele>
        <time>2020-09-06T18:24:01Z</time>
      </trkpt>
      <trkpt lat="37.5219806470" lon="-3.0281948671">
        <ele>815.34</ele>
        <time>2020-09-06T18:24:14Z</time>
      </trkpt>
      <trkpt lat="37.5218593609" lon="-3.0286056641">
        <ele>816.30</ele>
        <time>2020-09-06T18:24:25Z</time>
      </trkpt>
      <trkpt lat="37.5217463728" lon="-3.0291223247">
        <ele>817.26</ele>
        <time>2020-09-06T18:24:38Z</time>
      </trkpt>
      <trkpt lat="37.5216767192" lon="-3.0292807426">
        <ele>802.84</ele>
        <time>2020-09-06T18:24:42Z</time>
      </trkpt>
      <trkpt lat="37.5216547586" lon="-3.0293292738">
        <ele>823.99</ele>
        <time>2020-09-06T18:24:43Z</time>
      </trkpt>
      <trkpt lat="37.5216236617" lon="-3.0293815769">
        <ele>823.99</ele>
        <time>2020-09-06T18:24:44Z</time>
      </trkpt>
      <trkpt lat="37.5215846021" lon="-3.0294210557">
        <ele>819.18</ele>
        <time>2020-09-06T18:24:45Z</time>
      </trkpt>
      <trkpt lat="37.5215398427" lon="-3.0294458661">
        <ele>817.26</ele>
        <time>2020-09-06T18:24:46Z</time>
      </trkpt>
      <trkpt lat="37.5214817561" lon="-3.0294558406">
        <ele>816.30</ele>
        <time>2020-09-06T18:24:47Z</time>
      </trkpt>
      <trkpt lat="37.5214242563" lon="-3.0294527393">
        <ele>816.30</ele>
        <time>2020-09-06T18:24:48Z</time>
      </trkpt>
      <trkpt lat="37.5213645771" lon="-3.0294405017">
        <ele>814.85</ele>
        <time>2020-09-06T18:24:49Z</time>
      </trkpt>
      <trkpt lat="37.5213047303" lon="-3.0294141825">
        <ele>814.37</ele>
        <time>2020-09-06T18:24:50Z</time>
      </trkpt>
      <trkpt lat="37.5212470628" lon="-3.0293813255">
        <ele>813.41</ele>
        <time>2020-09-06T18:24:51Z</time>
      </trkpt>
      <trkpt lat="37.5211204123" lon="-3.0293211434">
        <ele>811.01</ele>
        <time>2020-09-06T18:24:53Z</time>
      </trkpt>
      <trkpt lat="37.5210567098" lon="-3.0293223169">
        <ele>810.53</ele>
        <time>2020-09-06T18:24:54Z</time>
      </trkpt>
      <trkpt lat="37.5210003834" lon="-3.0293533299">
        <ele>810.53</ele>
        <time>2020-09-06T18:24:55Z</time>
      </trkpt>
      <trkpt lat="37.5209560432" lon="-3.0294008553">
        <ele>810.53</ele>
        <time>2020-09-06T18:24:56Z</time>
      </trkpt>
      <trkpt lat="37.5209212583" lon="-3.0294529907">
        <ele>810.53</ele>
        <time>2020-09-06T18:24:57Z</time>
      </trkpt>
      <trkpt lat="37.5208935142" lon="-3.0295037851">
        <ele>810.05</ele>
        <time>2020-09-06T18:24:58Z</time>
      </trkpt>
      <trkpt lat="37.5208723918" lon="-3.0295413360">
        <ele>810.53</ele>
        <time>2020-09-06T18:24:59Z</time>
      </trkpt>
      <trkpt lat="37.5208479166" lon="-3.0295771267">
        <ele>810.53</ele>
        <time>2020-09-06T18:25:00Z</time>
      </trkpt>
      <trkpt lat="37.5207128003" lon="-3.0297093932">
        <ele>812.45</ele>
        <time>2020-09-06T18:25:05Z</time>
      </trkpt>
      <trkpt lat="37.5205678772" lon="-3.0300461780">
        <ele>815.34</ele>
        <time>2020-09-06T18:25:16Z</time>
      </trkpt>
      <trkpt lat="37.5205561426" lon="-3.0300753471">
        <ele>815.34</ele>
        <time>2020-09-06T18:25:17Z</time>
      </trkpt>
      <trkpt lat="37.5204417296" lon="-3.0301898438">
        <ele>815.82</ele>
        <time>2020-09-06T18:25:22Z</time>
      </trkpt>
      <trkpt lat="37.5204056874" lon="-3.0301891733">
        <ele>815.82</ele>
        <time>2020-09-06T18:25:23Z</time>
      </trkpt>
      <trkpt lat="37.5200550724" lon="-3.0303790234">
        <ele>817.74</ele>
        <time>2020-09-06T18:25:34Z</time>
      </trkpt>
      <trkpt lat="37.5199894421" lon="-3.0304004811">
        <ele>817.74</ele>
        <time>2020-09-06T18:25:36Z</time>
      </trkpt>
      <trkpt lat="37.5199549086" lon="-3.0303931050">
        <ele>817.74</ele>
        <time>2020-09-06T18:25:37Z</time>
      </trkpt>
      <trkpt lat="37.5196479633" lon="-3.0302730761">
        <ele>816.30</ele>
        <time>2020-09-06T18:25:43Z</time>
      </trkpt>
      <trkpt lat="37.5195882004" lon="-3.0302611738">
        <ele>815.34</ele>
        <time>2020-09-06T18:25:44Z</time>
      </trkpt>
      <trkpt lat="37.5195304491" lon="-3.0302639399">
        <ele>815.34</ele>
        <time>2020-09-06T18:25:45Z</time>
      </trkpt>
      <trkpt lat="37.5193043891" lon="-3.0303268880">
        <ele>818.22</ele>
        <time>2020-09-06T18:25:52Z</time>
      </trkpt>
      <trkpt lat="37.5191169698" lon="-3.0304651055">
        <ele>821.10</ele>
        <time>2020-09-06T18:26:02Z</time>
      </trkpt>
      <trkpt lat="37.5188606512" lon="-3.0305065122">
        <ele>823.03</ele>
        <time>2020-09-06T18:26:13Z</time>
      </trkpt>
      <trkpt lat="37.5184121355" lon="-3.0304599926">
        <ele>823.99</ele>
        <time>2020-09-06T18:26:27Z</time>
      </trkpt>
      <trkpt lat="37.5183729921" lon="-3.0304273032">
        <ele>823.99</ele>
        <time>2020-09-06T18:26:28Z</time>
      </trkpt>
      <trkpt lat="37.5183409732" lon="-3.0303938594">
        <ele>823.99</ele>
        <time>2020-09-06T18:26:29Z</time>
      </trkpt>
      <trkpt lat="37.5182957109" lon="-3.0303514469">
        <ele>823.99</ele>
        <time>2020-09-06T18:26:30Z</time>
      </trkpt>
      <trkpt lat="37.5182488561" lon="-3.0303166620">
        <ele>823.99</ele>
        <time>2020-09-06T18:26:31Z</time>
      </trkpt>
      <trkpt lat="37.5182045996" lon="-3.0302888341">
        <ele>822.55</ele>
        <time>2020-09-06T18:26:32Z</time>
      </trkpt>
      <trkpt lat="37.5181478541" lon="-3.0302584078">
        <ele>822.55</ele>
        <time>2020-09-06T18:26:33Z</time>
      </trkpt>
      <trkpt lat="37.5180541445" lon="-3.0302160792">
        <ele>822.55</ele>
        <time>2020-09-06T18:26:35Z</time>
      </trkpt>
      <trkpt lat="37.5180056132" lon="-3.0302118883">
        <ele>822.55</ele>
        <time>2020-09-06T18:26:36Z</time>
      </trkpt>
      <trkpt lat="37.5179530587" lon="-3.0302278977">
        <ele>822.55</ele>
        <time>2020-09-06T18:26:37Z</time>
      </trkpt>
      <trkpt lat="37.5179108139" lon="-3.0302515347">
        <ele>822.55</ele>
        <time>2020-09-06T18:26:38Z</time>
      </trkpt>
      <trkpt lat="37.5178691559" lon="-3.0302881636">
        <ele>822.55</ele>
        <time>2020-09-06T18:26:39Z</time>
      </trkpt>
      <trkpt lat="37.5178321078" lon="-3.0303309951">
        <ele>822.55</ele>
        <time>2020-09-06T18:26:40Z</time>
      </trkpt>
      <trkpt lat="37.5177951436" lon="-3.0303742457">
        <ele>822.55</ele>
        <time>2020-09-06T18:26:41Z</time>
      </trkpt>
      <trkpt lat="37.5176504720" lon="-3.0305138044">
        <ele>822.55</ele>
        <time>2020-09-06T18:26:45Z</time>
      </trkpt>
      <trkpt lat="37.5176197104" lon="-3.0305499304">
        <ele>822.55</ele>
        <time>2020-09-06T18:26:46Z</time>
      </trkpt>
      <trkpt lat="37.5175881106" lon="-3.0305954441">
        <ele>822.55</ele>
        <time>2020-09-06T18:26:47Z</time>
      </trkpt>
      <trkpt lat="37.5175596960" lon="-3.0306344200">
        <ele>822.55</ele>
        <time>2020-09-06T18:26:48Z</time>
      </trkpt>
      <trkpt lat="37.5175287668" lon="-3.0306585599">
        <ele>822.55</ele>
        <time>2020-09-06T18:26:49Z</time>
      </trkpt>
      <trkpt lat="37.5174822472" lon="-3.0306705460">
        <ele>822.55</ele>
        <time>2020-09-06T18:26:50Z</time>
      </trkpt>
      <trkpt lat="37.5174403377" lon="-3.0306644272">
        <ele>822.55</ele>
        <time>2020-09-06T18:26:51Z</time>
      </trkpt>
      <trkpt lat="37.5173915550" lon="-3.0306479987">
        <ele>822.55</ele>
        <time>2020-09-06T18:26:52Z</time>
      </trkpt>
      <trkpt lat="37.5173382461" lon="-3.0306283850">
        <ele>822.55</ele>
        <time>2020-09-06T18:26:53Z</time>
      </trkpt>
      <trkpt lat="37.5171251781" lon="-3.0305496790">
        <ele>822.55</ele>
        <time>2020-09-06T18:26:57Z</time>
      </trkpt>
      <trkpt lat="37.5170748867" lon="-3.0305370223">
        <ele>822.55</ele>
        <time>2020-09-06T18:26:58Z</time>
      </trkpt>
      <trkpt lat="37.5168896466" lon="-3.0304658599">
        <ele>822.55</ele>
        <time>2020-09-06T18:27:02Z</time>
      </trkpt>
      <trkpt lat="37.5168446358" lon="-3.0304565560">
        <ele>822.55</ele>
        <time>2020-09-06T18:27:03Z</time>
      </trkpt>
      <trkpt lat="37.5167953502" lon="-3.0304524489">
        <ele>822.55</ele>
        <time>2020-09-06T18:27:04Z</time>
      </trkpt>
      <trkpt lat="37.5165729783" lon="-3.0304598249">
        <ele>823.99</ele>
        <time>2020-09-06T18:27:10Z</time>
      </trkpt>
      <trkpt lat="37.5164157338" lon="-3.0306116212">
        <ele>827.35</ele>
        <time>2020-09-06T18:27:19Z</time>
      </trkpt>
      <trkpt lat="37.5164169073" lon="-3.0306720547">
        <ele>828.31</ele>
        <time>2020-09-06T18:27:21Z</time>
      </trkpt>
      <trkpt lat="37.5164252892" lon="-3.0306985416">
        <ele>828.31</ele>
        <time>2020-09-06T18:27:22Z</time>
      </trkpt>
      <trkpt lat="37.5164329167" lon="-3.0307224300">
        <ele>828.31</ele>
        <time>2020-09-06T18:27:23Z</time>
      </trkpt>
      <trkpt lat="37.5164383650" lon="-3.0307484977">
        <ele>828.79</ele>
        <time>2020-09-06T18:27:24Z</time>
      </trkpt>
      <trkpt lat="37.5164432265" lon="-3.0307754036">
        <ele>829.27</ele>
        <time>2020-09-06T18:27:25Z</time>
      </trkpt>
      <trkpt lat="37.5163263828" lon="-3.0311187264">
        <ele>831.68</ele>
        <time>2020-09-06T18:27:39Z</time>
      </trkpt>
      <trkpt lat="37.5163536239" lon="-3.0312704388">
        <ele>833.12</ele>
        <time>2020-09-06T18:27:44Z</time>
      </trkpt>
      <trkpt lat="37.5163594075" lon="-3.0313056428">
        <ele>833.12</ele>
        <time>2020-09-06T18:27:45Z</time>
      </trkpt>
      <trkpt lat="37.5163625926" lon="-3.0313381646">
        <ele>833.12</ele>
        <time>2020-09-06T18:27:46Z</time>
      </trkpt>
      <trkpt lat="37.5163602456" lon="-3.0313695129">
        <ele>833.60</ele>
        <time>2020-09-06T18:27:47Z</time>
      </trkpt>
      <trkpt lat="37.5163521990" lon="-3.0313998554">
        <ele>833.60</ele>
        <time>2020-09-06T18:27:48Z</time>
      </trkpt>
      <trkpt lat="37.5163369440" lon="-3.0314314552">
        <ele>833.60</ele>
        <time>2020-09-06T18:27:49Z</time>
      </trkpt>
      <trkpt lat="37.5163132232" lon="-3.0314580258">
        <ele>833.60</ele>
        <time>2020-09-06T18:27:50Z</time>
      </trkpt>
      <trkpt lat="37.5162806176" lon="-3.0314801540">
        <ele>833.60</ele>
        <time>2020-09-06T18:27:51Z</time>
      </trkpt>
      <trkpt lat="37.5162376184" lon="-3.0314964149">
        <ele>833.60</ele>
        <time>2020-09-06T18:27:52Z</time>
      </trkpt>
      <trkpt lat="37.5161859859" lon="-3.0315100774">
        <ele>833.60</ele>
        <time>2020-09-06T18:27:53Z</time>
      </trkpt>
      <trkpt lat="37.5161424000" lon="-3.0315286852">
        <ele>832.64</ele>
        <time>2020-09-06T18:27:54Z</time>
      </trkpt>
      <trkpt lat="37.5161006581" lon="-3.0315591954">
        <ele>832.64</ele>
        <time>2020-09-06T18:27:55Z</time>
      </trkpt>
      <trkpt lat="37.5160254724" lon="-3.0316224787">
        <ele>832.64</ele>
        <time>2020-09-06T18:27:57Z</time>
      </trkpt>
      <trkpt lat="37.5159898493" lon="-3.0316301063">
        <ele>832.64</ele>
        <time>2020-09-06T18:27:58Z</time>
      </trkpt>
      <trkpt lat="37.5159602612" lon="-3.0316192936">
        <ele>832.64</ele>
        <time>2020-09-06T18:27:59Z</time>
      </trkpt>
      <trkpt lat="37.5159362890" lon="-3.0315969139">
        <ele>832.64</ele>
        <time>2020-09-06T18:28:00Z</time>
      </trkpt>
      <trkpt lat="37.5159124006" lon="-3.0315642245">
        <ele>832.64</ele>
        <time>2020-09-06T18:28:01Z</time>
      </trkpt>
      <trkpt lat="37.5157692377" lon="-3.0312620569">
        <ele>834.08</ele>
        <time>2020-09-06T18:28:10Z</time>
      </trkpt>
      <trkpt lat="37.5153866038" lon="-3.0310701951">
        <ele>836.48</ele>
        <time>2020-09-06T18:28:24Z</time>
      </trkpt>
      <trkpt lat="37.5153135974" lon="-3.0311152060">
        <ele>836.48</ele>
        <time>2020-09-06T18:28:26Z</time>
      </trkpt>
      <trkpt lat="37.5152842607" lon="-3.0311447941">
        <ele>836.48</ele>
        <time>2020-09-06T18:28:27Z</time>
      </trkpt>
      <trkpt lat="37.5152620487" lon="-3.0311848596">
        <ele>836.96</ele>
        <time>2020-09-06T18:28:28Z</time>
      </trkpt>
      <trkpt lat="37.5152499788" lon="-3.0312319659">
        <ele>836.96</ele>
        <time>2020-09-06T18:28:29Z</time>
      </trkpt>
      <trkpt lat="37.5152488891" lon="-3.0312800780">
        <ele>836.96</ele>
        <time>2020-09-06T18:28:30Z</time>
      </trkpt>
      <trkpt lat="37.5152586959" lon="-3.0313265137">
        <ele>836.96</ele>
        <time>2020-09-06T18:28:31Z</time>
      </trkpt>
      <trkpt lat="37.5152768008" lon="-3.0313706864">
        <ele>836.96</ele>
        <time>2020-09-06T18:28:32Z</time>
      </trkpt>
      <trkpt lat="37.5153008569" lon="-3.0314148590">
        <ele>836.96</ele>
        <time>2020-09-06T18:28:33Z</time>
      </trkpt>
      <trkpt lat="37.5153401680" lon="-3.0315040424">
        <ele>836.96</ele>
        <time>2020-09-06T18:28:35Z</time>
      </trkpt>
      <trkpt lat="37.5153510645" lon="-3.0315596145">
        <ele>836.96</ele>
        <time>2020-09-06T18:28:36Z</time>
      </trkpt>
      <trkpt lat="37.5153557584" lon="-3.0316215567">
        <ele>836.96</ele>
        <time>2020-09-06T18:28:37Z</time>
      </trkpt>
      <trkpt lat="37.5153564289" lon="-3.0316773802">
        <ele>835.52</ele>
        <time>2020-09-06T18:28:38Z</time>
      </trkpt>
      <trkpt lat="37.5153498910" lon="-3.0317259114">
        <ele>835.52</ele>
        <time>2020-09-06T18:28:39Z</time>
      </trkpt>
      <trkpt lat="37.5153306127" lon="-3.0317691620">
        <ele>835.52</ele>
        <time>2020-09-06T18:28:40Z</time>
      </trkpt>
      <trkpt lat="37.5153011084" lon="-3.0318010971">
        <ele>835.52</ele>
        <time>2020-09-06T18:28:41Z</time>
      </trkpt>
      <trkpt lat="37.5152643956" lon="-3.0318256561">
        <ele>835.52</ele>
        <time>2020-09-06T18:28:42Z</time>
      </trkpt>
      <trkpt lat="37.5152333826" lon="-3.0318337027">
        <ele>835.52</ele>
        <time>2020-09-06T18:28:43Z</time>
      </trkpt>
      <trkpt lat="37.5151977595" lon="-3.0318264943">
        <ele>836.96</ele>
        <time>2020-09-06T18:28:44Z</time>
      </trkpt>
      <trkpt lat="37.5151656568" lon="-3.0318090599">
        <ele>836.96</ele>
        <time>2020-09-06T18:28:45Z</time>
      </trkpt>
      <trkpt lat="37.5151311234" lon="-3.0317831598">
        <ele>836.96</ele>
        <time>2020-09-06T18:28:46Z</time>
      </trkpt>
      <trkpt lat="37.5148673449" lon="-3.0314912181">
        <ele>839.37</ele>
        <time>2020-09-06T18:28:57Z</time>
      </trkpt>
      <trkpt lat="37.5147158001" lon="-3.0314839259">
        <ele>840.81</ele>
        <time>2020-09-06T18:29:03Z</time>
      </trkpt>
      <trkpt lat="37.5146982819" lon="-3.0315117538">
        <ele>841.29</ele>
        <time>2020-09-06T18:29:04Z</time>
      </trkpt>
      <trkpt lat="37.5146827754" lon="-3.0315506458">
        <ele>841.29</ele>
        <time>2020-09-06T18:29:05Z</time>
      </trkpt>
      <trkpt lat="37.5146739744" lon="-3.0315830838">
        <ele>841.77</ele>
        <time>2020-09-06T18:29:06Z</time>
      </trkpt>
      <trkpt lat="37.5146623235" lon="-3.0316194613">
        <ele>841.77</ele>
        <time>2020-09-06T18:29:07Z</time>
      </trkpt>
      <trkpt lat="37.5146494992" lon="-3.0316484626">
        <ele>842.25</ele>
        <time>2020-09-06T18:29:08Z</time>
      </trkpt>
      <trkpt lat="37.5146338250" lon="-3.0316793080">
        <ele>842.25</ele>
        <time>2020-09-06T18:29:09Z</time>
      </trkpt>
      <trkpt lat="37.5146138761" lon="-3.0316976644">
        <ele>842.73</ele>
        <time>2020-09-06T18:29:10Z</time>
      </trkpt>
      <trkpt lat="37.5145883113" lon="-3.0317040347">
        <ele>842.73</ele>
        <time>2020-09-06T18:29:11Z</time>
      </trkpt>
      <trkpt lat="37.5145607349" lon="-3.0317021906">
        <ele>842.73</ele>
        <time>2020-09-06T18:29:12Z</time>
      </trkpt>
      <trkpt lat="37.5145388581" lon="-3.0316912942">
        <ele>843.21</ele>
        <time>2020-09-06T18:29:13Z</time>
      </trkpt>
      <trkpt lat="37.5145192444" lon="-3.0316715967">
        <ele>843.21</ele>
        <time>2020-09-06T18:29:14Z</time>
      </trkpt>
      <trkpt lat="37.5144953560" lon="-3.0316433497">
        <ele>843.21</ele>
        <time>2020-09-06T18:29:15Z</time>
      </trkpt>
      <trkpt lat="37.5141786877" lon="-3.0315767974">
        <ele>844.18</ele>
        <time>2020-09-06T18:29:25Z</time>
      </trkpt>
      <trkpt lat="37.5139804557" lon="-3.0318505503">
        <ele>845.62</ele>
        <time>2020-09-06T18:29:35Z</time>
      </trkpt>
      <trkpt lat="37.5140021648" lon="-3.0322294123">
        <ele>848.02</ele>
        <time>2020-09-06T18:29:45Z</time>
      </trkpt>
      <trkpt lat="37.5138112251" lon="-3.0326255411">
        <ele>848.98</ele>
        <time>2020-09-06T18:29:57Z</time>
      </trkpt>
      <trkpt lat="37.5137826428" lon="-3.0326341745">
        <ele>849.94</ele>
        <time>2020-09-06T18:29:58Z</time>
      </trkpt>
      <trkpt lat="37.5137498695" lon="-3.0326353479">
        <ele>849.94</ele>
        <time>2020-09-06T18:29:59Z</time>
      </trkpt>
      <trkpt lat="37.5137155037" lon="-3.0326273013">
        <ele>849.94</ele>
        <time>2020-09-06T18:30:00Z</time>
      </trkpt>
      <trkpt lat="37.5136875082" lon="-3.0326126330">
        <ele>849.94</ele>
        <time>2020-09-06T18:30:01Z</time>
      </trkpt>
      <trkpt lat="37.5136533100" lon="-3.0325905886">
        <ele>849.94</ele>
        <time>2020-09-06T18:30:02Z</time>
      </trkpt>
      <trkpt lat="37.5136274938" lon="-3.0325704720">
        <ele>849.94</ele>
        <time>2020-09-06T18:30:03Z</time>
      </trkpt>
      <trkpt lat="37.5135994144" lon="-3.0325426441">
        <ele>849.94</ele>
        <time>2020-09-06T18:30:04Z</time>
      </trkpt>
      <trkpt lat="37.5132886972" lon="-3.0323457532">
        <ele>852.35</ele>
        <time>2020-09-06T18:30:15Z</time>
      </trkpt>
      <trkpt lat="37.5130688399" lon="-3.0324166641">
        <ele>854.27</ele>
        <time>2020-09-06T18:30:23Z</time>
      </trkpt>
      <trkpt lat="37.5126815122" lon="-3.0326727312">
        <ele>854.27</ele>
        <time>2020-09-06T18:30:35Z</time>
      </trkpt>
      <trkpt lat="37.5124638341" lon="-3.0327852163">
        <ele>854.27</ele>
        <time>2020-09-06T18:30:40Z</time>
      </trkpt>
      <trkpt lat="37.5123642571" lon="-3.0327990465">
        <ele>852.83</ele>
        <time>2020-09-06T18:30:42Z</time>
      </trkpt>
      <trkpt lat="37.5122609083" lon="-3.0327944364">
        <ele>852.83</ele>
        <time>2020-09-06T18:30:44Z</time>
      </trkpt>
      <trkpt lat="37.5122063421" lon="-3.0327809416">
        <ele>851.87</ele>
        <time>2020-09-06T18:30:45Z</time>
      </trkpt>
      <trkpt lat="37.5120152347" lon="-3.0327376071">
        <ele>850.42</ele>
        <time>2020-09-06T18:30:49Z</time>
      </trkpt>
      <trkpt lat="37.5119621772" lon="-3.0327426363">
        <ele>850.42</ele>
        <time>2020-09-06T18:30:50Z</time>
      </trkpt>
      <trkpt lat="37.5119155739" lon="-3.0327532813">
        <ele>849.94</ele>
        <time>2020-09-06T18:30:51Z</time>
      </trkpt>
      <trkpt lat="37.5118658692" lon="-3.0327771697">
        <ele>848.98</ele>
        <time>2020-09-06T18:30:52Z</time>
      </trkpt>
      <trkpt lat="37.5118195172" lon="-3.0328008905">
        <ele>848.50</ele>
        <time>2020-09-06T18:30:53Z</time>
      </trkpt>
      <trkpt lat="37.5117166713" lon="-3.0328393634">
        <ele>847.06</ele>
        <time>2020-09-06T18:30:55Z</time>
      </trkpt>
      <trkpt lat="37.5116606802" lon="-3.0328483321">
        <ele>847.06</ele>
        <time>2020-09-06T18:30:56Z</time>
      </trkpt>
      <trkpt lat="37.5111185387" lon="-3.0329412874">
        <ele>846.10</ele>
        <time>2020-09-06T18:31:06Z</time>
      </trkpt>
      <trkpt lat="37.5110787246" lon="-3.0329718813">
        <ele>848.50</ele>
        <time>2020-09-06T18:31:07Z</time>
      </trkpt>
      <trkpt lat="37.5110469572" lon="-3.0330007151">
        <ele>848.50</ele>
        <time>2020-09-06T18:31:08Z</time>
      </trkpt>
      <trkpt lat="37.5110217277" lon="-3.0330204964">
        <ele>848.98</ele>
        <time>2020-09-06T18:31:09Z</time>
      </trkpt>
      <trkpt lat="37.5109994318" lon="-3.0330346618">
        <ele>848.98</ele>
        <time>2020-09-06T18:31:10Z</time>
      </trkpt>
      <trkpt lat="37.5109736994" lon="-3.0330470670">
        <ele>848.98</ele>
        <time>2020-09-06T18:31:11Z</time>
      </trkpt>
      <trkpt lat="37.5109442789" lon="-3.0330588855">
        <ele>849.46</ele>
        <time>2020-09-06T18:31:12Z</time>
      </trkpt>
      <trkpt lat="37.5106229167" lon="-3.0330738053">
        <ele>851.38</ele>
        <time>2020-09-06T18:31:23Z</time>
      </trkpt>
      <trkpt lat="37.5103945937" lon="-3.0331454705">
        <ele>854.75</ele>
        <time>2020-09-06T18:31:34Z</time>
      </trkpt>
      <trkpt lat="37.5101233553" lon="-3.0332717020">
        <ele>857.15</ele>
        <time>2020-09-06T18:31:47Z</time>
      </trkpt>
      <trkpt lat="37.5098675396" lon="-3.0331894755">
        <ele>860.04</ele>
        <time>2020-09-06T18:31:58Z</time>
      </trkpt>
      <trkpt lat="37.5098478422" lon="-3.0331966002">
        <ele>860.04</ele>
        <time>2020-09-06T18:31:59Z</time>
      </trkpt>
      <trkpt lat="37.5098270550" lon="-3.0332057364">
        <ele>860.04</ele>
        <time>2020-09-06T18:32:00Z</time>
      </trkpt>
      <trkpt lat="37.5098066032" lon="-3.0332167167">
        <ele>860.04</ele>
        <time>2020-09-06T18:32:01Z</time>
      </trkpt>
      <trkpt lat="37.5097833853" lon="-3.0332269426">
        <ele>861.00</ele>
        <time>2020-09-06T18:32:02Z</time>
      </trkpt>
      <trkpt lat="37.5095039327" lon="-3.0332225841">
        <ele>862.92</ele>
        <time>2020-09-06T18:32:15Z</time>
      </trkpt>
      <trkpt lat="37.5091352966" lon="-3.0332477298">
        <ele>864.36</ele>
        <time>2020-09-06T18:32:29Z</time>
      </trkpt>
      <trkpt lat="37.5088717695" lon="-3.0331535172">
        <ele>864.36</ele>
        <time>2020-09-06T18:32:37Z</time>
      </trkpt>
      <trkpt lat="37.5088491384" lon="-3.0331059918">
        <ele>864.36</ele>
        <time>2020-09-06T18:32:38Z</time>
      </trkpt>
      <trkpt lat="37.5087976735" lon="-3.0329527706">
        <ele>864.36</ele>
        <time>2020-09-06T18:32:41Z</time>
      </trkpt>
      <trkpt lat="37.5087421015" lon="-3.0327490065">
        <ele>863.40</ele>
        <time>2020-09-06T18:32:45Z</time>
      </trkpt>
      <trkpt lat="37.5086557679" lon="-3.0325142294">
        <ele>864.36</ele>
        <time>2020-09-06T18:32:50Z</time>
      </trkpt>
      <trkpt lat="37.5085696019" lon="-3.0323399696">
        <ele>865.32</ele>
        <time>2020-09-06T18:32:54Z</time>
      </trkpt>
      <trkpt lat="37.5085410196" lon="-3.0323046818">
        <ele>865.32</ele>
        <time>2020-09-06T18:32:55Z</time>
      </trkpt>
      <trkpt lat="37.5085069053" lon="-3.0322758481">
        <ele>865.32</ele>
        <time>2020-09-06T18:32:56Z</time>
      </trkpt>
      <trkpt lat="37.5084652472" lon="-3.0322543066">
        <ele>865.32</ele>
        <time>2020-09-06T18:32:57Z</time>
      </trkpt>
      <trkpt lat="37.5084234215" lon="-3.0322487745">
        <ele>865.32</ele>
        <time>2020-09-06T18:32:58Z</time>
      </trkpt>
      <trkpt lat="37.5083820987" lon="-3.0322523788">
        <ele>865.32</ele>
        <time>2020-09-06T18:32:59Z</time>
      </trkpt>
      <trkpt lat="37.5083399378" lon="-3.0322612636">
        <ele>865.32</ele>
        <time>2020-09-06T18:33:00Z</time>
      </trkpt>
      <trkpt lat="37.5082976092" lon="-3.0322786979">
        <ele>865.32</ele>
        <time>2020-09-06T18:33:01Z</time>
      </trkpt>
      <trkpt lat="37.5082524307" lon="-3.0322957132">
        <ele>865.32</ele>
        <time>2020-09-06T18:33:02Z</time>
      </trkpt>
      <trkpt lat="37.5082061626" lon="-3.0323140696">
        <ele>865.32</ele>
        <time>2020-09-06T18:33:03Z</time>
      </trkpt>
      <trkpt lat="37.5081588048" lon="-3.0323455017">
        <ele>865.32</ele>
        <time>2020-09-06T18:33:04Z</time>
      </trkpt>
      <trkpt lat="37.5081176497" lon="-3.0323794484">
        <ele>865.32</ele>
        <time>2020-09-06T18:33:05Z</time>
      </trkpt>
      <trkpt lat="37.5080780871" lon="-3.0324091204">
        <ele>865.32</ele>
        <time>2020-09-06T18:33:06Z</time>
      </trkpt>
      <trkpt lat="37.5079973694" lon="-3.0324464198">
        <ele>865.32</ele>
        <time>2020-09-06T18:33:08Z</time>
      </trkpt>
      <trkpt lat="37.5079539511" lon="-3.0324491020">
        <ele>865.32</ele>
        <time>2020-09-06T18:33:09Z</time>
      </trkpt>
      <trkpt lat="37.5078663602" lon="-3.0324483477">
        <ele>865.80</ele>
        <time>2020-09-06T18:33:11Z</time>
      </trkpt>
      <trkpt lat="37.5078293122" lon="-3.0324587412">
        <ele>866.29</ele>
        <time>2020-09-06T18:33:12Z</time>
      </trkpt>
      <trkpt lat="37.5077962037" lon="-3.0324673746">
        <ele>866.29</ele>
        <time>2020-09-06T18:33:13Z</time>
      </trkpt>
      <trkpt lat="37.5077670347" lon="-3.0324691348">
        <ele>866.77</ele>
        <time>2020-09-06T18:33:14Z</time>
      </trkpt>
      <trkpt lat="37.5077395421" lon="-3.0324672908">
        <ele>866.77</ele>
        <time>2020-09-06T18:33:15Z</time>
      </trkpt>
      <trkpt lat="37.5074887555" lon="-3.0324151553">
        <ele>870.13</ele>
        <time>2020-09-06T18:33:25Z</time>
      </trkpt>
      <trkpt lat="37.5072481111" lon="-3.0322552286">
        <ele>873.01</ele>
        <time>2020-09-06T18:33:38Z</time>
      </trkpt>
      <trkpt lat="37.5069075543" lon="-3.0321477726">
        <ele>876.38</ele>
        <time>2020-09-06T18:33:55Z</time>
      </trkpt>
      <trkpt lat="37.5065074861" lon="-3.0323090404">
        <ele>877.34</ele>
        <time>2020-09-06T18:34:09Z</time>
      </trkpt>
      <trkpt lat="37.5064300373" lon="-3.0323211942">
        <ele>877.34</ele>
        <time>2020-09-06T18:34:11Z</time>
      </trkpt>
      <trkpt lat="37.5063897204" lon="-3.0323140696">
        <ele>877.34</ele>
        <time>2020-09-06T18:34:12Z</time>
      </trkpt>
      <trkpt lat="37.5063461345" lon="-3.0322989821">
        <ele>877.34</ele>
        <time>2020-09-06T18:34:13Z</time>
      </trkpt>
      <trkpt lat="37.5063051470" lon="-3.0322746746">
        <ele>877.34</ele>
        <time>2020-09-06T18:34:14Z</time>
      </trkpt>
      <trkpt lat="37.5062623993" lon="-3.0322426558">
        <ele>877.34</ele>
        <time>2020-09-06T18:34:15Z</time>
      </trkpt>
      <trkpt lat="37.5062152930" lon="-3.0322125647">
        <ele>875.42</ele>
        <time>2020-09-06T18:34:16Z</time>
      </trkpt>
      <trkpt lat="37.5061561167" lon="-3.0321963876">
        <ele>874.94</ele>
        <time>2020-09-06T18:34:17Z</time>
      </trkpt>
      <trkpt lat="37.5060922466" lon="-3.0322039314">
        <ele>874.94</ele>
        <time>2020-09-06T18:34:18Z</time>
      </trkpt>
      <trkpt lat="37.5060412008" lon="-3.0322268978">
        <ele>874.94</ele>
        <time>2020-09-06T18:34:19Z</time>
      </trkpt>
      <trkpt lat="37.5059866346" lon="-3.0322561506">
        <ele>874.46</ele>
        <time>2020-09-06T18:34:20Z</time>
      </trkpt>
      <trkpt lat="37.5059380196" lon="-3.0322771892">
        <ele>874.46</ele>
        <time>2020-09-06T18:34:21Z</time>
      </trkpt>
      <trkpt lat="37.5058908295" lon="-3.0322916899">
        <ele>874.46</ele>
        <time>2020-09-06T18:34:22Z</time>
      </trkpt>
      <trkpt lat="37.5058445614" lon="-3.0322982278">
        <ele>874.46</ele>
        <time>2020-09-06T18:34:23Z</time>
      </trkpt>
      <trkpt lat="37.5057960302" lon="-3.0323056877">
        <ele>874.46</ele>
        <time>2020-09-06T18:34:24Z</time>
      </trkpt>
      <trkpt lat="37.5056524482" lon="-3.0323456693">
        <ele>874.46</ele>
        <time>2020-09-06T18:34:27Z</time>
      </trkpt>
      <trkpt lat="37.5055677071" lon="-3.0323889200">
        <ele>874.46</ele>
        <time>2020-09-06T18:34:29Z</time>
      </trkpt>
      <trkpt lat="37.5055316649" lon="-3.0324135628">
        <ele>874.46</ele>
        <time>2020-09-06T18:34:30Z</time>
      </trkpt>
      <trkpt lat="37.5051841512" lon="-3.0325489305">
        <ele>877.34</ele>
        <time>2020-09-06T18:34:41Z</time>
      </trkpt>
      <trkpt lat="37.5048959814" lon="-3.0324237887">
        <ele>879.74</ele>
        <time>2020-09-06T18:34:52Z</time>
      </trkpt>
      <trkpt lat="37.5044368207" lon="-3.0323304981">
        <ele>881.19</ele>
        <time>2020-09-06T18:35:06Z</time>
      </trkpt>
      <trkpt lat="37.5040636584" lon="-3.0323895067">
        <ele>882.63</ele>
        <time>2020-09-06T18:35:17Z</time>
      </trkpt>
      <trkpt lat="37.5036894064" lon="-3.0324442405">
        <ele>885.51</ele>
        <time>2020-09-06T18:35:30Z</time>
      </trkpt>
      <trkpt lat="37.5032620970" lon="-3.0325746629">
        <ele>886.47</ele>
        <time>2020-09-06T18:35:43Z</time>
      </trkpt>
      <trkpt lat="37.5029859133" lon="-3.0325788539">
        <ele>887.43</ele>
        <time>2020-09-06T18:35:50Z</time>
      </trkpt>
      <trkpt lat="37.5025228132" lon="-3.0325003155">
        <ele>889.36</ele>
        <time>2020-09-06T18:36:04Z</time>
      </trkpt>
      <trkpt lat="37.5021623075" lon="-3.0324949510">
        <ele>891.76</ele>
        <time>2020-09-06T18:36:16Z</time>
      </trkpt>
      <trkpt lat="37.5017812662" lon="-3.0324765947">
        <ele>892.72</ele>
        <time>2020-09-06T18:36:26Z</time>
      </trkpt>
      <trkpt lat="37.5017422065" lon="-3.0324726552">
        <ele>892.72</ele>
        <time>2020-09-06T18:36:27Z</time>
      </trkpt>
      <trkpt lat="37.5017041527" lon="-3.0324683804">
        <ele>892.72</ele>
        <time>2020-09-06T18:36:28Z</time>
      </trkpt>
      <trkpt lat="37.5014588144" lon="-3.0324206874">
        <ele>893.68</ele>
        <time>2020-09-06T18:36:34Z</time>
      </trkpt>
      <trkpt lat="37.5013728160" lon="-3.0324148200">
        <ele>892.72</ele>
        <time>2020-09-06T18:36:36Z</time>
      </trkpt>
      <trkpt lat="37.5012807827" lon="-3.0324128084">
        <ele>892.24</ele>
        <time>2020-09-06T18:36:38Z</time>
      </trkpt>
      <trkpt lat="37.5009693112" lon="-3.0323545542">
        <ele>890.80</ele>
        <time>2020-09-06T18:36:44Z</time>
      </trkpt>
      <trkpt lat="37.5009115599" lon="-3.0323589128">
        <ele>890.80</ele>
        <time>2020-09-06T18:36:45Z</time>
      </trkpt>
      <trkpt lat="37.5008555688" lon="-3.0323768500">
        <ele>890.80</ele>
        <time>2020-09-06T18:36:46Z</time>
      </trkpt>
      <trkpt lat="37.5007971469" lon="-3.0324083660">
        <ele>890.80</ele>
        <time>2020-09-06T18:36:47Z</time>
      </trkpt>
      <trkpt lat="37.5007435028" lon="-3.0324385408">
        <ele>890.80</ele>
        <time>2020-09-06T18:36:48Z</time>
      </trkpt>
      <trkpt lat="37.5006898586" lon="-3.0324641056">
        <ele>890.80</ele>
        <time>2020-09-06T18:36:49Z</time>
      </trkpt>
      <trkpt lat="37.5006350409" lon="-3.0324802827">
        <ele>890.80</ele>
        <time>2020-09-06T18:36:50Z</time>
      </trkpt>
      <trkpt lat="37.5005784631" lon="-3.0324853119">
        <ele>890.80</ele>
        <time>2020-09-06T18:36:51Z</time>
      </trkpt>
      <trkpt lat="37.5005211309" lon="-3.0324833002">
        <ele>890.80</ele>
        <time>2020-09-06T18:36:52Z</time>
      </trkpt>
      <trkpt lat="37.5004658103" lon="-3.0324772652">
        <ele>890.80</ele>
        <time>2020-09-06T18:36:53Z</time>
      </trkpt>
      <trkpt lat="37.5004086457" lon="-3.0324697215">
        <ele>890.80</ele>
        <time>2020-09-06T18:36:54Z</time>
      </trkpt>
      <trkpt lat="37.5003539957" lon="-3.0324579030">
        <ele>890.80</ele>
        <time>2020-09-06T18:36:55Z</time>
      </trkpt>
      <trkpt lat="37.5002976693" lon="-3.0324398819">
        <ele>891.28</ele>
        <time>2020-09-06T18:36:56Z</time>
      </trkpt>
      <trkpt lat="37.5002467074" lon="-3.0324169993">
        <ele>891.28</ele>
        <time>2020-09-06T18:36:57Z</time>
      </trkpt>
      <trkpt lat="37.5001980923" lon="-3.0323881656">
        <ele>891.28</ele>
        <time>2020-09-06T18:36:58Z</time>
      </trkpt>
      <trkpt lat="37.5001532491" lon="-3.0323597509">
        <ele>891.28</ele>
        <time>2020-09-06T18:36:59Z</time>
      </trkpt>
      <trkpt lat="37.5000565220" lon="-3.0322990660">
        <ele>892.24</ele>
        <time>2020-09-06T18:37:01Z</time>
      </trkpt>
      <trkpt lat="37.5000044703" lon="-3.0322730821">
        <ele>892.72</ele>
        <time>2020-09-06T18:37:02Z</time>
      </trkpt>
      <trkpt lat="37.4999544304" lon="-3.0322600063">
        <ele>892.24</ele>
        <time>2020-09-06T18:37:03Z</time>
      </trkpt>
      <trkpt lat="37.4998167157" lon="-3.0322603416">
        <ele>893.20</ele>
        <time>2020-09-06T18:37:06Z</time>
      </trkpt>
      <trkpt lat="37.4997309688" lon="-3.0322724953">
        <ele>893.20</ele>
        <time>2020-09-06T18:37:08Z</time>
      </trkpt>
      <trkpt lat="37.4996863771" lon="-3.0322692264">
        <ele>893.68</ele>
        <time>2020-09-06T18:37:09Z</time>
      </trkpt>
      <trkpt lat="37.4996031448" lon="-3.0322542228">
        <ele>893.68</ele>
        <time>2020-09-06T18:37:11Z</time>
      </trkpt>
      <trkpt lat="37.4995605648" lon="-3.0322477687">
        <ele>893.68</ele>
        <time>2020-09-06T18:37:12Z</time>
      </trkpt>
      <trkpt lat="37.4992704671" lon="-3.0322773568">
        <ele>894.64</ele>
        <time>2020-09-06T18:37:19Z</time>
      </trkpt>
      <trkpt lat="37.4992304854" lon="-3.0322949588">
        <ele>894.64</ele>
        <time>2020-09-06T18:37:20Z</time>
      </trkpt>
      <trkpt lat="37.4991473369" lon="-3.0323435739">
        <ele>894.64</ele>
        <time>2020-09-06T18:37:22Z</time>
      </trkpt>
      <trkpt lat="37.4990212731" lon="-3.0324287340">
        <ele>894.64</ele>
        <time>2020-09-06T18:37:25Z</time>
      </trkpt>
      <trkpt lat="37.4989314191" lon="-3.0324735772">
        <ele>894.64</ele>
        <time>2020-09-06T18:37:27Z</time>
      </trkpt>
      <trkpt lat="37.4988779426" lon="-3.0324918497">
        <ele>894.64</ele>
        <time>2020-09-06T18:37:28Z</time>
      </trkpt>
      <trkpt lat="37.4987604283" lon="-3.0325294845">
        <ele>893.20</ele>
        <time>2020-09-06T18:37:30Z</time>
      </trkpt>
      <trkpt lat="37.4985547364" lon="-3.0325752497">
        <ele>891.28</ele>
        <time>2020-09-06T18:37:33Z</time>
      </trkpt>
      <trkpt lat="37.4984888546" lon="-3.0325709749">
        <ele>891.28</ele>
        <time>2020-09-06T18:37:34Z</time>
      </trkpt>
      <trkpt lat="37.4984201230" lon="-3.0325562228">
        <ele>890.80</ele>
        <time>2020-09-06T18:37:35Z</time>
      </trkpt>
      <trkpt lat="37.4983538222" lon="-3.0325327534">
        <ele>890.80</ele>
        <time>2020-09-06T18:37:36Z</time>
      </trkpt>
      <trkpt lat="37.4982923828" lon="-3.0325027462">
        <ele>890.80</ele>
        <time>2020-09-06T18:37:37Z</time>
      </trkpt>
      <trkpt lat="37.4980292749" lon="-3.0323618464">
        <ele>892.24</ele>
        <time>2020-09-06T18:37:44Z</time>
      </trkpt>
      <trkpt lat="37.4980084877" lon="-3.0323587451">
        <ele>892.72</ele>
        <time>2020-09-06T18:37:45Z</time>
      </trkpt>
      <trkpt lat="37.4979620520" lon="-3.0323451664">
        <ele>893.68</ele>
        <time>2020-09-06T18:37:47Z</time>
      </trkpt>
      <trkpt lat="37.4977489840" lon="-3.0322868284">
        <ele>896.57</ele>
        <time>2020-09-06T18:37:58Z</time>
      </trkpt>
      <trkpt lat="37.4974753149" lon="-3.0322911870">
        <ele>899.45</ele>
        <time>2020-09-06T18:38:11Z</time>
      </trkpt>
      <trkpt lat="37.4974619038" lon="-3.0322917737">
        <ele>899.45</ele>
        <time>2020-09-06T18:38:12Z</time>
      </trkpt>
      <trkpt lat="37.4974394403" lon="-3.0322931986">
        <ele>899.45</ele>
        <time>2020-09-06T18:38:13Z</time>
      </trkpt>
      <trkpt lat="37.4971439783" lon="-3.0322042666">
        <ele>902.33</ele>
        <time>2020-09-06T18:38:27Z</time>
      </trkpt>
      <trkpt lat="37.4968631007" lon="-3.0322185997">
        <ele>905.70</ele>
        <time>2020-09-06T18:38:40Z</time>
      </trkpt>
      <trkpt lat="37.4966132361" lon="-3.0321574118">
        <ele>908.58</ele>
        <time>2020-09-06T18:38:53Z</time>
      </trkpt>
      <trkpt lat="37.4963147566" lon="-3.0320494529">
        <ele>911.95</ele>
        <time>2020-09-06T18:39:09Z</time>
      </trkpt>
      <trkpt lat="37.4960904568" lon="-3.0319352914">
        <ele>914.35</ele>
        <time>2020-09-06T18:39:22Z</time>
      </trkpt>
      <trkpt lat="37.4958600383" lon="-3.0317865126">
        <ele>917.72</ele>
        <time>2020-09-06T18:39:35Z</time>
      </trkpt>
      <trkpt lat="37.4956758879" lon="-3.0317183677">
        <ele>920.12</ele>
        <time>2020-09-06T18:39:47Z</time>
      </trkpt>
      <trkpt lat="37.4954962637" lon="-3.0316343810">
        <ele>923.48</ele>
        <time>2020-09-06T18:39:59Z</time>
      </trkpt>
      <trkpt lat="37.4953900650" lon="-3.0316097382">
        <ele>924.45</ele>
        <time>2020-09-06T18:40:06Z</time>
      </trkpt>
      <trkpt lat="37.4953765702" lon="-3.0316179525">
        <ele>925.41</ele>
        <time>2020-09-06T18:40:07Z</time>
      </trkpt>
      <trkpt lat="37.4953624047" lon="-3.0316277593">
        <ele>925.41</ele>
        <time>2020-09-06T18:40:08Z</time>
      </trkpt>
      <trkpt lat="37.4953505863" lon="-3.0316306930">
        <ele>925.89</ele>
        <time>2020-09-06T18:40:09Z</time>
      </trkpt>
      <trkpt lat="37.4953370076" lon="-3.0316307768">
        <ele>926.37</ele>
        <time>2020-09-06T18:40:10Z</time>
      </trkpt>
      <trkpt lat="37.4953246862" lon="-3.0316312797">
        <ele>926.37</ele>
        <time>2020-09-06T18:40:11Z</time>
      </trkpt>
      <trkpt lat="37.4952986185" lon="-3.0316338781">
        <ele>926.85</ele>
        <time>2020-09-06T18:40:13Z</time>
      </trkpt>
      <trkpt lat="37.4952842016" lon="-3.0316426791">
        <ele>926.85</ele>
        <time>2020-09-06T18:40:14Z</time>
      </trkpt>
      <trkpt lat="37.4950713851" lon="-3.0317262467">
        <ele>930.21</ele>
        <time>2020-09-06T18:40:29Z</time>
      </trkpt>
      <trkpt lat="37.4948538747" lon="-3.0318116583">
        <ele>933.58</ele>
        <time>2020-09-06T18:40:44Z</time>
      </trkpt>
      <trkpt lat="37.4946214445" lon="-3.0318993330">
        <ele>936.94</ele>
        <time>2020-09-06T18:40:58Z</time>
      </trkpt>
      <trkpt lat="37.4943882599" lon="-3.0319761112">
        <ele>939.83</ele>
        <time>2020-09-06T18:41:12Z</time>
      </trkpt>
      <trkpt lat="37.4941870105" lon="-3.0320414063">
        <ele>942.23</ele>
        <time>2020-09-06T18:41:26Z</time>
      </trkpt>
      <trkpt lat="37.4941501301" lon="-3.0320471060">
        <ele>943.19</ele>
        <time>2020-09-06T18:41:28Z</time>
      </trkpt>
      <trkpt lat="37.4941347074" lon="-3.0320504587">
        <ele>943.19</ele>
        <time>2020-09-06T18:41:29Z</time>
      </trkpt>
      <trkpt lat="37.4941173568" lon="-3.0320532247">
        <ele>943.67</ele>
        <time>2020-09-06T18:41:30Z</time>
      </trkpt>
      <trkpt lat="37.4938469566" lon="-3.0320395622">
        <ele>946.56</ele>
        <time>2020-09-06T18:41:44Z</time>
      </trkpt>
      <trkpt lat="37.4938094057" lon="-3.0320376344">
        <ele>946.56</ele>
        <time>2020-09-06T18:41:46Z</time>
      </trkpt>
      <trkpt lat="37.4935608823" lon="-3.0321194418">
        <ele>949.92</ele>
        <time>2020-09-06T18:41:59Z</time>
      </trkpt>
      <trkpt lat="37.4932670128" lon="-3.0321913585">
        <ele>952.80</ele>
        <time>2020-09-06T18:42:13Z</time>
      </trkpt>
      <trkpt lat="37.4929371011" lon="-3.0322005786">
        <ele>956.17</ele>
        <time>2020-09-06T18:42:28Z</time>
      </trkpt>
      <trkpt lat="37.4926071055" lon="-3.0322176777">
        <ele>959.05</ele>
        <time>2020-09-06T18:42:42Z</time>
      </trkpt>
      <trkpt lat="37.4923231266" lon="-3.0322621018">
        <ele>961.46</ele>
        <time>2020-09-06T18:42:56Z</time>
      </trkpt>
      <trkpt lat="37.4919373915" lon="-3.0322794523">
        <ele>964.34</ele>
        <time>2020-09-06T18:43:13Z</time>
      </trkpt>
      <trkpt lat="37.4915053882" lon="-3.0322974734">
        <ele>967.22</ele>
        <time>2020-09-06T18:43:28Z</time>
      </trkpt>
      <trkpt lat="37.4911869597" lon="-3.0322584976">
        <ele>967.70</ele>
        <time>2020-09-06T18:43:39Z</time>
      </trkpt>
      <trkpt lat="37.4909981154" lon="-3.0322550610">
        <ele>971.07</ele>
        <time>2020-09-06T18:43:48Z</time>
      </trkpt>
      <trkpt lat="37.4907189142" lon="-3.0323465914">
        <ele>972.51</ele>
        <time>2020-09-06T18:44:03Z</time>
      </trkpt>
      <trkpt lat="37.4907307327" lon="-3.0323410593">
        <ele>972.51</ele>
        <time>2020-09-06T18:44:24Z</time>
      </trkpt>
      <trkpt lat="37.4907391146" lon="-3.0323404726">
        <ele>972.99</ele>
        <time>2020-09-06T18:44:48Z</time>
      </trkpt>
      <trkpt lat="37.4907309003" lon="-3.0323405564">
        <ele>972.99</ele>
        <time>2020-09-06T18:45:22Z</time>
      </trkpt>
      <trkpt lat="37.4907345884" lon="-3.0323507823">
        <ele>972.99</ele>
        <time>2020-09-06T18:45:42Z</time>
      </trkpt>
      <trkpt lat="37.4907180760" lon="-3.0323615950">
        <ele>972.99</ele>
        <time>2020-09-06T18:46:08Z</time>
      </trkpt>
      <trkpt lat="37.4907001387" lon="-3.0323714856">
        <ele>972.99</ele>
        <time>2020-09-06T18:46:09Z</time>
      </trkpt>
      <trkpt lat="37.4906774238" lon="-3.0323815439">
        <ele>972.99</ele>
        <time>2020-09-06T18:46:10Z</time>
      </trkpt>
      <trkpt lat="37.4905097857" lon="-3.0324345175">
        <ele>973.47</ele>
        <time>2020-09-06T18:46:20Z</time>
      </trkpt>
      <trkpt lat="37.4904957041" lon="-3.0324244592">
        <ele>973.47</ele>
        <time>2020-09-06T18:46:31Z</time>
      </trkpt>
      <trkpt lat="37.4905015714" lon="-3.0324229505">
        <ele>973.47</ele>
        <time>2020-09-06T18:47:17Z</time>
      </trkpt>
      <trkpt lat="37.4904903397" lon="-3.0324412230">
        <ele>973.47</ele>
        <time>2020-09-06T18:47:35Z</time>
      </trkpt>
      <trkpt lat="37.4904829636" lon="-3.0324408039">
        <ele>973.47</ele>
        <time>2020-09-06T18:47:43Z</time>
      </trkpt>
      <trkpt lat="37.4904382881" lon="-3.0324615072">
        <ele>973.95</ele>
        <time>2020-09-06T18:47:57Z</time>
      </trkpt>
      <trkpt lat="37.4903689697" lon="-3.0324786901">
        <ele>973.95</ele>
        <time>2020-09-06T18:48:20Z</time>
      </trkpt>
      <trkpt lat="37.4901382159" lon="-3.0324795283">
        <ele>973.95</ele>
        <time>2020-09-06T18:48:33Z</time>
      </trkpt>
      <trkpt lat="37.4897079729" lon="-3.0324408878">
        <ele>974.43</ele>
        <time>2020-09-06T18:48:49Z</time>
      </trkpt>
      <trkpt lat="37.4891913962" lon="-3.0324952025">
        <ele>975.39</ele>
        <time>2020-09-06T18:49:03Z</time>
      </trkpt>
      <trkpt lat="37.4886173196" lon="-3.0324853119">
        <ele>975.88</ele>
        <time>2020-09-06T18:49:18Z</time>
      </trkpt>
      <trkpt lat="37.4880414829" lon="-3.0323743355">
        <ele>977.32</ele>
        <time>2020-09-06T18:49:33Z</time>
      </trkpt>
      <trkpt lat="37.4879999924" lon="-3.0323715694">
        <ele>977.32</ele>
        <time>2020-09-06T18:49:34Z</time>
      </trkpt>
      <trkpt lat="37.4879611842" lon="-3.0323763471">
        <ele>977.32</ele>
        <time>2020-09-06T18:49:35Z</time>
      </trkpt>
      <trkpt lat="37.4879226275" lon="-3.0323814601">
        <ele>977.32</ele>
        <time>2020-09-06T18:49:36Z</time>
      </trkpt>
      <trkpt lat="37.4878834840" lon="-3.0323830526">
        <ele>978.28</ele>
        <time>2020-09-06T18:49:37Z</time>
      </trkpt>
      <trkpt lat="37.4870062340" lon="-3.0323348567">
        <ele>979.24</ele>
        <time>2020-09-06T18:49:58Z</time>
      </trkpt>
      <trkpt lat="37.4861347675" lon="-3.0322432425">
        <ele>980.68</ele>
        <time>2020-09-06T18:50:18Z</time>
      </trkpt>
      <trkpt lat="37.4859168380" lon="-3.0322110560">
        <ele>980.68</ele>
        <time>2020-09-06T18:50:23Z</time>
      </trkpt>
      <trkpt lat="37.4858296663" lon="-3.0322237965">
        <ele>980.68</ele>
        <time>2020-09-06T18:50:25Z</time>
      </trkpt>
      <trkpt lat="37.4857889302" lon="-3.0322444160">
        <ele>980.68</ele>
        <time>2020-09-06T18:50:26Z</time>
      </trkpt>
      <trkpt lat="37.4857539777" lon="-3.0322697293">
        <ele>980.68</ele>
        <time>2020-09-06T18:50:27Z</time>
      </trkpt>
      <trkpt lat="37.4857232999" lon="-3.0323022511">
        <ele>980.68</ele>
        <time>2020-09-06T18:50:28Z</time>
      </trkpt>
      <trkpt lat="37.4856967293" lon="-3.0323346891">
        <ele>981.64</ele>
        <time>2020-09-06T18:50:29Z</time>
      </trkpt>
      <trkpt lat="37.4856108986" lon="-3.0324331764">
        <ele>981.64</ele>
        <time>2020-09-06T18:50:32Z</time>
      </trkpt>
      <trkpt lat="37.4854079727" lon="-3.0326287262">
        <ele>981.64</ele>
        <time>2020-09-06T18:50:38Z</time>
      </trkpt>
      <trkpt lat="37.4851336330" lon="-3.0329405330">
        <ele>982.12</ele>
        <time>2020-09-06T18:50:47Z</time>
      </trkpt>
      <trkpt lat="37.4847233389" lon="-3.0331798363">
        <ele>984.05</ele>
        <time>2020-09-06T18:50:58Z</time>
      </trkpt>
      <trkpt lat="37.4843462370" lon="-3.0332630686">
        <ele>983.57</ele>
        <time>2020-09-06T18:51:07Z</time>
      </trkpt>
      <trkpt lat="37.4843072612" lon="-3.0332815088">
        <ele>983.57</ele>
        <time>2020-09-06T18:51:08Z</time>
      </trkpt>
      <trkpt lat="37.4840865657" lon="-3.0333872046">
        <ele>985.01</ele>
        <time>2020-09-06T18:51:14Z</time>
      </trkpt>
      <trkpt lat="37.4837152474" lon="-3.0334671680">
        <ele>985.97</ele>
        <time>2020-09-06T18:51:24Z</time>
      </trkpt>
      <trkpt lat="37.4836453423" lon="-3.0334535893">
        <ele>985.97</ele>
        <time>2020-09-06T18:51:26Z</time>
      </trkpt>
      <trkpt lat="37.4836045224" lon="-3.0334439501">
        <ele>986.45</ele>
        <time>2020-09-06T18:51:27Z</time>
      </trkpt>
      <trkpt lat="37.4835637864" lon="-3.0334395915">
        <ele>986.45</ele>
        <time>2020-09-06T18:51:28Z</time>
      </trkpt>
      <trkpt lat="37.4835227150" lon="-3.0334407650">
        <ele>986.45</ele>
        <time>2020-09-06T18:51:29Z</time>
      </trkpt>
      <trkpt lat="37.4834796321" lon="-3.0334464647">
        <ele>986.45</ele>
        <time>2020-09-06T18:51:30Z</time>
      </trkpt>
      <trkpt lat="37.4833984952" lon="-3.0334607977">
        <ele>986.45</ele>
        <time>2020-09-06T18:51:32Z</time>
      </trkpt>
      <trkpt lat="37.4832721800" lon="-3.0334949121">
        <ele>986.45</ele>
        <time>2020-09-06T18:51:35Z</time>
      </trkpt>
      <trkpt lat="37.4832255766" lon="-3.0335017014">
        <ele>986.93</ele>
        <time>2020-09-06T18:51:36Z</time>
      </trkpt>
      <trkpt lat="37.4830524903" lon="-3.0335331336">
        <ele>987.41</ele>
        <time>2020-09-06T18:51:40Z</time>
      </trkpt>
      <trkpt lat="37.4827728700" lon="-3.0336275976">
        <ele>987.89</ele>
        <time>2020-09-06T18:51:47Z</time>
      </trkpt>
      <trkpt lat="37.4827419408" lon="-3.0336662382">
        <ele>988.37</ele>
        <time>2020-09-06T18:51:48Z</time>
      </trkpt>
      <trkpt lat="37.4827180523" lon="-3.0337160267">
        <ele>988.37</ele>
        <time>2020-09-06T18:51:49Z</time>
      </trkpt>
      <trkpt lat="37.4827003665" lon="-3.0337718502">
        <ele>988.37</ele>
        <time>2020-09-06T18:51:50Z</time>
      </trkpt>
      <trkpt lat="37.4826926552" lon="-3.0338318646">
        <ele>988.37</ele>
        <time>2020-09-06T18:51:51Z</time>
      </trkpt>
      <trkpt lat="37.4826923199" lon="-3.0338918790">
        <ele>988.37</ele>
        <time>2020-09-06T18:51:52Z</time>
      </trkpt>
      <trkpt lat="37.4826926552" lon="-3.0339509714">
        <ele>988.37</ele>
        <time>2020-09-06T18:51:53Z</time>
      </trkpt>
      <trkpt lat="37.4826764781" lon="-3.0341867544">
        <ele>988.37</ele>
        <time>2020-09-06T18:51:57Z</time>
      </trkpt>
      <trkpt lat="37.4826474767" lon="-3.0343386345">
        <ele>988.85</ele>
        <time>2020-09-06T18:52:00Z</time>
      </trkpt>
      <trkpt lat="37.4826266058" lon="-3.0343804602">
        <ele>988.85</ele>
        <time>2020-09-06T18:52:01Z</time>
      </trkpt>
      <trkpt lat="37.4825991970" lon="-3.0344177596">
        <ele>988.85</ele>
        <time>2020-09-06T18:52:02Z</time>
      </trkpt>
      <trkpt lat="37.4825655855" lon="-3.0344459228">
        <ele>988.85</ele>
        <time>2020-09-06T18:52:03Z</time>
      </trkpt>
      <trkpt lat="37.4825311359" lon="-3.0344618484">
        <ele>988.85</ele>
        <time>2020-09-06T18:52:04Z</time>
      </trkpt>
      <trkpt lat="37.4824954290" lon="-3.0344763491">
        <ele>988.85</ele>
        <time>2020-09-06T18:52:05Z</time>
      </trkpt>
      <trkpt lat="37.4819906708" lon="-3.0346716475">
        <ele>990.30</ele>
        <time>2020-09-06T18:52:19Z</time>
      </trkpt>
      <trkpt lat="37.4814041890" lon="-3.0348040815">
        <ele>992.22</ele>
        <time>2020-09-06T18:52:34Z</time>
      </trkpt>
      <trkpt lat="37.4807695113" lon="-3.0347427260">
        <ele>993.66</ele>
        <time>2020-09-06T18:52:50Z</time>
      </trkpt>
      <trkpt lat="37.4802869651" lon="-3.0345911812">
        <ele>994.62</ele>
        <time>2020-09-06T18:53:03Z</time>
      </trkpt>
      <trkpt lat="37.4796274770" lon="-3.0347278900">
        <ele>996.06</ele>
        <time>2020-09-06T18:53:20Z</time>
      </trkpt>
      <trkpt lat="37.4795868248" lon="-3.0347329192">
        <ele>996.06</ele>
        <time>2020-09-06T18:53:21Z</time>
      </trkpt>
      <trkpt lat="37.4795458373" lon="-3.0347366910">
        <ele>996.06</ele>
        <time>2020-09-06T18:53:22Z</time>
      </trkpt>
      <trkpt lat="37.4795056041" lon="-3.0347448215">
        <ele>996.54</ele>
        <time>2020-09-06T18:53:23Z</time>
      </trkpt>
      <trkpt lat="37.4792632833" lon="-3.0347654410">
        <ele>997.02</ele>
        <time>2020-09-06T18:53:29Z</time>
      </trkpt>
      <trkpt lat="37.4790290091" lon="-3.0347190052">
        <ele>997.51</ele>
        <time>2020-09-06T18:53:35Z</time>
      </trkpt>
      <trkpt lat="37.4787850119" lon="-3.0347368587">
        <ele>997.99</ele>
        <time>2020-09-06T18:53:41Z</time>
      </trkpt>
      <trkpt lat="37.4787467066" lon="-3.0347467493">
        <ele>997.99</ele>
        <time>2020-09-06T18:53:42Z</time>
      </trkpt>
      <trkpt lat="37.4787079822" lon="-3.0347602442">
        <ele>997.99</ele>
        <time>2020-09-06T18:53:43Z</time>
      </trkpt>
      <trkpt lat="37.4781344924" lon="-3.0350391101">
        <ele>999.43</ele>
        <time>2020-09-06T18:53:58Z</time>
      </trkpt>
      <trkpt lat="37.4780964386" lon="-3.0350539461">
        <ele>999.43</ele>
        <time>2020-09-06T18:53:59Z</time>
      </trkpt>
      <trkpt lat="37.4776053429" lon="-3.0353607237">
        <ele>1000.39</ele>
        <time>2020-09-06T18:54:13Z</time>
      </trkpt>
      <trkpt lat="37.4772697315" lon="-3.0354245938">
        <ele>1001.83</ele>
        <time>2020-09-06T18:54:25Z</time>
      </trkpt>
      <trkpt lat="37.4772337731" lon="-3.0354269408">
        <ele>1002.31</ele>
        <time>2020-09-06T18:54:52Z</time>
      </trkpt>
      <trkpt lat="37.4768309388" lon="-3.0352494959">
        <ele>1002.79</ele>
        <time>2020-09-06T18:55:05Z</time>
      </trkpt>
      <trkpt lat="37.4766739458" lon="-3.0351568758">
        <ele>1006.16</ele>
        <time>2020-09-06T18:55:10Z</time>
      </trkpt>
      <trkpt lat="37.4766394123" lon="-3.0351404473">
        <ele>1005.20</ele>
        <time>2020-09-06T18:55:11Z</time>
      </trkpt>
      <trkpt lat="37.4765726086" lon="-3.0351032317">
        <ele>1003.27</ele>
        <time>2020-09-06T18:55:13Z</time>
      </trkpt>
      <trkpt lat="37.4763338082" lon="-3.0349699594">
        <ele>1003.75</ele>
        <time>2020-09-06T18:55:20Z</time>
      </trkpt>
      <trkpt lat="37.4756987952" lon="-3.0345909297">
        <ele>1005.68</ele>
        <time>2020-09-06T18:55:37Z</time>
      </trkpt>
      <trkpt lat="37.4750877544" lon="-3.0343545601">
        <ele>1007.12</ele>
        <time>2020-09-06T18:55:53Z</time>
      </trkpt>
      <trkpt lat="37.4750114791" lon="-3.0343394727">
        <ele>1005.68</ele>
        <time>2020-09-06T18:55:55Z</time>
      </trkpt>
      <trkpt lat="37.4749713298" lon="-3.0343331024">
        <ele>1009.04</ele>
        <time>2020-09-06T18:55:56Z</time>
      </trkpt>
      <trkpt lat="37.4749321025" lon="-3.0343275703">
        <ele>1007.60</ele>
        <time>2020-09-06T18:55:57Z</time>
      </trkpt>
      <trkpt lat="37.4746252410" lon="-3.0342210364">
        <ele>1008.08</ele>
        <time>2020-09-06T18:56:05Z</time>
      </trkpt>
      <trkpt lat="37.4745871034" lon="-3.0342070386">
        <ele>1008.08</ele>
        <time>2020-09-06T18:56:06Z</time>
      </trkpt>
      <trkpt lat="37.4745482951" lon="-3.0341968127">
        <ele>1008.08</ele>
        <time>2020-09-06T18:56:07Z</time>
      </trkpt>
      <trkpt lat="37.4745068885" lon="-3.0341932923">
        <ele>1008.08</ele>
        <time>2020-09-06T18:56:08Z</time>
      </trkpt>
      <trkpt lat="37.4744668230" lon="-3.0341923703">
        <ele>1008.08</ele>
        <time>2020-09-06T18:56:09Z</time>
      </trkpt>
      <trkpt lat="37.4741871189" lon="-3.0342233833">
        <ele>1009.04</ele>
        <time>2020-09-06T18:56:16Z</time>
      </trkpt>
      <trkpt lat="37.4741494842" lon="-3.0342380516">
        <ele>1009.04</ele>
        <time>2020-09-06T18:56:17Z</time>
      </trkpt>
      <trkpt lat="37.4741131905" lon="-3.0342532229">
        <ele>1009.04</ele>
        <time>2020-09-06T18:56:18Z</time>
      </trkpt>
      <trkpt lat="37.4740747176" lon="-3.0342662986">
        <ele>1009.04</ele>
        <time>2020-09-06T18:56:19Z</time>
      </trkpt>
      <trkpt lat="37.4740356579" lon="-3.0342756864">
        <ele>1009.04</ele>
        <time>2020-09-06T18:56:20Z</time>
      </trkpt>
      <trkpt lat="37.4735213444" lon="-3.0342460144">
        <ele>1010.48</ele>
        <time>2020-09-06T18:56:33Z</time>
      </trkpt>
      <trkpt lat="37.4734024890" lon="-3.0341842398">
        <ele>1010.48</ele>
        <time>2020-09-06T18:56:36Z</time>
      </trkpt>
      <trkpt lat="37.4724702537" lon="-3.0337937269">
        <ele>1012.41</ele>
        <time>2020-09-06T18:56:59Z</time>
      </trkpt>
      <trkpt lat="37.4723195471" lon="-3.0337160267">
        <ele>1012.89</ele>
        <time>2020-09-06T18:57:03Z</time>
      </trkpt>
      <trkpt lat="37.4722800683" lon="-3.0336930603">
        <ele>1012.89</ele>
        <time>2020-09-06T18:57:04Z</time>
      </trkpt>
      <trkpt lat="37.4718856160" lon="-3.0334225763">
        <ele>1013.85</ele>
        <time>2020-09-06T18:57:15Z</time>
      </trkpt>
      <trkpt lat="37.4715126213" lon="-3.0330360029">
        <ele>1014.81</ele>
        <time>2020-09-06T18:57:27Z</time>
      </trkpt>
      <trkpt lat="37.4711690471" lon="-3.0327468272">
        <ele>1015.77</ele>
        <time>2020-09-06T18:57:41Z</time>
      </trkpt>
      <trkpt lat="37.4711610842" lon="-3.0327364337">
        <ele>1016.25</ele>
        <time>2020-09-06T18:58:08Z</time>
      </trkpt>
      <trkpt lat="37.4711826257" lon="-3.0327529460">
        <ele>1016.25</ele>
        <time>2020-09-06T18:58:34Z</time>
      </trkpt>
      <trkpt lat="37.4711820390" lon="-3.0327547062">
        <ele>1016.73</ele>
        <time>2020-09-06T18:59:17Z</time>
      </trkpt>
      <trkpt lat="37.4710351881" lon="-3.0326304864">
        <ele>1016.73</ele>
        <time>2020-09-06T18:59:38Z</time>
      </trkpt>
      <trkpt lat="37.4705667235" lon="-3.0322096311">
        <ele>1017.69</ele>
        <time>2020-09-06T18:59:53Z</time>
      </trkpt>
      <trkpt lat="37.4700448662" lon="-3.0316550843">
        <ele>1019.62</ele>
        <time>2020-09-06T19:00:10Z</time>
      </trkpt>
      <trkpt lat="37.4693856295" lon="-3.0311889667">
        <ele>1021.06</ele>
        <time>2020-09-06T19:00:28Z</time>
      </trkpt>
      <trkpt lat="37.4688878283" lon="-3.0309372582">
        <ele>1022.02</ele>
        <time>2020-09-06T19:00:41Z</time>
      </trkpt>
      <trkpt lat="37.4688468408" lon="-3.0309125315">
        <ele>1022.02</ele>
        <time>2020-09-06T19:00:42Z</time>
      </trkpt>
      <trkpt lat="37.4686797895" lon="-3.0308272876">
        <ele>1022.02</ele>
        <time>2020-09-06T19:00:46Z</time>
      </trkpt>
      <trkpt lat="37.4683417473" lon="-3.0307019781">
        <ele>1022.50</ele>
        <time>2020-09-06T19:00:54Z</time>
      </trkpt>
      <trkpt lat="37.4676850252" lon="-3.0304775108">
        <ele>1024.42</ele>
        <time>2020-09-06T19:01:10Z</time>
      </trkpt>
      <trkpt lat="37.4672153033" lon="-3.0303033348">
        <ele>1024.42</ele>
        <time>2020-09-06T19:01:21Z</time>
      </trkpt>
      <trkpt lat="37.4667498562" lon="-3.0300755147">
        <ele>1025.38</ele>
        <time>2020-09-06T19:01:32Z</time>
      </trkpt>
      <trkpt lat="37.4667069409" lon="-3.0300491117">
        <ele>1025.86</ele>
        <time>2020-09-06T19:01:33Z</time>
      </trkpt>
      <trkpt lat="37.4665838946" lon="-3.0299864151">
        <ele>1025.86</ele>
        <time>2020-09-06T19:01:36Z</time>
      </trkpt>
      <trkpt lat="37.4660979956" lon="-3.0299120676">
        <ele>1026.83</ele>
        <time>2020-09-06T19:01:47Z</time>
      </trkpt>
      <trkpt lat="37.4657518230" lon="-3.0299111456">
        <ele>1027.31</ele>
        <time>2020-09-06T19:01:55Z</time>
      </trkpt>
      <trkpt lat="37.4657102488" lon="-3.0299009196">
        <ele>1027.31</ele>
        <time>2020-09-06T19:01:56Z</time>
      </trkpt>
      <trkpt lat="37.4649061728" lon="-3.0297064595">
        <ele>1028.27</ele>
        <time>2020-09-06T19:02:14Z</time>
      </trkpt>
      <trkpt lat="37.4646761734" lon="-3.0296713393">
        <ele>1028.75</ele>
        <time>2020-09-06T19:02:19Z</time>
      </trkpt>
      <trkpt lat="37.4644523766" lon="-3.0296157673">
        <ele>1029.71</ele>
        <time>2020-09-06T19:02:24Z</time>
      </trkpt>
      <trkpt lat="37.4644074496" lon="-3.0295974109">
        <ele>1029.71</ele>
        <time>2020-09-06T19:02:25Z</time>
      </trkpt>
      <trkpt lat="37.4636748713" lon="-3.0294298567">
        <ele>1030.67</ele>
        <time>2020-09-06T19:02:41Z</time>
      </trkpt>
      <trkpt lat="37.4631677661" lon="-3.0293358117">
        <ele>1032.11</ele>
        <time>2020-09-06T19:02:52Z</time>
      </trkpt>
      <trkpt lat="37.4629981164" lon="-3.0292646494">
        <ele>1032.11</ele>
        <time>2020-09-06T19:02:56Z</time>
      </trkpt>
      <trkpt lat="37.4629520997" lon="-3.0292503163">
        <ele>1032.11</ele>
        <time>2020-09-06T19:02:57Z</time>
      </trkpt>
      <trkpt lat="37.4621275719" lon="-3.0288423691">
        <ele>1033.55</ele>
        <time>2020-09-06T19:03:16Z</time>
      </trkpt>
      <trkpt lat="37.4619949702" lon="-3.0287633277">
        <ele>1033.55</ele>
        <time>2020-09-06T19:03:19Z</time>
      </trkpt>
      <trkpt lat="37.4614415970" lon="-3.0284138862">
        <ele>1034.52</ele>
        <time>2020-09-06T19:03:32Z</time>
      </trkpt>
      <trkpt lat="37.4613970891" lon="-3.0283922609">
        <ele>1034.52</ele>
        <time>2020-09-06T19:03:33Z</time>
      </trkpt>
      <trkpt lat="37.4612154532" lon="-3.0282982159">
        <ele>1034.52</ele>
        <time>2020-09-06T19:03:37Z</time>
      </trkpt>
      <trkpt lat="37.4611709453" lon="-3.0282799434">
        <ele>1034.52</ele>
        <time>2020-09-06T19:03:38Z</time>
      </trkpt>
      <trkpt lat="37.4605151452" lon="-3.0279043503">
        <ele>1035.96</ele>
        <time>2020-09-06T19:03:53Z</time>
      </trkpt>
      <trkpt lat="37.4598398153" lon="-3.0275472812">
        <ele>1037.40</ele>
        <time>2020-09-06T19:04:08Z</time>
      </trkpt>
      <trkpt lat="37.4594736099" lon="-3.0273642205">
        <ele>1037.88</ele>
        <time>2020-09-06T19:04:17Z</time>
      </trkpt>
      <trkpt lat="37.4593918025" lon="-3.0273171980">
        <ele>1037.88</ele>
        <time>2020-09-06T19:04:19Z</time>
      </trkpt>
      <trkpt lat="37.4593521561" lon="-3.0272929743">
        <ele>1037.88</ele>
        <time>2020-09-06T19:04:20Z</time>
      </trkpt>
      <trkpt lat="37.4590220768" lon="-3.0270278547">
        <ele>1038.84</ele>
        <time>2020-09-06T19:04:29Z</time>
      </trkpt>
      <trkpt lat="37.4589914829" lon="-3.0269890465">
        <ele>1039.32</ele>
        <time>2020-09-06T19:04:30Z</time>
      </trkpt>
      <trkpt lat="37.4589331448" lon="-3.0269052275">
        <ele>1038.84</ele>
        <time>2020-09-06T19:04:32Z</time>
      </trkpt>
      <trkpt lat="37.4588443805" lon="-3.0267711170">
        <ele>1039.80</ele>
        <time>2020-09-06T19:04:35Z</time>
      </trkpt>
      <trkpt lat="37.4587241840" lon="-3.0265878048">
        <ele>1039.80</ele>
        <time>2020-09-06T19:04:39Z</time>
      </trkpt>
      <trkpt lat="37.4586877227" lon="-3.0265505053">
        <ele>1039.80</ele>
        <time>2020-09-06T19:04:40Z</time>
      </trkpt>
      <trkpt lat="37.4586467352" lon="-3.0265190732">
        <ele>1039.80</ele>
        <time>2020-09-06T19:04:41Z</time>
      </trkpt>
      <trkpt lat="37.4585239403" lon="-3.0264509283">
        <ele>1040.76</ele>
        <time>2020-09-06T19:04:44Z</time>
      </trkpt>
      <trkpt lat="37.4584801868" lon="-3.0264363438">
        <ele>1040.76</ele>
        <time>2020-09-06T19:04:45Z</time>
      </trkpt>
      <trkpt lat="37.4583905842" lon="-3.0264126230">
        <ele>1040.76</ele>
        <time>2020-09-06T19:04:47Z</time>
      </trkpt>
      <trkpt lat="37.4580093753" lon="-3.0263248645">
        <ele>1041.25</ele>
        <time>2020-09-06T19:04:56Z</time>
      </trkpt>
      <trkpt lat="37.4579666276" lon="-3.0263054185">
        <ele>1041.25</ele>
        <time>2020-09-06T19:04:57Z</time>
      </trkpt>
      <trkpt lat="37.4578397255" lon="-3.0262377765">
        <ele>1041.73</ele>
        <time>2020-09-06T19:05:00Z</time>
      </trkpt>
      <trkpt lat="37.4577994086" lon="-3.0262134690">
        <ele>1041.73</ele>
        <time>2020-09-06T19:05:01Z</time>
      </trkpt>
      <trkpt lat="37.4573084805" lon="-3.0259908456">
        <ele>1043.17</ele>
        <time>2020-09-06T19:05:13Z</time>
      </trkpt>
      <trkpt lat="37.4572230689" lon="-3.0259585753">
        <ele>1043.17</ele>
        <time>2020-09-06T19:05:15Z</time>
      </trkpt>
      <trkpt lat="37.4571773876" lon="-3.0259436555">
        <ele>1043.17</ele>
        <time>2020-09-06T19:05:16Z</time>
      </trkpt>
      <trkpt lat="37.4571310356" lon="-3.0259277299">
        <ele>1043.65</ele>
        <time>2020-09-06T19:05:17Z</time>
      </trkpt>
      <trkpt lat="37.4567800015" lon="-3.0258237105">
        <ele>1044.13</ele>
        <time>2020-09-06T19:05:25Z</time>
      </trkpt>
      <trkpt lat="37.4566952605" lon="-3.0257819686">
        <ele>1044.61</ele>
        <time>2020-09-06T19:05:27Z</time>
      </trkpt>
      <trkpt lat="37.4565794226" lon="-3.0257082917">
        <ele>1044.61</ele>
        <time>2020-09-06T19:05:30Z</time>
      </trkpt>
      <trkpt lat="37.4565416202" lon="-3.0256782845">
        <ele>1045.09</ele>
        <time>2020-09-06T19:05:31Z</time>
      </trkpt>
      <trkpt lat="37.4559375364" lon="-3.0252795573">
        <ele>1046.05</ele>
        <time>2020-09-06T19:05:46Z</time>
      </trkpt>
      <trkpt lat="37.4557615165" lon="-3.0251824111">
        <ele>1046.05</ele>
        <time>2020-09-06T19:05:50Z</time>
      </trkpt>
      <trkpt lat="37.4551546667" lon="-3.0245567020">
        <ele>1047.97</ele>
        <time>2020-09-06T19:06:06Z</time>
      </trkpt>
      <trkpt lat="37.4545214139" lon="-3.0239580665">
        <ele>1048.45</ele>
        <time>2020-09-06T19:06:22Z</time>
      </trkpt>
      <trkpt lat="37.4543852080" lon="-3.0238017440">
        <ele>1048.94</ele>
        <time>2020-09-06T19:06:26Z</time>
      </trkpt>
      <trkpt lat="37.4543530215" lon="-3.0237573199">
        <ele>1048.94</ele>
        <time>2020-09-06T19:06:27Z</time>
      </trkpt>
      <trkpt lat="37.4541285541" lon="-3.0234323535">
        <ele>1049.42</ele>
        <time>2020-09-06T19:06:34Z</time>
      </trkpt>
      <trkpt lat="37.4540977087" lon="-3.0233832356">
        <ele>1049.90</ele>
        <time>2020-09-06T19:06:35Z</time>
      </trkpt>
      <trkpt lat="37.4535771087" lon="-3.0228494760">
        <ele>1049.90</ele>
        <time>2020-09-06T19:06:48Z</time>
      </trkpt>
      <trkpt lat="37.4533570837" lon="-3.0225701071">
        <ele>1050.38</ele>
        <time>2020-09-06T19:06:54Z</time>
      </trkpt>
      <trkpt lat="37.4530457798" lon="-3.0221686140">
        <ele>1051.82</ele>
        <time>2020-09-06T19:07:03Z</time>
      </trkpt>
      <trkpt lat="37.4529662356" lon="-3.0220974516">
        <ele>1051.82</ele>
        <time>2020-09-06T19:07:05Z</time>
      </trkpt>
      <trkpt lat="37.4528566003" lon="-3.0219868943">
        <ele>1051.82</ele>
        <time>2020-09-06T19:07:08Z</time>
      </trkpt>
      <trkpt lat="37.4527814984" lon="-3.0219252035">
        <ele>1052.30</ele>
        <time>2020-09-06T19:07:10Z</time>
      </trkpt>
      <trkpt lat="37.4526234157" lon="-3.0218157358">
        <ele>1052.30</ele>
        <time>2020-09-06T19:07:14Z</time>
      </trkpt>
      <trkpt lat="37.4525169656" lon="-3.0217143986">
        <ele>1052.78</ele>
        <time>2020-09-06T19:07:17Z</time>
      </trkpt>
      <trkpt lat="37.4524877965" lon="-3.0216754228">
        <ele>1052.78</ele>
        <time>2020-09-06T19:07:18Z</time>
      </trkpt>
      <trkpt lat="37.4524574541" lon="-3.0216380395">
        <ele>1052.78</ele>
        <time>2020-09-06T19:07:19Z</time>
      </trkpt>
      <trkpt lat="37.4524268601" lon="-3.0216001533">
        <ele>1053.74</ele>
        <time>2020-09-06T19:07:20Z</time>
      </trkpt>
      <trkpt lat="37.4523963500" lon="-3.0215626862">
        <ele>1053.74</ele>
        <time>2020-09-06T19:07:21Z</time>
      </trkpt>
      <trkpt lat="37.4523090106" lon="-3.0214482732">
        <ele>1053.74</ele>
        <time>2020-09-06T19:07:24Z</time>
      </trkpt>
      <trkpt lat="37.4522765726" lon="-3.0214157514">
        <ele>1053.74</ele>
        <time>2020-09-06T19:07:25Z</time>
      </trkpt>
      <trkpt lat="37.4522444699" lon="-3.0213818047">
        <ele>1053.74</ele>
        <time>2020-09-06T19:07:26Z</time>
      </trkpt>
      <trkpt lat="37.4521811865" lon="-3.0213090498">
        <ele>1054.22</ele>
        <time>2020-09-06T19:07:28Z</time>
      </trkpt>
      <trkpt lat="37.4516062718" lon="-3.0208382383">
        <ele>1055.67</ele>
        <time>2020-09-06T19:07:44Z</time>
      </trkpt>
      <trkpt lat="37.4509917106" lon="-3.0204948317">
        <ele>1057.11</ele>
        <time>2020-09-06T19:08:00Z</time>
      </trkpt>
      <trkpt lat="37.4503080826" lon="-3.0200769100">
        <ele>1059.03</ele>
        <time>2020-09-06T19:08:18Z</time>
      </trkpt>
      <trkpt lat="37.4499842897" lon="-3.0199036561">
        <ele>1059.51</ele>
        <time>2020-09-06T19:08:26Z</time>
      </trkpt>
      <trkpt lat="37.4498553760" lon="-3.0198669434">
        <ele>1059.51</ele>
        <time>2020-09-06T19:08:29Z</time>
      </trkpt>
      <trkpt lat="37.4497241154" lon="-3.0198342539">
        <ele>1059.99</ele>
        <time>2020-09-06T19:08:32Z</time>
      </trkpt>
      <trkpt lat="37.4493526295" lon="-3.0196741596">
        <ele>1060.47</ele>
        <time>2020-09-06T19:08:41Z</time>
      </trkpt>
      <trkpt lat="37.4491974805" lon="-3.0195236206">
        <ele>1061.43</ele>
        <time>2020-09-06T19:08:47Z</time>
      </trkpt>
      <trkpt lat="37.4491899367" lon="-3.0194843095">
        <ele>1061.43</ele>
        <time>2020-09-06T19:08:48Z</time>
      </trkpt>
      <trkpt lat="37.4491773639" lon="-3.0194444116">
        <ele>1061.43</ele>
        <time>2020-09-06T19:08:49Z</time>
      </trkpt>
      <trkpt lat="37.4491586722" lon="-3.0194024183">
        <ele>1061.91</ele>
        <time>2020-09-06T19:08:50Z</time>
      </trkpt>
      <trkpt lat="37.4491352867" lon="-3.0193620175">
        <ele>1061.91</ele>
        <time>2020-09-06T19:08:51Z</time>
      </trkpt>
      <trkpt lat="37.4491081294" lon="-3.0193253048">
        <ele>1061.91</ele>
        <time>2020-09-06T19:08:52Z</time>
      </trkpt>
      <trkpt lat="37.4490765296" lon="-3.0192940403">
        <ele>1061.91</ele>
        <time>2020-09-06T19:08:53Z</time>
      </trkpt>
      <trkpt lat="37.4490415771" lon="-3.0192683917">
        <ele>1061.91</ele>
        <time>2020-09-06T19:08:54Z</time>
      </trkpt>
      <trkpt lat="37.4490043614" lon="-3.0192457605">
        <ele>1061.91</ele>
        <time>2020-09-06T19:08:55Z</time>
      </trkpt>
      <trkpt lat="37.4489680678" lon="-3.0192257278">
        <ele>1061.91</ele>
        <time>2020-09-06T19:08:56Z</time>
      </trkpt>
      <trkpt lat="37.4485917203" lon="-3.0189306010">
        <ele>1062.39</ele>
        <time>2020-09-06T19:09:07Z</time>
      </trkpt>
      <trkpt lat="37.4480090942" lon="-3.0186686665">
        <ele>1063.84</ele>
        <time>2020-09-06T19:09:23Z</time>
      </trkpt>
      <trkpt lat="37.4476314057" lon="-3.0186289363">
        <ele>1064.32</ele>
        <time>2020-09-06T19:09:33Z</time>
      </trkpt>
      <trkpt lat="37.4469477776" lon="-3.0183283612">
        <ele>1065.76</ele>
        <time>2020-09-06T19:09:49Z</time>
      </trkpt>
      <trkpt lat="37.4460305460" lon="-3.0179246049">
        <ele>1067.20</ele>
        <time>2020-09-06T19:10:10Z</time>
      </trkpt>
      <trkpt lat="37.4452876579" lon="-3.0175952800">
        <ele>1068.64</ele>
        <time>2020-09-06T19:10:27Z</time>
      </trkpt>
      <trkpt lat="37.4443336297" lon="-3.0171780288">
        <ele>1070.57</ele>
        <time>2020-09-06T19:10:49Z</time>
      </trkpt>
      <trkpt lat="37.4439267721" lon="-3.0169916153">
        <ele>1071.05</ele>
        <time>2020-09-06T19:10:58Z</time>
      </trkpt>
      <trkpt lat="37.4431382865" lon="-3.0166477058">
        <ele>1073.45</ele>
        <time>2020-09-06T19:11:15Z</time>
      </trkpt>
      <trkpt lat="37.4426805507" lon="-3.0164328776">
        <ele>1074.41</ele>
        <time>2020-09-06T19:11:25Z</time>
      </trkpt>
      <trkpt lat="37.4426339474" lon="-3.0164125096">
        <ele>1074.41</ele>
        <time>2020-09-06T19:11:26Z</time>
      </trkpt>
      <trkpt lat="37.4418525025" lon="-3.0160741322">
        <ele>1076.33</ele>
        <time>2020-09-06T19:11:43Z</time>
      </trkpt>
      <trkpt lat="37.4410670344" lon="-3.0157249421">
        <ele>1078.26</ele>
        <time>2020-09-06T19:12:00Z</time>
      </trkpt>
      <trkpt lat="37.4402750283" lon="-3.0153813679">
        <ele>1079.70</ele>
        <time>2020-09-06T19:12:17Z</time>
      </trkpt>
      <trkpt lat="37.4392832816" lon="-3.0149345286">
        <ele>1081.62</ele>
        <time>2020-09-06T19:12:39Z</time>
      </trkpt>
      <trkpt lat="37.4391459860" lon="-3.0148761068">
        <ele>1083.06</ele>
        <time>2020-09-06T19:12:42Z</time>
      </trkpt>
      <trkpt lat="37.4385104701" lon="-3.0145849194">
        <ele>1084.02</ele>
        <time>2020-09-06T19:12:56Z</time>
      </trkpt>
      <trkpt lat="37.4375333916" lon="-3.0141659919">
        <ele>1087.39</ele>
        <time>2020-09-06T19:13:17Z</time>
      </trkpt>
      <trkpt lat="37.4370172340" lon="-3.0139435362">
        <ele>1088.35</ele>
        <time>2020-09-06T19:13:28Z</time>
      </trkpt>
      <trkpt lat="37.4361595139" lon="-3.0135547835">
        <ele>1091.23</ele>
        <time>2020-09-06T19:13:46Z</time>
      </trkpt>
      <trkpt lat="37.4361108150" lon="-3.0135353375">
        <ele>1091.23</ele>
        <time>2020-09-06T19:13:47Z</time>
      </trkpt>
      <trkpt lat="37.4351371732" lon="-3.0131025799">
        <ele>1092.68</ele>
        <time>2020-09-06T19:14:08Z</time>
      </trkpt>
      <trkpt lat="37.4340951350" lon="-3.0126486160">
        <ele>1095.08</ele>
        <time>2020-09-06T19:14:30Z</time>
      </trkpt>
      <trkpt lat="37.4332679249" lon="-3.0122769624">
        <ele>1097.00</ele>
        <time>2020-09-06T19:14:47Z</time>
      </trkpt>
      <trkpt lat="37.4326295592" lon="-3.0119963363">
        <ele>1098.44</ele>
        <time>2020-09-06T19:15:00Z</time>
      </trkpt>
      <trkpt lat="37.4320714083" lon="-3.0117633194">
        <ele>1101.81</ele>
        <time>2020-09-06T19:15:11Z</time>
      </trkpt>
      <trkpt lat="37.4320212007" lon="-3.0117433704">
        <ele>1100.37</ele>
        <time>2020-09-06T19:15:12Z</time>
      </trkpt>
      <trkpt lat="37.4317601044" lon="-3.0116348248">
        <ele>1101.81</ele>
        <time>2020-09-06T19:15:17Z</time>
      </trkpt>
      <trkpt lat="37.4316615332" lon="-3.0115898140">
        <ele>1099.89</ele>
        <time>2020-09-06T19:15:19Z</time>
      </trkpt>
      <trkpt lat="37.4311205652" lon="-3.0113570485">
        <ele>1103.25</ele>
        <time>2020-09-06T19:15:30Z</time>
      </trkpt>
      <trkpt lat="37.4310686812" lon="-3.0113370158">
        <ele>1103.25</ele>
        <time>2020-09-06T19:15:31Z</time>
      </trkpt>
      <trkpt lat="37.4309134483" lon="-3.0112685356">
        <ele>1101.33</ele>
        <time>2020-09-06T19:15:34Z</time>
      </trkpt>
      <trkpt lat="37.4299403932" lon="-3.0108367000">
        <ele>1103.73</ele>
        <time>2020-09-06T19:15:53Z</time>
      </trkpt>
      <trkpt lat="37.4291437771" lon="-3.0104821455">
        <ele>1105.17</ele>
        <time>2020-09-06T19:16:09Z</time>
      </trkpt>
      <trkpt lat="37.4283762462" lon="-3.0101439357">
        <ele>1108.54</ele>
        <time>2020-09-06T19:16:27Z</time>
      </trkpt>
      <trkpt lat="37.4276687298" lon="-3.0098234117">
        <ele>1111.90</ele>
        <time>2020-09-06T19:16:46Z</time>
      </trkpt>
      <trkpt lat="37.4273562524" lon="-3.0096832663">
        <ele>1112.86</ele>
        <time>2020-09-06T19:16:54Z</time>
      </trkpt>
      <trkpt lat="37.4273180310" lon="-3.0096660834">
        <ele>1113.34</ele>
        <time>2020-09-06T19:16:55Z</time>
      </trkpt>
      <trkpt lat="37.4272805639" lon="-3.0096479785">
        <ele>1113.34</ele>
        <time>2020-09-06T19:16:56Z</time>
      </trkpt>
      <trkpt lat="37.4267483130" lon="-3.0094171409">
        <ele>1115.27</ele>
        <time>2020-09-06T19:17:10Z</time>
      </trkpt>
      <trkpt lat="37.4261399545" lon="-3.0091453157">
        <ele>1117.67</ele>
        <time>2020-09-06T19:17:25Z</time>
      </trkpt>
      <trkpt lat="37.4260966200" lon="-3.0091287196">
        <ele>1117.67</ele>
        <time>2020-09-06T19:17:26Z</time>
      </trkpt>
      <trkpt lat="37.4258223642" lon="-3.0090258736">
        <ele>1118.15</ele>
        <time>2020-09-06T19:17:32Z</time>
      </trkpt>
      <trkpt lat="37.4256196059" lon="-3.0089356005">
        <ele>1118.63</ele>
        <time>2020-09-06T19:17:37Z</time>
      </trkpt>
      <trkpt lat="37.4255799595" lon="-3.0089171603">
        <ele>1119.59</ele>
        <time>2020-09-06T19:17:38Z</time>
      </trkpt>
      <trkpt lat="37.4247860257" lon="-3.0085671321">
        <ele>1122.00</ele>
        <time>2020-09-06T19:17:57Z</time>
      </trkpt>
      <trkpt lat="37.4238983821" lon="-3.0081741046">
        <ele>1124.88</ele>
        <time>2020-09-06T19:18:18Z</time>
      </trkpt>
      <trkpt lat="37.4227565154" lon="-3.0076612998">
        <ele>1127.28</ele>
        <time>2020-09-06T19:18:44Z</time>
      </trkpt>
      <trkpt lat="37.4223176390" lon="-3.0074740481">
        <ele>1128.73</ele>
        <time>2020-09-06T19:18:54Z</time>
      </trkpt>
      <trkpt lat="37.4213413149" lon="-3.0070324894">
        <ele>1131.13</ele>
        <time>2020-09-06T19:19:16Z</time>
      </trkpt>
      <trkpt lat="37.4204158690" lon="-3.0066346843">
        <ele>1133.05</ele>
        <time>2020-09-06T19:19:37Z</time>
      </trkpt>
      <trkpt lat="37.4195225257" lon="-3.0062356219">
        <ele>1136.42</ele>
        <time>2020-09-06T19:19:57Z</time>
      </trkpt>
      <trkpt lat="37.4185402505" lon="-3.0058073904">
        <ele>1138.82</ele>
        <time>2020-09-06T19:20:19Z</time>
      </trkpt>
      <trkpt lat="37.4175176583" lon="-3.0053523369">
        <ele>1139.78</ele>
        <time>2020-09-06T19:20:40Z</time>
      </trkpt>
      <trkpt lat="37.4164468702" lon="-3.0048821960">
        <ele>1142.18</ele>
        <time>2020-09-06T19:21:02Z</time>
      </trkpt>
      <trkpt lat="37.4155608192" lon="-3.0044872407">
        <ele>1145.55</ele>
        <time>2020-09-06T19:21:22Z</time>
      </trkpt>
      <trkpt lat="37.4146502931" lon="-3.0040886812">
        <ele>1148.91</ele>
        <time>2020-09-06T19:21:43Z</time>
      </trkpt>
      <trkpt lat="37.4137663376" lon="-3.0036968272">
        <ele>1151.80</ele>
        <time>2020-09-06T19:22:04Z</time>
      </trkpt>
      <trkpt lat="37.4133685324" lon="-3.0035077315">
        <ele>1152.76</ele>
        <time>2020-09-06T19:22:16Z</time>
      </trkpt>
      <trkpt lat="37.4129295722" lon="-3.0033190548">
        <ele>1154.20</ele>
        <time>2020-09-06T19:22:28Z</time>
      </trkpt>
      <trkpt lat="37.4126138259" lon="-3.0031846929">
        <ele>1154.68</ele>
        <time>2020-09-06T19:22:36Z</time>
      </trkpt>
      <trkpt lat="37.4121008534" lon="-3.0029512569">
        <ele>1156.60</ele>
        <time>2020-09-06T19:22:48Z</time>
      </trkpt>
      <trkpt lat="37.4120567646" lon="-3.0029354151">
        <ele>1156.60</ele>
        <time>2020-09-06T19:22:49Z</time>
      </trkpt>
      <trkpt lat="37.4115439598" lon="-3.0027049966">
        <ele>1157.56</ele>
        <time>2020-09-06T19:23:01Z</time>
      </trkpt>
      <trkpt lat="37.4108801968" lon="-3.0024047568">
        <ele>1159.97</ele>
        <time>2020-09-06T19:23:17Z</time>
      </trkpt>
      <trkpt lat="37.4101699982" lon="-3.0020914413">
        <ele>1161.41</ele>
        <time>2020-09-06T19:23:34Z</time>
      </trkpt>
      <trkpt lat="37.4094855320" lon="-3.0017986614">
        <ele>1163.33</ele>
        <time>2020-09-06T19:23:50Z</time>
      </trkpt>
      <trkpt lat="37.4090236053" lon="-3.0015813187">
        <ele>1164.29</ele>
        <time>2020-09-06T19:24:01Z</time>
      </trkpt>
      <trkpt lat="37.4089800194" lon="-3.0015637167">
        <ele>1164.29</ele>
        <time>2020-09-06T19:24:02Z</time>
      </trkpt>
      <trkpt lat="37.4088943563" lon="-3.0015211366">
        <ele>1165.74</ele>
        <time>2020-09-06T19:24:04Z</time>
      </trkpt>
      <trkpt lat="37.4087294005" lon="-3.0014168657">
        <ele>1165.74</ele>
        <time>2020-09-06T19:24:08Z</time>
      </trkpt>
      <trkpt lat="37.4079651386" lon="-3.0008117761">
        <ele>1168.14</ele>
        <time>2020-09-06T19:24:29Z</time>
      </trkpt>
      <trkpt lat="37.4079294316" lon="-3.0007831939">
        <ele>1168.14</ele>
        <time>2020-09-06T19:24:30Z</time>
      </trkpt>
      <trkpt lat="37.4072727934" lon="-3.0002285633">
        <ele>1169.58</ele>
        <time>2020-09-06T19:24:48Z</time>
      </trkpt>
      <trkpt lat="37.4067006446" lon="-2.9997479450">
        <ele>1170.06</ele>
        <time>2020-09-06T19:25:02Z</time>
      </trkpt>
      <trkpt lat="37.4058387335" lon="-2.9990136903">
        <ele>1171.02</ele>
        <time>2020-09-06T19:25:22Z</time>
      </trkpt>
      <trkpt lat="37.4056809023" lon="-2.9988857824">
        <ele>1171.50</ele>
        <time>2020-09-06T19:25:26Z</time>
      </trkpt>
      <trkpt lat="37.4051158782" lon="-2.9984029010">
        <ele>1174.87</ele>
        <time>2020-09-06T19:25:42Z</time>
      </trkpt>
      <trkpt lat="37.4045355991" lon="-2.9979245458">
        <ele>1178.71</ele>
        <time>2020-09-06T19:26:00Z</time>
      </trkpt>
      <trkpt lat="37.4039423279" lon="-2.9974123277">
        <ele>1181.60</ele>
        <time>2020-09-06T19:26:19Z</time>
      </trkpt>
      <trkpt lat="37.4036549125" lon="-2.9971583560">
        <ele>1184.00</ele>
        <time>2020-09-06T19:26:28Z</time>
      </trkpt>
      <trkpt lat="37.4030189775" lon="-2.9966134485">
        <ele>1185.44</ele>
        <time>2020-09-06T19:26:47Z</time>
      </trkpt>
      <trkpt lat="37.4024268799" lon="-2.9961249512">
        <ele>1187.85</ele>
        <time>2020-09-06T19:27:05Z</time>
      </trkpt>
      <trkpt lat="37.4016350415" lon="-2.9954557400">
        <ele>1190.25</ele>
        <time>2020-09-06T19:27:29Z</time>
      </trkpt>
      <trkpt lat="37.4010196421" lon="-2.9949259199">
        <ele>1192.17</ele>
        <time>2020-09-06T19:27:47Z</time>
      </trkpt>
      <trkpt lat="37.4003272969" lon="-2.9943370912">
        <ele>1194.09</ele>
        <time>2020-09-06T19:28:06Z</time>
      </trkpt>
      <trkpt lat="37.3999500275" lon="-2.9940136336">
        <ele>1196.50</ele>
        <time>2020-09-06T19:28:16Z</time>
      </trkpt>
      <trkpt lat="37.3992752843" lon="-2.9934384674">
        <ele>1196.50</ele>
        <time>2020-09-06T19:28:34Z</time>
      </trkpt>
      <trkpt lat="37.3990281858" lon="-2.9930861760">
        <ele>1197.46</ele>
        <time>2020-09-06T19:28:47Z</time>
      </trkpt>
      <trkpt lat="37.3990111705" lon="-2.9930105712">
        <ele>1197.94</ele>
        <time>2020-09-06T19:28:56Z</time>
      </trkpt>
      <trkpt lat="37.3990213964" lon="-2.9930033628">
        <ele>1197.94</ele>
        <time>2020-09-06T19:29:00Z</time>
      </trkpt>
      <trkpt lat="37.3990321252" lon="-2.9929985013">
        <ele>1197.94</ele>
        <time>2020-09-06T19:29:01Z</time>
      </trkpt>
      <trkpt lat="37.3990467098" lon="-2.9930063803">
        <ele>1197.94</ele>
        <time>2020-09-06T19:29:02Z</time>
      </trkpt>
      <trkpt lat="37.3990587797" lon="-2.9930233955">
        <ele>1197.94</ele>
        <time>2020-09-06T19:29:03Z</time>
      </trkpt>
      <trkpt lat="37.3990644794" lon="-2.9930564202">
        <ele>1197.94</ele>
        <time>2020-09-06T19:29:04Z</time>
      </trkpt>
      <trkpt lat="37.3990633059" lon="-2.9930850863">
        <ele>1197.94</ele>
        <time>2020-09-06T19:29:05Z</time>
      </trkpt>
      <trkpt lat="37.3990591988" lon="-2.9931058735">
        <ele>1197.94</ele>
        <time>2020-09-06T19:29:06Z</time>
      </trkpt>
      <trkpt lat="37.3990467936" lon="-2.9931337852">
        <ele>1197.94</ele>
        <time>2020-09-06T19:29:07Z</time>
      </trkpt>
      <trkpt lat="37.3990229052" lon="-2.9931528959">
        <ele>1197.94</ele>
        <time>2020-09-06T19:29:08Z</time>
      </trkpt>
      <trkpt lat="37.3989926465" lon="-2.9931535665">
        <ele>1197.94</ele>
        <time>2020-09-06T19:29:09Z</time>
      </trkpt>
      <trkpt lat="37.3989641480" lon="-2.9931392334">
        <ele>1197.94</ele>
        <time>2020-09-06T19:29:10Z</time>
      </trkpt>
      <trkpt lat="37.3989399243" lon="-2.9931211285">
        <ele>1197.94</ele>
        <time>2020-09-06T19:29:11Z</time>
      </trkpt>
      <trkpt lat="37.3989201430" lon="-2.9931061249">
        <ele>1198.42</ele>
        <time>2020-09-06T19:29:12Z</time>
      </trkpt>
      <trkpt lat="37.3986750562" lon="-2.9929031152">
        <ele>1201.79</ele>
        <time>2020-09-06T19:29:23Z</time>
      </trkpt>
      <trkpt lat="37.3983339127" lon="-2.9925757181">
        <ele>1205.15</ele>
        <time>2020-09-06T19:29:38Z</time>
      </trkpt>
      <trkpt lat="37.3979592416" lon="-2.9921567906">
        <ele>1205.15</ele>
        <time>2020-09-06T19:29:52Z</time>
      </trkpt>
      <trkpt lat="37.3978080321" lon="-2.9919855483">
        <ele>1206.11</ele>
        <time>2020-09-06T19:29:57Z</time>
      </trkpt>
      <trkpt lat="37.3977746721" lon="-2.9919501767">
        <ele>1206.11</ele>
        <time>2020-09-06T19:29:58Z</time>
      </trkpt>
      <trkpt lat="37.3973445129" lon="-2.9912665486">
        <ele>1206.59</ele>
        <time>2020-09-06T19:30:12Z</time>
      </trkpt>
      <trkpt lat="37.3972968198" lon="-2.9910396505">
        <ele>1206.59</ele>
        <time>2020-09-06T19:30:16Z</time>
      </trkpt>
      <trkpt lat="37.3972893599" lon="-2.9908421729">
        <ele>1205.15</ele>
        <time>2020-09-06T19:30:19Z</time>
      </trkpt>
      <trkpt lat="37.3972950596" lon="-2.9907749500">
        <ele>1205.15</ele>
        <time>2020-09-06T19:30:20Z</time>
      </trkpt>
      <trkpt lat="37.3973642103" lon="-2.9904379975">
        <ele>1204.67</ele>
        <time>2020-09-06T19:30:25Z</time>
      </trkpt>
      <trkpt lat="37.3975511268" lon="-2.9900254402">
        <ele>1203.71</ele>
        <time>2020-09-06T19:30:35Z</time>
      </trkpt>
      <trkpt lat="37.3975470196" lon="-2.9900111072">
        <ele>1203.71</ele>
        <time>2020-09-06T19:30:36Z</time>
      </trkpt>
      <trkpt lat="37.3975331057" lon="-2.9900132027">
        <ele>1203.71</ele>
        <time>2020-09-06T19:30:54Z</time>
      </trkpt>
      <trkpt lat="37.3975345306" lon="-2.9899995402">
        <ele>1203.71</ele>
        <time>2020-09-06T19:31:17Z</time>
      </trkpt>
      <trkpt lat="37.3975226283" lon="-2.9900074191">
        <ele>1203.23</ele>
        <time>2020-09-06T19:31:45Z</time>
      </trkpt>
      <trkpt lat="37.3975168448" lon="-2.9900033120">
        <ele>1203.23</ele>
        <time>2020-09-06T19:32:13Z</time>
      </trkpt>
      <trkpt lat="37.3974952195" lon="-2.9900142085">
        <ele>1204.67</ele>
        <time>2020-09-06T19:32:28Z</time>
      </trkpt>
      <trkpt lat="37.3974785395" lon="-2.9900160525">
        <ele>1204.67</ele>
        <time>2020-09-06T19:32:29Z</time>
      </trkpt>
      <trkpt lat="37.3974584229" lon="-2.9900254402">
        <ele>1204.67</ele>
        <time>2020-09-06T19:32:30Z</time>
      </trkpt>
      <trkpt lat="37.3974377196" lon="-2.9900412820">
        <ele>1204.67</ele>
        <time>2020-09-06T19:32:31Z</time>
      </trkpt>
      <trkpt lat="37.3974221293" lon="-2.9900566209">
        <ele>1204.67</ele>
        <time>2020-09-06T19:32:32Z</time>
      </trkpt>
      <trkpt lat="37.3974051978" lon="-2.9900773242">
        <ele>1204.67</ele>
        <time>2020-09-06T19:32:33Z</time>
      </trkpt>
      <trkpt lat="37.3973918706" lon="-2.9901016317">
        <ele>1204.67</ele>
        <time>2020-09-06T19:32:34Z</time>
      </trkpt>
      <trkpt lat="37.3973806389" lon="-2.9901281185">
        <ele>1204.67</ele>
        <time>2020-09-06T19:32:35Z</time>
      </trkpt>
      <trkpt lat="37.3971908726" lon="-2.9907309450">
        <ele>1205.15</ele>
        <time>2020-09-06T19:32:52Z</time>
      </trkpt>
      <trkpt lat="37.3972355481" lon="-2.9913299996">
        <ele>1203.71</ele>
        <time>2020-09-06T19:33:04Z</time>
      </trkpt>
      <trkpt lat="37.3973087221" lon="-2.9915349372">
        <ele>1203.23</ele>
        <time>2020-09-06T19:33:08Z</time>
      </trkpt>
      <trkpt lat="37.3973339517" lon="-2.9915845580">
        <ele>1203.23</ele>
        <time>2020-09-06T19:33:09Z</time>
      </trkpt>
      <trkpt lat="37.3974046949" lon="-2.9917415511">
        <ele>1203.23</ele>
        <time>2020-09-06T19:33:12Z</time>
      </trkpt>
      <trkpt lat="37.3974296730" lon="-2.9917937703">
        <ele>1202.75</ele>
        <time>2020-09-06T19:33:13Z</time>
      </trkpt>
      <trkpt lat="37.3974549025" lon="-2.9918469116">
        <ele>1202.75</ele>
        <time>2020-09-06T19:33:14Z</time>
      </trkpt>
      <trkpt lat="37.3974805512" lon="-2.9919015616">
        <ele>1202.75</ele>
        <time>2020-09-06T19:33:15Z</time>
      </trkpt>
      <trkpt lat="37.3975037690" lon="-2.9919603188">
        <ele>1202.75</ele>
        <time>2020-09-06T19:33:16Z</time>
      </trkpt>
      <trkpt lat="37.3975389730" lon="-2.9920813534">
        <ele>1202.27</ele>
        <time>2020-09-06T19:33:18Z</time>
      </trkpt>
      <trkpt lat="37.3975393921" lon="-2.9921468999">
        <ele>1202.27</ele>
        <time>2020-09-06T19:33:19Z</time>
      </trkpt>
      <trkpt lat="37.3975253943" lon="-2.9922118597">
        <ele>1202.27</ele>
        <time>2020-09-06T19:33:20Z</time>
      </trkpt>
      <trkpt lat="37.3975001648" lon="-2.9922728799">
        <ele>1201.79</ele>
        <time>2020-09-06T19:33:21Z</time>
      </trkpt>
      <trkpt lat="37.3974658828" lon="-2.9923271947">
        <ele>1201.79</ele>
        <time>2020-09-06T19:33:22Z</time>
      </trkpt>
      <trkpt lat="37.3974242248" lon="-2.9923806712">
        <ele>1201.30</ele>
        <time>2020-09-06T19:33:23Z</time>
      </trkpt>
      <trkpt lat="37.3973758612" lon="-2.9924312979">
        <ele>1201.30</ele>
        <time>2020-09-06T19:33:24Z</time>
      </trkpt>
      <trkpt lat="37.3972731829" lon="-2.9925245885">
        <ele>1200.34</ele>
        <time>2020-09-06T19:33:26Z</time>
      </trkpt>
      <trkpt lat="37.3972143419" lon="-2.9925510753">
        <ele>1200.34</ele>
        <time>2020-09-06T19:33:27Z</time>
      </trkpt>
      <trkpt lat="37.3971529026" lon="-2.9925564397">
        <ele>1199.86</ele>
        <time>2020-09-06T19:33:28Z</time>
      </trkpt>
      <trkpt lat="37.3970944807" lon="-2.9925478064">
        <ele>1199.86</ele>
        <time>2020-09-06T19:33:29Z</time>
      </trkpt>
      <trkpt lat="37.3970402498" lon="-2.9925305396">
        <ele>1199.86</ele>
        <time>2020-09-06T19:33:30Z</time>
      </trkpt>
      <trkpt lat="37.3969884496" lon="-2.9925104231">
        <ele>1199.86</ele>
        <time>2020-09-06T19:33:31Z</time>
      </trkpt>
      <trkpt lat="37.3969404213" lon="-2.9924867023">
        <ele>1199.86</ele>
        <time>2020-09-06T19:33:32Z</time>
      </trkpt>
      <trkpt lat="37.3968943208" lon="-2.9924593773">
        <ele>1199.86</ele>
        <time>2020-09-06T19:33:33Z</time>
      </trkpt>
      <trkpt lat="37.3967667483" lon="-2.9923714511">
        <ele>1199.86</ele>
        <time>2020-09-06T19:33:36Z</time>
      </trkpt>
      <trkpt lat="37.3964559473" lon="-2.9921598081">
        <ele>1201.30</ele>
        <time>2020-09-06T19:33:44Z</time>
      </trkpt>
      <trkpt lat="37.3957746662" lon="-2.9915347695">
        <ele>1204.19</ele>
        <time>2020-09-06T19:34:05Z</time>
      </trkpt>
      <trkpt lat="37.3953403998" lon="-2.9909908678">
        <ele>1204.67</ele>
        <time>2020-09-06T19:34:21Z</time>
      </trkpt>
      <trkpt lat="37.3952074628" lon="-2.9908166081">
        <ele>1206.11</ele>
        <time>2020-09-06T19:34:26Z</time>
      </trkpt>
      <trkpt lat="37.3948929738" lon="-2.9901830200">
        <ele>1207.55</ele>
        <time>2020-09-06T19:34:42Z</time>
      </trkpt>
      <trkpt lat="37.3946541734" lon="-2.9895754158">
        <ele>1209.00</ele>
        <time>2020-09-06T19:34:57Z</time>
      </trkpt>
      <trkpt lat="37.3943093419" lon="-2.9889390618">
        <ele>1211.40</ele>
        <time>2020-09-06T19:35:14Z</time>
      </trkpt>
      <trkpt lat="37.3938733991" lon="-2.9881687649">
        <ele>1212.36</ele>
        <time>2020-09-06T19:35:34Z</time>
      </trkpt>
      <trkpt lat="37.3934859037" lon="-2.9877621587">
        <ele>1213.80</ele>
        <time>2020-09-06T19:35:47Z</time>
      </trkpt>
      <trkpt lat="37.3934440780" lon="-2.9877513461">
        <ele>1213.80</ele>
        <time>2020-09-06T19:35:48Z</time>
      </trkpt>
      <trkpt lat="37.3932483606" lon="-2.9876751546">
        <ele>1211.88</ele>
        <time>2020-09-06T19:35:52Z</time>
      </trkpt>
      <trkpt lat="37.3931923695" lon="-2.9876431357">
        <ele>1211.88</ele>
        <time>2020-09-06T19:35:53Z</time>
      </trkpt>
      <trkpt lat="37.3929896113" lon="-2.9875328299">
        <ele>1209.96</ele>
        <time>2020-09-06T19:35:57Z</time>
      </trkpt>
      <trkpt lat="37.3928794730" lon="-2.9874863941">
        <ele>1209.96</ele>
        <time>2020-09-06T19:35:59Z</time>
      </trkpt>
      <trkpt lat="37.3928218056" lon="-2.9874646850">
        <ele>1209.00</ele>
        <time>2020-09-06T19:36:00Z</time>
      </trkpt>
      <trkpt lat="37.3927658983" lon="-2.9874392878">
        <ele>1209.00</ele>
        <time>2020-09-06T19:36:01Z</time>
      </trkpt>
      <trkpt lat="37.3927063029" lon="-2.9874060955">
        <ele>1208.03</ele>
        <time>2020-09-06T19:36:02Z</time>
      </trkpt>
      <trkpt lat="37.3926465400" lon="-2.9873718135">
        <ele>1208.03</ele>
        <time>2020-09-06T19:36:03Z</time>
      </trkpt>
      <trkpt lat="37.3924654908" lon="-2.9872786906">
        <ele>1207.55</ele>
        <time>2020-09-06T19:36:06Z</time>
      </trkpt>
      <trkpt lat="37.3924039677" lon="-2.9872622620">
        <ele>1207.55</ele>
        <time>2020-09-06T19:36:07Z</time>
      </trkpt>
      <trkpt lat="37.3920598906" lon="-2.9872297402">
        <ele>1207.07</ele>
        <time>2020-09-06T19:36:13Z</time>
      </trkpt>
      <trkpt lat="37.3919588048" lon="-2.9872402176">
        <ele>1207.07</ele>
        <time>2020-09-06T19:36:15Z</time>
      </trkpt>
      <trkpt lat="37.3915587366" lon="-2.9872027505">
        <ele>1203.71</ele>
        <time>2020-09-06T19:36:23Z</time>
      </trkpt>
      <trkpt lat="37.3913375381" lon="-2.9872430675">
        <ele>1199.86</ele>
        <time>2020-09-06T19:36:30Z</time>
      </trkpt>
      <trkpt lat="37.3913069442" lon="-2.9872537125">
        <ele>1199.86</ele>
        <time>2020-09-06T19:36:31Z</time>
      </trkpt>
      <trkpt lat="37.3911514599" lon="-2.9873285629">
        <ele>1197.46</ele>
        <time>2020-09-06T19:36:35Z</time>
      </trkpt>
      <trkpt lat="37.3909471929" lon="-2.9874773417">
        <ele>1195.06</ele>
        <time>2020-09-06T19:36:40Z</time>
      </trkpt>
      <trkpt lat="37.3909136653" lon="-2.9875160661">
        <ele>1194.58</ele>
        <time>2020-09-06T19:36:41Z</time>
      </trkpt>
      <trkpt lat="37.3908781260" lon="-2.9875623342">
        <ele>1194.09</ele>
        <time>2020-09-06T19:36:42Z</time>
      </trkpt>
      <trkpt lat="37.3908429220" lon="-2.9876095243">
        <ele>1194.09</ele>
        <time>2020-09-06T19:36:43Z</time>
      </trkpt>
      <trkpt lat="37.3908064608" lon="-2.9876602348">
        <ele>1193.13</ele>
        <time>2020-09-06T19:36:44Z</time>
      </trkpt>
      <trkpt lat="37.3907670658" lon="-2.9877091851">
        <ele>1193.13</ele>
        <time>2020-09-06T19:36:45Z</time>
      </trkpt>
      <trkpt lat="37.3906524014" lon="-2.9878326505">
        <ele>1192.17</ele>
        <time>2020-09-06T19:36:48Z</time>
      </trkpt>
      <trkpt lat="37.3905106634" lon="-2.9880090896">
        <ele>1189.29</ele>
        <time>2020-09-06T19:36:52Z</time>
      </trkpt>
      <trkpt lat="37.3904741183" lon="-2.9880522564">
        <ele>1188.81</ele>
        <time>2020-09-06T19:36:53Z</time>
      </trkpt>
      <trkpt lat="37.3904307000" lon="-2.9880895559">
        <ele>1187.85</ele>
        <time>2020-09-06T19:36:54Z</time>
      </trkpt>
      <trkpt lat="37.3903818335" lon="-2.9881169647">
        <ele>1187.37</ele>
        <time>2020-09-06T19:36:55Z</time>
      </trkpt>
      <trkpt lat="37.3903271835" lon="-2.9881320521">
        <ele>1187.37</ele>
        <time>2020-09-06T19:36:56Z</time>
      </trkpt>
      <trkpt lat="37.3902732041" lon="-2.9881373327">
        <ele>1186.40</ele>
        <time>2020-09-06T19:36:57Z</time>
      </trkpt>
      <trkpt lat="37.3902126867" lon="-2.9881359078">
        <ele>1185.44</ele>
        <time>2020-09-06T19:36:58Z</time>
      </trkpt>
      <trkpt lat="37.3901514988" lon="-2.9881266039">
        <ele>1184.96</ele>
        <time>2020-09-06T19:36:59Z</time>
      </trkpt>
      <trkpt lat="37.3900876287" lon="-2.9881057329">
        <ele>1184.48</ele>
        <time>2020-09-06T19:37:00Z</time>
      </trkpt>
      <trkpt lat="37.3900250997" lon="-2.9880746361">
        <ele>1184.48</ele>
        <time>2020-09-06T19:37:01Z</time>
      </trkpt>
      <trkpt lat="37.3899674322" lon="-2.9880347382">
        <ele>1183.04</ele>
        <time>2020-09-06T19:37:02Z</time>
      </trkpt>
      <trkpt lat="37.3899145424" lon="-2.9879855365">
        <ele>1183.04</ele>
        <time>2020-09-06T19:37:03Z</time>
      </trkpt>
      <trkpt lat="37.3898671009" lon="-2.9879290424">
        <ele>1182.08</ele>
        <time>2020-09-06T19:37:04Z</time>
      </trkpt>
      <trkpt lat="37.3898235150" lon="-2.9878667649">
        <ele>1182.08</ele>
        <time>2020-09-06T19:37:05Z</time>
      </trkpt>
      <trkpt lat="37.3894788511" lon="-2.9873617552">
        <ele>1179.67</ele>
        <time>2020-09-06T19:37:13Z</time>
      </trkpt>
      <trkpt lat="37.3894288111" lon="-2.9873324186">
        <ele>1179.19</ele>
        <time>2020-09-06T19:37:14Z</time>
      </trkpt>
      <trkpt lat="37.3893734068" lon="-2.9873141460">
        <ele>1178.71</ele>
        <time>2020-09-06T19:37:15Z</time>
      </trkpt>
      <trkpt lat="37.3893172480" lon="-2.9873032495">
        <ele>1178.71</ele>
        <time>2020-09-06T19:37:16Z</time>
      </trkpt>
      <trkpt lat="37.3892572336" lon="-2.9872975498">
        <ele>1178.71</ele>
        <time>2020-09-06T19:37:17Z</time>
      </trkpt>
      <trkpt lat="37.3891961295" lon="-2.9873022437">
        <ele>1177.75</ele>
        <time>2020-09-06T19:37:18Z</time>
      </trkpt>
      <trkpt lat="37.3891314212" lon="-2.9873081110">
        <ele>1177.75</ele>
        <time>2020-09-06T19:37:19Z</time>
      </trkpt>
      <trkpt lat="37.3890698981" lon="-2.9873092007">
        <ele>1177.27</ele>
        <time>2020-09-06T19:37:20Z</time>
      </trkpt>
      <trkpt lat="37.3882283550" lon="-2.9872357752">
        <ele>1173.91</ele>
        <time>2020-09-06T19:37:33Z</time>
      </trkpt>
      <trkpt lat="37.3876715451" lon="-2.9871347733">
        <ele>1172.95</ele>
        <time>2020-09-06T19:37:42Z</time>
      </trkpt>
      <trkpt lat="37.3876135424" lon="-2.9871105496">
        <ele>1172.95</ele>
        <time>2020-09-06T19:37:43Z</time>
      </trkpt>
      <trkpt lat="37.3873868119" lon="-2.9870009981">
        <ele>1170.06</ele>
        <time>2020-09-06T19:37:47Z</time>
      </trkpt>
      <trkpt lat="37.3873311561" lon="-2.9869761877">
        <ele>1170.06</ele>
        <time>2020-09-06T19:37:48Z</time>
      </trkpt>
      <trkpt lat="37.3872819543" lon="-2.9869525507">
        <ele>1169.10</ele>
        <time>2020-09-06T19:37:49Z</time>
      </trkpt>
      <trkpt lat="37.3872288130" lon="-2.9869231302">
        <ele>1169.10</ele>
        <time>2020-09-06T19:37:50Z</time>
      </trkpt>
      <trkpt lat="37.3871796113" lon="-2.9868876748">
        <ele>1168.62</ele>
        <time>2020-09-06T19:37:51Z</time>
      </trkpt>
      <trkpt lat="37.3871301580" lon="-2.9868450947">
        <ele>1167.66</ele>
        <time>2020-09-06T19:37:52Z</time>
      </trkpt>
      <trkpt lat="37.3870812915" lon="-2.9867990781">
        <ele>1167.66</ele>
        <time>2020-09-06T19:37:53Z</time>
      </trkpt>
      <trkpt lat="37.3869302496" lon="-2.9866751097">
        <ele>1166.70</ele>
        <time>2020-09-06T19:37:56Z</time>
      </trkpt>
      <trkpt lat="37.3868735880" lon="-2.9866492935">
        <ele>1166.70</ele>
        <time>2020-09-06T19:37:57Z</time>
      </trkpt>
      <trkpt lat="37.3867689818" lon="-2.9866145086">
        <ele>1166.70</ele>
        <time>2020-09-06T19:37:59Z</time>
      </trkpt>
      <trkpt lat="37.3864252400" lon="-2.9864618741">
        <ele>1167.18</ele>
        <time>2020-09-06T19:38:06Z</time>
      </trkpt>
      <trkpt lat="37.3863728531" lon="-2.9864454456">
        <ele>1167.18</ele>
        <time>2020-09-06T19:38:07Z</time>
      </trkpt>
      <trkpt lat="37.3861288559" lon="-2.9863771331">
        <ele>1167.18</ele>
        <time>2020-09-06T19:38:12Z</time>
      </trkpt>
      <trkpt lat="37.3860854376" lon="-2.9863564298">
        <ele>1167.18</ele>
        <time>2020-09-06T19:38:13Z</time>
      </trkpt>
      <trkpt lat="37.3859991878" lon="-2.9863146879">
        <ele>1166.70</ele>
        <time>2020-09-06T19:38:15Z</time>
      </trkpt>
      <trkpt lat="37.3859572783" lon="-2.9862871952">
        <ele>1166.22</ele>
        <time>2020-09-06T19:38:16Z</time>
      </trkpt>
      <trkpt lat="37.3859105911" lon="-2.9862583615">
        <ele>1165.74</ele>
        <time>2020-09-06T19:38:17Z</time>
      </trkpt>
      <trkpt lat="37.3858568631" lon="-2.9862346407">
        <ele>1164.77</ele>
        <time>2020-09-06T19:38:18Z</time>
      </trkpt>
      <trkpt lat="37.3857915681" lon="-2.9862105008">
        <ele>1164.29</ele>
        <time>2020-09-06T19:38:19Z</time>
      </trkpt>
      <trkpt lat="37.3857323918" lon="-2.9861851037">
        <ele>1164.29</ele>
        <time>2020-09-06T19:38:20Z</time>
      </trkpt>
      <trkpt lat="37.3855457269" lon="-2.9861053918">
        <ele>1162.85</ele>
        <time>2020-09-06T19:38:23Z</time>
      </trkpt>
      <trkpt lat="37.3854843713" lon="-2.9860955011">
        <ele>1162.85</ele>
        <time>2020-09-06T19:38:24Z</time>
      </trkpt>
      <trkpt lat="37.3854277935" lon="-2.9860919807">
        <ele>1162.85</ele>
        <time>2020-09-06T19:38:25Z</time>
      </trkpt>
      <trkpt lat="37.3853132129" lon="-2.9860937409">
        <ele>1162.85</ele>
        <time>2020-09-06T19:38:27Z</time>
      </trkpt>
      <trkpt lat="37.3851490952" lon="-2.9861206468">
        <ele>1162.85</ele>
        <time>2020-09-06T19:38:30Z</time>
      </trkpt>
      <trkpt lat="37.3849160783" lon="-2.9861907195">
        <ele>1162.37</ele>
        <time>2020-09-06T19:38:34Z</time>
      </trkpt>
      <trkpt lat="37.3848515376" lon="-2.9861991853">
        <ele>1161.89</ele>
        <time>2020-09-06T19:38:35Z</time>
      </trkpt>
      <trkpt lat="37.3847828060" lon="-2.9862001073">
        <ele>1161.41</ele>
        <time>2020-09-06T19:38:36Z</time>
      </trkpt>
      <trkpt lat="37.3847141583" lon="-2.9861922283">
        <ele>1160.45</ele>
        <time>2020-09-06T19:38:37Z</time>
      </trkpt>
      <trkpt lat="37.3846478574" lon="-2.9861778114">
        <ele>1160.45</ele>
        <time>2020-09-06T19:38:38Z</time>
      </trkpt>
      <trkpt lat="37.3845833167" lon="-2.9861561023">
        <ele>1159.49</ele>
        <time>2020-09-06T19:38:39Z</time>
      </trkpt>
      <trkpt lat="37.3845174350" lon="-2.9861320462">
        <ele>1159.49</ele>
        <time>2020-09-06T19:38:40Z</time>
      </trkpt>
      <trkpt lat="37.3842858430" lon="-2.9860431142">
        <ele>1156.12</ele>
        <time>2020-09-06T19:38:44Z</time>
      </trkpt>
      <trkpt lat="37.3842425924" lon="-2.9860277753">
        <ele>1156.12</ele>
        <time>2020-09-06T19:38:45Z</time>
      </trkpt>
      <trkpt lat="37.3835124448" lon="-2.9859099258">
        <ele>1154.68</ele>
        <time>2020-09-06T19:38:59Z</time>
      </trkpt>
      <trkpt lat="37.3833044898" lon="-2.9858727101">
        <ele>1154.68</ele>
        <time>2020-09-06T19:39:03Z</time>
      </trkpt>
      <trkpt lat="37.3830712214" lon="-2.9858064093">
        <ele>1154.68</ele>
        <time>2020-09-06T19:39:08Z</time>
      </trkpt>
      <trkpt lat="37.3830267973" lon="-2.9857806768">
        <ele>1154.68</ele>
        <time>2020-09-06T19:39:09Z</time>
      </trkpt>
      <trkpt lat="37.3825124837" lon="-2.9854955245">
        <ele>1156.12</ele>
        <time>2020-09-06T19:39:20Z</time>
      </trkpt>
      <trkpt lat="37.3822793830" lon="-2.9853954446">
        <ele>1156.12</ele>
        <time>2020-09-06T19:39:25Z</time>
      </trkpt>
      <trkpt lat="37.3820143472" lon="-2.9851063527">
        <ele>1156.60</ele>
        <time>2020-09-06T19:39:32Z</time>
      </trkpt>
      <trkpt lat="37.3819749523" lon="-2.9850682151">
        <ele>1156.60</ele>
        <time>2020-09-06T19:39:33Z</time>
      </trkpt>
      <trkpt lat="37.3819363955" lon="-2.9850294068">
        <ele>1156.60</ele>
        <time>2020-09-06T19:39:34Z</time>
      </trkpt>
      <trkpt lat="37.3814823478" lon="-2.9845419992">
        <ele>1157.56</ele>
        <time>2020-09-06T19:39:46Z</time>
      </trkpt>
      <trkpt lat="37.3807596602" lon="-2.9839394242">
        <ele>1158.53</ele>
        <time>2020-09-06T19:40:04Z</time>
      </trkpt>
      <trkpt lat="37.3805151600" lon="-2.9837567825">
        <ele>1159.01</ele>
        <time>2020-09-06T19:40:10Z</time>
      </trkpt>
      <trkpt lat="37.3804710712" lon="-2.9837345704">
        <ele>1159.01</ele>
        <time>2020-09-06T19:40:11Z</time>
      </trkpt>
      <trkpt lat="37.3804277368" lon="-2.9837121069">
        <ele>1159.01</ele>
        <time>2020-09-06T19:40:12Z</time>
      </trkpt>
      <trkpt lat="37.3803876713" lon="-2.9836862069">
        <ele>1159.01</ele>
        <time>2020-09-06T19:40:13Z</time>
      </trkpt>
      <trkpt lat="37.3803524673" lon="-2.9836564511">
        <ele>1159.01</ele>
        <time>2020-09-06T19:40:14Z</time>
      </trkpt>
      <trkpt lat="37.3803212028" lon="-2.9836235940">
        <ele>1159.49</ele>
        <time>2020-09-06T19:40:15Z</time>
      </trkpt>
      <trkpt lat="37.3802895192" lon="-2.9835896473">
        <ele>1159.49</ele>
        <time>2020-09-06T19:40:16Z</time>
      </trkpt>
      <trkpt lat="37.3800319433" lon="-2.9833336640">
        <ele>1159.97</ele>
        <time>2020-09-06T19:40:23Z</time>
      </trkpt>
      <trkpt lat="37.3800052889" lon="-2.9832972027">
        <ele>1159.97</ele>
        <time>2020-09-06T19:40:24Z</time>
      </trkpt>
      <trkpt lat="37.3799798079" lon="-2.9832522757">
        <ele>1159.97</ele>
        <time>2020-09-06T19:40:25Z</time>
      </trkpt>
      <trkpt lat="37.3799595237" lon="-2.9832043312">
        <ele>1160.45</ele>
        <time>2020-09-06T19:40:26Z</time>
      </trkpt>
      <trkpt lat="37.3799428437" lon="-2.9831541236">
        <ele>1160.45</ele>
        <time>2020-09-06T19:40:27Z</time>
      </trkpt>
      <trkpt lat="37.3797967471" lon="-2.9826914426">
        <ele>1160.45</ele>
        <time>2020-09-06T19:40:35Z</time>
      </trkpt>
      <trkpt lat="37.3796503991" lon="-2.9824467748">
        <ele>1160.45</ele>
        <time>2020-09-06T19:40:40Z</time>
      </trkpt>
      <trkpt lat="37.3790032323" lon="-2.9817786533">
        <ele>1161.41</ele>
        <time>2020-09-06T19:40:58Z</time>
      </trkpt>
      <trkpt lat="37.3786237836" lon="-2.9812776670">
        <ele>1162.37</ele>
        <time>2020-09-06T19:41:10Z</time>
      </trkpt>
      <trkpt lat="37.3783260584" lon="-2.9808000661">
        <ele>1163.33</ele>
        <time>2020-09-06T19:41:21Z</time>
      </trkpt>
      <trkpt lat="37.3781637009" lon="-2.9806166701">
        <ele>1163.33</ele>
        <time>2020-09-06T19:41:26Z</time>
      </trkpt>
      <trkpt lat="37.3779785447" lon="-2.9804357048">
        <ele>1164.77</ele>
        <time>2020-09-06T19:41:31Z</time>
      </trkpt>
      <trkpt lat="37.3778953962" lon="-2.9803627823">
        <ele>1163.33</ele>
        <time>2020-09-06T19:41:33Z</time>
      </trkpt>
      <trkpt lat="37.3773392569" lon="-2.9797307029">
        <ele>1164.29</ele>
        <time>2020-09-06T19:41:49Z</time>
      </trkpt>
      <trkpt lat="37.3767894879" lon="-2.9793347418">
        <ele>1165.74</ele>
        <time>2020-09-06T19:42:04Z</time>
      </trkpt>
      <trkpt lat="37.3764227796" lon="-2.9788738210">
        <ele>1167.18</ele>
        <time>2020-09-06T19:42:17Z</time>
      </trkpt>
      <trkpt lat="37.3763935268" lon="-2.9788375273">
        <ele>1167.18</ele>
        <time>2020-09-06T19:42:18Z</time>
      </trkpt>
      <trkpt lat="37.3759727553" lon="-2.9784764349">
        <ele>1167.66</ele>
        <time>2020-09-06T19:42:32Z</time>
      </trkpt>
      <trkpt lat="37.3757863417" lon="-2.9780815635">
        <ele>1167.18</ele>
        <time>2020-09-06T19:42:43Z</time>
      </trkpt>
      <trkpt lat="37.3757951427" lon="-2.9779778793">
        <ele>1169.58</ele>
        <time>2020-09-06T19:42:45Z</time>
      </trkpt>
      <trkpt lat="37.3755964916" lon="-2.9776716884">
        <ele>1169.58</ele>
        <time>2020-09-06T19:42:54Z</time>
      </trkpt>
      <trkpt lat="37.3752718605" lon="-2.9775760509">
        <ele>1171.98</ele>
        <time>2020-09-06T19:43:07Z</time>
      </trkpt>
      <trkpt lat="37.3748570401" lon="-2.9774082452">
        <ele>1173.91</ele>
        <time>2020-09-06T19:43:23Z</time>
      </trkpt>
      <trkpt lat="37.3745185789" lon="-2.9772545211">
        <ele>1175.35</ele>
        <time>2020-09-06T19:43:36Z</time>
      </trkpt>
      <trkpt lat="37.3741988093" lon="-2.9771270324">
        <ele>1177.27</ele>
        <time>2020-09-06T19:43:49Z</time>
      </trkpt>
      <trkpt lat="37.3739533033" lon="-2.9769606516">
        <ele>1179.67</ele>
        <time>2020-09-06T19:44:00Z</time>
      </trkpt>
      <trkpt lat="37.3737466056" lon="-2.9767938517">
        <ele>1182.08</ele>
        <time>2020-09-06T19:44:12Z</time>
      </trkpt>
      <trkpt lat="37.3737283330" lon="-2.9767753277">
        <ele>1182.08</ele>
        <time>2020-09-06T19:44:13Z</time>
      </trkpt>
      <trkpt lat="37.3735345434" lon="-2.9765242059">
        <ele>1181.12</ele>
        <time>2020-09-06T19:44:25Z</time>
      </trkpt>
      <trkpt lat="37.3734969087" lon="-2.9764817096">
        <ele>1184.00</ele>
        <time>2020-09-06T19:44:27Z</time>
      </trkpt>
      <trkpt lat="37.3733463697" lon="-2.9763030075">
        <ele>1184.96</ele>
        <time>2020-09-06T19:44:35Z</time>
      </trkpt>
      <trkpt lat="37.3731007800" lon="-2.9760927055">
        <ele>1187.37</ele>
        <time>2020-09-06T19:44:47Z</time>
      </trkpt>
      <trkpt lat="37.3727588821" lon="-2.9758139234">
        <ele>1190.25</ele>
        <time>2020-09-06T19:45:04Z</time>
      </trkpt>
      <trkpt lat="37.3725185730" lon="-2.9755243286">
        <ele>1191.69</ele>
        <time>2020-09-06T19:45:18Z</time>
      </trkpt>
      <trkpt lat="37.3723583110" lon="-2.9751426168">
        <ele>1194.09</ele>
        <time>2020-09-06T19:45:32Z</time>
      </trkpt>
      <trkpt lat="37.3722183332" lon="-2.9745460767">
        <ele>1197.46</ele>
        <time>2020-09-06T19:45:51Z</time>
      </trkpt>
      <trkpt lat="37.3720340990" lon="-2.9741609283">
        <ele>1199.86</ele>
        <time>2020-09-06T19:46:06Z</time>
      </trkpt>
      <trkpt lat="37.3718359508" lon="-2.9737897776">
        <ele>1202.75</ele>
        <time>2020-09-06T19:46:22Z</time>
      </trkpt>
      <trkpt lat="37.3716992419" lon="-2.9734352231">
        <ele>1206.11</ele>
        <time>2020-09-06T19:46:36Z</time>
      </trkpt>
      <trkpt lat="37.3715884332" lon="-2.9730231687">
        <ele>1208.03</ele>
        <time>2020-09-06T19:46:50Z</time>
      </trkpt>
      <trkpt lat="37.3713959847" lon="-2.9727833625">
        <ele>1211.40</ele>
        <time>2020-09-06T19:47:03Z</time>
      </trkpt>
      <trkpt lat="37.3713593557" lon="-2.9727580491">
        <ele>1211.40</ele>
        <time>2020-09-06T19:47:05Z</time>
      </trkpt>
      <trkpt lat="37.3713465314" lon="-2.9727388546">
        <ele>1211.88</ele>
        <time>2020-09-06T19:47:06Z</time>
      </trkpt>
      <trkpt lat="37.3713339586" lon="-2.9727113619">
        <ele>1211.88</ele>
        <time>2020-09-06T19:47:07Z</time>
      </trkpt>
      <trkpt lat="37.3713264149" lon="-2.9726884793">
        <ele>1211.88</ele>
        <time>2020-09-06T19:47:08Z</time>
      </trkpt>
      <trkpt lat="37.3713204637" lon="-2.9726717155">
        <ele>1211.88</ele>
        <time>2020-09-06T19:47:09Z</time>
      </trkpt>
      <trkpt lat="37.3713099863" lon="-2.9726574663">
        <ele>1212.36</ele>
        <time>2020-09-06T19:47:10Z</time>
      </trkpt>
      <trkpt lat="37.3712817393" lon="-2.9726259504">
        <ele>1212.36</ele>
        <time>2020-09-06T19:47:23Z</time>
      </trkpt>
      <trkpt lat="37.3712608684" lon="-2.9726012237">
        <ele>1212.84</ele>
        <time>2020-09-06T19:47:53Z</time>
      </trkpt>
      <trkpt lat="37.3713001795" lon="-2.9726023972">
        <ele>1212.84</ele>
        <time>2020-09-06T19:48:17Z</time>
      </trkpt>
      <trkpt lat="37.3713039514" lon="-2.9725968651">
        <ele>1213.32</ele>
        <time>2020-09-06T19:48:47Z</time>
      </trkpt>
      <trkpt lat="37.3712632153" lon="-2.9725983739">
        <ele>1213.32</ele>
        <time>2020-09-06T19:49:13Z</time>
      </trkpt>
      <trkpt lat="37.3712507263" lon="-2.9726113658">
        <ele>1213.32</ele>
        <time>2020-09-06T19:49:14Z</time>
      </trkpt>
      <trkpt lat="37.3712390754" lon="-2.9726290517">
        <ele>1213.80</ele>
        <time>2020-09-06T19:49:15Z</time>
      </trkpt>
      <trkpt lat="37.3712232336" lon="-2.9726522695">
        <ele>1213.80</ele>
        <time>2020-09-06T19:49:16Z</time>
      </trkpt>
      <trkpt lat="37.3712053802" lon="-2.9726709612">
        <ele>1213.80</ele>
        <time>2020-09-06T19:49:17Z</time>
      </trkpt>
      <trkpt lat="37.3711851798" lon="-2.9726853780">
        <ele>1213.80</ele>
        <time>2020-09-06T19:49:18Z</time>
      </trkpt>
      <trkpt lat="37.3711615428" lon="-2.9726964422">
        <ele>1214.28</ele>
        <time>2020-09-06T19:49:19Z</time>
      </trkpt>
      <trkpt lat="37.3708519153" lon="-2.9727003817">
        <ele>1216.69</ele>
        <time>2020-09-06T19:49:33Z</time>
      </trkpt>
      <trkpt lat="37.3706737161" lon="-2.9725853819">
        <ele>1218.61</ele>
        <time>2020-09-06T19:49:49Z</time>
      </trkpt>
      <trkpt lat="37.3706504144" lon="-2.9725713003">
        <ele>1218.61</ele>
        <time>2020-09-06T19:49:57Z</time>
      </trkpt>
      <trkpt lat="37.3706313036" lon="-2.9725599848">
        <ele>1218.61</ele>
        <time>2020-09-06T19:49:58Z</time>
      </trkpt>
      <trkpt lat="37.3704950977" lon="-2.9724447336">
        <ele>1219.57</ele>
        <time>2020-09-06T19:50:03Z</time>
      </trkpt>
      <trkpt lat="37.3701332510" lon="-2.9721048474">
        <ele>1222.93</ele>
        <time>2020-09-06T19:50:15Z</time>
      </trkpt>
      <trkpt lat="37.3697719071" lon="-2.9717258178">
        <ele>1224.38</ele>
        <time>2020-09-06T19:50:30Z</time>
      </trkpt>
      <trkpt lat="37.3697577417" lon="-2.9716691561">
        <ele>1224.86</ele>
        <time>2020-09-06T19:50:33Z</time>
      </trkpt>
      <trkpt lat="37.3697561491" lon="-2.9716466088">
        <ele>1224.86</ele>
        <time>2020-09-06T19:50:34Z</time>
      </trkpt>
      <trkpt lat="37.3697566520" lon="-2.9716325272">
        <ele>1224.86</ele>
        <time>2020-09-06T19:50:35Z</time>
      </trkpt>
      <trkpt lat="37.3697591666" lon="-2.9716162663">
        <ele>1224.86</ele>
        <time>2020-09-06T19:50:36Z</time>
      </trkpt>
      <trkpt lat="37.3697647825" lon="-2.9715999216">
        <ele>1224.86</ele>
        <time>2020-09-06T19:50:37Z</time>
      </trkpt>
      <trkpt lat="37.3697718233" lon="-2.9715782963">
        <ele>1224.86</ele>
        <time>2020-09-06T19:50:38Z</time>
      </trkpt>
      <trkpt lat="37.3697805405" lon="-2.9713617079">
        <ele>1224.86</ele>
        <time>2020-09-06T19:50:52Z</time>
      </trkpt>
      <trkpt lat="37.3697662912" lon="-2.9713293537">
        <ele>1225.34</ele>
        <time>2020-09-06T19:51:08Z</time>
      </trkpt>
    </trkseg>
  </trk>
</gpx>
